<?xml version="1.0" encoding="UTF-8" standalone="no" ?>
<gpx xmlns="http://www.topografix.com/GPX/1/1" xmlns:xsi="http://www.w3.org/2001/XMLSchema-instance" xsi:schemaLocation="http://www.topografix.com/GPX/1/1 http://www.topografix.com/GPX/1/1/gpx.xsd" version="1.1" creator="VisuGPX - https://www.visugpx.com">
  <metadata>
    <name>cap frehel fort la latte</name>
    <desc><![CDATA[parking du vieux bourg,cap frehel,fort la latte,pointe du chateau serein,la moinerie,parking]]></desc>
  </metadata>
  <trk>
    <name><![CDATA[cap frehel fort la latte_1]]></name>
    <trkseg>
      <trkpt lat="48.65428" lon="-2.36522">
        <ele>26</ele>
        <time>2014-06-10T08:42:32Z</time>
      </trkpt>
      <trkpt lat="48.65427" lon="-2.36479">
        <ele>22</ele>
        <time>2014-06-10T08:43:45Z</time>
      </trkpt>
      <trkpt lat="48.65427" lon="-2.36477">
        <ele>22</ele>
        <time>2014-06-10T08:43:47Z</time>
      </trkpt>
      <trkpt lat="48.65426" lon="-2.36475">
        <ele>22</ele>
        <time>2014-06-10T08:43:49Z</time>
      </trkpt>
      <trkpt lat="48.65425" lon="-2.36472">
        <ele>22</ele>
        <time>2014-06-10T08:43:51Z</time>
      </trkpt>
      <trkpt lat="48.65424" lon="-2.3647">
        <ele>22</ele>
        <time>2014-06-10T08:43:53Z</time>
      </trkpt>
      <trkpt lat="48.65423" lon="-2.36467">
        <ele>22</ele>
        <time>2014-06-10T08:43:55Z</time>
      </trkpt>
      <trkpt lat="48.65422" lon="-2.36464">
        <ele>22</ele>
        <time>2014-06-10T08:43:57Z</time>
      </trkpt>
      <trkpt lat="48.6542" lon="-2.36462">
        <ele>22</ele>
        <time>2014-06-10T08:43:59Z</time>
      </trkpt>
      <trkpt lat="48.65418" lon="-2.3646">
        <ele>22</ele>
        <time>2014-06-10T08:44:01Z</time>
      </trkpt>
      <trkpt lat="48.65416" lon="-2.36458">
        <ele>22</ele>
        <time>2014-06-10T08:44:03Z</time>
      </trkpt>
      <trkpt lat="48.65415" lon="-2.36455">
        <ele>22</ele>
        <time>2014-06-10T08:44:05Z</time>
      </trkpt>
      <trkpt lat="48.65413" lon="-2.36453">
        <ele>22</ele>
        <time>2014-06-10T08:44:07Z</time>
      </trkpt>
      <trkpt lat="48.65411" lon="-2.36451">
        <ele>22</ele>
        <time>2014-06-10T08:44:09Z</time>
      </trkpt>
      <trkpt lat="48.6541" lon="-2.36449">
        <ele>22</ele>
        <time>2014-06-10T08:44:11Z</time>
      </trkpt>
      <trkpt lat="48.65408" lon="-2.36446">
        <ele>22</ele>
        <time>2014-06-10T08:44:13Z</time>
      </trkpt>
      <trkpt lat="48.65406" lon="-2.36444">
        <ele>22</ele>
        <time>2014-06-10T08:44:15Z</time>
      </trkpt>
      <trkpt lat="48.65405" lon="-2.36442">
        <ele>22</ele>
        <time>2014-06-10T08:44:17Z</time>
      </trkpt>
      <trkpt lat="48.65403" lon="-2.36438">
        <ele>22</ele>
        <time>2014-06-10T08:44:19Z</time>
      </trkpt>
      <trkpt lat="48.65401" lon="-2.36435">
        <ele>22</ele>
        <time>2014-06-10T08:44:21Z</time>
      </trkpt>
      <trkpt lat="48.65401" lon="-2.36431">
        <ele>22</ele>
        <time>2014-06-10T08:44:23Z</time>
      </trkpt>
      <trkpt lat="48.654" lon="-2.36427">
        <ele>22</ele>
        <time>2014-06-10T08:44:25Z</time>
      </trkpt>
      <trkpt lat="48.65399" lon="-2.36424">
        <ele>22</ele>
        <time>2014-06-10T08:44:27Z</time>
      </trkpt>
      <trkpt lat="48.65398" lon="-2.36421">
        <ele>22</ele>
        <time>2014-06-10T08:44:29Z</time>
      </trkpt>
      <trkpt lat="48.65397" lon="-2.36418">
        <ele>22</ele>
        <time>2014-06-10T08:44:31Z</time>
      </trkpt>
      <trkpt lat="48.65395" lon="-2.36413">
        <ele>22</ele>
        <time>2014-06-10T08:44:34Z</time>
      </trkpt>
      <trkpt lat="48.65393" lon="-2.3641">
        <ele>22</ele>
        <time>2014-06-10T08:44:36Z</time>
      </trkpt>
      <trkpt lat="48.65392" lon="-2.36408">
        <ele>22</ele>
        <time>2014-06-10T08:44:38Z</time>
      </trkpt>
      <trkpt lat="48.6539" lon="-2.36404">
        <ele>22</ele>
        <time>2014-06-10T08:44:41Z</time>
      </trkpt>
      <trkpt lat="48.6539" lon="-2.36402">
        <ele>22</ele>
        <time>2014-06-10T08:44:43Z</time>
      </trkpt>
      <trkpt lat="48.65388" lon="-2.364">
        <ele>22</ele>
        <time>2014-06-10T08:44:45Z</time>
      </trkpt>
      <trkpt lat="48.65386" lon="-2.36399">
        <ele>22</ele>
        <time>2014-06-10T08:44:47Z</time>
      </trkpt>
      <trkpt lat="48.65385" lon="-2.36396">
        <ele>22</ele>
        <time>2014-06-10T08:44:49Z</time>
      </trkpt>
      <trkpt lat="48.65384" lon="-2.36392">
        <ele>22</ele>
        <time>2014-06-10T08:44:51Z</time>
      </trkpt>
      <trkpt lat="48.65384" lon="-2.36387">
        <ele>22</ele>
        <time>2014-06-10T08:44:53Z</time>
      </trkpt>
      <trkpt lat="48.65385" lon="-2.36385">
        <ele>22</ele>
        <time>2014-06-10T08:44:55Z</time>
      </trkpt>
      <trkpt lat="48.65386" lon="-2.36382">
        <ele>22</ele>
        <time>2014-06-10T08:44:57Z</time>
      </trkpt>
      <trkpt lat="48.65387" lon="-2.3638">
        <ele>22</ele>
        <time>2014-06-10T08:44:59Z</time>
      </trkpt>
      <trkpt lat="48.65387" lon="-2.36377">
        <ele>22</ele>
        <time>2014-06-10T08:45:01Z</time>
      </trkpt>
      <trkpt lat="48.65388" lon="-2.36374">
        <ele>22</ele>
        <time>2014-06-10T08:45:03Z</time>
      </trkpt>
      <trkpt lat="48.65388" lon="-2.36372">
        <ele>22</ele>
        <time>2014-06-10T08:45:05Z</time>
      </trkpt>
      <trkpt lat="48.65388" lon="-2.36371">
        <ele>22</ele>
        <time>2014-06-10T08:45:07Z</time>
      </trkpt>
      <trkpt lat="48.6539" lon="-2.36369">
        <ele>22</ele>
        <time>2014-06-10T08:45:09Z</time>
      </trkpt>
      <trkpt lat="48.65391" lon="-2.36367">
        <ele>22</ele>
        <time>2014-06-10T08:45:11Z</time>
      </trkpt>
      <trkpt lat="48.65392" lon="-2.36365">
        <ele>22</ele>
        <time>2014-06-10T08:45:13Z</time>
      </trkpt>
      <trkpt lat="48.65393" lon="-2.36361">
        <ele>22</ele>
        <time>2014-06-10T08:45:15Z</time>
      </trkpt>
      <trkpt lat="48.65393" lon="-2.36358">
        <ele>22</ele>
        <time>2014-06-10T08:45:17Z</time>
      </trkpt>
      <trkpt lat="48.65392" lon="-2.36356">
        <ele>22</ele>
        <time>2014-06-10T08:45:19Z</time>
      </trkpt>
      <trkpt lat="48.6539" lon="-2.36354">
        <ele>22</ele>
        <time>2014-06-10T08:45:21Z</time>
      </trkpt>
      <trkpt lat="48.65388" lon="-2.36352">
        <ele>22</ele>
        <time>2014-06-10T08:45:23Z</time>
      </trkpt>
      <trkpt lat="48.65386" lon="-2.3635">
        <ele>22</ele>
        <time>2014-06-10T08:45:25Z</time>
      </trkpt>
      <trkpt lat="48.65385" lon="-2.36349">
        <ele>22</ele>
        <time>2014-06-10T08:45:27Z</time>
      </trkpt>
      <trkpt lat="48.65383" lon="-2.36348">
        <ele>22</ele>
        <time>2014-06-10T08:45:29Z</time>
      </trkpt>
      <trkpt lat="48.65381" lon="-2.36346">
        <ele>22</ele>
        <time>2014-06-10T08:45:31Z</time>
      </trkpt>
      <trkpt lat="48.65378" lon="-2.36344">
        <ele>22</ele>
        <time>2014-06-10T08:45:33Z</time>
      </trkpt>
      <trkpt lat="48.65375" lon="-2.36341">
        <ele>22</ele>
        <time>2014-06-10T08:45:36Z</time>
      </trkpt>
      <trkpt lat="48.65374" lon="-2.36338">
        <ele>22</ele>
        <time>2014-06-10T08:45:38Z</time>
      </trkpt>
      <trkpt lat="48.6537" lon="-2.36335">
        <ele>22</ele>
        <time>2014-06-10T08:45:41Z</time>
      </trkpt>
      <trkpt lat="48.65368" lon="-2.36333">
        <ele>22</ele>
        <time>2014-06-10T08:45:43Z</time>
      </trkpt>
      <trkpt lat="48.65366" lon="-2.3633">
        <ele>22</ele>
        <time>2014-06-10T08:45:45Z</time>
      </trkpt>
      <trkpt lat="48.65364" lon="-2.36327">
        <ele>22</ele>
        <time>2014-06-10T08:45:47Z</time>
      </trkpt>
      <trkpt lat="48.65362" lon="-2.36324">
        <ele>22</ele>
        <time>2014-06-10T08:45:49Z</time>
      </trkpt>
      <trkpt lat="48.65361" lon="-2.36321">
        <ele>22</ele>
        <time>2014-06-10T08:45:51Z</time>
      </trkpt>
      <trkpt lat="48.65359" lon="-2.36318">
        <ele>22</ele>
        <time>2014-06-10T08:45:53Z</time>
      </trkpt>
      <trkpt lat="48.65358" lon="-2.36313">
        <ele>22</ele>
        <time>2014-06-10T08:45:56Z</time>
      </trkpt>
      <trkpt lat="48.65356" lon="-2.36308">
        <ele>22</ele>
        <time>2014-06-10T08:45:59Z</time>
      </trkpt>
      <trkpt lat="48.65355" lon="-2.36304">
        <ele>22</ele>
        <time>2014-06-10T08:46:01Z</time>
      </trkpt>
      <trkpt lat="48.65355" lon="-2.363">
        <ele>22</ele>
        <time>2014-06-10T08:46:04Z</time>
      </trkpt>
      <trkpt lat="48.65355" lon="-2.36296">
        <ele>22</ele>
        <time>2014-06-10T08:46:06Z</time>
      </trkpt>
      <trkpt lat="48.65356" lon="-2.36292">
        <ele>22</ele>
        <time>2014-06-10T08:46:08Z</time>
      </trkpt>
      <trkpt lat="48.65358" lon="-2.36287">
        <ele>22</ele>
        <time>2014-06-10T08:46:11Z</time>
      </trkpt>
      <trkpt lat="48.65358" lon="-2.36283">
        <ele>22</ele>
        <time>2014-06-10T08:46:14Z</time>
      </trkpt>
      <trkpt lat="48.65357" lon="-2.36279">
        <ele>22</ele>
        <time>2014-06-10T08:46:16Z</time>
      </trkpt>
      <trkpt lat="48.65357" lon="-2.36275">
        <ele>22</ele>
        <time>2014-06-10T08:46:18Z</time>
      </trkpt>
      <trkpt lat="48.65357" lon="-2.36269">
        <ele>22</ele>
        <time>2014-06-10T08:46:20Z</time>
      </trkpt>
      <trkpt lat="48.65356" lon="-2.36263">
        <ele>22</ele>
        <time>2014-06-10T08:46:22Z</time>
      </trkpt>
      <trkpt lat="48.65356" lon="-2.36258">
        <ele>22</ele>
        <time>2014-06-10T08:46:24Z</time>
      </trkpt>
      <trkpt lat="48.65356" lon="-2.36253">
        <ele>22</ele>
        <time>2014-06-10T08:46:26Z</time>
      </trkpt>
      <trkpt lat="48.65357" lon="-2.36246">
        <ele>22</ele>
        <time>2014-06-10T08:46:29Z</time>
      </trkpt>
      <trkpt lat="48.65358" lon="-2.36243">
        <ele>22</ele>
        <time>2014-06-10T08:46:31Z</time>
      </trkpt>
      <trkpt lat="48.65358" lon="-2.36241">
        <ele>22</ele>
        <time>2014-06-10T08:46:33Z</time>
      </trkpt>
      <trkpt lat="48.65358" lon="-2.36238">
        <ele>22</ele>
        <time>2014-06-10T08:46:35Z</time>
      </trkpt>
      <trkpt lat="48.65359" lon="-2.36232">
        <ele>22</ele>
        <time>2014-06-10T08:46:38Z</time>
      </trkpt>
      <trkpt lat="48.65359" lon="-2.36229">
        <ele>22</ele>
        <time>2014-06-10T08:46:40Z</time>
      </trkpt>
      <trkpt lat="48.65361" lon="-2.36225">
        <ele>22</ele>
        <time>2014-06-10T08:46:43Z</time>
      </trkpt>
      <trkpt lat="48.65362" lon="-2.36219">
        <ele>22</ele>
        <time>2014-06-10T08:46:46Z</time>
      </trkpt>
      <trkpt lat="48.65363" lon="-2.36216">
        <ele>22</ele>
        <time>2014-06-10T08:46:48Z</time>
      </trkpt>
      <trkpt lat="48.65363" lon="-2.36213">
        <ele>23</ele>
        <time>2014-06-10T08:46:50Z</time>
      </trkpt>
      <trkpt lat="48.65363" lon="-2.36209">
        <ele>23</ele>
        <time>2014-06-10T08:46:52Z</time>
      </trkpt>
      <trkpt lat="48.65363" lon="-2.36204">
        <ele>24</ele>
        <time>2014-06-10T08:46:54Z</time>
      </trkpt>
      <trkpt lat="48.65364" lon="-2.362">
        <ele>24</ele>
        <time>2014-06-10T08:46:57Z</time>
      </trkpt>
      <trkpt lat="48.65363" lon="-2.36195">
        <ele>25</ele>
        <time>2014-06-10T08:47:00Z</time>
      </trkpt>
      <trkpt lat="48.65362" lon="-2.36192">
        <ele>25</ele>
        <time>2014-06-10T08:47:02Z</time>
      </trkpt>
      <trkpt lat="48.65361" lon="-2.36189">
        <ele>25</ele>
        <time>2014-06-10T08:47:04Z</time>
      </trkpt>
      <trkpt lat="48.65361" lon="-2.36185">
        <ele>25</ele>
        <time>2014-06-10T08:47:06Z</time>
      </trkpt>
      <trkpt lat="48.65359" lon="-2.36182">
        <ele>25</ele>
        <time>2014-06-10T08:47:08Z</time>
      </trkpt>
      <trkpt lat="48.6536" lon="-2.36178">
        <ele>25</ele>
        <time>2014-06-10T08:47:10Z</time>
      </trkpt>
      <trkpt lat="48.6536" lon="-2.36174">
        <ele>25</ele>
        <time>2014-06-10T08:47:12Z</time>
      </trkpt>
      <trkpt lat="48.65359" lon="-2.36171">
        <ele>25</ele>
        <time>2014-06-10T08:47:14Z</time>
      </trkpt>
      <trkpt lat="48.65359" lon="-2.36167">
        <ele>25</ele>
        <time>2014-06-10T08:47:16Z</time>
      </trkpt>
      <trkpt lat="48.6536" lon="-2.36163">
        <ele>25</ele>
        <time>2014-06-10T08:47:18Z</time>
      </trkpt>
      <trkpt lat="48.65361" lon="-2.36158">
        <ele>25</ele>
        <time>2014-06-10T08:47:20Z</time>
      </trkpt>
      <trkpt lat="48.65361" lon="-2.36154">
        <ele>25</ele>
        <time>2014-06-10T08:47:22Z</time>
      </trkpt>
      <trkpt lat="48.65362" lon="-2.3615">
        <ele>25</ele>
        <time>2014-06-10T08:47:24Z</time>
      </trkpt>
      <trkpt lat="48.65362" lon="-2.36147">
        <ele>25</ele>
        <time>2014-06-10T08:47:26Z</time>
      </trkpt>
      <trkpt lat="48.65363" lon="-2.36142">
        <ele>25</ele>
        <time>2014-06-10T08:47:29Z</time>
      </trkpt>
      <trkpt lat="48.65364" lon="-2.36137">
        <ele>25</ele>
        <time>2014-06-10T08:47:32Z</time>
      </trkpt>
      <trkpt lat="48.65366" lon="-2.36133">
        <ele>25</ele>
        <time>2014-06-10T08:47:34Z</time>
      </trkpt>
      <trkpt lat="48.65365" lon="-2.3613">
        <ele>25</ele>
        <time>2014-06-10T08:47:36Z</time>
      </trkpt>
      <trkpt lat="48.65365" lon="-2.36126">
        <ele>25</ele>
        <time>2014-06-10T08:47:38Z</time>
      </trkpt>
      <trkpt lat="48.65365" lon="-2.36122">
        <ele>25</ele>
        <time>2014-06-10T08:47:40Z</time>
      </trkpt>
      <trkpt lat="48.65366" lon="-2.36118">
        <ele>25</ele>
        <time>2014-06-10T08:47:42Z</time>
      </trkpt>
      <trkpt lat="48.65367" lon="-2.36114">
        <ele>25</ele>
        <time>2014-06-10T08:47:44Z</time>
      </trkpt>
      <trkpt lat="48.65367" lon="-2.3611">
        <ele>25</ele>
        <time>2014-06-10T08:47:46Z</time>
      </trkpt>
      <trkpt lat="48.65368" lon="-2.36105">
        <ele>25</ele>
        <time>2014-06-10T08:47:48Z</time>
      </trkpt>
      <trkpt lat="48.65368" lon="-2.36103">
        <ele>25</ele>
        <time>2014-06-10T08:47:50Z</time>
      </trkpt>
      <trkpt lat="48.65369" lon="-2.361">
        <ele>25</ele>
        <time>2014-06-10T08:47:52Z</time>
      </trkpt>
      <trkpt lat="48.65369" lon="-2.36095">
        <ele>25</ele>
        <time>2014-06-10T08:47:54Z</time>
      </trkpt>
      <trkpt lat="48.65369" lon="-2.36091">
        <ele>25</ele>
        <time>2014-06-10T08:47:56Z</time>
      </trkpt>
      <trkpt lat="48.6537" lon="-2.36087">
        <ele>25</ele>
        <time>2014-06-10T08:47:59Z</time>
      </trkpt>
      <trkpt lat="48.65371" lon="-2.36083">
        <ele>25</ele>
        <time>2014-06-10T08:48:01Z</time>
      </trkpt>
      <trkpt lat="48.65372" lon="-2.36079">
        <ele>25</ele>
        <time>2014-06-10T08:48:03Z</time>
      </trkpt>
      <trkpt lat="48.65374" lon="-2.36076">
        <ele>25</ele>
        <time>2014-06-10T08:48:05Z</time>
      </trkpt>
      <trkpt lat="48.65374" lon="-2.36072">
        <ele>25</ele>
        <time>2014-06-10T08:48:07Z</time>
      </trkpt>
      <trkpt lat="48.65375" lon="-2.36069">
        <ele>25</ele>
        <time>2014-06-10T08:48:09Z</time>
      </trkpt>
      <trkpt lat="48.65376" lon="-2.36064">
        <ele>25</ele>
        <time>2014-06-10T08:48:12Z</time>
      </trkpt>
      <trkpt lat="48.65377" lon="-2.36061">
        <ele>25</ele>
        <time>2014-06-10T08:48:14Z</time>
      </trkpt>
      <trkpt lat="48.65377" lon="-2.36058">
        <ele>25</ele>
        <time>2014-06-10T08:48:16Z</time>
      </trkpt>
      <trkpt lat="48.65378" lon="-2.36055">
        <ele>25</ele>
        <time>2014-06-10T08:48:18Z</time>
      </trkpt>
      <trkpt lat="48.65378" lon="-2.36052">
        <ele>25</ele>
        <time>2014-06-10T08:48:20Z</time>
      </trkpt>
      <trkpt lat="48.65379" lon="-2.36052">
        <ele>25</ele>
        <time>2014-06-10T08:48:22Z</time>
      </trkpt>
      <trkpt lat="48.65381" lon="-2.36052">
        <ele>25</ele>
        <time>2014-06-10T08:48:24Z</time>
      </trkpt>
      <trkpt lat="48.65382" lon="-2.36052">
        <ele>25</ele>
        <time>2014-06-10T08:48:26Z</time>
      </trkpt>
      <trkpt lat="48.65383" lon="-2.3605">
        <ele>25</ele>
        <time>2014-06-10T08:48:29Z</time>
      </trkpt>
      <trkpt lat="48.65385" lon="-2.36048">
        <ele>25</ele>
        <time>2014-06-10T08:48:32Z</time>
      </trkpt>
      <trkpt lat="48.65385" lon="-2.36043">
        <ele>25</ele>
        <time>2014-06-10T08:48:34Z</time>
      </trkpt>
      <trkpt lat="48.65385" lon="-2.3604">
        <ele>25</ele>
        <time>2014-06-10T08:48:36Z</time>
      </trkpt>
      <trkpt lat="48.65386" lon="-2.36035">
        <ele>25</ele>
        <time>2014-06-10T08:48:38Z</time>
      </trkpt>
      <trkpt lat="48.65386" lon="-2.36032">
        <ele>25</ele>
        <time>2014-06-10T08:48:40Z</time>
      </trkpt>
      <trkpt lat="48.65387" lon="-2.36028">
        <ele>25</ele>
        <time>2014-06-10T08:48:42Z</time>
      </trkpt>
      <trkpt lat="48.65388" lon="-2.36023">
        <ele>25</ele>
        <time>2014-06-10T08:48:44Z</time>
      </trkpt>
      <trkpt lat="48.65389" lon="-2.36019">
        <ele>25</ele>
        <time>2014-06-10T08:48:46Z</time>
      </trkpt>
      <trkpt lat="48.65389" lon="-2.36014">
        <ele>25</ele>
        <time>2014-06-10T08:48:48Z</time>
      </trkpt>
      <trkpt lat="48.65389" lon="-2.3601">
        <ele>25</ele>
        <time>2014-06-10T08:48:50Z</time>
      </trkpt>
      <trkpt lat="48.6539" lon="-2.36005">
        <ele>25</ele>
        <time>2014-06-10T08:48:52Z</time>
      </trkpt>
      <trkpt lat="48.65391" lon="-2.36001">
        <ele>25</ele>
        <time>2014-06-10T08:48:54Z</time>
      </trkpt>
      <trkpt lat="48.65391" lon="-2.35996">
        <ele>25</ele>
        <time>2014-06-10T08:48:56Z</time>
      </trkpt>
      <trkpt lat="48.6539" lon="-2.35991">
        <ele>25</ele>
        <time>2014-06-10T08:48:58Z</time>
      </trkpt>
      <trkpt lat="48.65391" lon="-2.35986">
        <ele>25</ele>
        <time>2014-06-10T08:49:00Z</time>
      </trkpt>
      <trkpt lat="48.65392" lon="-2.35982">
        <ele>25</ele>
        <time>2014-06-10T08:49:02Z</time>
      </trkpt>
      <trkpt lat="48.65392" lon="-2.35978">
        <ele>25</ele>
        <time>2014-06-10T08:49:04Z</time>
      </trkpt>
      <trkpt lat="48.65394" lon="-2.35974">
        <ele>25</ele>
        <time>2014-06-10T08:49:06Z</time>
      </trkpt>
      <trkpt lat="48.65394" lon="-2.3597">
        <ele>25</ele>
        <time>2014-06-10T08:49:08Z</time>
      </trkpt>
      <trkpt lat="48.65396" lon="-2.35966">
        <ele>25</ele>
        <time>2014-06-10T08:49:10Z</time>
      </trkpt>
      <trkpt lat="48.65398" lon="-2.35962">
        <ele>25</ele>
        <time>2014-06-10T08:49:12Z</time>
      </trkpt>
      <trkpt lat="48.65401" lon="-2.35959">
        <ele>25</ele>
        <time>2014-06-10T08:49:14Z</time>
      </trkpt>
      <trkpt lat="48.65403" lon="-2.35956">
        <ele>25</ele>
        <time>2014-06-10T08:49:16Z</time>
      </trkpt>
      <trkpt lat="48.65403" lon="-2.35953">
        <ele>25</ele>
        <time>2014-06-10T08:49:18Z</time>
      </trkpt>
      <trkpt lat="48.65405" lon="-2.35948">
        <ele>25</ele>
        <time>2014-06-10T08:49:21Z</time>
      </trkpt>
      <trkpt lat="48.65406" lon="-2.35943">
        <ele>25</ele>
        <time>2014-06-10T08:49:24Z</time>
      </trkpt>
      <trkpt lat="48.65408" lon="-2.35939">
        <ele>25</ele>
        <time>2014-06-10T08:49:26Z</time>
      </trkpt>
      <trkpt lat="48.65409" lon="-2.35935">
        <ele>25</ele>
        <time>2014-06-10T08:49:28Z</time>
      </trkpt>
      <trkpt lat="48.6541" lon="-2.35932">
        <ele>25</ele>
        <time>2014-06-10T08:49:30Z</time>
      </trkpt>
      <trkpt lat="48.65411" lon="-2.35928">
        <ele>26</ele>
        <time>2014-06-10T08:49:32Z</time>
      </trkpt>
      <trkpt lat="48.65412" lon="-2.35925">
        <ele>26</ele>
        <time>2014-06-10T08:49:34Z</time>
      </trkpt>
      <trkpt lat="48.65414" lon="-2.35919">
        <ele>26</ele>
        <time>2014-06-10T08:49:37Z</time>
      </trkpt>
      <trkpt lat="48.65414" lon="-2.35915">
        <ele>26</ele>
        <time>2014-06-10T08:49:39Z</time>
      </trkpt>
      <trkpt lat="48.65415" lon="-2.35912">
        <ele>26</ele>
        <time>2014-06-10T08:49:41Z</time>
      </trkpt>
      <trkpt lat="48.65417" lon="-2.35907">
        <ele>26</ele>
        <time>2014-06-10T08:49:44Z</time>
      </trkpt>
      <trkpt lat="48.65419" lon="-2.35906">
        <ele>26</ele>
        <time>2014-06-10T08:49:46Z</time>
      </trkpt>
      <trkpt lat="48.65422" lon="-2.35905">
        <ele>26</ele>
        <time>2014-06-10T08:49:48Z</time>
      </trkpt>
      <trkpt lat="48.65424" lon="-2.35904">
        <ele>26</ele>
        <time>2014-06-10T08:49:50Z</time>
      </trkpt>
      <trkpt lat="48.65427" lon="-2.35904">
        <ele>26</ele>
        <time>2014-06-10T08:49:52Z</time>
      </trkpt>
      <trkpt lat="48.6543" lon="-2.35904">
        <ele>26</ele>
        <time>2014-06-10T08:49:54Z</time>
      </trkpt>
      <trkpt lat="48.65432" lon="-2.35905">
        <ele>26</ele>
        <time>2014-06-10T08:49:56Z</time>
      </trkpt>
      <trkpt lat="48.65435" lon="-2.35905">
        <ele>26</ele>
        <time>2014-06-10T08:49:58Z</time>
      </trkpt>
      <trkpt lat="48.65437" lon="-2.35905">
        <ele>26</ele>
        <time>2014-06-10T08:50:00Z</time>
      </trkpt>
      <trkpt lat="48.65441" lon="-2.35906">
        <ele>26</ele>
        <time>2014-06-10T08:50:03Z</time>
      </trkpt>
      <trkpt lat="48.65443" lon="-2.35906">
        <ele>25</ele>
        <time>2014-06-10T08:50:05Z</time>
      </trkpt>
      <trkpt lat="48.65446" lon="-2.35907">
        <ele>25</ele>
        <time>2014-06-10T08:50:07Z</time>
      </trkpt>
      <trkpt lat="48.65449" lon="-2.35907">
        <ele>25</ele>
        <time>2014-06-10T08:50:09Z</time>
      </trkpt>
      <trkpt lat="48.65451" lon="-2.35908">
        <ele>24</ele>
        <time>2014-06-10T08:50:11Z</time>
      </trkpt>
      <trkpt lat="48.65454" lon="-2.35909">
        <ele>24</ele>
        <time>2014-06-10T08:50:13Z</time>
      </trkpt>
      <trkpt lat="48.65456" lon="-2.3591">
        <ele>24</ele>
        <time>2014-06-10T08:50:15Z</time>
      </trkpt>
      <trkpt lat="48.65459" lon="-2.3591">
        <ele>24</ele>
        <time>2014-06-10T08:50:17Z</time>
      </trkpt>
      <trkpt lat="48.65462" lon="-2.35911">
        <ele>23</ele>
        <time>2014-06-10T08:50:20Z</time>
      </trkpt>
      <trkpt lat="48.65464" lon="-2.35912">
        <ele>23</ele>
        <time>2014-06-10T08:50:22Z</time>
      </trkpt>
      <trkpt lat="48.65467" lon="-2.35912">
        <ele>23</ele>
        <time>2014-06-10T08:50:24Z</time>
      </trkpt>
      <trkpt lat="48.65469" lon="-2.35912">
        <ele>22</ele>
        <time>2014-06-10T08:50:26Z</time>
      </trkpt>
      <trkpt lat="48.65472" lon="-2.35912">
        <ele>22</ele>
        <time>2014-06-10T08:50:28Z</time>
      </trkpt>
      <trkpt lat="48.65474" lon="-2.35912">
        <ele>22</ele>
        <time>2014-06-10T08:50:30Z</time>
      </trkpt>
      <trkpt lat="48.65477" lon="-2.35911">
        <ele>22</ele>
        <time>2014-06-10T08:50:32Z</time>
      </trkpt>
      <trkpt lat="48.65481" lon="-2.35908">
        <ele>22</ele>
        <time>2014-06-10T08:50:34Z</time>
      </trkpt>
      <trkpt lat="48.65484" lon="-2.35907">
        <ele>22</ele>
        <time>2014-06-10T08:50:36Z</time>
      </trkpt>
      <trkpt lat="48.65486" lon="-2.35905">
        <ele>22</ele>
        <time>2014-06-10T08:50:38Z</time>
      </trkpt>
      <trkpt lat="48.65488" lon="-2.35903">
        <ele>22</ele>
        <time>2014-06-10T08:50:40Z</time>
      </trkpt>
      <trkpt lat="48.6549" lon="-2.359">
        <ele>21</ele>
        <time>2014-06-10T08:50:42Z</time>
      </trkpt>
      <trkpt lat="48.65492" lon="-2.35898">
        <ele>21</ele>
        <time>2014-06-10T08:50:44Z</time>
      </trkpt>
      <trkpt lat="48.65495" lon="-2.35895">
        <ele>21</ele>
        <time>2014-06-10T08:50:46Z</time>
      </trkpt>
      <trkpt lat="48.65496" lon="-2.35892">
        <ele>21</ele>
        <time>2014-06-10T08:50:48Z</time>
      </trkpt>
      <trkpt lat="48.65498" lon="-2.35889">
        <ele>21</ele>
        <time>2014-06-10T08:50:50Z</time>
      </trkpt>
      <trkpt lat="48.655" lon="-2.35887">
        <ele>21</ele>
        <time>2014-06-10T08:50:52Z</time>
      </trkpt>
      <trkpt lat="48.65502" lon="-2.35883">
        <ele>21</ele>
        <time>2014-06-10T08:50:54Z</time>
      </trkpt>
      <trkpt lat="48.65505" lon="-2.35879">
        <ele>21</ele>
        <time>2014-06-10T08:50:57Z</time>
      </trkpt>
      <trkpt lat="48.65507" lon="-2.35876">
        <ele>21</ele>
        <time>2014-06-10T08:50:59Z</time>
      </trkpt>
      <trkpt lat="48.65509" lon="-2.35874">
        <ele>21</ele>
        <time>2014-06-10T08:51:01Z</time>
      </trkpt>
      <trkpt lat="48.65511" lon="-2.35871">
        <ele>21</ele>
        <time>2014-06-10T08:51:03Z</time>
      </trkpt>
      <trkpt lat="48.65513" lon="-2.35868">
        <ele>21</ele>
        <time>2014-06-10T08:51:05Z</time>
      </trkpt>
      <trkpt lat="48.65515" lon="-2.35864">
        <ele>21</ele>
        <time>2014-06-10T08:51:08Z</time>
      </trkpt>
      <trkpt lat="48.65519" lon="-2.3586">
        <ele>21</ele>
        <time>2014-06-10T08:51:11Z</time>
      </trkpt>
      <trkpt lat="48.65522" lon="-2.35858">
        <ele>21</ele>
        <time>2014-06-10T08:51:13Z</time>
      </trkpt>
      <trkpt lat="48.65525" lon="-2.35856">
        <ele>21</ele>
        <time>2014-06-10T08:51:15Z</time>
      </trkpt>
      <trkpt lat="48.65528" lon="-2.35854">
        <ele>21</ele>
        <time>2014-06-10T08:51:17Z</time>
      </trkpt>
      <trkpt lat="48.65531" lon="-2.35852">
        <ele>21</ele>
        <time>2014-06-10T08:51:19Z</time>
      </trkpt>
      <trkpt lat="48.65534" lon="-2.3585">
        <ele>21</ele>
        <time>2014-06-10T08:51:21Z</time>
      </trkpt>
      <trkpt lat="48.65537" lon="-2.35847">
        <ele>21</ele>
        <time>2014-06-10T08:51:23Z</time>
      </trkpt>
      <trkpt lat="48.65539" lon="-2.35845">
        <ele>21</ele>
        <time>2014-06-10T08:51:25Z</time>
      </trkpt>
      <trkpt lat="48.65542" lon="-2.35841">
        <ele>21</ele>
        <time>2014-06-10T08:51:28Z</time>
      </trkpt>
      <trkpt lat="48.65544" lon="-2.35839">
        <ele>21</ele>
        <time>2014-06-10T08:51:30Z</time>
      </trkpt>
      <trkpt lat="48.65545" lon="-2.35836">
        <ele>21</ele>
        <time>2014-06-10T08:51:32Z</time>
      </trkpt>
      <trkpt lat="48.65547" lon="-2.35833">
        <ele>21</ele>
        <time>2014-06-10T08:51:34Z</time>
      </trkpt>
      <trkpt lat="48.65548" lon="-2.3583">
        <ele>20</ele>
        <time>2014-06-10T08:51:36Z</time>
      </trkpt>
      <trkpt lat="48.65548" lon="-2.35826">
        <ele>20</ele>
        <time>2014-06-10T08:51:38Z</time>
      </trkpt>
      <trkpt lat="48.65549" lon="-2.35823">
        <ele>20</ele>
        <time>2014-06-10T08:51:40Z</time>
      </trkpt>
      <trkpt lat="48.65549" lon="-2.35819">
        <ele>20</ele>
        <time>2014-06-10T08:51:42Z</time>
      </trkpt>
      <trkpt lat="48.65551" lon="-2.35817">
        <ele>19</ele>
        <time>2014-06-10T08:51:44Z</time>
      </trkpt>
      <trkpt lat="48.65554" lon="-2.35814">
        <ele>19</ele>
        <time>2014-06-10T08:51:46Z</time>
      </trkpt>
      <trkpt lat="48.65557" lon="-2.35811">
        <ele>19</ele>
        <time>2014-06-10T08:51:49Z</time>
      </trkpt>
      <trkpt lat="48.6556" lon="-2.35811">
        <ele>19</ele>
        <time>2014-06-10T08:51:51Z</time>
      </trkpt>
      <trkpt lat="48.65562" lon="-2.3581">
        <ele>19</ele>
        <time>2014-06-10T08:51:53Z</time>
      </trkpt>
      <trkpt lat="48.65565" lon="-2.35809">
        <ele>19</ele>
        <time>2014-06-10T08:51:55Z</time>
      </trkpt>
      <trkpt lat="48.65568" lon="-2.35807">
        <ele>19</ele>
        <time>2014-06-10T08:51:58Z</time>
      </trkpt>
      <trkpt lat="48.65571" lon="-2.35804">
        <ele>19</ele>
        <time>2014-06-10T08:52:01Z</time>
      </trkpt>
      <trkpt lat="48.65573" lon="-2.35801">
        <ele>18</ele>
        <time>2014-06-10T08:52:03Z</time>
      </trkpt>
      <trkpt lat="48.65574" lon="-2.35799">
        <ele>18</ele>
        <time>2014-06-10T08:52:05Z</time>
      </trkpt>
      <trkpt lat="48.65576" lon="-2.35796">
        <ele>17</ele>
        <time>2014-06-10T08:52:07Z</time>
      </trkpt>
      <trkpt lat="48.65577" lon="-2.35793">
        <ele>17</ele>
        <time>2014-06-10T08:52:09Z</time>
      </trkpt>
      <trkpt lat="48.65579" lon="-2.3579">
        <ele>16</ele>
        <time>2014-06-10T08:52:11Z</time>
      </trkpt>
      <trkpt lat="48.6558" lon="-2.35787">
        <ele>16</ele>
        <time>2014-06-10T08:52:13Z</time>
      </trkpt>
      <trkpt lat="48.65581" lon="-2.35784">
        <ele>15</ele>
        <time>2014-06-10T08:52:15Z</time>
      </trkpt>
      <trkpt lat="48.65582" lon="-2.3578">
        <ele>15</ele>
        <time>2014-06-10T08:52:17Z</time>
      </trkpt>
      <trkpt lat="48.65583" lon="-2.35776">
        <ele>14</ele>
        <time>2014-06-10T08:52:19Z</time>
      </trkpt>
      <trkpt lat="48.65583" lon="-2.35771">
        <ele>13</ele>
        <time>2014-06-10T08:52:21Z</time>
      </trkpt>
      <trkpt lat="48.65583" lon="-2.35767">
        <ele>13</ele>
        <time>2014-06-10T08:52:23Z</time>
      </trkpt>
      <trkpt lat="48.65584" lon="-2.35763">
        <ele>13</ele>
        <time>2014-06-10T08:52:25Z</time>
      </trkpt>
      <trkpt lat="48.65586" lon="-2.3576">
        <ele>12</ele>
        <time>2014-06-10T08:52:27Z</time>
      </trkpt>
      <trkpt lat="48.65588" lon="-2.35755">
        <ele>12</ele>
        <time>2014-06-10T08:52:30Z</time>
      </trkpt>
      <trkpt lat="48.6559" lon="-2.35752">
        <ele>12</ele>
        <time>2014-06-10T08:52:32Z</time>
      </trkpt>
      <trkpt lat="48.6559" lon="-2.35747">
        <ele>12</ele>
        <time>2014-06-10T08:52:34Z</time>
      </trkpt>
      <trkpt lat="48.65591" lon="-2.35744">
        <ele>12</ele>
        <time>2014-06-10T08:52:36Z</time>
      </trkpt>
      <trkpt lat="48.65593" lon="-2.3574">
        <ele>12</ele>
        <time>2014-06-10T08:52:38Z</time>
      </trkpt>
      <trkpt lat="48.65596" lon="-2.35736">
        <ele>12</ele>
        <time>2014-06-10T08:52:40Z</time>
      </trkpt>
      <trkpt lat="48.65598" lon="-2.35733">
        <ele>12</ele>
        <time>2014-06-10T08:52:42Z</time>
      </trkpt>
      <trkpt lat="48.65599" lon="-2.35728">
        <ele>12</ele>
        <time>2014-06-10T08:52:45Z</time>
      </trkpt>
      <trkpt lat="48.65601" lon="-2.35724">
        <ele>12</ele>
        <time>2014-06-10T08:52:47Z</time>
      </trkpt>
      <trkpt lat="48.65603" lon="-2.3572">
        <ele>12</ele>
        <time>2014-06-10T08:52:49Z</time>
      </trkpt>
      <trkpt lat="48.65605" lon="-2.35718">
        <ele>12</ele>
        <time>2014-06-10T08:52:51Z</time>
      </trkpt>
      <trkpt lat="48.65607" lon="-2.35715">
        <ele>12</ele>
        <time>2014-06-10T08:52:53Z</time>
      </trkpt>
      <trkpt lat="48.65608" lon="-2.35712">
        <ele>12</ele>
        <time>2014-06-10T08:52:55Z</time>
      </trkpt>
      <trkpt lat="48.6561" lon="-2.35709">
        <ele>12</ele>
        <time>2014-06-10T08:52:57Z</time>
      </trkpt>
      <trkpt lat="48.65613" lon="-2.35704">
        <ele>12</ele>
        <time>2014-06-10T08:53:00Z</time>
      </trkpt>
      <trkpt lat="48.65615" lon="-2.35701">
        <ele>12</ele>
        <time>2014-06-10T08:53:02Z</time>
      </trkpt>
      <trkpt lat="48.65616" lon="-2.35699">
        <ele>12</ele>
        <time>2014-06-10T08:53:04Z</time>
      </trkpt>
      <trkpt lat="48.65618" lon="-2.35696">
        <ele>12</ele>
        <time>2014-06-10T08:53:06Z</time>
      </trkpt>
      <trkpt lat="48.6562" lon="-2.35693">
        <ele>12</ele>
        <time>2014-06-10T08:53:08Z</time>
      </trkpt>
      <trkpt lat="48.65621" lon="-2.35689">
        <ele>12</ele>
        <time>2014-06-10T08:53:10Z</time>
      </trkpt>
      <trkpt lat="48.65622" lon="-2.35685">
        <ele>12</ele>
        <time>2014-06-10T08:53:12Z</time>
      </trkpt>
      <trkpt lat="48.65624" lon="-2.35682">
        <ele>12</ele>
        <time>2014-06-10T08:53:14Z</time>
      </trkpt>
      <trkpt lat="48.65627" lon="-2.35679">
        <ele>12</ele>
        <time>2014-06-10T08:53:16Z</time>
      </trkpt>
      <trkpt lat="48.65629" lon="-2.35676">
        <ele>12</ele>
        <time>2014-06-10T08:53:18Z</time>
      </trkpt>
      <trkpt lat="48.65631" lon="-2.35675">
        <ele>12</ele>
        <time>2014-06-10T08:53:20Z</time>
      </trkpt>
      <trkpt lat="48.65634" lon="-2.35673">
        <ele>12</ele>
        <time>2014-06-10T08:53:22Z</time>
      </trkpt>
      <trkpt lat="48.65636" lon="-2.35671">
        <ele>12</ele>
        <time>2014-06-10T08:53:24Z</time>
      </trkpt>
      <trkpt lat="48.65638" lon="-2.35669">
        <ele>12</ele>
        <time>2014-06-10T08:53:26Z</time>
      </trkpt>
      <trkpt lat="48.65641" lon="-2.35668">
        <ele>12</ele>
        <time>2014-06-10T08:53:28Z</time>
      </trkpt>
      <trkpt lat="48.65644" lon="-2.35668">
        <ele>12</ele>
        <time>2014-06-10T08:53:30Z</time>
      </trkpt>
      <trkpt lat="48.65647" lon="-2.35668">
        <ele>12</ele>
        <time>2014-06-10T08:53:32Z</time>
      </trkpt>
      <trkpt lat="48.6565" lon="-2.35667">
        <ele>12</ele>
        <time>2014-06-10T08:53:34Z</time>
      </trkpt>
      <trkpt lat="48.65652" lon="-2.35666">
        <ele>12</ele>
        <time>2014-06-10T08:53:36Z</time>
      </trkpt>
      <trkpt lat="48.65655" lon="-2.35666">
        <ele>12</ele>
        <time>2014-06-10T08:53:38Z</time>
      </trkpt>
      <trkpt lat="48.65658" lon="-2.35666">
        <ele>12</ele>
        <time>2014-06-10T08:53:40Z</time>
      </trkpt>
      <trkpt lat="48.6566" lon="-2.35665">
        <ele>12</ele>
        <time>2014-06-10T08:53:42Z</time>
      </trkpt>
      <trkpt lat="48.65663" lon="-2.35664">
        <ele>12</ele>
        <time>2014-06-10T08:53:44Z</time>
      </trkpt>
      <trkpt lat="48.65665" lon="-2.35663">
        <ele>12</ele>
        <time>2014-06-10T08:53:46Z</time>
      </trkpt>
      <trkpt lat="48.65667" lon="-2.35661">
        <ele>12</ele>
        <time>2014-06-10T08:53:48Z</time>
      </trkpt>
      <trkpt lat="48.6567" lon="-2.3566">
        <ele>12</ele>
        <time>2014-06-10T08:53:50Z</time>
      </trkpt>
      <trkpt lat="48.65673" lon="-2.35659">
        <ele>13</ele>
        <time>2014-06-10T08:53:52Z</time>
      </trkpt>
      <trkpt lat="48.65675" lon="-2.35658">
        <ele>13</ele>
        <time>2014-06-10T08:53:54Z</time>
      </trkpt>
      <trkpt lat="48.65678" lon="-2.35655">
        <ele>13</ele>
        <time>2014-06-10T08:53:57Z</time>
      </trkpt>
      <trkpt lat="48.65681" lon="-2.35651">
        <ele>14</ele>
        <time>2014-06-10T08:54:00Z</time>
      </trkpt>
      <trkpt lat="48.65683" lon="-2.35649">
        <ele>14</ele>
        <time>2014-06-10T08:54:02Z</time>
      </trkpt>
      <trkpt lat="48.65684" lon="-2.35647">
        <ele>14</ele>
        <time>2014-06-10T08:54:04Z</time>
      </trkpt>
      <trkpt lat="48.65686" lon="-2.35644">
        <ele>14</ele>
        <time>2014-06-10T08:54:06Z</time>
      </trkpt>
      <trkpt lat="48.65686" lon="-2.35641">
        <ele>15</ele>
        <time>2014-06-10T08:54:08Z</time>
      </trkpt>
      <trkpt lat="48.65689" lon="-2.35636">
        <ele>15</ele>
        <time>2014-06-10T08:54:11Z</time>
      </trkpt>
      <trkpt lat="48.65689" lon="-2.35632">
        <ele>16</ele>
        <time>2014-06-10T08:54:13Z</time>
      </trkpt>
      <trkpt lat="48.6569" lon="-2.35629">
        <ele>16</ele>
        <time>2014-06-10T08:54:15Z</time>
      </trkpt>
      <trkpt lat="48.65691" lon="-2.35625">
        <ele>16</ele>
        <time>2014-06-10T08:54:17Z</time>
      </trkpt>
      <trkpt lat="48.65691" lon="-2.3562">
        <ele>16</ele>
        <time>2014-06-10T08:54:20Z</time>
      </trkpt>
      <trkpt lat="48.65693" lon="-2.35616">
        <ele>16</ele>
        <time>2014-06-10T08:54:22Z</time>
      </trkpt>
      <trkpt lat="48.65693" lon="-2.35612">
        <ele>16</ele>
        <time>2014-06-10T08:54:24Z</time>
      </trkpt>
      <trkpt lat="48.65694" lon="-2.35608">
        <ele>16</ele>
        <time>2014-06-10T08:54:26Z</time>
      </trkpt>
      <trkpt lat="48.65695" lon="-2.35604">
        <ele>16</ele>
        <time>2014-06-10T08:54:28Z</time>
      </trkpt>
      <trkpt lat="48.65696" lon="-2.356">
        <ele>16</ele>
        <time>2014-06-10T08:54:30Z</time>
      </trkpt>
      <trkpt lat="48.65696" lon="-2.35596">
        <ele>16</ele>
        <time>2014-06-10T08:54:32Z</time>
      </trkpt>
      <trkpt lat="48.65697" lon="-2.35592">
        <ele>16</ele>
        <time>2014-06-10T08:54:34Z</time>
      </trkpt>
      <trkpt lat="48.65699" lon="-2.35588">
        <ele>16</ele>
        <time>2014-06-10T08:54:36Z</time>
      </trkpt>
      <trkpt lat="48.65701" lon="-2.35583">
        <ele>17</ele>
        <time>2014-06-10T08:54:39Z</time>
      </trkpt>
      <trkpt lat="48.65702" lon="-2.3558">
        <ele>17</ele>
        <time>2014-06-10T08:54:41Z</time>
      </trkpt>
      <trkpt lat="48.65703" lon="-2.35576">
        <ele>18</ele>
        <time>2014-06-10T08:54:43Z</time>
      </trkpt>
      <trkpt lat="48.65703" lon="-2.35573">
        <ele>18</ele>
        <time>2014-06-10T08:54:45Z</time>
      </trkpt>
      <trkpt lat="48.65704" lon="-2.35568">
        <ele>18</ele>
        <time>2014-06-10T08:54:47Z</time>
      </trkpt>
      <trkpt lat="48.65706" lon="-2.35564">
        <ele>19</ele>
        <time>2014-06-10T08:54:50Z</time>
      </trkpt>
      <trkpt lat="48.65707" lon="-2.3556">
        <ele>19</ele>
        <time>2014-06-10T08:54:52Z</time>
      </trkpt>
      <trkpt lat="48.65707" lon="-2.35556">
        <ele>20</ele>
        <time>2014-06-10T08:54:54Z</time>
      </trkpt>
      <trkpt lat="48.65709" lon="-2.35552">
        <ele>20</ele>
        <time>2014-06-10T08:54:56Z</time>
      </trkpt>
      <trkpt lat="48.6571" lon="-2.35548">
        <ele>20</ele>
        <time>2014-06-10T08:54:58Z</time>
      </trkpt>
      <trkpt lat="48.65711" lon="-2.35544">
        <ele>20</ele>
        <time>2014-06-10T08:55:00Z</time>
      </trkpt>
      <trkpt lat="48.65711" lon="-2.3554">
        <ele>20</ele>
        <time>2014-06-10T08:55:02Z</time>
      </trkpt>
      <trkpt lat="48.65712" lon="-2.35537">
        <ele>20</ele>
        <time>2014-06-10T08:55:04Z</time>
      </trkpt>
      <trkpt lat="48.65713" lon="-2.35532">
        <ele>20</ele>
        <time>2014-06-10T08:55:06Z</time>
      </trkpt>
      <trkpt lat="48.65714" lon="-2.35528">
        <ele>20</ele>
        <time>2014-06-10T08:55:08Z</time>
      </trkpt>
      <trkpt lat="48.65715" lon="-2.35525">
        <ele>20</ele>
        <time>2014-06-10T08:55:10Z</time>
      </trkpt>
      <trkpt lat="48.65717" lon="-2.35523">
        <ele>20</ele>
        <time>2014-06-10T08:55:12Z</time>
      </trkpt>
      <trkpt lat="48.65719" lon="-2.35523">
        <ele>20</ele>
        <time>2014-06-10T08:55:14Z</time>
      </trkpt>
      <trkpt lat="48.65722" lon="-2.35524">
        <ele>20</ele>
        <time>2014-06-10T08:55:17Z</time>
      </trkpt>
      <trkpt lat="48.65725" lon="-2.35526">
        <ele>20</ele>
        <time>2014-06-10T08:55:19Z</time>
      </trkpt>
      <trkpt lat="48.65727" lon="-2.35529">
        <ele>20</ele>
        <time>2014-06-10T08:55:21Z</time>
      </trkpt>
      <trkpt lat="48.65731" lon="-2.35533">
        <ele>20</ele>
        <time>2014-06-10T08:55:24Z</time>
      </trkpt>
      <trkpt lat="48.65733" lon="-2.35538">
        <ele>20</ele>
        <time>2014-06-10T08:55:27Z</time>
      </trkpt>
      <trkpt lat="48.65735" lon="-2.35541">
        <ele>20</ele>
        <time>2014-06-10T08:55:29Z</time>
      </trkpt>
      <trkpt lat="48.65736" lon="-2.35544">
        <ele>20</ele>
        <time>2014-06-10T08:55:31Z</time>
      </trkpt>
      <trkpt lat="48.65738" lon="-2.35547">
        <ele>20</ele>
        <time>2014-06-10T08:55:33Z</time>
      </trkpt>
      <trkpt lat="48.65739" lon="-2.3555">
        <ele>20</ele>
        <time>2014-06-10T08:55:35Z</time>
      </trkpt>
      <trkpt lat="48.6574" lon="-2.35553">
        <ele>20</ele>
        <time>2014-06-10T08:55:37Z</time>
      </trkpt>
      <trkpt lat="48.65741" lon="-2.35556">
        <ele>20</ele>
        <time>2014-06-10T08:55:39Z</time>
      </trkpt>
      <trkpt lat="48.65741" lon="-2.3556">
        <ele>20</ele>
        <time>2014-06-10T08:55:41Z</time>
      </trkpt>
      <trkpt lat="48.65742" lon="-2.35564">
        <ele>20</ele>
        <time>2014-06-10T08:55:44Z</time>
      </trkpt>
      <trkpt lat="48.65743" lon="-2.35567">
        <ele>19</ele>
        <time>2014-06-10T08:55:46Z</time>
      </trkpt>
      <trkpt lat="48.65744" lon="-2.35568">
        <ele>19</ele>
        <time>2014-06-10T08:55:48Z</time>
      </trkpt>
      <trkpt lat="48.65743" lon="-2.35565">
        <ele>18</ele>
        <time>2014-06-10T08:55:55Z</time>
      </trkpt>
      <trkpt lat="48.65741" lon="-2.35562">
        <ele>18</ele>
        <time>2014-06-10T08:55:57Z</time>
      </trkpt>
      <trkpt lat="48.6574" lon="-2.35558">
        <ele>18</ele>
        <time>2014-06-10T08:55:59Z</time>
      </trkpt>
      <trkpt lat="48.6574" lon="-2.35555">
        <ele>18</ele>
        <time>2014-06-10T08:56:01Z</time>
      </trkpt>
      <trkpt lat="48.65739" lon="-2.35552">
        <ele>18</ele>
        <time>2014-06-10T08:56:03Z</time>
      </trkpt>
      <trkpt lat="48.65738" lon="-2.3555">
        <ele>18</ele>
        <time>2014-06-10T08:56:05Z</time>
      </trkpt>
      <trkpt lat="48.65739" lon="-2.35548">
        <ele>18</ele>
        <time>2014-06-10T08:56:08Z</time>
      </trkpt>
      <trkpt lat="48.65739" lon="-2.3555">
        <ele>18</ele>
        <time>2014-06-10T08:56:12Z</time>
      </trkpt>
      <trkpt lat="48.6574" lon="-2.35553">
        <ele>18</ele>
        <time>2014-06-10T08:56:14Z</time>
      </trkpt>
      <trkpt lat="48.65741" lon="-2.35558">
        <ele>18</ele>
        <time>2014-06-10T08:56:17Z</time>
      </trkpt>
      <trkpt lat="48.65742" lon="-2.35562">
        <ele>18</ele>
        <time>2014-06-10T08:56:19Z</time>
      </trkpt>
      <trkpt lat="48.65744" lon="-2.35566">
        <ele>18</ele>
        <time>2014-06-10T08:56:22Z</time>
      </trkpt>
      <trkpt lat="48.65746" lon="-2.35568">
        <ele>18</ele>
        <time>2014-06-10T08:56:24Z</time>
      </trkpt>
      <trkpt lat="48.65748" lon="-2.35569">
        <ele>18</ele>
        <time>2014-06-10T08:56:26Z</time>
      </trkpt>
      <trkpt lat="48.65751" lon="-2.35571">
        <ele>18</ele>
        <time>2014-06-10T08:56:29Z</time>
      </trkpt>
      <trkpt lat="48.65754" lon="-2.35575">
        <ele>17</ele>
        <time>2014-06-10T08:56:32Z</time>
      </trkpt>
      <trkpt lat="48.65756" lon="-2.35579">
        <ele>16</ele>
        <time>2014-06-10T08:56:35Z</time>
      </trkpt>
      <trkpt lat="48.65757" lon="-2.35581">
        <ele>16</ele>
        <time>2014-06-10T08:56:37Z</time>
      </trkpt>
      <trkpt lat="48.65759" lon="-2.35582">
        <ele>16</ele>
        <time>2014-06-10T08:56:39Z</time>
      </trkpt>
      <trkpt lat="48.6576" lon="-2.35583">
        <ele>16</ele>
        <time>2014-06-10T08:56:41Z</time>
      </trkpt>
      <trkpt lat="48.65762" lon="-2.35584">
        <ele>16</ele>
        <time>2014-06-10T08:56:44Z</time>
      </trkpt>
      <trkpt lat="48.6576" lon="-2.35584">
        <ele>16</ele>
        <time>2014-06-10T08:56:47Z</time>
      </trkpt>
      <trkpt lat="48.65759" lon="-2.35582">
        <ele>16</ele>
        <time>2014-06-10T08:56:49Z</time>
      </trkpt>
      <trkpt lat="48.65756" lon="-2.3558">
        <ele>16</ele>
        <time>2014-06-10T08:56:51Z</time>
      </trkpt>
      <trkpt lat="48.65754" lon="-2.35577">
        <ele>16</ele>
        <time>2014-06-10T08:56:53Z</time>
      </trkpt>
      <trkpt lat="48.65753" lon="-2.35573">
        <ele>16</ele>
        <time>2014-06-10T08:56:55Z</time>
      </trkpt>
      <trkpt lat="48.65751" lon="-2.35571">
        <ele>16</ele>
        <time>2014-06-10T08:56:57Z</time>
      </trkpt>
      <trkpt lat="48.65748" lon="-2.35569">
        <ele>16</ele>
        <time>2014-06-10T08:56:59Z</time>
      </trkpt>
      <trkpt lat="48.65746" lon="-2.35567">
        <ele>16</ele>
        <time>2014-06-10T08:57:01Z</time>
      </trkpt>
      <trkpt lat="48.65743" lon="-2.35564">
        <ele>16</ele>
        <time>2014-06-10T08:57:03Z</time>
      </trkpt>
      <trkpt lat="48.65742" lon="-2.35561">
        <ele>16</ele>
        <time>2014-06-10T08:57:05Z</time>
      </trkpt>
      <trkpt lat="48.6574" lon="-2.35557">
        <ele>16</ele>
        <time>2014-06-10T08:57:07Z</time>
      </trkpt>
      <trkpt lat="48.6574" lon="-2.35553">
        <ele>16</ele>
        <time>2014-06-10T08:57:09Z</time>
      </trkpt>
      <trkpt lat="48.6574" lon="-2.3555">
        <ele>16</ele>
        <time>2014-06-10T08:57:11Z</time>
      </trkpt>
      <trkpt lat="48.65742" lon="-2.35547">
        <ele>16</ele>
        <time>2014-06-10T08:57:13Z</time>
      </trkpt>
      <trkpt lat="48.65744" lon="-2.35544">
        <ele>16</ele>
        <time>2014-06-10T08:57:15Z</time>
      </trkpt>
      <trkpt lat="48.65746" lon="-2.35541">
        <ele>16</ele>
        <time>2014-06-10T08:57:17Z</time>
      </trkpt>
      <trkpt lat="48.65748" lon="-2.35538">
        <ele>16</ele>
        <time>2014-06-10T08:57:19Z</time>
      </trkpt>
      <trkpt lat="48.65749" lon="-2.35535">
        <ele>16</ele>
        <time>2014-06-10T08:57:21Z</time>
      </trkpt>
      <trkpt lat="48.65752" lon="-2.3553">
        <ele>16</ele>
        <time>2014-06-10T08:57:24Z</time>
      </trkpt>
      <trkpt lat="48.65753" lon="-2.35526">
        <ele>16</ele>
        <time>2014-06-10T08:57:26Z</time>
      </trkpt>
      <trkpt lat="48.65755" lon="-2.35523">
        <ele>16</ele>
        <time>2014-06-10T08:57:28Z</time>
      </trkpt>
      <trkpt lat="48.65756" lon="-2.35518">
        <ele>16</ele>
        <time>2014-06-10T08:57:30Z</time>
      </trkpt>
      <trkpt lat="48.65757" lon="-2.35515">
        <ele>17</ele>
        <time>2014-06-10T08:57:32Z</time>
      </trkpt>
      <trkpt lat="48.65759" lon="-2.35512">
        <ele>17</ele>
        <time>2014-06-10T08:57:34Z</time>
      </trkpt>
      <trkpt lat="48.6576" lon="-2.35508">
        <ele>17</ele>
        <time>2014-06-10T08:57:37Z</time>
      </trkpt>
      <trkpt lat="48.65762" lon="-2.35503">
        <ele>18</ele>
        <time>2014-06-10T08:57:40Z</time>
      </trkpt>
      <trkpt lat="48.65763" lon="-2.35499">
        <ele>18</ele>
        <time>2014-06-10T08:57:42Z</time>
      </trkpt>
      <trkpt lat="48.65763" lon="-2.35495">
        <ele>18</ele>
        <time>2014-06-10T08:57:44Z</time>
      </trkpt>
      <trkpt lat="48.65764" lon="-2.35492">
        <ele>19</ele>
        <time>2014-06-10T08:57:46Z</time>
      </trkpt>
      <trkpt lat="48.65765" lon="-2.35488">
        <ele>19</ele>
        <time>2014-06-10T08:57:48Z</time>
      </trkpt>
      <trkpt lat="48.65765" lon="-2.35484">
        <ele>19</ele>
        <time>2014-06-10T08:57:50Z</time>
      </trkpt>
      <trkpt lat="48.65766" lon="-2.3548">
        <ele>20</ele>
        <time>2014-06-10T08:57:52Z</time>
      </trkpt>
      <trkpt lat="48.65767" lon="-2.35476">
        <ele>20</ele>
        <time>2014-06-10T08:57:54Z</time>
      </trkpt>
      <trkpt lat="48.65767" lon="-2.35472">
        <ele>20</ele>
        <time>2014-06-10T08:57:56Z</time>
      </trkpt>
      <trkpt lat="48.65768" lon="-2.35468">
        <ele>20</ele>
        <time>2014-06-10T08:57:58Z</time>
      </trkpt>
      <trkpt lat="48.65769" lon="-2.35464">
        <ele>20</ele>
        <time>2014-06-10T08:58:00Z</time>
      </trkpt>
      <trkpt lat="48.65771" lon="-2.3546">
        <ele>20</ele>
        <time>2014-06-10T08:58:03Z</time>
      </trkpt>
      <trkpt lat="48.65774" lon="-2.35458">
        <ele>20</ele>
        <time>2014-06-10T08:58:05Z</time>
      </trkpt>
      <trkpt lat="48.65776" lon="-2.35458">
        <ele>20</ele>
        <time>2014-06-10T08:58:07Z</time>
      </trkpt>
      <trkpt lat="48.65779" lon="-2.35458">
        <ele>20</ele>
        <time>2014-06-10T08:58:09Z</time>
      </trkpt>
      <trkpt lat="48.65782" lon="-2.35458">
        <ele>20</ele>
        <time>2014-06-10T08:58:11Z</time>
      </trkpt>
      <trkpt lat="48.65785" lon="-2.35459">
        <ele>20</ele>
        <time>2014-06-10T08:58:13Z</time>
      </trkpt>
      <trkpt lat="48.65787" lon="-2.35461">
        <ele>20</ele>
        <time>2014-06-10T08:58:15Z</time>
      </trkpt>
      <trkpt lat="48.6579" lon="-2.35462">
        <ele>20</ele>
        <time>2014-06-10T08:58:17Z</time>
      </trkpt>
      <trkpt lat="48.65793" lon="-2.35465">
        <ele>20</ele>
        <time>2014-06-10T08:58:19Z</time>
      </trkpt>
      <trkpt lat="48.65795" lon="-2.35468">
        <ele>20</ele>
        <time>2014-06-10T08:58:21Z</time>
      </trkpt>
      <trkpt lat="48.65797" lon="-2.3547">
        <ele>20</ele>
        <time>2014-06-10T08:58:23Z</time>
      </trkpt>
      <trkpt lat="48.65799" lon="-2.35473">
        <ele>20</ele>
        <time>2014-06-10T08:58:25Z</time>
      </trkpt>
      <trkpt lat="48.658" lon="-2.35475">
        <ele>20</ele>
        <time>2014-06-10T08:58:27Z</time>
      </trkpt>
      <trkpt lat="48.65802" lon="-2.35478">
        <ele>20</ele>
        <time>2014-06-10T08:58:29Z</time>
      </trkpt>
      <trkpt lat="48.65804" lon="-2.35482">
        <ele>20</ele>
        <time>2014-06-10T08:58:31Z</time>
      </trkpt>
      <trkpt lat="48.65805" lon="-2.35485">
        <ele>20</ele>
        <time>2014-06-10T08:58:33Z</time>
      </trkpt>
      <trkpt lat="48.65807" lon="-2.3549">
        <ele>20</ele>
        <time>2014-06-10T08:58:36Z</time>
      </trkpt>
      <trkpt lat="48.65809" lon="-2.35493">
        <ele>20</ele>
        <time>2014-06-10T08:58:38Z</time>
      </trkpt>
      <trkpt lat="48.6581" lon="-2.35496">
        <ele>20</ele>
        <time>2014-06-10T08:58:40Z</time>
      </trkpt>
      <trkpt lat="48.6581" lon="-2.355">
        <ele>20</ele>
        <time>2014-06-10T08:58:42Z</time>
      </trkpt>
      <trkpt lat="48.65811" lon="-2.35504">
        <ele>20</ele>
        <time>2014-06-10T08:58:44Z</time>
      </trkpt>
      <trkpt lat="48.65812" lon="-2.35508">
        <ele>20</ele>
        <time>2014-06-10T08:58:46Z</time>
      </trkpt>
      <trkpt lat="48.65813" lon="-2.35511">
        <ele>20</ele>
        <time>2014-06-10T08:58:48Z</time>
      </trkpt>
      <trkpt lat="48.65814" lon="-2.35515">
        <ele>20</ele>
        <time>2014-06-10T08:58:50Z</time>
      </trkpt>
      <trkpt lat="48.65815" lon="-2.35519">
        <ele>20</ele>
        <time>2014-06-10T08:58:52Z</time>
      </trkpt>
      <trkpt lat="48.65816" lon="-2.35523">
        <ele>20</ele>
        <time>2014-06-10T08:58:54Z</time>
      </trkpt>
      <trkpt lat="48.65817" lon="-2.35526">
        <ele>20</ele>
        <time>2014-06-10T08:58:56Z</time>
      </trkpt>
      <trkpt lat="48.65819" lon="-2.35529">
        <ele>20</ele>
        <time>2014-06-10T08:58:58Z</time>
      </trkpt>
      <trkpt lat="48.65821" lon="-2.35532">
        <ele>20</ele>
        <time>2014-06-10T08:59:00Z</time>
      </trkpt>
      <trkpt lat="48.65824" lon="-2.35537">
        <ele>20</ele>
        <time>2014-06-10T08:59:03Z</time>
      </trkpt>
      <trkpt lat="48.65826" lon="-2.3554">
        <ele>20</ele>
        <time>2014-06-10T08:59:05Z</time>
      </trkpt>
      <trkpt lat="48.65828" lon="-2.35543">
        <ele>20</ele>
        <time>2014-06-10T08:59:07Z</time>
      </trkpt>
      <trkpt lat="48.65831" lon="-2.35548">
        <ele>20</ele>
        <time>2014-06-10T08:59:10Z</time>
      </trkpt>
      <trkpt lat="48.65832" lon="-2.35551">
        <ele>20</ele>
        <time>2014-06-10T08:59:12Z</time>
      </trkpt>
      <trkpt lat="48.65834" lon="-2.35553">
        <ele>20</ele>
        <time>2014-06-10T08:59:14Z</time>
      </trkpt>
      <trkpt lat="48.65837" lon="-2.35556">
        <ele>20</ele>
        <time>2014-06-10T08:59:17Z</time>
      </trkpt>
      <trkpt lat="48.6584" lon="-2.3556">
        <ele>20</ele>
        <time>2014-06-10T08:59:20Z</time>
      </trkpt>
      <trkpt lat="48.65844" lon="-2.35563">
        <ele>20</ele>
        <time>2014-06-10T08:59:23Z</time>
      </trkpt>
      <trkpt lat="48.65846" lon="-2.35564">
        <ele>20</ele>
        <time>2014-06-10T08:59:25Z</time>
      </trkpt>
      <trkpt lat="48.65849" lon="-2.35566">
        <ele>20</ele>
        <time>2014-06-10T08:59:27Z</time>
      </trkpt>
      <trkpt lat="48.6585" lon="-2.35569">
        <ele>20</ele>
        <time>2014-06-10T08:59:29Z</time>
      </trkpt>
      <trkpt lat="48.65852" lon="-2.35572">
        <ele>20</ele>
        <time>2014-06-10T08:59:31Z</time>
      </trkpt>
      <trkpt lat="48.65854" lon="-2.35575">
        <ele>20</ele>
        <time>2014-06-10T08:59:33Z</time>
      </trkpt>
      <trkpt lat="48.65854" lon="-2.35578">
        <ele>20</ele>
        <time>2014-06-10T08:59:35Z</time>
      </trkpt>
      <trkpt lat="48.65856" lon="-2.35579">
        <ele>20</ele>
        <time>2014-06-10T08:59:38Z</time>
      </trkpt>
      <trkpt lat="48.6586" lon="-2.35581">
        <ele>20</ele>
        <time>2014-06-10T08:59:41Z</time>
      </trkpt>
      <trkpt lat="48.65861" lon="-2.35584">
        <ele>20</ele>
        <time>2014-06-10T08:59:43Z</time>
      </trkpt>
      <trkpt lat="48.65862" lon="-2.35587">
        <ele>20</ele>
        <time>2014-06-10T08:59:45Z</time>
      </trkpt>
      <trkpt lat="48.65863" lon="-2.35591">
        <ele>20</ele>
        <time>2014-06-10T08:59:47Z</time>
      </trkpt>
      <trkpt lat="48.65864" lon="-2.35594">
        <ele>20</ele>
        <time>2014-06-10T08:59:49Z</time>
      </trkpt>
      <trkpt lat="48.65865" lon="-2.35597">
        <ele>20</ele>
        <time>2014-06-10T08:59:51Z</time>
      </trkpt>
      <trkpt lat="48.65865" lon="-2.35597">
        <ele>20</ele>
        <time>2014-06-10T09:00:01Z</time>
      </trkpt>
      <trkpt lat="48.65865" lon="-2.35594">
        <ele>20</ele>
        <time>2014-06-10T09:00:03Z</time>
      </trkpt>
      <trkpt lat="48.65866" lon="-2.35589">
        <ele>20</ele>
        <time>2014-06-10T09:00:06Z</time>
      </trkpt>
      <trkpt lat="48.65866" lon="-2.35585">
        <ele>20</ele>
        <time>2014-06-10T09:00:08Z</time>
      </trkpt>
      <trkpt lat="48.65867" lon="-2.35581">
        <ele>20</ele>
        <time>2014-06-10T09:00:10Z</time>
      </trkpt>
      <trkpt lat="48.65868" lon="-2.35579">
        <ele>20</ele>
        <time>2014-06-10T09:00:17Z</time>
      </trkpt>
      <trkpt lat="48.65868" lon="-2.35577">
        <ele>20</ele>
        <time>2014-06-10T09:00:19Z</time>
      </trkpt>
      <trkpt lat="48.65871" lon="-2.35572">
        <ele>20</ele>
        <time>2014-06-10T09:00:22Z</time>
      </trkpt>
      <trkpt lat="48.65872" lon="-2.35569">
        <ele>20</ele>
        <time>2014-06-10T09:00:24Z</time>
      </trkpt>
      <trkpt lat="48.65874" lon="-2.35565">
        <ele>20</ele>
        <time>2014-06-10T09:00:26Z</time>
      </trkpt>
      <trkpt lat="48.65876" lon="-2.35562">
        <ele>20</ele>
        <time>2014-06-10T09:00:28Z</time>
      </trkpt>
      <trkpt lat="48.65877" lon="-2.35559">
        <ele>20</ele>
        <time>2014-06-10T09:00:30Z</time>
      </trkpt>
      <trkpt lat="48.65879" lon="-2.35556">
        <ele>20</ele>
        <time>2014-06-10T09:00:32Z</time>
      </trkpt>
      <trkpt lat="48.6588" lon="-2.35552">
        <ele>20</ele>
        <time>2014-06-10T09:00:34Z</time>
      </trkpt>
      <trkpt lat="48.65882" lon="-2.35548">
        <ele>20</ele>
        <time>2014-06-10T09:00:36Z</time>
      </trkpt>
      <trkpt lat="48.65884" lon="-2.35545">
        <ele>20</ele>
        <time>2014-06-10T09:00:38Z</time>
      </trkpt>
      <trkpt lat="48.65885" lon="-2.35541">
        <ele>20</ele>
        <time>2014-06-10T09:00:40Z</time>
      </trkpt>
      <trkpt lat="48.65888" lon="-2.35537">
        <ele>20</ele>
        <time>2014-06-10T09:00:43Z</time>
      </trkpt>
      <trkpt lat="48.65891" lon="-2.35532">
        <ele>20</ele>
        <time>2014-06-10T09:00:46Z</time>
      </trkpt>
      <trkpt lat="48.65894" lon="-2.35529">
        <ele>20</ele>
        <time>2014-06-10T09:00:48Z</time>
      </trkpt>
      <trkpt lat="48.65896" lon="-2.35527">
        <ele>20</ele>
        <time>2014-06-10T09:00:50Z</time>
      </trkpt>
      <trkpt lat="48.65898" lon="-2.35525">
        <ele>20</ele>
        <time>2014-06-10T09:00:52Z</time>
      </trkpt>
      <trkpt lat="48.659" lon="-2.35522">
        <ele>20</ele>
        <time>2014-06-10T09:00:54Z</time>
      </trkpt>
      <trkpt lat="48.65903" lon="-2.35519">
        <ele>20</ele>
        <time>2014-06-10T09:00:56Z</time>
      </trkpt>
      <trkpt lat="48.65906" lon="-2.35515">
        <ele>20</ele>
        <time>2014-06-10T09:00:59Z</time>
      </trkpt>
      <trkpt lat="48.65908" lon="-2.35513">
        <ele>20</ele>
        <time>2014-06-10T09:01:01Z</time>
      </trkpt>
      <trkpt lat="48.65911" lon="-2.35508">
        <ele>20</ele>
        <time>2014-06-10T09:01:04Z</time>
      </trkpt>
      <trkpt lat="48.65913" lon="-2.35504">
        <ele>20</ele>
        <time>2014-06-10T09:01:06Z</time>
      </trkpt>
      <trkpt lat="48.65916" lon="-2.35502">
        <ele>20</ele>
        <time>2014-06-10T09:01:08Z</time>
      </trkpt>
      <trkpt lat="48.65918" lon="-2.355">
        <ele>20</ele>
        <time>2014-06-10T09:01:10Z</time>
      </trkpt>
      <trkpt lat="48.6592" lon="-2.35497">
        <ele>20</ele>
        <time>2014-06-10T09:01:12Z</time>
      </trkpt>
      <trkpt lat="48.65922" lon="-2.35494">
        <ele>20</ele>
        <time>2014-06-10T09:01:14Z</time>
      </trkpt>
      <trkpt lat="48.65924" lon="-2.35492">
        <ele>20</ele>
        <time>2014-06-10T09:01:16Z</time>
      </trkpt>
      <trkpt lat="48.65927" lon="-2.3549">
        <ele>20</ele>
        <time>2014-06-10T09:01:18Z</time>
      </trkpt>
      <trkpt lat="48.65929" lon="-2.35489">
        <ele>19</ele>
        <time>2014-06-10T09:01:20Z</time>
      </trkpt>
      <trkpt lat="48.65932" lon="-2.35487">
        <ele>19</ele>
        <time>2014-06-10T09:01:22Z</time>
      </trkpt>
      <trkpt lat="48.65934" lon="-2.35486">
        <ele>19</ele>
        <time>2014-06-10T09:01:24Z</time>
      </trkpt>
      <trkpt lat="48.65936" lon="-2.35484">
        <ele>19</ele>
        <time>2014-06-10T09:01:26Z</time>
      </trkpt>
      <trkpt lat="48.65939" lon="-2.3548">
        <ele>19</ele>
        <time>2014-06-10T09:01:29Z</time>
      </trkpt>
      <trkpt lat="48.65941" lon="-2.35476">
        <ele>19</ele>
        <time>2014-06-10T09:01:31Z</time>
      </trkpt>
      <trkpt lat="48.65942" lon="-2.35472">
        <ele>19</ele>
        <time>2014-06-10T09:01:33Z</time>
      </trkpt>
      <trkpt lat="48.65943" lon="-2.35468">
        <ele>19</ele>
        <time>2014-06-10T09:01:35Z</time>
      </trkpt>
      <trkpt lat="48.65943" lon="-2.35464">
        <ele>19</ele>
        <time>2014-06-10T09:01:37Z</time>
      </trkpt>
      <trkpt lat="48.65944" lon="-2.3546">
        <ele>19</ele>
        <time>2014-06-10T09:01:39Z</time>
      </trkpt>
      <trkpt lat="48.65944" lon="-2.35456">
        <ele>19</ele>
        <time>2014-06-10T09:01:41Z</time>
      </trkpt>
      <trkpt lat="48.65944" lon="-2.35452">
        <ele>19</ele>
        <time>2014-06-10T09:01:43Z</time>
      </trkpt>
      <trkpt lat="48.65944" lon="-2.35448">
        <ele>19</ele>
        <time>2014-06-10T09:01:45Z</time>
      </trkpt>
      <trkpt lat="48.65944" lon="-2.35444">
        <ele>19</ele>
        <time>2014-06-10T09:01:47Z</time>
      </trkpt>
      <trkpt lat="48.65944" lon="-2.3544">
        <ele>19</ele>
        <time>2014-06-10T09:01:49Z</time>
      </trkpt>
      <trkpt lat="48.65944" lon="-2.35436">
        <ele>19</ele>
        <time>2014-06-10T09:01:51Z</time>
      </trkpt>
      <trkpt lat="48.65943" lon="-2.35431">
        <ele>19</ele>
        <time>2014-06-10T09:01:54Z</time>
      </trkpt>
      <trkpt lat="48.65942" lon="-2.35426">
        <ele>19</ele>
        <time>2014-06-10T09:01:56Z</time>
      </trkpt>
      <trkpt lat="48.65942" lon="-2.35422">
        <ele>19</ele>
        <time>2014-06-10T09:01:58Z</time>
      </trkpt>
      <trkpt lat="48.65941" lon="-2.35418">
        <ele>19</ele>
        <time>2014-06-10T09:02:00Z</time>
      </trkpt>
      <trkpt lat="48.65939" lon="-2.35414">
        <ele>19</ele>
        <time>2014-06-10T09:02:02Z</time>
      </trkpt>
      <trkpt lat="48.65939" lon="-2.35412">
        <ele>19</ele>
        <time>2014-06-10T09:02:04Z</time>
      </trkpt>
      <trkpt lat="48.65937" lon="-2.35408">
        <ele>19</ele>
        <time>2014-06-10T09:02:06Z</time>
      </trkpt>
      <trkpt lat="48.65936" lon="-2.35405">
        <ele>19</ele>
        <time>2014-06-10T09:02:08Z</time>
      </trkpt>
      <trkpt lat="48.65934" lon="-2.35401">
        <ele>19</ele>
        <time>2014-06-10T09:02:10Z</time>
      </trkpt>
      <trkpt lat="48.65932" lon="-2.35396">
        <ele>19</ele>
        <time>2014-06-10T09:02:13Z</time>
      </trkpt>
      <trkpt lat="48.6593" lon="-2.35394">
        <ele>19</ele>
        <time>2014-06-10T09:02:15Z</time>
      </trkpt>
      <trkpt lat="48.65928" lon="-2.3539">
        <ele>19</ele>
        <time>2014-06-10T09:02:17Z</time>
      </trkpt>
      <trkpt lat="48.65927" lon="-2.35387">
        <ele>19</ele>
        <time>2014-06-10T09:02:19Z</time>
      </trkpt>
      <trkpt lat="48.65925" lon="-2.35385">
        <ele>19</ele>
        <time>2014-06-10T09:02:21Z</time>
      </trkpt>
      <trkpt lat="48.65923" lon="-2.35382">
        <ele>19</ele>
        <time>2014-06-10T09:02:23Z</time>
      </trkpt>
      <trkpt lat="48.65922" lon="-2.35378">
        <ele>19</ele>
        <time>2014-06-10T09:02:25Z</time>
      </trkpt>
      <trkpt lat="48.65923" lon="-2.35374">
        <ele>19</ele>
        <time>2014-06-10T09:02:27Z</time>
      </trkpt>
      <trkpt lat="48.65925" lon="-2.35369">
        <ele>19</ele>
        <time>2014-06-10T09:02:30Z</time>
      </trkpt>
      <trkpt lat="48.65928" lon="-2.35365">
        <ele>19</ele>
        <time>2014-06-10T09:02:33Z</time>
      </trkpt>
      <trkpt lat="48.6593" lon="-2.35362">
        <ele>19</ele>
        <time>2014-06-10T09:02:35Z</time>
      </trkpt>
      <trkpt lat="48.65931" lon="-2.35359">
        <ele>19</ele>
        <time>2014-06-10T09:02:37Z</time>
      </trkpt>
      <trkpt lat="48.65933" lon="-2.35355">
        <ele>19</ele>
        <time>2014-06-10T09:02:39Z</time>
      </trkpt>
      <trkpt lat="48.65935" lon="-2.35353">
        <ele>19</ele>
        <time>2014-06-10T09:02:41Z</time>
      </trkpt>
      <trkpt lat="48.65937" lon="-2.3535">
        <ele>19</ele>
        <time>2014-06-10T09:02:43Z</time>
      </trkpt>
      <trkpt lat="48.65939" lon="-2.35347">
        <ele>19</ele>
        <time>2014-06-10T09:02:45Z</time>
      </trkpt>
      <trkpt lat="48.65941" lon="-2.35343">
        <ele>19</ele>
        <time>2014-06-10T09:02:48Z</time>
      </trkpt>
      <trkpt lat="48.65943" lon="-2.3534">
        <ele>19</ele>
        <time>2014-06-10T09:02:50Z</time>
      </trkpt>
      <trkpt lat="48.65945" lon="-2.35337">
        <ele>19</ele>
        <time>2014-06-10T09:02:52Z</time>
      </trkpt>
      <trkpt lat="48.65947" lon="-2.35335">
        <ele>19</ele>
        <time>2014-06-10T09:02:54Z</time>
      </trkpt>
      <trkpt lat="48.65949" lon="-2.35333">
        <ele>19</ele>
        <time>2014-06-10T09:02:56Z</time>
      </trkpt>
      <trkpt lat="48.65951" lon="-2.35331">
        <ele>19</ele>
        <time>2014-06-10T09:02:58Z</time>
      </trkpt>
      <trkpt lat="48.65953" lon="-2.35329">
        <ele>19</ele>
        <time>2014-06-10T09:03:00Z</time>
      </trkpt>
      <trkpt lat="48.65956" lon="-2.35327">
        <ele>19</ele>
        <time>2014-06-10T09:03:02Z</time>
      </trkpt>
      <trkpt lat="48.6596" lon="-2.35326">
        <ele>19</ele>
        <time>2014-06-10T09:03:05Z</time>
      </trkpt>
      <trkpt lat="48.65962" lon="-2.35325">
        <ele>19</ele>
        <time>2014-06-10T09:03:07Z</time>
      </trkpt>
      <trkpt lat="48.65965" lon="-2.35323">
        <ele>19</ele>
        <time>2014-06-10T09:03:10Z</time>
      </trkpt>
      <trkpt lat="48.65969" lon="-2.35321">
        <ele>19</ele>
        <time>2014-06-10T09:03:12Z</time>
      </trkpt>
      <trkpt lat="48.65971" lon="-2.3532">
        <ele>19</ele>
        <time>2014-06-10T09:03:15Z</time>
      </trkpt>
      <trkpt lat="48.65973" lon="-2.35318">
        <ele>19</ele>
        <time>2014-06-10T09:03:17Z</time>
      </trkpt>
      <trkpt lat="48.65977" lon="-2.35315">
        <ele>19</ele>
        <time>2014-06-10T09:03:19Z</time>
      </trkpt>
      <trkpt lat="48.6598" lon="-2.35311">
        <ele>19</ele>
        <time>2014-06-10T09:03:23Z</time>
      </trkpt>
      <trkpt lat="48.65981" lon="-2.35308">
        <ele>19</ele>
        <time>2014-06-10T09:03:25Z</time>
      </trkpt>
      <trkpt lat="48.65982" lon="-2.35305">
        <ele>19</ele>
        <time>2014-06-10T09:03:27Z</time>
      </trkpt>
      <trkpt lat="48.65983" lon="-2.35302">
        <ele>19</ele>
        <time>2014-06-10T09:03:29Z</time>
      </trkpt>
      <trkpt lat="48.65984" lon="-2.35298">
        <ele>19</ele>
        <time>2014-06-10T09:03:31Z</time>
      </trkpt>
      <trkpt lat="48.65984" lon="-2.35295">
        <ele>19</ele>
        <time>2014-06-10T09:03:33Z</time>
      </trkpt>
      <trkpt lat="48.65984" lon="-2.35292">
        <ele>19</ele>
        <time>2014-06-10T09:03:35Z</time>
      </trkpt>
      <trkpt lat="48.65985" lon="-2.35288">
        <ele>19</ele>
        <time>2014-06-10T09:03:37Z</time>
      </trkpt>
      <trkpt lat="48.65985" lon="-2.35284">
        <ele>19</ele>
        <time>2014-06-10T09:03:39Z</time>
      </trkpt>
      <trkpt lat="48.65986" lon="-2.35281">
        <ele>19</ele>
        <time>2014-06-10T09:03:41Z</time>
      </trkpt>
      <trkpt lat="48.65987" lon="-2.35277">
        <ele>19</ele>
        <time>2014-06-10T09:03:43Z</time>
      </trkpt>
      <trkpt lat="48.65988" lon="-2.35273">
        <ele>19</ele>
        <time>2014-06-10T09:03:45Z</time>
      </trkpt>
      <trkpt lat="48.6599" lon="-2.35268">
        <ele>19</ele>
        <time>2014-06-10T09:03:48Z</time>
      </trkpt>
      <trkpt lat="48.65993" lon="-2.35263">
        <ele>18</ele>
        <time>2014-06-10T09:03:51Z</time>
      </trkpt>
      <trkpt lat="48.65995" lon="-2.3526">
        <ele>17</ele>
        <time>2014-06-10T09:03:54Z</time>
      </trkpt>
      <trkpt lat="48.65999" lon="-2.35256">
        <ele>17</ele>
        <time>2014-06-10T09:03:58Z</time>
      </trkpt>
      <trkpt lat="48.66002" lon="-2.35255">
        <ele>17</ele>
        <time>2014-06-10T09:04:00Z</time>
      </trkpt>
      <trkpt lat="48.66005" lon="-2.35255">
        <ele>16</ele>
        <time>2014-06-10T09:04:03Z</time>
      </trkpt>
      <trkpt lat="48.66007" lon="-2.35255">
        <ele>16</ele>
        <time>2014-06-10T09:04:05Z</time>
      </trkpt>
      <trkpt lat="48.6601" lon="-2.35256">
        <ele>16</ele>
        <time>2014-06-10T09:04:07Z</time>
      </trkpt>
      <trkpt lat="48.66013" lon="-2.35256">
        <ele>15</ele>
        <time>2014-06-10T09:04:10Z</time>
      </trkpt>
      <trkpt lat="48.66017" lon="-2.35255">
        <ele>15</ele>
        <time>2014-06-10T09:04:12Z</time>
      </trkpt>
      <trkpt lat="48.66019" lon="-2.35253">
        <ele>15</ele>
        <time>2014-06-10T09:04:15Z</time>
      </trkpt>
      <trkpt lat="48.66022" lon="-2.3525">
        <ele>15</ele>
        <time>2014-06-10T09:04:17Z</time>
      </trkpt>
      <trkpt lat="48.66024" lon="-2.35247">
        <ele>15</ele>
        <time>2014-06-10T09:04:19Z</time>
      </trkpt>
      <trkpt lat="48.66025" lon="-2.35245">
        <ele>14</ele>
        <time>2014-06-10T09:04:22Z</time>
      </trkpt>
      <trkpt lat="48.66029" lon="-2.35244">
        <ele>14</ele>
        <time>2014-06-10T09:04:24Z</time>
      </trkpt>
      <trkpt lat="48.66031" lon="-2.35244">
        <ele>14</ele>
        <time>2014-06-10T09:04:27Z</time>
      </trkpt>
      <trkpt lat="48.66035" lon="-2.35245">
        <ele>13</ele>
        <time>2014-06-10T09:04:31Z</time>
      </trkpt>
      <trkpt lat="48.66038" lon="-2.35246">
        <ele>13</ele>
        <time>2014-06-10T09:04:33Z</time>
      </trkpt>
      <trkpt lat="48.6604" lon="-2.35246">
        <ele>12</ele>
        <time>2014-06-10T09:04:35Z</time>
      </trkpt>
      <trkpt lat="48.66042" lon="-2.35244">
        <ele>12</ele>
        <time>2014-06-10T09:04:39Z</time>
      </trkpt>
      <trkpt lat="48.66043" lon="-2.35241">
        <ele>12</ele>
        <time>2014-06-10T09:04:41Z</time>
      </trkpt>
      <trkpt lat="48.66046" lon="-2.35238">
        <ele>11</ele>
        <time>2014-06-10T09:04:45Z</time>
      </trkpt>
      <trkpt lat="48.66047" lon="-2.35235">
        <ele>11</ele>
        <time>2014-06-10T09:04:47Z</time>
      </trkpt>
      <trkpt lat="48.66048" lon="-2.35232">
        <ele>11</ele>
        <time>2014-06-10T09:04:49Z</time>
      </trkpt>
      <trkpt lat="48.66049" lon="-2.35232">
        <ele>11</ele>
        <time>2014-06-10T09:04:52Z</time>
      </trkpt>
      <trkpt lat="48.66051" lon="-2.35229">
        <ele>11</ele>
        <time>2014-06-10T09:04:59Z</time>
      </trkpt>
      <trkpt lat="48.66052" lon="-2.35227">
        <ele>11</ele>
        <time>2014-06-10T09:05:01Z</time>
      </trkpt>
      <trkpt lat="48.66053" lon="-2.35225">
        <ele>11</ele>
        <time>2014-06-10T09:05:03Z</time>
      </trkpt>
      <trkpt lat="48.66054" lon="-2.35223">
        <ele>11</ele>
        <time>2014-06-10T09:05:06Z</time>
      </trkpt>
      <trkpt lat="48.66055" lon="-2.35219">
        <ele>10</ele>
        <time>2014-06-10T09:05:09Z</time>
      </trkpt>
      <trkpt lat="48.66056" lon="-2.35215">
        <ele>10</ele>
        <time>2014-06-10T09:05:12Z</time>
      </trkpt>
      <trkpt lat="48.66058" lon="-2.35209">
        <ele>10</ele>
        <time>2014-06-10T09:05:15Z</time>
      </trkpt>
      <trkpt lat="48.66059" lon="-2.35207">
        <ele>10</ele>
        <time>2014-06-10T09:05:18Z</time>
      </trkpt>
      <trkpt lat="48.66057" lon="-2.35203">
        <ele>10</ele>
        <time>2014-06-10T09:05:21Z</time>
      </trkpt>
      <trkpt lat="48.66056" lon="-2.35202">
        <ele>10</ele>
        <time>2014-06-10T09:05:30Z</time>
      </trkpt>
      <trkpt lat="48.66058" lon="-2.35197">
        <ele>10</ele>
        <time>2014-06-10T09:05:33Z</time>
      </trkpt>
      <trkpt lat="48.66058" lon="-2.35195">
        <ele>10</ele>
        <time>2014-06-10T09:05:37Z</time>
      </trkpt>
      <trkpt lat="48.66058" lon="-2.35191">
        <ele>10</ele>
        <time>2014-06-10T09:05:40Z</time>
      </trkpt>
      <trkpt lat="48.66059" lon="-2.35189">
        <ele>10</ele>
        <time>2014-06-10T09:05:43Z</time>
      </trkpt>
      <trkpt lat="48.66058" lon="-2.35184">
        <ele>10</ele>
        <time>2014-06-10T09:05:48Z</time>
      </trkpt>
      <trkpt lat="48.66057" lon="-2.35179">
        <ele>10</ele>
        <time>2014-06-10T09:05:51Z</time>
      </trkpt>
      <trkpt lat="48.66056" lon="-2.35177">
        <ele>10</ele>
        <time>2014-06-10T09:05:54Z</time>
      </trkpt>
      <trkpt lat="48.66055" lon="-2.35174">
        <ele>10</ele>
        <time>2014-06-10T09:05:57Z</time>
      </trkpt>
      <trkpt lat="48.66053" lon="-2.35174">
        <ele>10</ele>
        <time>2014-06-10T09:06:00Z</time>
      </trkpt>
      <trkpt lat="48.6605" lon="-2.3517">
        <ele>10</ele>
        <time>2014-06-10T09:06:03Z</time>
      </trkpt>
      <trkpt lat="48.6605" lon="-2.35168">
        <ele>10</ele>
        <time>2014-06-10T09:06:06Z</time>
      </trkpt>
      <trkpt lat="48.66052" lon="-2.35162">
        <ele>10</ele>
        <time>2014-06-10T09:06:09Z</time>
      </trkpt>
      <trkpt lat="48.66053" lon="-2.35159">
        <ele>10</ele>
        <time>2014-06-10T09:06:12Z</time>
      </trkpt>
      <trkpt lat="48.66053" lon="-2.35154">
        <ele>11</ele>
        <time>2014-06-10T09:06:14Z</time>
      </trkpt>
      <trkpt lat="48.66053" lon="-2.3515">
        <ele>11</ele>
        <time>2014-06-10T09:06:17Z</time>
      </trkpt>
      <trkpt lat="48.66052" lon="-2.35143">
        <ele>12</ele>
        <time>2014-06-10T09:06:20Z</time>
      </trkpt>
      <trkpt lat="48.66052" lon="-2.3514">
        <ele>13</ele>
        <time>2014-06-10T09:06:23Z</time>
      </trkpt>
      <trkpt lat="48.66053" lon="-2.35135">
        <ele>13</ele>
        <time>2014-06-10T09:06:26Z</time>
      </trkpt>
      <trkpt lat="48.66053" lon="-2.35133">
        <ele>14</ele>
        <time>2014-06-10T09:06:29Z</time>
      </trkpt>
      <trkpt lat="48.66053" lon="-2.35129">
        <ele>15</ele>
        <time>2014-06-10T09:06:32Z</time>
      </trkpt>
      <trkpt lat="48.66053" lon="-2.35126">
        <ele>15</ele>
        <time>2014-06-10T09:06:34Z</time>
      </trkpt>
      <trkpt lat="48.66053" lon="-2.35122">
        <ele>16</ele>
        <time>2014-06-10T09:06:36Z</time>
      </trkpt>
      <trkpt lat="48.66053" lon="-2.35119">
        <ele>16</ele>
        <time>2014-06-10T09:06:39Z</time>
      </trkpt>
      <trkpt lat="48.66054" lon="-2.35113">
        <ele>17</ele>
        <time>2014-06-10T09:06:41Z</time>
      </trkpt>
      <trkpt lat="48.66054" lon="-2.3511">
        <ele>17</ele>
        <time>2014-06-10T09:06:44Z</time>
      </trkpt>
      <trkpt lat="48.66056" lon="-2.35104">
        <ele>17</ele>
        <time>2014-06-10T09:06:47Z</time>
      </trkpt>
      <trkpt lat="48.66058" lon="-2.35102">
        <ele>18</ele>
        <time>2014-06-10T09:06:50Z</time>
      </trkpt>
      <trkpt lat="48.6606" lon="-2.351">
        <ele>18</ele>
        <time>2014-06-10T09:06:53Z</time>
      </trkpt>
      <trkpt lat="48.66062" lon="-2.35098">
        <ele>18</ele>
        <time>2014-06-10T09:06:58Z</time>
      </trkpt>
      <trkpt lat="48.66066" lon="-2.35095">
        <ele>18</ele>
        <time>2014-06-10T09:07:01Z</time>
      </trkpt>
      <trkpt lat="48.66068" lon="-2.35095">
        <ele>18</ele>
        <time>2014-06-10T09:07:04Z</time>
      </trkpt>
      <trkpt lat="48.66071" lon="-2.35091">
        <ele>18</ele>
        <time>2014-06-10T09:07:07Z</time>
      </trkpt>
      <trkpt lat="48.66074" lon="-2.35091">
        <ele>18</ele>
        <time>2014-06-10T09:07:10Z</time>
      </trkpt>
      <trkpt lat="48.66077" lon="-2.35093">
        <ele>18</ele>
        <time>2014-06-10T09:07:12Z</time>
      </trkpt>
      <trkpt lat="48.6608" lon="-2.35095">
        <ele>18</ele>
        <time>2014-06-10T09:07:15Z</time>
      </trkpt>
      <trkpt lat="48.66084" lon="-2.35096">
        <ele>18</ele>
        <time>2014-06-10T09:07:17Z</time>
      </trkpt>
      <trkpt lat="48.66086" lon="-2.35096">
        <ele>18</ele>
        <time>2014-06-10T09:07:20Z</time>
      </trkpt>
      <trkpt lat="48.66091" lon="-2.351">
        <ele>18</ele>
        <time>2014-06-10T09:07:23Z</time>
      </trkpt>
      <trkpt lat="48.66093" lon="-2.35103">
        <ele>18</ele>
        <time>2014-06-10T09:07:26Z</time>
      </trkpt>
      <trkpt lat="48.66096" lon="-2.35107">
        <ele>18</ele>
        <time>2014-06-10T09:07:28Z</time>
      </trkpt>
      <trkpt lat="48.66098" lon="-2.35108">
        <ele>18</ele>
        <time>2014-06-10T09:07:31Z</time>
      </trkpt>
      <trkpt lat="48.66101" lon="-2.35106">
        <ele>18</ele>
        <time>2014-06-10T09:07:33Z</time>
      </trkpt>
      <trkpt lat="48.66102" lon="-2.35103">
        <ele>18</ele>
        <time>2014-06-10T09:07:36Z</time>
      </trkpt>
      <trkpt lat="48.66103" lon="-2.35097">
        <ele>18</ele>
        <time>2014-06-10T09:07:39Z</time>
      </trkpt>
      <trkpt lat="48.66103" lon="-2.35093">
        <ele>17</ele>
        <time>2014-06-10T09:07:41Z</time>
      </trkpt>
      <trkpt lat="48.66104" lon="-2.35088">
        <ele>17</ele>
        <time>2014-06-10T09:07:43Z</time>
      </trkpt>
      <trkpt lat="48.66104" lon="-2.35085">
        <ele>17</ele>
        <time>2014-06-10T09:07:46Z</time>
      </trkpt>
      <trkpt lat="48.66103" lon="-2.35079">
        <ele>16</ele>
        <time>2014-06-10T09:07:49Z</time>
      </trkpt>
      <trkpt lat="48.66103" lon="-2.35075">
        <ele>16</ele>
        <time>2014-06-10T09:07:51Z</time>
      </trkpt>
      <trkpt lat="48.66103" lon="-2.35072">
        <ele>16</ele>
        <time>2014-06-10T09:07:54Z</time>
      </trkpt>
      <trkpt lat="48.66102" lon="-2.35068">
        <ele>16</ele>
        <time>2014-06-10T09:07:56Z</time>
      </trkpt>
      <trkpt lat="48.66101" lon="-2.35064">
        <ele>15</ele>
        <time>2014-06-10T09:07:58Z</time>
      </trkpt>
      <trkpt lat="48.66101" lon="-2.3506">
        <ele>15</ele>
        <time>2014-06-10T09:08:01Z</time>
      </trkpt>
      <trkpt lat="48.661" lon="-2.35056">
        <ele>14</ele>
        <time>2014-06-10T09:08:03Z</time>
      </trkpt>
      <trkpt lat="48.661" lon="-2.3505">
        <ele>14</ele>
        <time>2014-06-10T09:08:06Z</time>
      </trkpt>
      <trkpt lat="48.661" lon="-2.35044">
        <ele>14</ele>
        <time>2014-06-10T09:08:08Z</time>
      </trkpt>
      <trkpt lat="48.66099" lon="-2.3504">
        <ele>14</ele>
        <time>2014-06-10T09:08:11Z</time>
      </trkpt>
      <trkpt lat="48.66099" lon="-2.35035">
        <ele>13</ele>
        <time>2014-06-10T09:08:13Z</time>
      </trkpt>
      <trkpt lat="48.66098" lon="-2.35031">
        <ele>13</ele>
        <time>2014-06-10T09:08:16Z</time>
      </trkpt>
      <trkpt lat="48.66098" lon="-2.35025">
        <ele>12</ele>
        <time>2014-06-10T09:08:18Z</time>
      </trkpt>
      <trkpt lat="48.66098" lon="-2.35022">
        <ele>12</ele>
        <time>2014-06-10T09:08:21Z</time>
      </trkpt>
      <trkpt lat="48.66098" lon="-2.35016">
        <ele>12</ele>
        <time>2014-06-10T09:08:23Z</time>
      </trkpt>
      <trkpt lat="48.66097" lon="-2.35012">
        <ele>12</ele>
        <time>2014-06-10T09:08:27Z</time>
      </trkpt>
      <trkpt lat="48.66097" lon="-2.35007">
        <ele>12</ele>
        <time>2014-06-10T09:08:29Z</time>
      </trkpt>
      <trkpt lat="48.66096" lon="-2.35004">
        <ele>11</ele>
        <time>2014-06-10T09:08:32Z</time>
      </trkpt>
      <trkpt lat="48.66097" lon="-2.35002">
        <ele>11</ele>
        <time>2014-06-10T09:08:36Z</time>
      </trkpt>
      <trkpt lat="48.66098" lon="-2.35">
        <ele>10</ele>
        <time>2014-06-10T09:08:40Z</time>
      </trkpt>
      <trkpt lat="48.66097" lon="-2.34996">
        <ele>10</ele>
        <time>2014-06-10T09:08:42Z</time>
      </trkpt>
      <trkpt lat="48.66096" lon="-2.34993">
        <ele>10</ele>
        <time>2014-06-10T09:08:45Z</time>
      </trkpt>
      <trkpt lat="48.66094" lon="-2.34988">
        <ele>10</ele>
        <time>2014-06-10T09:08:47Z</time>
      </trkpt>
      <trkpt lat="48.66092" lon="-2.34984">
        <ele>10</ele>
        <time>2014-06-10T09:08:50Z</time>
      </trkpt>
      <trkpt lat="48.6609" lon="-2.34979">
        <ele>10</ele>
        <time>2014-06-10T09:08:52Z</time>
      </trkpt>
      <trkpt lat="48.66088" lon="-2.34974">
        <ele>10</ele>
        <time>2014-06-10T09:08:55Z</time>
      </trkpt>
      <trkpt lat="48.66085" lon="-2.34967">
        <ele>10</ele>
        <time>2014-06-10T09:08:57Z</time>
      </trkpt>
      <trkpt lat="48.66084" lon="-2.34964">
        <ele>10</ele>
        <time>2014-06-10T09:09:00Z</time>
      </trkpt>
      <trkpt lat="48.66082" lon="-2.34959">
        <ele>10</ele>
        <time>2014-06-10T09:09:02Z</time>
      </trkpt>
      <trkpt lat="48.66081" lon="-2.34955">
        <ele>10</ele>
        <time>2014-06-10T09:09:05Z</time>
      </trkpt>
      <trkpt lat="48.66079" lon="-2.34949">
        <ele>10</ele>
        <time>2014-06-10T09:09:07Z</time>
      </trkpt>
      <trkpt lat="48.66077" lon="-2.34946">
        <ele>10</ele>
        <time>2014-06-10T09:09:10Z</time>
      </trkpt>
      <trkpt lat="48.66074" lon="-2.34939">
        <ele>10</ele>
        <time>2014-06-10T09:09:13Z</time>
      </trkpt>
      <trkpt lat="48.66073" lon="-2.34937">
        <ele>10</ele>
        <time>2014-06-10T09:09:16Z</time>
      </trkpt>
      <trkpt lat="48.66069" lon="-2.3493">
        <ele>10</ele>
        <time>2014-06-10T09:09:19Z</time>
      </trkpt>
      <trkpt lat="48.66068" lon="-2.34926">
        <ele>10</ele>
        <time>2014-06-10T09:09:22Z</time>
      </trkpt>
      <trkpt lat="48.66066" lon="-2.34923">
        <ele>10</ele>
        <time>2014-06-10T09:09:24Z</time>
      </trkpt>
      <trkpt lat="48.66065" lon="-2.34919">
        <ele>10</ele>
        <time>2014-06-10T09:09:26Z</time>
      </trkpt>
      <trkpt lat="48.66062" lon="-2.34915">
        <ele>10</ele>
        <time>2014-06-10T09:09:29Z</time>
      </trkpt>
      <trkpt lat="48.6606" lon="-2.34912">
        <ele>10</ele>
        <time>2014-06-10T09:09:32Z</time>
      </trkpt>
      <trkpt lat="48.66057" lon="-2.34907">
        <ele>10</ele>
        <time>2014-06-10T09:09:35Z</time>
      </trkpt>
      <trkpt lat="48.66055" lon="-2.34903">
        <ele>10</ele>
        <time>2014-06-10T09:09:37Z</time>
      </trkpt>
      <trkpt lat="48.66054" lon="-2.34899">
        <ele>11</ele>
        <time>2014-06-10T09:09:39Z</time>
      </trkpt>
      <trkpt lat="48.66052" lon="-2.34896">
        <ele>11</ele>
        <time>2014-06-10T09:09:42Z</time>
      </trkpt>
      <trkpt lat="48.66049" lon="-2.3489">
        <ele>12</ele>
        <time>2014-06-10T09:09:45Z</time>
      </trkpt>
      <trkpt lat="48.66048" lon="-2.34887">
        <ele>12</ele>
        <time>2014-06-10T09:09:47Z</time>
      </trkpt>
      <trkpt lat="48.66047" lon="-2.34883">
        <ele>13</ele>
        <time>2014-06-10T09:09:49Z</time>
      </trkpt>
      <trkpt lat="48.66046" lon="-2.3488">
        <ele>13</ele>
        <time>2014-06-10T09:09:51Z</time>
      </trkpt>
      <trkpt lat="48.66045" lon="-2.34876">
        <ele>14</ele>
        <time>2014-06-10T09:09:54Z</time>
      </trkpt>
      <trkpt lat="48.66046" lon="-2.34873">
        <ele>14</ele>
        <time>2014-06-10T09:09:56Z</time>
      </trkpt>
      <trkpt lat="48.66047" lon="-2.34871">
        <ele>14</ele>
        <time>2014-06-10T09:09:59Z</time>
      </trkpt>
      <trkpt lat="48.6605" lon="-2.34867">
        <ele>15</ele>
        <time>2014-06-10T09:10:01Z</time>
      </trkpt>
      <trkpt lat="48.66052" lon="-2.34865">
        <ele>15</ele>
        <time>2014-06-10T09:10:04Z</time>
      </trkpt>
      <trkpt lat="48.66056" lon="-2.34861">
        <ele>15</ele>
        <time>2014-06-10T09:10:06Z</time>
      </trkpt>
      <trkpt lat="48.66058" lon="-2.3486">
        <ele>15</ele>
        <time>2014-06-10T09:10:09Z</time>
      </trkpt>
      <trkpt lat="48.66062" lon="-2.34858">
        <ele>15</ele>
        <time>2014-06-10T09:10:11Z</time>
      </trkpt>
      <trkpt lat="48.66065" lon="-2.34856">
        <ele>15</ele>
        <time>2014-06-10T09:10:14Z</time>
      </trkpt>
      <trkpt lat="48.66069" lon="-2.34854">
        <ele>15</ele>
        <time>2014-06-10T09:10:16Z</time>
      </trkpt>
      <trkpt lat="48.66071" lon="-2.34852">
        <ele>15</ele>
        <time>2014-06-10T09:10:19Z</time>
      </trkpt>
      <trkpt lat="48.66074" lon="-2.3485">
        <ele>15</ele>
        <time>2014-06-10T09:10:21Z</time>
      </trkpt>
      <trkpt lat="48.66077" lon="-2.34847">
        <ele>15</ele>
        <time>2014-06-10T09:10:24Z</time>
      </trkpt>
      <trkpt lat="48.6608" lon="-2.34845">
        <ele>15</ele>
        <time>2014-06-10T09:10:26Z</time>
      </trkpt>
      <trkpt lat="48.66083" lon="-2.34843">
        <ele>15</ele>
        <time>2014-06-10T09:10:28Z</time>
      </trkpt>
      <trkpt lat="48.66085" lon="-2.34841">
        <ele>15</ele>
        <time>2014-06-10T09:10:30Z</time>
      </trkpt>
      <trkpt lat="48.66088" lon="-2.34839">
        <ele>15</ele>
        <time>2014-06-10T09:10:32Z</time>
      </trkpt>
      <trkpt lat="48.6609" lon="-2.34837">
        <ele>15</ele>
        <time>2014-06-10T09:10:34Z</time>
      </trkpt>
      <trkpt lat="48.66093" lon="-2.34836">
        <ele>15</ele>
        <time>2014-06-10T09:10:36Z</time>
      </trkpt>
      <trkpt lat="48.66095" lon="-2.34834">
        <ele>15</ele>
        <time>2014-06-10T09:10:39Z</time>
      </trkpt>
      <trkpt lat="48.66099" lon="-2.3483">
        <ele>15</ele>
        <time>2014-06-10T09:10:41Z</time>
      </trkpt>
      <trkpt lat="48.66101" lon="-2.34827">
        <ele>15</ele>
        <time>2014-06-10T09:10:43Z</time>
      </trkpt>
      <trkpt lat="48.66104" lon="-2.34823">
        <ele>15</ele>
        <time>2014-06-10T09:10:46Z</time>
      </trkpt>
      <trkpt lat="48.66105" lon="-2.34819">
        <ele>15</ele>
        <time>2014-06-10T09:10:48Z</time>
      </trkpt>
      <trkpt lat="48.66106" lon="-2.34815">
        <ele>15</ele>
        <time>2014-06-10T09:10:50Z</time>
      </trkpt>
      <trkpt lat="48.66107" lon="-2.34811">
        <ele>15</ele>
        <time>2014-06-10T09:10:52Z</time>
      </trkpt>
      <trkpt lat="48.66108" lon="-2.34808">
        <ele>15</ele>
        <time>2014-06-10T09:10:54Z</time>
      </trkpt>
      <trkpt lat="48.66108" lon="-2.34803">
        <ele>15</ele>
        <time>2014-06-10T09:10:56Z</time>
      </trkpt>
      <trkpt lat="48.66109" lon="-2.34799">
        <ele>15</ele>
        <time>2014-06-10T09:10:59Z</time>
      </trkpt>
      <trkpt lat="48.66111" lon="-2.34793">
        <ele>15</ele>
        <time>2014-06-10T09:11:01Z</time>
      </trkpt>
      <trkpt lat="48.66113" lon="-2.34791">
        <ele>15</ele>
        <time>2014-06-10T09:11:03Z</time>
      </trkpt>
      <trkpt lat="48.66116" lon="-2.3479">
        <ele>15</ele>
        <time>2014-06-10T09:11:05Z</time>
      </trkpt>
      <trkpt lat="48.66119" lon="-2.3479">
        <ele>15</ele>
        <time>2014-06-10T09:11:07Z</time>
      </trkpt>
      <trkpt lat="48.66121" lon="-2.34791">
        <ele>15</ele>
        <time>2014-06-10T09:11:09Z</time>
      </trkpt>
      <trkpt lat="48.66124" lon="-2.34792">
        <ele>15</ele>
        <time>2014-06-10T09:11:11Z</time>
      </trkpt>
      <trkpt lat="48.66127" lon="-2.34794">
        <ele>15</ele>
        <time>2014-06-10T09:11:13Z</time>
      </trkpt>
      <trkpt lat="48.66129" lon="-2.34795">
        <ele>15</ele>
        <time>2014-06-10T09:11:15Z</time>
      </trkpt>
      <trkpt lat="48.66131" lon="-2.34797">
        <ele>15</ele>
        <time>2014-06-10T09:11:17Z</time>
      </trkpt>
      <trkpt lat="48.66134" lon="-2.34798">
        <ele>15</ele>
        <time>2014-06-10T09:11:19Z</time>
      </trkpt>
      <trkpt lat="48.66137" lon="-2.348">
        <ele>15</ele>
        <time>2014-06-10T09:11:21Z</time>
      </trkpt>
      <trkpt lat="48.66139" lon="-2.34802">
        <ele>15</ele>
        <time>2014-06-10T09:11:23Z</time>
      </trkpt>
      <trkpt lat="48.66142" lon="-2.34803">
        <ele>15</ele>
        <time>2014-06-10T09:11:25Z</time>
      </trkpt>
      <trkpt lat="48.66145" lon="-2.34805">
        <ele>15</ele>
        <time>2014-06-10T09:11:27Z</time>
      </trkpt>
      <trkpt lat="48.66147" lon="-2.34806">
        <ele>15</ele>
        <time>2014-06-10T09:11:29Z</time>
      </trkpt>
      <trkpt lat="48.6615" lon="-2.34807">
        <ele>15</ele>
        <time>2014-06-10T09:11:31Z</time>
      </trkpt>
      <trkpt lat="48.66153" lon="-2.34809">
        <ele>15</ele>
        <time>2014-06-10T09:11:33Z</time>
      </trkpt>
      <trkpt lat="48.66156" lon="-2.34811">
        <ele>15</ele>
        <time>2014-06-10T09:11:35Z</time>
      </trkpt>
      <trkpt lat="48.66159" lon="-2.34813">
        <ele>15</ele>
        <time>2014-06-10T09:11:37Z</time>
      </trkpt>
      <trkpt lat="48.66161" lon="-2.34815">
        <ele>15</ele>
        <time>2014-06-10T09:11:39Z</time>
      </trkpt>
      <trkpt lat="48.66164" lon="-2.34816">
        <ele>15</ele>
        <time>2014-06-10T09:11:41Z</time>
      </trkpt>
      <trkpt lat="48.66167" lon="-2.34818">
        <ele>15</ele>
        <time>2014-06-10T09:11:44Z</time>
      </trkpt>
      <trkpt lat="48.66172" lon="-2.3482">
        <ele>15</ele>
        <time>2014-06-10T09:11:46Z</time>
      </trkpt>
      <trkpt lat="48.66174" lon="-2.34821">
        <ele>15</ele>
        <time>2014-06-10T09:11:49Z</time>
      </trkpt>
      <trkpt lat="48.66178" lon="-2.34823">
        <ele>15</ele>
        <time>2014-06-10T09:11:51Z</time>
      </trkpt>
      <trkpt lat="48.66181" lon="-2.34824">
        <ele>15</ele>
        <time>2014-06-10T09:11:54Z</time>
      </trkpt>
      <trkpt lat="48.66185" lon="-2.34826">
        <ele>15</ele>
        <time>2014-06-10T09:11:56Z</time>
      </trkpt>
      <trkpt lat="48.66188" lon="-2.34827">
        <ele>15</ele>
        <time>2014-06-10T09:11:59Z</time>
      </trkpt>
      <trkpt lat="48.66192" lon="-2.34829">
        <ele>15</ele>
        <time>2014-06-10T09:12:01Z</time>
      </trkpt>
      <trkpt lat="48.66195" lon="-2.3483">
        <ele>15</ele>
        <time>2014-06-10T09:12:04Z</time>
      </trkpt>
      <trkpt lat="48.66199" lon="-2.34831">
        <ele>15</ele>
        <time>2014-06-10T09:12:06Z</time>
      </trkpt>
      <trkpt lat="48.66202" lon="-2.34832">
        <ele>15</ele>
        <time>2014-06-10T09:12:09Z</time>
      </trkpt>
      <trkpt lat="48.66205" lon="-2.34834">
        <ele>15</ele>
        <time>2014-06-10T09:12:11Z</time>
      </trkpt>
      <trkpt lat="48.66208" lon="-2.34834">
        <ele>15</ele>
        <time>2014-06-10T09:12:13Z</time>
      </trkpt>
      <trkpt lat="48.6621" lon="-2.34835">
        <ele>15</ele>
        <time>2014-06-10T09:12:15Z</time>
      </trkpt>
      <trkpt lat="48.66213" lon="-2.34836">
        <ele>15</ele>
        <time>2014-06-10T09:12:17Z</time>
      </trkpt>
      <trkpt lat="48.66215" lon="-2.34837">
        <ele>15</ele>
        <time>2014-06-10T09:12:19Z</time>
      </trkpt>
      <trkpt lat="48.66217" lon="-2.34837">
        <ele>15</ele>
        <time>2014-06-10T09:12:21Z</time>
      </trkpt>
      <trkpt lat="48.66219" lon="-2.34836">
        <ele>15</ele>
        <time>2014-06-10T09:12:24Z</time>
      </trkpt>
      <trkpt lat="48.66223" lon="-2.34837">
        <ele>15</ele>
        <time>2014-06-10T09:12:26Z</time>
      </trkpt>
      <trkpt lat="48.66225" lon="-2.34837">
        <ele>15</ele>
        <time>2014-06-10T09:12:29Z</time>
      </trkpt>
      <trkpt lat="48.66229" lon="-2.34837">
        <ele>15</ele>
        <time>2014-06-10T09:12:31Z</time>
      </trkpt>
      <trkpt lat="48.66231" lon="-2.34836">
        <ele>15</ele>
        <time>2014-06-10T09:12:33Z</time>
      </trkpt>
      <trkpt lat="48.66234" lon="-2.34836">
        <ele>15</ele>
        <time>2014-06-10T09:12:35Z</time>
      </trkpt>
      <trkpt lat="48.66236" lon="-2.34836">
        <ele>15</ele>
        <time>2014-06-10T09:12:37Z</time>
      </trkpt>
      <trkpt lat="48.66239" lon="-2.34836">
        <ele>15</ele>
        <time>2014-06-10T09:12:39Z</time>
      </trkpt>
      <trkpt lat="48.66241" lon="-2.34835">
        <ele>15</ele>
        <time>2014-06-10T09:12:41Z</time>
      </trkpt>
      <trkpt lat="48.66244" lon="-2.34834">
        <ele>15</ele>
        <time>2014-06-10T09:12:44Z</time>
      </trkpt>
      <trkpt lat="48.66248" lon="-2.34833">
        <ele>15</ele>
        <time>2014-06-10T09:12:46Z</time>
      </trkpt>
      <trkpt lat="48.66251" lon="-2.34832">
        <ele>15</ele>
        <time>2014-06-10T09:12:48Z</time>
      </trkpt>
      <trkpt lat="48.66254" lon="-2.34831">
        <ele>15</ele>
        <time>2014-06-10T09:12:50Z</time>
      </trkpt>
      <trkpt lat="48.66256" lon="-2.34829">
        <ele>16</ele>
        <time>2014-06-10T09:12:52Z</time>
      </trkpt>
      <trkpt lat="48.66259" lon="-2.34828">
        <ele>16</ele>
        <time>2014-06-10T09:12:54Z</time>
      </trkpt>
      <trkpt lat="48.66261" lon="-2.34827">
        <ele>16</ele>
        <time>2014-06-10T09:12:56Z</time>
      </trkpt>
      <trkpt lat="48.66264" lon="-2.34825">
        <ele>16</ele>
        <time>2014-06-10T09:12:58Z</time>
      </trkpt>
      <trkpt lat="48.66266" lon="-2.34824">
        <ele>17</ele>
        <time>2014-06-10T09:13:00Z</time>
      </trkpt>
      <trkpt lat="48.66269" lon="-2.34822">
        <ele>17</ele>
        <time>2014-06-10T09:13:02Z</time>
      </trkpt>
      <trkpt lat="48.66271" lon="-2.34821">
        <ele>17</ele>
        <time>2014-06-10T09:13:04Z</time>
      </trkpt>
      <trkpt lat="48.66274" lon="-2.34819">
        <ele>17</ele>
        <time>2014-06-10T09:13:06Z</time>
      </trkpt>
      <trkpt lat="48.66276" lon="-2.34818">
        <ele>17</ele>
        <time>2014-06-10T09:13:08Z</time>
      </trkpt>
      <trkpt lat="48.66278" lon="-2.34816">
        <ele>17</ele>
        <time>2014-06-10T09:13:10Z</time>
      </trkpt>
      <trkpt lat="48.66281" lon="-2.34814">
        <ele>18</ele>
        <time>2014-06-10T09:13:12Z</time>
      </trkpt>
      <trkpt lat="48.66283" lon="-2.34812">
        <ele>18</ele>
        <time>2014-06-10T09:13:14Z</time>
      </trkpt>
      <trkpt lat="48.66286" lon="-2.34809">
        <ele>18</ele>
        <time>2014-06-10T09:13:17Z</time>
      </trkpt>
      <trkpt lat="48.6629" lon="-2.34805">
        <ele>18</ele>
        <time>2014-06-10T09:13:20Z</time>
      </trkpt>
      <trkpt lat="48.66292" lon="-2.34803">
        <ele>18</ele>
        <time>2014-06-10T09:13:22Z</time>
      </trkpt>
      <trkpt lat="48.66294" lon="-2.348">
        <ele>18</ele>
        <time>2014-06-10T09:13:24Z</time>
      </trkpt>
      <trkpt lat="48.66296" lon="-2.34798">
        <ele>19</ele>
        <time>2014-06-10T09:13:26Z</time>
      </trkpt>
      <trkpt lat="48.66298" lon="-2.34797">
        <ele>19</ele>
        <time>2014-06-10T09:13:29Z</time>
      </trkpt>
      <trkpt lat="48.66301" lon="-2.34793">
        <ele>19</ele>
        <time>2014-06-10T09:13:32Z</time>
      </trkpt>
      <trkpt lat="48.66303" lon="-2.34791">
        <ele>19</ele>
        <time>2014-06-10T09:13:34Z</time>
      </trkpt>
      <trkpt lat="48.66304" lon="-2.34788">
        <ele>20</ele>
        <time>2014-06-10T09:13:36Z</time>
      </trkpt>
      <trkpt lat="48.66306" lon="-2.34786">
        <ele>20</ele>
        <time>2014-06-10T09:13:38Z</time>
      </trkpt>
      <trkpt lat="48.66307" lon="-2.34784">
        <ele>21</ele>
        <time>2014-06-10T09:13:53Z</time>
      </trkpt>
      <trkpt lat="48.6631" lon="-2.34779">
        <ele>21</ele>
        <time>2014-06-10T09:13:56Z</time>
      </trkpt>
      <trkpt lat="48.66312" lon="-2.34775">
        <ele>21</ele>
        <time>2014-06-10T09:13:58Z</time>
      </trkpt>
      <trkpt lat="48.66314" lon="-2.3477">
        <ele>21</ele>
        <time>2014-06-10T09:14:01Z</time>
      </trkpt>
      <trkpt lat="48.66317" lon="-2.34766">
        <ele>21</ele>
        <time>2014-06-10T09:14:04Z</time>
      </trkpt>
      <trkpt lat="48.66319" lon="-2.34762">
        <ele>21</ele>
        <time>2014-06-10T09:14:06Z</time>
      </trkpt>
      <trkpt lat="48.6632" lon="-2.34758">
        <ele>21</ele>
        <time>2014-06-10T09:14:08Z</time>
      </trkpt>
      <trkpt lat="48.66322" lon="-2.34753">
        <ele>22</ele>
        <time>2014-06-10T09:14:11Z</time>
      </trkpt>
      <trkpt lat="48.66324" lon="-2.34749">
        <ele>22</ele>
        <time>2014-06-10T09:14:13Z</time>
      </trkpt>
      <trkpt lat="48.66325" lon="-2.34745">
        <ele>22</ele>
        <time>2014-06-10T09:14:15Z</time>
      </trkpt>
      <trkpt lat="48.66327" lon="-2.34741">
        <ele>22</ele>
        <time>2014-06-10T09:14:18Z</time>
      </trkpt>
      <trkpt lat="48.66328" lon="-2.34736">
        <ele>23</ele>
        <time>2014-06-10T09:14:20Z</time>
      </trkpt>
      <trkpt lat="48.6633" lon="-2.34733">
        <ele>23</ele>
        <time>2014-06-10T09:14:23Z</time>
      </trkpt>
      <trkpt lat="48.66331" lon="-2.34727">
        <ele>23</ele>
        <time>2014-06-10T09:14:25Z</time>
      </trkpt>
      <trkpt lat="48.66332" lon="-2.34723">
        <ele>23</ele>
        <time>2014-06-10T09:14:27Z</time>
      </trkpt>
      <trkpt lat="48.66333" lon="-2.34719">
        <ele>23</ele>
        <time>2014-06-10T09:14:29Z</time>
      </trkpt>
      <trkpt lat="48.66334" lon="-2.34715">
        <ele>23</ele>
        <time>2014-06-10T09:14:31Z</time>
      </trkpt>
      <trkpt lat="48.66335" lon="-2.34711">
        <ele>23</ele>
        <time>2014-06-10T09:14:33Z</time>
      </trkpt>
      <trkpt lat="48.66336" lon="-2.34707">
        <ele>23</ele>
        <time>2014-06-10T09:14:35Z</time>
      </trkpt>
      <trkpt lat="48.66336" lon="-2.34702">
        <ele>24</ele>
        <time>2014-06-10T09:14:37Z</time>
      </trkpt>
      <trkpt lat="48.66337" lon="-2.34698">
        <ele>24</ele>
        <time>2014-06-10T09:14:39Z</time>
      </trkpt>
      <trkpt lat="48.66338" lon="-2.34693">
        <ele>24</ele>
        <time>2014-06-10T09:14:41Z</time>
      </trkpt>
      <trkpt lat="48.66339" lon="-2.34689">
        <ele>25</ele>
        <time>2014-06-10T09:14:43Z</time>
      </trkpt>
      <trkpt lat="48.66339" lon="-2.34685">
        <ele>25</ele>
        <time>2014-06-10T09:14:45Z</time>
      </trkpt>
      <trkpt lat="48.6634" lon="-2.34681">
        <ele>25</ele>
        <time>2014-06-10T09:14:47Z</time>
      </trkpt>
      <trkpt lat="48.66341" lon="-2.34677">
        <ele>25</ele>
        <time>2014-06-10T09:14:49Z</time>
      </trkpt>
      <trkpt lat="48.66341" lon="-2.34673">
        <ele>25</ele>
        <time>2014-06-10T09:14:51Z</time>
      </trkpt>
      <trkpt lat="48.66341" lon="-2.34669">
        <ele>25</ele>
        <time>2014-06-10T09:14:53Z</time>
      </trkpt>
      <trkpt lat="48.66341" lon="-2.34665">
        <ele>25</ele>
        <time>2014-06-10T09:14:55Z</time>
      </trkpt>
      <trkpt lat="48.66342" lon="-2.34661">
        <ele>25</ele>
        <time>2014-06-10T09:14:57Z</time>
      </trkpt>
      <trkpt lat="48.66341" lon="-2.34657">
        <ele>26</ele>
        <time>2014-06-10T09:14:59Z</time>
      </trkpt>
      <trkpt lat="48.66341" lon="-2.34653">
        <ele>26</ele>
        <time>2014-06-10T09:15:01Z</time>
      </trkpt>
      <trkpt lat="48.66341" lon="-2.34649">
        <ele>26</ele>
        <time>2014-06-10T09:15:03Z</time>
      </trkpt>
      <trkpt lat="48.66341" lon="-2.34645">
        <ele>26</ele>
        <time>2014-06-10T09:15:05Z</time>
      </trkpt>
      <trkpt lat="48.66341" lon="-2.34641">
        <ele>27</ele>
        <time>2014-06-10T09:15:07Z</time>
      </trkpt>
      <trkpt lat="48.66339" lon="-2.34638">
        <ele>27</ele>
        <time>2014-06-10T09:15:09Z</time>
      </trkpt>
      <trkpt lat="48.66339" lon="-2.34633">
        <ele>27</ele>
        <time>2014-06-10T09:15:11Z</time>
      </trkpt>
      <trkpt lat="48.66338" lon="-2.3463">
        <ele>27</ele>
        <time>2014-06-10T09:15:13Z</time>
      </trkpt>
      <trkpt lat="48.66338" lon="-2.34626">
        <ele>27</ele>
        <time>2014-06-10T09:15:15Z</time>
      </trkpt>
      <trkpt lat="48.66338" lon="-2.34622">
        <ele>28</ele>
        <time>2014-06-10T09:15:17Z</time>
      </trkpt>
      <trkpt lat="48.66337" lon="-2.34618">
        <ele>28</ele>
        <time>2014-06-10T09:15:19Z</time>
      </trkpt>
      <trkpt lat="48.66336" lon="-2.34614">
        <ele>28</ele>
        <time>2014-06-10T09:15:21Z</time>
      </trkpt>
      <trkpt lat="48.66336" lon="-2.3461">
        <ele>28</ele>
        <time>2014-06-10T09:15:23Z</time>
      </trkpt>
      <trkpt lat="48.66335" lon="-2.34606">
        <ele>28</ele>
        <time>2014-06-10T09:15:25Z</time>
      </trkpt>
      <trkpt lat="48.66334" lon="-2.34602">
        <ele>29</ele>
        <time>2014-06-10T09:15:27Z</time>
      </trkpt>
      <trkpt lat="48.66333" lon="-2.34598">
        <ele>29</ele>
        <time>2014-06-10T09:15:29Z</time>
      </trkpt>
      <trkpt lat="48.66333" lon="-2.34594">
        <ele>29</ele>
        <time>2014-06-10T09:15:31Z</time>
      </trkpt>
      <trkpt lat="48.66332" lon="-2.34591">
        <ele>30</ele>
        <time>2014-06-10T09:15:33Z</time>
      </trkpt>
      <trkpt lat="48.66331" lon="-2.34587">
        <ele>30</ele>
        <time>2014-06-10T09:15:35Z</time>
      </trkpt>
      <trkpt lat="48.6633" lon="-2.34583">
        <ele>30</ele>
        <time>2014-06-10T09:15:37Z</time>
      </trkpt>
      <trkpt lat="48.6633" lon="-2.34579">
        <ele>30</ele>
        <time>2014-06-10T09:15:39Z</time>
      </trkpt>
      <trkpt lat="48.66329" lon="-2.34575">
        <ele>30</ele>
        <time>2014-06-10T09:15:41Z</time>
      </trkpt>
      <trkpt lat="48.66328" lon="-2.34571">
        <ele>31</ele>
        <time>2014-06-10T09:15:43Z</time>
      </trkpt>
      <trkpt lat="48.66327" lon="-2.34567">
        <ele>31</ele>
        <time>2014-06-10T09:15:45Z</time>
      </trkpt>
      <trkpt lat="48.66327" lon="-2.34563">
        <ele>31</ele>
        <time>2014-06-10T09:15:47Z</time>
      </trkpt>
      <trkpt lat="48.66326" lon="-2.34559">
        <ele>31</ele>
        <time>2014-06-10T09:15:49Z</time>
      </trkpt>
      <trkpt lat="48.66325" lon="-2.34555">
        <ele>32</ele>
        <time>2014-06-10T09:15:51Z</time>
      </trkpt>
      <trkpt lat="48.66324" lon="-2.34551">
        <ele>32</ele>
        <time>2014-06-10T09:15:53Z</time>
      </trkpt>
      <trkpt lat="48.66323" lon="-2.34547">
        <ele>32</ele>
        <time>2014-06-10T09:15:55Z</time>
      </trkpt>
      <trkpt lat="48.66322" lon="-2.34543">
        <ele>32</ele>
        <time>2014-06-10T09:15:57Z</time>
      </trkpt>
      <trkpt lat="48.66322" lon="-2.34539">
        <ele>32</ele>
        <time>2014-06-10T09:15:59Z</time>
      </trkpt>
      <trkpt lat="48.66321" lon="-2.34535">
        <ele>33</ele>
        <time>2014-06-10T09:16:01Z</time>
      </trkpt>
      <trkpt lat="48.6632" lon="-2.34531">
        <ele>33</ele>
        <time>2014-06-10T09:16:03Z</time>
      </trkpt>
      <trkpt lat="48.6632" lon="-2.34527">
        <ele>33</ele>
        <time>2014-06-10T09:16:05Z</time>
      </trkpt>
      <trkpt lat="48.66319" lon="-2.34524">
        <ele>33</ele>
        <time>2014-06-10T09:16:07Z</time>
      </trkpt>
      <trkpt lat="48.66318" lon="-2.3452">
        <ele>34</ele>
        <time>2014-06-10T09:16:09Z</time>
      </trkpt>
      <trkpt lat="48.66317" lon="-2.34516">
        <ele>34</ele>
        <time>2014-06-10T09:16:11Z</time>
      </trkpt>
      <trkpt lat="48.66316" lon="-2.34512">
        <ele>34</ele>
        <time>2014-06-10T09:16:13Z</time>
      </trkpt>
      <trkpt lat="48.66315" lon="-2.34509">
        <ele>34</ele>
        <time>2014-06-10T09:16:15Z</time>
      </trkpt>
      <trkpt lat="48.66315" lon="-2.34505">
        <ele>34</ele>
        <time>2014-06-10T09:16:17Z</time>
      </trkpt>
      <trkpt lat="48.66314" lon="-2.34501">
        <ele>35</ele>
        <time>2014-06-10T09:16:19Z</time>
      </trkpt>
      <trkpt lat="48.66314" lon="-2.34497">
        <ele>35</ele>
        <time>2014-06-10T09:16:21Z</time>
      </trkpt>
      <trkpt lat="48.66313" lon="-2.34493">
        <ele>35</ele>
        <time>2014-06-10T09:16:23Z</time>
      </trkpt>
      <trkpt lat="48.66312" lon="-2.34489">
        <ele>35</ele>
        <time>2014-06-10T09:16:25Z</time>
      </trkpt>
      <trkpt lat="48.66312" lon="-2.34485">
        <ele>35</ele>
        <time>2014-06-10T09:16:27Z</time>
      </trkpt>
      <trkpt lat="48.66311" lon="-2.34482">
        <ele>35</ele>
        <time>2014-06-10T09:16:29Z</time>
      </trkpt>
      <trkpt lat="48.6631" lon="-2.34478">
        <ele>35</ele>
        <time>2014-06-10T09:16:31Z</time>
      </trkpt>
      <trkpt lat="48.66309" lon="-2.34474">
        <ele>36</ele>
        <time>2014-06-10T09:16:33Z</time>
      </trkpt>
      <trkpt lat="48.66309" lon="-2.3447">
        <ele>36</ele>
        <time>2014-06-10T09:16:35Z</time>
      </trkpt>
      <trkpt lat="48.66308" lon="-2.34467">
        <ele>36</ele>
        <time>2014-06-10T09:16:37Z</time>
      </trkpt>
      <trkpt lat="48.66307" lon="-2.34463">
        <ele>36</ele>
        <time>2014-06-10T09:16:39Z</time>
      </trkpt>
      <trkpt lat="48.66306" lon="-2.34459">
        <ele>37</ele>
        <time>2014-06-10T09:16:41Z</time>
      </trkpt>
      <trkpt lat="48.66306" lon="-2.34455">
        <ele>37</ele>
        <time>2014-06-10T09:16:43Z</time>
      </trkpt>
      <trkpt lat="48.66305" lon="-2.34452">
        <ele>37</ele>
        <time>2014-06-10T09:16:45Z</time>
      </trkpt>
      <trkpt lat="48.66304" lon="-2.34449">
        <ele>37</ele>
        <time>2014-06-10T09:16:47Z</time>
      </trkpt>
      <trkpt lat="48.66303" lon="-2.34445">
        <ele>38</ele>
        <time>2014-06-10T09:16:49Z</time>
      </trkpt>
      <trkpt lat="48.66303" lon="-2.34441">
        <ele>38</ele>
        <time>2014-06-10T09:16:51Z</time>
      </trkpt>
      <trkpt lat="48.66302" lon="-2.34437">
        <ele>38</ele>
        <time>2014-06-10T09:16:53Z</time>
      </trkpt>
      <trkpt lat="48.66302" lon="-2.34433">
        <ele>38</ele>
        <time>2014-06-10T09:16:55Z</time>
      </trkpt>
      <trkpt lat="48.66302" lon="-2.34429">
        <ele>38</ele>
        <time>2014-06-10T09:16:57Z</time>
      </trkpt>
      <trkpt lat="48.66302" lon="-2.34424">
        <ele>38</ele>
        <time>2014-06-10T09:16:59Z</time>
      </trkpt>
      <trkpt lat="48.66302" lon="-2.3442">
        <ele>38</ele>
        <time>2014-06-10T09:17:01Z</time>
      </trkpt>
      <trkpt lat="48.66302" lon="-2.34417">
        <ele>39</ele>
        <time>2014-06-10T09:17:03Z</time>
      </trkpt>
      <trkpt lat="48.66302" lon="-2.34412">
        <ele>39</ele>
        <time>2014-06-10T09:17:05Z</time>
      </trkpt>
      <trkpt lat="48.66302" lon="-2.34408">
        <ele>39</ele>
        <time>2014-06-10T09:17:07Z</time>
      </trkpt>
      <trkpt lat="48.66303" lon="-2.34404">
        <ele>39</ele>
        <time>2014-06-10T09:17:09Z</time>
      </trkpt>
      <trkpt lat="48.66304" lon="-2.344">
        <ele>39</ele>
        <time>2014-06-10T09:17:11Z</time>
      </trkpt>
      <trkpt lat="48.66304" lon="-2.34396">
        <ele>39</ele>
        <time>2014-06-10T09:17:13Z</time>
      </trkpt>
      <trkpt lat="48.66305" lon="-2.34391">
        <ele>39</ele>
        <time>2014-06-10T09:17:15Z</time>
      </trkpt>
      <trkpt lat="48.66305" lon="-2.34387">
        <ele>39</ele>
        <time>2014-06-10T09:17:17Z</time>
      </trkpt>
      <trkpt lat="48.66306" lon="-2.34384">
        <ele>39</ele>
        <time>2014-06-10T09:17:19Z</time>
      </trkpt>
      <trkpt lat="48.66307" lon="-2.34379">
        <ele>39</ele>
        <time>2014-06-10T09:17:21Z</time>
      </trkpt>
      <trkpt lat="48.66308" lon="-2.34375">
        <ele>40</ele>
        <time>2014-06-10T09:17:23Z</time>
      </trkpt>
      <trkpt lat="48.66309" lon="-2.3437">
        <ele>40</ele>
        <time>2014-06-10T09:17:26Z</time>
      </trkpt>
      <trkpt lat="48.6631" lon="-2.34366">
        <ele>40</ele>
        <time>2014-06-10T09:17:28Z</time>
      </trkpt>
      <trkpt lat="48.66311" lon="-2.34362">
        <ele>40</ele>
        <time>2014-06-10T09:17:30Z</time>
      </trkpt>
      <trkpt lat="48.66312" lon="-2.34358">
        <ele>40</ele>
        <time>2014-06-10T09:17:32Z</time>
      </trkpt>
      <trkpt lat="48.66314" lon="-2.34355">
        <ele>40</ele>
        <time>2014-06-10T09:17:34Z</time>
      </trkpt>
      <trkpt lat="48.66315" lon="-2.34351">
        <ele>40</ele>
        <time>2014-06-10T09:17:36Z</time>
      </trkpt>
      <trkpt lat="48.66317" lon="-2.34347">
        <ele>41</ele>
        <time>2014-06-10T09:17:38Z</time>
      </trkpt>
      <trkpt lat="48.66318" lon="-2.34344">
        <ele>41</ele>
        <time>2014-06-10T09:17:40Z</time>
      </trkpt>
      <trkpt lat="48.6632" lon="-2.34341">
        <ele>41</ele>
        <time>2014-06-10T09:17:42Z</time>
      </trkpt>
      <trkpt lat="48.66322" lon="-2.34337">
        <ele>41</ele>
        <time>2014-06-10T09:17:44Z</time>
      </trkpt>
      <trkpt lat="48.66324" lon="-2.34334">
        <ele>41</ele>
        <time>2014-06-10T09:17:46Z</time>
      </trkpt>
      <trkpt lat="48.66325" lon="-2.34331">
        <ele>41</ele>
        <time>2014-06-10T09:17:48Z</time>
      </trkpt>
      <trkpt lat="48.66328" lon="-2.34326">
        <ele>41</ele>
        <time>2014-06-10T09:17:51Z</time>
      </trkpt>
      <trkpt lat="48.6633" lon="-2.34323">
        <ele>41</ele>
        <time>2014-06-10T09:17:53Z</time>
      </trkpt>
      <trkpt lat="48.66332" lon="-2.3432">
        <ele>41</ele>
        <time>2014-06-10T09:17:55Z</time>
      </trkpt>
      <trkpt lat="48.66335" lon="-2.34317">
        <ele>42</ele>
        <time>2014-06-10T09:17:57Z</time>
      </trkpt>
      <trkpt lat="48.66336" lon="-2.34315">
        <ele>42</ele>
        <time>2014-06-10T09:17:59Z</time>
      </trkpt>
      <trkpt lat="48.66339" lon="-2.34312">
        <ele>42</ele>
        <time>2014-06-10T09:18:01Z</time>
      </trkpt>
      <trkpt lat="48.66341" lon="-2.3431">
        <ele>42</ele>
        <time>2014-06-10T09:18:03Z</time>
      </trkpt>
      <trkpt lat="48.66344" lon="-2.34308">
        <ele>42</ele>
        <time>2014-06-10T09:18:05Z</time>
      </trkpt>
      <trkpt lat="48.66346" lon="-2.34306">
        <ele>42</ele>
        <time>2014-06-10T09:18:07Z</time>
      </trkpt>
      <trkpt lat="48.66349" lon="-2.34304">
        <ele>42</ele>
        <time>2014-06-10T09:18:09Z</time>
      </trkpt>
      <trkpt lat="48.66351" lon="-2.34302">
        <ele>42</ele>
        <time>2014-06-10T09:18:11Z</time>
      </trkpt>
      <trkpt lat="48.66354" lon="-2.34301">
        <ele>42</ele>
        <time>2014-06-10T09:18:13Z</time>
      </trkpt>
      <trkpt lat="48.66356" lon="-2.34299">
        <ele>42</ele>
        <time>2014-06-10T09:18:15Z</time>
      </trkpt>
      <trkpt lat="48.66359" lon="-2.34298">
        <ele>42</ele>
        <time>2014-06-10T09:18:17Z</time>
      </trkpt>
      <trkpt lat="48.66361" lon="-2.34296">
        <ele>42</ele>
        <time>2014-06-10T09:18:19Z</time>
      </trkpt>
      <trkpt lat="48.66364" lon="-2.34295">
        <ele>42</ele>
        <time>2014-06-10T09:18:21Z</time>
      </trkpt>
      <trkpt lat="48.66366" lon="-2.34294">
        <ele>42</ele>
        <time>2014-06-10T09:18:23Z</time>
      </trkpt>
      <trkpt lat="48.66369" lon="-2.34293">
        <ele>42</ele>
        <time>2014-06-10T09:18:25Z</time>
      </trkpt>
      <trkpt lat="48.66372" lon="-2.34292">
        <ele>42</ele>
        <time>2014-06-10T09:18:27Z</time>
      </trkpt>
      <trkpt lat="48.66375" lon="-2.34291">
        <ele>42</ele>
        <time>2014-06-10T09:18:29Z</time>
      </trkpt>
      <trkpt lat="48.66377" lon="-2.34291">
        <ele>42</ele>
        <time>2014-06-10T09:18:31Z</time>
      </trkpt>
      <trkpt lat="48.6638" lon="-2.3429">
        <ele>42</ele>
        <time>2014-06-10T09:18:33Z</time>
      </trkpt>
      <trkpt lat="48.66383" lon="-2.34289">
        <ele>42</ele>
        <time>2014-06-10T09:18:35Z</time>
      </trkpt>
      <trkpt lat="48.66385" lon="-2.34289">
        <ele>42</ele>
        <time>2014-06-10T09:18:37Z</time>
      </trkpt>
      <trkpt lat="48.66388" lon="-2.34288">
        <ele>42</ele>
        <time>2014-06-10T09:18:39Z</time>
      </trkpt>
      <trkpt lat="48.6639" lon="-2.34288">
        <ele>42</ele>
        <time>2014-06-10T09:18:41Z</time>
      </trkpt>
      <trkpt lat="48.66393" lon="-2.34288">
        <ele>42</ele>
        <time>2014-06-10T09:18:43Z</time>
      </trkpt>
      <trkpt lat="48.66396" lon="-2.34288">
        <ele>42</ele>
        <time>2014-06-10T09:18:45Z</time>
      </trkpt>
      <trkpt lat="48.66398" lon="-2.34287">
        <ele>42</ele>
        <time>2014-06-10T09:18:47Z</time>
      </trkpt>
      <trkpt lat="48.66401" lon="-2.34287">
        <ele>42</ele>
        <time>2014-06-10T09:18:49Z</time>
      </trkpt>
      <trkpt lat="48.66404" lon="-2.34286">
        <ele>42</ele>
        <time>2014-06-10T09:18:51Z</time>
      </trkpt>
      <trkpt lat="48.66407" lon="-2.34286">
        <ele>42</ele>
        <time>2014-06-10T09:18:53Z</time>
      </trkpt>
      <trkpt lat="48.6641" lon="-2.34285">
        <ele>42</ele>
        <time>2014-06-10T09:18:55Z</time>
      </trkpt>
      <trkpt lat="48.66412" lon="-2.34285">
        <ele>42</ele>
        <time>2014-06-10T09:18:57Z</time>
      </trkpt>
      <trkpt lat="48.66415" lon="-2.34285">
        <ele>42</ele>
        <time>2014-06-10T09:18:59Z</time>
      </trkpt>
      <trkpt lat="48.66418" lon="-2.34285">
        <ele>42</ele>
        <time>2014-06-10T09:19:01Z</time>
      </trkpt>
      <trkpt lat="48.6642" lon="-2.34285">
        <ele>42</ele>
        <time>2014-06-10T09:19:03Z</time>
      </trkpt>
      <trkpt lat="48.66423" lon="-2.34284">
        <ele>42</ele>
        <time>2014-06-10T09:19:05Z</time>
      </trkpt>
      <trkpt lat="48.66426" lon="-2.34284">
        <ele>42</ele>
        <time>2014-06-10T09:19:07Z</time>
      </trkpt>
      <trkpt lat="48.66428" lon="-2.34284">
        <ele>42</ele>
        <time>2014-06-10T09:19:09Z</time>
      </trkpt>
      <trkpt lat="48.66431" lon="-2.34284">
        <ele>42</ele>
        <time>2014-06-10T09:19:11Z</time>
      </trkpt>
      <trkpt lat="48.66434" lon="-2.34284">
        <ele>42</ele>
        <time>2014-06-10T09:19:13Z</time>
      </trkpt>
      <trkpt lat="48.66437" lon="-2.34284">
        <ele>42</ele>
        <time>2014-06-10T09:19:15Z</time>
      </trkpt>
      <trkpt lat="48.6644" lon="-2.34283">
        <ele>42</ele>
        <time>2014-06-10T09:19:17Z</time>
      </trkpt>
      <trkpt lat="48.66443" lon="-2.34283">
        <ele>42</ele>
        <time>2014-06-10T09:19:19Z</time>
      </trkpt>
      <trkpt lat="48.66446" lon="-2.34283">
        <ele>42</ele>
        <time>2014-06-10T09:19:21Z</time>
      </trkpt>
      <trkpt lat="48.66448" lon="-2.34283">
        <ele>42</ele>
        <time>2014-06-10T09:19:23Z</time>
      </trkpt>
      <trkpt lat="48.66451" lon="-2.34282">
        <ele>42</ele>
        <time>2014-06-10T09:19:25Z</time>
      </trkpt>
      <trkpt lat="48.66454" lon="-2.34281">
        <ele>42</ele>
        <time>2014-06-10T09:19:27Z</time>
      </trkpt>
      <trkpt lat="48.66457" lon="-2.34281">
        <ele>42</ele>
        <time>2014-06-10T09:19:29Z</time>
      </trkpt>
      <trkpt lat="48.66459" lon="-2.34281">
        <ele>42</ele>
        <time>2014-06-10T09:19:31Z</time>
      </trkpt>
      <trkpt lat="48.66462" lon="-2.3428">
        <ele>42</ele>
        <time>2014-06-10T09:19:33Z</time>
      </trkpt>
      <trkpt lat="48.66465" lon="-2.3428">
        <ele>42</ele>
        <time>2014-06-10T09:19:35Z</time>
      </trkpt>
      <trkpt lat="48.66467" lon="-2.3428">
        <ele>42</ele>
        <time>2014-06-10T09:19:37Z</time>
      </trkpt>
      <trkpt lat="48.6647" lon="-2.34279">
        <ele>42</ele>
        <time>2014-06-10T09:19:39Z</time>
      </trkpt>
      <trkpt lat="48.66473" lon="-2.34279">
        <ele>42</ele>
        <time>2014-06-10T09:19:41Z</time>
      </trkpt>
      <trkpt lat="48.66476" lon="-2.34278">
        <ele>42</ele>
        <time>2014-06-10T09:19:43Z</time>
      </trkpt>
      <trkpt lat="48.66479" lon="-2.34277">
        <ele>42</ele>
        <time>2014-06-10T09:19:45Z</time>
      </trkpt>
      <trkpt lat="48.66482" lon="-2.34277">
        <ele>42</ele>
        <time>2014-06-10T09:19:47Z</time>
      </trkpt>
      <trkpt lat="48.66485" lon="-2.34276">
        <ele>42</ele>
        <time>2014-06-10T09:19:49Z</time>
      </trkpt>
      <trkpt lat="48.66488" lon="-2.34275">
        <ele>42</ele>
        <time>2014-06-10T09:19:51Z</time>
      </trkpt>
      <trkpt lat="48.6649" lon="-2.34274">
        <ele>42</ele>
        <time>2014-06-10T09:19:53Z</time>
      </trkpt>
      <trkpt lat="48.66493" lon="-2.34272">
        <ele>42</ele>
        <time>2014-06-10T09:19:55Z</time>
      </trkpt>
      <trkpt lat="48.66496" lon="-2.34271">
        <ele>42</ele>
        <time>2014-06-10T09:19:57Z</time>
      </trkpt>
      <trkpt lat="48.66498" lon="-2.34269">
        <ele>42</ele>
        <time>2014-06-10T09:19:59Z</time>
      </trkpt>
      <trkpt lat="48.66501" lon="-2.34268">
        <ele>42</ele>
        <time>2014-06-10T09:20:01Z</time>
      </trkpt>
      <trkpt lat="48.66504" lon="-2.34267">
        <ele>42</ele>
        <time>2014-06-10T09:20:03Z</time>
      </trkpt>
      <trkpt lat="48.66506" lon="-2.34266">
        <ele>42</ele>
        <time>2014-06-10T09:20:05Z</time>
      </trkpt>
      <trkpt lat="48.66509" lon="-2.34265">
        <ele>42</ele>
        <time>2014-06-10T09:20:07Z</time>
      </trkpt>
      <trkpt lat="48.66512" lon="-2.34263">
        <ele>42</ele>
        <time>2014-06-10T09:20:09Z</time>
      </trkpt>
      <trkpt lat="48.66514" lon="-2.34261">
        <ele>42</ele>
        <time>2014-06-10T09:20:11Z</time>
      </trkpt>
      <trkpt lat="48.66517" lon="-2.3426">
        <ele>42</ele>
        <time>2014-06-10T09:20:13Z</time>
      </trkpt>
      <trkpt lat="48.66519" lon="-2.34258">
        <ele>42</ele>
        <time>2014-06-10T09:20:15Z</time>
      </trkpt>
      <trkpt lat="48.66521" lon="-2.34256">
        <ele>42</ele>
        <time>2014-06-10T09:20:17Z</time>
      </trkpt>
      <trkpt lat="48.66524" lon="-2.34255">
        <ele>42</ele>
        <time>2014-06-10T09:20:19Z</time>
      </trkpt>
      <trkpt lat="48.66526" lon="-2.34254">
        <ele>42</ele>
        <time>2014-06-10T09:20:21Z</time>
      </trkpt>
      <trkpt lat="48.66529" lon="-2.34252">
        <ele>42</ele>
        <time>2014-06-10T09:20:23Z</time>
      </trkpt>
      <trkpt lat="48.66532" lon="-2.3425">
        <ele>42</ele>
        <time>2014-06-10T09:20:25Z</time>
      </trkpt>
      <trkpt lat="48.66534" lon="-2.34248">
        <ele>42</ele>
        <time>2014-06-10T09:20:27Z</time>
      </trkpt>
      <trkpt lat="48.66537" lon="-2.34247">
        <ele>42</ele>
        <time>2014-06-10T09:20:29Z</time>
      </trkpt>
      <trkpt lat="48.6654" lon="-2.34244">
        <ele>42</ele>
        <time>2014-06-10T09:20:31Z</time>
      </trkpt>
      <trkpt lat="48.66542" lon="-2.34243">
        <ele>42</ele>
        <time>2014-06-10T09:20:33Z</time>
      </trkpt>
      <trkpt lat="48.66545" lon="-2.34241">
        <ele>42</ele>
        <time>2014-06-10T09:20:35Z</time>
      </trkpt>
      <trkpt lat="48.66547" lon="-2.34239">
        <ele>42</ele>
        <time>2014-06-10T09:20:37Z</time>
      </trkpt>
      <trkpt lat="48.6655" lon="-2.34238">
        <ele>42</ele>
        <time>2014-06-10T09:20:39Z</time>
      </trkpt>
      <trkpt lat="48.66553" lon="-2.34239">
        <ele>42</ele>
        <time>2014-06-10T09:20:42Z</time>
      </trkpt>
      <trkpt lat="48.66554" lon="-2.3424">
        <ele>42</ele>
        <time>2014-06-10T09:20:44Z</time>
      </trkpt>
      <trkpt lat="48.66556" lon="-2.34242">
        <ele>42</ele>
        <time>2014-06-10T09:20:46Z</time>
      </trkpt>
      <trkpt lat="48.66557" lon="-2.34244">
        <ele>42</ele>
        <time>2014-06-10T09:20:48Z</time>
      </trkpt>
      <trkpt lat="48.66558" lon="-2.34246">
        <ele>42</ele>
        <time>2014-06-10T09:21:04Z</time>
      </trkpt>
      <trkpt lat="48.6656" lon="-2.34249">
        <ele>42</ele>
        <time>2014-06-10T09:21:06Z</time>
      </trkpt>
      <trkpt lat="48.66562" lon="-2.34254">
        <ele>42</ele>
        <time>2014-06-10T09:21:09Z</time>
      </trkpt>
      <trkpt lat="48.66565" lon="-2.34254">
        <ele>42</ele>
        <time>2014-06-10T09:21:11Z</time>
      </trkpt>
      <trkpt lat="48.66567" lon="-2.34252">
        <ele>42</ele>
        <time>2014-06-10T09:21:13Z</time>
      </trkpt>
      <trkpt lat="48.66569" lon="-2.3425">
        <ele>42</ele>
        <time>2014-06-10T09:21:15Z</time>
      </trkpt>
      <trkpt lat="48.66571" lon="-2.34249">
        <ele>42</ele>
        <time>2014-06-10T09:21:17Z</time>
      </trkpt>
      <trkpt lat="48.66574" lon="-2.34247">
        <ele>42</ele>
        <time>2014-06-10T09:21:19Z</time>
      </trkpt>
      <trkpt lat="48.66576" lon="-2.34246">
        <ele>42</ele>
        <time>2014-06-10T09:21:21Z</time>
      </trkpt>
      <trkpt lat="48.66579" lon="-2.34245">
        <ele>42</ele>
        <time>2014-06-10T09:21:23Z</time>
      </trkpt>
      <trkpt lat="48.66581" lon="-2.34244">
        <ele>42</ele>
        <time>2014-06-10T09:21:25Z</time>
      </trkpt>
      <trkpt lat="48.66584" lon="-2.34243">
        <ele>42</ele>
        <time>2014-06-10T09:21:27Z</time>
      </trkpt>
      <trkpt lat="48.66586" lon="-2.34242">
        <ele>42</ele>
        <time>2014-06-10T09:21:29Z</time>
      </trkpt>
      <trkpt lat="48.66589" lon="-2.34241">
        <ele>42</ele>
        <time>2014-06-10T09:21:31Z</time>
      </trkpt>
      <trkpt lat="48.66591" lon="-2.34242">
        <ele>42</ele>
        <time>2014-06-10T09:21:33Z</time>
      </trkpt>
      <trkpt lat="48.66593" lon="-2.34244">
        <ele>42</ele>
        <time>2014-06-10T09:21:35Z</time>
      </trkpt>
      <trkpt lat="48.66594" lon="-2.34245">
        <ele>42</ele>
        <time>2014-06-10T09:21:37Z</time>
      </trkpt>
      <trkpt lat="48.66596" lon="-2.34246">
        <ele>42</ele>
        <time>2014-06-10T09:21:39Z</time>
      </trkpt>
      <trkpt lat="48.66599" lon="-2.34246">
        <ele>42</ele>
        <time>2014-06-10T09:21:41Z</time>
      </trkpt>
      <trkpt lat="48.66601" lon="-2.34246">
        <ele>42</ele>
        <time>2014-06-10T09:21:43Z</time>
      </trkpt>
      <trkpt lat="48.66603" lon="-2.34245">
        <ele>42</ele>
        <time>2014-06-10T09:21:45Z</time>
      </trkpt>
      <trkpt lat="48.66604" lon="-2.34244">
        <ele>42</ele>
        <time>2014-06-10T09:21:48Z</time>
      </trkpt>
      <trkpt lat="48.66605" lon="-2.34242">
        <ele>42</ele>
        <time>2014-06-10T09:22:07Z</time>
      </trkpt>
      <trkpt lat="48.66607" lon="-2.3424">
        <ele>42</ele>
        <time>2014-06-10T09:22:09Z</time>
      </trkpt>
      <trkpt lat="48.66608" lon="-2.34239">
        <ele>42</ele>
        <time>2014-06-10T09:22:11Z</time>
      </trkpt>
      <trkpt lat="48.66609" lon="-2.34238">
        <ele>42</ele>
        <time>2014-06-10T09:22:14Z</time>
      </trkpt>
      <trkpt lat="48.6661" lon="-2.34235">
        <ele>42</ele>
        <time>2014-06-10T09:22:16Z</time>
      </trkpt>
      <trkpt lat="48.66613" lon="-2.34234">
        <ele>42</ele>
        <time>2014-06-10T09:22:18Z</time>
      </trkpt>
      <trkpt lat="48.66615" lon="-2.34233">
        <ele>42</ele>
        <time>2014-06-10T09:22:21Z</time>
      </trkpt>
      <trkpt lat="48.66616" lon="-2.34234">
        <ele>42</ele>
        <time>2014-06-10T09:22:46Z</time>
      </trkpt>
      <trkpt lat="48.66618" lon="-2.34232">
        <ele>42</ele>
        <time>2014-06-10T09:22:49Z</time>
      </trkpt>
      <trkpt lat="48.66621" lon="-2.34232">
        <ele>42</ele>
        <time>2014-06-10T09:22:51Z</time>
      </trkpt>
      <trkpt lat="48.66623" lon="-2.34231">
        <ele>42</ele>
        <time>2014-06-10T09:22:53Z</time>
      </trkpt>
      <trkpt lat="48.66626" lon="-2.3423">
        <ele>42</ele>
        <time>2014-06-10T09:22:55Z</time>
      </trkpt>
      <trkpt lat="48.66628" lon="-2.34229">
        <ele>42</ele>
        <time>2014-06-10T09:22:57Z</time>
      </trkpt>
      <trkpt lat="48.6663" lon="-2.34227">
        <ele>42</ele>
        <time>2014-06-10T09:22:59Z</time>
      </trkpt>
      <trkpt lat="48.66633" lon="-2.34225">
        <ele>42</ele>
        <time>2014-06-10T09:23:02Z</time>
      </trkpt>
      <trkpt lat="48.66636" lon="-2.34224">
        <ele>42</ele>
        <time>2014-06-10T09:23:04Z</time>
      </trkpt>
      <trkpt lat="48.66638" lon="-2.34224">
        <ele>42</ele>
        <time>2014-06-10T09:23:06Z</time>
      </trkpt>
      <trkpt lat="48.6664" lon="-2.34224">
        <ele>42</ele>
        <time>2014-06-10T09:23:08Z</time>
      </trkpt>
      <trkpt lat="48.66643" lon="-2.34225">
        <ele>42</ele>
        <time>2014-06-10T09:23:10Z</time>
      </trkpt>
      <trkpt lat="48.66646" lon="-2.34224">
        <ele>42</ele>
        <time>2014-06-10T09:23:12Z</time>
      </trkpt>
      <trkpt lat="48.66648" lon="-2.34225">
        <ele>42</ele>
        <time>2014-06-10T09:23:14Z</time>
      </trkpt>
      <trkpt lat="48.66652" lon="-2.34224">
        <ele>42</ele>
        <time>2014-06-10T09:23:16Z</time>
      </trkpt>
      <trkpt lat="48.66654" lon="-2.34223">
        <ele>42</ele>
        <time>2014-06-10T09:23:18Z</time>
      </trkpt>
      <trkpt lat="48.66657" lon="-2.34223">
        <ele>42</ele>
        <time>2014-06-10T09:23:20Z</time>
      </trkpt>
      <trkpt lat="48.66658" lon="-2.34223">
        <ele>42</ele>
        <time>2014-06-10T09:23:22Z</time>
      </trkpt>
      <trkpt lat="48.6666" lon="-2.34223">
        <ele>42</ele>
        <time>2014-06-10T09:23:32Z</time>
      </trkpt>
      <trkpt lat="48.66661" lon="-2.34223">
        <ele>42</ele>
        <time>2014-06-10T09:23:34Z</time>
      </trkpt>
      <trkpt lat="48.66664" lon="-2.34224">
        <ele>42</ele>
        <time>2014-06-10T09:23:36Z</time>
      </trkpt>
      <trkpt lat="48.66666" lon="-2.34225">
        <ele>42</ele>
        <time>2014-06-10T09:23:38Z</time>
      </trkpt>
      <trkpt lat="48.66669" lon="-2.34226">
        <ele>42</ele>
        <time>2014-06-10T09:23:40Z</time>
      </trkpt>
      <trkpt lat="48.66671" lon="-2.34228">
        <ele>43</ele>
        <time>2014-06-10T09:23:42Z</time>
      </trkpt>
      <trkpt lat="48.66675" lon="-2.3423">
        <ele>43</ele>
        <time>2014-06-10T09:23:45Z</time>
      </trkpt>
      <trkpt lat="48.66677" lon="-2.34229">
        <ele>44</ele>
        <time>2014-06-10T09:23:47Z</time>
      </trkpt>
      <trkpt lat="48.6668" lon="-2.34227">
        <ele>44</ele>
        <time>2014-06-10T09:23:49Z</time>
      </trkpt>
      <trkpt lat="48.66682" lon="-2.34225">
        <ele>44</ele>
        <time>2014-06-10T09:23:52Z</time>
      </trkpt>
      <trkpt lat="48.66684" lon="-2.34224">
        <ele>44</ele>
        <time>2014-06-10T09:23:54Z</time>
      </trkpt>
      <trkpt lat="48.66686" lon="-2.34223">
        <ele>44</ele>
        <time>2014-06-10T09:23:56Z</time>
      </trkpt>
      <trkpt lat="48.66687" lon="-2.34221">
        <ele>44</ele>
        <time>2014-06-10T09:23:58Z</time>
      </trkpt>
      <trkpt lat="48.66688" lon="-2.34219">
        <ele>44</ele>
        <time>2014-06-10T09:24:00Z</time>
      </trkpt>
      <trkpt lat="48.66689" lon="-2.34217">
        <ele>44</ele>
        <time>2014-06-10T09:24:12Z</time>
      </trkpt>
      <trkpt lat="48.66691" lon="-2.34213">
        <ele>44</ele>
        <time>2014-06-10T09:24:14Z</time>
      </trkpt>
      <trkpt lat="48.66692" lon="-2.34209">
        <ele>44</ele>
        <time>2014-06-10T09:24:16Z</time>
      </trkpt>
      <trkpt lat="48.66694" lon="-2.34207">
        <ele>44</ele>
        <time>2014-06-10T09:24:18Z</time>
      </trkpt>
      <trkpt lat="48.66696" lon="-2.34204">
        <ele>44</ele>
        <time>2014-06-10T09:24:20Z</time>
      </trkpt>
      <trkpt lat="48.66698" lon="-2.34201">
        <ele>44</ele>
        <time>2014-06-10T09:24:22Z</time>
      </trkpt>
      <trkpt lat="48.667" lon="-2.34198">
        <ele>44</ele>
        <time>2014-06-10T09:24:24Z</time>
      </trkpt>
      <trkpt lat="48.66702" lon="-2.34196">
        <ele>44</ele>
        <time>2014-06-10T09:24:26Z</time>
      </trkpt>
      <trkpt lat="48.66703" lon="-2.34194">
        <ele>44</ele>
        <time>2014-06-10T09:24:28Z</time>
      </trkpt>
      <trkpt lat="48.66704" lon="-2.34191">
        <ele>44</ele>
        <time>2014-06-10T09:24:30Z</time>
      </trkpt>
      <trkpt lat="48.66706" lon="-2.34188">
        <ele>44</ele>
        <time>2014-06-10T09:24:32Z</time>
      </trkpt>
      <trkpt lat="48.66707" lon="-2.34185">
        <ele>44</ele>
        <time>2014-06-10T09:24:34Z</time>
      </trkpt>
      <trkpt lat="48.66709" lon="-2.34181">
        <ele>44</ele>
        <time>2014-06-10T09:24:36Z</time>
      </trkpt>
      <trkpt lat="48.66709" lon="-2.34177">
        <ele>44</ele>
        <time>2014-06-10T09:24:38Z</time>
      </trkpt>
      <trkpt lat="48.6671" lon="-2.34173">
        <ele>44</ele>
        <time>2014-06-10T09:24:40Z</time>
      </trkpt>
      <trkpt lat="48.6671" lon="-2.34169">
        <ele>44</ele>
        <time>2014-06-10T09:24:42Z</time>
      </trkpt>
      <trkpt lat="48.6671" lon="-2.34164">
        <ele>44</ele>
        <time>2014-06-10T09:24:44Z</time>
      </trkpt>
      <trkpt lat="48.66711" lon="-2.34159">
        <ele>44</ele>
        <time>2014-06-10T09:24:46Z</time>
      </trkpt>
      <trkpt lat="48.66711" lon="-2.34155">
        <ele>44</ele>
        <time>2014-06-10T09:24:48Z</time>
      </trkpt>
      <trkpt lat="48.66711" lon="-2.3415">
        <ele>44</ele>
        <time>2014-06-10T09:24:50Z</time>
      </trkpt>
      <trkpt lat="48.66712" lon="-2.34146">
        <ele>44</ele>
        <time>2014-06-10T09:24:52Z</time>
      </trkpt>
      <trkpt lat="48.66711" lon="-2.34142">
        <ele>44</ele>
        <time>2014-06-10T09:24:54Z</time>
      </trkpt>
      <trkpt lat="48.66711" lon="-2.34138">
        <ele>44</ele>
        <time>2014-06-10T09:24:56Z</time>
      </trkpt>
      <trkpt lat="48.6671" lon="-2.34134">
        <ele>44</ele>
        <time>2014-06-10T09:24:58Z</time>
      </trkpt>
      <trkpt lat="48.66709" lon="-2.3413">
        <ele>44</ele>
        <time>2014-06-10T09:25:00Z</time>
      </trkpt>
      <trkpt lat="48.66709" lon="-2.34127">
        <ele>44</ele>
        <time>2014-06-10T09:25:02Z</time>
      </trkpt>
      <trkpt lat="48.66709" lon="-2.34123">
        <ele>44</ele>
        <time>2014-06-10T09:25:04Z</time>
      </trkpt>
      <trkpt lat="48.66707" lon="-2.34118">
        <ele>44</ele>
        <time>2014-06-10T09:25:07Z</time>
      </trkpt>
      <trkpt lat="48.66705" lon="-2.34115">
        <ele>44</ele>
        <time>2014-06-10T09:25:09Z</time>
      </trkpt>
      <trkpt lat="48.66703" lon="-2.34111">
        <ele>44</ele>
        <time>2014-06-10T09:25:11Z</time>
      </trkpt>
      <trkpt lat="48.66702" lon="-2.34107">
        <ele>44</ele>
        <time>2014-06-10T09:25:13Z</time>
      </trkpt>
      <trkpt lat="48.66701" lon="-2.34103">
        <ele>44</ele>
        <time>2014-06-10T09:25:15Z</time>
      </trkpt>
      <trkpt lat="48.667" lon="-2.34097">
        <ele>44</ele>
        <time>2014-06-10T09:25:17Z</time>
      </trkpt>
      <trkpt lat="48.66699" lon="-2.34093">
        <ele>44</ele>
        <time>2014-06-10T09:25:19Z</time>
      </trkpt>
      <trkpt lat="48.66699" lon="-2.34089">
        <ele>44</ele>
        <time>2014-06-10T09:25:21Z</time>
      </trkpt>
      <trkpt lat="48.66701" lon="-2.34085">
        <ele>44</ele>
        <time>2014-06-10T09:25:23Z</time>
      </trkpt>
      <trkpt lat="48.66702" lon="-2.34082">
        <ele>44</ele>
        <time>2014-06-10T09:25:25Z</time>
      </trkpt>
      <trkpt lat="48.66705" lon="-2.34077">
        <ele>44</ele>
        <time>2014-06-10T09:25:28Z</time>
      </trkpt>
      <trkpt lat="48.66706" lon="-2.34074">
        <ele>44</ele>
        <time>2014-06-10T09:25:30Z</time>
      </trkpt>
      <trkpt lat="48.66708" lon="-2.34072">
        <ele>44</ele>
        <time>2014-06-10T09:25:32Z</time>
      </trkpt>
      <trkpt lat="48.66711" lon="-2.3407">
        <ele>44</ele>
        <time>2014-06-10T09:25:34Z</time>
      </trkpt>
      <trkpt lat="48.66713" lon="-2.34069">
        <ele>44</ele>
        <time>2014-06-10T09:25:36Z</time>
      </trkpt>
      <trkpt lat="48.66715" lon="-2.34067">
        <ele>44</ele>
        <time>2014-06-10T09:25:38Z</time>
      </trkpt>
      <trkpt lat="48.66718" lon="-2.34066">
        <ele>44</ele>
        <time>2014-06-10T09:25:40Z</time>
      </trkpt>
      <trkpt lat="48.6672" lon="-2.34064">
        <ele>44</ele>
        <time>2014-06-10T09:25:42Z</time>
      </trkpt>
      <trkpt lat="48.66722" lon="-2.34063">
        <ele>44</ele>
        <time>2014-06-10T09:25:44Z</time>
      </trkpt>
      <trkpt lat="48.66725" lon="-2.3406">
        <ele>44</ele>
        <time>2014-06-10T09:25:47Z</time>
      </trkpt>
      <trkpt lat="48.66728" lon="-2.34059">
        <ele>44</ele>
        <time>2014-06-10T09:25:49Z</time>
      </trkpt>
      <trkpt lat="48.6673" lon="-2.34058">
        <ele>44</ele>
        <time>2014-06-10T09:25:51Z</time>
      </trkpt>
      <trkpt lat="48.66733" lon="-2.34057">
        <ele>44</ele>
        <time>2014-06-10T09:25:53Z</time>
      </trkpt>
      <trkpt lat="48.66735" lon="-2.34056">
        <ele>44</ele>
        <time>2014-06-10T09:25:55Z</time>
      </trkpt>
      <trkpt lat="48.66738" lon="-2.34054">
        <ele>44</ele>
        <time>2014-06-10T09:25:57Z</time>
      </trkpt>
      <trkpt lat="48.66741" lon="-2.34053">
        <ele>44</ele>
        <time>2014-06-10T09:25:59Z</time>
      </trkpt>
      <trkpt lat="48.66743" lon="-2.34052">
        <ele>44</ele>
        <time>2014-06-10T09:26:01Z</time>
      </trkpt>
      <trkpt lat="48.66746" lon="-2.34051">
        <ele>44</ele>
        <time>2014-06-10T09:26:03Z</time>
      </trkpt>
      <trkpt lat="48.66749" lon="-2.3405">
        <ele>44</ele>
        <time>2014-06-10T09:26:05Z</time>
      </trkpt>
      <trkpt lat="48.66752" lon="-2.3405">
        <ele>44</ele>
        <time>2014-06-10T09:26:07Z</time>
      </trkpt>
      <trkpt lat="48.66755" lon="-2.34049">
        <ele>44</ele>
        <time>2014-06-10T09:26:09Z</time>
      </trkpt>
      <trkpt lat="48.66757" lon="-2.34048">
        <ele>44</ele>
        <time>2014-06-10T09:26:11Z</time>
      </trkpt>
      <trkpt lat="48.6676" lon="-2.34047">
        <ele>44</ele>
        <time>2014-06-10T09:26:13Z</time>
      </trkpt>
      <trkpt lat="48.66763" lon="-2.34046">
        <ele>44</ele>
        <time>2014-06-10T09:26:15Z</time>
      </trkpt>
      <trkpt lat="48.66765" lon="-2.34044">
        <ele>44</ele>
        <time>2014-06-10T09:26:17Z</time>
      </trkpt>
      <trkpt lat="48.66768" lon="-2.34043">
        <ele>44</ele>
        <time>2014-06-10T09:26:19Z</time>
      </trkpt>
      <trkpt lat="48.66771" lon="-2.34043">
        <ele>44</ele>
        <time>2014-06-10T09:26:21Z</time>
      </trkpt>
      <trkpt lat="48.66774" lon="-2.34043">
        <ele>44</ele>
        <time>2014-06-10T09:26:23Z</time>
      </trkpt>
      <trkpt lat="48.66776" lon="-2.34042">
        <ele>44</ele>
        <time>2014-06-10T09:26:25Z</time>
      </trkpt>
      <trkpt lat="48.66779" lon="-2.34042">
        <ele>44</ele>
        <time>2014-06-10T09:26:27Z</time>
      </trkpt>
      <trkpt lat="48.66782" lon="-2.34041">
        <ele>44</ele>
        <time>2014-06-10T09:26:29Z</time>
      </trkpt>
      <trkpt lat="48.66785" lon="-2.34041">
        <ele>44</ele>
        <time>2014-06-10T09:26:31Z</time>
      </trkpt>
      <trkpt lat="48.66788" lon="-2.34041">
        <ele>44</ele>
        <time>2014-06-10T09:26:33Z</time>
      </trkpt>
      <trkpt lat="48.66791" lon="-2.3404">
        <ele>44</ele>
        <time>2014-06-10T09:26:35Z</time>
      </trkpt>
      <trkpt lat="48.66793" lon="-2.34039">
        <ele>44</ele>
        <time>2014-06-10T09:26:37Z</time>
      </trkpt>
      <trkpt lat="48.66796" lon="-2.34038">
        <ele>44</ele>
        <time>2014-06-10T09:26:39Z</time>
      </trkpt>
      <trkpt lat="48.66799" lon="-2.34034">
        <ele>44</ele>
        <time>2014-06-10T09:26:42Z</time>
      </trkpt>
      <trkpt lat="48.66801" lon="-2.34031">
        <ele>44</ele>
        <time>2014-06-10T09:26:44Z</time>
      </trkpt>
      <trkpt lat="48.66802" lon="-2.34028">
        <ele>44</ele>
        <time>2014-06-10T09:26:46Z</time>
      </trkpt>
      <trkpt lat="48.66804" lon="-2.34024">
        <ele>44</ele>
        <time>2014-06-10T09:26:48Z</time>
      </trkpt>
      <trkpt lat="48.66805" lon="-2.3402">
        <ele>44</ele>
        <time>2014-06-10T09:26:50Z</time>
      </trkpt>
      <trkpt lat="48.66806" lon="-2.34016">
        <ele>44</ele>
        <time>2014-06-10T09:26:52Z</time>
      </trkpt>
      <trkpt lat="48.66807" lon="-2.34013">
        <ele>44</ele>
        <time>2014-06-10T09:26:54Z</time>
      </trkpt>
      <trkpt lat="48.66808" lon="-2.34009">
        <ele>44</ele>
        <time>2014-06-10T09:26:56Z</time>
      </trkpt>
      <trkpt lat="48.6681" lon="-2.34005">
        <ele>44</ele>
        <time>2014-06-10T09:26:58Z</time>
      </trkpt>
      <trkpt lat="48.66811" lon="-2.34001">
        <ele>44</ele>
        <time>2014-06-10T09:27:00Z</time>
      </trkpt>
      <trkpt lat="48.66812" lon="-2.33998">
        <ele>44</ele>
        <time>2014-06-10T09:27:02Z</time>
      </trkpt>
      <trkpt lat="48.66812" lon="-2.33994">
        <ele>44</ele>
        <time>2014-06-10T09:27:04Z</time>
      </trkpt>
      <trkpt lat="48.66812" lon="-2.3399">
        <ele>44</ele>
        <time>2014-06-10T09:27:06Z</time>
      </trkpt>
      <trkpt lat="48.66812" lon="-2.33985">
        <ele>44</ele>
        <time>2014-06-10T09:27:08Z</time>
      </trkpt>
      <trkpt lat="48.66812" lon="-2.33981">
        <ele>44</ele>
        <time>2014-06-10T09:27:10Z</time>
      </trkpt>
      <trkpt lat="48.66812" lon="-2.33977">
        <ele>44</ele>
        <time>2014-06-10T09:27:12Z</time>
      </trkpt>
      <trkpt lat="48.66812" lon="-2.33973">
        <ele>44</ele>
        <time>2014-06-10T09:27:14Z</time>
      </trkpt>
      <trkpt lat="48.66812" lon="-2.33969">
        <ele>44</ele>
        <time>2014-06-10T09:27:16Z</time>
      </trkpt>
      <trkpt lat="48.66812" lon="-2.33965">
        <ele>44</ele>
        <time>2014-06-10T09:27:18Z</time>
      </trkpt>
      <trkpt lat="48.66812" lon="-2.33961">
        <ele>44</ele>
        <time>2014-06-10T09:27:20Z</time>
      </trkpt>
      <trkpt lat="48.66811" lon="-2.33956">
        <ele>44</ele>
        <time>2014-06-10T09:27:22Z</time>
      </trkpt>
      <trkpt lat="48.66812" lon="-2.33952">
        <ele>44</ele>
        <time>2014-06-10T09:27:24Z</time>
      </trkpt>
      <trkpt lat="48.66811" lon="-2.33948">
        <ele>44</ele>
        <time>2014-06-10T09:27:26Z</time>
      </trkpt>
      <trkpt lat="48.66812" lon="-2.33944">
        <ele>44</ele>
        <time>2014-06-10T09:27:28Z</time>
      </trkpt>
      <trkpt lat="48.66815" lon="-2.33939">
        <ele>44</ele>
        <time>2014-06-10T09:27:31Z</time>
      </trkpt>
      <trkpt lat="48.66818" lon="-2.33937">
        <ele>44</ele>
        <time>2014-06-10T09:27:33Z</time>
      </trkpt>
      <trkpt lat="48.66821" lon="-2.33933">
        <ele>44</ele>
        <time>2014-06-10T09:27:36Z</time>
      </trkpt>
      <trkpt lat="48.66823" lon="-2.3393">
        <ele>44</ele>
        <time>2014-06-10T09:27:38Z</time>
      </trkpt>
      <trkpt lat="48.66825" lon="-2.33927">
        <ele>44</ele>
        <time>2014-06-10T09:27:40Z</time>
      </trkpt>
      <trkpt lat="48.66827" lon="-2.33923">
        <ele>44</ele>
        <time>2014-06-10T09:27:42Z</time>
      </trkpt>
      <trkpt lat="48.66828" lon="-2.3392">
        <ele>44</ele>
        <time>2014-06-10T09:27:44Z</time>
      </trkpt>
      <trkpt lat="48.66829" lon="-2.33916">
        <ele>44</ele>
        <time>2014-06-10T09:27:46Z</time>
      </trkpt>
      <trkpt lat="48.6683" lon="-2.33912">
        <ele>44</ele>
        <time>2014-06-10T09:27:48Z</time>
      </trkpt>
      <trkpt lat="48.66831" lon="-2.33908">
        <ele>44</ele>
        <time>2014-06-10T09:27:50Z</time>
      </trkpt>
      <trkpt lat="48.66831" lon="-2.33904">
        <ele>44</ele>
        <time>2014-06-10T09:27:52Z</time>
      </trkpt>
      <trkpt lat="48.66831" lon="-2.339">
        <ele>44</ele>
        <time>2014-06-10T09:27:54Z</time>
      </trkpt>
      <trkpt lat="48.6683" lon="-2.33896">
        <ele>44</ele>
        <time>2014-06-10T09:27:56Z</time>
      </trkpt>
      <trkpt lat="48.66829" lon="-2.33892">
        <ele>44</ele>
        <time>2014-06-10T09:27:59Z</time>
      </trkpt>
      <trkpt lat="48.66827" lon="-2.3389">
        <ele>44</ele>
        <time>2014-06-10T09:28:01Z</time>
      </trkpt>
      <trkpt lat="48.66824" lon="-2.33889">
        <ele>44</ele>
        <time>2014-06-10T09:28:03Z</time>
      </trkpt>
      <trkpt lat="48.66822" lon="-2.33889">
        <ele>44</ele>
        <time>2014-06-10T09:28:05Z</time>
      </trkpt>
      <trkpt lat="48.6682" lon="-2.33889">
        <ele>44</ele>
        <time>2014-06-10T09:28:07Z</time>
      </trkpt>
      <trkpt lat="48.66817" lon="-2.33889">
        <ele>44</ele>
        <time>2014-06-10T09:28:09Z</time>
      </trkpt>
      <trkpt lat="48.66815" lon="-2.33889">
        <ele>44</ele>
        <time>2014-06-10T09:28:11Z</time>
      </trkpt>
      <trkpt lat="48.66813" lon="-2.33888">
        <ele>44</ele>
        <time>2014-06-10T09:28:13Z</time>
      </trkpt>
      <trkpt lat="48.66812" lon="-2.33889">
        <ele>44</ele>
        <time>2014-06-10T09:28:15Z</time>
      </trkpt>
      <trkpt lat="48.66809" lon="-2.33889">
        <ele>44</ele>
        <time>2014-06-10T09:28:17Z</time>
      </trkpt>
      <trkpt lat="48.66807" lon="-2.3389">
        <ele>44</ele>
        <time>2014-06-10T09:28:21Z</time>
      </trkpt>
      <trkpt lat="48.66804" lon="-2.3389">
        <ele>44</ele>
        <time>2014-06-10T09:28:23Z</time>
      </trkpt>
      <trkpt lat="48.66801" lon="-2.3389">
        <ele>43</ele>
        <time>2014-06-10T09:28:25Z</time>
      </trkpt>
      <trkpt lat="48.66799" lon="-2.33889">
        <ele>43</ele>
        <time>2014-06-10T09:28:27Z</time>
      </trkpt>
      <trkpt lat="48.66796" lon="-2.33888">
        <ele>43</ele>
        <time>2014-06-10T09:28:29Z</time>
      </trkpt>
      <trkpt lat="48.66794" lon="-2.33888">
        <ele>43</ele>
        <time>2014-06-10T09:28:31Z</time>
      </trkpt>
      <trkpt lat="48.66791" lon="-2.33888">
        <ele>43</ele>
        <time>2014-06-10T09:28:33Z</time>
      </trkpt>
      <trkpt lat="48.6679" lon="-2.33888">
        <ele>43</ele>
        <time>2014-06-10T09:28:35Z</time>
      </trkpt>
      <trkpt lat="48.66788" lon="-2.33888">
        <ele>43</ele>
        <time>2014-06-10T09:28:37Z</time>
      </trkpt>
      <trkpt lat="48.66785" lon="-2.33888">
        <ele>42</ele>
        <time>2014-06-10T09:28:39Z</time>
      </trkpt>
      <trkpt lat="48.66782" lon="-2.33888">
        <ele>42</ele>
        <time>2014-06-10T09:28:41Z</time>
      </trkpt>
      <trkpt lat="48.6678" lon="-2.33889">
        <ele>42</ele>
        <time>2014-06-10T09:28:43Z</time>
      </trkpt>
      <trkpt lat="48.66777" lon="-2.33888">
        <ele>42</ele>
        <time>2014-06-10T09:28:46Z</time>
      </trkpt>
      <trkpt lat="48.66776" lon="-2.33887">
        <ele>42</ele>
        <time>2014-06-10T09:29:04Z</time>
      </trkpt>
      <trkpt lat="48.66774" lon="-2.33887">
        <ele>42</ele>
        <time>2014-06-10T09:29:06Z</time>
      </trkpt>
      <trkpt lat="48.66771" lon="-2.33886">
        <ele>42</ele>
        <time>2014-06-10T09:29:09Z</time>
      </trkpt>
      <trkpt lat="48.66768" lon="-2.33886">
        <ele>42</ele>
        <time>2014-06-10T09:29:11Z</time>
      </trkpt>
      <trkpt lat="48.66766" lon="-2.33886">
        <ele>42</ele>
        <time>2014-06-10T09:29:13Z</time>
      </trkpt>
      <trkpt lat="48.66762" lon="-2.33885">
        <ele>42</ele>
        <time>2014-06-10T09:29:16Z</time>
      </trkpt>
      <trkpt lat="48.66761" lon="-2.33885">
        <ele>42</ele>
        <time>2014-06-10T09:29:18Z</time>
      </trkpt>
      <trkpt lat="48.6676" lon="-2.33885">
        <ele>42</ele>
        <time>2014-06-10T09:29:29Z</time>
      </trkpt>
      <trkpt lat="48.66758" lon="-2.33885">
        <ele>42</ele>
        <time>2014-06-10T09:29:31Z</time>
      </trkpt>
      <trkpt lat="48.66756" lon="-2.33884">
        <ele>43</ele>
        <time>2014-06-10T09:29:33Z</time>
      </trkpt>
      <trkpt lat="48.66755" lon="-2.33883">
        <ele>45</ele>
        <time>2014-06-10T09:29:35Z</time>
      </trkpt>
      <trkpt lat="48.66753" lon="-2.33882">
        <ele>48</ele>
        <time>2014-06-10T09:29:37Z</time>
      </trkpt>
      <trkpt lat="48.66752" lon="-2.33881">
        <ele>51</ele>
        <time>2014-06-10T09:29:39Z</time>
      </trkpt>
      <trkpt lat="48.66751" lon="-2.33881">
        <ele>55</ele>
        <time>2014-06-10T09:29:41Z</time>
      </trkpt>
      <trkpt lat="48.6675" lon="-2.3388">
        <ele>59</ele>
        <time>2014-06-10T09:29:44Z</time>
      </trkpt>
      <trkpt lat="48.66749" lon="-2.3388">
        <ele>63</ele>
        <time>2014-06-10T09:29:47Z</time>
      </trkpt>
      <trkpt lat="48.6675" lon="-2.3388">
        <ele>67</ele>
        <time>2014-06-10T09:29:51Z</time>
      </trkpt>
      <trkpt lat="48.66751" lon="-2.33881">
        <ele>70</ele>
        <time>2014-06-10T09:29:54Z</time>
      </trkpt>
      <trkpt lat="48.66752" lon="-2.33882">
        <ele>70</ele>
        <time>2014-06-10T09:29:57Z</time>
      </trkpt>
      <trkpt lat="48.66754" lon="-2.33882">
        <ele>70</ele>
        <time>2014-06-10T09:30:00Z</time>
      </trkpt>
      <trkpt lat="48.66755" lon="-2.33882">
        <ele>70</ele>
        <time>2014-06-10T09:30:06Z</time>
      </trkpt>
      <trkpt lat="48.66756" lon="-2.33882">
        <ele>65</ele>
        <time>2014-06-10T09:30:15Z</time>
      </trkpt>
      <trkpt lat="48.66756" lon="-2.33884">
        <ele>60</ele>
        <time>2014-06-10T09:30:22Z</time>
      </trkpt>
      <trkpt lat="48.66758" lon="-2.33885">
        <ele>52</ele>
        <time>2014-06-10T09:30:36Z</time>
      </trkpt>
      <trkpt lat="48.66759" lon="-2.33885">
        <ele>52</ele>
        <time>2014-06-10T09:30:38Z</time>
      </trkpt>
      <trkpt lat="48.6676" lon="-2.33885">
        <ele>51</ele>
        <time>2014-06-10T09:30:40Z</time>
      </trkpt>
      <trkpt lat="48.66761" lon="-2.33884">
        <ele>50</ele>
        <time>2014-06-10T09:30:42Z</time>
      </trkpt>
      <trkpt lat="48.66761" lon="-2.33886">
        <ele>48</ele>
        <time>2014-06-10T09:30:50Z</time>
      </trkpt>
      <trkpt lat="48.66761" lon="-2.33883">
        <ele>45</ele>
        <time>2014-06-10T09:31:08Z</time>
      </trkpt>
      <trkpt lat="48.66759" lon="-2.33883">
        <ele>45</ele>
        <time>2014-06-10T09:31:10Z</time>
      </trkpt>
      <trkpt lat="48.66759" lon="-2.33885">
        <ele>45</ele>
        <time>2014-06-10T09:31:24Z</time>
      </trkpt>
      <trkpt lat="48.66758" lon="-2.33886">
        <ele>45</ele>
        <time>2014-06-10T09:31:49Z</time>
      </trkpt>
      <trkpt lat="48.66755" lon="-2.33885">
        <ele>45</ele>
        <time>2014-06-10T09:31:51Z</time>
      </trkpt>
      <trkpt lat="48.66752" lon="-2.33885">
        <ele>45</ele>
        <time>2014-06-10T09:31:53Z</time>
      </trkpt>
      <trkpt lat="48.6675" lon="-2.33885">
        <ele>45</ele>
        <time>2014-06-10T09:31:55Z</time>
      </trkpt>
      <trkpt lat="48.66747" lon="-2.33886">
        <ele>45</ele>
        <time>2014-06-10T09:31:57Z</time>
      </trkpt>
      <trkpt lat="48.66744" lon="-2.33886">
        <ele>45</ele>
        <time>2014-06-10T09:31:59Z</time>
      </trkpt>
      <trkpt lat="48.66741" lon="-2.33886">
        <ele>45</ele>
        <time>2014-06-10T09:32:01Z</time>
      </trkpt>
      <trkpt lat="48.66739" lon="-2.33886">
        <ele>45</ele>
        <time>2014-06-10T09:32:03Z</time>
      </trkpt>
      <trkpt lat="48.66736" lon="-2.33885">
        <ele>45</ele>
        <time>2014-06-10T09:32:05Z</time>
      </trkpt>
      <trkpt lat="48.66733" lon="-2.33884">
        <ele>45</ele>
        <time>2014-06-10T09:32:07Z</time>
      </trkpt>
      <trkpt lat="48.6673" lon="-2.33884">
        <ele>44</ele>
        <time>2014-06-10T09:32:09Z</time>
      </trkpt>
      <trkpt lat="48.66727" lon="-2.33884">
        <ele>44</ele>
        <time>2014-06-10T09:32:11Z</time>
      </trkpt>
      <trkpt lat="48.66725" lon="-2.33883">
        <ele>44</ele>
        <time>2014-06-10T09:32:13Z</time>
      </trkpt>
      <trkpt lat="48.66723" lon="-2.33879">
        <ele>44</ele>
        <time>2014-06-10T09:32:15Z</time>
      </trkpt>
      <trkpt lat="48.66722" lon="-2.33875">
        <ele>44</ele>
        <time>2014-06-10T09:32:17Z</time>
      </trkpt>
      <trkpt lat="48.66721" lon="-2.33871">
        <ele>44</ele>
        <time>2014-06-10T09:32:19Z</time>
      </trkpt>
      <trkpt lat="48.66718" lon="-2.33867">
        <ele>44</ele>
        <time>2014-06-10T09:32:22Z</time>
      </trkpt>
      <trkpt lat="48.66716" lon="-2.33863">
        <ele>44</ele>
        <time>2014-06-10T09:32:24Z</time>
      </trkpt>
      <trkpt lat="48.66714" lon="-2.3386">
        <ele>43</ele>
        <time>2014-06-10T09:32:26Z</time>
      </trkpt>
      <trkpt lat="48.66713" lon="-2.33856">
        <ele>43</ele>
        <time>2014-06-10T09:32:28Z</time>
      </trkpt>
      <trkpt lat="48.66711" lon="-2.33852">
        <ele>43</ele>
        <time>2014-06-10T09:32:30Z</time>
      </trkpt>
      <trkpt lat="48.6671" lon="-2.33847">
        <ele>43</ele>
        <time>2014-06-10T09:32:32Z</time>
      </trkpt>
      <trkpt lat="48.66708" lon="-2.33843">
        <ele>43</ele>
        <time>2014-06-10T09:32:35Z</time>
      </trkpt>
      <trkpt lat="48.66706" lon="-2.33842">
        <ele>43</ele>
        <time>2014-06-10T09:32:37Z</time>
      </trkpt>
      <trkpt lat="48.66705" lon="-2.3384">
        <ele>43</ele>
        <time>2014-06-10T09:32:39Z</time>
      </trkpt>
      <trkpt lat="48.66705" lon="-2.33836">
        <ele>43</ele>
        <time>2014-06-10T09:32:41Z</time>
      </trkpt>
      <trkpt lat="48.66706" lon="-2.33831">
        <ele>43</ele>
        <time>2014-06-10T09:32:43Z</time>
      </trkpt>
      <trkpt lat="48.66707" lon="-2.33827">
        <ele>43</ele>
        <time>2014-06-10T09:32:45Z</time>
      </trkpt>
      <trkpt lat="48.66709" lon="-2.33823">
        <ele>43</ele>
        <time>2014-06-10T09:32:47Z</time>
      </trkpt>
      <trkpt lat="48.6671" lon="-2.33819">
        <ele>43</ele>
        <time>2014-06-10T09:32:49Z</time>
      </trkpt>
      <trkpt lat="48.66711" lon="-2.33815">
        <ele>43</ele>
        <time>2014-06-10T09:32:51Z</time>
      </trkpt>
      <trkpt lat="48.66712" lon="-2.3381">
        <ele>43</ele>
        <time>2014-06-10T09:32:53Z</time>
      </trkpt>
      <trkpt lat="48.66713" lon="-2.33806">
        <ele>43</ele>
        <time>2014-06-10T09:32:55Z</time>
      </trkpt>
      <trkpt lat="48.66714" lon="-2.33802">
        <ele>43</ele>
        <time>2014-06-10T09:32:57Z</time>
      </trkpt>
      <trkpt lat="48.66715" lon="-2.33799">
        <ele>43</ele>
        <time>2014-06-10T09:32:59Z</time>
      </trkpt>
      <trkpt lat="48.66716" lon="-2.33795">
        <ele>43</ele>
        <time>2014-06-10T09:33:01Z</time>
      </trkpt>
      <trkpt lat="48.66717" lon="-2.33791">
        <ele>43</ele>
        <time>2014-06-10T09:33:03Z</time>
      </trkpt>
      <trkpt lat="48.66719" lon="-2.33787">
        <ele>43</ele>
        <time>2014-06-10T09:33:05Z</time>
      </trkpt>
      <trkpt lat="48.6672" lon="-2.33783">
        <ele>43</ele>
        <time>2014-06-10T09:33:07Z</time>
      </trkpt>
      <trkpt lat="48.66721" lon="-2.3378">
        <ele>43</ele>
        <time>2014-06-10T09:33:09Z</time>
      </trkpt>
      <trkpt lat="48.66722" lon="-2.33775">
        <ele>42</ele>
        <time>2014-06-10T09:33:11Z</time>
      </trkpt>
      <trkpt lat="48.66723" lon="-2.33772">
        <ele>42</ele>
        <time>2014-06-10T09:33:13Z</time>
      </trkpt>
      <trkpt lat="48.66725" lon="-2.33768">
        <ele>42</ele>
        <time>2014-06-10T09:33:15Z</time>
      </trkpt>
      <trkpt lat="48.66726" lon="-2.33765">
        <ele>42</ele>
        <time>2014-06-10T09:33:17Z</time>
      </trkpt>
      <trkpt lat="48.66727" lon="-2.33761">
        <ele>42</ele>
        <time>2014-06-10T09:33:19Z</time>
      </trkpt>
      <trkpt lat="48.66729" lon="-2.33757">
        <ele>42</ele>
        <time>2014-06-10T09:33:21Z</time>
      </trkpt>
      <trkpt lat="48.6673" lon="-2.33754">
        <ele>42</ele>
        <time>2014-06-10T09:33:23Z</time>
      </trkpt>
      <trkpt lat="48.66732" lon="-2.3375">
        <ele>42</ele>
        <time>2014-06-10T09:33:25Z</time>
      </trkpt>
      <trkpt lat="48.66734" lon="-2.33748">
        <ele>42</ele>
        <time>2014-06-10T09:33:27Z</time>
      </trkpt>
      <trkpt lat="48.66737" lon="-2.33747">
        <ele>42</ele>
        <time>2014-06-10T09:33:29Z</time>
      </trkpt>
      <trkpt lat="48.6674" lon="-2.33746">
        <ele>42</ele>
        <time>2014-06-10T09:33:31Z</time>
      </trkpt>
      <trkpt lat="48.66742" lon="-2.33745">
        <ele>42</ele>
        <time>2014-06-10T09:33:33Z</time>
      </trkpt>
      <trkpt lat="48.66745" lon="-2.33744">
        <ele>42</ele>
        <time>2014-06-10T09:33:35Z</time>
      </trkpt>
      <trkpt lat="48.66747" lon="-2.33742">
        <ele>42</ele>
        <time>2014-06-10T09:33:37Z</time>
      </trkpt>
      <trkpt lat="48.6675" lon="-2.3374">
        <ele>42</ele>
        <time>2014-06-10T09:33:39Z</time>
      </trkpt>
      <trkpt lat="48.66752" lon="-2.33739">
        <ele>42</ele>
        <time>2014-06-10T09:33:41Z</time>
      </trkpt>
      <trkpt lat="48.66754" lon="-2.33738">
        <ele>42</ele>
        <time>2014-06-10T09:33:43Z</time>
      </trkpt>
      <trkpt lat="48.66757" lon="-2.33737">
        <ele>42</ele>
        <time>2014-06-10T09:33:45Z</time>
      </trkpt>
      <trkpt lat="48.6676" lon="-2.33737">
        <ele>42</ele>
        <time>2014-06-10T09:33:47Z</time>
      </trkpt>
      <trkpt lat="48.66763" lon="-2.33737">
        <ele>42</ele>
        <time>2014-06-10T09:33:49Z</time>
      </trkpt>
      <trkpt lat="48.66766" lon="-2.33738">
        <ele>42</ele>
        <time>2014-06-10T09:33:51Z</time>
      </trkpt>
      <trkpt lat="48.66768" lon="-2.33739">
        <ele>42</ele>
        <time>2014-06-10T09:33:53Z</time>
      </trkpt>
      <trkpt lat="48.66771" lon="-2.3374">
        <ele>42</ele>
        <time>2014-06-10T09:33:55Z</time>
      </trkpt>
      <trkpt lat="48.66774" lon="-2.33741">
        <ele>42</ele>
        <time>2014-06-10T09:33:57Z</time>
      </trkpt>
      <trkpt lat="48.66776" lon="-2.33742">
        <ele>42</ele>
        <time>2014-06-10T09:33:59Z</time>
      </trkpt>
      <trkpt lat="48.66779" lon="-2.33743">
        <ele>42</ele>
        <time>2014-06-10T09:34:01Z</time>
      </trkpt>
      <trkpt lat="48.66782" lon="-2.33744">
        <ele>42</ele>
        <time>2014-06-10T09:34:03Z</time>
      </trkpt>
      <trkpt lat="48.66784" lon="-2.33743">
        <ele>42</ele>
        <time>2014-06-10T09:34:05Z</time>
      </trkpt>
      <trkpt lat="48.66786" lon="-2.33741">
        <ele>42</ele>
        <time>2014-06-10T09:34:07Z</time>
      </trkpt>
      <trkpt lat="48.66788" lon="-2.33738">
        <ele>42</ele>
        <time>2014-06-10T09:34:09Z</time>
      </trkpt>
      <trkpt lat="48.6679" lon="-2.33735">
        <ele>42</ele>
        <time>2014-06-10T09:34:11Z</time>
      </trkpt>
      <trkpt lat="48.66791" lon="-2.33731">
        <ele>42</ele>
        <time>2014-06-10T09:34:13Z</time>
      </trkpt>
      <trkpt lat="48.66792" lon="-2.33727">
        <ele>42</ele>
        <time>2014-06-10T09:34:15Z</time>
      </trkpt>
      <trkpt lat="48.66792" lon="-2.33723">
        <ele>42</ele>
        <time>2014-06-10T09:34:17Z</time>
      </trkpt>
      <trkpt lat="48.66794" lon="-2.3372">
        <ele>42</ele>
        <time>2014-06-10T09:34:19Z</time>
      </trkpt>
      <trkpt lat="48.66796" lon="-2.33716">
        <ele>42</ele>
        <time>2014-06-10T09:34:21Z</time>
      </trkpt>
      <trkpt lat="48.66797" lon="-2.33713">
        <ele>42</ele>
        <time>2014-06-10T09:34:23Z</time>
      </trkpt>
      <trkpt lat="48.66798" lon="-2.33709">
        <ele>42</ele>
        <time>2014-06-10T09:34:25Z</time>
      </trkpt>
      <trkpt lat="48.668" lon="-2.33705">
        <ele>42</ele>
        <time>2014-06-10T09:34:27Z</time>
      </trkpt>
      <trkpt lat="48.66802" lon="-2.33702">
        <ele>42</ele>
        <time>2014-06-10T09:34:29Z</time>
      </trkpt>
      <trkpt lat="48.66804" lon="-2.33699">
        <ele>42</ele>
        <time>2014-06-10T09:34:31Z</time>
      </trkpt>
      <trkpt lat="48.66806" lon="-2.33696">
        <ele>42</ele>
        <time>2014-06-10T09:34:33Z</time>
      </trkpt>
      <trkpt lat="48.66808" lon="-2.33693">
        <ele>42</ele>
        <time>2014-06-10T09:34:35Z</time>
      </trkpt>
      <trkpt lat="48.6681" lon="-2.3369">
        <ele>42</ele>
        <time>2014-06-10T09:34:37Z</time>
      </trkpt>
      <trkpt lat="48.66811" lon="-2.33686">
        <ele>42</ele>
        <time>2014-06-10T09:34:39Z</time>
      </trkpt>
      <trkpt lat="48.66812" lon="-2.33682">
        <ele>42</ele>
        <time>2014-06-10T09:34:41Z</time>
      </trkpt>
      <trkpt lat="48.66814" lon="-2.33679">
        <ele>42</ele>
        <time>2014-06-10T09:34:43Z</time>
      </trkpt>
      <trkpt lat="48.66815" lon="-2.33675">
        <ele>42</ele>
        <time>2014-06-10T09:34:45Z</time>
      </trkpt>
      <trkpt lat="48.66817" lon="-2.33672">
        <ele>42</ele>
        <time>2014-06-10T09:34:47Z</time>
      </trkpt>
      <trkpt lat="48.66819" lon="-2.33668">
        <ele>42</ele>
        <time>2014-06-10T09:34:49Z</time>
      </trkpt>
      <trkpt lat="48.66821" lon="-2.33665">
        <ele>42</ele>
        <time>2014-06-10T09:34:51Z</time>
      </trkpt>
      <trkpt lat="48.66823" lon="-2.33661">
        <ele>42</ele>
        <time>2014-06-10T09:34:54Z</time>
      </trkpt>
      <trkpt lat="48.66825" lon="-2.33657">
        <ele>42</ele>
        <time>2014-06-10T09:34:56Z</time>
      </trkpt>
      <trkpt lat="48.66825" lon="-2.33653">
        <ele>42</ele>
        <time>2014-06-10T09:34:58Z</time>
      </trkpt>
      <trkpt lat="48.66826" lon="-2.3365">
        <ele>42</ele>
        <time>2014-06-10T09:35:00Z</time>
      </trkpt>
      <trkpt lat="48.66826" lon="-2.33646">
        <ele>42</ele>
        <time>2014-06-10T09:35:02Z</time>
      </trkpt>
      <trkpt lat="48.66826" lon="-2.33642">
        <ele>42</ele>
        <time>2014-06-10T09:35:04Z</time>
      </trkpt>
      <trkpt lat="48.66828" lon="-2.33637">
        <ele>42</ele>
        <time>2014-06-10T09:35:07Z</time>
      </trkpt>
      <trkpt lat="48.6683" lon="-2.33635">
        <ele>42</ele>
        <time>2014-06-10T09:35:09Z</time>
      </trkpt>
      <trkpt lat="48.66833" lon="-2.33634">
        <ele>42</ele>
        <time>2014-06-10T09:35:11Z</time>
      </trkpt>
      <trkpt lat="48.66835" lon="-2.33634">
        <ele>42</ele>
        <time>2014-06-10T09:35:13Z</time>
      </trkpt>
      <trkpt lat="48.66837" lon="-2.33632">
        <ele>42</ele>
        <time>2014-06-10T09:35:15Z</time>
      </trkpt>
      <trkpt lat="48.66838" lon="-2.33629">
        <ele>42</ele>
        <time>2014-06-10T09:35:17Z</time>
      </trkpt>
      <trkpt lat="48.6684" lon="-2.33626">
        <ele>42</ele>
        <time>2014-06-10T09:35:19Z</time>
      </trkpt>
      <trkpt lat="48.66842" lon="-2.33623">
        <ele>42</ele>
        <time>2014-06-10T09:35:21Z</time>
      </trkpt>
      <trkpt lat="48.66844" lon="-2.33618">
        <ele>42</ele>
        <time>2014-06-10T09:35:24Z</time>
      </trkpt>
      <trkpt lat="48.66846" lon="-2.33615">
        <ele>42</ele>
        <time>2014-06-10T09:35:26Z</time>
      </trkpt>
      <trkpt lat="48.66848" lon="-2.33612">
        <ele>42</ele>
        <time>2014-06-10T09:35:28Z</time>
      </trkpt>
      <trkpt lat="48.66852" lon="-2.33609">
        <ele>42</ele>
        <time>2014-06-10T09:35:31Z</time>
      </trkpt>
      <trkpt lat="48.66854" lon="-2.33606">
        <ele>42</ele>
        <time>2014-06-10T09:35:33Z</time>
      </trkpt>
      <trkpt lat="48.66855" lon="-2.33603">
        <ele>42</ele>
        <time>2014-06-10T09:35:35Z</time>
      </trkpt>
      <trkpt lat="48.66857" lon="-2.33599">
        <ele>42</ele>
        <time>2014-06-10T09:35:37Z</time>
      </trkpt>
      <trkpt lat="48.66859" lon="-2.33596">
        <ele>42</ele>
        <time>2014-06-10T09:35:39Z</time>
      </trkpt>
      <trkpt lat="48.66861" lon="-2.33593">
        <ele>42</ele>
        <time>2014-06-10T09:35:41Z</time>
      </trkpt>
      <trkpt lat="48.66862" lon="-2.3359">
        <ele>42</ele>
        <time>2014-06-10T09:35:43Z</time>
      </trkpt>
      <trkpt lat="48.66864" lon="-2.33586">
        <ele>42</ele>
        <time>2014-06-10T09:35:45Z</time>
      </trkpt>
      <trkpt lat="48.66866" lon="-2.33583">
        <ele>42</ele>
        <time>2014-06-10T09:35:47Z</time>
      </trkpt>
      <trkpt lat="48.66867" lon="-2.33579">
        <ele>42</ele>
        <time>2014-06-10T09:35:49Z</time>
      </trkpt>
      <trkpt lat="48.66869" lon="-2.33575">
        <ele>42</ele>
        <time>2014-06-10T09:35:52Z</time>
      </trkpt>
      <trkpt lat="48.66871" lon="-2.33572">
        <ele>42</ele>
        <time>2014-06-10T09:35:54Z</time>
      </trkpt>
      <trkpt lat="48.66873" lon="-2.33569">
        <ele>42</ele>
        <time>2014-06-10T09:35:56Z</time>
      </trkpt>
      <trkpt lat="48.66874" lon="-2.33565">
        <ele>42</ele>
        <time>2014-06-10T09:35:58Z</time>
      </trkpt>
      <trkpt lat="48.66876" lon="-2.3356">
        <ele>42</ele>
        <time>2014-06-10T09:36:01Z</time>
      </trkpt>
      <trkpt lat="48.66877" lon="-2.33557">
        <ele>42</ele>
        <time>2014-06-10T09:36:03Z</time>
      </trkpt>
      <trkpt lat="48.66879" lon="-2.33552">
        <ele>42</ele>
        <time>2014-06-10T09:36:06Z</time>
      </trkpt>
      <trkpt lat="48.66882" lon="-2.33548">
        <ele>42</ele>
        <time>2014-06-10T09:36:09Z</time>
      </trkpt>
      <trkpt lat="48.66885" lon="-2.33546">
        <ele>42</ele>
        <time>2014-06-10T09:36:11Z</time>
      </trkpt>
      <trkpt lat="48.66888" lon="-2.33546">
        <ele>42</ele>
        <time>2014-06-10T09:36:13Z</time>
      </trkpt>
      <trkpt lat="48.6689" lon="-2.33546">
        <ele>42</ele>
        <time>2014-06-10T09:36:15Z</time>
      </trkpt>
      <trkpt lat="48.66893" lon="-2.33547">
        <ele>42</ele>
        <time>2014-06-10T09:36:17Z</time>
      </trkpt>
      <trkpt lat="48.66896" lon="-2.33548">
        <ele>42</ele>
        <time>2014-06-10T09:36:19Z</time>
      </trkpt>
      <trkpt lat="48.66899" lon="-2.33549">
        <ele>42</ele>
        <time>2014-06-10T09:36:21Z</time>
      </trkpt>
      <trkpt lat="48.66901" lon="-2.3355">
        <ele>42</ele>
        <time>2014-06-10T09:36:23Z</time>
      </trkpt>
      <trkpt lat="48.66904" lon="-2.33552">
        <ele>42</ele>
        <time>2014-06-10T09:36:25Z</time>
      </trkpt>
      <trkpt lat="48.66907" lon="-2.33552">
        <ele>42</ele>
        <time>2014-06-10T09:36:27Z</time>
      </trkpt>
      <trkpt lat="48.6691" lon="-2.33553">
        <ele>42</ele>
        <time>2014-06-10T09:36:29Z</time>
      </trkpt>
      <trkpt lat="48.66912" lon="-2.33553">
        <ele>42</ele>
        <time>2014-06-10T09:36:31Z</time>
      </trkpt>
      <trkpt lat="48.66915" lon="-2.33552">
        <ele>42</ele>
        <time>2014-06-10T09:36:33Z</time>
      </trkpt>
      <trkpt lat="48.66918" lon="-2.33551">
        <ele>42</ele>
        <time>2014-06-10T09:36:35Z</time>
      </trkpt>
      <trkpt lat="48.6692" lon="-2.33549">
        <ele>42</ele>
        <time>2014-06-10T09:36:37Z</time>
      </trkpt>
      <trkpt lat="48.66922" lon="-2.33547">
        <ele>42</ele>
        <time>2014-06-10T09:36:39Z</time>
      </trkpt>
      <trkpt lat="48.66926" lon="-2.33544">
        <ele>42</ele>
        <time>2014-06-10T09:36:42Z</time>
      </trkpt>
      <trkpt lat="48.66928" lon="-2.33542">
        <ele>42</ele>
        <time>2014-06-10T09:36:44Z</time>
      </trkpt>
      <trkpt lat="48.66931" lon="-2.33538">
        <ele>42</ele>
        <time>2014-06-10T09:36:47Z</time>
      </trkpt>
      <trkpt lat="48.66933" lon="-2.33536">
        <ele>42</ele>
        <time>2014-06-10T09:36:49Z</time>
      </trkpt>
      <trkpt lat="48.66936" lon="-2.33533">
        <ele>42</ele>
        <time>2014-06-10T09:36:51Z</time>
      </trkpt>
      <trkpt lat="48.66938" lon="-2.33531">
        <ele>42</ele>
        <time>2014-06-10T09:36:53Z</time>
      </trkpt>
      <trkpt lat="48.6694" lon="-2.33528">
        <ele>42</ele>
        <time>2014-06-10T09:36:55Z</time>
      </trkpt>
      <trkpt lat="48.66943" lon="-2.33526">
        <ele>42</ele>
        <time>2014-06-10T09:36:57Z</time>
      </trkpt>
      <trkpt lat="48.66945" lon="-2.33524">
        <ele>42</ele>
        <time>2014-06-10T09:36:59Z</time>
      </trkpt>
      <trkpt lat="48.66948" lon="-2.33521">
        <ele>42</ele>
        <time>2014-06-10T09:37:01Z</time>
      </trkpt>
      <trkpt lat="48.6695" lon="-2.33519">
        <ele>42</ele>
        <time>2014-06-10T09:37:03Z</time>
      </trkpt>
      <trkpt lat="48.66952" lon="-2.33517">
        <ele>42</ele>
        <time>2014-06-10T09:37:05Z</time>
      </trkpt>
      <trkpt lat="48.66954" lon="-2.33515">
        <ele>42</ele>
        <time>2014-06-10T09:37:07Z</time>
      </trkpt>
      <trkpt lat="48.66956" lon="-2.33512">
        <ele>42</ele>
        <time>2014-06-10T09:37:09Z</time>
      </trkpt>
      <trkpt lat="48.66959" lon="-2.3351">
        <ele>42</ele>
        <time>2014-06-10T09:37:11Z</time>
      </trkpt>
      <trkpt lat="48.66961" lon="-2.33508">
        <ele>42</ele>
        <time>2014-06-10T09:37:13Z</time>
      </trkpt>
      <trkpt lat="48.66963" lon="-2.33506">
        <ele>42</ele>
        <time>2014-06-10T09:37:15Z</time>
      </trkpt>
      <trkpt lat="48.66965" lon="-2.33503">
        <ele>42</ele>
        <time>2014-06-10T09:37:17Z</time>
      </trkpt>
      <trkpt lat="48.66969" lon="-2.335">
        <ele>42</ele>
        <time>2014-06-10T09:37:20Z</time>
      </trkpt>
      <trkpt lat="48.66971" lon="-2.33497">
        <ele>42</ele>
        <time>2014-06-10T09:37:22Z</time>
      </trkpt>
      <trkpt lat="48.66973" lon="-2.33495">
        <ele>42</ele>
        <time>2014-06-10T09:37:24Z</time>
      </trkpt>
      <trkpt lat="48.66977" lon="-2.33491">
        <ele>42</ele>
        <time>2014-06-10T09:37:27Z</time>
      </trkpt>
      <trkpt lat="48.66978" lon="-2.33487">
        <ele>42</ele>
        <time>2014-06-10T09:37:29Z</time>
      </trkpt>
      <trkpt lat="48.66979" lon="-2.33483">
        <ele>42</ele>
        <time>2014-06-10T09:37:31Z</time>
      </trkpt>
      <trkpt lat="48.66979" lon="-2.33479">
        <ele>42</ele>
        <time>2014-06-10T09:37:33Z</time>
      </trkpt>
      <trkpt lat="48.6698" lon="-2.33475">
        <ele>42</ele>
        <time>2014-06-10T09:37:35Z</time>
      </trkpt>
      <trkpt lat="48.6698" lon="-2.33471">
        <ele>42</ele>
        <time>2014-06-10T09:37:37Z</time>
      </trkpt>
      <trkpt lat="48.66981" lon="-2.33466">
        <ele>42</ele>
        <time>2014-06-10T09:37:39Z</time>
      </trkpt>
      <trkpt lat="48.66981" lon="-2.33462">
        <ele>42</ele>
        <time>2014-06-10T09:37:41Z</time>
      </trkpt>
      <trkpt lat="48.66981" lon="-2.33457">
        <ele>42</ele>
        <time>2014-06-10T09:37:43Z</time>
      </trkpt>
      <trkpt lat="48.66982" lon="-2.33453">
        <ele>42</ele>
        <time>2014-06-10T09:37:45Z</time>
      </trkpt>
      <trkpt lat="48.66982" lon="-2.33449">
        <ele>42</ele>
        <time>2014-06-10T09:37:47Z</time>
      </trkpt>
      <trkpt lat="48.66983" lon="-2.33445">
        <ele>42</ele>
        <time>2014-06-10T09:37:49Z</time>
      </trkpt>
      <trkpt lat="48.66983" lon="-2.3344">
        <ele>43</ele>
        <time>2014-06-10T09:37:51Z</time>
      </trkpt>
      <trkpt lat="48.66983" lon="-2.33437">
        <ele>43</ele>
        <time>2014-06-10T09:37:53Z</time>
      </trkpt>
      <trkpt lat="48.66984" lon="-2.33433">
        <ele>43</ele>
        <time>2014-06-10T09:37:55Z</time>
      </trkpt>
      <trkpt lat="48.66985" lon="-2.33428">
        <ele>43</ele>
        <time>2014-06-10T09:37:57Z</time>
      </trkpt>
      <trkpt lat="48.66985" lon="-2.33423">
        <ele>43</ele>
        <time>2014-06-10T09:37:59Z</time>
      </trkpt>
      <trkpt lat="48.66985" lon="-2.33419">
        <ele>43</ele>
        <time>2014-06-10T09:38:01Z</time>
      </trkpt>
      <trkpt lat="48.66984" lon="-2.33414">
        <ele>43</ele>
        <time>2014-06-10T09:38:03Z</time>
      </trkpt>
      <trkpt lat="48.66983" lon="-2.3341">
        <ele>43</ele>
        <time>2014-06-10T09:38:05Z</time>
      </trkpt>
      <trkpt lat="48.66984" lon="-2.33408">
        <ele>43</ele>
        <time>2014-06-10T09:38:07Z</time>
      </trkpt>
      <trkpt lat="48.66985" lon="-2.33406">
        <ele>43</ele>
        <time>2014-06-10T09:38:11Z</time>
      </trkpt>
      <trkpt lat="48.66988" lon="-2.33406">
        <ele>43</ele>
        <time>2014-06-10T09:38:13Z</time>
      </trkpt>
      <trkpt lat="48.6699" lon="-2.33406">
        <ele>43</ele>
        <time>2014-06-10T09:38:15Z</time>
      </trkpt>
      <trkpt lat="48.66993" lon="-2.33406">
        <ele>43</ele>
        <time>2014-06-10T09:38:17Z</time>
      </trkpt>
      <trkpt lat="48.66995" lon="-2.33406">
        <ele>43</ele>
        <time>2014-06-10T09:38:19Z</time>
      </trkpt>
      <trkpt lat="48.66997" lon="-2.33406">
        <ele>43</ele>
        <time>2014-06-10T09:38:21Z</time>
      </trkpt>
      <trkpt lat="48.66998" lon="-2.33405">
        <ele>43</ele>
        <time>2014-06-10T09:38:23Z</time>
      </trkpt>
      <trkpt lat="48.66998" lon="-2.33403">
        <ele>43</ele>
        <time>2014-06-10T09:38:25Z</time>
      </trkpt>
      <trkpt lat="48.66998" lon="-2.33401">
        <ele>43</ele>
        <time>2014-06-10T09:38:27Z</time>
      </trkpt>
      <trkpt lat="48.66996" lon="-2.33399">
        <ele>43</ele>
        <time>2014-06-10T09:38:29Z</time>
      </trkpt>
      <trkpt lat="48.66995" lon="-2.33397">
        <ele>43</ele>
        <time>2014-06-10T09:38:31Z</time>
      </trkpt>
      <trkpt lat="48.66993" lon="-2.33393">
        <ele>43</ele>
        <time>2014-06-10T09:38:33Z</time>
      </trkpt>
      <trkpt lat="48.66992" lon="-2.33389">
        <ele>43</ele>
        <time>2014-06-10T09:38:35Z</time>
      </trkpt>
      <trkpt lat="48.66991" lon="-2.33385">
        <ele>43</ele>
        <time>2014-06-10T09:38:37Z</time>
      </trkpt>
      <trkpt lat="48.66989" lon="-2.33381">
        <ele>43</ele>
        <time>2014-06-10T09:38:39Z</time>
      </trkpt>
      <trkpt lat="48.66988" lon="-2.33377">
        <ele>43</ele>
        <time>2014-06-10T09:38:41Z</time>
      </trkpt>
      <trkpt lat="48.66988" lon="-2.33372">
        <ele>43</ele>
        <time>2014-06-10T09:38:43Z</time>
      </trkpt>
      <trkpt lat="48.66986" lon="-2.33369">
        <ele>43</ele>
        <time>2014-06-10T09:38:45Z</time>
      </trkpt>
      <trkpt lat="48.66986" lon="-2.33365">
        <ele>43</ele>
        <time>2014-06-10T09:38:47Z</time>
      </trkpt>
      <trkpt lat="48.66985" lon="-2.3336">
        <ele>43</ele>
        <time>2014-06-10T09:38:49Z</time>
      </trkpt>
      <trkpt lat="48.66985" lon="-2.33356">
        <ele>43</ele>
        <time>2014-06-10T09:38:51Z</time>
      </trkpt>
      <trkpt lat="48.66985" lon="-2.33352">
        <ele>43</ele>
        <time>2014-06-10T09:38:53Z</time>
      </trkpt>
      <trkpt lat="48.66984" lon="-2.33349">
        <ele>43</ele>
        <time>2014-06-10T09:38:55Z</time>
      </trkpt>
      <trkpt lat="48.66982" lon="-2.33345">
        <ele>44</ele>
        <time>2014-06-10T09:38:57Z</time>
      </trkpt>
      <trkpt lat="48.66981" lon="-2.33341">
        <ele>44</ele>
        <time>2014-06-10T09:38:59Z</time>
      </trkpt>
      <trkpt lat="48.66981" lon="-2.33337">
        <ele>44</ele>
        <time>2014-06-10T09:39:01Z</time>
      </trkpt>
      <trkpt lat="48.66982" lon="-2.33334">
        <ele>44</ele>
        <time>2014-06-10T09:39:03Z</time>
      </trkpt>
      <trkpt lat="48.66983" lon="-2.33331">
        <ele>44</ele>
        <time>2014-06-10T09:39:05Z</time>
      </trkpt>
      <trkpt lat="48.66985" lon="-2.33327">
        <ele>44</ele>
        <time>2014-06-10T09:39:07Z</time>
      </trkpt>
      <trkpt lat="48.66985" lon="-2.33323">
        <ele>44</ele>
        <time>2014-06-10T09:39:09Z</time>
      </trkpt>
      <trkpt lat="48.66986" lon="-2.33319">
        <ele>44</ele>
        <time>2014-06-10T09:39:11Z</time>
      </trkpt>
      <trkpt lat="48.66985" lon="-2.33315">
        <ele>44</ele>
        <time>2014-06-10T09:39:13Z</time>
      </trkpt>
      <trkpt lat="48.66985" lon="-2.33311">
        <ele>44</ele>
        <time>2014-06-10T09:39:15Z</time>
      </trkpt>
      <trkpt lat="48.66985" lon="-2.33307">
        <ele>44</ele>
        <time>2014-06-10T09:39:17Z</time>
      </trkpt>
      <trkpt lat="48.66985" lon="-2.33303">
        <ele>44</ele>
        <time>2014-06-10T09:39:19Z</time>
      </trkpt>
      <trkpt lat="48.66984" lon="-2.33299">
        <ele>44</ele>
        <time>2014-06-10T09:39:21Z</time>
      </trkpt>
      <trkpt lat="48.66984" lon="-2.33295">
        <ele>44</ele>
        <time>2014-06-10T09:39:23Z</time>
      </trkpt>
      <trkpt lat="48.66983" lon="-2.3329">
        <ele>45</ele>
        <time>2014-06-10T09:39:26Z</time>
      </trkpt>
      <trkpt lat="48.66982" lon="-2.33287">
        <ele>45</ele>
        <time>2014-06-10T09:39:28Z</time>
      </trkpt>
      <trkpt lat="48.66981" lon="-2.33284">
        <ele>45</ele>
        <time>2014-06-10T09:39:30Z</time>
      </trkpt>
      <trkpt lat="48.6698" lon="-2.33281">
        <ele>45</ele>
        <time>2014-06-10T09:39:32Z</time>
      </trkpt>
      <trkpt lat="48.6698" lon="-2.33277">
        <ele>45</ele>
        <time>2014-06-10T09:39:34Z</time>
      </trkpt>
      <trkpt lat="48.6698" lon="-2.33274">
        <ele>45</ele>
        <time>2014-06-10T09:39:36Z</time>
      </trkpt>
      <trkpt lat="48.6698" lon="-2.3327">
        <ele>45</ele>
        <time>2014-06-10T09:39:38Z</time>
      </trkpt>
      <trkpt lat="48.6698" lon="-2.33266">
        <ele>45</ele>
        <time>2014-06-10T09:39:40Z</time>
      </trkpt>
      <trkpt lat="48.6698" lon="-2.33262">
        <ele>46</ele>
        <time>2014-06-10T09:39:42Z</time>
      </trkpt>
      <trkpt lat="48.6698" lon="-2.33258">
        <ele>46</ele>
        <time>2014-06-10T09:39:44Z</time>
      </trkpt>
      <trkpt lat="48.6698" lon="-2.33254">
        <ele>46</ele>
        <time>2014-06-10T09:39:46Z</time>
      </trkpt>
      <trkpt lat="48.6698" lon="-2.33249">
        <ele>46</ele>
        <time>2014-06-10T09:39:48Z</time>
      </trkpt>
      <trkpt lat="48.6698" lon="-2.33245">
        <ele>46</ele>
        <time>2014-06-10T09:39:50Z</time>
      </trkpt>
      <trkpt lat="48.6698" lon="-2.33241">
        <ele>46</ele>
        <time>2014-06-10T09:39:52Z</time>
      </trkpt>
      <trkpt lat="48.66981" lon="-2.33236">
        <ele>47</ele>
        <time>2014-06-10T09:39:54Z</time>
      </trkpt>
      <trkpt lat="48.66982" lon="-2.33232">
        <ele>47</ele>
        <time>2014-06-10T09:39:56Z</time>
      </trkpt>
      <trkpt lat="48.66982" lon="-2.33227">
        <ele>47</ele>
        <time>2014-06-10T09:39:58Z</time>
      </trkpt>
      <trkpt lat="48.66982" lon="-2.33223">
        <ele>47</ele>
        <time>2014-06-10T09:40:00Z</time>
      </trkpt>
      <trkpt lat="48.66983" lon="-2.33219">
        <ele>47</ele>
        <time>2014-06-10T09:40:02Z</time>
      </trkpt>
      <trkpt lat="48.66983" lon="-2.33214">
        <ele>47</ele>
        <time>2014-06-10T09:40:04Z</time>
      </trkpt>
      <trkpt lat="48.66983" lon="-2.3321">
        <ele>48</ele>
        <time>2014-06-10T09:40:06Z</time>
      </trkpt>
      <trkpt lat="48.66984" lon="-2.33206">
        <ele>48</ele>
        <time>2014-06-10T09:40:08Z</time>
      </trkpt>
      <trkpt lat="48.66985" lon="-2.33202">
        <ele>48</ele>
        <time>2014-06-10T09:40:10Z</time>
      </trkpt>
      <trkpt lat="48.66987" lon="-2.33199">
        <ele>48</ele>
        <time>2014-06-10T09:40:12Z</time>
      </trkpt>
      <trkpt lat="48.66988" lon="-2.33195">
        <ele>49</ele>
        <time>2014-06-10T09:40:14Z</time>
      </trkpt>
      <trkpt lat="48.6699" lon="-2.33191">
        <ele>49</ele>
        <time>2014-06-10T09:40:16Z</time>
      </trkpt>
      <trkpt lat="48.66991" lon="-2.33188">
        <ele>49</ele>
        <time>2014-06-10T09:40:18Z</time>
      </trkpt>
      <trkpt lat="48.66992" lon="-2.33184">
        <ele>49</ele>
        <time>2014-06-10T09:40:20Z</time>
      </trkpt>
      <trkpt lat="48.66993" lon="-2.3318">
        <ele>49</ele>
        <time>2014-06-10T09:40:22Z</time>
      </trkpt>
      <trkpt lat="48.66994" lon="-2.33176">
        <ele>49</ele>
        <time>2014-06-10T09:40:24Z</time>
      </trkpt>
      <trkpt lat="48.66995" lon="-2.33172">
        <ele>49</ele>
        <time>2014-06-10T09:40:26Z</time>
      </trkpt>
      <trkpt lat="48.66996" lon="-2.33169">
        <ele>50</ele>
        <time>2014-06-10T09:40:28Z</time>
      </trkpt>
      <trkpt lat="48.66998" lon="-2.33165">
        <ele>50</ele>
        <time>2014-06-10T09:40:30Z</time>
      </trkpt>
      <trkpt lat="48.67" lon="-2.33162">
        <ele>50</ele>
        <time>2014-06-10T09:40:32Z</time>
      </trkpt>
      <trkpt lat="48.67002" lon="-2.3316">
        <ele>50</ele>
        <time>2014-06-10T09:40:34Z</time>
      </trkpt>
      <trkpt lat="48.67004" lon="-2.33158">
        <ele>50</ele>
        <time>2014-06-10T09:40:36Z</time>
      </trkpt>
      <trkpt lat="48.67007" lon="-2.33155">
        <ele>50</ele>
        <time>2014-06-10T09:40:39Z</time>
      </trkpt>
      <trkpt lat="48.67009" lon="-2.33153">
        <ele>50</ele>
        <time>2014-06-10T09:40:41Z</time>
      </trkpt>
      <trkpt lat="48.67012" lon="-2.33151">
        <ele>50</ele>
        <time>2014-06-10T09:40:43Z</time>
      </trkpt>
      <trkpt lat="48.67014" lon="-2.33149">
        <ele>50</ele>
        <time>2014-06-10T09:40:45Z</time>
      </trkpt>
      <trkpt lat="48.67016" lon="-2.33147">
        <ele>50</ele>
        <time>2014-06-10T09:40:47Z</time>
      </trkpt>
      <trkpt lat="48.6702" lon="-2.33143">
        <ele>50</ele>
        <time>2014-06-10T09:40:50Z</time>
      </trkpt>
      <trkpt lat="48.67022" lon="-2.33141">
        <ele>50</ele>
        <time>2014-06-10T09:40:52Z</time>
      </trkpt>
      <trkpt lat="48.67025" lon="-2.33137">
        <ele>50</ele>
        <time>2014-06-10T09:40:55Z</time>
      </trkpt>
      <trkpt lat="48.67027" lon="-2.33134">
        <ele>51</ele>
        <time>2014-06-10T09:40:57Z</time>
      </trkpt>
      <trkpt lat="48.67028" lon="-2.33131">
        <ele>51</ele>
        <time>2014-06-10T09:40:59Z</time>
      </trkpt>
      <trkpt lat="48.6703" lon="-2.33127">
        <ele>51</ele>
        <time>2014-06-10T09:41:01Z</time>
      </trkpt>
      <trkpt lat="48.67031" lon="-2.33123">
        <ele>51</ele>
        <time>2014-06-10T09:41:03Z</time>
      </trkpt>
      <trkpt lat="48.67033" lon="-2.3312">
        <ele>51</ele>
        <time>2014-06-10T09:41:05Z</time>
      </trkpt>
      <trkpt lat="48.67034" lon="-2.33116">
        <ele>51</ele>
        <time>2014-06-10T09:41:07Z</time>
      </trkpt>
      <trkpt lat="48.67035" lon="-2.33112">
        <ele>51</ele>
        <time>2014-06-10T09:41:09Z</time>
      </trkpt>
      <trkpt lat="48.67037" lon="-2.33108">
        <ele>51</ele>
        <time>2014-06-10T09:41:11Z</time>
      </trkpt>
      <trkpt lat="48.67038" lon="-2.33105">
        <ele>51</ele>
        <time>2014-06-10T09:41:13Z</time>
      </trkpt>
      <trkpt lat="48.67039" lon="-2.33101">
        <ele>51</ele>
        <time>2014-06-10T09:41:15Z</time>
      </trkpt>
      <trkpt lat="48.67041" lon="-2.33097">
        <ele>51</ele>
        <time>2014-06-10T09:41:17Z</time>
      </trkpt>
      <trkpt lat="48.67044" lon="-2.33094">
        <ele>51</ele>
        <time>2014-06-10T09:41:20Z</time>
      </trkpt>
      <trkpt lat="48.67046" lon="-2.33093">
        <ele>51</ele>
        <time>2014-06-10T09:41:22Z</time>
      </trkpt>
      <trkpt lat="48.67049" lon="-2.3309">
        <ele>51</ele>
        <time>2014-06-10T09:41:24Z</time>
      </trkpt>
      <trkpt lat="48.67051" lon="-2.33088">
        <ele>51</ele>
        <time>2014-06-10T09:41:26Z</time>
      </trkpt>
      <trkpt lat="48.67054" lon="-2.33086">
        <ele>51</ele>
        <time>2014-06-10T09:41:28Z</time>
      </trkpt>
      <trkpt lat="48.67056" lon="-2.33084">
        <ele>51</ele>
        <time>2014-06-10T09:41:30Z</time>
      </trkpt>
      <trkpt lat="48.67058" lon="-2.33082">
        <ele>51</ele>
        <time>2014-06-10T09:41:32Z</time>
      </trkpt>
      <trkpt lat="48.67061" lon="-2.33081">
        <ele>51</ele>
        <time>2014-06-10T09:41:34Z</time>
      </trkpt>
      <trkpt lat="48.67064" lon="-2.33079">
        <ele>51</ele>
        <time>2014-06-10T09:41:36Z</time>
      </trkpt>
      <trkpt lat="48.67066" lon="-2.33077">
        <ele>51</ele>
        <time>2014-06-10T09:41:38Z</time>
      </trkpt>
      <trkpt lat="48.67068" lon="-2.33076">
        <ele>51</ele>
        <time>2014-06-10T09:41:40Z</time>
      </trkpt>
      <trkpt lat="48.67071" lon="-2.33075">
        <ele>51</ele>
        <time>2014-06-10T09:41:42Z</time>
      </trkpt>
      <trkpt lat="48.67074" lon="-2.33074">
        <ele>51</ele>
        <time>2014-06-10T09:41:44Z</time>
      </trkpt>
      <trkpt lat="48.67076" lon="-2.33074">
        <ele>51</ele>
        <time>2014-06-10T09:41:46Z</time>
      </trkpt>
      <trkpt lat="48.67079" lon="-2.33074">
        <ele>51</ele>
        <time>2014-06-10T09:41:48Z</time>
      </trkpt>
      <trkpt lat="48.67082" lon="-2.33075">
        <ele>51</ele>
        <time>2014-06-10T09:41:50Z</time>
      </trkpt>
      <trkpt lat="48.67085" lon="-2.33075">
        <ele>51</ele>
        <time>2014-06-10T09:41:52Z</time>
      </trkpt>
      <trkpt lat="48.67087" lon="-2.33075">
        <ele>51</ele>
        <time>2014-06-10T09:41:54Z</time>
      </trkpt>
      <trkpt lat="48.6709" lon="-2.33076">
        <ele>51</ele>
        <time>2014-06-10T09:41:56Z</time>
      </trkpt>
      <trkpt lat="48.67092" lon="-2.33077">
        <ele>51</ele>
        <time>2014-06-10T09:41:58Z</time>
      </trkpt>
      <trkpt lat="48.67094" lon="-2.33077">
        <ele>51</ele>
        <time>2014-06-10T09:42:00Z</time>
      </trkpt>
      <trkpt lat="48.67096" lon="-2.33076">
        <ele>51</ele>
        <time>2014-06-10T09:42:02Z</time>
      </trkpt>
      <trkpt lat="48.67098" lon="-2.33074">
        <ele>51</ele>
        <time>2014-06-10T09:42:04Z</time>
      </trkpt>
      <trkpt lat="48.67101" lon="-2.33073">
        <ele>51</ele>
        <time>2014-06-10T09:42:06Z</time>
      </trkpt>
      <trkpt lat="48.67103" lon="-2.33071">
        <ele>51</ele>
        <time>2014-06-10T09:42:08Z</time>
      </trkpt>
      <trkpt lat="48.67106" lon="-2.33069">
        <ele>51</ele>
        <time>2014-06-10T09:42:10Z</time>
      </trkpt>
      <trkpt lat="48.67108" lon="-2.33067">
        <ele>51</ele>
        <time>2014-06-10T09:42:12Z</time>
      </trkpt>
      <trkpt lat="48.67111" lon="-2.33066">
        <ele>51</ele>
        <time>2014-06-10T09:42:14Z</time>
      </trkpt>
      <trkpt lat="48.67114" lon="-2.33061">
        <ele>51</ele>
        <time>2014-06-10T09:42:17Z</time>
      </trkpt>
      <trkpt lat="48.67115" lon="-2.33057">
        <ele>51</ele>
        <time>2014-06-10T09:42:19Z</time>
      </trkpt>
      <trkpt lat="48.67116" lon="-2.33054">
        <ele>51</ele>
        <time>2014-06-10T09:42:21Z</time>
      </trkpt>
      <trkpt lat="48.67116" lon="-2.3305">
        <ele>51</ele>
        <time>2014-06-10T09:42:23Z</time>
      </trkpt>
      <trkpt lat="48.67116" lon="-2.33046">
        <ele>51</ele>
        <time>2014-06-10T09:42:25Z</time>
      </trkpt>
      <trkpt lat="48.67117" lon="-2.33042">
        <ele>51</ele>
        <time>2014-06-10T09:42:27Z</time>
      </trkpt>
      <trkpt lat="48.67118" lon="-2.33038">
        <ele>51</ele>
        <time>2014-06-10T09:42:29Z</time>
      </trkpt>
      <trkpt lat="48.6712" lon="-2.33035">
        <ele>51</ele>
        <time>2014-06-10T09:42:31Z</time>
      </trkpt>
      <trkpt lat="48.67122" lon="-2.33032">
        <ele>51</ele>
        <time>2014-06-10T09:42:33Z</time>
      </trkpt>
      <trkpt lat="48.67124" lon="-2.3303">
        <ele>51</ele>
        <time>2014-06-10T09:42:35Z</time>
      </trkpt>
      <trkpt lat="48.67125" lon="-2.33027">
        <ele>51</ele>
        <time>2014-06-10T09:42:37Z</time>
      </trkpt>
      <trkpt lat="48.67127" lon="-2.33024">
        <ele>51</ele>
        <time>2014-06-10T09:42:39Z</time>
      </trkpt>
      <trkpt lat="48.67128" lon="-2.3302">
        <ele>51</ele>
        <time>2014-06-10T09:42:41Z</time>
      </trkpt>
      <trkpt lat="48.67129" lon="-2.33016">
        <ele>51</ele>
        <time>2014-06-10T09:42:43Z</time>
      </trkpt>
      <trkpt lat="48.67131" lon="-2.33013">
        <ele>51</ele>
        <time>2014-06-10T09:42:45Z</time>
      </trkpt>
      <trkpt lat="48.67131" lon="-2.33009">
        <ele>51</ele>
        <time>2014-06-10T09:42:47Z</time>
      </trkpt>
      <trkpt lat="48.67132" lon="-2.33005">
        <ele>51</ele>
        <time>2014-06-10T09:42:49Z</time>
      </trkpt>
      <trkpt lat="48.67133" lon="-2.33001">
        <ele>51</ele>
        <time>2014-06-10T09:42:51Z</time>
      </trkpt>
      <trkpt lat="48.67135" lon="-2.32997">
        <ele>51</ele>
        <time>2014-06-10T09:42:53Z</time>
      </trkpt>
      <trkpt lat="48.67137" lon="-2.32994">
        <ele>51</ele>
        <time>2014-06-10T09:42:55Z</time>
      </trkpt>
      <trkpt lat="48.67138" lon="-2.32991">
        <ele>51</ele>
        <time>2014-06-10T09:42:57Z</time>
      </trkpt>
      <trkpt lat="48.67139" lon="-2.32987">
        <ele>51</ele>
        <time>2014-06-10T09:42:59Z</time>
      </trkpt>
      <trkpt lat="48.67141" lon="-2.32984">
        <ele>51</ele>
        <time>2014-06-10T09:43:01Z</time>
      </trkpt>
      <trkpt lat="48.67142" lon="-2.3298">
        <ele>51</ele>
        <time>2014-06-10T09:43:03Z</time>
      </trkpt>
      <trkpt lat="48.67144" lon="-2.32977">
        <ele>51</ele>
        <time>2014-06-10T09:43:05Z</time>
      </trkpt>
      <trkpt lat="48.67145" lon="-2.32974">
        <ele>51</ele>
        <time>2014-06-10T09:43:07Z</time>
      </trkpt>
      <trkpt lat="48.67147" lon="-2.3297">
        <ele>51</ele>
        <time>2014-06-10T09:43:09Z</time>
      </trkpt>
      <trkpt lat="48.67148" lon="-2.32967">
        <ele>51</ele>
        <time>2014-06-10T09:43:11Z</time>
      </trkpt>
      <trkpt lat="48.67151" lon="-2.32962">
        <ele>51</ele>
        <time>2014-06-10T09:43:14Z</time>
      </trkpt>
      <trkpt lat="48.67152" lon="-2.32959">
        <ele>51</ele>
        <time>2014-06-10T09:43:16Z</time>
      </trkpt>
      <trkpt lat="48.67153" lon="-2.32956">
        <ele>51</ele>
        <time>2014-06-10T09:43:18Z</time>
      </trkpt>
      <trkpt lat="48.67155" lon="-2.32953">
        <ele>51</ele>
        <time>2014-06-10T09:43:20Z</time>
      </trkpt>
      <trkpt lat="48.67156" lon="-2.3295">
        <ele>51</ele>
        <time>2014-06-10T09:43:22Z</time>
      </trkpt>
      <trkpt lat="48.67157" lon="-2.32946">
        <ele>51</ele>
        <time>2014-06-10T09:43:24Z</time>
      </trkpt>
      <trkpt lat="48.67159" lon="-2.32943">
        <ele>51</ele>
        <time>2014-06-10T09:43:26Z</time>
      </trkpt>
      <trkpt lat="48.67161" lon="-2.32938">
        <ele>51</ele>
        <time>2014-06-10T09:43:29Z</time>
      </trkpt>
      <trkpt lat="48.67163" lon="-2.32935">
        <ele>51</ele>
        <time>2014-06-10T09:43:31Z</time>
      </trkpt>
      <trkpt lat="48.67166" lon="-2.3293">
        <ele>52</ele>
        <time>2014-06-10T09:43:34Z</time>
      </trkpt>
      <trkpt lat="48.67167" lon="-2.32927">
        <ele>52</ele>
        <time>2014-06-10T09:43:36Z</time>
      </trkpt>
      <trkpt lat="48.67169" lon="-2.32924">
        <ele>52</ele>
        <time>2014-06-10T09:43:38Z</time>
      </trkpt>
      <trkpt lat="48.67171" lon="-2.32919">
        <ele>52</ele>
        <time>2014-06-10T09:43:41Z</time>
      </trkpt>
      <trkpt lat="48.67173" lon="-2.32916">
        <ele>52</ele>
        <time>2014-06-10T09:43:43Z</time>
      </trkpt>
      <trkpt lat="48.67176" lon="-2.32913">
        <ele>52</ele>
        <time>2014-06-10T09:43:45Z</time>
      </trkpt>
      <trkpt lat="48.67178" lon="-2.32911">
        <ele>52</ele>
        <time>2014-06-10T09:43:47Z</time>
      </trkpt>
      <trkpt lat="48.6718" lon="-2.32908">
        <ele>52</ele>
        <time>2014-06-10T09:43:49Z</time>
      </trkpt>
      <trkpt lat="48.67182" lon="-2.32906">
        <ele>52</ele>
        <time>2014-06-10T09:43:51Z</time>
      </trkpt>
      <trkpt lat="48.67185" lon="-2.32902">
        <ele>52</ele>
        <time>2014-06-10T09:43:54Z</time>
      </trkpt>
      <trkpt lat="48.67189" lon="-2.32897">
        <ele>52</ele>
        <time>2014-06-10T09:43:57Z</time>
      </trkpt>
      <trkpt lat="48.6719" lon="-2.32894">
        <ele>52</ele>
        <time>2014-06-10T09:43:59Z</time>
      </trkpt>
      <trkpt lat="48.67192" lon="-2.32892">
        <ele>52</ele>
        <time>2014-06-10T09:44:01Z</time>
      </trkpt>
      <trkpt lat="48.67194" lon="-2.32889">
        <ele>52</ele>
        <time>2014-06-10T09:44:03Z</time>
      </trkpt>
      <trkpt lat="48.67196" lon="-2.32886">
        <ele>52</ele>
        <time>2014-06-10T09:44:05Z</time>
      </trkpt>
      <trkpt lat="48.67198" lon="-2.32882">
        <ele>52</ele>
        <time>2014-06-10T09:44:07Z</time>
      </trkpt>
      <trkpt lat="48.67199" lon="-2.32879">
        <ele>52</ele>
        <time>2014-06-10T09:44:09Z</time>
      </trkpt>
      <trkpt lat="48.67201" lon="-2.32876">
        <ele>52</ele>
        <time>2014-06-10T09:44:11Z</time>
      </trkpt>
      <trkpt lat="48.67204" lon="-2.32873">
        <ele>52</ele>
        <time>2014-06-10T09:44:13Z</time>
      </trkpt>
      <trkpt lat="48.67205" lon="-2.3287">
        <ele>52</ele>
        <time>2014-06-10T09:44:15Z</time>
      </trkpt>
      <trkpt lat="48.67207" lon="-2.32867">
        <ele>52</ele>
        <time>2014-06-10T09:44:17Z</time>
      </trkpt>
      <trkpt lat="48.67209" lon="-2.32864">
        <ele>52</ele>
        <time>2014-06-10T09:44:19Z</time>
      </trkpt>
      <trkpt lat="48.67211" lon="-2.32861">
        <ele>52</ele>
        <time>2014-06-10T09:44:21Z</time>
      </trkpt>
      <trkpt lat="48.67213" lon="-2.32858">
        <ele>52</ele>
        <time>2014-06-10T09:44:23Z</time>
      </trkpt>
      <trkpt lat="48.67215" lon="-2.32856">
        <ele>52</ele>
        <time>2014-06-10T09:44:25Z</time>
      </trkpt>
      <trkpt lat="48.67217" lon="-2.32853">
        <ele>52</ele>
        <time>2014-06-10T09:44:27Z</time>
      </trkpt>
      <trkpt lat="48.67218" lon="-2.32849">
        <ele>52</ele>
        <time>2014-06-10T09:44:29Z</time>
      </trkpt>
      <trkpt lat="48.6722" lon="-2.32845">
        <ele>52</ele>
        <time>2014-06-10T09:44:31Z</time>
      </trkpt>
      <trkpt lat="48.67222" lon="-2.32841">
        <ele>52</ele>
        <time>2014-06-10T09:44:34Z</time>
      </trkpt>
      <trkpt lat="48.67224" lon="-2.32838">
        <ele>52</ele>
        <time>2014-06-10T09:44:36Z</time>
      </trkpt>
      <trkpt lat="48.67226" lon="-2.32834">
        <ele>52</ele>
        <time>2014-06-10T09:44:38Z</time>
      </trkpt>
      <trkpt lat="48.67227" lon="-2.32831">
        <ele>52</ele>
        <time>2014-06-10T09:44:40Z</time>
      </trkpt>
      <trkpt lat="48.67229" lon="-2.32828">
        <ele>52</ele>
        <time>2014-06-10T09:44:42Z</time>
      </trkpt>
      <trkpt lat="48.6723" lon="-2.32825">
        <ele>52</ele>
        <time>2014-06-10T09:44:44Z</time>
      </trkpt>
      <trkpt lat="48.67232" lon="-2.32822">
        <ele>52</ele>
        <time>2014-06-10T09:44:46Z</time>
      </trkpt>
      <trkpt lat="48.67234" lon="-2.32819">
        <ele>52</ele>
        <time>2014-06-10T09:44:48Z</time>
      </trkpt>
      <trkpt lat="48.67235" lon="-2.32815">
        <ele>52</ele>
        <time>2014-06-10T09:44:50Z</time>
      </trkpt>
      <trkpt lat="48.67236" lon="-2.32811">
        <ele>52</ele>
        <time>2014-06-10T09:44:52Z</time>
      </trkpt>
      <trkpt lat="48.67236" lon="-2.32807">
        <ele>52</ele>
        <time>2014-06-10T09:44:54Z</time>
      </trkpt>
      <trkpt lat="48.67238" lon="-2.32803">
        <ele>52</ele>
        <time>2014-06-10T09:44:56Z</time>
      </trkpt>
      <trkpt lat="48.67239" lon="-2.328">
        <ele>52</ele>
        <time>2014-06-10T09:44:58Z</time>
      </trkpt>
      <trkpt lat="48.67242" lon="-2.32795">
        <ele>52</ele>
        <time>2014-06-10T09:45:01Z</time>
      </trkpt>
      <trkpt lat="48.67243" lon="-2.32792">
        <ele>52</ele>
        <time>2014-06-10T09:45:03Z</time>
      </trkpt>
      <trkpt lat="48.67246" lon="-2.32787">
        <ele>52</ele>
        <time>2014-06-10T09:45:06Z</time>
      </trkpt>
      <trkpt lat="48.67247" lon="-2.32784">
        <ele>52</ele>
        <time>2014-06-10T09:45:08Z</time>
      </trkpt>
      <trkpt lat="48.67249" lon="-2.32781">
        <ele>52</ele>
        <time>2014-06-10T09:45:10Z</time>
      </trkpt>
      <trkpt lat="48.67251" lon="-2.32777">
        <ele>52</ele>
        <time>2014-06-10T09:45:12Z</time>
      </trkpt>
      <trkpt lat="48.67252" lon="-2.32774">
        <ele>52</ele>
        <time>2014-06-10T09:45:14Z</time>
      </trkpt>
      <trkpt lat="48.67254" lon="-2.3277">
        <ele>52</ele>
        <time>2014-06-10T09:45:16Z</time>
      </trkpt>
      <trkpt lat="48.67255" lon="-2.32767">
        <ele>52</ele>
        <time>2014-06-10T09:45:18Z</time>
      </trkpt>
      <trkpt lat="48.67258" lon="-2.32762">
        <ele>52</ele>
        <time>2014-06-10T09:45:21Z</time>
      </trkpt>
      <trkpt lat="48.6726" lon="-2.32758">
        <ele>52</ele>
        <time>2014-06-10T09:45:24Z</time>
      </trkpt>
      <trkpt lat="48.67262" lon="-2.32754">
        <ele>52</ele>
        <time>2014-06-10T09:45:26Z</time>
      </trkpt>
      <trkpt lat="48.67263" lon="-2.32752">
        <ele>52</ele>
        <time>2014-06-10T09:45:28Z</time>
      </trkpt>
      <trkpt lat="48.67265" lon="-2.32749">
        <ele>52</ele>
        <time>2014-06-10T09:45:30Z</time>
      </trkpt>
      <trkpt lat="48.67268" lon="-2.32744">
        <ele>52</ele>
        <time>2014-06-10T09:45:33Z</time>
      </trkpt>
      <trkpt lat="48.67269" lon="-2.32741">
        <ele>53</ele>
        <time>2014-06-10T09:45:35Z</time>
      </trkpt>
      <trkpt lat="48.67271" lon="-2.32737">
        <ele>53</ele>
        <time>2014-06-10T09:45:37Z</time>
      </trkpt>
      <trkpt lat="48.67272" lon="-2.32734">
        <ele>53</ele>
        <time>2014-06-10T09:45:39Z</time>
      </trkpt>
      <trkpt lat="48.67274" lon="-2.32732">
        <ele>53</ele>
        <time>2014-06-10T09:45:41Z</time>
      </trkpt>
      <trkpt lat="48.67277" lon="-2.32728">
        <ele>53</ele>
        <time>2014-06-10T09:45:44Z</time>
      </trkpt>
      <trkpt lat="48.67279" lon="-2.32726">
        <ele>54</ele>
        <time>2014-06-10T09:45:46Z</time>
      </trkpt>
      <trkpt lat="48.67281" lon="-2.32724">
        <ele>54</ele>
        <time>2014-06-10T09:45:48Z</time>
      </trkpt>
      <trkpt lat="48.67284" lon="-2.32722">
        <ele>54</ele>
        <time>2014-06-10T09:45:50Z</time>
      </trkpt>
      <trkpt lat="48.67286" lon="-2.3272">
        <ele>54</ele>
        <time>2014-06-10T09:45:52Z</time>
      </trkpt>
      <trkpt lat="48.67289" lon="-2.32718">
        <ele>54</ele>
        <time>2014-06-10T09:45:54Z</time>
      </trkpt>
      <trkpt lat="48.67291" lon="-2.32716">
        <ele>54</ele>
        <time>2014-06-10T09:45:56Z</time>
      </trkpt>
      <trkpt lat="48.67294" lon="-2.32714">
        <ele>54</ele>
        <time>2014-06-10T09:45:58Z</time>
      </trkpt>
      <trkpt lat="48.67297" lon="-2.32711">
        <ele>54</ele>
        <time>2014-06-10T09:46:01Z</time>
      </trkpt>
      <trkpt lat="48.67302" lon="-2.32706">
        <ele>54</ele>
        <time>2014-06-10T09:46:05Z</time>
      </trkpt>
      <trkpt lat="48.67303" lon="-2.32703">
        <ele>54</ele>
        <time>2014-06-10T09:46:07Z</time>
      </trkpt>
      <trkpt lat="48.67305" lon="-2.327">
        <ele>54</ele>
        <time>2014-06-10T09:46:09Z</time>
      </trkpt>
      <trkpt lat="48.67307" lon="-2.32695">
        <ele>54</ele>
        <time>2014-06-10T09:46:12Z</time>
      </trkpt>
      <trkpt lat="48.6731" lon="-2.32692">
        <ele>54</ele>
        <time>2014-06-10T09:46:14Z</time>
      </trkpt>
      <trkpt lat="48.67313" lon="-2.32689">
        <ele>54</ele>
        <time>2014-06-10T09:46:17Z</time>
      </trkpt>
      <trkpt lat="48.67316" lon="-2.32688">
        <ele>54</ele>
        <time>2014-06-10T09:46:19Z</time>
      </trkpt>
      <trkpt lat="48.67318" lon="-2.32686">
        <ele>54</ele>
        <time>2014-06-10T09:46:21Z</time>
      </trkpt>
      <trkpt lat="48.67321" lon="-2.32684">
        <ele>54</ele>
        <time>2014-06-10T09:46:23Z</time>
      </trkpt>
      <trkpt lat="48.67324" lon="-2.32681">
        <ele>54</ele>
        <time>2014-06-10T09:46:26Z</time>
      </trkpt>
      <trkpt lat="48.67327" lon="-2.32678">
        <ele>55</ele>
        <time>2014-06-10T09:46:28Z</time>
      </trkpt>
      <trkpt lat="48.67331" lon="-2.32674">
        <ele>56</ele>
        <time>2014-06-10T09:46:32Z</time>
      </trkpt>
      <trkpt lat="48.67334" lon="-2.32673">
        <ele>56</ele>
        <time>2014-06-10T09:46:34Z</time>
      </trkpt>
      <trkpt lat="48.67336" lon="-2.32672">
        <ele>56</ele>
        <time>2014-06-10T09:46:36Z</time>
      </trkpt>
      <trkpt lat="48.67339" lon="-2.32672">
        <ele>57</ele>
        <time>2014-06-10T09:46:38Z</time>
      </trkpt>
      <trkpt lat="48.67343" lon="-2.32674">
        <ele>57</ele>
        <time>2014-06-10T09:46:41Z</time>
      </trkpt>
      <trkpt lat="48.67346" lon="-2.32676">
        <ele>57</ele>
        <time>2014-06-10T09:46:43Z</time>
      </trkpt>
      <trkpt lat="48.67349" lon="-2.32679">
        <ele>57</ele>
        <time>2014-06-10T09:46:46Z</time>
      </trkpt>
      <trkpt lat="48.67352" lon="-2.3268">
        <ele>57</ele>
        <time>2014-06-10T09:46:48Z</time>
      </trkpt>
      <trkpt lat="48.67355" lon="-2.32683">
        <ele>57</ele>
        <time>2014-06-10T09:46:51Z</time>
      </trkpt>
      <trkpt lat="48.67358" lon="-2.32685">
        <ele>57</ele>
        <time>2014-06-10T09:46:53Z</time>
      </trkpt>
      <trkpt lat="48.67362" lon="-2.32687">
        <ele>58</ele>
        <time>2014-06-10T09:46:56Z</time>
      </trkpt>
      <trkpt lat="48.67365" lon="-2.32688">
        <ele>59</ele>
        <time>2014-06-10T09:46:58Z</time>
      </trkpt>
      <trkpt lat="48.67369" lon="-2.32689">
        <ele>59</ele>
        <time>2014-06-10T09:47:01Z</time>
      </trkpt>
      <trkpt lat="48.67371" lon="-2.3269">
        <ele>59</ele>
        <time>2014-06-10T09:47:03Z</time>
      </trkpt>
      <trkpt lat="48.67375" lon="-2.32692">
        <ele>60</ele>
        <time>2014-06-10T09:47:06Z</time>
      </trkpt>
      <trkpt lat="48.67378" lon="-2.32693">
        <ele>60</ele>
        <time>2014-06-10T09:47:08Z</time>
      </trkpt>
      <trkpt lat="48.67382" lon="-2.32694">
        <ele>61</ele>
        <time>2014-06-10T09:47:11Z</time>
      </trkpt>
      <trkpt lat="48.67385" lon="-2.32695">
        <ele>61</ele>
        <time>2014-06-10T09:47:13Z</time>
      </trkpt>
      <trkpt lat="48.67387" lon="-2.32696">
        <ele>61</ele>
        <time>2014-06-10T09:47:15Z</time>
      </trkpt>
      <trkpt lat="48.6739" lon="-2.32698">
        <ele>62</ele>
        <time>2014-06-10T09:47:17Z</time>
      </trkpt>
      <trkpt lat="48.67393" lon="-2.32698">
        <ele>62</ele>
        <time>2014-06-10T09:47:19Z</time>
      </trkpt>
      <trkpt lat="48.67395" lon="-2.327">
        <ele>62</ele>
        <time>2014-06-10T09:47:21Z</time>
      </trkpt>
      <trkpt lat="48.67398" lon="-2.32701">
        <ele>62</ele>
        <time>2014-06-10T09:47:23Z</time>
      </trkpt>
      <trkpt lat="48.674" lon="-2.32703">
        <ele>62</ele>
        <time>2014-06-10T09:47:25Z</time>
      </trkpt>
      <trkpt lat="48.67402" lon="-2.32704">
        <ele>62</ele>
        <time>2014-06-10T09:47:33Z</time>
      </trkpt>
      <trkpt lat="48.67404" lon="-2.32705">
        <ele>62</ele>
        <time>2014-06-10T09:47:35Z</time>
      </trkpt>
      <trkpt lat="48.67406" lon="-2.32706">
        <ele>62</ele>
        <time>2014-06-10T09:47:37Z</time>
      </trkpt>
      <trkpt lat="48.67409" lon="-2.32707">
        <ele>62</ele>
        <time>2014-06-10T09:47:39Z</time>
      </trkpt>
      <trkpt lat="48.67413" lon="-2.32709">
        <ele>62</ele>
        <time>2014-06-10T09:47:42Z</time>
      </trkpt>
      <trkpt lat="48.67415" lon="-2.3271">
        <ele>62</ele>
        <time>2014-06-10T09:47:44Z</time>
      </trkpt>
      <trkpt lat="48.67419" lon="-2.32712">
        <ele>62</ele>
        <time>2014-06-10T09:47:47Z</time>
      </trkpt>
      <trkpt lat="48.67422" lon="-2.32714">
        <ele>62</ele>
        <time>2014-06-10T09:47:49Z</time>
      </trkpt>
      <trkpt lat="48.67424" lon="-2.32715">
        <ele>62</ele>
        <time>2014-06-10T09:47:51Z</time>
      </trkpt>
      <trkpt lat="48.67427" lon="-2.32717">
        <ele>62</ele>
        <time>2014-06-10T09:47:53Z</time>
      </trkpt>
      <trkpt lat="48.6743" lon="-2.32719">
        <ele>62</ele>
        <time>2014-06-10T09:47:56Z</time>
      </trkpt>
      <trkpt lat="48.67433" lon="-2.3272">
        <ele>62</ele>
        <time>2014-06-10T09:47:58Z</time>
      </trkpt>
      <trkpt lat="48.67437" lon="-2.32721">
        <ele>62</ele>
        <time>2014-06-10T09:48:01Z</time>
      </trkpt>
      <trkpt lat="48.6744" lon="-2.32721">
        <ele>62</ele>
        <time>2014-06-10T09:48:03Z</time>
      </trkpt>
      <trkpt lat="48.67444" lon="-2.32722">
        <ele>62</ele>
        <time>2014-06-10T09:48:06Z</time>
      </trkpt>
      <trkpt lat="48.67447" lon="-2.32723">
        <ele>62</ele>
        <time>2014-06-10T09:48:08Z</time>
      </trkpt>
      <trkpt lat="48.67451" lon="-2.32724">
        <ele>62</ele>
        <time>2014-06-10T09:48:11Z</time>
      </trkpt>
      <trkpt lat="48.67453" lon="-2.32724">
        <ele>62</ele>
        <time>2014-06-10T09:48:13Z</time>
      </trkpt>
      <trkpt lat="48.67456" lon="-2.32724">
        <ele>62</ele>
        <time>2014-06-10T09:48:20Z</time>
      </trkpt>
      <trkpt lat="48.67459" lon="-2.32724">
        <ele>62</ele>
        <time>2014-06-10T09:48:23Z</time>
      </trkpt>
      <trkpt lat="48.67462" lon="-2.32725">
        <ele>62</ele>
        <time>2014-06-10T09:48:25Z</time>
      </trkpt>
      <trkpt lat="48.67466" lon="-2.32727">
        <ele>62</ele>
        <time>2014-06-10T09:48:28Z</time>
      </trkpt>
      <trkpt lat="48.67469" lon="-2.32728">
        <ele>62</ele>
        <time>2014-06-10T09:48:30Z</time>
      </trkpt>
      <trkpt lat="48.67473" lon="-2.32731">
        <ele>62</ele>
        <time>2014-06-10T09:48:33Z</time>
      </trkpt>
      <trkpt lat="48.67476" lon="-2.32733">
        <ele>62</ele>
        <time>2014-06-10T09:48:35Z</time>
      </trkpt>
      <trkpt lat="48.6748" lon="-2.32733">
        <ele>62</ele>
        <time>2014-06-10T09:48:38Z</time>
      </trkpt>
      <trkpt lat="48.67483" lon="-2.32732">
        <ele>62</ele>
        <time>2014-06-10T09:48:40Z</time>
      </trkpt>
      <trkpt lat="48.67488" lon="-2.3273">
        <ele>62</ele>
        <time>2014-06-10T09:48:44Z</time>
      </trkpt>
      <trkpt lat="48.67489" lon="-2.32729">
        <ele>62</ele>
        <time>2014-06-10T09:49:02Z</time>
      </trkpt>
      <trkpt lat="48.67492" lon="-2.32726">
        <ele>62</ele>
        <time>2014-06-10T09:49:06Z</time>
      </trkpt>
      <trkpt lat="48.67494" lon="-2.32725">
        <ele>62</ele>
        <time>2014-06-10T09:49:08Z</time>
      </trkpt>
      <trkpt lat="48.67497" lon="-2.32721">
        <ele>62</ele>
        <time>2014-06-10T09:49:12Z</time>
      </trkpt>
      <trkpt lat="48.67498" lon="-2.3272">
        <ele>62</ele>
        <time>2014-06-10T09:49:18Z</time>
      </trkpt>
      <trkpt lat="48.67499" lon="-2.32718">
        <ele>62</ele>
        <time>2014-06-10T09:49:30Z</time>
      </trkpt>
      <trkpt lat="48.67503" lon="-2.32714">
        <ele>62</ele>
        <time>2014-06-10T09:49:34Z</time>
      </trkpt>
      <trkpt lat="48.67505" lon="-2.32713">
        <ele>62</ele>
        <time>2014-06-10T09:49:36Z</time>
      </trkpt>
      <trkpt lat="48.67507" lon="-2.32711">
        <ele>62</ele>
        <time>2014-06-10T09:49:38Z</time>
      </trkpt>
      <trkpt lat="48.67508" lon="-2.32708">
        <ele>62</ele>
        <time>2014-06-10T09:49:40Z</time>
      </trkpt>
      <trkpt lat="48.67511" lon="-2.32704">
        <ele>62</ele>
        <time>2014-06-10T09:49:43Z</time>
      </trkpt>
      <trkpt lat="48.67514" lon="-2.32699">
        <ele>62</ele>
        <time>2014-06-10T09:49:46Z</time>
      </trkpt>
      <trkpt lat="48.67517" lon="-2.32695">
        <ele>61</ele>
        <time>2014-06-10T09:49:49Z</time>
      </trkpt>
      <trkpt lat="48.6752" lon="-2.3269">
        <ele>61</ele>
        <time>2014-06-10T09:49:52Z</time>
      </trkpt>
      <trkpt lat="48.67523" lon="-2.32684">
        <ele>60</ele>
        <time>2014-06-10T09:49:56Z</time>
      </trkpt>
      <trkpt lat="48.67524" lon="-2.3268">
        <ele>60</ele>
        <time>2014-06-10T09:49:58Z</time>
      </trkpt>
      <trkpt lat="48.67526" lon="-2.32676">
        <ele>60</ele>
        <time>2014-06-10T09:50:00Z</time>
      </trkpt>
      <trkpt lat="48.67527" lon="-2.32671">
        <ele>60</ele>
        <time>2014-06-10T09:50:02Z</time>
      </trkpt>
      <trkpt lat="48.67531" lon="-2.32672">
        <ele>60</ele>
        <time>2014-06-10T09:50:05Z</time>
      </trkpt>
      <trkpt lat="48.67534" lon="-2.32674">
        <ele>60</ele>
        <time>2014-06-10T09:50:08Z</time>
      </trkpt>
      <trkpt lat="48.67537" lon="-2.32677">
        <ele>60</ele>
        <time>2014-06-10T09:50:12Z</time>
      </trkpt>
      <trkpt lat="48.67539" lon="-2.32679">
        <ele>60</ele>
        <time>2014-06-10T09:50:14Z</time>
      </trkpt>
      <trkpt lat="48.67543" lon="-2.32681">
        <ele>60</ele>
        <time>2014-06-10T09:50:18Z</time>
      </trkpt>
      <trkpt lat="48.67545" lon="-2.32681">
        <ele>60</ele>
        <time>2014-06-10T09:50:20Z</time>
      </trkpt>
      <trkpt lat="48.67548" lon="-2.3268">
        <ele>59</ele>
        <time>2014-06-10T09:50:23Z</time>
      </trkpt>
      <trkpt lat="48.67551" lon="-2.32679">
        <ele>59</ele>
        <time>2014-06-10T09:50:25Z</time>
      </trkpt>
      <trkpt lat="48.67555" lon="-2.32675">
        <ele>58</ele>
        <time>2014-06-10T09:50:28Z</time>
      </trkpt>
      <trkpt lat="48.67557" lon="-2.32673">
        <ele>58</ele>
        <time>2014-06-10T09:50:30Z</time>
      </trkpt>
      <trkpt lat="48.6756" lon="-2.3267">
        <ele>57</ele>
        <time>2014-06-10T09:50:33Z</time>
      </trkpt>
      <trkpt lat="48.67563" lon="-2.32668">
        <ele>57</ele>
        <time>2014-06-10T09:50:35Z</time>
      </trkpt>
      <trkpt lat="48.67565" lon="-2.32667">
        <ele>57</ele>
        <time>2014-06-10T09:50:37Z</time>
      </trkpt>
      <trkpt lat="48.67568" lon="-2.32665">
        <ele>56</ele>
        <time>2014-06-10T09:50:39Z</time>
      </trkpt>
      <trkpt lat="48.67571" lon="-2.32662">
        <ele>56</ele>
        <time>2014-06-10T09:50:42Z</time>
      </trkpt>
      <trkpt lat="48.67573" lon="-2.3266">
        <ele>55</ele>
        <time>2014-06-10T09:50:44Z</time>
      </trkpt>
      <trkpt lat="48.67577" lon="-2.32656">
        <ele>55</ele>
        <time>2014-06-10T09:50:47Z</time>
      </trkpt>
      <trkpt lat="48.67579" lon="-2.32654">
        <ele>54</ele>
        <time>2014-06-10T09:50:49Z</time>
      </trkpt>
      <trkpt lat="48.67581" lon="-2.32651">
        <ele>54</ele>
        <time>2014-06-10T09:50:51Z</time>
      </trkpt>
      <trkpt lat="48.67585" lon="-2.32646">
        <ele>54</ele>
        <time>2014-06-10T09:50:55Z</time>
      </trkpt>
      <trkpt lat="48.67588" lon="-2.32643">
        <ele>53</ele>
        <time>2014-06-10T09:50:58Z</time>
      </trkpt>
      <trkpt lat="48.67591" lon="-2.32641">
        <ele>53</ele>
        <time>2014-06-10T09:51:00Z</time>
      </trkpt>
      <trkpt lat="48.67593" lon="-2.32638">
        <ele>53</ele>
        <time>2014-06-10T09:51:02Z</time>
      </trkpt>
      <trkpt lat="48.67595" lon="-2.32632">
        <ele>53</ele>
        <time>2014-06-10T09:51:05Z</time>
      </trkpt>
      <trkpt lat="48.67596" lon="-2.32629">
        <ele>52</ele>
        <time>2014-06-10T09:51:07Z</time>
      </trkpt>
      <trkpt lat="48.67597" lon="-2.32622">
        <ele>52</ele>
        <time>2014-06-10T09:51:10Z</time>
      </trkpt>
      <trkpt lat="48.67598" lon="-2.32618">
        <ele>52</ele>
        <time>2014-06-10T09:51:12Z</time>
      </trkpt>
      <trkpt lat="48.67601" lon="-2.32613">
        <ele>52</ele>
        <time>2014-06-10T09:51:15Z</time>
      </trkpt>
      <trkpt lat="48.67602" lon="-2.32607">
        <ele>52</ele>
        <time>2014-06-10T09:51:17Z</time>
      </trkpt>
      <trkpt lat="48.67605" lon="-2.32606">
        <ele>52</ele>
        <time>2014-06-10T09:51:19Z</time>
      </trkpt>
      <trkpt lat="48.67608" lon="-2.32607">
        <ele>52</ele>
        <time>2014-06-10T09:51:21Z</time>
      </trkpt>
      <trkpt lat="48.6761" lon="-2.32609">
        <ele>52</ele>
        <time>2014-06-10T09:51:23Z</time>
      </trkpt>
      <trkpt lat="48.67613" lon="-2.32611">
        <ele>52</ele>
        <time>2014-06-10T09:51:25Z</time>
      </trkpt>
      <trkpt lat="48.67615" lon="-2.32613">
        <ele>52</ele>
        <time>2014-06-10T09:51:27Z</time>
      </trkpt>
      <trkpt lat="48.67617" lon="-2.32613">
        <ele>52</ele>
        <time>2014-06-10T09:51:29Z</time>
      </trkpt>
      <trkpt lat="48.67619" lon="-2.32611">
        <ele>52</ele>
        <time>2014-06-10T09:51:31Z</time>
      </trkpt>
      <trkpt lat="48.6762" lon="-2.32609">
        <ele>52</ele>
        <time>2014-06-10T09:51:33Z</time>
      </trkpt>
      <trkpt lat="48.67622" lon="-2.32607">
        <ele>52</ele>
        <time>2014-06-10T09:51:35Z</time>
      </trkpt>
      <trkpt lat="48.67623" lon="-2.32608">
        <ele>52</ele>
        <time>2014-06-10T09:51:37Z</time>
      </trkpt>
      <trkpt lat="48.67624" lon="-2.32611">
        <ele>52</ele>
        <time>2014-06-10T09:51:39Z</time>
      </trkpt>
      <trkpt lat="48.67624" lon="-2.32615">
        <ele>52</ele>
        <time>2014-06-10T09:51:41Z</time>
      </trkpt>
      <trkpt lat="48.67624" lon="-2.32619">
        <ele>52</ele>
        <time>2014-06-10T09:51:43Z</time>
      </trkpt>
      <trkpt lat="48.67623" lon="-2.32623">
        <ele>52</ele>
        <time>2014-06-10T09:51:46Z</time>
      </trkpt>
      <trkpt lat="48.67624" lon="-2.32625">
        <ele>52</ele>
        <time>2014-06-10T09:51:56Z</time>
      </trkpt>
      <trkpt lat="48.67624" lon="-2.32629">
        <ele>52</ele>
        <time>2014-06-10T09:51:58Z</time>
      </trkpt>
      <trkpt lat="48.67623" lon="-2.32633">
        <ele>52</ele>
        <time>2014-06-10T09:52:00Z</time>
      </trkpt>
      <trkpt lat="48.67623" lon="-2.32638">
        <ele>52</ele>
        <time>2014-06-10T09:52:02Z</time>
      </trkpt>
      <trkpt lat="48.67623" lon="-2.32642">
        <ele>52</ele>
        <time>2014-06-10T09:52:04Z</time>
      </trkpt>
      <trkpt lat="48.67622" lon="-2.32646">
        <ele>52</ele>
        <time>2014-06-10T09:52:06Z</time>
      </trkpt>
      <trkpt lat="48.67622" lon="-2.3265">
        <ele>52</ele>
        <time>2014-06-10T09:52:08Z</time>
      </trkpt>
      <trkpt lat="48.67621" lon="-2.32655">
        <ele>52</ele>
        <time>2014-06-10T09:52:10Z</time>
      </trkpt>
      <trkpt lat="48.67621" lon="-2.32659">
        <ele>52</ele>
        <time>2014-06-10T09:52:12Z</time>
      </trkpt>
      <trkpt lat="48.6762" lon="-2.32663">
        <ele>52</ele>
        <time>2014-06-10T09:52:14Z</time>
      </trkpt>
      <trkpt lat="48.67619" lon="-2.32667">
        <ele>52</ele>
        <time>2014-06-10T09:52:16Z</time>
      </trkpt>
      <trkpt lat="48.67618" lon="-2.32671">
        <ele>52</ele>
        <time>2014-06-10T09:52:18Z</time>
      </trkpt>
      <trkpt lat="48.67617" lon="-2.32675">
        <ele>52</ele>
        <time>2014-06-10T09:52:20Z</time>
      </trkpt>
      <trkpt lat="48.67615" lon="-2.32679">
        <ele>52</ele>
        <time>2014-06-10T09:52:22Z</time>
      </trkpt>
      <trkpt lat="48.67614" lon="-2.32682">
        <ele>52</ele>
        <time>2014-06-10T09:52:24Z</time>
      </trkpt>
      <trkpt lat="48.67612" lon="-2.32685">
        <ele>52</ele>
        <time>2014-06-10T09:52:26Z</time>
      </trkpt>
      <trkpt lat="48.6761" lon="-2.32689">
        <ele>52</ele>
        <time>2014-06-10T09:52:28Z</time>
      </trkpt>
      <trkpt lat="48.67609" lon="-2.32692">
        <ele>52</ele>
        <time>2014-06-10T09:52:30Z</time>
      </trkpt>
      <trkpt lat="48.67607" lon="-2.32696">
        <ele>52</ele>
        <time>2014-06-10T09:52:32Z</time>
      </trkpt>
      <trkpt lat="48.67606" lon="-2.32699">
        <ele>52</ele>
        <time>2014-06-10T09:52:34Z</time>
      </trkpt>
      <trkpt lat="48.67605" lon="-2.32703">
        <ele>52</ele>
        <time>2014-06-10T09:52:36Z</time>
      </trkpt>
      <trkpt lat="48.67604" lon="-2.32707">
        <ele>52</ele>
        <time>2014-06-10T09:52:38Z</time>
      </trkpt>
      <trkpt lat="48.67606" lon="-2.3271">
        <ele>52</ele>
        <time>2014-06-10T09:52:42Z</time>
      </trkpt>
      <trkpt lat="48.67608" lon="-2.32708">
        <ele>52</ele>
        <time>2014-06-10T09:52:44Z</time>
      </trkpt>
      <trkpt lat="48.6761" lon="-2.32705">
        <ele>52</ele>
        <time>2014-06-10T09:52:46Z</time>
      </trkpt>
      <trkpt lat="48.67611" lon="-2.32699">
        <ele>52</ele>
        <time>2014-06-10T09:52:49Z</time>
      </trkpt>
      <trkpt lat="48.67612" lon="-2.32697">
        <ele>53</ele>
        <time>2014-06-10T09:52:51Z</time>
      </trkpt>
      <trkpt lat="48.67614" lon="-2.32695">
        <ele>55</ele>
        <time>2014-06-10T09:52:53Z</time>
      </trkpt>
      <trkpt lat="48.67616" lon="-2.32693">
        <ele>56</ele>
        <time>2014-06-10T09:52:55Z</time>
      </trkpt>
      <trkpt lat="48.67618" lon="-2.3269">
        <ele>56</ele>
        <time>2014-06-10T09:52:57Z</time>
      </trkpt>
      <trkpt lat="48.67619" lon="-2.32687">
        <ele>56</ele>
        <time>2014-06-10T09:52:59Z</time>
      </trkpt>
      <trkpt lat="48.6762" lon="-2.32683">
        <ele>56</ele>
        <time>2014-06-10T09:53:01Z</time>
      </trkpt>
      <trkpt lat="48.67621" lon="-2.32679">
        <ele>56</ele>
        <time>2014-06-10T09:53:03Z</time>
      </trkpt>
      <trkpt lat="48.67622" lon="-2.32675">
        <ele>56</ele>
        <time>2014-06-10T09:53:05Z</time>
      </trkpt>
      <trkpt lat="48.67624" lon="-2.32671">
        <ele>56</ele>
        <time>2014-06-10T09:53:07Z</time>
      </trkpt>
      <trkpt lat="48.67625" lon="-2.32667">
        <ele>56</ele>
        <time>2014-06-10T09:53:09Z</time>
      </trkpt>
      <trkpt lat="48.67626" lon="-2.32664">
        <ele>56</ele>
        <time>2014-06-10T09:53:11Z</time>
      </trkpt>
      <trkpt lat="48.67629" lon="-2.3266">
        <ele>56</ele>
        <time>2014-06-10T09:53:14Z</time>
      </trkpt>
      <trkpt lat="48.67631" lon="-2.32656">
        <ele>56</ele>
        <time>2014-06-10T09:53:16Z</time>
      </trkpt>
      <trkpt lat="48.67633" lon="-2.32651">
        <ele>56</ele>
        <time>2014-06-10T09:53:19Z</time>
      </trkpt>
      <trkpt lat="48.67635" lon="-2.32648">
        <ele>56</ele>
        <time>2014-06-10T09:53:21Z</time>
      </trkpt>
      <trkpt lat="48.67636" lon="-2.32645">
        <ele>57</ele>
        <time>2014-06-10T09:53:23Z</time>
      </trkpt>
      <trkpt lat="48.67637" lon="-2.32641">
        <ele>57</ele>
        <time>2014-06-10T09:53:25Z</time>
      </trkpt>
      <trkpt lat="48.67638" lon="-2.32638">
        <ele>57</ele>
        <time>2014-06-10T09:53:27Z</time>
      </trkpt>
      <trkpt lat="48.67639" lon="-2.32634">
        <ele>57</ele>
        <time>2014-06-10T09:53:29Z</time>
      </trkpt>
      <trkpt lat="48.6764" lon="-2.32629">
        <ele>57</ele>
        <time>2014-06-10T09:53:31Z</time>
      </trkpt>
      <trkpt lat="48.67641" lon="-2.32625">
        <ele>57</ele>
        <time>2014-06-10T09:53:33Z</time>
      </trkpt>
      <trkpt lat="48.6764" lon="-2.32616">
        <ele>58</ele>
        <time>2014-06-10T09:53:35Z</time>
      </trkpt>
      <trkpt lat="48.67643" lon="-2.32614">
        <ele>60</ele>
        <time>2014-06-10T09:53:37Z</time>
      </trkpt>
      <trkpt lat="48.67645" lon="-2.32612">
        <ele>62</ele>
        <time>2014-06-10T09:53:39Z</time>
      </trkpt>
      <trkpt lat="48.67648" lon="-2.32609">
        <ele>63</ele>
        <time>2014-06-10T09:53:42Z</time>
      </trkpt>
      <trkpt lat="48.6765" lon="-2.32607">
        <ele>63</ele>
        <time>2014-06-10T09:53:44Z</time>
      </trkpt>
      <trkpt lat="48.67653" lon="-2.32606">
        <ele>63</ele>
        <time>2014-06-10T09:53:46Z</time>
      </trkpt>
      <trkpt lat="48.67656" lon="-2.32605">
        <ele>63</ele>
        <time>2014-06-10T09:53:48Z</time>
      </trkpt>
      <trkpt lat="48.67658" lon="-2.32603">
        <ele>63</ele>
        <time>2014-06-10T09:53:50Z</time>
      </trkpt>
      <trkpt lat="48.67661" lon="-2.32602">
        <ele>63</ele>
        <time>2014-06-10T09:53:52Z</time>
      </trkpt>
      <trkpt lat="48.67664" lon="-2.326">
        <ele>63</ele>
        <time>2014-06-10T09:53:54Z</time>
      </trkpt>
      <trkpt lat="48.67666" lon="-2.32599">
        <ele>63</ele>
        <time>2014-06-10T09:53:56Z</time>
      </trkpt>
      <trkpt lat="48.67669" lon="-2.32597">
        <ele>63</ele>
        <time>2014-06-10T09:53:58Z</time>
      </trkpt>
      <trkpt lat="48.67672" lon="-2.32596">
        <ele>63</ele>
        <time>2014-06-10T09:54:00Z</time>
      </trkpt>
      <trkpt lat="48.67674" lon="-2.32594">
        <ele>63</ele>
        <time>2014-06-10T09:54:02Z</time>
      </trkpt>
      <trkpt lat="48.67676" lon="-2.32592">
        <ele>63</ele>
        <time>2014-06-10T09:54:04Z</time>
      </trkpt>
      <trkpt lat="48.67679" lon="-2.3259">
        <ele>63</ele>
        <time>2014-06-10T09:54:06Z</time>
      </trkpt>
      <trkpt lat="48.67681" lon="-2.32587">
        <ele>63</ele>
        <time>2014-06-10T09:54:08Z</time>
      </trkpt>
      <trkpt lat="48.67682" lon="-2.32583">
        <ele>63</ele>
        <time>2014-06-10T09:54:10Z</time>
      </trkpt>
      <trkpt lat="48.67682" lon="-2.32579">
        <ele>63</ele>
        <time>2014-06-10T09:54:12Z</time>
      </trkpt>
      <trkpt lat="48.67682" lon="-2.32575">
        <ele>63</ele>
        <time>2014-06-10T09:54:14Z</time>
      </trkpt>
      <trkpt lat="48.67681" lon="-2.32572">
        <ele>63</ele>
        <time>2014-06-10T09:54:16Z</time>
      </trkpt>
      <trkpt lat="48.67679" lon="-2.32568">
        <ele>63</ele>
        <time>2014-06-10T09:54:18Z</time>
      </trkpt>
      <trkpt lat="48.67678" lon="-2.32564">
        <ele>63</ele>
        <time>2014-06-10T09:54:20Z</time>
      </trkpt>
      <trkpt lat="48.67677" lon="-2.3256">
        <ele>63</ele>
        <time>2014-06-10T09:54:22Z</time>
      </trkpt>
      <trkpt lat="48.67677" lon="-2.32556">
        <ele>63</ele>
        <time>2014-06-10T09:54:24Z</time>
      </trkpt>
      <trkpt lat="48.67677" lon="-2.32551">
        <ele>63</ele>
        <time>2014-06-10T09:54:26Z</time>
      </trkpt>
      <trkpt lat="48.67678" lon="-2.32547">
        <ele>63</ele>
        <time>2014-06-10T09:54:28Z</time>
      </trkpt>
      <trkpt lat="48.67679" lon="-2.32543">
        <ele>63</ele>
        <time>2014-06-10T09:54:30Z</time>
      </trkpt>
      <trkpt lat="48.6768" lon="-2.32539">
        <ele>63</ele>
        <time>2014-06-10T09:54:32Z</time>
      </trkpt>
      <trkpt lat="48.67681" lon="-2.32536">
        <ele>63</ele>
        <time>2014-06-10T09:54:34Z</time>
      </trkpt>
      <trkpt lat="48.67683" lon="-2.32532">
        <ele>62</ele>
        <time>2014-06-10T09:54:36Z</time>
      </trkpt>
      <trkpt lat="48.67683" lon="-2.32525">
        <ele>62</ele>
        <time>2014-06-10T09:54:38Z</time>
      </trkpt>
      <trkpt lat="48.67686" lon="-2.32523">
        <ele>62</ele>
        <time>2014-06-10T09:54:40Z</time>
      </trkpt>
      <trkpt lat="48.67689" lon="-2.32521">
        <ele>62</ele>
        <time>2014-06-10T09:54:42Z</time>
      </trkpt>
      <trkpt lat="48.67692" lon="-2.3252">
        <ele>62</ele>
        <time>2014-06-10T09:54:44Z</time>
      </trkpt>
      <trkpt lat="48.67695" lon="-2.32519">
        <ele>62</ele>
        <time>2014-06-10T09:54:46Z</time>
      </trkpt>
      <trkpt lat="48.67697" lon="-2.32517">
        <ele>62</ele>
        <time>2014-06-10T09:54:48Z</time>
      </trkpt>
      <trkpt lat="48.677" lon="-2.32516">
        <ele>62</ele>
        <time>2014-06-10T09:54:50Z</time>
      </trkpt>
      <trkpt lat="48.67703" lon="-2.32515">
        <ele>62</ele>
        <time>2014-06-10T09:54:52Z</time>
      </trkpt>
      <trkpt lat="48.67706" lon="-2.32513">
        <ele>62</ele>
        <time>2014-06-10T09:54:54Z</time>
      </trkpt>
      <trkpt lat="48.67708" lon="-2.32512">
        <ele>62</ele>
        <time>2014-06-10T09:54:56Z</time>
      </trkpt>
      <trkpt lat="48.67711" lon="-2.3251">
        <ele>62</ele>
        <time>2014-06-10T09:54:58Z</time>
      </trkpt>
      <trkpt lat="48.67713" lon="-2.32508">
        <ele>62</ele>
        <time>2014-06-10T09:55:00Z</time>
      </trkpt>
      <trkpt lat="48.67715" lon="-2.32505">
        <ele>62</ele>
        <time>2014-06-10T09:55:02Z</time>
      </trkpt>
      <trkpt lat="48.67719" lon="-2.32501">
        <ele>62</ele>
        <time>2014-06-10T09:55:05Z</time>
      </trkpt>
      <trkpt lat="48.67721" lon="-2.32496">
        <ele>62</ele>
        <time>2014-06-10T09:55:08Z</time>
      </trkpt>
      <trkpt lat="48.67723" lon="-2.32493">
        <ele>62</ele>
        <time>2014-06-10T09:55:10Z</time>
      </trkpt>
      <trkpt lat="48.67725" lon="-2.32486">
        <ele>62</ele>
        <time>2014-06-10T09:55:13Z</time>
      </trkpt>
      <trkpt lat="48.67728" lon="-2.32485">
        <ele>64</ele>
        <time>2014-06-10T09:55:15Z</time>
      </trkpt>
      <trkpt lat="48.67731" lon="-2.32485">
        <ele>64</ele>
        <time>2014-06-10T09:55:17Z</time>
      </trkpt>
      <trkpt lat="48.67734" lon="-2.32484">
        <ele>64</ele>
        <time>2014-06-10T09:55:19Z</time>
      </trkpt>
      <trkpt lat="48.67736" lon="-2.32483">
        <ele>64</ele>
        <time>2014-06-10T09:55:21Z</time>
      </trkpt>
      <trkpt lat="48.67739" lon="-2.32482">
        <ele>64</ele>
        <time>2014-06-10T09:55:23Z</time>
      </trkpt>
      <trkpt lat="48.67742" lon="-2.32482">
        <ele>64</ele>
        <time>2014-06-10T09:55:25Z</time>
      </trkpt>
      <trkpt lat="48.67745" lon="-2.32481">
        <ele>64</ele>
        <time>2014-06-10T09:55:27Z</time>
      </trkpt>
      <trkpt lat="48.67747" lon="-2.32482">
        <ele>64</ele>
        <time>2014-06-10T09:55:29Z</time>
      </trkpt>
      <trkpt lat="48.6775" lon="-2.32482">
        <ele>64</ele>
        <time>2014-06-10T09:55:31Z</time>
      </trkpt>
      <trkpt lat="48.67753" lon="-2.32483">
        <ele>64</ele>
        <time>2014-06-10T09:55:33Z</time>
      </trkpt>
      <trkpt lat="48.67757" lon="-2.32484">
        <ele>64</ele>
        <time>2014-06-10T09:55:36Z</time>
      </trkpt>
      <trkpt lat="48.67758" lon="-2.32485">
        <ele>64</ele>
        <time>2014-06-10T09:55:38Z</time>
      </trkpt>
      <trkpt lat="48.67759" lon="-2.32486">
        <ele>64</ele>
        <time>2014-06-10T09:55:43Z</time>
      </trkpt>
      <trkpt lat="48.67761" lon="-2.32486">
        <ele>64</ele>
        <time>2014-06-10T09:56:12Z</time>
      </trkpt>
      <trkpt lat="48.67763" lon="-2.32486">
        <ele>64</ele>
        <time>2014-06-10T09:56:14Z</time>
      </trkpt>
      <trkpt lat="48.67767" lon="-2.32485">
        <ele>64</ele>
        <time>2014-06-10T09:56:17Z</time>
      </trkpt>
      <trkpt lat="48.67769" lon="-2.32484">
        <ele>64</ele>
        <time>2014-06-10T09:56:20Z</time>
      </trkpt>
      <trkpt lat="48.67768" lon="-2.32485">
        <ele>64</ele>
        <time>2014-06-10T09:56:24Z</time>
      </trkpt>
      <trkpt lat="48.67767" lon="-2.32486">
        <ele>64</ele>
        <time>2014-06-10T09:56:26Z</time>
      </trkpt>
      <trkpt lat="48.67769" lon="-2.32484">
        <ele>64</ele>
        <time>2014-06-10T09:56:37Z</time>
      </trkpt>
      <trkpt lat="48.67773" lon="-2.32482">
        <ele>64</ele>
        <time>2014-06-10T09:56:40Z</time>
      </trkpt>
      <trkpt lat="48.67775" lon="-2.32481">
        <ele>64</ele>
        <time>2014-06-10T09:56:42Z</time>
      </trkpt>
      <trkpt lat="48.67778" lon="-2.3248">
        <ele>64</ele>
        <time>2014-06-10T09:56:44Z</time>
      </trkpt>
      <trkpt lat="48.67781" lon="-2.32479">
        <ele>64</ele>
        <time>2014-06-10T09:56:46Z</time>
      </trkpt>
      <trkpt lat="48.67784" lon="-2.32478">
        <ele>64</ele>
        <time>2014-06-10T09:56:48Z</time>
      </trkpt>
      <trkpt lat="48.67787" lon="-2.32477">
        <ele>64</ele>
        <time>2014-06-10T09:56:50Z</time>
      </trkpt>
      <trkpt lat="48.6779" lon="-2.32477">
        <ele>64</ele>
        <time>2014-06-10T09:56:52Z</time>
      </trkpt>
      <trkpt lat="48.67793" lon="-2.32478">
        <ele>64</ele>
        <time>2014-06-10T09:56:54Z</time>
      </trkpt>
      <trkpt lat="48.67796" lon="-2.3248">
        <ele>64</ele>
        <time>2014-06-10T09:56:56Z</time>
      </trkpt>
      <trkpt lat="48.67798" lon="-2.32482">
        <ele>64</ele>
        <time>2014-06-10T09:56:58Z</time>
      </trkpt>
      <trkpt lat="48.67801" lon="-2.32483">
        <ele>64</ele>
        <time>2014-06-10T09:57:00Z</time>
      </trkpt>
      <trkpt lat="48.67804" lon="-2.32483">
        <ele>64</ele>
        <time>2014-06-10T09:57:02Z</time>
      </trkpt>
      <trkpt lat="48.67807" lon="-2.32483">
        <ele>64</ele>
        <time>2014-06-10T09:57:04Z</time>
      </trkpt>
      <trkpt lat="48.6781" lon="-2.32482">
        <ele>64</ele>
        <time>2014-06-10T09:57:06Z</time>
      </trkpt>
      <trkpt lat="48.67812" lon="-2.32482">
        <ele>64</ele>
        <time>2014-06-10T09:57:09Z</time>
      </trkpt>
      <trkpt lat="48.67814" lon="-2.32481">
        <ele>64</ele>
        <time>2014-06-10T09:57:14Z</time>
      </trkpt>
      <trkpt lat="48.67816" lon="-2.32481">
        <ele>64</ele>
        <time>2014-06-10T09:57:16Z</time>
      </trkpt>
      <trkpt lat="48.67819" lon="-2.32481">
        <ele>64</ele>
        <time>2014-06-10T09:57:18Z</time>
      </trkpt>
      <trkpt lat="48.67822" lon="-2.32481">
        <ele>64</ele>
        <time>2014-06-10T09:57:20Z</time>
      </trkpt>
      <trkpt lat="48.67824" lon="-2.32481">
        <ele>64</ele>
        <time>2014-06-10T09:57:22Z</time>
      </trkpt>
      <trkpt lat="48.67826" lon="-2.32481">
        <ele>64</ele>
        <time>2014-06-10T09:57:24Z</time>
      </trkpt>
      <trkpt lat="48.67828" lon="-2.3248">
        <ele>64</ele>
        <time>2014-06-10T09:57:26Z</time>
      </trkpt>
      <trkpt lat="48.67831" lon="-2.32477">
        <ele>64</ele>
        <time>2014-06-10T09:57:28Z</time>
      </trkpt>
      <trkpt lat="48.67833" lon="-2.32475">
        <ele>64</ele>
        <time>2014-06-10T09:57:30Z</time>
      </trkpt>
      <trkpt lat="48.67836" lon="-2.32472">
        <ele>64</ele>
        <time>2014-06-10T09:57:32Z</time>
      </trkpt>
      <trkpt lat="48.67838" lon="-2.3247">
        <ele>64</ele>
        <time>2014-06-10T09:57:34Z</time>
      </trkpt>
      <trkpt lat="48.67842" lon="-2.32465">
        <ele>64</ele>
        <time>2014-06-10T09:57:37Z</time>
      </trkpt>
      <trkpt lat="48.67844" lon="-2.32462">
        <ele>64</ele>
        <time>2014-06-10T09:57:39Z</time>
      </trkpt>
      <trkpt lat="48.67847" lon="-2.3246">
        <ele>64</ele>
        <time>2014-06-10T09:57:41Z</time>
      </trkpt>
      <trkpt lat="48.6785" lon="-2.3246">
        <ele>64</ele>
        <time>2014-06-10T09:57:43Z</time>
      </trkpt>
      <trkpt lat="48.67853" lon="-2.32461">
        <ele>64</ele>
        <time>2014-06-10T09:57:45Z</time>
      </trkpt>
      <trkpt lat="48.67855" lon="-2.32461">
        <ele>64</ele>
        <time>2014-06-10T09:57:47Z</time>
      </trkpt>
      <trkpt lat="48.67858" lon="-2.3246">
        <ele>64</ele>
        <time>2014-06-10T09:57:49Z</time>
      </trkpt>
      <trkpt lat="48.67861" lon="-2.32461">
        <ele>64</ele>
        <time>2014-06-10T09:57:51Z</time>
      </trkpt>
      <trkpt lat="48.67863" lon="-2.32462">
        <ele>64</ele>
        <time>2014-06-10T09:57:53Z</time>
      </trkpt>
      <trkpt lat="48.67866" lon="-2.32465">
        <ele>63</ele>
        <time>2014-06-10T09:57:55Z</time>
      </trkpt>
      <trkpt lat="48.67868" lon="-2.32468">
        <ele>63</ele>
        <time>2014-06-10T09:57:57Z</time>
      </trkpt>
      <trkpt lat="48.6787" lon="-2.32471">
        <ele>63</ele>
        <time>2014-06-10T09:57:59Z</time>
      </trkpt>
      <trkpt lat="48.67871" lon="-2.32474">
        <ele>63</ele>
        <time>2014-06-10T09:58:01Z</time>
      </trkpt>
      <trkpt lat="48.67873" lon="-2.32477">
        <ele>63</ele>
        <time>2014-06-10T09:58:03Z</time>
      </trkpt>
      <trkpt lat="48.67874" lon="-2.3248">
        <ele>63</ele>
        <time>2014-06-10T09:58:05Z</time>
      </trkpt>
      <trkpt lat="48.67876" lon="-2.32482">
        <ele>63</ele>
        <time>2014-06-10T09:58:07Z</time>
      </trkpt>
      <trkpt lat="48.67875" lon="-2.32484">
        <ele>72</ele>
        <time>2014-06-10T09:58:23Z</time>
      </trkpt>
      <trkpt lat="48.67876" lon="-2.32485">
        <ele>72</ele>
        <time>2014-06-10T09:58:27Z</time>
      </trkpt>
      <trkpt lat="48.67878" lon="-2.32485">
        <ele>72</ele>
        <time>2014-06-10T09:58:30Z</time>
      </trkpt>
      <trkpt lat="48.67881" lon="-2.32487">
        <ele>72</ele>
        <time>2014-06-10T09:58:32Z</time>
      </trkpt>
      <trkpt lat="48.67884" lon="-2.32487">
        <ele>72</ele>
        <time>2014-06-10T09:58:34Z</time>
      </trkpt>
      <trkpt lat="48.67887" lon="-2.32487">
        <ele>72</ele>
        <time>2014-06-10T09:58:36Z</time>
      </trkpt>
      <trkpt lat="48.67891" lon="-2.32486">
        <ele>72</ele>
        <time>2014-06-10T09:58:38Z</time>
      </trkpt>
      <trkpt lat="48.67894" lon="-2.32485">
        <ele>72</ele>
        <time>2014-06-10T09:58:40Z</time>
      </trkpt>
      <trkpt lat="48.67897" lon="-2.32485">
        <ele>72</ele>
        <time>2014-06-10T09:58:42Z</time>
      </trkpt>
      <trkpt lat="48.679" lon="-2.32483">
        <ele>72</ele>
        <time>2014-06-10T09:58:44Z</time>
      </trkpt>
      <trkpt lat="48.67902" lon="-2.32482">
        <ele>71</ele>
        <time>2014-06-10T09:58:46Z</time>
      </trkpt>
      <trkpt lat="48.67905" lon="-2.32481">
        <ele>71</ele>
        <time>2014-06-10T09:58:48Z</time>
      </trkpt>
      <trkpt lat="48.67908" lon="-2.32479">
        <ele>70</ele>
        <time>2014-06-10T09:58:50Z</time>
      </trkpt>
      <trkpt lat="48.67911" lon="-2.32477">
        <ele>70</ele>
        <time>2014-06-10T09:58:52Z</time>
      </trkpt>
      <trkpt lat="48.67914" lon="-2.32476">
        <ele>69</ele>
        <time>2014-06-10T09:58:54Z</time>
      </trkpt>
      <trkpt lat="48.67916" lon="-2.32474">
        <ele>69</ele>
        <time>2014-06-10T09:58:56Z</time>
      </trkpt>
      <trkpt lat="48.67919" lon="-2.32472">
        <ele>69</ele>
        <time>2014-06-10T09:58:58Z</time>
      </trkpt>
      <trkpt lat="48.67922" lon="-2.3247">
        <ele>68</ele>
        <time>2014-06-10T09:59:00Z</time>
      </trkpt>
      <trkpt lat="48.67924" lon="-2.32469">
        <ele>68</ele>
        <time>2014-06-10T09:59:02Z</time>
      </trkpt>
      <trkpt lat="48.67927" lon="-2.32467">
        <ele>68</ele>
        <time>2014-06-10T09:59:04Z</time>
      </trkpt>
      <trkpt lat="48.6793" lon="-2.32466">
        <ele>67</ele>
        <time>2014-06-10T09:59:06Z</time>
      </trkpt>
      <trkpt lat="48.67933" lon="-2.32464">
        <ele>67</ele>
        <time>2014-06-10T09:59:08Z</time>
      </trkpt>
      <trkpt lat="48.67935" lon="-2.32462">
        <ele>67</ele>
        <time>2014-06-10T09:59:10Z</time>
      </trkpt>
      <trkpt lat="48.67938" lon="-2.3246">
        <ele>67</ele>
        <time>2014-06-10T09:59:12Z</time>
      </trkpt>
      <trkpt lat="48.6794" lon="-2.32458">
        <ele>66</ele>
        <time>2014-06-10T09:59:14Z</time>
      </trkpt>
      <trkpt lat="48.67943" lon="-2.32457">
        <ele>66</ele>
        <time>2014-06-10T09:59:16Z</time>
      </trkpt>
      <trkpt lat="48.67946" lon="-2.32455">
        <ele>66</ele>
        <time>2014-06-10T09:59:18Z</time>
      </trkpt>
      <trkpt lat="48.67949" lon="-2.32454">
        <ele>66</ele>
        <time>2014-06-10T09:59:20Z</time>
      </trkpt>
      <trkpt lat="48.67951" lon="-2.32452">
        <ele>66</ele>
        <time>2014-06-10T09:59:22Z</time>
      </trkpt>
      <trkpt lat="48.67954" lon="-2.32451">
        <ele>66</ele>
        <time>2014-06-10T09:59:24Z</time>
      </trkpt>
      <trkpt lat="48.67957" lon="-2.32449">
        <ele>66</ele>
        <time>2014-06-10T09:59:26Z</time>
      </trkpt>
      <trkpt lat="48.6796" lon="-2.32448">
        <ele>66</ele>
        <time>2014-06-10T09:59:28Z</time>
      </trkpt>
      <trkpt lat="48.67962" lon="-2.32447">
        <ele>66</ele>
        <time>2014-06-10T09:59:30Z</time>
      </trkpt>
      <trkpt lat="48.67965" lon="-2.32445">
        <ele>66</ele>
        <time>2014-06-10T09:59:32Z</time>
      </trkpt>
      <trkpt lat="48.67968" lon="-2.32443">
        <ele>66</ele>
        <time>2014-06-10T09:59:34Z</time>
      </trkpt>
      <trkpt lat="48.67971" lon="-2.32442">
        <ele>66</ele>
        <time>2014-06-10T09:59:36Z</time>
      </trkpt>
      <trkpt lat="48.67973" lon="-2.32441">
        <ele>66</ele>
        <time>2014-06-10T09:59:38Z</time>
      </trkpt>
      <trkpt lat="48.67976" lon="-2.3244">
        <ele>66</ele>
        <time>2014-06-10T09:59:40Z</time>
      </trkpt>
      <trkpt lat="48.67978" lon="-2.3244">
        <ele>66</ele>
        <time>2014-06-10T09:59:42Z</time>
      </trkpt>
      <trkpt lat="48.67979" lon="-2.32439">
        <ele>66</ele>
        <time>2014-06-10T09:59:44Z</time>
      </trkpt>
      <trkpt lat="48.67981" lon="-2.32438">
        <ele>66</ele>
        <time>2014-06-10T09:59:46Z</time>
      </trkpt>
      <trkpt lat="48.67984" lon="-2.32437">
        <ele>66</ele>
        <time>2014-06-10T09:59:48Z</time>
      </trkpt>
      <trkpt lat="48.67987" lon="-2.32436">
        <ele>66</ele>
        <time>2014-06-10T09:59:50Z</time>
      </trkpt>
      <trkpt lat="48.67989" lon="-2.32435">
        <ele>66</ele>
        <time>2014-06-10T09:59:52Z</time>
      </trkpt>
      <trkpt lat="48.67992" lon="-2.32434">
        <ele>66</ele>
        <time>2014-06-10T09:59:54Z</time>
      </trkpt>
      <trkpt lat="48.67995" lon="-2.32433">
        <ele>66</ele>
        <time>2014-06-10T09:59:56Z</time>
      </trkpt>
      <trkpt lat="48.67997" lon="-2.32431">
        <ele>66</ele>
        <time>2014-06-10T09:59:58Z</time>
      </trkpt>
      <trkpt lat="48.67999" lon="-2.32429">
        <ele>66</ele>
        <time>2014-06-10T10:00:00Z</time>
      </trkpt>
      <trkpt lat="48.68002" lon="-2.32427">
        <ele>66</ele>
        <time>2014-06-10T10:00:02Z</time>
      </trkpt>
      <trkpt lat="48.68004" lon="-2.32428">
        <ele>66</ele>
        <time>2014-06-10T10:00:09Z</time>
      </trkpt>
      <trkpt lat="48.68005" lon="-2.32432">
        <ele>66</ele>
        <time>2014-06-10T10:00:11Z</time>
      </trkpt>
      <trkpt lat="48.68006" lon="-2.32436">
        <ele>66</ele>
        <time>2014-06-10T10:00:13Z</time>
      </trkpt>
      <trkpt lat="48.68007" lon="-2.3244">
        <ele>66</ele>
        <time>2014-06-10T10:00:15Z</time>
      </trkpt>
      <trkpt lat="48.68008" lon="-2.32443">
        <ele>66</ele>
        <time>2014-06-10T10:00:17Z</time>
      </trkpt>
      <trkpt lat="48.6801" lon="-2.32448">
        <ele>66</ele>
        <time>2014-06-10T10:00:19Z</time>
      </trkpt>
      <trkpt lat="48.68011" lon="-2.32451">
        <ele>66</ele>
        <time>2014-06-10T10:00:21Z</time>
      </trkpt>
      <trkpt lat="48.68012" lon="-2.32455">
        <ele>66</ele>
        <time>2014-06-10T10:00:23Z</time>
      </trkpt>
      <trkpt lat="48.68013" lon="-2.32458">
        <ele>66</ele>
        <time>2014-06-10T10:00:25Z</time>
      </trkpt>
      <trkpt lat="48.68015" lon="-2.32463">
        <ele>66</ele>
        <time>2014-06-10T10:00:27Z</time>
      </trkpt>
      <trkpt lat="48.68016" lon="-2.32466">
        <ele>66</ele>
        <time>2014-06-10T10:00:29Z</time>
      </trkpt>
      <trkpt lat="48.68017" lon="-2.3247">
        <ele>66</ele>
        <time>2014-06-10T10:00:31Z</time>
      </trkpt>
      <trkpt lat="48.68018" lon="-2.32473">
        <ele>66</ele>
        <time>2014-06-10T10:00:33Z</time>
      </trkpt>
      <trkpt lat="48.68019" lon="-2.32477">
        <ele>66</ele>
        <time>2014-06-10T10:00:35Z</time>
      </trkpt>
      <trkpt lat="48.68021" lon="-2.3248">
        <ele>66</ele>
        <time>2014-06-10T10:00:37Z</time>
      </trkpt>
      <trkpt lat="48.68022" lon="-2.32484">
        <ele>66</ele>
        <time>2014-06-10T10:00:39Z</time>
      </trkpt>
      <trkpt lat="48.68024" lon="-2.32487">
        <ele>66</ele>
        <time>2014-06-10T10:00:41Z</time>
      </trkpt>
      <trkpt lat="48.68024" lon="-2.32489">
        <ele>66</ele>
        <time>2014-06-10T10:00:43Z</time>
      </trkpt>
      <trkpt lat="48.68022" lon="-2.32489">
        <ele>66</ele>
        <time>2014-06-10T10:00:45Z</time>
      </trkpt>
      <trkpt lat="48.68021" lon="-2.32491">
        <ele>72</ele>
        <time>2014-06-10T10:00:50Z</time>
      </trkpt>
      <trkpt lat="48.68021" lon="-2.32493">
        <ele>80</ele>
        <time>2014-06-10T10:00:54Z</time>
      </trkpt>
      <trkpt lat="48.68023" lon="-2.32495">
        <ele>84</ele>
        <time>2014-06-10T10:00:56Z</time>
      </trkpt>
      <trkpt lat="48.68026" lon="-2.32499">
        <ele>88</ele>
        <time>2014-06-10T10:00:58Z</time>
      </trkpt>
      <trkpt lat="48.68029" lon="-2.32502">
        <ele>90</ele>
        <time>2014-06-10T10:01:00Z</time>
      </trkpt>
      <trkpt lat="48.68032" lon="-2.32505">
        <ele>92</ele>
        <time>2014-06-10T10:01:02Z</time>
      </trkpt>
      <trkpt lat="48.68036" lon="-2.32508">
        <ele>93</ele>
        <time>2014-06-10T10:01:04Z</time>
      </trkpt>
      <trkpt lat="48.68039" lon="-2.32511">
        <ele>93</ele>
        <time>2014-06-10T10:01:06Z</time>
      </trkpt>
      <trkpt lat="48.68042" lon="-2.32512">
        <ele>95</ele>
        <time>2014-06-10T10:01:10Z</time>
      </trkpt>
      <trkpt lat="48.68045" lon="-2.32516">
        <ele>97</ele>
        <time>2014-06-10T10:01:12Z</time>
      </trkpt>
      <trkpt lat="48.68048" lon="-2.32518">
        <ele>98</ele>
        <time>2014-06-10T10:01:14Z</time>
      </trkpt>
      <trkpt lat="48.68051" lon="-2.32521">
        <ele>98</ele>
        <time>2014-06-10T10:01:16Z</time>
      </trkpt>
      <trkpt lat="48.68054" lon="-2.32523">
        <ele>98</ele>
        <time>2014-06-10T10:01:18Z</time>
      </trkpt>
      <trkpt lat="48.68057" lon="-2.32526">
        <ele>98</ele>
        <time>2014-06-10T10:01:20Z</time>
      </trkpt>
      <trkpt lat="48.6806" lon="-2.32528">
        <ele>98</ele>
        <time>2014-06-10T10:01:22Z</time>
      </trkpt>
      <trkpt lat="48.68063" lon="-2.32531">
        <ele>98</ele>
        <time>2014-06-10T10:01:24Z</time>
      </trkpt>
      <trkpt lat="48.68066" lon="-2.32533">
        <ele>98</ele>
        <time>2014-06-10T10:01:26Z</time>
      </trkpt>
      <trkpt lat="48.68069" lon="-2.32536">
        <ele>97</ele>
        <time>2014-06-10T10:01:28Z</time>
      </trkpt>
      <trkpt lat="48.68072" lon="-2.32538">
        <ele>96</ele>
        <time>2014-06-10T10:01:30Z</time>
      </trkpt>
      <trkpt lat="48.68075" lon="-2.32539">
        <ele>95</ele>
        <time>2014-06-10T10:01:32Z</time>
      </trkpt>
      <trkpt lat="48.68078" lon="-2.32541">
        <ele>94</ele>
        <time>2014-06-10T10:01:34Z</time>
      </trkpt>
      <trkpt lat="48.68081" lon="-2.32543">
        <ele>93</ele>
        <time>2014-06-10T10:01:36Z</time>
      </trkpt>
      <trkpt lat="48.68083" lon="-2.32545">
        <ele>92</ele>
        <time>2014-06-10T10:01:38Z</time>
      </trkpt>
      <trkpt lat="48.68086" lon="-2.32547">
        <ele>91</ele>
        <time>2014-06-10T10:01:40Z</time>
      </trkpt>
      <trkpt lat="48.68089" lon="-2.32551">
        <ele>89</ele>
        <time>2014-06-10T10:01:43Z</time>
      </trkpt>
      <trkpt lat="48.68091" lon="-2.32555">
        <ele>89</ele>
        <time>2014-06-10T10:01:45Z</time>
      </trkpt>
      <trkpt lat="48.68094" lon="-2.32559">
        <ele>88</ele>
        <time>2014-06-10T10:01:48Z</time>
      </trkpt>
      <trkpt lat="48.68095" lon="-2.32562">
        <ele>87</ele>
        <time>2014-06-10T10:01:50Z</time>
      </trkpt>
      <trkpt lat="48.68096" lon="-2.32564">
        <ele>86</ele>
        <time>2014-06-10T10:01:52Z</time>
      </trkpt>
      <trkpt lat="48.68098" lon="-2.32566">
        <ele>83</ele>
        <time>2014-06-10T10:01:58Z</time>
      </trkpt>
      <trkpt lat="48.68098" lon="-2.32569">
        <ele>83</ele>
        <time>2014-06-10T10:02:00Z</time>
      </trkpt>
      <trkpt lat="48.68097" lon="-2.32572">
        <ele>82</ele>
        <time>2014-06-10T10:02:03Z</time>
      </trkpt>
      <trkpt lat="48.68095" lon="-2.32573">
        <ele>81</ele>
        <time>2014-06-10T10:02:05Z</time>
      </trkpt>
      <trkpt lat="48.68096" lon="-2.32573">
        <ele>81</ele>
        <time>2014-06-10T10:02:09Z</time>
      </trkpt>
      <trkpt lat="48.68097" lon="-2.32575">
        <ele>79</ele>
        <time>2014-06-10T10:02:15Z</time>
      </trkpt>
      <trkpt lat="48.68098" lon="-2.32576">
        <ele>77</ele>
        <time>2014-06-10T10:02:25Z</time>
      </trkpt>
      <trkpt lat="48.68099" lon="-2.32576">
        <ele>76</ele>
        <time>2014-06-10T10:02:30Z</time>
      </trkpt>
      <trkpt lat="48.68101" lon="-2.32576">
        <ele>76</ele>
        <time>2014-06-10T10:02:32Z</time>
      </trkpt>
      <trkpt lat="48.68104" lon="-2.32577">
        <ele>75</ele>
        <time>2014-06-10T10:02:34Z</time>
      </trkpt>
      <trkpt lat="48.68106" lon="-2.32577">
        <ele>75</ele>
        <time>2014-06-10T10:02:36Z</time>
      </trkpt>
      <trkpt lat="48.68109" lon="-2.32577">
        <ele>74</ele>
        <time>2014-06-10T10:02:38Z</time>
      </trkpt>
      <trkpt lat="48.68111" lon="-2.32579">
        <ele>74</ele>
        <time>2014-06-10T10:02:40Z</time>
      </trkpt>
      <trkpt lat="48.68114" lon="-2.32582">
        <ele>74</ele>
        <time>2014-06-10T10:02:43Z</time>
      </trkpt>
      <trkpt lat="48.68116" lon="-2.32584">
        <ele>74</ele>
        <time>2014-06-10T10:02:45Z</time>
      </trkpt>
      <trkpt lat="48.68118" lon="-2.32586">
        <ele>73</ele>
        <time>2014-06-10T10:02:47Z</time>
      </trkpt>
      <trkpt lat="48.6812" lon="-2.32587">
        <ele>73</ele>
        <time>2014-06-10T10:02:50Z</time>
      </trkpt>
      <trkpt lat="48.68121" lon="-2.32588">
        <ele>72</ele>
        <time>2014-06-10T10:02:52Z</time>
      </trkpt>
      <trkpt lat="48.68122" lon="-2.3259">
        <ele>70</ele>
        <time>2014-06-10T10:03:07Z</time>
      </trkpt>
      <trkpt lat="48.68123" lon="-2.32593">
        <ele>69</ele>
        <time>2014-06-10T10:03:09Z</time>
      </trkpt>
      <trkpt lat="48.68124" lon="-2.32596">
        <ele>69</ele>
        <time>2014-06-10T10:03:11Z</time>
      </trkpt>
      <trkpt lat="48.68124" lon="-2.32599">
        <ele>68</ele>
        <time>2014-06-10T10:03:13Z</time>
      </trkpt>
      <trkpt lat="48.68124" lon="-2.32603">
        <ele>67</ele>
        <time>2014-06-10T10:03:15Z</time>
      </trkpt>
      <trkpt lat="48.68126" lon="-2.32607">
        <ele>67</ele>
        <time>2014-06-10T10:03:17Z</time>
      </trkpt>
      <trkpt lat="48.68127" lon="-2.3261">
        <ele>67</ele>
        <time>2014-06-10T10:03:19Z</time>
      </trkpt>
      <trkpt lat="48.68129" lon="-2.32613">
        <ele>67</ele>
        <time>2014-06-10T10:03:21Z</time>
      </trkpt>
      <trkpt lat="48.68131" lon="-2.32616">
        <ele>67</ele>
        <time>2014-06-10T10:03:23Z</time>
      </trkpt>
      <trkpt lat="48.68132" lon="-2.3262">
        <ele>67</ele>
        <time>2014-06-10T10:03:25Z</time>
      </trkpt>
      <trkpt lat="48.68134" lon="-2.32623">
        <ele>67</ele>
        <time>2014-06-10T10:03:27Z</time>
      </trkpt>
      <trkpt lat="48.68135" lon="-2.32626">
        <ele>67</ele>
        <time>2014-06-10T10:03:29Z</time>
      </trkpt>
      <trkpt lat="48.68138" lon="-2.3263">
        <ele>67</ele>
        <time>2014-06-10T10:03:32Z</time>
      </trkpt>
      <trkpt lat="48.68141" lon="-2.32632">
        <ele>67</ele>
        <time>2014-06-10T10:03:34Z</time>
      </trkpt>
      <trkpt lat="48.68143" lon="-2.32635">
        <ele>67</ele>
        <time>2014-06-10T10:03:36Z</time>
      </trkpt>
      <trkpt lat="48.68145" lon="-2.32638">
        <ele>67</ele>
        <time>2014-06-10T10:03:38Z</time>
      </trkpt>
      <trkpt lat="48.68148" lon="-2.32643">
        <ele>67</ele>
        <time>2014-06-10T10:03:41Z</time>
      </trkpt>
      <trkpt lat="48.6815" lon="-2.32645">
        <ele>67</ele>
        <time>2014-06-10T10:03:43Z</time>
      </trkpt>
      <trkpt lat="48.68151" lon="-2.32648">
        <ele>67</ele>
        <time>2014-06-10T10:03:45Z</time>
      </trkpt>
      <trkpt lat="48.68155" lon="-2.32653">
        <ele>67</ele>
        <time>2014-06-10T10:03:48Z</time>
      </trkpt>
      <trkpt lat="48.68157" lon="-2.32655">
        <ele>67</ele>
        <time>2014-06-10T10:03:50Z</time>
      </trkpt>
      <trkpt lat="48.68159" lon="-2.32657">
        <ele>67</ele>
        <time>2014-06-10T10:03:52Z</time>
      </trkpt>
      <trkpt lat="48.68161" lon="-2.32659">
        <ele>67</ele>
        <time>2014-06-10T10:03:54Z</time>
      </trkpt>
      <trkpt lat="48.68164" lon="-2.32661">
        <ele>67</ele>
        <time>2014-06-10T10:03:56Z</time>
      </trkpt>
      <trkpt lat="48.68166" lon="-2.32663">
        <ele>67</ele>
        <time>2014-06-10T10:03:58Z</time>
      </trkpt>
      <trkpt lat="48.68168" lon="-2.32664">
        <ele>67</ele>
        <time>2014-06-10T10:04:00Z</time>
      </trkpt>
      <trkpt lat="48.68171" lon="-2.32665">
        <ele>67</ele>
        <time>2014-06-10T10:04:02Z</time>
      </trkpt>
      <trkpt lat="48.68173" lon="-2.32665">
        <ele>67</ele>
        <time>2014-06-10T10:04:04Z</time>
      </trkpt>
      <trkpt lat="48.68176" lon="-2.32665">
        <ele>67</ele>
        <time>2014-06-10T10:04:06Z</time>
      </trkpt>
      <trkpt lat="48.68178" lon="-2.32665">
        <ele>67</ele>
        <time>2014-06-10T10:04:08Z</time>
      </trkpt>
      <trkpt lat="48.6818" lon="-2.32666">
        <ele>67</ele>
        <time>2014-06-10T10:04:10Z</time>
      </trkpt>
      <trkpt lat="48.68183" lon="-2.32667">
        <ele>67</ele>
        <time>2014-06-10T10:04:12Z</time>
      </trkpt>
      <trkpt lat="48.68185" lon="-2.32669">
        <ele>67</ele>
        <time>2014-06-10T10:04:14Z</time>
      </trkpt>
      <trkpt lat="48.68186" lon="-2.32672">
        <ele>67</ele>
        <time>2014-06-10T10:04:16Z</time>
      </trkpt>
      <trkpt lat="48.68188" lon="-2.32674">
        <ele>67</ele>
        <time>2014-06-10T10:04:18Z</time>
      </trkpt>
      <trkpt lat="48.68189" lon="-2.32675">
        <ele>67</ele>
        <time>2014-06-10T10:04:20Z</time>
      </trkpt>
      <trkpt lat="48.6819" lon="-2.32676">
        <ele>67</ele>
        <time>2014-06-10T10:04:23Z</time>
      </trkpt>
      <trkpt lat="48.68192" lon="-2.32679">
        <ele>67</ele>
        <time>2014-06-10T10:04:26Z</time>
      </trkpt>
      <trkpt lat="48.68192" lon="-2.3268">
        <ele>67</ele>
        <time>2014-06-10T10:04:28Z</time>
      </trkpt>
      <trkpt lat="48.68191" lon="-2.32682">
        <ele>67</ele>
        <time>2014-06-10T10:04:40Z</time>
      </trkpt>
      <trkpt lat="48.68191" lon="-2.32679">
        <ele>65</ele>
        <time>2014-06-10T10:05:08Z</time>
      </trkpt>
      <trkpt lat="48.68191" lon="-2.32677">
        <ele>65</ele>
        <time>2014-06-10T10:05:10Z</time>
      </trkpt>
      <trkpt lat="48.68193" lon="-2.32676">
        <ele>65</ele>
        <time>2014-06-10T10:05:12Z</time>
      </trkpt>
      <trkpt lat="48.68194" lon="-2.32675">
        <ele>65</ele>
        <time>2014-06-10T10:05:14Z</time>
      </trkpt>
      <trkpt lat="48.68195" lon="-2.32675">
        <ele>65</ele>
        <time>2014-06-10T10:05:16Z</time>
      </trkpt>
      <trkpt lat="48.68197" lon="-2.32675">
        <ele>65</ele>
        <time>2014-06-10T10:05:18Z</time>
      </trkpt>
      <trkpt lat="48.68198" lon="-2.32674">
        <ele>64</ele>
        <time>2014-06-10T10:05:48Z</time>
      </trkpt>
      <trkpt lat="48.68196" lon="-2.32675">
        <ele>64</ele>
        <time>2014-06-10T10:06:12Z</time>
      </trkpt>
      <trkpt lat="48.68195" lon="-2.32676">
        <ele>64</ele>
        <time>2014-06-10T10:06:14Z</time>
      </trkpt>
      <trkpt lat="48.68193" lon="-2.32676">
        <ele>64</ele>
        <time>2014-06-10T10:06:16Z</time>
      </trkpt>
      <trkpt lat="48.68191" lon="-2.32676">
        <ele>64</ele>
        <time>2014-06-10T10:06:18Z</time>
      </trkpt>
      <trkpt lat="48.68189" lon="-2.32676">
        <ele>64</ele>
        <time>2014-06-10T10:06:20Z</time>
      </trkpt>
      <trkpt lat="48.68187" lon="-2.32675">
        <ele>64</ele>
        <time>2014-06-10T10:06:22Z</time>
      </trkpt>
      <trkpt lat="48.68186" lon="-2.32673">
        <ele>64</ele>
        <time>2014-06-10T10:06:24Z</time>
      </trkpt>
      <trkpt lat="48.68184" lon="-2.3267">
        <ele>64</ele>
        <time>2014-06-10T10:06:26Z</time>
      </trkpt>
      <trkpt lat="48.68183" lon="-2.32668">
        <ele>64</ele>
        <time>2014-06-10T10:06:28Z</time>
      </trkpt>
      <trkpt lat="48.68181" lon="-2.32667">
        <ele>64</ele>
        <time>2014-06-10T10:06:30Z</time>
      </trkpt>
      <trkpt lat="48.68177" lon="-2.32665">
        <ele>64</ele>
        <time>2014-06-10T10:06:33Z</time>
      </trkpt>
      <trkpt lat="48.68175" lon="-2.32665">
        <ele>64</ele>
        <time>2014-06-10T10:06:35Z</time>
      </trkpt>
      <trkpt lat="48.68173" lon="-2.32665">
        <ele>64</ele>
        <time>2014-06-10T10:06:37Z</time>
      </trkpt>
      <trkpt lat="48.68171" lon="-2.32665">
        <ele>64</ele>
        <time>2014-06-10T10:06:39Z</time>
      </trkpt>
      <trkpt lat="48.68169" lon="-2.32665">
        <ele>64</ele>
        <time>2014-06-10T10:06:41Z</time>
      </trkpt>
      <trkpt lat="48.68166" lon="-2.32664">
        <ele>64</ele>
        <time>2014-06-10T10:06:44Z</time>
      </trkpt>
      <trkpt lat="48.68165" lon="-2.32662">
        <ele>64</ele>
        <time>2014-06-10T10:06:46Z</time>
      </trkpt>
      <trkpt lat="48.68163" lon="-2.3266">
        <ele>64</ele>
        <time>2014-06-10T10:06:48Z</time>
      </trkpt>
      <trkpt lat="48.68159" lon="-2.32658">
        <ele>64</ele>
        <time>2014-06-10T10:06:51Z</time>
      </trkpt>
      <trkpt lat="48.68156" lon="-2.32654">
        <ele>64</ele>
        <time>2014-06-10T10:06:54Z</time>
      </trkpt>
      <trkpt lat="48.68154" lon="-2.32652">
        <ele>64</ele>
        <time>2014-06-10T10:06:56Z</time>
      </trkpt>
      <trkpt lat="48.68152" lon="-2.32649">
        <ele>64</ele>
        <time>2014-06-10T10:06:58Z</time>
      </trkpt>
      <trkpt lat="48.68149" lon="-2.32644">
        <ele>64</ele>
        <time>2014-06-10T10:07:01Z</time>
      </trkpt>
      <trkpt lat="48.68147" lon="-2.32642">
        <ele>64</ele>
        <time>2014-06-10T10:07:03Z</time>
      </trkpt>
      <trkpt lat="48.68145" lon="-2.32638">
        <ele>64</ele>
        <time>2014-06-10T10:07:05Z</time>
      </trkpt>
      <trkpt lat="48.68143" lon="-2.32635">
        <ele>64</ele>
        <time>2014-06-10T10:07:07Z</time>
      </trkpt>
      <trkpt lat="48.68142" lon="-2.32632">
        <ele>64</ele>
        <time>2014-06-10T10:07:09Z</time>
      </trkpt>
      <trkpt lat="48.68139" lon="-2.3263">
        <ele>64</ele>
        <time>2014-06-10T10:07:11Z</time>
      </trkpt>
      <trkpt lat="48.68137" lon="-2.32628">
        <ele>64</ele>
        <time>2014-06-10T10:07:13Z</time>
      </trkpt>
      <trkpt lat="48.68135" lon="-2.32625">
        <ele>64</ele>
        <time>2014-06-10T10:07:15Z</time>
      </trkpt>
      <trkpt lat="48.68134" lon="-2.32622">
        <ele>64</ele>
        <time>2014-06-10T10:07:17Z</time>
      </trkpt>
      <trkpt lat="48.68132" lon="-2.32618">
        <ele>64</ele>
        <time>2014-06-10T10:07:19Z</time>
      </trkpt>
      <trkpt lat="48.68131" lon="-2.32614">
        <ele>64</ele>
        <time>2014-06-10T10:07:21Z</time>
      </trkpt>
      <trkpt lat="48.68129" lon="-2.32611">
        <ele>64</ele>
        <time>2014-06-10T10:07:23Z</time>
      </trkpt>
      <trkpt lat="48.68127" lon="-2.32608">
        <ele>64</ele>
        <time>2014-06-10T10:07:25Z</time>
      </trkpt>
      <trkpt lat="48.68126" lon="-2.32605">
        <ele>64</ele>
        <time>2014-06-10T10:07:27Z</time>
      </trkpt>
      <trkpt lat="48.68123" lon="-2.32601">
        <ele>64</ele>
        <time>2014-06-10T10:07:30Z</time>
      </trkpt>
      <trkpt lat="48.68121" lon="-2.32598">
        <ele>64</ele>
        <time>2014-06-10T10:07:32Z</time>
      </trkpt>
      <trkpt lat="48.6812" lon="-2.32596">
        <ele>64</ele>
        <time>2014-06-10T10:07:34Z</time>
      </trkpt>
      <trkpt lat="48.68119" lon="-2.32593">
        <ele>64</ele>
        <time>2014-06-10T10:07:36Z</time>
      </trkpt>
      <trkpt lat="48.68118" lon="-2.32591">
        <ele>64</ele>
        <time>2014-06-10T10:07:38Z</time>
      </trkpt>
      <trkpt lat="48.68119" lon="-2.32588">
        <ele>65</ele>
        <time>2014-06-10T10:07:40Z</time>
      </trkpt>
      <trkpt lat="48.68119" lon="-2.32587">
        <ele>65</ele>
        <time>2014-06-10T10:07:43Z</time>
      </trkpt>
      <trkpt lat="48.68118" lon="-2.32585">
        <ele>65</ele>
        <time>2014-06-10T10:07:45Z</time>
      </trkpt>
      <trkpt lat="48.68116" lon="-2.32583">
        <ele>65</ele>
        <time>2014-06-10T10:07:47Z</time>
      </trkpt>
      <trkpt lat="48.68114" lon="-2.3258">
        <ele>65</ele>
        <time>2014-06-10T10:07:49Z</time>
      </trkpt>
      <trkpt lat="48.68113" lon="-2.32578">
        <ele>65</ele>
        <time>2014-06-10T10:07:51Z</time>
      </trkpt>
      <trkpt lat="48.68111" lon="-2.32575">
        <ele>65</ele>
        <time>2014-06-10T10:07:53Z</time>
      </trkpt>
      <trkpt lat="48.68109" lon="-2.32573">
        <ele>65</ele>
        <time>2014-06-10T10:07:55Z</time>
      </trkpt>
      <trkpt lat="48.68107" lon="-2.32571">
        <ele>65</ele>
        <time>2014-06-10T10:07:57Z</time>
      </trkpt>
      <trkpt lat="48.68104" lon="-2.3257">
        <ele>65</ele>
        <time>2014-06-10T10:07:59Z</time>
      </trkpt>
      <trkpt lat="48.68102" lon="-2.32569">
        <ele>65</ele>
        <time>2014-06-10T10:08:01Z</time>
      </trkpt>
      <trkpt lat="48.681" lon="-2.32567">
        <ele>65</ele>
        <time>2014-06-10T10:08:03Z</time>
      </trkpt>
      <trkpt lat="48.68098" lon="-2.32564">
        <ele>65</ele>
        <time>2014-06-10T10:08:05Z</time>
      </trkpt>
      <trkpt lat="48.68096" lon="-2.32561">
        <ele>65</ele>
        <time>2014-06-10T10:08:07Z</time>
      </trkpt>
      <trkpt lat="48.68094" lon="-2.32558">
        <ele>65</ele>
        <time>2014-06-10T10:08:09Z</time>
      </trkpt>
      <trkpt lat="48.68092" lon="-2.32556">
        <ele>65</ele>
        <time>2014-06-10T10:08:11Z</time>
      </trkpt>
      <trkpt lat="48.6809" lon="-2.32553">
        <ele>65</ele>
        <time>2014-06-10T10:08:13Z</time>
      </trkpt>
      <trkpt lat="48.68087" lon="-2.32552">
        <ele>65</ele>
        <time>2014-06-10T10:08:15Z</time>
      </trkpt>
      <trkpt lat="48.68085" lon="-2.3255">
        <ele>65</ele>
        <time>2014-06-10T10:08:17Z</time>
      </trkpt>
      <trkpt lat="48.68082" lon="-2.32548">
        <ele>65</ele>
        <time>2014-06-10T10:08:20Z</time>
      </trkpt>
      <trkpt lat="48.68079" lon="-2.32546">
        <ele>65</ele>
        <time>2014-06-10T10:08:22Z</time>
      </trkpt>
      <trkpt lat="48.68077" lon="-2.32545">
        <ele>65</ele>
        <time>2014-06-10T10:08:24Z</time>
      </trkpt>
      <trkpt lat="48.68075" lon="-2.32543">
        <ele>65</ele>
        <time>2014-06-10T10:08:26Z</time>
      </trkpt>
      <trkpt lat="48.68073" lon="-2.32541">
        <ele>65</ele>
        <time>2014-06-10T10:08:28Z</time>
      </trkpt>
      <trkpt lat="48.6807" lon="-2.3254">
        <ele>65</ele>
        <time>2014-06-10T10:08:30Z</time>
      </trkpt>
      <trkpt lat="48.68068" lon="-2.32538">
        <ele>65</ele>
        <time>2014-06-10T10:08:32Z</time>
      </trkpt>
      <trkpt lat="48.68065" lon="-2.32535">
        <ele>65</ele>
        <time>2014-06-10T10:08:34Z</time>
      </trkpt>
      <trkpt lat="48.68062" lon="-2.32533">
        <ele>65</ele>
        <time>2014-06-10T10:08:36Z</time>
      </trkpt>
      <trkpt lat="48.6806" lon="-2.32531">
        <ele>65</ele>
        <time>2014-06-10T10:08:38Z</time>
      </trkpt>
      <trkpt lat="48.68057" lon="-2.32529">
        <ele>65</ele>
        <time>2014-06-10T10:08:40Z</time>
      </trkpt>
      <trkpt lat="48.68055" lon="-2.32526">
        <ele>65</ele>
        <time>2014-06-10T10:08:42Z</time>
      </trkpt>
      <trkpt lat="48.68052" lon="-2.32524">
        <ele>65</ele>
        <time>2014-06-10T10:08:44Z</time>
      </trkpt>
      <trkpt lat="48.6805" lon="-2.32522">
        <ele>65</ele>
        <time>2014-06-10T10:08:46Z</time>
      </trkpt>
      <trkpt lat="48.68047" lon="-2.3252">
        <ele>65</ele>
        <time>2014-06-10T10:08:48Z</time>
      </trkpt>
      <trkpt lat="48.68045" lon="-2.32518">
        <ele>65</ele>
        <time>2014-06-10T10:08:50Z</time>
      </trkpt>
      <trkpt lat="48.68042" lon="-2.32515">
        <ele>65</ele>
        <time>2014-06-10T10:08:52Z</time>
      </trkpt>
      <trkpt lat="48.68039" lon="-2.32511">
        <ele>65</ele>
        <time>2014-06-10T10:08:55Z</time>
      </trkpt>
      <trkpt lat="48.68037" lon="-2.32508">
        <ele>65</ele>
        <time>2014-06-10T10:08:57Z</time>
      </trkpt>
      <trkpt lat="48.68035" lon="-2.32505">
        <ele>65</ele>
        <time>2014-06-10T10:08:59Z</time>
      </trkpt>
      <trkpt lat="48.68033" lon="-2.32501">
        <ele>65</ele>
        <time>2014-06-10T10:09:01Z</time>
      </trkpt>
      <trkpt lat="48.68031" lon="-2.32498">
        <ele>65</ele>
        <time>2014-06-10T10:09:03Z</time>
      </trkpt>
      <trkpt lat="48.68029" lon="-2.32495">
        <ele>65</ele>
        <time>2014-06-10T10:09:05Z</time>
      </trkpt>
      <trkpt lat="48.68027" lon="-2.32491">
        <ele>65</ele>
        <time>2014-06-10T10:09:07Z</time>
      </trkpt>
      <trkpt lat="48.68025" lon="-2.32488">
        <ele>65</ele>
        <time>2014-06-10T10:09:09Z</time>
      </trkpt>
      <trkpt lat="48.68024" lon="-2.32484">
        <ele>65</ele>
        <time>2014-06-10T10:09:11Z</time>
      </trkpt>
      <trkpt lat="48.68022" lon="-2.32481">
        <ele>65</ele>
        <time>2014-06-10T10:09:13Z</time>
      </trkpt>
      <trkpt lat="48.68021" lon="-2.32477">
        <ele>65</ele>
        <time>2014-06-10T10:09:15Z</time>
      </trkpt>
      <trkpt lat="48.68019" lon="-2.32473">
        <ele>65</ele>
        <time>2014-06-10T10:09:17Z</time>
      </trkpt>
      <trkpt lat="48.68017" lon="-2.32469">
        <ele>65</ele>
        <time>2014-06-10T10:09:19Z</time>
      </trkpt>
      <trkpt lat="48.68016" lon="-2.32465">
        <ele>65</ele>
        <time>2014-06-10T10:09:21Z</time>
      </trkpt>
      <trkpt lat="48.68015" lon="-2.32461">
        <ele>65</ele>
        <time>2014-06-10T10:09:23Z</time>
      </trkpt>
      <trkpt lat="48.68014" lon="-2.32457">
        <ele>65</ele>
        <time>2014-06-10T10:09:25Z</time>
      </trkpt>
      <trkpt lat="48.68012" lon="-2.32453">
        <ele>65</ele>
        <time>2014-06-10T10:09:27Z</time>
      </trkpt>
      <trkpt lat="48.6801" lon="-2.3245">
        <ele>65</ele>
        <time>2014-06-10T10:09:29Z</time>
      </trkpt>
      <trkpt lat="48.68009" lon="-2.32446">
        <ele>65</ele>
        <time>2014-06-10T10:09:31Z</time>
      </trkpt>
      <trkpt lat="48.68008" lon="-2.32441">
        <ele>65</ele>
        <time>2014-06-10T10:09:33Z</time>
      </trkpt>
      <trkpt lat="48.68006" lon="-2.32437">
        <ele>65</ele>
        <time>2014-06-10T10:09:35Z</time>
      </trkpt>
      <trkpt lat="48.68005" lon="-2.32433">
        <ele>65</ele>
        <time>2014-06-10T10:09:37Z</time>
      </trkpt>
      <trkpt lat="48.68004" lon="-2.3243">
        <ele>65</ele>
        <time>2014-06-10T10:09:39Z</time>
      </trkpt>
      <trkpt lat="48.68003" lon="-2.32427">
        <ele>65</ele>
        <time>2014-06-10T10:09:41Z</time>
      </trkpt>
      <trkpt lat="48.68002" lon="-2.32425">
        <ele>65</ele>
        <time>2014-06-10T10:09:43Z</time>
      </trkpt>
      <trkpt lat="48.68004" lon="-2.32425">
        <ele>65</ele>
        <time>2014-06-10T10:09:45Z</time>
      </trkpt>
      <trkpt lat="48.68006" lon="-2.32423">
        <ele>65</ele>
        <time>2014-06-10T10:09:47Z</time>
      </trkpt>
      <trkpt lat="48.68008" lon="-2.3242">
        <ele>65</ele>
        <time>2014-06-10T10:09:49Z</time>
      </trkpt>
      <trkpt lat="48.68009" lon="-2.32417">
        <ele>65</ele>
        <time>2014-06-10T10:09:51Z</time>
      </trkpt>
      <trkpt lat="48.6801" lon="-2.32412">
        <ele>65</ele>
        <time>2014-06-10T10:09:53Z</time>
      </trkpt>
      <trkpt lat="48.68011" lon="-2.32408">
        <ele>65</ele>
        <time>2014-06-10T10:09:55Z</time>
      </trkpt>
      <trkpt lat="48.68013" lon="-2.32405">
        <ele>65</ele>
        <time>2014-06-10T10:09:57Z</time>
      </trkpt>
      <trkpt lat="48.68013" lon="-2.324">
        <ele>65</ele>
        <time>2014-06-10T10:09:59Z</time>
      </trkpt>
      <trkpt lat="48.68016" lon="-2.324">
        <ele>66</ele>
        <time>2014-06-10T10:10:01Z</time>
      </trkpt>
      <trkpt lat="48.68019" lon="-2.32401">
        <ele>67</ele>
        <time>2014-06-10T10:10:03Z</time>
      </trkpt>
      <trkpt lat="48.68022" lon="-2.32402">
        <ele>67</ele>
        <time>2014-06-10T10:10:05Z</time>
      </trkpt>
      <trkpt lat="48.68025" lon="-2.32402">
        <ele>67</ele>
        <time>2014-06-10T10:10:07Z</time>
      </trkpt>
      <trkpt lat="48.68027" lon="-2.32403">
        <ele>67</ele>
        <time>2014-06-10T10:10:09Z</time>
      </trkpt>
      <trkpt lat="48.68031" lon="-2.32403">
        <ele>67</ele>
        <time>2014-06-10T10:10:11Z</time>
      </trkpt>
      <trkpt lat="48.68034" lon="-2.32402">
        <ele>67</ele>
        <time>2014-06-10T10:10:13Z</time>
      </trkpt>
      <trkpt lat="48.68036" lon="-2.32401">
        <ele>67</ele>
        <time>2014-06-10T10:10:15Z</time>
      </trkpt>
      <trkpt lat="48.68039" lon="-2.324">
        <ele>67</ele>
        <time>2014-06-10T10:10:17Z</time>
      </trkpt>
      <trkpt lat="48.68041" lon="-2.324">
        <ele>67</ele>
        <time>2014-06-10T10:10:19Z</time>
      </trkpt>
      <trkpt lat="48.68043" lon="-2.324">
        <ele>67</ele>
        <time>2014-06-10T10:10:21Z</time>
      </trkpt>
      <trkpt lat="48.68045" lon="-2.32399">
        <ele>67</ele>
        <time>2014-06-10T10:10:32Z</time>
      </trkpt>
      <trkpt lat="48.68047" lon="-2.32398">
        <ele>67</ele>
        <time>2014-06-10T10:10:34Z</time>
      </trkpt>
      <trkpt lat="48.6805" lon="-2.32397">
        <ele>67</ele>
        <time>2014-06-10T10:10:36Z</time>
      </trkpt>
      <trkpt lat="48.68051" lon="-2.32397">
        <ele>67</ele>
        <time>2014-06-10T10:10:38Z</time>
      </trkpt>
      <trkpt lat="48.68053" lon="-2.32397">
        <ele>67</ele>
        <time>2014-06-10T10:10:40Z</time>
      </trkpt>
      <trkpt lat="48.68055" lon="-2.32397">
        <ele>67</ele>
        <time>2014-06-10T10:10:42Z</time>
      </trkpt>
      <trkpt lat="48.68056" lon="-2.32397">
        <ele>67</ele>
        <time>2014-06-10T10:10:44Z</time>
      </trkpt>
      <trkpt lat="48.68058" lon="-2.32398">
        <ele>67</ele>
        <time>2014-06-10T10:10:46Z</time>
      </trkpt>
      <trkpt lat="48.6806" lon="-2.32398">
        <ele>67</ele>
        <time>2014-06-10T10:10:48Z</time>
      </trkpt>
      <trkpt lat="48.68062" lon="-2.32398">
        <ele>67</ele>
        <time>2014-06-10T10:10:50Z</time>
      </trkpt>
      <trkpt lat="48.68064" lon="-2.32397">
        <ele>67</ele>
        <time>2014-06-10T10:10:52Z</time>
      </trkpt>
      <trkpt lat="48.68065" lon="-2.32397">
        <ele>66</ele>
        <time>2014-06-10T10:10:54Z</time>
      </trkpt>
      <trkpt lat="48.68068" lon="-2.32397">
        <ele>66</ele>
        <time>2014-06-10T10:10:56Z</time>
      </trkpt>
      <trkpt lat="48.68071" lon="-2.32397">
        <ele>65</ele>
        <time>2014-06-10T10:10:58Z</time>
      </trkpt>
      <trkpt lat="48.68074" lon="-2.32398">
        <ele>65</ele>
        <time>2014-06-10T10:11:00Z</time>
      </trkpt>
      <trkpt lat="48.68076" lon="-2.32397">
        <ele>65</ele>
        <time>2014-06-10T10:11:02Z</time>
      </trkpt>
      <trkpt lat="48.68079" lon="-2.32396">
        <ele>65</ele>
        <time>2014-06-10T10:11:04Z</time>
      </trkpt>
      <trkpt lat="48.68082" lon="-2.32395">
        <ele>65</ele>
        <time>2014-06-10T10:11:06Z</time>
      </trkpt>
      <trkpt lat="48.68084" lon="-2.32395">
        <ele>65</ele>
        <time>2014-06-10T10:11:08Z</time>
      </trkpt>
      <trkpt lat="48.68087" lon="-2.32395">
        <ele>65</ele>
        <time>2014-06-10T10:11:10Z</time>
      </trkpt>
      <trkpt lat="48.68089" lon="-2.32393">
        <ele>65</ele>
        <time>2014-06-10T10:11:12Z</time>
      </trkpt>
      <trkpt lat="48.68091" lon="-2.32391">
        <ele>65</ele>
        <time>2014-06-10T10:11:14Z</time>
      </trkpt>
      <trkpt lat="48.68093" lon="-2.32389">
        <ele>65</ele>
        <time>2014-06-10T10:11:16Z</time>
      </trkpt>
      <trkpt lat="48.68095" lon="-2.32387">
        <ele>65</ele>
        <time>2014-06-10T10:11:18Z</time>
      </trkpt>
      <trkpt lat="48.68097" lon="-2.32385">
        <ele>65</ele>
        <time>2014-06-10T10:11:20Z</time>
      </trkpt>
      <trkpt lat="48.68099" lon="-2.32383">
        <ele>65</ele>
        <time>2014-06-10T10:11:22Z</time>
      </trkpt>
      <trkpt lat="48.68101" lon="-2.32382">
        <ele>65</ele>
        <time>2014-06-10T10:11:24Z</time>
      </trkpt>
      <trkpt lat="48.68104" lon="-2.32381">
        <ele>65</ele>
        <time>2014-06-10T10:11:27Z</time>
      </trkpt>
      <trkpt lat="48.68106" lon="-2.3238">
        <ele>65</ele>
        <time>2014-06-10T10:11:29Z</time>
      </trkpt>
      <trkpt lat="48.68109" lon="-2.3238">
        <ele>65</ele>
        <time>2014-06-10T10:11:31Z</time>
      </trkpt>
      <trkpt lat="48.68112" lon="-2.3238">
        <ele>65</ele>
        <time>2014-06-10T10:11:33Z</time>
      </trkpt>
      <trkpt lat="48.68114" lon="-2.32379">
        <ele>65</ele>
        <time>2014-06-10T10:11:35Z</time>
      </trkpt>
      <trkpt lat="48.68116" lon="-2.32376">
        <ele>65</ele>
        <time>2014-06-10T10:11:37Z</time>
      </trkpt>
      <trkpt lat="48.68118" lon="-2.32373">
        <ele>65</ele>
        <time>2014-06-10T10:11:39Z</time>
      </trkpt>
      <trkpt lat="48.68119" lon="-2.3237">
        <ele>65</ele>
        <time>2014-06-10T10:11:41Z</time>
      </trkpt>
      <trkpt lat="48.68122" lon="-2.32365">
        <ele>65</ele>
        <time>2014-06-10T10:11:44Z</time>
      </trkpt>
      <trkpt lat="48.68124" lon="-2.32362">
        <ele>65</ele>
        <time>2014-06-10T10:11:46Z</time>
      </trkpt>
      <trkpt lat="48.68126" lon="-2.32359">
        <ele>65</ele>
        <time>2014-06-10T10:11:48Z</time>
      </trkpt>
      <trkpt lat="48.68127" lon="-2.32356">
        <ele>65</ele>
        <time>2014-06-10T10:11:50Z</time>
      </trkpt>
      <trkpt lat="48.68129" lon="-2.32353">
        <ele>65</ele>
        <time>2014-06-10T10:11:52Z</time>
      </trkpt>
      <trkpt lat="48.6813" lon="-2.32349">
        <ele>65</ele>
        <time>2014-06-10T10:11:54Z</time>
      </trkpt>
      <trkpt lat="48.68131" lon="-2.32346">
        <ele>65</ele>
        <time>2014-06-10T10:11:56Z</time>
      </trkpt>
      <trkpt lat="48.68132" lon="-2.32342">
        <ele>65</ele>
        <time>2014-06-10T10:11:58Z</time>
      </trkpt>
      <trkpt lat="48.68133" lon="-2.32339">
        <ele>65</ele>
        <time>2014-06-10T10:12:00Z</time>
      </trkpt>
      <trkpt lat="48.68133" lon="-2.32335">
        <ele>65</ele>
        <time>2014-06-10T10:12:02Z</time>
      </trkpt>
      <trkpt lat="48.68134" lon="-2.32331">
        <ele>65</ele>
        <time>2014-06-10T10:12:04Z</time>
      </trkpt>
      <trkpt lat="48.68136" lon="-2.32327">
        <ele>65</ele>
        <time>2014-06-10T10:12:07Z</time>
      </trkpt>
      <trkpt lat="48.68137" lon="-2.32324">
        <ele>65</ele>
        <time>2014-06-10T10:12:09Z</time>
      </trkpt>
      <trkpt lat="48.68138" lon="-2.32321">
        <ele>65</ele>
        <time>2014-06-10T10:12:11Z</time>
      </trkpt>
      <trkpt lat="48.6814" lon="-2.32316">
        <ele>65</ele>
        <time>2014-06-10T10:12:14Z</time>
      </trkpt>
      <trkpt lat="48.68142" lon="-2.32313">
        <ele>65</ele>
        <time>2014-06-10T10:12:16Z</time>
      </trkpt>
      <trkpt lat="48.68143" lon="-2.3231">
        <ele>65</ele>
        <time>2014-06-10T10:12:18Z</time>
      </trkpt>
      <trkpt lat="48.68144" lon="-2.32307">
        <ele>65</ele>
        <time>2014-06-10T10:12:20Z</time>
      </trkpt>
      <trkpt lat="48.68146" lon="-2.32305">
        <ele>64</ele>
        <time>2014-06-10T10:12:22Z</time>
      </trkpt>
      <trkpt lat="48.68147" lon="-2.32302">
        <ele>64</ele>
        <time>2014-06-10T10:12:24Z</time>
      </trkpt>
      <trkpt lat="48.68148" lon="-2.32299">
        <ele>64</ele>
        <time>2014-06-10T10:12:26Z</time>
      </trkpt>
      <trkpt lat="48.6815" lon="-2.32295">
        <ele>63</ele>
        <time>2014-06-10T10:12:28Z</time>
      </trkpt>
      <trkpt lat="48.68151" lon="-2.32292">
        <ele>63</ele>
        <time>2014-06-10T10:12:30Z</time>
      </trkpt>
      <trkpt lat="48.68152" lon="-2.32288">
        <ele>63</ele>
        <time>2014-06-10T10:12:32Z</time>
      </trkpt>
      <trkpt lat="48.68154" lon="-2.32283">
        <ele>63</ele>
        <time>2014-06-10T10:12:35Z</time>
      </trkpt>
      <trkpt lat="48.68155" lon="-2.3228">
        <ele>62</ele>
        <time>2014-06-10T10:12:37Z</time>
      </trkpt>
      <trkpt lat="48.68156" lon="-2.32276">
        <ele>62</ele>
        <time>2014-06-10T10:12:39Z</time>
      </trkpt>
      <trkpt lat="48.68154" lon="-2.32273">
        <ele>62</ele>
        <time>2014-06-10T10:12:41Z</time>
      </trkpt>
      <trkpt lat="48.68152" lon="-2.32268">
        <ele>62</ele>
        <time>2014-06-10T10:12:44Z</time>
      </trkpt>
      <trkpt lat="48.6815" lon="-2.32266">
        <ele>62</ele>
        <time>2014-06-10T10:12:46Z</time>
      </trkpt>
      <trkpt lat="48.68147" lon="-2.32261">
        <ele>62</ele>
        <time>2014-06-10T10:12:49Z</time>
      </trkpt>
      <trkpt lat="48.68145" lon="-2.32259">
        <ele>62</ele>
        <time>2014-06-10T10:12:51Z</time>
      </trkpt>
      <trkpt lat="48.68142" lon="-2.32255">
        <ele>61</ele>
        <time>2014-06-10T10:12:54Z</time>
      </trkpt>
      <trkpt lat="48.6814" lon="-2.32253">
        <ele>61</ele>
        <time>2014-06-10T10:12:56Z</time>
      </trkpt>
      <trkpt lat="48.68138" lon="-2.3225">
        <ele>61</ele>
        <time>2014-06-10T10:12:58Z</time>
      </trkpt>
      <trkpt lat="48.68136" lon="-2.32248">
        <ele>61</ele>
        <time>2014-06-10T10:13:00Z</time>
      </trkpt>
      <trkpt lat="48.68135" lon="-2.32245">
        <ele>61</ele>
        <time>2014-06-10T10:13:02Z</time>
      </trkpt>
      <trkpt lat="48.68133" lon="-2.32241">
        <ele>61</ele>
        <time>2014-06-10T10:13:04Z</time>
      </trkpt>
      <trkpt lat="48.68132" lon="-2.32238">
        <ele>61</ele>
        <time>2014-06-10T10:13:06Z</time>
      </trkpt>
      <trkpt lat="48.68131" lon="-2.32234">
        <ele>61</ele>
        <time>2014-06-10T10:13:08Z</time>
      </trkpt>
      <trkpt lat="48.6813" lon="-2.3223">
        <ele>61</ele>
        <time>2014-06-10T10:13:10Z</time>
      </trkpt>
      <trkpt lat="48.68131" lon="-2.32226">
        <ele>61</ele>
        <time>2014-06-10T10:13:12Z</time>
      </trkpt>
      <trkpt lat="48.68132" lon="-2.32223">
        <ele>61</ele>
        <time>2014-06-10T10:13:14Z</time>
      </trkpt>
      <trkpt lat="48.68134" lon="-2.32219">
        <ele>61</ele>
        <time>2014-06-10T10:13:16Z</time>
      </trkpt>
      <trkpt lat="48.68137" lon="-2.32215">
        <ele>61</ele>
        <time>2014-06-10T10:13:19Z</time>
      </trkpt>
      <trkpt lat="48.68139" lon="-2.32212">
        <ele>61</ele>
        <time>2014-06-10T10:13:21Z</time>
      </trkpt>
      <trkpt lat="48.6814" lon="-2.3221">
        <ele>61</ele>
        <time>2014-06-10T10:13:23Z</time>
      </trkpt>
      <trkpt lat="48.68143" lon="-2.32208">
        <ele>61</ele>
        <time>2014-06-10T10:13:25Z</time>
      </trkpt>
      <trkpt lat="48.68146" lon="-2.3221">
        <ele>61</ele>
        <time>2014-06-10T10:13:28Z</time>
      </trkpt>
      <trkpt lat="48.68148" lon="-2.32212">
        <ele>61</ele>
        <time>2014-06-10T10:13:30Z</time>
      </trkpt>
      <trkpt lat="48.6815" lon="-2.32212">
        <ele>61</ele>
        <time>2014-06-10T10:13:32Z</time>
      </trkpt>
      <trkpt lat="48.6815" lon="-2.32209">
        <ele>61</ele>
        <time>2014-06-10T10:13:34Z</time>
      </trkpt>
      <trkpt lat="48.6815" lon="-2.32206">
        <ele>61</ele>
        <time>2014-06-10T10:13:36Z</time>
      </trkpt>
      <trkpt lat="48.68148" lon="-2.32202">
        <ele>61</ele>
        <time>2014-06-10T10:13:38Z</time>
      </trkpt>
      <trkpt lat="48.68147" lon="-2.32199">
        <ele>61</ele>
        <time>2014-06-10T10:13:40Z</time>
      </trkpt>
      <trkpt lat="48.68149" lon="-2.32196">
        <ele>61</ele>
        <time>2014-06-10T10:13:42Z</time>
      </trkpt>
      <trkpt lat="48.68151" lon="-2.32195">
        <ele>61</ele>
        <time>2014-06-10T10:13:44Z</time>
      </trkpt>
      <trkpt lat="48.68154" lon="-2.32196">
        <ele>61</ele>
        <time>2014-06-10T10:13:46Z</time>
      </trkpt>
      <trkpt lat="48.68157" lon="-2.32196">
        <ele>61</ele>
        <time>2014-06-10T10:13:48Z</time>
      </trkpt>
      <trkpt lat="48.68159" lon="-2.32197">
        <ele>61</ele>
        <time>2014-06-10T10:13:50Z</time>
      </trkpt>
      <trkpt lat="48.68162" lon="-2.32197">
        <ele>61</ele>
        <time>2014-06-10T10:13:52Z</time>
      </trkpt>
      <trkpt lat="48.68165" lon="-2.32197">
        <ele>61</ele>
        <time>2014-06-10T10:13:54Z</time>
      </trkpt>
      <trkpt lat="48.68167" lon="-2.32198">
        <ele>61</ele>
        <time>2014-06-10T10:13:56Z</time>
      </trkpt>
      <trkpt lat="48.6817" lon="-2.32197">
        <ele>61</ele>
        <time>2014-06-10T10:13:58Z</time>
      </trkpt>
      <trkpt lat="48.68172" lon="-2.32196">
        <ele>61</ele>
        <time>2014-06-10T10:14:00Z</time>
      </trkpt>
      <trkpt lat="48.68175" lon="-2.32196">
        <ele>61</ele>
        <time>2014-06-10T10:14:02Z</time>
      </trkpt>
      <trkpt lat="48.68178" lon="-2.32197">
        <ele>61</ele>
        <time>2014-06-10T10:14:04Z</time>
      </trkpt>
      <trkpt lat="48.6818" lon="-2.32199">
        <ele>61</ele>
        <time>2014-06-10T10:14:06Z</time>
      </trkpt>
      <trkpt lat="48.68182" lon="-2.322">
        <ele>61</ele>
        <time>2014-06-10T10:14:08Z</time>
      </trkpt>
      <trkpt lat="48.68185" lon="-2.32202">
        <ele>61</ele>
        <time>2014-06-10T10:14:10Z</time>
      </trkpt>
      <trkpt lat="48.68187" lon="-2.32203">
        <ele>61</ele>
        <time>2014-06-10T10:14:12Z</time>
      </trkpt>
      <trkpt lat="48.6819" lon="-2.32204">
        <ele>61</ele>
        <time>2014-06-10T10:14:14Z</time>
      </trkpt>
      <trkpt lat="48.68192" lon="-2.32203">
        <ele>61</ele>
        <time>2014-06-10T10:14:16Z</time>
      </trkpt>
      <trkpt lat="48.68195" lon="-2.32203">
        <ele>61</ele>
        <time>2014-06-10T10:14:18Z</time>
      </trkpt>
      <trkpt lat="48.68197" lon="-2.32201">
        <ele>61</ele>
        <time>2014-06-10T10:14:20Z</time>
      </trkpt>
      <trkpt lat="48.682" lon="-2.32201">
        <ele>61</ele>
        <time>2014-06-10T10:14:22Z</time>
      </trkpt>
      <trkpt lat="48.68201" lon="-2.322">
        <ele>61</ele>
        <time>2014-06-10T10:14:24Z</time>
      </trkpt>
      <trkpt lat="48.68203" lon="-2.32199">
        <ele>61</ele>
        <time>2014-06-10T10:14:26Z</time>
      </trkpt>
      <trkpt lat="48.68205" lon="-2.32197">
        <ele>61</ele>
        <time>2014-06-10T10:14:28Z</time>
      </trkpt>
      <trkpt lat="48.68208" lon="-2.32195">
        <ele>61</ele>
        <time>2014-06-10T10:14:30Z</time>
      </trkpt>
      <trkpt lat="48.6821" lon="-2.32193">
        <ele>62</ele>
        <time>2014-06-10T10:14:32Z</time>
      </trkpt>
      <trkpt lat="48.68212" lon="-2.32192">
        <ele>62</ele>
        <time>2014-06-10T10:14:34Z</time>
      </trkpt>
      <trkpt lat="48.68215" lon="-2.32191">
        <ele>62</ele>
        <time>2014-06-10T10:14:36Z</time>
      </trkpt>
      <trkpt lat="48.68217" lon="-2.3219">
        <ele>62</ele>
        <time>2014-06-10T10:14:38Z</time>
      </trkpt>
      <trkpt lat="48.6822" lon="-2.32189">
        <ele>63</ele>
        <time>2014-06-10T10:14:40Z</time>
      </trkpt>
      <trkpt lat="48.68222" lon="-2.32188">
        <ele>63</ele>
        <time>2014-06-10T10:14:42Z</time>
      </trkpt>
      <trkpt lat="48.68225" lon="-2.32188">
        <ele>63</ele>
        <time>2014-06-10T10:14:44Z</time>
      </trkpt>
      <trkpt lat="48.68228" lon="-2.32188">
        <ele>63</ele>
        <time>2014-06-10T10:14:46Z</time>
      </trkpt>
      <trkpt lat="48.6823" lon="-2.32188">
        <ele>63</ele>
        <time>2014-06-10T10:14:48Z</time>
      </trkpt>
      <trkpt lat="48.68232" lon="-2.32188">
        <ele>63</ele>
        <time>2014-06-10T10:14:50Z</time>
      </trkpt>
      <trkpt lat="48.68235" lon="-2.32188">
        <ele>63</ele>
        <time>2014-06-10T10:14:52Z</time>
      </trkpt>
      <trkpt lat="48.68238" lon="-2.32188">
        <ele>63</ele>
        <time>2014-06-10T10:14:54Z</time>
      </trkpt>
      <trkpt lat="48.6824" lon="-2.32188">
        <ele>63</ele>
        <time>2014-06-10T10:14:56Z</time>
      </trkpt>
      <trkpt lat="48.68243" lon="-2.32188">
        <ele>63</ele>
        <time>2014-06-10T10:14:58Z</time>
      </trkpt>
      <trkpt lat="48.68246" lon="-2.32189">
        <ele>63</ele>
        <time>2014-06-10T10:15:00Z</time>
      </trkpt>
      <trkpt lat="48.68248" lon="-2.3219">
        <ele>63</ele>
        <time>2014-06-10T10:15:02Z</time>
      </trkpt>
      <trkpt lat="48.68251" lon="-2.32189">
        <ele>63</ele>
        <time>2014-06-10T10:15:04Z</time>
      </trkpt>
      <trkpt lat="48.68254" lon="-2.32189">
        <ele>63</ele>
        <time>2014-06-10T10:15:06Z</time>
      </trkpt>
      <trkpt lat="48.68257" lon="-2.32188">
        <ele>63</ele>
        <time>2014-06-10T10:15:08Z</time>
      </trkpt>
      <trkpt lat="48.68259" lon="-2.32186">
        <ele>63</ele>
        <time>2014-06-10T10:15:10Z</time>
      </trkpt>
      <trkpt lat="48.68262" lon="-2.32185">
        <ele>63</ele>
        <time>2014-06-10T10:15:12Z</time>
      </trkpt>
      <trkpt lat="48.68264" lon="-2.32184">
        <ele>63</ele>
        <time>2014-06-10T10:15:14Z</time>
      </trkpt>
      <trkpt lat="48.68266" lon="-2.32183">
        <ele>63</ele>
        <time>2014-06-10T10:15:16Z</time>
      </trkpt>
      <trkpt lat="48.68267" lon="-2.32183">
        <ele>64</ele>
        <time>2014-06-10T10:15:18Z</time>
      </trkpt>
      <trkpt lat="48.68266" lon="-2.32181">
        <ele>64</ele>
        <time>2014-06-10T10:15:21Z</time>
      </trkpt>
      <trkpt lat="48.68264" lon="-2.3218">
        <ele>64</ele>
        <time>2014-06-10T10:15:23Z</time>
      </trkpt>
      <trkpt lat="48.68262" lon="-2.32179">
        <ele>64</ele>
        <time>2014-06-10T10:15:25Z</time>
      </trkpt>
      <trkpt lat="48.68259" lon="-2.32176">
        <ele>64</ele>
        <time>2014-06-10T10:15:28Z</time>
      </trkpt>
      <trkpt lat="48.68257" lon="-2.32174">
        <ele>65</ele>
        <time>2014-06-10T10:15:30Z</time>
      </trkpt>
      <trkpt lat="48.68254" lon="-2.32171">
        <ele>65</ele>
        <time>2014-06-10T10:15:33Z</time>
      </trkpt>
      <trkpt lat="48.68252" lon="-2.3217">
        <ele>65</ele>
        <time>2014-06-10T10:15:35Z</time>
      </trkpt>
      <trkpt lat="48.68249" lon="-2.32168">
        <ele>65</ele>
        <time>2014-06-10T10:15:38Z</time>
      </trkpt>
      <trkpt lat="48.68247" lon="-2.32167">
        <ele>65</ele>
        <time>2014-06-10T10:15:40Z</time>
      </trkpt>
      <trkpt lat="48.68245" lon="-2.32165">
        <ele>65</ele>
        <time>2014-06-10T10:15:42Z</time>
      </trkpt>
      <trkpt lat="48.68243" lon="-2.32162">
        <ele>65</ele>
        <time>2014-06-10T10:15:44Z</time>
      </trkpt>
      <trkpt lat="48.68243" lon="-2.32158">
        <ele>65</ele>
        <time>2014-06-10T10:15:46Z</time>
      </trkpt>
      <trkpt lat="48.68243" lon="-2.32155">
        <ele>65</ele>
        <time>2014-06-10T10:15:48Z</time>
      </trkpt>
      <trkpt lat="48.68244" lon="-2.32151">
        <ele>66</ele>
        <time>2014-06-10T10:15:50Z</time>
      </trkpt>
      <trkpt lat="48.68244" lon="-2.32147">
        <ele>66</ele>
        <time>2014-06-10T10:15:52Z</time>
      </trkpt>
      <trkpt lat="48.68244" lon="-2.32143">
        <ele>66</ele>
        <time>2014-06-10T10:15:54Z</time>
      </trkpt>
      <trkpt lat="48.68244" lon="-2.32139">
        <ele>66</ele>
        <time>2014-06-10T10:15:56Z</time>
      </trkpt>
      <trkpt lat="48.68243" lon="-2.32135">
        <ele>66</ele>
        <time>2014-06-10T10:15:58Z</time>
      </trkpt>
      <trkpt lat="48.68243" lon="-2.32131">
        <ele>66</ele>
        <time>2014-06-10T10:16:00Z</time>
      </trkpt>
      <trkpt lat="48.68242" lon="-2.32127">
        <ele>66</ele>
        <time>2014-06-10T10:16:02Z</time>
      </trkpt>
      <trkpt lat="48.68242" lon="-2.32124">
        <ele>66</ele>
        <time>2014-06-10T10:16:04Z</time>
      </trkpt>
      <trkpt lat="48.68241" lon="-2.3212">
        <ele>66</ele>
        <time>2014-06-10T10:16:06Z</time>
      </trkpt>
      <trkpt lat="48.6824" lon="-2.32117">
        <ele>66</ele>
        <time>2014-06-10T10:16:08Z</time>
      </trkpt>
      <trkpt lat="48.68238" lon="-2.32113">
        <ele>66</ele>
        <time>2014-06-10T10:16:10Z</time>
      </trkpt>
      <trkpt lat="48.68237" lon="-2.32109">
        <ele>66</ele>
        <time>2014-06-10T10:16:12Z</time>
      </trkpt>
      <trkpt lat="48.68236" lon="-2.32105">
        <ele>66</ele>
        <time>2014-06-10T10:16:14Z</time>
      </trkpt>
      <trkpt lat="48.68235" lon="-2.32101">
        <ele>66</ele>
        <time>2014-06-10T10:16:16Z</time>
      </trkpt>
      <trkpt lat="48.68233" lon="-2.32097">
        <ele>66</ele>
        <time>2014-06-10T10:16:19Z</time>
      </trkpt>
      <trkpt lat="48.68231" lon="-2.32094">
        <ele>66</ele>
        <time>2014-06-10T10:16:21Z</time>
      </trkpt>
      <trkpt lat="48.68228" lon="-2.32089">
        <ele>66</ele>
        <time>2014-06-10T10:16:24Z</time>
      </trkpt>
      <trkpt lat="48.68226" lon="-2.32087">
        <ele>66</ele>
        <time>2014-06-10T10:16:26Z</time>
      </trkpt>
      <trkpt lat="48.68224" lon="-2.32084">
        <ele>66</ele>
        <time>2014-06-10T10:16:28Z</time>
      </trkpt>
      <trkpt lat="48.68222" lon="-2.32082">
        <ele>66</ele>
        <time>2014-06-10T10:16:30Z</time>
      </trkpt>
      <trkpt lat="48.6822" lon="-2.32079">
        <ele>66</ele>
        <time>2014-06-10T10:16:32Z</time>
      </trkpt>
      <trkpt lat="48.68218" lon="-2.32077">
        <ele>66</ele>
        <time>2014-06-10T10:16:34Z</time>
      </trkpt>
      <trkpt lat="48.68216" lon="-2.32074">
        <ele>66</ele>
        <time>2014-06-10T10:16:36Z</time>
      </trkpt>
      <trkpt lat="48.68216" lon="-2.32069">
        <ele>66</ele>
        <time>2014-06-10T10:16:39Z</time>
      </trkpt>
      <trkpt lat="48.68217" lon="-2.32066">
        <ele>66</ele>
        <time>2014-06-10T10:16:41Z</time>
      </trkpt>
      <trkpt lat="48.68218" lon="-2.32063">
        <ele>66</ele>
        <time>2014-06-10T10:16:43Z</time>
      </trkpt>
      <trkpt lat="48.6822" lon="-2.32061">
        <ele>66</ele>
        <time>2014-06-10T10:16:45Z</time>
      </trkpt>
      <trkpt lat="48.68222" lon="-2.32059">
        <ele>66</ele>
        <time>2014-06-10T10:16:47Z</time>
      </trkpt>
      <trkpt lat="48.68225" lon="-2.32057">
        <ele>66</ele>
        <time>2014-06-10T10:16:49Z</time>
      </trkpt>
      <trkpt lat="48.68227" lon="-2.32055">
        <ele>66</ele>
        <time>2014-06-10T10:16:51Z</time>
      </trkpt>
      <trkpt lat="48.6823" lon="-2.32054">
        <ele>66</ele>
        <time>2014-06-10T10:16:53Z</time>
      </trkpt>
      <trkpt lat="48.68232" lon="-2.32052">
        <ele>66</ele>
        <time>2014-06-10T10:16:55Z</time>
      </trkpt>
      <trkpt lat="48.68235" lon="-2.32051">
        <ele>66</ele>
        <time>2014-06-10T10:16:57Z</time>
      </trkpt>
      <trkpt lat="48.68237" lon="-2.3205">
        <ele>66</ele>
        <time>2014-06-10T10:16:59Z</time>
      </trkpt>
      <trkpt lat="48.6824" lon="-2.32049">
        <ele>65</ele>
        <time>2014-06-10T10:17:01Z</time>
      </trkpt>
      <trkpt lat="48.68242" lon="-2.32047">
        <ele>65</ele>
        <time>2014-06-10T10:17:03Z</time>
      </trkpt>
      <trkpt lat="48.68244" lon="-2.32044">
        <ele>65</ele>
        <time>2014-06-10T10:17:05Z</time>
      </trkpt>
      <trkpt lat="48.68245" lon="-2.32041">
        <ele>65</ele>
        <time>2014-06-10T10:17:07Z</time>
      </trkpt>
      <trkpt lat="48.68247" lon="-2.32037">
        <ele>65</ele>
        <time>2014-06-10T10:17:09Z</time>
      </trkpt>
      <trkpt lat="48.68248" lon="-2.32034">
        <ele>65</ele>
        <time>2014-06-10T10:17:11Z</time>
      </trkpt>
      <trkpt lat="48.6825" lon="-2.32031">
        <ele>65</ele>
        <time>2014-06-10T10:17:13Z</time>
      </trkpt>
      <trkpt lat="48.68252" lon="-2.32027">
        <ele>65</ele>
        <time>2014-06-10T10:17:15Z</time>
      </trkpt>
      <trkpt lat="48.68254" lon="-2.32024">
        <ele>65</ele>
        <time>2014-06-10T10:17:17Z</time>
      </trkpt>
      <trkpt lat="48.68257" lon="-2.32019">
        <ele>64</ele>
        <time>2014-06-10T10:17:20Z</time>
      </trkpt>
      <trkpt lat="48.68258" lon="-2.32015">
        <ele>64</ele>
        <time>2014-06-10T10:17:22Z</time>
      </trkpt>
      <trkpt lat="48.68261" lon="-2.32011">
        <ele>64</ele>
        <time>2014-06-10T10:17:25Z</time>
      </trkpt>
      <trkpt lat="48.68264" lon="-2.3201">
        <ele>64</ele>
        <time>2014-06-10T10:17:27Z</time>
      </trkpt>
      <trkpt lat="48.68266" lon="-2.32008">
        <ele>64</ele>
        <time>2014-06-10T10:17:29Z</time>
      </trkpt>
      <trkpt lat="48.68268" lon="-2.32006">
        <ele>64</ele>
        <time>2014-06-10T10:17:31Z</time>
      </trkpt>
      <trkpt lat="48.68271" lon="-2.32004">
        <ele>64</ele>
        <time>2014-06-10T10:17:33Z</time>
      </trkpt>
      <trkpt lat="48.68274" lon="-2.32002">
        <ele>64</ele>
        <time>2014-06-10T10:17:36Z</time>
      </trkpt>
      <trkpt lat="48.68276" lon="-2.32">
        <ele>64</ele>
        <time>2014-06-10T10:17:38Z</time>
      </trkpt>
      <trkpt lat="48.6828" lon="-2.31996">
        <ele>64</ele>
        <time>2014-06-10T10:17:41Z</time>
      </trkpt>
      <trkpt lat="48.68282" lon="-2.31995">
        <ele>64</ele>
        <time>2014-06-10T10:17:43Z</time>
      </trkpt>
      <trkpt lat="48.68284" lon="-2.31994">
        <ele>64</ele>
        <time>2014-06-10T10:17:45Z</time>
      </trkpt>
      <trkpt lat="48.68287" lon="-2.31992">
        <ele>64</ele>
        <time>2014-06-10T10:17:47Z</time>
      </trkpt>
      <trkpt lat="48.68289" lon="-2.3199">
        <ele>64</ele>
        <time>2014-06-10T10:17:49Z</time>
      </trkpt>
      <trkpt lat="48.6829" lon="-2.31987">
        <ele>64</ele>
        <time>2014-06-10T10:17:51Z</time>
      </trkpt>
      <trkpt lat="48.68292" lon="-2.31985">
        <ele>64</ele>
        <time>2014-06-10T10:17:53Z</time>
      </trkpt>
      <trkpt lat="48.68294" lon="-2.31983">
        <ele>64</ele>
        <time>2014-06-10T10:17:55Z</time>
      </trkpt>
      <trkpt lat="48.68296" lon="-2.31981">
        <ele>64</ele>
        <time>2014-06-10T10:17:57Z</time>
      </trkpt>
      <trkpt lat="48.68299" lon="-2.31978">
        <ele>64</ele>
        <time>2014-06-10T10:18:00Z</time>
      </trkpt>
      <trkpt lat="48.68301" lon="-2.31976">
        <ele>64</ele>
        <time>2014-06-10T10:18:02Z</time>
      </trkpt>
      <trkpt lat="48.68303" lon="-2.31973">
        <ele>64</ele>
        <time>2014-06-10T10:18:04Z</time>
      </trkpt>
      <trkpt lat="48.68305" lon="-2.31971">
        <ele>64</ele>
        <time>2014-06-10T10:18:06Z</time>
      </trkpt>
      <trkpt lat="48.68307" lon="-2.31969">
        <ele>64</ele>
        <time>2014-06-10T10:18:08Z</time>
      </trkpt>
      <trkpt lat="48.68308" lon="-2.31968">
        <ele>64</ele>
        <time>2014-06-10T10:18:10Z</time>
      </trkpt>
      <trkpt lat="48.68308" lon="-2.31966">
        <ele>64</ele>
        <time>2014-06-10T10:18:17Z</time>
      </trkpt>
      <trkpt lat="48.68307" lon="-2.31964">
        <ele>65</ele>
        <time>2014-06-10T10:18:24Z</time>
      </trkpt>
      <trkpt lat="48.68306" lon="-2.31962">
        <ele>65</ele>
        <time>2014-06-10T10:18:26Z</time>
      </trkpt>
      <trkpt lat="48.68304" lon="-2.31959">
        <ele>65</ele>
        <time>2014-06-10T10:18:28Z</time>
      </trkpt>
      <trkpt lat="48.68301" lon="-2.31957">
        <ele>65</ele>
        <time>2014-06-10T10:18:30Z</time>
      </trkpt>
      <trkpt lat="48.68299" lon="-2.31955">
        <ele>65</ele>
        <time>2014-06-10T10:18:32Z</time>
      </trkpt>
      <trkpt lat="48.68297" lon="-2.31952">
        <ele>65</ele>
        <time>2014-06-10T10:18:34Z</time>
      </trkpt>
      <trkpt lat="48.68294" lon="-2.3195">
        <ele>65</ele>
        <time>2014-06-10T10:18:36Z</time>
      </trkpt>
      <trkpt lat="48.68291" lon="-2.31948">
        <ele>65</ele>
        <time>2014-06-10T10:18:38Z</time>
      </trkpt>
      <trkpt lat="48.68289" lon="-2.31946">
        <ele>65</ele>
        <time>2014-06-10T10:18:40Z</time>
      </trkpt>
      <trkpt lat="48.68287" lon="-2.31944">
        <ele>66</ele>
        <time>2014-06-10T10:18:42Z</time>
      </trkpt>
      <trkpt lat="48.68284" lon="-2.31942">
        <ele>66</ele>
        <time>2014-06-10T10:18:44Z</time>
      </trkpt>
      <trkpt lat="48.68281" lon="-2.31938">
        <ele>67</ele>
        <time>2014-06-10T10:18:47Z</time>
      </trkpt>
      <trkpt lat="48.68279" lon="-2.31936">
        <ele>67</ele>
        <time>2014-06-10T10:18:49Z</time>
      </trkpt>
      <trkpt lat="48.68275" lon="-2.31934">
        <ele>67</ele>
        <time>2014-06-10T10:18:52Z</time>
      </trkpt>
      <trkpt lat="48.68272" lon="-2.31934">
        <ele>67</ele>
        <time>2014-06-10T10:18:54Z</time>
      </trkpt>
      <trkpt lat="48.68269" lon="-2.31932">
        <ele>67</ele>
        <time>2014-06-10T10:18:57Z</time>
      </trkpt>
      <trkpt lat="48.68267" lon="-2.31931">
        <ele>67</ele>
        <time>2014-06-10T10:18:59Z</time>
      </trkpt>
      <trkpt lat="48.68264" lon="-2.31929">
        <ele>67</ele>
        <time>2014-06-10T10:19:02Z</time>
      </trkpt>
      <trkpt lat="48.68261" lon="-2.31928">
        <ele>67</ele>
        <time>2014-06-10T10:19:04Z</time>
      </trkpt>
      <trkpt lat="48.68258" lon="-2.31927">
        <ele>67</ele>
        <time>2014-06-10T10:19:06Z</time>
      </trkpt>
      <trkpt lat="48.68256" lon="-2.31926">
        <ele>67</ele>
        <time>2014-06-10T10:19:08Z</time>
      </trkpt>
      <trkpt lat="48.68253" lon="-2.31925">
        <ele>67</ele>
        <time>2014-06-10T10:19:10Z</time>
      </trkpt>
      <trkpt lat="48.68251" lon="-2.31922">
        <ele>67</ele>
        <time>2014-06-10T10:19:12Z</time>
      </trkpt>
      <trkpt lat="48.68248" lon="-2.3192">
        <ele>67</ele>
        <time>2014-06-10T10:19:14Z</time>
      </trkpt>
      <trkpt lat="48.68246" lon="-2.31919">
        <ele>67</ele>
        <time>2014-06-10T10:19:16Z</time>
      </trkpt>
      <trkpt lat="48.68244" lon="-2.31915">
        <ele>67</ele>
        <time>2014-06-10T10:19:18Z</time>
      </trkpt>
      <trkpt lat="48.68242" lon="-2.31913">
        <ele>67</ele>
        <time>2014-06-10T10:19:20Z</time>
      </trkpt>
      <trkpt lat="48.6824" lon="-2.31912">
        <ele>67</ele>
        <time>2014-06-10T10:19:22Z</time>
      </trkpt>
      <trkpt lat="48.68237" lon="-2.31911">
        <ele>67</ele>
        <time>2014-06-10T10:19:24Z</time>
      </trkpt>
      <trkpt lat="48.68234" lon="-2.31909">
        <ele>67</ele>
        <time>2014-06-10T10:19:26Z</time>
      </trkpt>
      <trkpt lat="48.68232" lon="-2.31907">
        <ele>67</ele>
        <time>2014-06-10T10:19:28Z</time>
      </trkpt>
      <trkpt lat="48.6823" lon="-2.31905">
        <ele>67</ele>
        <time>2014-06-10T10:19:30Z</time>
      </trkpt>
      <trkpt lat="48.68227" lon="-2.31904">
        <ele>67</ele>
        <time>2014-06-10T10:19:32Z</time>
      </trkpt>
      <trkpt lat="48.68224" lon="-2.31902">
        <ele>67</ele>
        <time>2014-06-10T10:19:34Z</time>
      </trkpt>
      <trkpt lat="48.68222" lon="-2.31901">
        <ele>67</ele>
        <time>2014-06-10T10:19:36Z</time>
      </trkpt>
      <trkpt lat="48.6822" lon="-2.319">
        <ele>67</ele>
        <time>2014-06-10T10:19:38Z</time>
      </trkpt>
      <trkpt lat="48.68217" lon="-2.31899">
        <ele>67</ele>
        <time>2014-06-10T10:19:40Z</time>
      </trkpt>
      <trkpt lat="48.68214" lon="-2.31898">
        <ele>67</ele>
        <time>2014-06-10T10:19:42Z</time>
      </trkpt>
      <trkpt lat="48.68212" lon="-2.31895">
        <ele>67</ele>
        <time>2014-06-10T10:19:44Z</time>
      </trkpt>
      <trkpt lat="48.68206" lon="-2.31894">
        <ele>67</ele>
        <time>2014-06-10T10:19:46Z</time>
      </trkpt>
      <trkpt lat="48.682" lon="-2.31894">
        <ele>69</ele>
        <time>2014-06-10T10:19:48Z</time>
      </trkpt>
      <trkpt lat="48.68197" lon="-2.31895">
        <ele>71</ele>
        <time>2014-06-10T10:19:50Z</time>
      </trkpt>
      <trkpt lat="48.68195" lon="-2.31895">
        <ele>73</ele>
        <time>2014-06-10T10:19:52Z</time>
      </trkpt>
      <trkpt lat="48.68192" lon="-2.31895">
        <ele>75</ele>
        <time>2014-06-10T10:19:54Z</time>
      </trkpt>
      <trkpt lat="48.6819" lon="-2.31894">
        <ele>75</ele>
        <time>2014-06-10T10:19:56Z</time>
      </trkpt>
      <trkpt lat="48.68187" lon="-2.31892">
        <ele>75</ele>
        <time>2014-06-10T10:19:58Z</time>
      </trkpt>
      <trkpt lat="48.68185" lon="-2.3189">
        <ele>75</ele>
        <time>2014-06-10T10:20:00Z</time>
      </trkpt>
      <trkpt lat="48.68182" lon="-2.31889">
        <ele>75</ele>
        <time>2014-06-10T10:20:02Z</time>
      </trkpt>
      <trkpt lat="48.6818" lon="-2.31888">
        <ele>75</ele>
        <time>2014-06-10T10:20:04Z</time>
      </trkpt>
      <trkpt lat="48.68177" lon="-2.31886">
        <ele>75</ele>
        <time>2014-06-10T10:20:06Z</time>
      </trkpt>
      <trkpt lat="48.68175" lon="-2.31885">
        <ele>75</ele>
        <time>2014-06-10T10:20:08Z</time>
      </trkpt>
      <trkpt lat="48.68173" lon="-2.31883">
        <ele>75</ele>
        <time>2014-06-10T10:20:10Z</time>
      </trkpt>
      <trkpt lat="48.6817" lon="-2.31882">
        <ele>75</ele>
        <time>2014-06-10T10:20:12Z</time>
      </trkpt>
      <trkpt lat="48.68168" lon="-2.31881">
        <ele>75</ele>
        <time>2014-06-10T10:20:14Z</time>
      </trkpt>
      <trkpt lat="48.68166" lon="-2.31879">
        <ele>75</ele>
        <time>2014-06-10T10:20:16Z</time>
      </trkpt>
      <trkpt lat="48.68163" lon="-2.3188">
        <ele>75</ele>
        <time>2014-06-10T10:20:18Z</time>
      </trkpt>
      <trkpt lat="48.68161" lon="-2.3188">
        <ele>75</ele>
        <time>2014-06-10T10:20:20Z</time>
      </trkpt>
      <trkpt lat="48.68158" lon="-2.31879">
        <ele>75</ele>
        <time>2014-06-10T10:20:22Z</time>
      </trkpt>
      <trkpt lat="48.68156" lon="-2.31877">
        <ele>75</ele>
        <time>2014-06-10T10:20:24Z</time>
      </trkpt>
      <trkpt lat="48.68153" lon="-2.31875">
        <ele>74</ele>
        <time>2014-06-10T10:20:26Z</time>
      </trkpt>
      <trkpt lat="48.68151" lon="-2.31873">
        <ele>74</ele>
        <time>2014-06-10T10:20:28Z</time>
      </trkpt>
      <trkpt lat="48.68148" lon="-2.3187">
        <ele>74</ele>
        <time>2014-06-10T10:20:31Z</time>
      </trkpt>
      <trkpt lat="48.68145" lon="-2.31868">
        <ele>74</ele>
        <time>2014-06-10T10:20:33Z</time>
      </trkpt>
      <trkpt lat="48.68142" lon="-2.31868">
        <ele>74</ele>
        <time>2014-06-10T10:20:35Z</time>
      </trkpt>
      <trkpt lat="48.6814" lon="-2.31868">
        <ele>74</ele>
        <time>2014-06-10T10:20:37Z</time>
      </trkpt>
      <trkpt lat="48.68137" lon="-2.31866">
        <ele>73</ele>
        <time>2014-06-10T10:20:39Z</time>
      </trkpt>
      <trkpt lat="48.68135" lon="-2.31866">
        <ele>73</ele>
        <time>2014-06-10T10:20:41Z</time>
      </trkpt>
      <trkpt lat="48.68132" lon="-2.31866">
        <ele>73</ele>
        <time>2014-06-10T10:20:43Z</time>
      </trkpt>
      <trkpt lat="48.68129" lon="-2.31866">
        <ele>73</ele>
        <time>2014-06-10T10:20:45Z</time>
      </trkpt>
      <trkpt lat="48.68127" lon="-2.31865">
        <ele>72</ele>
        <time>2014-06-10T10:20:48Z</time>
      </trkpt>
      <trkpt lat="48.68125" lon="-2.31864">
        <ele>72</ele>
        <time>2014-06-10T10:20:50Z</time>
      </trkpt>
      <trkpt lat="48.68124" lon="-2.31862">
        <ele>72</ele>
        <time>2014-06-10T10:20:52Z</time>
      </trkpt>
      <trkpt lat="48.68123" lon="-2.31861">
        <ele>71</ele>
        <time>2014-06-10T10:20:57Z</time>
      </trkpt>
      <trkpt lat="48.68123" lon="-2.31859">
        <ele>71</ele>
        <time>2014-06-10T10:21:02Z</time>
      </trkpt>
      <trkpt lat="48.68121" lon="-2.31858">
        <ele>70</ele>
        <time>2014-06-10T10:21:07Z</time>
      </trkpt>
      <trkpt lat="48.68122" lon="-2.31861">
        <ele>70</ele>
        <time>2014-06-10T10:21:09Z</time>
      </trkpt>
      <trkpt lat="48.68123" lon="-2.31862">
        <ele>70</ele>
        <time>2014-06-10T10:21:11Z</time>
      </trkpt>
      <trkpt lat="48.68125" lon="-2.31862">
        <ele>70</ele>
        <time>2014-06-10T10:21:13Z</time>
      </trkpt>
      <trkpt lat="48.68127" lon="-2.31863">
        <ele>70</ele>
        <time>2014-06-10T10:21:15Z</time>
      </trkpt>
      <trkpt lat="48.6813" lon="-2.31863">
        <ele>70</ele>
        <time>2014-06-10T10:21:18Z</time>
      </trkpt>
      <trkpt lat="48.68132" lon="-2.31864">
        <ele>70</ele>
        <time>2014-06-10T10:21:20Z</time>
      </trkpt>
      <trkpt lat="48.68135" lon="-2.31864">
        <ele>70</ele>
        <time>2014-06-10T10:21:22Z</time>
      </trkpt>
      <trkpt lat="48.68138" lon="-2.31865">
        <ele>70</ele>
        <time>2014-06-10T10:21:24Z</time>
      </trkpt>
      <trkpt lat="48.68141" lon="-2.31866">
        <ele>70</ele>
        <time>2014-06-10T10:21:26Z</time>
      </trkpt>
      <trkpt lat="48.68144" lon="-2.31866">
        <ele>70</ele>
        <time>2014-06-10T10:21:28Z</time>
      </trkpt>
      <trkpt lat="48.68147" lon="-2.31867">
        <ele>70</ele>
        <time>2014-06-10T10:21:30Z</time>
      </trkpt>
      <trkpt lat="48.6815" lon="-2.31869">
        <ele>70</ele>
        <time>2014-06-10T10:21:32Z</time>
      </trkpt>
      <trkpt lat="48.68153" lon="-2.31872">
        <ele>70</ele>
        <time>2014-06-10T10:21:34Z</time>
      </trkpt>
      <trkpt lat="48.68155" lon="-2.31874">
        <ele>70</ele>
        <time>2014-06-10T10:21:36Z</time>
      </trkpt>
      <trkpt lat="48.68158" lon="-2.31876">
        <ele>70</ele>
        <time>2014-06-10T10:21:38Z</time>
      </trkpt>
      <trkpt lat="48.6816" lon="-2.31878">
        <ele>70</ele>
        <time>2014-06-10T10:21:40Z</time>
      </trkpt>
      <trkpt lat="48.68163" lon="-2.31879">
        <ele>70</ele>
        <time>2014-06-10T10:21:42Z</time>
      </trkpt>
      <trkpt lat="48.68166" lon="-2.31878">
        <ele>70</ele>
        <time>2014-06-10T10:21:44Z</time>
      </trkpt>
      <trkpt lat="48.68169" lon="-2.31879">
        <ele>70</ele>
        <time>2014-06-10T10:21:46Z</time>
      </trkpt>
      <trkpt lat="48.68171" lon="-2.3188">
        <ele>70</ele>
        <time>2014-06-10T10:21:48Z</time>
      </trkpt>
      <trkpt lat="48.68174" lon="-2.31882">
        <ele>70</ele>
        <time>2014-06-10T10:21:50Z</time>
      </trkpt>
      <trkpt lat="48.68177" lon="-2.31884">
        <ele>70</ele>
        <time>2014-06-10T10:21:52Z</time>
      </trkpt>
      <trkpt lat="48.6818" lon="-2.31885">
        <ele>70</ele>
        <time>2014-06-10T10:21:54Z</time>
      </trkpt>
      <trkpt lat="48.68183" lon="-2.31887">
        <ele>70</ele>
        <time>2014-06-10T10:21:56Z</time>
      </trkpt>
      <trkpt lat="48.68185" lon="-2.31889">
        <ele>70</ele>
        <time>2014-06-10T10:21:58Z</time>
      </trkpt>
      <trkpt lat="48.68188" lon="-2.3189">
        <ele>70</ele>
        <time>2014-06-10T10:22:00Z</time>
      </trkpt>
      <trkpt lat="48.68191" lon="-2.31892">
        <ele>70</ele>
        <time>2014-06-10T10:22:02Z</time>
      </trkpt>
      <trkpt lat="48.68194" lon="-2.31894">
        <ele>70</ele>
        <time>2014-06-10T10:22:04Z</time>
      </trkpt>
      <trkpt lat="48.68196" lon="-2.31895">
        <ele>70</ele>
        <time>2014-06-10T10:22:06Z</time>
      </trkpt>
      <trkpt lat="48.68199" lon="-2.31895">
        <ele>70</ele>
        <time>2014-06-10T10:22:08Z</time>
      </trkpt>
      <trkpt lat="48.68202" lon="-2.31896">
        <ele>70</ele>
        <time>2014-06-10T10:22:10Z</time>
      </trkpt>
      <trkpt lat="48.68205" lon="-2.31895">
        <ele>70</ele>
        <time>2014-06-10T10:22:12Z</time>
      </trkpt>
      <trkpt lat="48.68208" lon="-2.31895">
        <ele>70</ele>
        <time>2014-06-10T10:22:14Z</time>
      </trkpt>
      <trkpt lat="48.6821" lon="-2.31894">
        <ele>70</ele>
        <time>2014-06-10T10:22:16Z</time>
      </trkpt>
      <trkpt lat="48.68213" lon="-2.31896">
        <ele>70</ele>
        <time>2014-06-10T10:22:18Z</time>
      </trkpt>
      <trkpt lat="48.68215" lon="-2.31898">
        <ele>70</ele>
        <time>2014-06-10T10:22:20Z</time>
      </trkpt>
      <trkpt lat="48.68218" lon="-2.31899">
        <ele>70</ele>
        <time>2014-06-10T10:22:22Z</time>
      </trkpt>
      <trkpt lat="48.6822" lon="-2.319">
        <ele>70</ele>
        <time>2014-06-10T10:22:24Z</time>
      </trkpt>
      <trkpt lat="48.68223" lon="-2.31901">
        <ele>70</ele>
        <time>2014-06-10T10:22:26Z</time>
      </trkpt>
      <trkpt lat="48.68226" lon="-2.31903">
        <ele>70</ele>
        <time>2014-06-10T10:22:28Z</time>
      </trkpt>
      <trkpt lat="48.68228" lon="-2.31904">
        <ele>70</ele>
        <time>2014-06-10T10:22:30Z</time>
      </trkpt>
      <trkpt lat="48.6823" lon="-2.31907">
        <ele>70</ele>
        <time>2014-06-10T10:22:32Z</time>
      </trkpt>
      <trkpt lat="48.68233" lon="-2.31909">
        <ele>70</ele>
        <time>2014-06-10T10:22:34Z</time>
      </trkpt>
      <trkpt lat="48.68235" lon="-2.31911">
        <ele>70</ele>
        <time>2014-06-10T10:22:36Z</time>
      </trkpt>
      <trkpt lat="48.68238" lon="-2.31912">
        <ele>70</ele>
        <time>2014-06-10T10:22:38Z</time>
      </trkpt>
      <trkpt lat="48.68241" lon="-2.31913">
        <ele>70</ele>
        <time>2014-06-10T10:22:40Z</time>
      </trkpt>
      <trkpt lat="48.68244" lon="-2.31917">
        <ele>70</ele>
        <time>2014-06-10T10:22:43Z</time>
      </trkpt>
      <trkpt lat="48.68246" lon="-2.31919">
        <ele>70</ele>
        <time>2014-06-10T10:22:45Z</time>
      </trkpt>
      <trkpt lat="48.68249" lon="-2.31921">
        <ele>70</ele>
        <time>2014-06-10T10:22:47Z</time>
      </trkpt>
      <trkpt lat="48.68251" lon="-2.31923">
        <ele>70</ele>
        <time>2014-06-10T10:22:49Z</time>
      </trkpt>
      <trkpt lat="48.68254" lon="-2.31925">
        <ele>70</ele>
        <time>2014-06-10T10:22:51Z</time>
      </trkpt>
      <trkpt lat="48.68257" lon="-2.31926">
        <ele>70</ele>
        <time>2014-06-10T10:22:53Z</time>
      </trkpt>
      <trkpt lat="48.68259" lon="-2.31927">
        <ele>70</ele>
        <time>2014-06-10T10:22:55Z</time>
      </trkpt>
      <trkpt lat="48.68262" lon="-2.31928">
        <ele>70</ele>
        <time>2014-06-10T10:22:57Z</time>
      </trkpt>
      <trkpt lat="48.68265" lon="-2.3193">
        <ele>70</ele>
        <time>2014-06-10T10:22:59Z</time>
      </trkpt>
      <trkpt lat="48.68268" lon="-2.31931">
        <ele>70</ele>
        <time>2014-06-10T10:23:01Z</time>
      </trkpt>
      <trkpt lat="48.6827" lon="-2.31933">
        <ele>70</ele>
        <time>2014-06-10T10:23:03Z</time>
      </trkpt>
      <trkpt lat="48.68273" lon="-2.31933">
        <ele>70</ele>
        <time>2014-06-10T10:23:05Z</time>
      </trkpt>
      <trkpt lat="48.68276" lon="-2.31934">
        <ele>70</ele>
        <time>2014-06-10T10:23:07Z</time>
      </trkpt>
      <trkpt lat="48.68279" lon="-2.31936">
        <ele>70</ele>
        <time>2014-06-10T10:23:09Z</time>
      </trkpt>
      <trkpt lat="48.68281" lon="-2.31938">
        <ele>70</ele>
        <time>2014-06-10T10:23:11Z</time>
      </trkpt>
      <trkpt lat="48.68283" lon="-2.31941">
        <ele>70</ele>
        <time>2014-06-10T10:23:13Z</time>
      </trkpt>
      <trkpt lat="48.68285" lon="-2.31943">
        <ele>70</ele>
        <time>2014-06-10T10:23:15Z</time>
      </trkpt>
      <trkpt lat="48.68288" lon="-2.31945">
        <ele>70</ele>
        <time>2014-06-10T10:23:17Z</time>
      </trkpt>
      <trkpt lat="48.68291" lon="-2.31947">
        <ele>70</ele>
        <time>2014-06-10T10:23:19Z</time>
      </trkpt>
      <trkpt lat="48.68293" lon="-2.31949">
        <ele>70</ele>
        <time>2014-06-10T10:23:21Z</time>
      </trkpt>
      <trkpt lat="48.68296" lon="-2.31951">
        <ele>70</ele>
        <time>2014-06-10T10:23:23Z</time>
      </trkpt>
      <trkpt lat="48.68298" lon="-2.31953">
        <ele>70</ele>
        <time>2014-06-10T10:23:25Z</time>
      </trkpt>
      <trkpt lat="48.68301" lon="-2.31955">
        <ele>70</ele>
        <time>2014-06-10T10:23:27Z</time>
      </trkpt>
      <trkpt lat="48.68303" lon="-2.31958">
        <ele>70</ele>
        <time>2014-06-10T10:23:29Z</time>
      </trkpt>
      <trkpt lat="48.68305" lon="-2.3196">
        <ele>69</ele>
        <time>2014-06-10T10:23:31Z</time>
      </trkpt>
      <trkpt lat="48.68307" lon="-2.31963">
        <ele>69</ele>
        <time>2014-06-10T10:23:33Z</time>
      </trkpt>
      <trkpt lat="48.68309" lon="-2.31966">
        <ele>69</ele>
        <time>2014-06-10T10:23:35Z</time>
      </trkpt>
      <trkpt lat="48.68312" lon="-2.31967">
        <ele>69</ele>
        <time>2014-06-10T10:23:37Z</time>
      </trkpt>
      <trkpt lat="48.68314" lon="-2.31966">
        <ele>69</ele>
        <time>2014-06-10T10:23:39Z</time>
      </trkpt>
      <trkpt lat="48.68317" lon="-2.31966">
        <ele>69</ele>
        <time>2014-06-10T10:23:41Z</time>
      </trkpt>
      <trkpt lat="48.68319" lon="-2.31967">
        <ele>69</ele>
        <time>2014-06-10T10:23:43Z</time>
      </trkpt>
      <trkpt lat="48.68322" lon="-2.31968">
        <ele>69</ele>
        <time>2014-06-10T10:23:45Z</time>
      </trkpt>
      <trkpt lat="48.68322" lon="-2.31966">
        <ele>69</ele>
        <time>2014-06-10T10:23:47Z</time>
      </trkpt>
      <trkpt lat="48.68325" lon="-2.31968">
        <ele>69</ele>
        <time>2014-06-10T10:23:49Z</time>
      </trkpt>
      <trkpt lat="48.68327" lon="-2.3197">
        <ele>69</ele>
        <time>2014-06-10T10:23:51Z</time>
      </trkpt>
      <trkpt lat="48.6833" lon="-2.31971">
        <ele>69</ele>
        <time>2014-06-10T10:23:53Z</time>
      </trkpt>
      <trkpt lat="48.68332" lon="-2.31971">
        <ele>69</ele>
        <time>2014-06-10T10:23:55Z</time>
      </trkpt>
      <trkpt lat="48.68335" lon="-2.3197">
        <ele>69</ele>
        <time>2014-06-10T10:23:57Z</time>
      </trkpt>
      <trkpt lat="48.68338" lon="-2.31968">
        <ele>69</ele>
        <time>2014-06-10T10:24:00Z</time>
      </trkpt>
      <trkpt lat="48.6834" lon="-2.31967">
        <ele>69</ele>
        <time>2014-06-10T10:24:02Z</time>
      </trkpt>
      <trkpt lat="48.68338" lon="-2.31969">
        <ele>69</ele>
        <time>2014-06-10T10:24:07Z</time>
      </trkpt>
      <trkpt lat="48.68335" lon="-2.3197">
        <ele>69</ele>
        <time>2014-06-10T10:24:09Z</time>
      </trkpt>
      <trkpt lat="48.68333" lon="-2.31971">
        <ele>69</ele>
        <time>2014-06-10T10:24:11Z</time>
      </trkpt>
      <trkpt lat="48.6833" lon="-2.31971">
        <ele>69</ele>
        <time>2014-06-10T10:24:13Z</time>
      </trkpt>
      <trkpt lat="48.68328" lon="-2.31968">
        <ele>69</ele>
        <time>2014-06-10T10:24:15Z</time>
      </trkpt>
      <trkpt lat="48.68327" lon="-2.31965">
        <ele>69</ele>
        <time>2014-06-10T10:24:17Z</time>
      </trkpt>
      <trkpt lat="48.68327" lon="-2.31961">
        <ele>69</ele>
        <time>2014-06-10T10:24:19Z</time>
      </trkpt>
      <trkpt lat="48.68328" lon="-2.31957">
        <ele>69</ele>
        <time>2014-06-10T10:24:21Z</time>
      </trkpt>
      <trkpt lat="48.68327" lon="-2.31954">
        <ele>69</ele>
        <time>2014-06-10T10:24:23Z</time>
      </trkpt>
      <trkpt lat="48.68326" lon="-2.3195">
        <ele>69</ele>
        <time>2014-06-10T10:24:25Z</time>
      </trkpt>
      <trkpt lat="48.68327" lon="-2.31946">
        <ele>69</ele>
        <time>2014-06-10T10:24:27Z</time>
      </trkpt>
      <trkpt lat="48.68328" lon="-2.31942">
        <ele>69</ele>
        <time>2014-06-10T10:24:29Z</time>
      </trkpt>
      <trkpt lat="48.68329" lon="-2.31939">
        <ele>69</ele>
        <time>2014-06-10T10:24:31Z</time>
      </trkpt>
      <trkpt lat="48.68329" lon="-2.31937">
        <ele>69</ele>
        <time>2014-06-10T10:24:33Z</time>
      </trkpt>
      <trkpt lat="48.6833" lon="-2.31935">
        <ele>69</ele>
        <time>2014-06-10T10:24:37Z</time>
      </trkpt>
      <trkpt lat="48.68327" lon="-2.3193">
        <ele>71</ele>
        <time>2014-06-10T10:24:40Z</time>
      </trkpt>
      <trkpt lat="48.68329" lon="-2.31928">
        <ele>73</ele>
        <time>2014-06-10T10:24:42Z</time>
      </trkpt>
      <trkpt lat="48.68332" lon="-2.31927">
        <ele>73</ele>
        <time>2014-06-10T10:24:44Z</time>
      </trkpt>
      <trkpt lat="48.68334" lon="-2.31926">
        <ele>73</ele>
        <time>2014-06-10T10:24:46Z</time>
      </trkpt>
      <trkpt lat="48.68337" lon="-2.31926">
        <ele>73</ele>
        <time>2014-06-10T10:24:48Z</time>
      </trkpt>
      <trkpt lat="48.6834" lon="-2.31926">
        <ele>73</ele>
        <time>2014-06-10T10:24:50Z</time>
      </trkpt>
      <trkpt lat="48.68342" lon="-2.31924">
        <ele>73</ele>
        <time>2014-06-10T10:24:52Z</time>
      </trkpt>
      <trkpt lat="48.68345" lon="-2.31923">
        <ele>73</ele>
        <time>2014-06-10T10:24:54Z</time>
      </trkpt>
      <trkpt lat="48.68348" lon="-2.31923">
        <ele>73</ele>
        <time>2014-06-10T10:24:56Z</time>
      </trkpt>
      <trkpt lat="48.6835" lon="-2.31923">
        <ele>73</ele>
        <time>2014-06-10T10:24:58Z</time>
      </trkpt>
      <trkpt lat="48.68353" lon="-2.31922">
        <ele>73</ele>
        <time>2014-06-10T10:25:00Z</time>
      </trkpt>
      <trkpt lat="48.68355" lon="-2.31923">
        <ele>73</ele>
        <time>2014-06-10T10:25:02Z</time>
      </trkpt>
      <trkpt lat="48.68358" lon="-2.31924">
        <ele>73</ele>
        <time>2014-06-10T10:25:04Z</time>
      </trkpt>
      <trkpt lat="48.6836" lon="-2.31924">
        <ele>73</ele>
        <time>2014-06-10T10:25:06Z</time>
      </trkpt>
      <trkpt lat="48.68363" lon="-2.31924">
        <ele>73</ele>
        <time>2014-06-10T10:25:08Z</time>
      </trkpt>
      <trkpt lat="48.68365" lon="-2.31925">
        <ele>73</ele>
        <time>2014-06-10T10:25:10Z</time>
      </trkpt>
      <trkpt lat="48.68368" lon="-2.31925">
        <ele>73</ele>
        <time>2014-06-10T10:25:12Z</time>
      </trkpt>
      <trkpt lat="48.6837" lon="-2.31925">
        <ele>73</ele>
        <time>2014-06-10T10:25:14Z</time>
      </trkpt>
      <trkpt lat="48.68373" lon="-2.31926">
        <ele>73</ele>
        <time>2014-06-10T10:25:16Z</time>
      </trkpt>
      <trkpt lat="48.68376" lon="-2.31926">
        <ele>73</ele>
        <time>2014-06-10T10:25:18Z</time>
      </trkpt>
      <trkpt lat="48.68378" lon="-2.31927">
        <ele>73</ele>
        <time>2014-06-10T10:25:20Z</time>
      </trkpt>
      <trkpt lat="48.68381" lon="-2.31927">
        <ele>73</ele>
        <time>2014-06-10T10:25:22Z</time>
      </trkpt>
      <trkpt lat="48.68384" lon="-2.31927">
        <ele>73</ele>
        <time>2014-06-10T10:25:24Z</time>
      </trkpt>
      <trkpt lat="48.68386" lon="-2.31927">
        <ele>73</ele>
        <time>2014-06-10T10:25:26Z</time>
      </trkpt>
      <trkpt lat="48.68389" lon="-2.31928">
        <ele>73</ele>
        <time>2014-06-10T10:25:28Z</time>
      </trkpt>
      <trkpt lat="48.68392" lon="-2.31928">
        <ele>73</ele>
        <time>2014-06-10T10:25:30Z</time>
      </trkpt>
      <trkpt lat="48.68394" lon="-2.31928">
        <ele>73</ele>
        <time>2014-06-10T10:25:32Z</time>
      </trkpt>
      <trkpt lat="48.68397" lon="-2.31928">
        <ele>73</ele>
        <time>2014-06-10T10:25:34Z</time>
      </trkpt>
      <trkpt lat="48.68398" lon="-2.31927">
        <ele>73</ele>
        <time>2014-06-10T10:25:36Z</time>
      </trkpt>
      <trkpt lat="48.684" lon="-2.31927">
        <ele>73</ele>
        <time>2014-06-10T10:25:38Z</time>
      </trkpt>
      <trkpt lat="48.68402" lon="-2.31927">
        <ele>74</ele>
        <time>2014-06-10T10:25:40Z</time>
      </trkpt>
      <trkpt lat="48.68405" lon="-2.31928">
        <ele>74</ele>
        <time>2014-06-10T10:25:42Z</time>
      </trkpt>
      <trkpt lat="48.68408" lon="-2.31927">
        <ele>74</ele>
        <time>2014-06-10T10:25:45Z</time>
      </trkpt>
      <trkpt lat="48.6841" lon="-2.31928">
        <ele>74</ele>
        <time>2014-06-10T10:25:47Z</time>
      </trkpt>
      <trkpt lat="48.68412" lon="-2.31927">
        <ele>74</ele>
        <time>2014-06-10T10:25:49Z</time>
      </trkpt>
      <trkpt lat="48.68415" lon="-2.31926">
        <ele>74</ele>
        <time>2014-06-10T10:25:52Z</time>
      </trkpt>
      <trkpt lat="48.68417" lon="-2.31924">
        <ele>74</ele>
        <time>2014-06-10T10:25:54Z</time>
      </trkpt>
      <trkpt lat="48.68419" lon="-2.31921">
        <ele>74</ele>
        <time>2014-06-10T10:25:56Z</time>
      </trkpt>
      <trkpt lat="48.68421" lon="-2.31917">
        <ele>74</ele>
        <time>2014-06-10T10:25:59Z</time>
      </trkpt>
      <trkpt lat="48.68422" lon="-2.31914">
        <ele>74</ele>
        <time>2014-06-10T10:26:01Z</time>
      </trkpt>
      <trkpt lat="48.68424" lon="-2.31909">
        <ele>74</ele>
        <time>2014-06-10T10:26:04Z</time>
      </trkpt>
      <trkpt lat="48.68425" lon="-2.31907">
        <ele>74</ele>
        <time>2014-06-10T10:26:06Z</time>
      </trkpt>
      <trkpt lat="48.68427" lon="-2.31904">
        <ele>74</ele>
        <time>2014-06-10T10:26:08Z</time>
      </trkpt>
      <trkpt lat="48.6843" lon="-2.31901">
        <ele>74</ele>
        <time>2014-06-10T10:26:10Z</time>
      </trkpt>
      <trkpt lat="48.68433" lon="-2.31897">
        <ele>74</ele>
        <time>2014-06-10T10:26:12Z</time>
      </trkpt>
      <trkpt lat="48.68435" lon="-2.31894">
        <ele>74</ele>
        <time>2014-06-10T10:26:14Z</time>
      </trkpt>
      <trkpt lat="48.68436" lon="-2.31892">
        <ele>74</ele>
        <time>2014-06-10T10:26:16Z</time>
      </trkpt>
      <trkpt lat="48.68439" lon="-2.31889">
        <ele>74</ele>
        <time>2014-06-10T10:26:18Z</time>
      </trkpt>
      <trkpt lat="48.68441" lon="-2.31887">
        <ele>74</ele>
        <time>2014-06-10T10:26:20Z</time>
      </trkpt>
      <trkpt lat="48.68444" lon="-2.31883">
        <ele>74</ele>
        <time>2014-06-10T10:26:23Z</time>
      </trkpt>
      <trkpt lat="48.68447" lon="-2.31883">
        <ele>74</ele>
        <time>2014-06-10T10:26:26Z</time>
      </trkpt>
      <trkpt lat="48.68449" lon="-2.31881">
        <ele>74</ele>
        <time>2014-06-10T10:26:28Z</time>
      </trkpt>
      <trkpt lat="48.68451" lon="-2.3188">
        <ele>74</ele>
        <time>2014-06-10T10:26:30Z</time>
      </trkpt>
      <trkpt lat="48.68453" lon="-2.31879">
        <ele>74</ele>
        <time>2014-06-10T10:26:32Z</time>
      </trkpt>
      <trkpt lat="48.68456" lon="-2.31878">
        <ele>74</ele>
        <time>2014-06-10T10:26:34Z</time>
      </trkpt>
      <trkpt lat="48.68459" lon="-2.31876">
        <ele>74</ele>
        <time>2014-06-10T10:26:36Z</time>
      </trkpt>
      <trkpt lat="48.68461" lon="-2.31874">
        <ele>74</ele>
        <time>2014-06-10T10:26:38Z</time>
      </trkpt>
      <trkpt lat="48.68464" lon="-2.3187">
        <ele>73</ele>
        <time>2014-06-10T10:26:41Z</time>
      </trkpt>
      <trkpt lat="48.68467" lon="-2.31869">
        <ele>73</ele>
        <time>2014-06-10T10:26:43Z</time>
      </trkpt>
      <trkpt lat="48.6847" lon="-2.31867">
        <ele>72</ele>
        <time>2014-06-10T10:26:45Z</time>
      </trkpt>
      <trkpt lat="48.68472" lon="-2.31865">
        <ele>72</ele>
        <time>2014-06-10T10:26:47Z</time>
      </trkpt>
      <trkpt lat="48.68475" lon="-2.31862">
        <ele>71</ele>
        <time>2014-06-10T10:26:50Z</time>
      </trkpt>
      <trkpt lat="48.68478" lon="-2.31859">
        <ele>71</ele>
        <time>2014-06-10T10:26:52Z</time>
      </trkpt>
      <trkpt lat="48.68481" lon="-2.31857">
        <ele>71</ele>
        <time>2014-06-10T10:26:54Z</time>
      </trkpt>
      <trkpt lat="48.68483" lon="-2.31855">
        <ele>70</ele>
        <time>2014-06-10T10:26:56Z</time>
      </trkpt>
      <trkpt lat="48.68485" lon="-2.31852">
        <ele>70</ele>
        <time>2014-06-10T10:26:58Z</time>
      </trkpt>
      <trkpt lat="48.68488" lon="-2.3185">
        <ele>70</ele>
        <time>2014-06-10T10:27:00Z</time>
      </trkpt>
      <trkpt lat="48.6849" lon="-2.31847">
        <ele>70</ele>
        <time>2014-06-10T10:27:02Z</time>
      </trkpt>
      <trkpt lat="48.68492" lon="-2.31844">
        <ele>70</ele>
        <time>2014-06-10T10:27:04Z</time>
      </trkpt>
      <trkpt lat="48.68494" lon="-2.31842">
        <ele>70</ele>
        <time>2014-06-10T10:27:06Z</time>
      </trkpt>
      <trkpt lat="48.68496" lon="-2.3184">
        <ele>69</ele>
        <time>2014-06-10T10:27:08Z</time>
      </trkpt>
      <trkpt lat="48.68497" lon="-2.31838">
        <ele>68</ele>
        <time>2014-06-10T10:27:10Z</time>
      </trkpt>
      <trkpt lat="48.68501" lon="-2.31834">
        <ele>68</ele>
        <time>2014-06-10T10:27:13Z</time>
      </trkpt>
      <trkpt lat="48.68503" lon="-2.31831">
        <ele>67</ele>
        <time>2014-06-10T10:27:15Z</time>
      </trkpt>
      <trkpt lat="48.68506" lon="-2.31828">
        <ele>67</ele>
        <time>2014-06-10T10:27:18Z</time>
      </trkpt>
      <trkpt lat="48.68509" lon="-2.31824">
        <ele>67</ele>
        <time>2014-06-10T10:27:21Z</time>
      </trkpt>
      <trkpt lat="48.68512" lon="-2.31821">
        <ele>66</ele>
        <time>2014-06-10T10:27:24Z</time>
      </trkpt>
      <trkpt lat="48.68514" lon="-2.31819">
        <ele>66</ele>
        <time>2014-06-10T10:27:26Z</time>
      </trkpt>
      <trkpt lat="48.68517" lon="-2.31816">
        <ele>66</ele>
        <time>2014-06-10T10:27:28Z</time>
      </trkpt>
      <trkpt lat="48.6852" lon="-2.31812">
        <ele>66</ele>
        <time>2014-06-10T10:27:31Z</time>
      </trkpt>
      <trkpt lat="48.68523" lon="-2.31808">
        <ele>65</ele>
        <time>2014-06-10T10:27:34Z</time>
      </trkpt>
      <trkpt lat="48.68525" lon="-2.31806">
        <ele>65</ele>
        <time>2014-06-10T10:27:36Z</time>
      </trkpt>
      <trkpt lat="48.68527" lon="-2.31803">
        <ele>65</ele>
        <time>2014-06-10T10:27:38Z</time>
      </trkpt>
      <trkpt lat="48.6853" lon="-2.31801">
        <ele>65</ele>
        <time>2014-06-10T10:27:40Z</time>
      </trkpt>
      <trkpt lat="48.68532" lon="-2.31799">
        <ele>65</ele>
        <time>2014-06-10T10:27:42Z</time>
      </trkpt>
      <trkpt lat="48.68534" lon="-2.31796">
        <ele>64</ele>
        <time>2014-06-10T10:27:44Z</time>
      </trkpt>
      <trkpt lat="48.68536" lon="-2.31794">
        <ele>64</ele>
        <time>2014-06-10T10:27:46Z</time>
      </trkpt>
      <trkpt lat="48.68538" lon="-2.31791">
        <ele>64</ele>
        <time>2014-06-10T10:27:48Z</time>
      </trkpt>
      <trkpt lat="48.68541" lon="-2.31788">
        <ele>64</ele>
        <time>2014-06-10T10:27:50Z</time>
      </trkpt>
      <trkpt lat="48.68543" lon="-2.31786">
        <ele>64</ele>
        <time>2014-06-10T10:27:52Z</time>
      </trkpt>
      <trkpt lat="48.68546" lon="-2.31784">
        <ele>64</ele>
        <time>2014-06-10T10:27:54Z</time>
      </trkpt>
      <trkpt lat="48.68548" lon="-2.31781">
        <ele>64</ele>
        <time>2014-06-10T10:27:56Z</time>
      </trkpt>
      <trkpt lat="48.6855" lon="-2.31779">
        <ele>64</ele>
        <time>2014-06-10T10:27:58Z</time>
      </trkpt>
      <trkpt lat="48.68552" lon="-2.31776">
        <ele>64</ele>
        <time>2014-06-10T10:28:00Z</time>
      </trkpt>
      <trkpt lat="48.68555" lon="-2.31774">
        <ele>64</ele>
        <time>2014-06-10T10:28:02Z</time>
      </trkpt>
      <trkpt lat="48.68558" lon="-2.31771">
        <ele>64</ele>
        <time>2014-06-10T10:28:05Z</time>
      </trkpt>
      <trkpt lat="48.6856" lon="-2.31769">
        <ele>64</ele>
        <time>2014-06-10T10:28:07Z</time>
      </trkpt>
      <trkpt lat="48.68562" lon="-2.31767">
        <ele>64</ele>
        <time>2014-06-10T10:28:09Z</time>
      </trkpt>
      <trkpt lat="48.68564" lon="-2.31764">
        <ele>64</ele>
        <time>2014-06-10T10:28:11Z</time>
      </trkpt>
      <trkpt lat="48.68567" lon="-2.31762">
        <ele>64</ele>
        <time>2014-06-10T10:28:13Z</time>
      </trkpt>
      <trkpt lat="48.68568" lon="-2.31759">
        <ele>64</ele>
        <time>2014-06-10T10:28:15Z</time>
      </trkpt>
      <trkpt lat="48.68571" lon="-2.31757">
        <ele>64</ele>
        <time>2014-06-10T10:28:17Z</time>
      </trkpt>
      <trkpt lat="48.68573" lon="-2.31755">
        <ele>64</ele>
        <time>2014-06-10T10:28:19Z</time>
      </trkpt>
      <trkpt lat="48.68576" lon="-2.31753">
        <ele>64</ele>
        <time>2014-06-10T10:28:21Z</time>
      </trkpt>
      <trkpt lat="48.68578" lon="-2.3175">
        <ele>64</ele>
        <time>2014-06-10T10:28:23Z</time>
      </trkpt>
      <trkpt lat="48.6858" lon="-2.31748">
        <ele>64</ele>
        <time>2014-06-10T10:28:25Z</time>
      </trkpt>
      <trkpt lat="48.68583" lon="-2.31747">
        <ele>64</ele>
        <time>2014-06-10T10:28:27Z</time>
      </trkpt>
      <trkpt lat="48.68586" lon="-2.31744">
        <ele>64</ele>
        <time>2014-06-10T10:28:30Z</time>
      </trkpt>
      <trkpt lat="48.68588" lon="-2.31742">
        <ele>64</ele>
        <time>2014-06-10T10:28:32Z</time>
      </trkpt>
      <trkpt lat="48.68588" lon="-2.31741">
        <ele>64</ele>
        <time>2014-06-10T10:28:35Z</time>
      </trkpt>
      <trkpt lat="48.68587" lon="-2.31737">
        <ele>64</ele>
        <time>2014-06-10T10:28:37Z</time>
      </trkpt>
      <trkpt lat="48.68585" lon="-2.31734">
        <ele>64</ele>
        <time>2014-06-10T10:28:39Z</time>
      </trkpt>
      <trkpt lat="48.68584" lon="-2.31731">
        <ele>64</ele>
        <time>2014-06-10T10:28:41Z</time>
      </trkpt>
      <trkpt lat="48.68583" lon="-2.31728">
        <ele>64</ele>
        <time>2014-06-10T10:28:43Z</time>
      </trkpt>
      <trkpt lat="48.68582" lon="-2.31724">
        <ele>64</ele>
        <time>2014-06-10T10:28:45Z</time>
      </trkpt>
      <trkpt lat="48.68581" lon="-2.3172">
        <ele>64</ele>
        <time>2014-06-10T10:28:47Z</time>
      </trkpt>
      <trkpt lat="48.68581" lon="-2.31716">
        <ele>64</ele>
        <time>2014-06-10T10:28:49Z</time>
      </trkpt>
      <trkpt lat="48.6858" lon="-2.31713">
        <ele>64</ele>
        <time>2014-06-10T10:28:51Z</time>
      </trkpt>
      <trkpt lat="48.68578" lon="-2.31708">
        <ele>64</ele>
        <time>2014-06-10T10:28:54Z</time>
      </trkpt>
      <trkpt lat="48.68578" lon="-2.31704">
        <ele>64</ele>
        <time>2014-06-10T10:28:56Z</time>
      </trkpt>
      <trkpt lat="48.68577" lon="-2.31701">
        <ele>64</ele>
        <time>2014-06-10T10:28:58Z</time>
      </trkpt>
      <trkpt lat="48.68578" lon="-2.31696">
        <ele>64</ele>
        <time>2014-06-10T10:29:01Z</time>
      </trkpt>
      <trkpt lat="48.68578" lon="-2.31693">
        <ele>64</ele>
        <time>2014-06-10T10:29:03Z</time>
      </trkpt>
      <trkpt lat="48.68579" lon="-2.3169">
        <ele>64</ele>
        <time>2014-06-10T10:29:05Z</time>
      </trkpt>
      <trkpt lat="48.6858" lon="-2.31685">
        <ele>64</ele>
        <time>2014-06-10T10:29:08Z</time>
      </trkpt>
      <trkpt lat="48.68581" lon="-2.31681">
        <ele>63</ele>
        <time>2014-06-10T10:29:10Z</time>
      </trkpt>
      <trkpt lat="48.68582" lon="-2.31678">
        <ele>63</ele>
        <time>2014-06-10T10:29:12Z</time>
      </trkpt>
      <trkpt lat="48.68583" lon="-2.31675">
        <ele>63</ele>
        <time>2014-06-10T10:29:14Z</time>
      </trkpt>
      <trkpt lat="48.68584" lon="-2.31673">
        <ele>63</ele>
        <time>2014-06-10T10:29:16Z</time>
      </trkpt>
      <trkpt lat="48.68587" lon="-2.3167">
        <ele>63</ele>
        <time>2014-06-10T10:29:19Z</time>
      </trkpt>
      <trkpt lat="48.68588" lon="-2.31668">
        <ele>63</ele>
        <time>2014-06-10T10:29:21Z</time>
      </trkpt>
      <trkpt lat="48.68589" lon="-2.31665">
        <ele>63</ele>
        <time>2014-06-10T10:29:23Z</time>
      </trkpt>
      <trkpt lat="48.68589" lon="-2.31663">
        <ele>63</ele>
        <time>2014-06-10T10:29:25Z</time>
      </trkpt>
      <trkpt lat="48.6859" lon="-2.31662">
        <ele>63</ele>
        <time>2014-06-10T10:29:27Z</time>
      </trkpt>
      <trkpt lat="48.68592" lon="-2.3166">
        <ele>63</ele>
        <time>2014-06-10T10:29:29Z</time>
      </trkpt>
      <trkpt lat="48.68593" lon="-2.31658">
        <ele>62</ele>
        <time>2014-06-10T10:29:31Z</time>
      </trkpt>
      <trkpt lat="48.68594" lon="-2.31656">
        <ele>62</ele>
        <time>2014-06-10T10:29:33Z</time>
      </trkpt>
      <trkpt lat="48.68594" lon="-2.31653">
        <ele>62</ele>
        <time>2014-06-10T10:29:35Z</time>
      </trkpt>
      <trkpt lat="48.68595" lon="-2.31651">
        <ele>62</ele>
        <time>2014-06-10T10:29:37Z</time>
      </trkpt>
      <trkpt lat="48.68596" lon="-2.31649">
        <ele>62</ele>
        <time>2014-06-10T10:29:39Z</time>
      </trkpt>
      <trkpt lat="48.68597" lon="-2.31647">
        <ele>62</ele>
        <time>2014-06-10T10:29:41Z</time>
      </trkpt>
      <trkpt lat="48.68599" lon="-2.31647">
        <ele>61</ele>
        <time>2014-06-10T10:29:44Z</time>
      </trkpt>
      <trkpt lat="48.68596" lon="-2.31639">
        <ele>61</ele>
        <time>2014-06-10T10:29:46Z</time>
      </trkpt>
      <trkpt lat="48.68597" lon="-2.31639">
        <ele>61</ele>
        <time>2014-06-10T10:29:48Z</time>
      </trkpt>
      <trkpt lat="48.68599" lon="-2.31639">
        <ele>63</ele>
        <time>2014-06-10T10:29:50Z</time>
      </trkpt>
      <trkpt lat="48.686" lon="-2.31639">
        <ele>64</ele>
        <time>2014-06-10T10:29:53Z</time>
      </trkpt>
      <trkpt lat="48.68603" lon="-2.31641">
        <ele>64</ele>
        <time>2014-06-10T10:29:55Z</time>
      </trkpt>
      <trkpt lat="48.68605" lon="-2.31642">
        <ele>64</ele>
        <time>2014-06-10T10:29:57Z</time>
      </trkpt>
      <trkpt lat="48.68608" lon="-2.31644">
        <ele>64</ele>
        <time>2014-06-10T10:29:59Z</time>
      </trkpt>
      <trkpt lat="48.68611" lon="-2.31645">
        <ele>64</ele>
        <time>2014-06-10T10:30:01Z</time>
      </trkpt>
      <trkpt lat="48.68614" lon="-2.31645">
        <ele>64</ele>
        <time>2014-06-10T10:30:03Z</time>
      </trkpt>
      <trkpt lat="48.68616" lon="-2.31646">
        <ele>64</ele>
        <time>2014-06-10T10:30:05Z</time>
      </trkpt>
      <trkpt lat="48.68619" lon="-2.31646">
        <ele>64</ele>
        <time>2014-06-10T10:30:07Z</time>
      </trkpt>
      <trkpt lat="48.68621" lon="-2.31646">
        <ele>64</ele>
        <time>2014-06-10T10:30:09Z</time>
      </trkpt>
      <trkpt lat="48.68624" lon="-2.31645">
        <ele>64</ele>
        <time>2014-06-10T10:30:11Z</time>
      </trkpt>
      <trkpt lat="48.68626" lon="-2.31645">
        <ele>64</ele>
        <time>2014-06-10T10:30:13Z</time>
      </trkpt>
      <trkpt lat="48.68628" lon="-2.31645">
        <ele>64</ele>
        <time>2014-06-10T10:30:15Z</time>
      </trkpt>
      <trkpt lat="48.68631" lon="-2.31646">
        <ele>64</ele>
        <time>2014-06-10T10:30:17Z</time>
      </trkpt>
      <trkpt lat="48.68634" lon="-2.31647">
        <ele>64</ele>
        <time>2014-06-10T10:30:19Z</time>
      </trkpt>
      <trkpt lat="48.68636" lon="-2.31647">
        <ele>64</ele>
        <time>2014-06-10T10:30:21Z</time>
      </trkpt>
      <trkpt lat="48.68639" lon="-2.31648">
        <ele>64</ele>
        <time>2014-06-10T10:30:23Z</time>
      </trkpt>
      <trkpt lat="48.68642" lon="-2.31648">
        <ele>64</ele>
        <time>2014-06-10T10:30:25Z</time>
      </trkpt>
      <trkpt lat="48.68644" lon="-2.3165">
        <ele>64</ele>
        <time>2014-06-10T10:30:27Z</time>
      </trkpt>
      <trkpt lat="48.68647" lon="-2.31651">
        <ele>64</ele>
        <time>2014-06-10T10:30:29Z</time>
      </trkpt>
      <trkpt lat="48.6865" lon="-2.31653">
        <ele>64</ele>
        <time>2014-06-10T10:30:31Z</time>
      </trkpt>
      <trkpt lat="48.68652" lon="-2.31655">
        <ele>64</ele>
        <time>2014-06-10T10:30:33Z</time>
      </trkpt>
      <trkpt lat="48.68655" lon="-2.31657">
        <ele>64</ele>
        <time>2014-06-10T10:30:35Z</time>
      </trkpt>
      <trkpt lat="48.68657" lon="-2.31659">
        <ele>64</ele>
        <time>2014-06-10T10:30:37Z</time>
      </trkpt>
      <trkpt lat="48.6866" lon="-2.31659">
        <ele>64</ele>
        <time>2014-06-10T10:30:39Z</time>
      </trkpt>
      <trkpt lat="48.68662" lon="-2.3166">
        <ele>64</ele>
        <time>2014-06-10T10:30:41Z</time>
      </trkpt>
      <trkpt lat="48.68665" lon="-2.31661">
        <ele>64</ele>
        <time>2014-06-10T10:30:43Z</time>
      </trkpt>
      <trkpt lat="48.68668" lon="-2.31661">
        <ele>64</ele>
        <time>2014-06-10T10:30:45Z</time>
      </trkpt>
      <trkpt lat="48.6867" lon="-2.31661">
        <ele>64</ele>
        <time>2014-06-10T10:30:47Z</time>
      </trkpt>
      <trkpt lat="48.68673" lon="-2.31661">
        <ele>64</ele>
        <time>2014-06-10T10:30:49Z</time>
      </trkpt>
      <trkpt lat="48.68675" lon="-2.31663">
        <ele>64</ele>
        <time>2014-06-10T10:30:51Z</time>
      </trkpt>
      <trkpt lat="48.68678" lon="-2.31663">
        <ele>64</ele>
        <time>2014-06-10T10:30:53Z</time>
      </trkpt>
      <trkpt lat="48.6868" lon="-2.31664">
        <ele>64</ele>
        <time>2014-06-10T10:30:55Z</time>
      </trkpt>
      <trkpt lat="48.68683" lon="-2.31665">
        <ele>64</ele>
        <time>2014-06-10T10:30:57Z</time>
      </trkpt>
      <trkpt lat="48.68685" lon="-2.31667">
        <ele>64</ele>
        <time>2014-06-10T10:30:59Z</time>
      </trkpt>
      <trkpt lat="48.68688" lon="-2.31668">
        <ele>64</ele>
        <time>2014-06-10T10:31:01Z</time>
      </trkpt>
      <trkpt lat="48.6869" lon="-2.31669">
        <ele>64</ele>
        <time>2014-06-10T10:31:03Z</time>
      </trkpt>
      <trkpt lat="48.68693" lon="-2.31671">
        <ele>64</ele>
        <time>2014-06-10T10:31:05Z</time>
      </trkpt>
      <trkpt lat="48.68695" lon="-2.31672">
        <ele>64</ele>
        <time>2014-06-10T10:31:07Z</time>
      </trkpt>
      <trkpt lat="48.68698" lon="-2.31674">
        <ele>64</ele>
        <time>2014-06-10T10:31:09Z</time>
      </trkpt>
      <trkpt lat="48.687" lon="-2.31676">
        <ele>64</ele>
        <time>2014-06-10T10:31:11Z</time>
      </trkpt>
      <trkpt lat="48.68702" lon="-2.31678">
        <ele>64</ele>
        <time>2014-06-10T10:31:13Z</time>
      </trkpt>
      <trkpt lat="48.68704" lon="-2.3168">
        <ele>64</ele>
        <time>2014-06-10T10:31:15Z</time>
      </trkpt>
      <trkpt lat="48.68707" lon="-2.31681">
        <ele>64</ele>
        <time>2014-06-10T10:31:17Z</time>
      </trkpt>
      <trkpt lat="48.6871" lon="-2.31682">
        <ele>64</ele>
        <time>2014-06-10T10:31:19Z</time>
      </trkpt>
      <trkpt lat="48.68712" lon="-2.31684">
        <ele>64</ele>
        <time>2014-06-10T10:31:21Z</time>
      </trkpt>
      <trkpt lat="48.68715" lon="-2.31685">
        <ele>64</ele>
        <time>2014-06-10T10:31:23Z</time>
      </trkpt>
      <trkpt lat="48.68717" lon="-2.31686">
        <ele>64</ele>
        <time>2014-06-10T10:31:25Z</time>
      </trkpt>
      <trkpt lat="48.68719" lon="-2.31687">
        <ele>64</ele>
        <time>2014-06-10T10:31:27Z</time>
      </trkpt>
      <trkpt lat="48.68722" lon="-2.31688">
        <ele>64</ele>
        <time>2014-06-10T10:31:29Z</time>
      </trkpt>
      <trkpt lat="48.68724" lon="-2.31688">
        <ele>64</ele>
        <time>2014-06-10T10:31:31Z</time>
      </trkpt>
      <trkpt lat="48.68726" lon="-2.31689">
        <ele>64</ele>
        <time>2014-06-10T10:31:34Z</time>
      </trkpt>
      <trkpt lat="48.68727" lon="-2.3169">
        <ele>64</ele>
        <time>2014-06-10T10:31:36Z</time>
      </trkpt>
      <trkpt lat="48.68728" lon="-2.31691">
        <ele>64</ele>
        <time>2014-06-10T10:31:39Z</time>
      </trkpt>
      <trkpt lat="48.6873" lon="-2.31692">
        <ele>64</ele>
        <time>2014-06-10T10:31:41Z</time>
      </trkpt>
      <trkpt lat="48.68731" lon="-2.31693">
        <ele>64</ele>
        <time>2014-06-10T10:31:43Z</time>
      </trkpt>
      <trkpt lat="48.68733" lon="-2.31695">
        <ele>64</ele>
        <time>2014-06-10T10:31:45Z</time>
      </trkpt>
      <trkpt lat="48.68735" lon="-2.31695">
        <ele>64</ele>
        <time>2014-06-10T10:31:47Z</time>
      </trkpt>
      <trkpt lat="48.68736" lon="-2.31696">
        <ele>64</ele>
        <time>2014-06-10T10:31:49Z</time>
      </trkpt>
      <trkpt lat="48.68738" lon="-2.31696">
        <ele>64</ele>
        <time>2014-06-10T10:31:51Z</time>
      </trkpt>
      <trkpt lat="48.68741" lon="-2.31697">
        <ele>64</ele>
        <time>2014-06-10T10:31:53Z</time>
      </trkpt>
      <trkpt lat="48.68743" lon="-2.31699">
        <ele>64</ele>
        <time>2014-06-10T10:31:55Z</time>
      </trkpt>
      <trkpt lat="48.68744" lon="-2.31701">
        <ele>64</ele>
        <time>2014-06-10T10:31:57Z</time>
      </trkpt>
      <trkpt lat="48.68746" lon="-2.31703">
        <ele>64</ele>
        <time>2014-06-10T10:31:59Z</time>
      </trkpt>
      <trkpt lat="48.68748" lon="-2.31705">
        <ele>64</ele>
        <time>2014-06-10T10:32:01Z</time>
      </trkpt>
      <trkpt lat="48.68751" lon="-2.31709">
        <ele>64</ele>
        <time>2014-06-10T10:32:04Z</time>
      </trkpt>
      <trkpt lat="48.68753" lon="-2.31711">
        <ele>63</ele>
        <time>2014-06-10T10:32:06Z</time>
      </trkpt>
      <trkpt lat="48.68755" lon="-2.31715">
        <ele>63</ele>
        <time>2014-06-10T10:32:08Z</time>
      </trkpt>
      <trkpt lat="48.68757" lon="-2.31719">
        <ele>63</ele>
        <time>2014-06-10T10:32:11Z</time>
      </trkpt>
      <trkpt lat="48.68758" lon="-2.31722">
        <ele>63</ele>
        <time>2014-06-10T10:32:13Z</time>
      </trkpt>
      <trkpt lat="48.6876" lon="-2.31725">
        <ele>63</ele>
        <time>2014-06-10T10:32:15Z</time>
      </trkpt>
      <trkpt lat="48.68761" lon="-2.31727">
        <ele>63</ele>
        <time>2014-06-10T10:32:17Z</time>
      </trkpt>
      <trkpt lat="48.68762" lon="-2.31729">
        <ele>63</ele>
        <time>2014-06-10T10:32:19Z</time>
      </trkpt>
      <trkpt lat="48.68763" lon="-2.31731">
        <ele>62</ele>
        <time>2014-06-10T10:32:21Z</time>
      </trkpt>
      <trkpt lat="48.68765" lon="-2.31733">
        <ele>62</ele>
        <time>2014-06-10T10:32:23Z</time>
      </trkpt>
      <trkpt lat="48.68766" lon="-2.31736">
        <ele>62</ele>
        <time>2014-06-10T10:32:25Z</time>
      </trkpt>
      <trkpt lat="48.68767" lon="-2.31738">
        <ele>62</ele>
        <time>2014-06-10T10:32:27Z</time>
      </trkpt>
      <trkpt lat="48.68768" lon="-2.31741">
        <ele>62</ele>
        <time>2014-06-10T10:32:29Z</time>
      </trkpt>
      <trkpt lat="48.68769" lon="-2.31744">
        <ele>62</ele>
        <time>2014-06-10T10:32:31Z</time>
      </trkpt>
      <trkpt lat="48.68769" lon="-2.31746">
        <ele>61</ele>
        <time>2014-06-10T10:32:33Z</time>
      </trkpt>
      <trkpt lat="48.6877" lon="-2.31748">
        <ele>61</ele>
        <time>2014-06-10T10:32:35Z</time>
      </trkpt>
      <trkpt lat="48.68771" lon="-2.3175">
        <ele>61</ele>
        <time>2014-06-10T10:32:37Z</time>
      </trkpt>
      <trkpt lat="48.68772" lon="-2.31752">
        <ele>61</ele>
        <time>2014-06-10T10:32:39Z</time>
      </trkpt>
      <trkpt lat="48.6877" lon="-2.31752">
        <ele>61</ele>
        <time>2014-06-10T10:32:41Z</time>
      </trkpt>
      <trkpt lat="48.68764" lon="-2.3175">
        <ele>61</ele>
        <time>2014-06-10T10:32:43Z</time>
      </trkpt>
      <trkpt lat="48.68766" lon="-2.31752">
        <ele>61</ele>
        <time>2014-06-10T10:32:45Z</time>
      </trkpt>
      <trkpt lat="48.68768" lon="-2.31754">
        <ele>62</ele>
        <time>2014-06-10T10:32:47Z</time>
      </trkpt>
      <trkpt lat="48.68769" lon="-2.31755">
        <ele>62</ele>
        <time>2014-06-10T10:32:49Z</time>
      </trkpt>
      <trkpt lat="48.68771" lon="-2.31756">
        <ele>62</ele>
        <time>2014-06-10T10:32:52Z</time>
      </trkpt>
      <trkpt lat="48.68772" lon="-2.31756">
        <ele>63</ele>
        <time>2014-06-10T10:32:55Z</time>
      </trkpt>
      <trkpt lat="48.68774" lon="-2.31757">
        <ele>63</ele>
        <time>2014-06-10T10:32:57Z</time>
      </trkpt>
      <trkpt lat="48.68776" lon="-2.31758">
        <ele>63</ele>
        <time>2014-06-10T10:32:59Z</time>
      </trkpt>
      <trkpt lat="48.68776" lon="-2.3176">
        <ele>63</ele>
        <time>2014-06-10T10:33:01Z</time>
      </trkpt>
      <trkpt lat="48.68778" lon="-2.31762">
        <ele>64</ele>
        <time>2014-06-10T10:33:07Z</time>
      </trkpt>
      <trkpt lat="48.68779" lon="-2.31762">
        <ele>64</ele>
        <time>2014-06-10T10:33:15Z</time>
      </trkpt>
      <trkpt lat="48.6878" lon="-2.31763">
        <ele>64</ele>
        <time>2014-06-10T10:33:23Z</time>
      </trkpt>
      <trkpt lat="48.68779" lon="-2.31761">
        <ele>64</ele>
        <time>2014-06-10T10:33:27Z</time>
      </trkpt>
      <trkpt lat="48.68779" lon="-2.31758">
        <ele>64</ele>
        <time>2014-06-10T10:33:29Z</time>
      </trkpt>
      <trkpt lat="48.6878" lon="-2.31756">
        <ele>64</ele>
        <time>2014-06-10T10:33:31Z</time>
      </trkpt>
      <trkpt lat="48.68781" lon="-2.31755">
        <ele>64</ele>
        <time>2014-06-10T10:33:33Z</time>
      </trkpt>
      <trkpt lat="48.68783" lon="-2.31754">
        <ele>64</ele>
        <time>2014-06-10T10:33:35Z</time>
      </trkpt>
      <trkpt lat="48.68784" lon="-2.31754">
        <ele>64</ele>
        <time>2014-06-10T10:33:37Z</time>
      </trkpt>
      <trkpt lat="48.68785" lon="-2.31756">
        <ele>64</ele>
        <time>2014-06-10T10:33:43Z</time>
      </trkpt>
      <trkpt lat="48.68785" lon="-2.31754">
        <ele>64</ele>
        <time>2014-06-10T10:33:50Z</time>
      </trkpt>
      <trkpt lat="48.68786" lon="-2.31755">
        <ele>64</ele>
        <time>2014-06-10T10:34:02Z</time>
      </trkpt>
      <trkpt lat="48.68785" lon="-2.31753">
        <ele>62</ele>
        <time>2014-06-10T10:34:17Z</time>
      </trkpt>
      <trkpt lat="48.68784" lon="-2.31751">
        <ele>62</ele>
        <time>2014-06-10T10:34:20Z</time>
      </trkpt>
      <trkpt lat="48.68783" lon="-2.31749">
        <ele>61</ele>
        <time>2014-06-10T10:34:22Z</time>
      </trkpt>
      <trkpt lat="48.68782" lon="-2.31747">
        <ele>61</ele>
        <time>2014-06-10T10:34:25Z</time>
      </trkpt>
      <trkpt lat="48.68781" lon="-2.31747">
        <ele>60</ele>
        <time>2014-06-10T10:34:40Z</time>
      </trkpt>
      <trkpt lat="48.68779" lon="-2.31747">
        <ele>60</ele>
        <time>2014-06-10T10:34:42Z</time>
      </trkpt>
      <trkpt lat="48.68776" lon="-2.31746">
        <ele>59</ele>
        <time>2014-06-10T10:34:45Z</time>
      </trkpt>
      <trkpt lat="48.68774" lon="-2.31743">
        <ele>59</ele>
        <time>2014-06-10T10:34:47Z</time>
      </trkpt>
      <trkpt lat="48.68772" lon="-2.31741">
        <ele>59</ele>
        <time>2014-06-10T10:34:49Z</time>
      </trkpt>
      <trkpt lat="48.6877" lon="-2.31738">
        <ele>59</ele>
        <time>2014-06-10T10:34:51Z</time>
      </trkpt>
      <trkpt lat="48.68768" lon="-2.31737">
        <ele>59</ele>
        <time>2014-06-10T10:34:53Z</time>
      </trkpt>
      <trkpt lat="48.68766" lon="-2.31735">
        <ele>59</ele>
        <time>2014-06-10T10:34:55Z</time>
      </trkpt>
      <trkpt lat="48.68764" lon="-2.31733">
        <ele>59</ele>
        <time>2014-06-10T10:34:57Z</time>
      </trkpt>
      <trkpt lat="48.68763" lon="-2.3173">
        <ele>59</ele>
        <time>2014-06-10T10:34:59Z</time>
      </trkpt>
      <trkpt lat="48.68762" lon="-2.31728">
        <ele>59</ele>
        <time>2014-06-10T10:35:01Z</time>
      </trkpt>
      <trkpt lat="48.6876" lon="-2.31725">
        <ele>59</ele>
        <time>2014-06-10T10:35:03Z</time>
      </trkpt>
      <trkpt lat="48.68758" lon="-2.31723">
        <ele>59</ele>
        <time>2014-06-10T10:35:05Z</time>
      </trkpt>
      <trkpt lat="48.68757" lon="-2.31721">
        <ele>59</ele>
        <time>2014-06-10T10:35:07Z</time>
      </trkpt>
      <trkpt lat="48.68755" lon="-2.31717">
        <ele>59</ele>
        <time>2014-06-10T10:35:09Z</time>
      </trkpt>
      <trkpt lat="48.68755" lon="-2.31714">
        <ele>59</ele>
        <time>2014-06-10T10:35:11Z</time>
      </trkpt>
      <trkpt lat="48.68752" lon="-2.3171">
        <ele>59</ele>
        <time>2014-06-10T10:35:14Z</time>
      </trkpt>
      <trkpt lat="48.68751" lon="-2.31708">
        <ele>59</ele>
        <time>2014-06-10T10:35:16Z</time>
      </trkpt>
      <trkpt lat="48.68749" lon="-2.31705">
        <ele>59</ele>
        <time>2014-06-10T10:35:18Z</time>
      </trkpt>
      <trkpt lat="48.68747" lon="-2.31703">
        <ele>59</ele>
        <time>2014-06-10T10:35:20Z</time>
      </trkpt>
      <trkpt lat="48.68744" lon="-2.317">
        <ele>59</ele>
        <time>2014-06-10T10:35:23Z</time>
      </trkpt>
      <trkpt lat="48.68742" lon="-2.31698">
        <ele>59</ele>
        <time>2014-06-10T10:35:25Z</time>
      </trkpt>
      <trkpt lat="48.68739" lon="-2.31696">
        <ele>59</ele>
        <time>2014-06-10T10:35:28Z</time>
      </trkpt>
      <trkpt lat="48.68737" lon="-2.31695">
        <ele>59</ele>
        <time>2014-06-10T10:35:30Z</time>
      </trkpt>
      <trkpt lat="48.68734" lon="-2.31693">
        <ele>59</ele>
        <time>2014-06-10T10:35:32Z</time>
      </trkpt>
      <trkpt lat="48.68731" lon="-2.31691">
        <ele>59</ele>
        <time>2014-06-10T10:35:35Z</time>
      </trkpt>
      <trkpt lat="48.68729" lon="-2.3169">
        <ele>59</ele>
        <time>2014-06-10T10:35:37Z</time>
      </trkpt>
      <trkpt lat="48.68726" lon="-2.31689">
        <ele>59</ele>
        <time>2014-06-10T10:35:39Z</time>
      </trkpt>
      <trkpt lat="48.68724" lon="-2.31688">
        <ele>59</ele>
        <time>2014-06-10T10:35:41Z</time>
      </trkpt>
      <trkpt lat="48.68722" lon="-2.31687">
        <ele>59</ele>
        <time>2014-06-10T10:35:43Z</time>
      </trkpt>
      <trkpt lat="48.68719" lon="-2.31686">
        <ele>59</ele>
        <time>2014-06-10T10:35:45Z</time>
      </trkpt>
      <trkpt lat="48.68716" lon="-2.31683">
        <ele>59</ele>
        <time>2014-06-10T10:35:48Z</time>
      </trkpt>
      <trkpt lat="48.68713" lon="-2.31681">
        <ele>59</ele>
        <time>2014-06-10T10:35:50Z</time>
      </trkpt>
      <trkpt lat="48.68711" lon="-2.31679">
        <ele>59</ele>
        <time>2014-06-10T10:35:52Z</time>
      </trkpt>
      <trkpt lat="48.68708" lon="-2.31677">
        <ele>59</ele>
        <time>2014-06-10T10:35:54Z</time>
      </trkpt>
      <trkpt lat="48.68706" lon="-2.31676">
        <ele>59</ele>
        <time>2014-06-10T10:35:56Z</time>
      </trkpt>
      <trkpt lat="48.68703" lon="-2.31674">
        <ele>59</ele>
        <time>2014-06-10T10:35:58Z</time>
      </trkpt>
      <trkpt lat="48.68701" lon="-2.31673">
        <ele>59</ele>
        <time>2014-06-10T10:36:00Z</time>
      </trkpt>
      <trkpt lat="48.68699" lon="-2.31671">
        <ele>59</ele>
        <time>2014-06-10T10:36:02Z</time>
      </trkpt>
      <trkpt lat="48.68695" lon="-2.31669">
        <ele>59</ele>
        <time>2014-06-10T10:36:05Z</time>
      </trkpt>
      <trkpt lat="48.68693" lon="-2.31669">
        <ele>59</ele>
        <time>2014-06-10T10:36:07Z</time>
      </trkpt>
      <trkpt lat="48.6869" lon="-2.31668">
        <ele>59</ele>
        <time>2014-06-10T10:36:09Z</time>
      </trkpt>
      <trkpt lat="48.68689" lon="-2.31668">
        <ele>59</ele>
        <time>2014-06-10T10:36:11Z</time>
      </trkpt>
      <trkpt lat="48.68687" lon="-2.31667">
        <ele>59</ele>
        <time>2014-06-10T10:36:13Z</time>
      </trkpt>
      <trkpt lat="48.68687" lon="-2.31664">
        <ele>59</ele>
        <time>2014-06-10T10:36:15Z</time>
      </trkpt>
      <trkpt lat="48.68686" lon="-2.31662">
        <ele>59</ele>
        <time>2014-06-10T10:36:17Z</time>
      </trkpt>
      <trkpt lat="48.68685" lon="-2.3166">
        <ele>59</ele>
        <time>2014-06-10T10:36:20Z</time>
      </trkpt>
      <trkpt lat="48.68684" lon="-2.31661">
        <ele>59</ele>
        <time>2014-06-10T10:36:34Z</time>
      </trkpt>
      <trkpt lat="48.68682" lon="-2.31662">
        <ele>59</ele>
        <time>2014-06-10T10:36:36Z</time>
      </trkpt>
      <trkpt lat="48.6868" lon="-2.31662">
        <ele>59</ele>
        <time>2014-06-10T10:36:38Z</time>
      </trkpt>
      <trkpt lat="48.68679" lon="-2.31661">
        <ele>59</ele>
        <time>2014-06-10T10:36:40Z</time>
      </trkpt>
      <trkpt lat="48.68677" lon="-2.3166">
        <ele>59</ele>
        <time>2014-06-10T10:36:42Z</time>
      </trkpt>
      <trkpt lat="48.68675" lon="-2.3166">
        <ele>59</ele>
        <time>2014-06-10T10:36:44Z</time>
      </trkpt>
      <trkpt lat="48.68672" lon="-2.3166">
        <ele>59</ele>
        <time>2014-06-10T10:36:46Z</time>
      </trkpt>
      <trkpt lat="48.6867" lon="-2.31659">
        <ele>59</ele>
        <time>2014-06-10T10:36:48Z</time>
      </trkpt>
      <trkpt lat="48.68667" lon="-2.31658">
        <ele>59</ele>
        <time>2014-06-10T10:36:50Z</time>
      </trkpt>
      <trkpt lat="48.68665" lon="-2.31657">
        <ele>59</ele>
        <time>2014-06-10T10:36:52Z</time>
      </trkpt>
      <trkpt lat="48.68663" lon="-2.31656">
        <ele>59</ele>
        <time>2014-06-10T10:36:54Z</time>
      </trkpt>
      <trkpt lat="48.68661" lon="-2.31655">
        <ele>59</ele>
        <time>2014-06-10T10:36:56Z</time>
      </trkpt>
      <trkpt lat="48.68658" lon="-2.31654">
        <ele>59</ele>
        <time>2014-06-10T10:36:58Z</time>
      </trkpt>
      <trkpt lat="48.68656" lon="-2.31653">
        <ele>59</ele>
        <time>2014-06-10T10:37:00Z</time>
      </trkpt>
      <trkpt lat="48.68654" lon="-2.31652">
        <ele>59</ele>
        <time>2014-06-10T10:37:02Z</time>
      </trkpt>
      <trkpt lat="48.68651" lon="-2.31651">
        <ele>59</ele>
        <time>2014-06-10T10:37:04Z</time>
      </trkpt>
      <trkpt lat="48.68648" lon="-2.31648">
        <ele>59</ele>
        <time>2014-06-10T10:37:07Z</time>
      </trkpt>
      <trkpt lat="48.68646" lon="-2.31647">
        <ele>59</ele>
        <time>2014-06-10T10:37:09Z</time>
      </trkpt>
      <trkpt lat="48.68643" lon="-2.31647">
        <ele>59</ele>
        <time>2014-06-10T10:37:11Z</time>
      </trkpt>
      <trkpt lat="48.68641" lon="-2.31647">
        <ele>59</ele>
        <time>2014-06-10T10:37:13Z</time>
      </trkpt>
      <trkpt lat="48.68638" lon="-2.31647">
        <ele>59</ele>
        <time>2014-06-10T10:37:15Z</time>
      </trkpt>
      <trkpt lat="48.68635" lon="-2.31647">
        <ele>59</ele>
        <time>2014-06-10T10:37:17Z</time>
      </trkpt>
      <trkpt lat="48.68633" lon="-2.31647">
        <ele>59</ele>
        <time>2014-06-10T10:37:19Z</time>
      </trkpt>
      <trkpt lat="48.6863" lon="-2.31647">
        <ele>59</ele>
        <time>2014-06-10T10:37:21Z</time>
      </trkpt>
      <trkpt lat="48.68628" lon="-2.31646">
        <ele>59</ele>
        <time>2014-06-10T10:37:23Z</time>
      </trkpt>
      <trkpt lat="48.68625" lon="-2.31645">
        <ele>59</ele>
        <time>2014-06-10T10:37:25Z</time>
      </trkpt>
      <trkpt lat="48.68622" lon="-2.31643">
        <ele>59</ele>
        <time>2014-06-10T10:37:28Z</time>
      </trkpt>
      <trkpt lat="48.6862" lon="-2.31642">
        <ele>59</ele>
        <time>2014-06-10T10:37:30Z</time>
      </trkpt>
      <trkpt lat="48.68618" lon="-2.31642">
        <ele>59</ele>
        <time>2014-06-10T10:37:32Z</time>
      </trkpt>
      <trkpt lat="48.68617" lon="-2.31641">
        <ele>59</ele>
        <time>2014-06-10T10:37:34Z</time>
      </trkpt>
      <trkpt lat="48.68615" lon="-2.31641">
        <ele>59</ele>
        <time>2014-06-10T10:37:36Z</time>
      </trkpt>
      <trkpt lat="48.68614" lon="-2.31642">
        <ele>59</ele>
        <time>2014-06-10T10:37:44Z</time>
      </trkpt>
      <trkpt lat="48.68612" lon="-2.31643">
        <ele>59</ele>
        <time>2014-06-10T10:37:46Z</time>
      </trkpt>
      <trkpt lat="48.68607" lon="-2.31643">
        <ele>59</ele>
        <time>2014-06-10T10:37:48Z</time>
      </trkpt>
      <trkpt lat="48.68605" lon="-2.31642">
        <ele>62</ele>
        <time>2014-06-10T10:38:09Z</time>
      </trkpt>
      <trkpt lat="48.68606" lon="-2.3164">
        <ele>62</ele>
        <time>2014-06-10T10:38:13Z</time>
      </trkpt>
      <trkpt lat="48.68606" lon="-2.31638">
        <ele>62</ele>
        <time>2014-06-10T10:38:16Z</time>
      </trkpt>
      <trkpt lat="48.68605" lon="-2.31637">
        <ele>62</ele>
        <time>2014-06-10T10:38:19Z</time>
      </trkpt>
      <trkpt lat="48.68604" lon="-2.31636">
        <ele>62</ele>
        <time>2014-06-10T10:38:22Z</time>
      </trkpt>
      <trkpt lat="48.68605" lon="-2.31636">
        <ele>60</ele>
        <time>2014-06-10T10:38:48Z</time>
      </trkpt>
      <trkpt lat="48.68607" lon="-2.31639">
        <ele>60</ele>
        <time>2014-06-10T10:38:51Z</time>
      </trkpt>
      <trkpt lat="48.68607" lon="-2.31642">
        <ele>60</ele>
        <time>2014-06-10T10:38:53Z</time>
      </trkpt>
      <trkpt lat="48.68605" lon="-2.31644">
        <ele>60</ele>
        <time>2014-06-10T10:38:55Z</time>
      </trkpt>
      <trkpt lat="48.68603" lon="-2.31646">
        <ele>60</ele>
        <time>2014-06-10T10:38:57Z</time>
      </trkpt>
      <trkpt lat="48.68601" lon="-2.31647">
        <ele>60</ele>
        <time>2014-06-10T10:38:59Z</time>
      </trkpt>
      <trkpt lat="48.68598" lon="-2.31649">
        <ele>60</ele>
        <time>2014-06-10T10:39:01Z</time>
      </trkpt>
      <trkpt lat="48.68596" lon="-2.3165">
        <ele>60</ele>
        <time>2014-06-10T10:39:03Z</time>
      </trkpt>
      <trkpt lat="48.68594" lon="-2.31651">
        <ele>60</ele>
        <time>2014-06-10T10:39:05Z</time>
      </trkpt>
      <trkpt lat="48.68591" lon="-2.3165">
        <ele>60</ele>
        <time>2014-06-10T10:39:07Z</time>
      </trkpt>
      <trkpt lat="48.68589" lon="-2.3165">
        <ele>60</ele>
        <time>2014-06-10T10:39:09Z</time>
      </trkpt>
      <trkpt lat="48.68587" lon="-2.31652">
        <ele>60</ele>
        <time>2014-06-10T10:39:11Z</time>
      </trkpt>
      <trkpt lat="48.68584" lon="-2.31653">
        <ele>60</ele>
        <time>2014-06-10T10:39:13Z</time>
      </trkpt>
      <trkpt lat="48.68581" lon="-2.31656">
        <ele>60</ele>
        <time>2014-06-10T10:39:16Z</time>
      </trkpt>
      <trkpt lat="48.68579" lon="-2.31658">
        <ele>60</ele>
        <time>2014-06-10T10:39:18Z</time>
      </trkpt>
      <trkpt lat="48.68576" lon="-2.31659">
        <ele>60</ele>
        <time>2014-06-10T10:39:20Z</time>
      </trkpt>
      <trkpt lat="48.68574" lon="-2.31661">
        <ele>60</ele>
        <time>2014-06-10T10:39:22Z</time>
      </trkpt>
      <trkpt lat="48.68571" lon="-2.31662">
        <ele>60</ele>
        <time>2014-06-10T10:39:24Z</time>
      </trkpt>
      <trkpt lat="48.68568" lon="-2.31663">
        <ele>60</ele>
        <time>2014-06-10T10:39:26Z</time>
      </trkpt>
      <trkpt lat="48.68566" lon="-2.31664">
        <ele>60</ele>
        <time>2014-06-10T10:39:28Z</time>
      </trkpt>
      <trkpt lat="48.68563" lon="-2.31665">
        <ele>60</ele>
        <time>2014-06-10T10:39:30Z</time>
      </trkpt>
      <trkpt lat="48.6856" lon="-2.31666">
        <ele>60</ele>
        <time>2014-06-10T10:39:32Z</time>
      </trkpt>
      <trkpt lat="48.68558" lon="-2.31668">
        <ele>60</ele>
        <time>2014-06-10T10:39:34Z</time>
      </trkpt>
      <trkpt lat="48.68555" lon="-2.31669">
        <ele>60</ele>
        <time>2014-06-10T10:39:36Z</time>
      </trkpt>
      <trkpt lat="48.68554" lon="-2.31671">
        <ele>60</ele>
        <time>2014-06-10T10:39:38Z</time>
      </trkpt>
      <trkpt lat="48.68551" lon="-2.31672">
        <ele>60</ele>
        <time>2014-06-10T10:39:40Z</time>
      </trkpt>
      <trkpt lat="48.68549" lon="-2.31673">
        <ele>60</ele>
        <time>2014-06-10T10:39:42Z</time>
      </trkpt>
      <trkpt lat="48.68547" lon="-2.31673">
        <ele>60</ele>
        <time>2014-06-10T10:39:44Z</time>
      </trkpt>
      <trkpt lat="48.68544" lon="-2.31672">
        <ele>61</ele>
        <time>2014-06-10T10:39:47Z</time>
      </trkpt>
      <trkpt lat="48.68542" lon="-2.31669">
        <ele>61</ele>
        <time>2014-06-10T10:39:49Z</time>
      </trkpt>
      <trkpt lat="48.68541" lon="-2.31667">
        <ele>61</ele>
        <time>2014-06-10T10:39:51Z</time>
      </trkpt>
      <trkpt lat="48.68539" lon="-2.31664">
        <ele>61</ele>
        <time>2014-06-10T10:39:53Z</time>
      </trkpt>
      <trkpt lat="48.68537" lon="-2.31662">
        <ele>61</ele>
        <time>2014-06-10T10:39:55Z</time>
      </trkpt>
      <trkpt lat="48.68536" lon="-2.3166">
        <ele>61</ele>
        <time>2014-06-10T10:39:57Z</time>
      </trkpt>
      <trkpt lat="48.68533" lon="-2.31658">
        <ele>61</ele>
        <time>2014-06-10T10:39:59Z</time>
      </trkpt>
      <trkpt lat="48.68531" lon="-2.31656">
        <ele>61</ele>
        <time>2014-06-10T10:40:01Z</time>
      </trkpt>
      <trkpt lat="48.6853" lon="-2.31654">
        <ele>61</ele>
        <time>2014-06-10T10:40:03Z</time>
      </trkpt>
      <trkpt lat="48.68527" lon="-2.31652">
        <ele>61</ele>
        <time>2014-06-10T10:40:06Z</time>
      </trkpt>
      <trkpt lat="48.68524" lon="-2.31651">
        <ele>61</ele>
        <time>2014-06-10T10:40:08Z</time>
      </trkpt>
      <trkpt lat="48.68522" lon="-2.3165">
        <ele>61</ele>
        <time>2014-06-10T10:40:10Z</time>
      </trkpt>
      <trkpt lat="48.68518" lon="-2.31647">
        <ele>61</ele>
        <time>2014-06-10T10:40:13Z</time>
      </trkpt>
      <trkpt lat="48.68516" lon="-2.31646">
        <ele>61</ele>
        <time>2014-06-10T10:40:15Z</time>
      </trkpt>
      <trkpt lat="48.68514" lon="-2.31645">
        <ele>61</ele>
        <time>2014-06-10T10:40:17Z</time>
      </trkpt>
      <trkpt lat="48.68511" lon="-2.31644">
        <ele>61</ele>
        <time>2014-06-10T10:40:19Z</time>
      </trkpt>
      <trkpt lat="48.68509" lon="-2.31641">
        <ele>61</ele>
        <time>2014-06-10T10:40:21Z</time>
      </trkpt>
      <trkpt lat="48.68506" lon="-2.31637">
        <ele>61</ele>
        <time>2014-06-10T10:40:24Z</time>
      </trkpt>
      <trkpt lat="48.68504" lon="-2.31634">
        <ele>61</ele>
        <time>2014-06-10T10:40:26Z</time>
      </trkpt>
      <trkpt lat="48.68503" lon="-2.31631">
        <ele>61</ele>
        <time>2014-06-10T10:40:28Z</time>
      </trkpt>
      <trkpt lat="48.68502" lon="-2.31627">
        <ele>61</ele>
        <time>2014-06-10T10:40:30Z</time>
      </trkpt>
      <trkpt lat="48.68502" lon="-2.31623">
        <ele>61</ele>
        <time>2014-06-10T10:40:32Z</time>
      </trkpt>
      <trkpt lat="48.68501" lon="-2.31619">
        <ele>61</ele>
        <time>2014-06-10T10:40:34Z</time>
      </trkpt>
      <trkpt lat="48.685" lon="-2.31616">
        <ele>61</ele>
        <time>2014-06-10T10:40:36Z</time>
      </trkpt>
      <trkpt lat="48.685" lon="-2.31612">
        <ele>61</ele>
        <time>2014-06-10T10:40:38Z</time>
      </trkpt>
      <trkpt lat="48.685" lon="-2.31609">
        <ele>61</ele>
        <time>2014-06-10T10:40:40Z</time>
      </trkpt>
      <trkpt lat="48.685" lon="-2.31606">
        <ele>61</ele>
        <time>2014-06-10T10:40:42Z</time>
      </trkpt>
      <trkpt lat="48.685" lon="-2.31601">
        <ele>61</ele>
        <time>2014-06-10T10:40:45Z</time>
      </trkpt>
      <trkpt lat="48.68499" lon="-2.31598">
        <ele>61</ele>
        <time>2014-06-10T10:40:47Z</time>
      </trkpt>
      <trkpt lat="48.68499" lon="-2.31596">
        <ele>61</ele>
        <time>2014-06-10T10:40:49Z</time>
      </trkpt>
      <trkpt lat="48.68499" lon="-2.31593">
        <ele>61</ele>
        <time>2014-06-10T10:40:51Z</time>
      </trkpt>
      <trkpt lat="48.68498" lon="-2.31591">
        <ele>61</ele>
        <time>2014-06-10T10:40:53Z</time>
      </trkpt>
      <trkpt lat="48.68499" lon="-2.31589">
        <ele>61</ele>
        <time>2014-06-10T10:40:55Z</time>
      </trkpt>
      <trkpt lat="48.68497" lon="-2.31588">
        <ele>61</ele>
        <time>2014-06-10T10:41:01Z</time>
      </trkpt>
      <trkpt lat="48.68496" lon="-2.31586">
        <ele>61</ele>
        <time>2014-06-10T10:41:03Z</time>
      </trkpt>
      <trkpt lat="48.68493" lon="-2.31584">
        <ele>61</ele>
        <time>2014-06-10T10:41:05Z</time>
      </trkpt>
      <trkpt lat="48.68491" lon="-2.31583">
        <ele>61</ele>
        <time>2014-06-10T10:41:07Z</time>
      </trkpt>
      <trkpt lat="48.68488" lon="-2.3158">
        <ele>61</ele>
        <time>2014-06-10T10:41:10Z</time>
      </trkpt>
      <trkpt lat="48.68486" lon="-2.31578">
        <ele>61</ele>
        <time>2014-06-10T10:41:12Z</time>
      </trkpt>
      <trkpt lat="48.68486" lon="-2.31576">
        <ele>61</ele>
        <time>2014-06-10T10:41:14Z</time>
      </trkpt>
      <trkpt lat="48.68484" lon="-2.31574">
        <ele>61</ele>
        <time>2014-06-10T10:41:16Z</time>
      </trkpt>
      <trkpt lat="48.68483" lon="-2.31572">
        <ele>60</ele>
        <time>2014-06-10T10:41:18Z</time>
      </trkpt>
      <trkpt lat="48.68481" lon="-2.3157">
        <ele>60</ele>
        <time>2014-06-10T10:41:20Z</time>
      </trkpt>
      <trkpt lat="48.68479" lon="-2.31567">
        <ele>60</ele>
        <time>2014-06-10T10:41:22Z</time>
      </trkpt>
      <trkpt lat="48.68478" lon="-2.31565">
        <ele>60</ele>
        <time>2014-06-10T10:41:24Z</time>
      </trkpt>
      <trkpt lat="48.68476" lon="-2.31563">
        <ele>60</ele>
        <time>2014-06-10T10:41:26Z</time>
      </trkpt>
      <trkpt lat="48.68475" lon="-2.31562">
        <ele>60</ele>
        <time>2014-06-10T10:41:28Z</time>
      </trkpt>
      <trkpt lat="48.68473" lon="-2.3156">
        <ele>60</ele>
        <time>2014-06-10T10:41:30Z</time>
      </trkpt>
      <trkpt lat="48.68472" lon="-2.31558">
        <ele>60</ele>
        <time>2014-06-10T10:41:32Z</time>
      </trkpt>
      <trkpt lat="48.6847" lon="-2.31556">
        <ele>60</ele>
        <time>2014-06-10T10:41:34Z</time>
      </trkpt>
      <trkpt lat="48.68469" lon="-2.31555">
        <ele>60</ele>
        <time>2014-06-10T10:41:36Z</time>
      </trkpt>
      <trkpt lat="48.68468" lon="-2.31552">
        <ele>60</ele>
        <time>2014-06-10T10:41:38Z</time>
      </trkpt>
      <trkpt lat="48.68466" lon="-2.31549">
        <ele>60</ele>
        <time>2014-06-10T10:41:44Z</time>
      </trkpt>
      <trkpt lat="48.68462" lon="-2.31545">
        <ele>60</ele>
        <time>2014-06-10T10:41:46Z</time>
      </trkpt>
      <trkpt lat="48.68459" lon="-2.31542">
        <ele>62</ele>
        <time>2014-06-10T10:41:48Z</time>
      </trkpt>
      <trkpt lat="48.68454" lon="-2.31539">
        <ele>69</ele>
        <time>2014-06-10T10:41:53Z</time>
      </trkpt>
      <trkpt lat="48.68453" lon="-2.31538">
        <ele>71</ele>
        <time>2014-06-10T10:41:55Z</time>
      </trkpt>
      <trkpt lat="48.68451" lon="-2.31536">
        <ele>73</ele>
        <time>2014-06-10T10:41:57Z</time>
      </trkpt>
      <trkpt lat="48.6845" lon="-2.31534">
        <ele>75</ele>
        <time>2014-06-10T10:41:59Z</time>
      </trkpt>
      <trkpt lat="48.6845" lon="-2.31531">
        <ele>75</ele>
        <time>2014-06-10T10:42:01Z</time>
      </trkpt>
      <trkpt lat="48.68451" lon="-2.31531">
        <ele>75</ele>
        <time>2014-06-10T10:42:06Z</time>
      </trkpt>
      <trkpt lat="48.68449" lon="-2.31532">
        <ele>75</ele>
        <time>2014-06-10T10:42:10Z</time>
      </trkpt>
      <trkpt lat="48.68448" lon="-2.31531">
        <ele>75</ele>
        <time>2014-06-10T10:42:12Z</time>
      </trkpt>
      <trkpt lat="48.68446" lon="-2.31529">
        <ele>75</ele>
        <time>2014-06-10T10:42:14Z</time>
      </trkpt>
      <trkpt lat="48.68444" lon="-2.31527">
        <ele>75</ele>
        <time>2014-06-10T10:42:16Z</time>
      </trkpt>
      <trkpt lat="48.68443" lon="-2.31524">
        <ele>75</ele>
        <time>2014-06-10T10:42:18Z</time>
      </trkpt>
      <trkpt lat="48.68442" lon="-2.31522">
        <ele>75</ele>
        <time>2014-06-10T10:42:20Z</time>
      </trkpt>
      <trkpt lat="48.68441" lon="-2.31521">
        <ele>74</ele>
        <time>2014-06-10T10:42:22Z</time>
      </trkpt>
      <trkpt lat="48.68439" lon="-2.31521">
        <ele>74</ele>
        <time>2014-06-10T10:42:24Z</time>
      </trkpt>
      <trkpt lat="48.68437" lon="-2.31521">
        <ele>74</ele>
        <time>2014-06-10T10:42:26Z</time>
      </trkpt>
      <trkpt lat="48.68435" lon="-2.31521">
        <ele>73</ele>
        <time>2014-06-10T10:42:28Z</time>
      </trkpt>
      <trkpt lat="48.68432" lon="-2.31521">
        <ele>73</ele>
        <time>2014-06-10T10:42:31Z</time>
      </trkpt>
      <trkpt lat="48.6843" lon="-2.31521">
        <ele>73</ele>
        <time>2014-06-10T10:42:33Z</time>
      </trkpt>
      <trkpt lat="48.68427" lon="-2.31522">
        <ele>72</ele>
        <time>2014-06-10T10:42:36Z</time>
      </trkpt>
      <trkpt lat="48.68422" lon="-2.31521">
        <ele>72</ele>
        <time>2014-06-10T10:42:39Z</time>
      </trkpt>
      <trkpt lat="48.68416" lon="-2.3152">
        <ele>72</ele>
        <time>2014-06-10T10:42:41Z</time>
      </trkpt>
      <trkpt lat="48.68412" lon="-2.3152">
        <ele>74</ele>
        <time>2014-06-10T10:42:44Z</time>
      </trkpt>
      <trkpt lat="48.6841" lon="-2.31521">
        <ele>76</ele>
        <time>2014-06-10T10:42:46Z</time>
      </trkpt>
      <trkpt lat="48.68407" lon="-2.31522">
        <ele>76</ele>
        <time>2014-06-10T10:42:49Z</time>
      </trkpt>
      <trkpt lat="48.68404" lon="-2.31523">
        <ele>76</ele>
        <time>2014-06-10T10:42:52Z</time>
      </trkpt>
      <trkpt lat="48.68401" lon="-2.31523">
        <ele>76</ele>
        <time>2014-06-10T10:42:54Z</time>
      </trkpt>
      <trkpt lat="48.68398" lon="-2.31523">
        <ele>76</ele>
        <time>2014-06-10T10:42:56Z</time>
      </trkpt>
      <trkpt lat="48.68396" lon="-2.31523">
        <ele>76</ele>
        <time>2014-06-10T10:42:58Z</time>
      </trkpt>
      <trkpt lat="48.68394" lon="-2.31522">
        <ele>76</ele>
        <time>2014-06-10T10:43:00Z</time>
      </trkpt>
      <trkpt lat="48.68392" lon="-2.3152">
        <ele>76</ele>
        <time>2014-06-10T10:43:02Z</time>
      </trkpt>
      <trkpt lat="48.68391" lon="-2.3152">
        <ele>76</ele>
        <time>2014-06-10T10:43:04Z</time>
      </trkpt>
      <trkpt lat="48.68389" lon="-2.31519">
        <ele>76</ele>
        <time>2014-06-10T10:43:06Z</time>
      </trkpt>
      <trkpt lat="48.68387" lon="-2.31518">
        <ele>76</ele>
        <time>2014-06-10T10:43:08Z</time>
      </trkpt>
      <trkpt lat="48.68385" lon="-2.31517">
        <ele>76</ele>
        <time>2014-06-10T10:43:10Z</time>
      </trkpt>
      <trkpt lat="48.68383" lon="-2.31516">
        <ele>76</ele>
        <time>2014-06-10T10:43:12Z</time>
      </trkpt>
      <trkpt lat="48.68381" lon="-2.31514">
        <ele>76</ele>
        <time>2014-06-10T10:43:14Z</time>
      </trkpt>
      <trkpt lat="48.68378" lon="-2.31513">
        <ele>76</ele>
        <time>2014-06-10T10:43:16Z</time>
      </trkpt>
      <trkpt lat="48.68376" lon="-2.31512">
        <ele>76</ele>
        <time>2014-06-10T10:43:18Z</time>
      </trkpt>
      <trkpt lat="48.68373" lon="-2.31512">
        <ele>76</ele>
        <time>2014-06-10T10:43:20Z</time>
      </trkpt>
      <trkpt lat="48.68371" lon="-2.31511">
        <ele>76</ele>
        <time>2014-06-10T10:43:22Z</time>
      </trkpt>
      <trkpt lat="48.68369" lon="-2.3151">
        <ele>76</ele>
        <time>2014-06-10T10:43:24Z</time>
      </trkpt>
      <trkpt lat="48.68367" lon="-2.31511">
        <ele>76</ele>
        <time>2014-06-10T10:43:26Z</time>
      </trkpt>
      <trkpt lat="48.68364" lon="-2.31512">
        <ele>76</ele>
        <time>2014-06-10T10:43:28Z</time>
      </trkpt>
      <trkpt lat="48.68362" lon="-2.31511">
        <ele>76</ele>
        <time>2014-06-10T10:43:30Z</time>
      </trkpt>
      <trkpt lat="48.68359" lon="-2.31511">
        <ele>76</ele>
        <time>2014-06-10T10:43:32Z</time>
      </trkpt>
      <trkpt lat="48.68357" lon="-2.31511">
        <ele>76</ele>
        <time>2014-06-10T10:43:34Z</time>
      </trkpt>
      <trkpt lat="48.68354" lon="-2.31511">
        <ele>75</ele>
        <time>2014-06-10T10:43:36Z</time>
      </trkpt>
      <trkpt lat="48.68352" lon="-2.31511">
        <ele>75</ele>
        <time>2014-06-10T10:43:38Z</time>
      </trkpt>
      <trkpt lat="48.68348" lon="-2.31512">
        <ele>75</ele>
        <time>2014-06-10T10:43:41Z</time>
      </trkpt>
      <trkpt lat="48.68345" lon="-2.31515">
        <ele>75</ele>
        <time>2014-06-10T10:43:44Z</time>
      </trkpt>
      <trkpt lat="48.68343" lon="-2.31517">
        <ele>75</ele>
        <time>2014-06-10T10:43:46Z</time>
      </trkpt>
      <trkpt lat="48.6834" lon="-2.31518">
        <ele>75</ele>
        <time>2014-06-10T10:43:48Z</time>
      </trkpt>
      <trkpt lat="48.68338" lon="-2.3152">
        <ele>75</ele>
        <time>2014-06-10T10:43:50Z</time>
      </trkpt>
      <trkpt lat="48.68335" lon="-2.31521">
        <ele>74</ele>
        <time>2014-06-10T10:43:52Z</time>
      </trkpt>
      <trkpt lat="48.68332" lon="-2.31522">
        <ele>74</ele>
        <time>2014-06-10T10:43:54Z</time>
      </trkpt>
      <trkpt lat="48.6833" lon="-2.31522">
        <ele>74</ele>
        <time>2014-06-10T10:43:56Z</time>
      </trkpt>
      <trkpt lat="48.68327" lon="-2.31523">
        <ele>74</ele>
        <time>2014-06-10T10:43:58Z</time>
      </trkpt>
      <trkpt lat="48.68325" lon="-2.31524">
        <ele>74</ele>
        <time>2014-06-10T10:44:00Z</time>
      </trkpt>
      <trkpt lat="48.68323" lon="-2.31524">
        <ele>74</ele>
        <time>2014-06-10T10:44:02Z</time>
      </trkpt>
      <trkpt lat="48.68321" lon="-2.31525">
        <ele>74</ele>
        <time>2014-06-10T10:44:04Z</time>
      </trkpt>
      <trkpt lat="48.68317" lon="-2.31526">
        <ele>74</ele>
        <time>2014-06-10T10:44:07Z</time>
      </trkpt>
      <trkpt lat="48.68315" lon="-2.31528">
        <ele>74</ele>
        <time>2014-06-10T10:44:09Z</time>
      </trkpt>
      <trkpt lat="48.68312" lon="-2.31528">
        <ele>74</ele>
        <time>2014-06-10T10:44:12Z</time>
      </trkpt>
      <trkpt lat="48.68311" lon="-2.31528">
        <ele>74</ele>
        <time>2014-06-10T10:44:14Z</time>
      </trkpt>
      <trkpt lat="48.68309" lon="-2.31528">
        <ele>74</ele>
        <time>2014-06-10T10:44:20Z</time>
      </trkpt>
      <trkpt lat="48.68308" lon="-2.31527">
        <ele>74</ele>
        <time>2014-06-10T10:44:24Z</time>
      </trkpt>
      <trkpt lat="48.68307" lon="-2.31525">
        <ele>74</ele>
        <time>2014-06-10T10:44:27Z</time>
      </trkpt>
      <trkpt lat="48.68306" lon="-2.31525">
        <ele>73</ele>
        <time>2014-06-10T10:44:40Z</time>
      </trkpt>
      <trkpt lat="48.68303" lon="-2.31524">
        <ele>73</ele>
        <time>2014-06-10T10:44:44Z</time>
      </trkpt>
      <trkpt lat="48.68301" lon="-2.31523">
        <ele>73</ele>
        <time>2014-06-10T10:44:46Z</time>
      </trkpt>
      <trkpt lat="48.68299" lon="-2.31523">
        <ele>73</ele>
        <time>2014-06-10T10:44:48Z</time>
      </trkpt>
      <trkpt lat="48.68296" lon="-2.31522">
        <ele>73</ele>
        <time>2014-06-10T10:44:50Z</time>
      </trkpt>
      <trkpt lat="48.68293" lon="-2.31521">
        <ele>72</ele>
        <time>2014-06-10T10:44:53Z</time>
      </trkpt>
      <trkpt lat="48.68289" lon="-2.3152">
        <ele>71</ele>
        <time>2014-06-10T10:44:56Z</time>
      </trkpt>
      <trkpt lat="48.68287" lon="-2.31519">
        <ele>71</ele>
        <time>2014-06-10T10:44:58Z</time>
      </trkpt>
      <trkpt lat="48.68284" lon="-2.31518">
        <ele>71</ele>
        <time>2014-06-10T10:45:00Z</time>
      </trkpt>
      <trkpt lat="48.68282" lon="-2.31518">
        <ele>71</ele>
        <time>2014-06-10T10:45:02Z</time>
      </trkpt>
      <trkpt lat="48.68276" lon="-2.31517">
        <ele>71</ele>
        <time>2014-06-10T10:45:04Z</time>
      </trkpt>
      <trkpt lat="48.68267" lon="-2.31512">
        <ele>72</ele>
        <time>2014-06-10T10:45:08Z</time>
      </trkpt>
      <trkpt lat="48.68265" lon="-2.31512">
        <ele>74</ele>
        <time>2014-06-10T10:45:10Z</time>
      </trkpt>
      <trkpt lat="48.68262" lon="-2.31508">
        <ele>74</ele>
        <time>2014-06-10T10:45:13Z</time>
      </trkpt>
      <trkpt lat="48.6826" lon="-2.31506">
        <ele>74</ele>
        <time>2014-06-10T10:45:15Z</time>
      </trkpt>
      <trkpt lat="48.68258" lon="-2.31504">
        <ele>74</ele>
        <time>2014-06-10T10:45:17Z</time>
      </trkpt>
      <trkpt lat="48.68254" lon="-2.31501">
        <ele>74</ele>
        <time>2014-06-10T10:45:21Z</time>
      </trkpt>
      <trkpt lat="48.68251" lon="-2.31497">
        <ele>74</ele>
        <time>2014-06-10T10:45:24Z</time>
      </trkpt>
      <trkpt lat="48.68247" lon="-2.31494">
        <ele>74</ele>
        <time>2014-06-10T10:45:26Z</time>
      </trkpt>
      <trkpt lat="48.68243" lon="-2.31491">
        <ele>74</ele>
        <time>2014-06-10T10:45:29Z</time>
      </trkpt>
      <trkpt lat="48.68241" lon="-2.31489">
        <ele>74</ele>
        <time>2014-06-10T10:45:31Z</time>
      </trkpt>
      <trkpt lat="48.68239" lon="-2.31488">
        <ele>74</ele>
        <time>2014-06-10T10:45:33Z</time>
      </trkpt>
      <trkpt lat="48.68235" lon="-2.31485">
        <ele>74</ele>
        <time>2014-06-10T10:45:37Z</time>
      </trkpt>
      <trkpt lat="48.68233" lon="-2.31483">
        <ele>74</ele>
        <time>2014-06-10T10:45:39Z</time>
      </trkpt>
      <trkpt lat="48.68229" lon="-2.31479">
        <ele>74</ele>
        <time>2014-06-10T10:45:43Z</time>
      </trkpt>
      <trkpt lat="48.68227" lon="-2.31476">
        <ele>73</ele>
        <time>2014-06-10T10:45:45Z</time>
      </trkpt>
      <trkpt lat="48.68224" lon="-2.31474">
        <ele>72</ele>
        <time>2014-06-10T10:45:48Z</time>
      </trkpt>
      <trkpt lat="48.68222" lon="-2.31472">
        <ele>72</ele>
        <time>2014-06-10T10:45:50Z</time>
      </trkpt>
      <trkpt lat="48.68217" lon="-2.31469">
        <ele>71</ele>
        <time>2014-06-10T10:45:54Z</time>
      </trkpt>
      <trkpt lat="48.68216" lon="-2.31466">
        <ele>71</ele>
        <time>2014-06-10T10:45:56Z</time>
      </trkpt>
      <trkpt lat="48.68212" lon="-2.31463">
        <ele>71</ele>
        <time>2014-06-10T10:46:00Z</time>
      </trkpt>
      <trkpt lat="48.68209" lon="-2.31462">
        <ele>71</ele>
        <time>2014-06-10T10:46:02Z</time>
      </trkpt>
      <trkpt lat="48.68207" lon="-2.31461">
        <ele>71</ele>
        <time>2014-06-10T10:46:04Z</time>
      </trkpt>
      <trkpt lat="48.68204" lon="-2.31461">
        <ele>71</ele>
        <time>2014-06-10T10:46:06Z</time>
      </trkpt>
      <trkpt lat="48.68202" lon="-2.31459">
        <ele>71</ele>
        <time>2014-06-10T10:46:08Z</time>
      </trkpt>
      <trkpt lat="48.682" lon="-2.31457">
        <ele>71</ele>
        <time>2014-06-10T10:46:10Z</time>
      </trkpt>
      <trkpt lat="48.68197" lon="-2.31455">
        <ele>71</ele>
        <time>2014-06-10T10:46:12Z</time>
      </trkpt>
      <trkpt lat="48.68193" lon="-2.31452">
        <ele>71</ele>
        <time>2014-06-10T10:46:16Z</time>
      </trkpt>
      <trkpt lat="48.68191" lon="-2.31451">
        <ele>71</ele>
        <time>2014-06-10T10:46:18Z</time>
      </trkpt>
      <trkpt lat="48.68189" lon="-2.31449">
        <ele>71</ele>
        <time>2014-06-10T10:46:20Z</time>
      </trkpt>
      <trkpt lat="48.68185" lon="-2.31444">
        <ele>71</ele>
        <time>2014-06-10T10:46:24Z</time>
      </trkpt>
      <trkpt lat="48.68184" lon="-2.31442">
        <ele>71</ele>
        <time>2014-06-10T10:46:26Z</time>
      </trkpt>
      <trkpt lat="48.6818" lon="-2.31438">
        <ele>71</ele>
        <time>2014-06-10T10:46:30Z</time>
      </trkpt>
      <trkpt lat="48.68176" lon="-2.31437">
        <ele>71</ele>
        <time>2014-06-10T10:46:33Z</time>
      </trkpt>
      <trkpt lat="48.68174" lon="-2.31435">
        <ele>71</ele>
        <time>2014-06-10T10:46:35Z</time>
      </trkpt>
      <trkpt lat="48.68171" lon="-2.31433">
        <ele>71</ele>
        <time>2014-06-10T10:46:38Z</time>
      </trkpt>
      <trkpt lat="48.68168" lon="-2.31432">
        <ele>71</ele>
        <time>2014-06-10T10:46:40Z</time>
      </trkpt>
      <trkpt lat="48.68165" lon="-2.31431">
        <ele>71</ele>
        <time>2014-06-10T10:46:43Z</time>
      </trkpt>
      <trkpt lat="48.68162" lon="-2.31429">
        <ele>71</ele>
        <time>2014-06-10T10:46:46Z</time>
      </trkpt>
      <trkpt lat="48.68159" lon="-2.31425">
        <ele>71</ele>
        <time>2014-06-10T10:46:50Z</time>
      </trkpt>
      <trkpt lat="48.68158" lon="-2.31424">
        <ele>71</ele>
        <time>2014-06-10T10:46:52Z</time>
      </trkpt>
      <trkpt lat="48.68154" lon="-2.31423">
        <ele>71</ele>
        <time>2014-06-10T10:46:59Z</time>
      </trkpt>
      <trkpt lat="48.68153" lon="-2.31422">
        <ele>71</ele>
        <time>2014-06-10T10:47:02Z</time>
      </trkpt>
      <trkpt lat="48.68152" lon="-2.31419">
        <ele>71</ele>
        <time>2014-06-10T10:47:20Z</time>
      </trkpt>
      <trkpt lat="48.6815" lon="-2.31418">
        <ele>71</ele>
        <time>2014-06-10T10:47:23Z</time>
      </trkpt>
      <trkpt lat="48.68148" lon="-2.31417">
        <ele>71</ele>
        <time>2014-06-10T10:47:25Z</time>
      </trkpt>
      <trkpt lat="48.68145" lon="-2.31416">
        <ele>71</ele>
        <time>2014-06-10T10:47:29Z</time>
      </trkpt>
      <trkpt lat="48.68143" lon="-2.31415">
        <ele>71</ele>
        <time>2014-06-10T10:47:31Z</time>
      </trkpt>
      <trkpt lat="48.6814" lon="-2.31414">
        <ele>71</ele>
        <time>2014-06-10T10:47:34Z</time>
      </trkpt>
      <trkpt lat="48.68137" lon="-2.31412">
        <ele>71</ele>
        <time>2014-06-10T10:47:36Z</time>
      </trkpt>
      <trkpt lat="48.68134" lon="-2.31411">
        <ele>71</ele>
        <time>2014-06-10T10:47:39Z</time>
      </trkpt>
      <trkpt lat="48.68131" lon="-2.3141">
        <ele>71</ele>
        <time>2014-06-10T10:47:41Z</time>
      </trkpt>
      <trkpt lat="48.68128" lon="-2.31409">
        <ele>71</ele>
        <time>2014-06-10T10:47:43Z</time>
      </trkpt>
      <trkpt lat="48.68126" lon="-2.31408">
        <ele>71</ele>
        <time>2014-06-10T10:47:45Z</time>
      </trkpt>
      <trkpt lat="48.68123" lon="-2.31407">
        <ele>71</ele>
        <time>2014-06-10T10:47:47Z</time>
      </trkpt>
      <trkpt lat="48.68121" lon="-2.31406">
        <ele>71</ele>
        <time>2014-06-10T10:47:49Z</time>
      </trkpt>
      <trkpt lat="48.68117" lon="-2.31404">
        <ele>71</ele>
        <time>2014-06-10T10:47:52Z</time>
      </trkpt>
      <trkpt lat="48.68113" lon="-2.31402">
        <ele>71</ele>
        <time>2014-06-10T10:47:55Z</time>
      </trkpt>
      <trkpt lat="48.6811" lon="-2.31401">
        <ele>71</ele>
        <time>2014-06-10T10:47:57Z</time>
      </trkpt>
      <trkpt lat="48.68106" lon="-2.314">
        <ele>71</ele>
        <time>2014-06-10T10:48:00Z</time>
      </trkpt>
      <trkpt lat="48.68103" lon="-2.314">
        <ele>71</ele>
        <time>2014-06-10T10:48:02Z</time>
      </trkpt>
      <trkpt lat="48.68101" lon="-2.31399">
        <ele>71</ele>
        <time>2014-06-10T10:48:04Z</time>
      </trkpt>
      <trkpt lat="48.68097" lon="-2.31398">
        <ele>71</ele>
        <time>2014-06-10T10:48:07Z</time>
      </trkpt>
      <trkpt lat="48.68095" lon="-2.31397">
        <ele>71</ele>
        <time>2014-06-10T10:48:09Z</time>
      </trkpt>
      <trkpt lat="48.68091" lon="-2.31396">
        <ele>71</ele>
        <time>2014-06-10T10:48:12Z</time>
      </trkpt>
      <trkpt lat="48.68088" lon="-2.31395">
        <ele>71</ele>
        <time>2014-06-10T10:48:14Z</time>
      </trkpt>
      <trkpt lat="48.68086" lon="-2.31394">
        <ele>71</ele>
        <time>2014-06-10T10:48:16Z</time>
      </trkpt>
      <trkpt lat="48.68082" lon="-2.31393">
        <ele>71</ele>
        <time>2014-06-10T10:48:19Z</time>
      </trkpt>
      <trkpt lat="48.68079" lon="-2.31392">
        <ele>71</ele>
        <time>2014-06-10T10:48:21Z</time>
      </trkpt>
      <trkpt lat="48.68075" lon="-2.31391">
        <ele>71</ele>
        <time>2014-06-10T10:48:24Z</time>
      </trkpt>
      <trkpt lat="48.68073" lon="-2.3139">
        <ele>71</ele>
        <time>2014-06-10T10:48:26Z</time>
      </trkpt>
      <trkpt lat="48.6807" lon="-2.31389">
        <ele>71</ele>
        <time>2014-06-10T10:48:28Z</time>
      </trkpt>
      <trkpt lat="48.68066" lon="-2.31387">
        <ele>71</ele>
        <time>2014-06-10T10:48:31Z</time>
      </trkpt>
      <trkpt lat="48.68064" lon="-2.31386">
        <ele>71</ele>
        <time>2014-06-10T10:48:33Z</time>
      </trkpt>
      <trkpt lat="48.68061" lon="-2.31382">
        <ele>71</ele>
        <time>2014-06-10T10:48:38Z</time>
      </trkpt>
      <trkpt lat="48.6806" lon="-2.31381">
        <ele>71</ele>
        <time>2014-06-10T10:48:41Z</time>
      </trkpt>
      <trkpt lat="48.68059" lon="-2.3138">
        <ele>71</ele>
        <time>2014-06-10T10:48:43Z</time>
      </trkpt>
      <trkpt lat="48.68055" lon="-2.31377">
        <ele>71</ele>
        <time>2014-06-10T10:48:57Z</time>
      </trkpt>
      <trkpt lat="48.68053" lon="-2.31375">
        <ele>72</ele>
        <time>2014-06-10T10:49:08Z</time>
      </trkpt>
      <trkpt lat="48.68054" lon="-2.31377">
        <ele>72</ele>
        <time>2014-06-10T10:49:16Z</time>
      </trkpt>
      <trkpt lat="48.68058" lon="-2.3138">
        <ele>67</ele>
        <time>2014-06-10T10:49:26Z</time>
      </trkpt>
      <trkpt lat="48.68056" lon="-2.31379">
        <ele>67</ele>
        <time>2014-06-10T10:49:28Z</time>
      </trkpt>
      <trkpt lat="48.68054" lon="-2.31378">
        <ele>67</ele>
        <time>2014-06-10T10:49:30Z</time>
      </trkpt>
      <trkpt lat="48.68053" lon="-2.31376">
        <ele>67</ele>
        <time>2014-06-10T10:49:32Z</time>
      </trkpt>
      <trkpt lat="48.68051" lon="-2.31375">
        <ele>67</ele>
        <time>2014-06-10T10:49:34Z</time>
      </trkpt>
      <trkpt lat="48.6805" lon="-2.31374">
        <ele>67</ele>
        <time>2014-06-10T10:49:36Z</time>
      </trkpt>
      <trkpt lat="48.68048" lon="-2.31373">
        <ele>67</ele>
        <time>2014-06-10T10:49:38Z</time>
      </trkpt>
      <trkpt lat="48.68047" lon="-2.31372">
        <ele>66</ele>
        <time>2014-06-10T10:49:40Z</time>
      </trkpt>
      <trkpt lat="48.68045" lon="-2.31372">
        <ele>66</ele>
        <time>2014-06-10T10:49:42Z</time>
      </trkpt>
      <trkpt lat="48.68044" lon="-2.31371">
        <ele>66</ele>
        <time>2014-06-10T10:49:44Z</time>
      </trkpt>
      <trkpt lat="48.68042" lon="-2.3137">
        <ele>66</ele>
        <time>2014-06-10T10:49:51Z</time>
      </trkpt>
      <trkpt lat="48.68041" lon="-2.31368">
        <ele>66</ele>
        <time>2014-06-10T10:49:54Z</time>
      </trkpt>
      <trkpt lat="48.68039" lon="-2.31367">
        <ele>66</ele>
        <time>2014-06-10T10:49:56Z</time>
      </trkpt>
      <trkpt lat="48.68036" lon="-2.31366">
        <ele>65</ele>
        <time>2014-06-10T10:49:59Z</time>
      </trkpt>
      <trkpt lat="48.68034" lon="-2.31365">
        <ele>65</ele>
        <time>2014-06-10T10:50:01Z</time>
      </trkpt>
      <trkpt lat="48.68032" lon="-2.31365">
        <ele>65</ele>
        <time>2014-06-10T10:50:03Z</time>
      </trkpt>
      <trkpt lat="48.6803" lon="-2.31364">
        <ele>65</ele>
        <time>2014-06-10T10:50:05Z</time>
      </trkpt>
      <trkpt lat="48.68028" lon="-2.31363">
        <ele>65</ele>
        <time>2014-06-10T10:50:08Z</time>
      </trkpt>
      <trkpt lat="48.68026" lon="-2.31363">
        <ele>65</ele>
        <time>2014-06-10T10:50:18Z</time>
      </trkpt>
      <trkpt lat="48.68024" lon="-2.31362">
        <ele>65</ele>
        <time>2014-06-10T10:50:20Z</time>
      </trkpt>
      <trkpt lat="48.68021" lon="-2.3136">
        <ele>65</ele>
        <time>2014-06-10T10:50:23Z</time>
      </trkpt>
      <trkpt lat="48.68018" lon="-2.31359">
        <ele>65</ele>
        <time>2014-06-10T10:50:26Z</time>
      </trkpt>
      <trkpt lat="48.68014" lon="-2.31356">
        <ele>65</ele>
        <time>2014-06-10T10:50:29Z</time>
      </trkpt>
      <trkpt lat="48.68012" lon="-2.31354">
        <ele>65</ele>
        <time>2014-06-10T10:50:31Z</time>
      </trkpt>
      <trkpt lat="48.6801" lon="-2.31353">
        <ele>65</ele>
        <time>2014-06-10T10:50:33Z</time>
      </trkpt>
      <trkpt lat="48.68008" lon="-2.31353">
        <ele>65</ele>
        <time>2014-06-10T10:50:35Z</time>
      </trkpt>
      <trkpt lat="48.68005" lon="-2.31353">
        <ele>65</ele>
        <time>2014-06-10T10:50:37Z</time>
      </trkpt>
      <trkpt lat="48.68002" lon="-2.31352">
        <ele>65</ele>
        <time>2014-06-10T10:50:39Z</time>
      </trkpt>
      <trkpt lat="48.68" lon="-2.3135">
        <ele>65</ele>
        <time>2014-06-10T10:50:41Z</time>
      </trkpt>
      <trkpt lat="48.67997" lon="-2.31348">
        <ele>65</ele>
        <time>2014-06-10T10:50:43Z</time>
      </trkpt>
      <trkpt lat="48.67995" lon="-2.31346">
        <ele>65</ele>
        <time>2014-06-10T10:50:45Z</time>
      </trkpt>
      <trkpt lat="48.67993" lon="-2.31344">
        <ele>65</ele>
        <time>2014-06-10T10:50:47Z</time>
      </trkpt>
      <trkpt lat="48.6799" lon="-2.31342">
        <ele>65</ele>
        <time>2014-06-10T10:50:49Z</time>
      </trkpt>
      <trkpt lat="48.67988" lon="-2.31342">
        <ele>65</ele>
        <time>2014-06-10T10:50:51Z</time>
      </trkpt>
      <trkpt lat="48.67986" lon="-2.31341">
        <ele>65</ele>
        <time>2014-06-10T10:50:53Z</time>
      </trkpt>
      <trkpt lat="48.67982" lon="-2.31339">
        <ele>65</ele>
        <time>2014-06-10T10:50:56Z</time>
      </trkpt>
      <trkpt lat="48.67979" lon="-2.31338">
        <ele>65</ele>
        <time>2014-06-10T10:50:59Z</time>
      </trkpt>
      <trkpt lat="48.67976" lon="-2.31336">
        <ele>65</ele>
        <time>2014-06-10T10:51:02Z</time>
      </trkpt>
      <trkpt lat="48.67974" lon="-2.31336">
        <ele>65</ele>
        <time>2014-06-10T10:51:04Z</time>
      </trkpt>
      <trkpt lat="48.67973" lon="-2.31336">
        <ele>65</ele>
        <time>2014-06-10T10:51:06Z</time>
      </trkpt>
      <trkpt lat="48.67971" lon="-2.31337">
        <ele>65</ele>
        <time>2014-06-10T10:51:08Z</time>
      </trkpt>
      <trkpt lat="48.6797" lon="-2.31337">
        <ele>65</ele>
        <time>2014-06-10T10:51:10Z</time>
      </trkpt>
      <trkpt lat="48.67968" lon="-2.3134">
        <ele>65</ele>
        <time>2014-06-10T10:51:19Z</time>
      </trkpt>
      <trkpt lat="48.67967" lon="-2.31343">
        <ele>65</ele>
        <time>2014-06-10T10:51:21Z</time>
      </trkpt>
      <trkpt lat="48.67966" lon="-2.31346">
        <ele>65</ele>
        <time>2014-06-10T10:51:23Z</time>
      </trkpt>
      <trkpt lat="48.67965" lon="-2.31349">
        <ele>65</ele>
        <time>2014-06-10T10:51:25Z</time>
      </trkpt>
      <trkpt lat="48.67963" lon="-2.31353">
        <ele>65</ele>
        <time>2014-06-10T10:51:27Z</time>
      </trkpt>
      <trkpt lat="48.67962" lon="-2.31356">
        <ele>65</ele>
        <time>2014-06-10T10:51:29Z</time>
      </trkpt>
      <trkpt lat="48.6796" lon="-2.3136">
        <ele>65</ele>
        <time>2014-06-10T10:51:31Z</time>
      </trkpt>
      <trkpt lat="48.67958" lon="-2.31363">
        <ele>65</ele>
        <time>2014-06-10T10:51:33Z</time>
      </trkpt>
      <trkpt lat="48.67957" lon="-2.31365">
        <ele>65</ele>
        <time>2014-06-10T10:51:35Z</time>
      </trkpt>
      <trkpt lat="48.67955" lon="-2.31368">
        <ele>65</ele>
        <time>2014-06-10T10:51:37Z</time>
      </trkpt>
      <trkpt lat="48.67952" lon="-2.3137">
        <ele>65</ele>
        <time>2014-06-10T10:51:39Z</time>
      </trkpt>
      <trkpt lat="48.6795" lon="-2.31371">
        <ele>65</ele>
        <time>2014-06-10T10:51:41Z</time>
      </trkpt>
      <trkpt lat="48.67946" lon="-2.31373">
        <ele>65</ele>
        <time>2014-06-10T10:51:44Z</time>
      </trkpt>
      <trkpt lat="48.67944" lon="-2.31375">
        <ele>65</ele>
        <time>2014-06-10T10:51:46Z</time>
      </trkpt>
      <trkpt lat="48.67941" lon="-2.31376">
        <ele>65</ele>
        <time>2014-06-10T10:51:48Z</time>
      </trkpt>
      <trkpt lat="48.67939" lon="-2.31377">
        <ele>65</ele>
        <time>2014-06-10T10:51:50Z</time>
      </trkpt>
      <trkpt lat="48.67937" lon="-2.31378">
        <ele>65</ele>
        <time>2014-06-10T10:51:52Z</time>
      </trkpt>
      <trkpt lat="48.67934" lon="-2.3138">
        <ele>65</ele>
        <time>2014-06-10T10:51:54Z</time>
      </trkpt>
      <trkpt lat="48.67931" lon="-2.31381">
        <ele>64</ele>
        <time>2014-06-10T10:51:56Z</time>
      </trkpt>
      <trkpt lat="48.67929" lon="-2.31383">
        <ele>64</ele>
        <time>2014-06-10T10:51:58Z</time>
      </trkpt>
      <trkpt lat="48.67927" lon="-2.31385">
        <ele>64</ele>
        <time>2014-06-10T10:52:00Z</time>
      </trkpt>
      <trkpt lat="48.67924" lon="-2.31387">
        <ele>63</ele>
        <time>2014-06-10T10:52:02Z</time>
      </trkpt>
      <trkpt lat="48.67922" lon="-2.31388">
        <ele>63</ele>
        <time>2014-06-10T10:52:04Z</time>
      </trkpt>
      <trkpt lat="48.6792" lon="-2.3139">
        <ele>63</ele>
        <time>2014-06-10T10:52:06Z</time>
      </trkpt>
      <trkpt lat="48.67917" lon="-2.31392">
        <ele>62</ele>
        <time>2014-06-10T10:52:08Z</time>
      </trkpt>
      <trkpt lat="48.67915" lon="-2.31393">
        <ele>62</ele>
        <time>2014-06-10T10:52:10Z</time>
      </trkpt>
      <trkpt lat="48.67912" lon="-2.31395">
        <ele>62</ele>
        <time>2014-06-10T10:52:12Z</time>
      </trkpt>
      <trkpt lat="48.67909" lon="-2.31397">
        <ele>62</ele>
        <time>2014-06-10T10:52:14Z</time>
      </trkpt>
      <trkpt lat="48.67907" lon="-2.31398">
        <ele>62</ele>
        <time>2014-06-10T10:52:16Z</time>
      </trkpt>
      <trkpt lat="48.67904" lon="-2.31399">
        <ele>62</ele>
        <time>2014-06-10T10:52:18Z</time>
      </trkpt>
      <trkpt lat="48.67902" lon="-2.31401">
        <ele>62</ele>
        <time>2014-06-10T10:52:20Z</time>
      </trkpt>
      <trkpt lat="48.67899" lon="-2.31402">
        <ele>62</ele>
        <time>2014-06-10T10:52:22Z</time>
      </trkpt>
      <trkpt lat="48.67897" lon="-2.31403">
        <ele>62</ele>
        <time>2014-06-10T10:52:24Z</time>
      </trkpt>
      <trkpt lat="48.67895" lon="-2.31405">
        <ele>62</ele>
        <time>2014-06-10T10:52:26Z</time>
      </trkpt>
      <trkpt lat="48.67891" lon="-2.31407">
        <ele>62</ele>
        <time>2014-06-10T10:52:29Z</time>
      </trkpt>
      <trkpt lat="48.67889" lon="-2.31408">
        <ele>62</ele>
        <time>2014-06-10T10:52:31Z</time>
      </trkpt>
      <trkpt lat="48.67887" lon="-2.31409">
        <ele>62</ele>
        <time>2014-06-10T10:52:33Z</time>
      </trkpt>
      <trkpt lat="48.67885" lon="-2.31411">
        <ele>62</ele>
        <time>2014-06-10T10:52:35Z</time>
      </trkpt>
      <trkpt lat="48.67883" lon="-2.31412">
        <ele>62</ele>
        <time>2014-06-10T10:52:37Z</time>
      </trkpt>
      <trkpt lat="48.6788" lon="-2.31414">
        <ele>62</ele>
        <time>2014-06-10T10:52:39Z</time>
      </trkpt>
      <trkpt lat="48.67878" lon="-2.31415">
        <ele>62</ele>
        <time>2014-06-10T10:52:41Z</time>
      </trkpt>
      <trkpt lat="48.67875" lon="-2.31417">
        <ele>62</ele>
        <time>2014-06-10T10:52:43Z</time>
      </trkpt>
      <trkpt lat="48.67873" lon="-2.31418">
        <ele>62</ele>
        <time>2014-06-10T10:52:45Z</time>
      </trkpt>
      <trkpt lat="48.6787" lon="-2.31419">
        <ele>62</ele>
        <time>2014-06-10T10:52:47Z</time>
      </trkpt>
      <trkpt lat="48.67868" lon="-2.31421">
        <ele>62</ele>
        <time>2014-06-10T10:52:49Z</time>
      </trkpt>
      <trkpt lat="48.67865" lon="-2.31422">
        <ele>62</ele>
        <time>2014-06-10T10:52:51Z</time>
      </trkpt>
      <trkpt lat="48.67862" lon="-2.31424">
        <ele>62</ele>
        <time>2014-06-10T10:52:54Z</time>
      </trkpt>
      <trkpt lat="48.67859" lon="-2.31429">
        <ele>62</ele>
        <time>2014-06-10T10:52:57Z</time>
      </trkpt>
      <trkpt lat="48.67857" lon="-2.31429">
        <ele>62</ele>
        <time>2014-06-10T10:52:59Z</time>
      </trkpt>
      <trkpt lat="48.67854" lon="-2.31428">
        <ele>62</ele>
        <time>2014-06-10T10:53:01Z</time>
      </trkpt>
      <trkpt lat="48.67851" lon="-2.31427">
        <ele>62</ele>
        <time>2014-06-10T10:53:03Z</time>
      </trkpt>
      <trkpt lat="48.67849" lon="-2.31428">
        <ele>62</ele>
        <time>2014-06-10T10:53:05Z</time>
      </trkpt>
      <trkpt lat="48.67846" lon="-2.31429">
        <ele>62</ele>
        <time>2014-06-10T10:53:07Z</time>
      </trkpt>
      <trkpt lat="48.67843" lon="-2.3143">
        <ele>62</ele>
        <time>2014-06-10T10:53:09Z</time>
      </trkpt>
      <trkpt lat="48.67841" lon="-2.31431">
        <ele>62</ele>
        <time>2014-06-10T10:53:11Z</time>
      </trkpt>
      <trkpt lat="48.67838" lon="-2.31431">
        <ele>62</ele>
        <time>2014-06-10T10:53:13Z</time>
      </trkpt>
      <trkpt lat="48.67835" lon="-2.31432">
        <ele>62</ele>
        <time>2014-06-10T10:53:15Z</time>
      </trkpt>
      <trkpt lat="48.67833" lon="-2.31433">
        <ele>62</ele>
        <time>2014-06-10T10:53:17Z</time>
      </trkpt>
      <trkpt lat="48.6783" lon="-2.31434">
        <ele>62</ele>
        <time>2014-06-10T10:53:19Z</time>
      </trkpt>
      <trkpt lat="48.67827" lon="-2.31435">
        <ele>62</ele>
        <time>2014-06-10T10:53:21Z</time>
      </trkpt>
      <trkpt lat="48.67824" lon="-2.31435">
        <ele>62</ele>
        <time>2014-06-10T10:53:23Z</time>
      </trkpt>
      <trkpt lat="48.67822" lon="-2.31436">
        <ele>62</ele>
        <time>2014-06-10T10:53:25Z</time>
      </trkpt>
      <trkpt lat="48.67819" lon="-2.31437">
        <ele>62</ele>
        <time>2014-06-10T10:53:27Z</time>
      </trkpt>
      <trkpt lat="48.67816" lon="-2.31438">
        <ele>62</ele>
        <time>2014-06-10T10:53:29Z</time>
      </trkpt>
      <trkpt lat="48.67814" lon="-2.3144">
        <ele>62</ele>
        <time>2014-06-10T10:53:31Z</time>
      </trkpt>
      <trkpt lat="48.67811" lon="-2.31441">
        <ele>62</ele>
        <time>2014-06-10T10:53:33Z</time>
      </trkpt>
      <trkpt lat="48.67808" lon="-2.31443">
        <ele>62</ele>
        <time>2014-06-10T10:53:35Z</time>
      </trkpt>
      <trkpt lat="48.67806" lon="-2.31445">
        <ele>62</ele>
        <time>2014-06-10T10:53:37Z</time>
      </trkpt>
      <trkpt lat="48.67803" lon="-2.31446">
        <ele>62</ele>
        <time>2014-06-10T10:53:39Z</time>
      </trkpt>
      <trkpt lat="48.67801" lon="-2.31447">
        <ele>62</ele>
        <time>2014-06-10T10:53:41Z</time>
      </trkpt>
      <trkpt lat="48.67798" lon="-2.31447">
        <ele>62</ele>
        <time>2014-06-10T10:53:43Z</time>
      </trkpt>
      <trkpt lat="48.67795" lon="-2.31446">
        <ele>62</ele>
        <time>2014-06-10T10:53:45Z</time>
      </trkpt>
      <trkpt lat="48.67793" lon="-2.31445">
        <ele>62</ele>
        <time>2014-06-10T10:53:47Z</time>
      </trkpt>
      <trkpt lat="48.6779" lon="-2.31445">
        <ele>62</ele>
        <time>2014-06-10T10:53:49Z</time>
      </trkpt>
      <trkpt lat="48.67787" lon="-2.31445">
        <ele>62</ele>
        <time>2014-06-10T10:53:51Z</time>
      </trkpt>
      <trkpt lat="48.67785" lon="-2.31445">
        <ele>62</ele>
        <time>2014-06-10T10:53:53Z</time>
      </trkpt>
      <trkpt lat="48.67782" lon="-2.31446">
        <ele>62</ele>
        <time>2014-06-10T10:53:55Z</time>
      </trkpt>
      <trkpt lat="48.6778" lon="-2.31449">
        <ele>62</ele>
        <time>2014-06-10T10:53:57Z</time>
      </trkpt>
      <trkpt lat="48.67778" lon="-2.31453">
        <ele>62</ele>
        <time>2014-06-10T10:53:59Z</time>
      </trkpt>
      <trkpt lat="48.67777" lon="-2.31456">
        <ele>62</ele>
        <time>2014-06-10T10:54:01Z</time>
      </trkpt>
      <trkpt lat="48.67775" lon="-2.31459">
        <ele>62</ele>
        <time>2014-06-10T10:54:03Z</time>
      </trkpt>
      <trkpt lat="48.67773" lon="-2.3146">
        <ele>62</ele>
        <time>2014-06-10T10:54:05Z</time>
      </trkpt>
      <trkpt lat="48.6777" lon="-2.31461">
        <ele>62</ele>
        <time>2014-06-10T10:54:07Z</time>
      </trkpt>
      <trkpt lat="48.67767" lon="-2.31464">
        <ele>62</ele>
        <time>2014-06-10T10:54:10Z</time>
      </trkpt>
      <trkpt lat="48.67766" lon="-2.31467">
        <ele>62</ele>
        <time>2014-06-10T10:54:12Z</time>
      </trkpt>
      <trkpt lat="48.67765" lon="-2.3147">
        <ele>62</ele>
        <time>2014-06-10T10:54:14Z</time>
      </trkpt>
      <trkpt lat="48.67765" lon="-2.31472">
        <ele>62</ele>
        <time>2014-06-10T10:54:18Z</time>
      </trkpt>
      <trkpt lat="48.67765" lon="-2.31473">
        <ele>62</ele>
        <time>2014-06-10T10:54:21Z</time>
      </trkpt>
      <trkpt lat="48.67767" lon="-2.31474">
        <ele>62</ele>
        <time>2014-06-10T10:54:28Z</time>
      </trkpt>
      <trkpt lat="48.67765" lon="-2.31474">
        <ele>62</ele>
        <time>2014-06-10T10:54:35Z</time>
      </trkpt>
      <trkpt lat="48.67763" lon="-2.31476">
        <ele>62</ele>
        <time>2014-06-10T10:54:37Z</time>
      </trkpt>
      <trkpt lat="48.6776" lon="-2.31478">
        <ele>62</ele>
        <time>2014-06-10T10:54:39Z</time>
      </trkpt>
      <trkpt lat="48.67757" lon="-2.3148">
        <ele>62</ele>
        <time>2014-06-10T10:54:41Z</time>
      </trkpt>
      <trkpt lat="48.67754" lon="-2.31483">
        <ele>62</ele>
        <time>2014-06-10T10:54:44Z</time>
      </trkpt>
      <trkpt lat="48.67751" lon="-2.31486">
        <ele>62</ele>
        <time>2014-06-10T10:54:46Z</time>
      </trkpt>
      <trkpt lat="48.67749" lon="-2.31488">
        <ele>62</ele>
        <time>2014-06-10T10:54:48Z</time>
      </trkpt>
      <trkpt lat="48.67746" lon="-2.31489">
        <ele>62</ele>
        <time>2014-06-10T10:54:50Z</time>
      </trkpt>
      <trkpt lat="48.67743" lon="-2.31489">
        <ele>62</ele>
        <time>2014-06-10T10:54:52Z</time>
      </trkpt>
      <trkpt lat="48.67741" lon="-2.31489">
        <ele>62</ele>
        <time>2014-06-10T10:54:54Z</time>
      </trkpt>
      <trkpt lat="48.67738" lon="-2.31489">
        <ele>62</ele>
        <time>2014-06-10T10:54:56Z</time>
      </trkpt>
      <trkpt lat="48.67736" lon="-2.31491">
        <ele>62</ele>
        <time>2014-06-10T10:54:58Z</time>
      </trkpt>
      <trkpt lat="48.67733" lon="-2.31492">
        <ele>62</ele>
        <time>2014-06-10T10:55:00Z</time>
      </trkpt>
      <trkpt lat="48.6773" lon="-2.31493">
        <ele>62</ele>
        <time>2014-06-10T10:55:02Z</time>
      </trkpt>
      <trkpt lat="48.67727" lon="-2.31494">
        <ele>62</ele>
        <time>2014-06-10T10:55:04Z</time>
      </trkpt>
      <trkpt lat="48.67725" lon="-2.31496">
        <ele>62</ele>
        <time>2014-06-10T10:55:06Z</time>
      </trkpt>
      <trkpt lat="48.67722" lon="-2.31498">
        <ele>62</ele>
        <time>2014-06-10T10:55:08Z</time>
      </trkpt>
      <trkpt lat="48.67719" lon="-2.31499">
        <ele>62</ele>
        <time>2014-06-10T10:55:10Z</time>
      </trkpt>
      <trkpt lat="48.67716" lon="-2.315">
        <ele>62</ele>
        <time>2014-06-10T10:55:12Z</time>
      </trkpt>
      <trkpt lat="48.67713" lon="-2.31501">
        <ele>62</ele>
        <time>2014-06-10T10:55:14Z</time>
      </trkpt>
      <trkpt lat="48.6771" lon="-2.31502">
        <ele>62</ele>
        <time>2014-06-10T10:55:16Z</time>
      </trkpt>
      <trkpt lat="48.67708" lon="-2.31504">
        <ele>62</ele>
        <time>2014-06-10T10:55:18Z</time>
      </trkpt>
      <trkpt lat="48.67705" lon="-2.31505">
        <ele>62</ele>
        <time>2014-06-10T10:55:20Z</time>
      </trkpt>
      <trkpt lat="48.67702" lon="-2.31507">
        <ele>62</ele>
        <time>2014-06-10T10:55:22Z</time>
      </trkpt>
      <trkpt lat="48.67699" lon="-2.31508">
        <ele>62</ele>
        <time>2014-06-10T10:55:24Z</time>
      </trkpt>
      <trkpt lat="48.67696" lon="-2.3151">
        <ele>62</ele>
        <time>2014-06-10T10:55:26Z</time>
      </trkpt>
      <trkpt lat="48.67693" lon="-2.31511">
        <ele>62</ele>
        <time>2014-06-10T10:55:28Z</time>
      </trkpt>
      <trkpt lat="48.67691" lon="-2.31512">
        <ele>62</ele>
        <time>2014-06-10T10:55:30Z</time>
      </trkpt>
      <trkpt lat="48.67688" lon="-2.31513">
        <ele>62</ele>
        <time>2014-06-10T10:55:32Z</time>
      </trkpt>
      <trkpt lat="48.67685" lon="-2.31515">
        <ele>62</ele>
        <time>2014-06-10T10:55:34Z</time>
      </trkpt>
      <trkpt lat="48.67683" lon="-2.31516">
        <ele>62</ele>
        <time>2014-06-10T10:55:36Z</time>
      </trkpt>
      <trkpt lat="48.6768" lon="-2.31516">
        <ele>62</ele>
        <time>2014-06-10T10:55:38Z</time>
      </trkpt>
      <trkpt lat="48.67677" lon="-2.31517">
        <ele>62</ele>
        <time>2014-06-10T10:55:40Z</time>
      </trkpt>
      <trkpt lat="48.67675" lon="-2.31516">
        <ele>62</ele>
        <time>2014-06-10T10:55:42Z</time>
      </trkpt>
      <trkpt lat="48.67671" lon="-2.31518">
        <ele>62</ele>
        <time>2014-06-10T10:55:45Z</time>
      </trkpt>
      <trkpt lat="48.67668" lon="-2.3152">
        <ele>62</ele>
        <time>2014-06-10T10:55:47Z</time>
      </trkpt>
      <trkpt lat="48.67665" lon="-2.31521">
        <ele>62</ele>
        <time>2014-06-10T10:55:49Z</time>
      </trkpt>
      <trkpt lat="48.67663" lon="-2.31521">
        <ele>62</ele>
        <time>2014-06-10T10:55:51Z</time>
      </trkpt>
      <trkpt lat="48.6766" lon="-2.31521">
        <ele>62</ele>
        <time>2014-06-10T10:55:53Z</time>
      </trkpt>
      <trkpt lat="48.67657" lon="-2.3152">
        <ele>62</ele>
        <time>2014-06-10T10:55:55Z</time>
      </trkpt>
      <trkpt lat="48.67654" lon="-2.31521">
        <ele>62</ele>
        <time>2014-06-10T10:55:58Z</time>
      </trkpt>
      <trkpt lat="48.67654" lon="-2.31523">
        <ele>62</ele>
        <time>2014-06-10T10:56:01Z</time>
      </trkpt>
      <trkpt lat="48.67652" lon="-2.31526">
        <ele>62</ele>
        <time>2014-06-10T10:56:03Z</time>
      </trkpt>
      <trkpt lat="48.67649" lon="-2.31528">
        <ele>62</ele>
        <time>2014-06-10T10:56:05Z</time>
      </trkpt>
      <trkpt lat="48.67647" lon="-2.31526">
        <ele>62</ele>
        <time>2014-06-10T10:56:07Z</time>
      </trkpt>
      <trkpt lat="48.67644" lon="-2.31525">
        <ele>62</ele>
        <time>2014-06-10T10:56:09Z</time>
      </trkpt>
      <trkpt lat="48.67642" lon="-2.31525">
        <ele>62</ele>
        <time>2014-06-10T10:56:11Z</time>
      </trkpt>
      <trkpt lat="48.67639" lon="-2.31527">
        <ele>62</ele>
        <time>2014-06-10T10:56:13Z</time>
      </trkpt>
      <trkpt lat="48.67637" lon="-2.31529">
        <ele>62</ele>
        <time>2014-06-10T10:56:15Z</time>
      </trkpt>
      <trkpt lat="48.67634" lon="-2.31532">
        <ele>62</ele>
        <time>2014-06-10T10:56:17Z</time>
      </trkpt>
      <trkpt lat="48.67632" lon="-2.31532">
        <ele>62</ele>
        <time>2014-06-10T10:56:19Z</time>
      </trkpt>
      <trkpt lat="48.67628" lon="-2.31531">
        <ele>62</ele>
        <time>2014-06-10T10:56:21Z</time>
      </trkpt>
      <trkpt lat="48.67626" lon="-2.3153">
        <ele>62</ele>
        <time>2014-06-10T10:56:23Z</time>
      </trkpt>
      <trkpt lat="48.67623" lon="-2.31528">
        <ele>62</ele>
        <time>2014-06-10T10:56:25Z</time>
      </trkpt>
      <trkpt lat="48.6762" lon="-2.31527">
        <ele>62</ele>
        <time>2014-06-10T10:56:27Z</time>
      </trkpt>
      <trkpt lat="48.67617" lon="-2.31526">
        <ele>62</ele>
        <time>2014-06-10T10:56:29Z</time>
      </trkpt>
      <trkpt lat="48.67614" lon="-2.31527">
        <ele>62</ele>
        <time>2014-06-10T10:56:31Z</time>
      </trkpt>
      <trkpt lat="48.67611" lon="-2.31527">
        <ele>62</ele>
        <time>2014-06-10T10:56:33Z</time>
      </trkpt>
      <trkpt lat="48.67609" lon="-2.31529">
        <ele>62</ele>
        <time>2014-06-10T10:56:35Z</time>
      </trkpt>
      <trkpt lat="48.67606" lon="-2.31528">
        <ele>62</ele>
        <time>2014-06-10T10:56:37Z</time>
      </trkpt>
      <trkpt lat="48.67603" lon="-2.31528">
        <ele>62</ele>
        <time>2014-06-10T10:56:39Z</time>
      </trkpt>
      <trkpt lat="48.676" lon="-2.31528">
        <ele>62</ele>
        <time>2014-06-10T10:56:41Z</time>
      </trkpt>
      <trkpt lat="48.67598" lon="-2.3153">
        <ele>62</ele>
        <time>2014-06-10T10:56:43Z</time>
      </trkpt>
      <trkpt lat="48.67595" lon="-2.31531">
        <ele>62</ele>
        <time>2014-06-10T10:56:45Z</time>
      </trkpt>
      <trkpt lat="48.67592" lon="-2.3153">
        <ele>62</ele>
        <time>2014-06-10T10:56:47Z</time>
      </trkpt>
      <trkpt lat="48.6759" lon="-2.31529">
        <ele>62</ele>
        <time>2014-06-10T10:56:49Z</time>
      </trkpt>
      <trkpt lat="48.67587" lon="-2.31528">
        <ele>62</ele>
        <time>2014-06-10T10:56:51Z</time>
      </trkpt>
      <trkpt lat="48.67585" lon="-2.31528">
        <ele>62</ele>
        <time>2014-06-10T10:56:53Z</time>
      </trkpt>
      <trkpt lat="48.67582" lon="-2.31527">
        <ele>62</ele>
        <time>2014-06-10T10:56:55Z</time>
      </trkpt>
      <trkpt lat="48.6758" lon="-2.31526">
        <ele>62</ele>
        <time>2014-06-10T10:56:57Z</time>
      </trkpt>
      <trkpt lat="48.67576" lon="-2.31526">
        <ele>62</ele>
        <time>2014-06-10T10:57:00Z</time>
      </trkpt>
      <trkpt lat="48.67575" lon="-2.31526">
        <ele>62</ele>
        <time>2014-06-10T10:57:02Z</time>
      </trkpt>
      <trkpt lat="48.67574" lon="-2.31527">
        <ele>62</ele>
        <time>2014-06-10T10:57:04Z</time>
      </trkpt>
      <trkpt lat="48.67571" lon="-2.31529">
        <ele>61</ele>
        <time>2014-06-10T10:57:06Z</time>
      </trkpt>
      <trkpt lat="48.67568" lon="-2.31533">
        <ele>61</ele>
        <time>2014-06-10T10:57:09Z</time>
      </trkpt>
      <trkpt lat="48.67566" lon="-2.31535">
        <ele>61</ele>
        <time>2014-06-10T10:57:11Z</time>
      </trkpt>
      <trkpt lat="48.67564" lon="-2.31538">
        <ele>60</ele>
        <time>2014-06-10T10:57:13Z</time>
      </trkpt>
      <trkpt lat="48.67561" lon="-2.31542">
        <ele>60</ele>
        <time>2014-06-10T10:57:15Z</time>
      </trkpt>
      <trkpt lat="48.6756" lon="-2.31545">
        <ele>60</ele>
        <time>2014-06-10T10:57:17Z</time>
      </trkpt>
      <trkpt lat="48.67557" lon="-2.3155">
        <ele>59</ele>
        <time>2014-06-10T10:57:20Z</time>
      </trkpt>
      <trkpt lat="48.67556" lon="-2.31553">
        <ele>59</ele>
        <time>2014-06-10T10:57:22Z</time>
      </trkpt>
      <trkpt lat="48.67554" lon="-2.31557">
        <ele>59</ele>
        <time>2014-06-10T10:57:24Z</time>
      </trkpt>
      <trkpt lat="48.67552" lon="-2.31561">
        <ele>59</ele>
        <time>2014-06-10T10:57:26Z</time>
      </trkpt>
      <trkpt lat="48.6755" lon="-2.31564">
        <ele>59</ele>
        <time>2014-06-10T10:57:28Z</time>
      </trkpt>
      <trkpt lat="48.67549" lon="-2.31568">
        <ele>58</ele>
        <time>2014-06-10T10:57:30Z</time>
      </trkpt>
      <trkpt lat="48.67548" lon="-2.31572">
        <ele>58</ele>
        <time>2014-06-10T10:57:32Z</time>
      </trkpt>
      <trkpt lat="48.67546" lon="-2.31575">
        <ele>58</ele>
        <time>2014-06-10T10:57:34Z</time>
      </trkpt>
      <trkpt lat="48.67543" lon="-2.3158">
        <ele>58</ele>
        <time>2014-06-10T10:57:37Z</time>
      </trkpt>
      <trkpt lat="48.67542" lon="-2.31584">
        <ele>58</ele>
        <time>2014-06-10T10:57:39Z</time>
      </trkpt>
      <trkpt lat="48.67541" lon="-2.31588">
        <ele>58</ele>
        <time>2014-06-10T10:57:41Z</time>
      </trkpt>
      <trkpt lat="48.6754" lon="-2.31592">
        <ele>58</ele>
        <time>2014-06-10T10:57:43Z</time>
      </trkpt>
      <trkpt lat="48.67539" lon="-2.31596">
        <ele>58</ele>
        <time>2014-06-10T10:57:45Z</time>
      </trkpt>
      <trkpt lat="48.67538" lon="-2.316">
        <ele>57</ele>
        <time>2014-06-10T10:57:47Z</time>
      </trkpt>
      <trkpt lat="48.67537" lon="-2.31604">
        <ele>57</ele>
        <time>2014-06-10T10:57:49Z</time>
      </trkpt>
      <trkpt lat="48.67536" lon="-2.31609">
        <ele>57</ele>
        <time>2014-06-10T10:57:51Z</time>
      </trkpt>
      <trkpt lat="48.67535" lon="-2.31613">
        <ele>57</ele>
        <time>2014-06-10T10:57:53Z</time>
      </trkpt>
      <trkpt lat="48.67534" lon="-2.31617">
        <ele>57</ele>
        <time>2014-06-10T10:57:55Z</time>
      </trkpt>
      <trkpt lat="48.67533" lon="-2.31621">
        <ele>57</ele>
        <time>2014-06-10T10:57:57Z</time>
      </trkpt>
      <trkpt lat="48.67532" lon="-2.31625">
        <ele>57</ele>
        <time>2014-06-10T10:57:59Z</time>
      </trkpt>
      <trkpt lat="48.67531" lon="-2.31629">
        <ele>57</ele>
        <time>2014-06-10T10:58:01Z</time>
      </trkpt>
      <trkpt lat="48.6753" lon="-2.31633">
        <ele>57</ele>
        <time>2014-06-10T10:58:03Z</time>
      </trkpt>
      <trkpt lat="48.67529" lon="-2.31637">
        <ele>57</ele>
        <time>2014-06-10T10:58:05Z</time>
      </trkpt>
      <trkpt lat="48.67527" lon="-2.3164">
        <ele>57</ele>
        <time>2014-06-10T10:58:07Z</time>
      </trkpt>
      <trkpt lat="48.67525" lon="-2.31645">
        <ele>57</ele>
        <time>2014-06-10T10:58:10Z</time>
      </trkpt>
      <trkpt lat="48.67523" lon="-2.31648">
        <ele>57</ele>
        <time>2014-06-10T10:58:12Z</time>
      </trkpt>
      <trkpt lat="48.67521" lon="-2.3165">
        <ele>57</ele>
        <time>2014-06-10T10:58:14Z</time>
      </trkpt>
      <trkpt lat="48.67519" lon="-2.31653">
        <ele>57</ele>
        <time>2014-06-10T10:58:16Z</time>
      </trkpt>
      <trkpt lat="48.67517" lon="-2.31657">
        <ele>57</ele>
        <time>2014-06-10T10:58:18Z</time>
      </trkpt>
      <trkpt lat="48.67515" lon="-2.3166">
        <ele>57</ele>
        <time>2014-06-10T10:58:20Z</time>
      </trkpt>
      <trkpt lat="48.67513" lon="-2.31663">
        <ele>57</ele>
        <time>2014-06-10T10:58:22Z</time>
      </trkpt>
      <trkpt lat="48.67511" lon="-2.31668">
        <ele>57</ele>
        <time>2014-06-10T10:58:25Z</time>
      </trkpt>
      <trkpt lat="48.67508" lon="-2.31673">
        <ele>57</ele>
        <time>2014-06-10T10:58:28Z</time>
      </trkpt>
      <trkpt lat="48.67507" lon="-2.31677">
        <ele>57</ele>
        <time>2014-06-10T10:58:30Z</time>
      </trkpt>
      <trkpt lat="48.67506" lon="-2.31679">
        <ele>57</ele>
        <time>2014-06-10T10:58:32Z</time>
      </trkpt>
      <trkpt lat="48.67505" lon="-2.3168">
        <ele>57</ele>
        <time>2014-06-10T10:58:34Z</time>
      </trkpt>
      <trkpt lat="48.67503" lon="-2.31679">
        <ele>57</ele>
        <time>2014-06-10T10:58:36Z</time>
      </trkpt>
      <trkpt lat="48.67502" lon="-2.31679">
        <ele>56</ele>
        <time>2014-06-10T10:58:39Z</time>
      </trkpt>
      <trkpt lat="48.675" lon="-2.31679">
        <ele>55</ele>
        <time>2014-06-10T10:58:41Z</time>
      </trkpt>
      <trkpt lat="48.67498" lon="-2.3168">
        <ele>55</ele>
        <time>2014-06-10T10:58:43Z</time>
      </trkpt>
      <trkpt lat="48.67495" lon="-2.3168">
        <ele>54</ele>
        <time>2014-06-10T10:58:45Z</time>
      </trkpt>
      <trkpt lat="48.67493" lon="-2.31679">
        <ele>54</ele>
        <time>2014-06-10T10:58:47Z</time>
      </trkpt>
      <trkpt lat="48.67491" lon="-2.31676">
        <ele>53</ele>
        <time>2014-06-10T10:58:49Z</time>
      </trkpt>
      <trkpt lat="48.67489" lon="-2.31673">
        <ele>53</ele>
        <time>2014-06-10T10:58:51Z</time>
      </trkpt>
      <trkpt lat="48.67488" lon="-2.31669">
        <ele>53</ele>
        <time>2014-06-10T10:58:53Z</time>
      </trkpt>
      <trkpt lat="48.67487" lon="-2.31665">
        <ele>52</ele>
        <time>2014-06-10T10:58:55Z</time>
      </trkpt>
      <trkpt lat="48.67485" lon="-2.31662">
        <ele>52</ele>
        <time>2014-06-10T10:58:57Z</time>
      </trkpt>
      <trkpt lat="48.67484" lon="-2.31658">
        <ele>51</ele>
        <time>2014-06-10T10:58:59Z</time>
      </trkpt>
      <trkpt lat="48.67482" lon="-2.31655">
        <ele>51</ele>
        <time>2014-06-10T10:59:01Z</time>
      </trkpt>
      <trkpt lat="48.6748" lon="-2.3165">
        <ele>51</ele>
        <time>2014-06-10T10:59:04Z</time>
      </trkpt>
      <trkpt lat="48.67479" lon="-2.31647">
        <ele>51</ele>
        <time>2014-06-10T10:59:06Z</time>
      </trkpt>
      <trkpt lat="48.67478" lon="-2.31643">
        <ele>51</ele>
        <time>2014-06-10T10:59:08Z</time>
      </trkpt>
      <trkpt lat="48.67478" lon="-2.3164">
        <ele>51</ele>
        <time>2014-06-10T10:59:10Z</time>
      </trkpt>
      <trkpt lat="48.67479" lon="-2.31636">
        <ele>51</ele>
        <time>2014-06-10T10:59:12Z</time>
      </trkpt>
      <trkpt lat="48.67479" lon="-2.31632">
        <ele>51</ele>
        <time>2014-06-10T10:59:14Z</time>
      </trkpt>
      <trkpt lat="48.6748" lon="-2.31628">
        <ele>51</ele>
        <time>2014-06-10T10:59:16Z</time>
      </trkpt>
      <trkpt lat="48.67482" lon="-2.31625">
        <ele>51</ele>
        <time>2014-06-10T10:59:18Z</time>
      </trkpt>
      <trkpt lat="48.67482" lon="-2.31621">
        <ele>51</ele>
        <time>2014-06-10T10:59:20Z</time>
      </trkpt>
      <trkpt lat="48.67484" lon="-2.31618">
        <ele>51</ele>
        <time>2014-06-10T10:59:22Z</time>
      </trkpt>
      <trkpt lat="48.67485" lon="-2.31614">
        <ele>51</ele>
        <time>2014-06-10T10:59:24Z</time>
      </trkpt>
      <trkpt lat="48.67486" lon="-2.3161">
        <ele>51</ele>
        <time>2014-06-10T10:59:26Z</time>
      </trkpt>
      <trkpt lat="48.67486" lon="-2.31606">
        <ele>51</ele>
        <time>2014-06-10T10:59:28Z</time>
      </trkpt>
      <trkpt lat="48.67486" lon="-2.31603">
        <ele>51</ele>
        <time>2014-06-10T10:59:30Z</time>
      </trkpt>
      <trkpt lat="48.67485" lon="-2.316">
        <ele>51</ele>
        <time>2014-06-10T10:59:32Z</time>
      </trkpt>
      <trkpt lat="48.67485" lon="-2.31597">
        <ele>51</ele>
        <time>2014-06-10T10:59:34Z</time>
      </trkpt>
      <trkpt lat="48.67484" lon="-2.31594">
        <ele>51</ele>
        <time>2014-06-10T10:59:36Z</time>
      </trkpt>
      <trkpt lat="48.67484" lon="-2.31592">
        <ele>51</ele>
        <time>2014-06-10T10:59:38Z</time>
      </trkpt>
      <trkpt lat="48.67483" lon="-2.31592">
        <ele>51</ele>
        <time>2014-06-10T10:59:41Z</time>
      </trkpt>
      <trkpt lat="48.67482" lon="-2.31595">
        <ele>51</ele>
        <time>2014-06-10T10:59:43Z</time>
      </trkpt>
      <trkpt lat="48.6748" lon="-2.31599">
        <ele>51</ele>
        <time>2014-06-10T10:59:45Z</time>
      </trkpt>
      <trkpt lat="48.67479" lon="-2.31604">
        <ele>51</ele>
        <time>2014-06-10T10:59:48Z</time>
      </trkpt>
      <trkpt lat="48.67477" lon="-2.31606">
        <ele>51</ele>
        <time>2014-06-10T10:59:50Z</time>
      </trkpt>
      <trkpt lat="48.67476" lon="-2.31606">
        <ele>51</ele>
        <time>2014-06-10T10:59:52Z</time>
      </trkpt>
      <trkpt lat="48.67476" lon="-2.31603">
        <ele>51</ele>
        <time>2014-06-10T10:59:54Z</time>
      </trkpt>
      <trkpt lat="48.67476" lon="-2.31599">
        <ele>51</ele>
        <time>2014-06-10T10:59:56Z</time>
      </trkpt>
      <trkpt lat="48.67476" lon="-2.31595">
        <ele>51</ele>
        <time>2014-06-10T10:59:58Z</time>
      </trkpt>
      <trkpt lat="48.67476" lon="-2.31592">
        <ele>51</ele>
        <time>2014-06-10T11:00:01Z</time>
      </trkpt>
      <trkpt lat="48.67474" lon="-2.31594">
        <ele>51</ele>
        <time>2014-06-10T11:00:04Z</time>
      </trkpt>
      <trkpt lat="48.67473" lon="-2.31597">
        <ele>51</ele>
        <time>2014-06-10T11:00:06Z</time>
      </trkpt>
      <trkpt lat="48.67471" lon="-2.316">
        <ele>52</ele>
        <time>2014-06-10T11:00:08Z</time>
      </trkpt>
      <trkpt lat="48.6747" lon="-2.31603">
        <ele>52</ele>
        <time>2014-06-10T11:00:10Z</time>
      </trkpt>
      <trkpt lat="48.67468" lon="-2.31606">
        <ele>52</ele>
        <time>2014-06-10T11:00:12Z</time>
      </trkpt>
      <trkpt lat="48.67467" lon="-2.31604">
        <ele>52</ele>
        <time>2014-06-10T11:00:14Z</time>
      </trkpt>
      <trkpt lat="48.67467" lon="-2.316">
        <ele>53</ele>
        <time>2014-06-10T11:00:16Z</time>
      </trkpt>
      <trkpt lat="48.67468" lon="-2.31596">
        <ele>53</ele>
        <time>2014-06-10T11:00:18Z</time>
      </trkpt>
      <trkpt lat="48.67469" lon="-2.31592">
        <ele>53</ele>
        <time>2014-06-10T11:00:20Z</time>
      </trkpt>
      <trkpt lat="48.67469" lon="-2.31588">
        <ele>54</ele>
        <time>2014-06-10T11:00:22Z</time>
      </trkpt>
      <trkpt lat="48.6747" lon="-2.31583">
        <ele>54</ele>
        <time>2014-06-10T11:00:24Z</time>
      </trkpt>
      <trkpt lat="48.67471" lon="-2.31579">
        <ele>54</ele>
        <time>2014-06-10T11:00:26Z</time>
      </trkpt>
      <trkpt lat="48.67471" lon="-2.31576">
        <ele>54</ele>
        <time>2014-06-10T11:00:28Z</time>
      </trkpt>
      <trkpt lat="48.67471" lon="-2.31572">
        <ele>54</ele>
        <time>2014-06-10T11:00:30Z</time>
      </trkpt>
      <trkpt lat="48.67469" lon="-2.31571">
        <ele>54</ele>
        <time>2014-06-10T11:00:32Z</time>
      </trkpt>
      <trkpt lat="48.67466" lon="-2.3157">
        <ele>54</ele>
        <time>2014-06-10T11:00:34Z</time>
      </trkpt>
      <trkpt lat="48.67464" lon="-2.31571">
        <ele>54</ele>
        <time>2014-06-10T11:00:36Z</time>
      </trkpt>
      <trkpt lat="48.67461" lon="-2.31572">
        <ele>54</ele>
        <time>2014-06-10T11:00:38Z</time>
      </trkpt>
      <trkpt lat="48.67459" lon="-2.31572">
        <ele>54</ele>
        <time>2014-06-10T11:00:40Z</time>
      </trkpt>
      <trkpt lat="48.67456" lon="-2.31573">
        <ele>54</ele>
        <time>2014-06-10T11:00:42Z</time>
      </trkpt>
      <trkpt lat="48.67454" lon="-2.31573">
        <ele>54</ele>
        <time>2014-06-10T11:00:44Z</time>
      </trkpt>
      <trkpt lat="48.67451" lon="-2.31573">
        <ele>54</ele>
        <time>2014-06-10T11:00:46Z</time>
      </trkpt>
      <trkpt lat="48.67448" lon="-2.31572">
        <ele>54</ele>
        <time>2014-06-10T11:00:48Z</time>
      </trkpt>
      <trkpt lat="48.67446" lon="-2.31571">
        <ele>54</ele>
        <time>2014-06-10T11:00:50Z</time>
      </trkpt>
      <trkpt lat="48.67443" lon="-2.31571">
        <ele>54</ele>
        <time>2014-06-10T11:00:52Z</time>
      </trkpt>
      <trkpt lat="48.67441" lon="-2.3157">
        <ele>55</ele>
        <time>2014-06-10T11:00:54Z</time>
      </trkpt>
      <trkpt lat="48.67439" lon="-2.31569">
        <ele>55</ele>
        <time>2014-06-10T11:00:56Z</time>
      </trkpt>
      <trkpt lat="48.67436" lon="-2.31567">
        <ele>55</ele>
        <time>2014-06-10T11:00:58Z</time>
      </trkpt>
      <trkpt lat="48.67434" lon="-2.31566">
        <ele>55</ele>
        <time>2014-06-10T11:01:00Z</time>
      </trkpt>
      <trkpt lat="48.67431" lon="-2.31565">
        <ele>55</ele>
        <time>2014-06-10T11:01:02Z</time>
      </trkpt>
      <trkpt lat="48.67428" lon="-2.31564">
        <ele>55</ele>
        <time>2014-06-10T11:01:04Z</time>
      </trkpt>
      <trkpt lat="48.67425" lon="-2.31564">
        <ele>55</ele>
        <time>2014-06-10T11:01:06Z</time>
      </trkpt>
      <trkpt lat="48.67423" lon="-2.31564">
        <ele>55</ele>
        <time>2014-06-10T11:01:08Z</time>
      </trkpt>
      <trkpt lat="48.6742" lon="-2.31564">
        <ele>56</ele>
        <time>2014-06-10T11:01:10Z</time>
      </trkpt>
      <trkpt lat="48.67418" lon="-2.31563">
        <ele>56</ele>
        <time>2014-06-10T11:01:12Z</time>
      </trkpt>
      <trkpt lat="48.67415" lon="-2.31562">
        <ele>56</ele>
        <time>2014-06-10T11:01:14Z</time>
      </trkpt>
      <trkpt lat="48.67413" lon="-2.31562">
        <ele>56</ele>
        <time>2014-06-10T11:01:16Z</time>
      </trkpt>
      <trkpt lat="48.6741" lon="-2.31561">
        <ele>56</ele>
        <time>2014-06-10T11:01:18Z</time>
      </trkpt>
      <trkpt lat="48.67407" lon="-2.3156">
        <ele>56</ele>
        <time>2014-06-10T11:01:20Z</time>
      </trkpt>
      <trkpt lat="48.67404" lon="-2.3156">
        <ele>57</ele>
        <time>2014-06-10T11:01:22Z</time>
      </trkpt>
      <trkpt lat="48.67401" lon="-2.3156">
        <ele>57</ele>
        <time>2014-06-10T11:01:24Z</time>
      </trkpt>
      <trkpt lat="48.67398" lon="-2.31559">
        <ele>57</ele>
        <time>2014-06-10T11:01:26Z</time>
      </trkpt>
      <trkpt lat="48.67395" lon="-2.31558">
        <ele>57</ele>
        <time>2014-06-10T11:01:28Z</time>
      </trkpt>
      <trkpt lat="48.67392" lon="-2.31557">
        <ele>57</ele>
        <time>2014-06-10T11:01:30Z</time>
      </trkpt>
      <trkpt lat="48.67389" lon="-2.31557">
        <ele>57</ele>
        <time>2014-06-10T11:01:32Z</time>
      </trkpt>
      <trkpt lat="48.67386" lon="-2.31556">
        <ele>57</ele>
        <time>2014-06-10T11:01:34Z</time>
      </trkpt>
      <trkpt lat="48.67384" lon="-2.31555">
        <ele>57</ele>
        <time>2014-06-10T11:01:36Z</time>
      </trkpt>
      <trkpt lat="48.67381" lon="-2.31555">
        <ele>57</ele>
        <time>2014-06-10T11:01:38Z</time>
      </trkpt>
      <trkpt lat="48.67378" lon="-2.31554">
        <ele>57</ele>
        <time>2014-06-10T11:01:40Z</time>
      </trkpt>
      <trkpt lat="48.67375" lon="-2.31554">
        <ele>57</ele>
        <time>2014-06-10T11:01:42Z</time>
      </trkpt>
      <trkpt lat="48.67372" lon="-2.31553">
        <ele>57</ele>
        <time>2014-06-10T11:01:44Z</time>
      </trkpt>
      <trkpt lat="48.67369" lon="-2.31553">
        <ele>57</ele>
        <time>2014-06-10T11:01:46Z</time>
      </trkpt>
      <trkpt lat="48.67367" lon="-2.31552">
        <ele>57</ele>
        <time>2014-06-10T11:01:48Z</time>
      </trkpt>
      <trkpt lat="48.67364" lon="-2.31551">
        <ele>57</ele>
        <time>2014-06-10T11:01:50Z</time>
      </trkpt>
      <trkpt lat="48.67361" lon="-2.31551">
        <ele>57</ele>
        <time>2014-06-10T11:01:52Z</time>
      </trkpt>
      <trkpt lat="48.67358" lon="-2.31551">
        <ele>57</ele>
        <time>2014-06-10T11:01:54Z</time>
      </trkpt>
      <trkpt lat="48.67356" lon="-2.31549">
        <ele>57</ele>
        <time>2014-06-10T11:01:56Z</time>
      </trkpt>
      <trkpt lat="48.67353" lon="-2.31548">
        <ele>57</ele>
        <time>2014-06-10T11:01:58Z</time>
      </trkpt>
      <trkpt lat="48.6735" lon="-2.31547">
        <ele>57</ele>
        <time>2014-06-10T11:02:00Z</time>
      </trkpt>
      <trkpt lat="48.67347" lon="-2.31547">
        <ele>57</ele>
        <time>2014-06-10T11:02:03Z</time>
      </trkpt>
      <trkpt lat="48.67344" lon="-2.31547">
        <ele>57</ele>
        <time>2014-06-10T11:02:05Z</time>
      </trkpt>
      <trkpt lat="48.67342" lon="-2.31546">
        <ele>57</ele>
        <time>2014-06-10T11:02:07Z</time>
      </trkpt>
      <trkpt lat="48.67339" lon="-2.31544">
        <ele>57</ele>
        <time>2014-06-10T11:02:10Z</time>
      </trkpt>
      <trkpt lat="48.67335" lon="-2.31542">
        <ele>57</ele>
        <time>2014-06-10T11:02:12Z</time>
      </trkpt>
      <trkpt lat="48.67333" lon="-2.3154">
        <ele>57</ele>
        <time>2014-06-10T11:02:14Z</time>
      </trkpt>
      <trkpt lat="48.6733" lon="-2.31537">
        <ele>57</ele>
        <time>2014-06-10T11:02:17Z</time>
      </trkpt>
      <trkpt lat="48.67328" lon="-2.31536">
        <ele>57</ele>
        <time>2014-06-10T11:02:19Z</time>
      </trkpt>
      <trkpt lat="48.67325" lon="-2.31535">
        <ele>57</ele>
        <time>2014-06-10T11:02:21Z</time>
      </trkpt>
      <trkpt lat="48.67323" lon="-2.31533">
        <ele>57</ele>
        <time>2014-06-10T11:02:23Z</time>
      </trkpt>
      <trkpt lat="48.67321" lon="-2.3153">
        <ele>57</ele>
        <time>2014-06-10T11:02:25Z</time>
      </trkpt>
      <trkpt lat="48.67318" lon="-2.31528">
        <ele>57</ele>
        <time>2014-06-10T11:02:27Z</time>
      </trkpt>
      <trkpt lat="48.67316" lon="-2.31526">
        <ele>57</ele>
        <time>2014-06-10T11:02:29Z</time>
      </trkpt>
      <trkpt lat="48.67313" lon="-2.31524">
        <ele>57</ele>
        <time>2014-06-10T11:02:31Z</time>
      </trkpt>
      <trkpt lat="48.67311" lon="-2.31522">
        <ele>57</ele>
        <time>2014-06-10T11:02:33Z</time>
      </trkpt>
      <trkpt lat="48.67308" lon="-2.3152">
        <ele>57</ele>
        <time>2014-06-10T11:02:35Z</time>
      </trkpt>
      <trkpt lat="48.67305" lon="-2.31519">
        <ele>57</ele>
        <time>2014-06-10T11:02:37Z</time>
      </trkpt>
      <trkpt lat="48.67303" lon="-2.31517">
        <ele>57</ele>
        <time>2014-06-10T11:02:39Z</time>
      </trkpt>
      <trkpt lat="48.673" lon="-2.31516">
        <ele>57</ele>
        <time>2014-06-10T11:02:41Z</time>
      </trkpt>
      <trkpt lat="48.67297" lon="-2.31515">
        <ele>57</ele>
        <time>2014-06-10T11:02:43Z</time>
      </trkpt>
      <trkpt lat="48.67295" lon="-2.31514">
        <ele>57</ele>
        <time>2014-06-10T11:02:45Z</time>
      </trkpt>
      <trkpt lat="48.67292" lon="-2.31514">
        <ele>57</ele>
        <time>2014-06-10T11:02:47Z</time>
      </trkpt>
      <trkpt lat="48.67289" lon="-2.31513">
        <ele>57</ele>
        <time>2014-06-10T11:02:49Z</time>
      </trkpt>
      <trkpt lat="48.67287" lon="-2.31512">
        <ele>57</ele>
        <time>2014-06-10T11:02:51Z</time>
      </trkpt>
      <trkpt lat="48.67285" lon="-2.31511">
        <ele>57</ele>
        <time>2014-06-10T11:02:53Z</time>
      </trkpt>
      <trkpt lat="48.67282" lon="-2.31509">
        <ele>57</ele>
        <time>2014-06-10T11:02:55Z</time>
      </trkpt>
      <trkpt lat="48.67279" lon="-2.31506">
        <ele>57</ele>
        <time>2014-06-10T11:02:58Z</time>
      </trkpt>
      <trkpt lat="48.67279" lon="-2.31502">
        <ele>57</ele>
        <time>2014-06-10T11:03:00Z</time>
      </trkpt>
      <trkpt lat="48.67278" lon="-2.31498">
        <ele>57</ele>
        <time>2014-06-10T11:03:02Z</time>
      </trkpt>
      <trkpt lat="48.67278" lon="-2.31495">
        <ele>57</ele>
        <time>2014-06-10T11:03:04Z</time>
      </trkpt>
      <trkpt lat="48.67275" lon="-2.3149">
        <ele>57</ele>
        <time>2014-06-10T11:03:07Z</time>
      </trkpt>
      <trkpt lat="48.67274" lon="-2.31487">
        <ele>57</ele>
        <time>2014-06-10T11:03:09Z</time>
      </trkpt>
      <trkpt lat="48.67272" lon="-2.31484">
        <ele>57</ele>
        <time>2014-06-10T11:03:11Z</time>
      </trkpt>
      <trkpt lat="48.6727" lon="-2.31482">
        <ele>57</ele>
        <time>2014-06-10T11:03:13Z</time>
      </trkpt>
      <trkpt lat="48.67267" lon="-2.31481">
        <ele>57</ele>
        <time>2014-06-10T11:03:15Z</time>
      </trkpt>
      <trkpt lat="48.67264" lon="-2.31481">
        <ele>57</ele>
        <time>2014-06-10T11:03:17Z</time>
      </trkpt>
      <trkpt lat="48.67262" lon="-2.31479">
        <ele>57</ele>
        <time>2014-06-10T11:03:19Z</time>
      </trkpt>
      <trkpt lat="48.6726" lon="-2.31476">
        <ele>57</ele>
        <time>2014-06-10T11:03:21Z</time>
      </trkpt>
      <trkpt lat="48.67257" lon="-2.31472">
        <ele>57</ele>
        <time>2014-06-10T11:03:24Z</time>
      </trkpt>
      <trkpt lat="48.67255" lon="-2.31469">
        <ele>57</ele>
        <time>2014-06-10T11:03:26Z</time>
      </trkpt>
      <trkpt lat="48.67254" lon="-2.31465">
        <ele>57</ele>
        <time>2014-06-10T11:03:28Z</time>
      </trkpt>
      <trkpt lat="48.67253" lon="-2.31462">
        <ele>57</ele>
        <time>2014-06-10T11:03:30Z</time>
      </trkpt>
      <trkpt lat="48.67251" lon="-2.3146">
        <ele>57</ele>
        <time>2014-06-10T11:03:32Z</time>
      </trkpt>
      <trkpt lat="48.6725" lon="-2.31457">
        <ele>57</ele>
        <time>2014-06-10T11:03:34Z</time>
      </trkpt>
      <trkpt lat="48.67249" lon="-2.31453">
        <ele>57</ele>
        <time>2014-06-10T11:03:36Z</time>
      </trkpt>
      <trkpt lat="48.67249" lon="-2.31449">
        <ele>57</ele>
        <time>2014-06-10T11:03:38Z</time>
      </trkpt>
      <trkpt lat="48.67249" lon="-2.31445">
        <ele>57</ele>
        <time>2014-06-10T11:03:40Z</time>
      </trkpt>
      <trkpt lat="48.6725" lon="-2.31441">
        <ele>57</ele>
        <time>2014-06-10T11:03:42Z</time>
      </trkpt>
      <trkpt lat="48.67247" lon="-2.31436">
        <ele>57</ele>
        <time>2014-06-10T11:03:45Z</time>
      </trkpt>
      <trkpt lat="48.67246" lon="-2.31433">
        <ele>57</ele>
        <time>2014-06-10T11:03:47Z</time>
      </trkpt>
      <trkpt lat="48.67244" lon="-2.3143">
        <ele>57</ele>
        <time>2014-06-10T11:03:49Z</time>
      </trkpt>
      <trkpt lat="48.67242" lon="-2.31428">
        <ele>57</ele>
        <time>2014-06-10T11:03:51Z</time>
      </trkpt>
      <trkpt lat="48.6724" lon="-2.31424">
        <ele>57</ele>
        <time>2014-06-10T11:03:53Z</time>
      </trkpt>
      <trkpt lat="48.67239" lon="-2.31421">
        <ele>57</ele>
        <time>2014-06-10T11:03:55Z</time>
      </trkpt>
      <trkpt lat="48.67238" lon="-2.31417">
        <ele>57</ele>
        <time>2014-06-10T11:03:57Z</time>
      </trkpt>
      <trkpt lat="48.67237" lon="-2.31413">
        <ele>57</ele>
        <time>2014-06-10T11:03:59Z</time>
      </trkpt>
      <trkpt lat="48.67234" lon="-2.31409">
        <ele>57</ele>
        <time>2014-06-10T11:04:02Z</time>
      </trkpt>
      <trkpt lat="48.67232" lon="-2.31406">
        <ele>57</ele>
        <time>2014-06-10T11:04:04Z</time>
      </trkpt>
      <trkpt lat="48.67229" lon="-2.31402">
        <ele>57</ele>
        <time>2014-06-10T11:04:07Z</time>
      </trkpt>
      <trkpt lat="48.67227" lon="-2.314">
        <ele>57</ele>
        <time>2014-06-10T11:04:09Z</time>
      </trkpt>
      <trkpt lat="48.67225" lon="-2.31398">
        <ele>57</ele>
        <time>2014-06-10T11:04:11Z</time>
      </trkpt>
      <trkpt lat="48.67223" lon="-2.31393">
        <ele>57</ele>
        <time>2014-06-10T11:04:14Z</time>
      </trkpt>
      <trkpt lat="48.67221" lon="-2.3139">
        <ele>57</ele>
        <time>2014-06-10T11:04:16Z</time>
      </trkpt>
      <trkpt lat="48.6722" lon="-2.31388">
        <ele>57</ele>
        <time>2014-06-10T11:04:18Z</time>
      </trkpt>
      <trkpt lat="48.6722" lon="-2.31385">
        <ele>57</ele>
        <time>2014-06-10T11:04:20Z</time>
      </trkpt>
      <trkpt lat="48.67218" lon="-2.31384">
        <ele>57</ele>
        <time>2014-06-10T11:04:22Z</time>
      </trkpt>
      <trkpt lat="48.67217" lon="-2.31382">
        <ele>57</ele>
        <time>2014-06-10T11:04:24Z</time>
      </trkpt>
      <trkpt lat="48.67215" lon="-2.31381">
        <ele>57</ele>
        <time>2014-06-10T11:04:26Z</time>
      </trkpt>
      <trkpt lat="48.67212" lon="-2.31377">
        <ele>57</ele>
        <time>2014-06-10T11:04:29Z</time>
      </trkpt>
      <trkpt lat="48.6721" lon="-2.31374">
        <ele>57</ele>
        <time>2014-06-10T11:04:31Z</time>
      </trkpt>
      <trkpt lat="48.67208" lon="-2.31372">
        <ele>57</ele>
        <time>2014-06-10T11:04:33Z</time>
      </trkpt>
      <trkpt lat="48.67205" lon="-2.31371">
        <ele>57</ele>
        <time>2014-06-10T11:04:35Z</time>
      </trkpt>
      <trkpt lat="48.67202" lon="-2.31369">
        <ele>57</ele>
        <time>2014-06-10T11:04:37Z</time>
      </trkpt>
      <trkpt lat="48.672" lon="-2.31367">
        <ele>57</ele>
        <time>2014-06-10T11:04:39Z</time>
      </trkpt>
      <trkpt lat="48.67198" lon="-2.31365">
        <ele>57</ele>
        <time>2014-06-10T11:04:41Z</time>
      </trkpt>
      <trkpt lat="48.67196" lon="-2.31362">
        <ele>57</ele>
        <time>2014-06-10T11:04:43Z</time>
      </trkpt>
      <trkpt lat="48.67193" lon="-2.3136">
        <ele>57</ele>
        <time>2014-06-10T11:04:45Z</time>
      </trkpt>
      <trkpt lat="48.67191" lon="-2.31357">
        <ele>57</ele>
        <time>2014-06-10T11:04:47Z</time>
      </trkpt>
      <trkpt lat="48.67187" lon="-2.31352">
        <ele>57</ele>
        <time>2014-06-10T11:04:50Z</time>
      </trkpt>
      <trkpt lat="48.67185" lon="-2.31349">
        <ele>57</ele>
        <time>2014-06-10T11:04:52Z</time>
      </trkpt>
      <trkpt lat="48.67182" lon="-2.31345">
        <ele>57</ele>
        <time>2014-06-10T11:04:55Z</time>
      </trkpt>
      <trkpt lat="48.6718" lon="-2.31342">
        <ele>57</ele>
        <time>2014-06-10T11:04:57Z</time>
      </trkpt>
      <trkpt lat="48.67178" lon="-2.31339">
        <ele>57</ele>
        <time>2014-06-10T11:04:59Z</time>
      </trkpt>
      <trkpt lat="48.67176" lon="-2.31336">
        <ele>57</ele>
        <time>2014-06-10T11:05:01Z</time>
      </trkpt>
      <trkpt lat="48.67174" lon="-2.31333">
        <ele>57</ele>
        <time>2014-06-10T11:05:03Z</time>
      </trkpt>
      <trkpt lat="48.67171" lon="-2.31331">
        <ele>57</ele>
        <time>2014-06-10T11:05:06Z</time>
      </trkpt>
      <trkpt lat="48.67168" lon="-2.31328">
        <ele>57</ele>
        <time>2014-06-10T11:05:09Z</time>
      </trkpt>
      <trkpt lat="48.67164" lon="-2.31323">
        <ele>57</ele>
        <time>2014-06-10T11:05:12Z</time>
      </trkpt>
      <trkpt lat="48.67161" lon="-2.31319">
        <ele>57</ele>
        <time>2014-06-10T11:05:15Z</time>
      </trkpt>
      <trkpt lat="48.67158" lon="-2.31315">
        <ele>56</ele>
        <time>2014-06-10T11:05:18Z</time>
      </trkpt>
      <trkpt lat="48.67156" lon="-2.31311">
        <ele>56</ele>
        <time>2014-06-10T11:05:20Z</time>
      </trkpt>
      <trkpt lat="48.67155" lon="-2.31308">
        <ele>56</ele>
        <time>2014-06-10T11:05:22Z</time>
      </trkpt>
      <trkpt lat="48.67154" lon="-2.31304">
        <ele>56</ele>
        <time>2014-06-10T11:05:24Z</time>
      </trkpt>
      <trkpt lat="48.67151" lon="-2.313">
        <ele>56</ele>
        <time>2014-06-10T11:05:27Z</time>
      </trkpt>
      <trkpt lat="48.67149" lon="-2.31298">
        <ele>56</ele>
        <time>2014-06-10T11:05:29Z</time>
      </trkpt>
      <trkpt lat="48.67146" lon="-2.31296">
        <ele>56</ele>
        <time>2014-06-10T11:05:31Z</time>
      </trkpt>
      <trkpt lat="48.67142" lon="-2.31294">
        <ele>56</ele>
        <time>2014-06-10T11:05:35Z</time>
      </trkpt>
      <trkpt lat="48.6714" lon="-2.31292">
        <ele>56</ele>
        <time>2014-06-10T11:05:37Z</time>
      </trkpt>
      <trkpt lat="48.67136" lon="-2.31292">
        <ele>56</ele>
        <time>2014-06-10T11:05:40Z</time>
      </trkpt>
      <trkpt lat="48.67133" lon="-2.31293">
        <ele>56</ele>
        <time>2014-06-10T11:05:42Z</time>
      </trkpt>
      <trkpt lat="48.67131" lon="-2.31293">
        <ele>56</ele>
        <time>2014-06-10T11:05:44Z</time>
      </trkpt>
      <trkpt lat="48.67126" lon="-2.31293">
        <ele>56</ele>
        <time>2014-06-10T11:05:47Z</time>
      </trkpt>
      <trkpt lat="48.67123" lon="-2.31293">
        <ele>56</ele>
        <time>2014-06-10T11:05:49Z</time>
      </trkpt>
      <trkpt lat="48.67119" lon="-2.31292">
        <ele>55</ele>
        <time>2014-06-10T11:05:52Z</time>
      </trkpt>
      <trkpt lat="48.67117" lon="-2.3129">
        <ele>55</ele>
        <time>2014-06-10T11:05:54Z</time>
      </trkpt>
      <trkpt lat="48.67114" lon="-2.31289">
        <ele>55</ele>
        <time>2014-06-10T11:05:56Z</time>
      </trkpt>
      <trkpt lat="48.6711" lon="-2.31287">
        <ele>55</ele>
        <time>2014-06-10T11:05:59Z</time>
      </trkpt>
      <trkpt lat="48.67106" lon="-2.31283">
        <ele>55</ele>
        <time>2014-06-10T11:06:02Z</time>
      </trkpt>
      <trkpt lat="48.67103" lon="-2.31282">
        <ele>55</ele>
        <time>2014-06-10T11:06:04Z</time>
      </trkpt>
      <trkpt lat="48.67099" lon="-2.31279">
        <ele>55</ele>
        <time>2014-06-10T11:06:07Z</time>
      </trkpt>
      <trkpt lat="48.67096" lon="-2.31276">
        <ele>55</ele>
        <time>2014-06-10T11:06:10Z</time>
      </trkpt>
      <trkpt lat="48.67092" lon="-2.31272">
        <ele>55</ele>
        <time>2014-06-10T11:06:13Z</time>
      </trkpt>
      <trkpt lat="48.6709" lon="-2.3127">
        <ele>55</ele>
        <time>2014-06-10T11:06:15Z</time>
      </trkpt>
      <trkpt lat="48.67086" lon="-2.31264">
        <ele>55</ele>
        <time>2014-06-10T11:06:19Z</time>
      </trkpt>
      <trkpt lat="48.67084" lon="-2.31261">
        <ele>55</ele>
        <time>2014-06-10T11:06:21Z</time>
      </trkpt>
      <trkpt lat="48.6708" lon="-2.31257">
        <ele>55</ele>
        <time>2014-06-10T11:06:25Z</time>
      </trkpt>
      <trkpt lat="48.67077" lon="-2.31252">
        <ele>55</ele>
        <time>2014-06-10T11:06:28Z</time>
      </trkpt>
      <trkpt lat="48.67075" lon="-2.31249">
        <ele>55</ele>
        <time>2014-06-10T11:06:30Z</time>
      </trkpt>
      <trkpt lat="48.67073" lon="-2.31247">
        <ele>55</ele>
        <time>2014-06-10T11:06:32Z</time>
      </trkpt>
      <trkpt lat="48.67071" lon="-2.31241">
        <ele>55</ele>
        <time>2014-06-10T11:06:35Z</time>
      </trkpt>
      <trkpt lat="48.6707" lon="-2.31238">
        <ele>55</ele>
        <time>2014-06-10T11:06:37Z</time>
      </trkpt>
      <trkpt lat="48.67066" lon="-2.31233">
        <ele>55</ele>
        <time>2014-06-10T11:06:41Z</time>
      </trkpt>
      <trkpt lat="48.67064" lon="-2.31231">
        <ele>55</ele>
        <time>2014-06-10T11:06:43Z</time>
      </trkpt>
      <trkpt lat="48.67061" lon="-2.31225">
        <ele>55</ele>
        <time>2014-06-10T11:06:47Z</time>
      </trkpt>
      <trkpt lat="48.67059" lon="-2.31222">
        <ele>55</ele>
        <time>2014-06-10T11:06:49Z</time>
      </trkpt>
      <trkpt lat="48.67057" lon="-2.31217">
        <ele>56</ele>
        <time>2014-06-10T11:06:52Z</time>
      </trkpt>
      <trkpt lat="48.67056" lon="-2.31213">
        <ele>56</ele>
        <time>2014-06-10T11:06:54Z</time>
      </trkpt>
      <trkpt lat="48.67054" lon="-2.31208">
        <ele>56</ele>
        <time>2014-06-10T11:06:57Z</time>
      </trkpt>
      <trkpt lat="48.67054" lon="-2.31205">
        <ele>57</ele>
        <time>2014-06-10T11:06:59Z</time>
      </trkpt>
      <trkpt lat="48.67051" lon="-2.31201">
        <ele>57</ele>
        <time>2014-06-10T11:07:02Z</time>
      </trkpt>
      <trkpt lat="48.6705" lon="-2.31198">
        <ele>58</ele>
        <time>2014-06-10T11:07:04Z</time>
      </trkpt>
      <trkpt lat="48.67048" lon="-2.31192">
        <ele>58</ele>
        <time>2014-06-10T11:07:07Z</time>
      </trkpt>
      <trkpt lat="48.67045" lon="-2.31188">
        <ele>58</ele>
        <time>2014-06-10T11:07:10Z</time>
      </trkpt>
      <trkpt lat="48.67042" lon="-2.31184">
        <ele>58</ele>
        <time>2014-06-10T11:07:15Z</time>
      </trkpt>
      <trkpt lat="48.67038" lon="-2.31179">
        <ele>59</ele>
        <time>2014-06-10T11:07:19Z</time>
      </trkpt>
      <trkpt lat="48.67038" lon="-2.31177">
        <ele>59</ele>
        <time>2014-06-10T11:07:21Z</time>
      </trkpt>
      <trkpt lat="48.67036" lon="-2.31175">
        <ele>59</ele>
        <time>2014-06-10T11:07:37Z</time>
      </trkpt>
      <trkpt lat="48.67034" lon="-2.31169">
        <ele>59</ele>
        <time>2014-06-10T11:07:41Z</time>
      </trkpt>
      <trkpt lat="48.67032" lon="-2.31166">
        <ele>59</ele>
        <time>2014-06-10T11:07:43Z</time>
      </trkpt>
      <trkpt lat="48.6703" lon="-2.3116">
        <ele>59</ele>
        <time>2014-06-10T11:07:47Z</time>
      </trkpt>
      <trkpt lat="48.67028" lon="-2.31157">
        <ele>59</ele>
        <time>2014-06-10T11:07:49Z</time>
      </trkpt>
      <trkpt lat="48.67026" lon="-2.31156">
        <ele>59</ele>
        <time>2014-06-10T11:07:51Z</time>
      </trkpt>
      <trkpt lat="48.67023" lon="-2.31156">
        <ele>59</ele>
        <time>2014-06-10T11:07:53Z</time>
      </trkpt>
      <trkpt lat="48.67019" lon="-2.31158">
        <ele>59</ele>
        <time>2014-06-10T11:07:56Z</time>
      </trkpt>
      <trkpt lat="48.67016" lon="-2.31159">
        <ele>59</ele>
        <time>2014-06-10T11:07:58Z</time>
      </trkpt>
      <trkpt lat="48.67012" lon="-2.31161">
        <ele>59</ele>
        <time>2014-06-10T11:08:01Z</time>
      </trkpt>
      <trkpt lat="48.67009" lon="-2.31163">
        <ele>59</ele>
        <time>2014-06-10T11:08:03Z</time>
      </trkpt>
      <trkpt lat="48.67005" lon="-2.31164">
        <ele>59</ele>
        <time>2014-06-10T11:08:06Z</time>
      </trkpt>
      <trkpt lat="48.67002" lon="-2.31165">
        <ele>59</ele>
        <time>2014-06-10T11:08:08Z</time>
      </trkpt>
      <trkpt lat="48.66998" lon="-2.31165">
        <ele>59</ele>
        <time>2014-06-10T11:08:11Z</time>
      </trkpt>
      <trkpt lat="48.66994" lon="-2.31164">
        <ele>59</ele>
        <time>2014-06-10T11:08:13Z</time>
      </trkpt>
      <trkpt lat="48.6699" lon="-2.31164">
        <ele>59</ele>
        <time>2014-06-10T11:08:16Z</time>
      </trkpt>
      <trkpt lat="48.66987" lon="-2.31165">
        <ele>59</ele>
        <time>2014-06-10T11:08:18Z</time>
      </trkpt>
      <trkpt lat="48.66983" lon="-2.31166">
        <ele>59</ele>
        <time>2014-06-10T11:08:21Z</time>
      </trkpt>
      <trkpt lat="48.6698" lon="-2.31166">
        <ele>59</ele>
        <time>2014-06-10T11:08:23Z</time>
      </trkpt>
      <trkpt lat="48.66977" lon="-2.31166">
        <ele>59</ele>
        <time>2014-06-10T11:08:26Z</time>
      </trkpt>
      <trkpt lat="48.66974" lon="-2.31165">
        <ele>59</ele>
        <time>2014-06-10T11:08:28Z</time>
      </trkpt>
      <trkpt lat="48.6697" lon="-2.31164">
        <ele>59</ele>
        <time>2014-06-10T11:08:31Z</time>
      </trkpt>
      <trkpt lat="48.66968" lon="-2.31165">
        <ele>59</ele>
        <time>2014-06-10T11:08:33Z</time>
      </trkpt>
      <trkpt lat="48.66963" lon="-2.31165">
        <ele>59</ele>
        <time>2014-06-10T11:08:36Z</time>
      </trkpt>
      <trkpt lat="48.6696" lon="-2.31165">
        <ele>59</ele>
        <time>2014-06-10T11:08:38Z</time>
      </trkpt>
      <trkpt lat="48.66956" lon="-2.31164">
        <ele>58</ele>
        <time>2014-06-10T11:08:41Z</time>
      </trkpt>
      <trkpt lat="48.66953" lon="-2.31163">
        <ele>58</ele>
        <time>2014-06-10T11:08:43Z</time>
      </trkpt>
      <trkpt lat="48.66949" lon="-2.3116">
        <ele>58</ele>
        <time>2014-06-10T11:08:46Z</time>
      </trkpt>
      <trkpt lat="48.66946" lon="-2.31158">
        <ele>58</ele>
        <time>2014-06-10T11:08:48Z</time>
      </trkpt>
      <trkpt lat="48.66943" lon="-2.31155">
        <ele>58</ele>
        <time>2014-06-10T11:08:51Z</time>
      </trkpt>
      <trkpt lat="48.66943" lon="-2.31152">
        <ele>58</ele>
        <time>2014-06-10T11:08:53Z</time>
      </trkpt>
      <trkpt lat="48.66942" lon="-2.31146">
        <ele>58</ele>
        <time>2014-06-10T11:08:56Z</time>
      </trkpt>
      <trkpt lat="48.66943" lon="-2.31142">
        <ele>58</ele>
        <time>2014-06-10T11:08:58Z</time>
      </trkpt>
      <trkpt lat="48.66946" lon="-2.31137">
        <ele>58</ele>
        <time>2014-06-10T11:09:01Z</time>
      </trkpt>
      <trkpt lat="48.66948" lon="-2.31135">
        <ele>58</ele>
        <time>2014-06-10T11:09:03Z</time>
      </trkpt>
      <trkpt lat="48.6695" lon="-2.31131">
        <ele>58</ele>
        <time>2014-06-10T11:09:06Z</time>
      </trkpt>
      <trkpt lat="48.66951" lon="-2.31127">
        <ele>58</ele>
        <time>2014-06-10T11:09:08Z</time>
      </trkpt>
      <trkpt lat="48.66954" lon="-2.31122">
        <ele>58</ele>
        <time>2014-06-10T11:09:11Z</time>
      </trkpt>
      <trkpt lat="48.66956" lon="-2.31119">
        <ele>58</ele>
        <time>2014-06-10T11:09:13Z</time>
      </trkpt>
      <trkpt lat="48.66957" lon="-2.31112">
        <ele>58</ele>
        <time>2014-06-10T11:09:17Z</time>
      </trkpt>
      <trkpt lat="48.66956" lon="-2.31109">
        <ele>58</ele>
        <time>2014-06-10T11:09:19Z</time>
      </trkpt>
      <trkpt lat="48.66958" lon="-2.31103">
        <ele>58</ele>
        <time>2014-06-10T11:09:22Z</time>
      </trkpt>
      <trkpt lat="48.66959" lon="-2.311">
        <ele>58</ele>
        <time>2014-06-10T11:09:24Z</time>
      </trkpt>
      <trkpt lat="48.66962" lon="-2.31095">
        <ele>58</ele>
        <time>2014-06-10T11:09:27Z</time>
      </trkpt>
      <trkpt lat="48.66964" lon="-2.31089">
        <ele>58</ele>
        <time>2014-06-10T11:09:30Z</time>
      </trkpt>
      <trkpt lat="48.66965" lon="-2.31083">
        <ele>58</ele>
        <time>2014-06-10T11:09:33Z</time>
      </trkpt>
      <trkpt lat="48.66965" lon="-2.31079">
        <ele>58</ele>
        <time>2014-06-10T11:09:35Z</time>
      </trkpt>
      <trkpt lat="48.66967" lon="-2.31073">
        <ele>58</ele>
        <time>2014-06-10T11:09:38Z</time>
      </trkpt>
      <trkpt lat="48.66968" lon="-2.31069">
        <ele>58</ele>
        <time>2014-06-10T11:09:40Z</time>
      </trkpt>
      <trkpt lat="48.66968" lon="-2.31063">
        <ele>58</ele>
        <time>2014-06-10T11:09:43Z</time>
      </trkpt>
      <trkpt lat="48.6697" lon="-2.31059">
        <ele>58</ele>
        <time>2014-06-10T11:09:46Z</time>
      </trkpt>
      <trkpt lat="48.66971" lon="-2.31054">
        <ele>58</ele>
        <time>2014-06-10T11:09:49Z</time>
      </trkpt>
      <trkpt lat="48.66971" lon="-2.3105">
        <ele>58</ele>
        <time>2014-06-10T11:09:51Z</time>
      </trkpt>
      <trkpt lat="48.66969" lon="-2.31045">
        <ele>58</ele>
        <time>2014-06-10T11:09:54Z</time>
      </trkpt>
      <trkpt lat="48.66967" lon="-2.31041">
        <ele>58</ele>
        <time>2014-06-10T11:09:56Z</time>
      </trkpt>
      <trkpt lat="48.66965" lon="-2.31036">
        <ele>58</ele>
        <time>2014-06-10T11:09:59Z</time>
      </trkpt>
      <trkpt lat="48.66963" lon="-2.31033">
        <ele>58</ele>
        <time>2014-06-10T11:10:01Z</time>
      </trkpt>
      <trkpt lat="48.6696" lon="-2.31028">
        <ele>58</ele>
        <time>2014-06-10T11:10:04Z</time>
      </trkpt>
      <trkpt lat="48.66958" lon="-2.31024">
        <ele>58</ele>
        <time>2014-06-10T11:10:06Z</time>
      </trkpt>
      <trkpt lat="48.66954" lon="-2.31019">
        <ele>58</ele>
        <time>2014-06-10T11:10:09Z</time>
      </trkpt>
      <trkpt lat="48.66952" lon="-2.31016">
        <ele>58</ele>
        <time>2014-06-10T11:10:11Z</time>
      </trkpt>
      <trkpt lat="48.66949" lon="-2.31012">
        <ele>58</ele>
        <time>2014-06-10T11:10:14Z</time>
      </trkpt>
      <trkpt lat="48.66946" lon="-2.31008">
        <ele>58</ele>
        <time>2014-06-10T11:10:16Z</time>
      </trkpt>
      <trkpt lat="48.66943" lon="-2.31003">
        <ele>58</ele>
        <time>2014-06-10T11:10:19Z</time>
      </trkpt>
      <trkpt lat="48.66941" lon="-2.30999">
        <ele>58</ele>
        <time>2014-06-10T11:10:21Z</time>
      </trkpt>
      <trkpt lat="48.66938" lon="-2.30994">
        <ele>58</ele>
        <time>2014-06-10T11:10:24Z</time>
      </trkpt>
      <trkpt lat="48.66935" lon="-2.30989">
        <ele>58</ele>
        <time>2014-06-10T11:10:27Z</time>
      </trkpt>
      <trkpt lat="48.66933" lon="-2.30983">
        <ele>58</ele>
        <time>2014-06-10T11:10:30Z</time>
      </trkpt>
      <trkpt lat="48.66932" lon="-2.30979">
        <ele>58</ele>
        <time>2014-06-10T11:10:32Z</time>
      </trkpt>
      <trkpt lat="48.6693" lon="-2.30973">
        <ele>58</ele>
        <time>2014-06-10T11:10:35Z</time>
      </trkpt>
      <trkpt lat="48.6693" lon="-2.30968">
        <ele>58</ele>
        <time>2014-06-10T11:10:37Z</time>
      </trkpt>
      <trkpt lat="48.66929" lon="-2.30962">
        <ele>58</ele>
        <time>2014-06-10T11:10:40Z</time>
      </trkpt>
      <trkpt lat="48.66927" lon="-2.30957">
        <ele>58</ele>
        <time>2014-06-10T11:10:42Z</time>
      </trkpt>
      <trkpt lat="48.66925" lon="-2.30951">
        <ele>58</ele>
        <time>2014-06-10T11:10:45Z</time>
      </trkpt>
      <trkpt lat="48.66924" lon="-2.30947">
        <ele>58</ele>
        <time>2014-06-10T11:10:47Z</time>
      </trkpt>
      <trkpt lat="48.66921" lon="-2.30942">
        <ele>58</ele>
        <time>2014-06-10T11:10:50Z</time>
      </trkpt>
      <trkpt lat="48.66919" lon="-2.30938">
        <ele>58</ele>
        <time>2014-06-10T11:10:52Z</time>
      </trkpt>
      <trkpt lat="48.66917" lon="-2.30933">
        <ele>58</ele>
        <time>2014-06-10T11:10:55Z</time>
      </trkpt>
      <trkpt lat="48.66915" lon="-2.30929">
        <ele>58</ele>
        <time>2014-06-10T11:10:57Z</time>
      </trkpt>
      <trkpt lat="48.66912" lon="-2.30925">
        <ele>58</ele>
        <time>2014-06-10T11:11:00Z</time>
      </trkpt>
      <trkpt lat="48.66911" lon="-2.30922">
        <ele>58</ele>
        <time>2014-06-10T11:11:02Z</time>
      </trkpt>
      <trkpt lat="48.66908" lon="-2.3092">
        <ele>58</ele>
        <time>2014-06-10T11:11:04Z</time>
      </trkpt>
      <trkpt lat="48.66907" lon="-2.30916">
        <ele>58</ele>
        <time>2014-06-10T11:11:06Z</time>
      </trkpt>
      <trkpt lat="48.66905" lon="-2.30913">
        <ele>58</ele>
        <time>2014-06-10T11:11:08Z</time>
      </trkpt>
      <trkpt lat="48.66902" lon="-2.30908">
        <ele>58</ele>
        <time>2014-06-10T11:11:11Z</time>
      </trkpt>
      <trkpt lat="48.669" lon="-2.30905">
        <ele>58</ele>
        <time>2014-06-10T11:11:13Z</time>
      </trkpt>
      <trkpt lat="48.66898" lon="-2.309">
        <ele>58</ele>
        <time>2014-06-10T11:11:16Z</time>
      </trkpt>
      <trkpt lat="48.66897" lon="-2.30897">
        <ele>58</ele>
        <time>2014-06-10T11:11:18Z</time>
      </trkpt>
      <trkpt lat="48.66896" lon="-2.30891">
        <ele>58</ele>
        <time>2014-06-10T11:11:21Z</time>
      </trkpt>
      <trkpt lat="48.66895" lon="-2.30887">
        <ele>58</ele>
        <time>2014-06-10T11:11:23Z</time>
      </trkpt>
      <trkpt lat="48.66895" lon="-2.30883">
        <ele>58</ele>
        <time>2014-06-10T11:11:25Z</time>
      </trkpt>
      <trkpt lat="48.66894" lon="-2.30879">
        <ele>58</ele>
        <time>2014-06-10T11:11:27Z</time>
      </trkpt>
      <trkpt lat="48.66893" lon="-2.30875">
        <ele>58</ele>
        <time>2014-06-10T11:11:29Z</time>
      </trkpt>
      <trkpt lat="48.66893" lon="-2.30871">
        <ele>58</ele>
        <time>2014-06-10T11:11:31Z</time>
      </trkpt>
      <trkpt lat="48.66893" lon="-2.30867">
        <ele>59</ele>
        <time>2014-06-10T11:11:33Z</time>
      </trkpt>
      <trkpt lat="48.66892" lon="-2.30861">
        <ele>59</ele>
        <time>2014-06-10T11:11:36Z</time>
      </trkpt>
      <trkpt lat="48.66891" lon="-2.30857">
        <ele>59</ele>
        <time>2014-06-10T11:11:38Z</time>
      </trkpt>
      <trkpt lat="48.6689" lon="-2.30851">
        <ele>59</ele>
        <time>2014-06-10T11:11:41Z</time>
      </trkpt>
      <trkpt lat="48.66889" lon="-2.30847">
        <ele>59</ele>
        <time>2014-06-10T11:11:43Z</time>
      </trkpt>
      <trkpt lat="48.66886" lon="-2.30842">
        <ele>59</ele>
        <time>2014-06-10T11:11:46Z</time>
      </trkpt>
      <trkpt lat="48.66885" lon="-2.30838">
        <ele>59</ele>
        <time>2014-06-10T11:11:48Z</time>
      </trkpt>
      <trkpt lat="48.66884" lon="-2.30832">
        <ele>59</ele>
        <time>2014-06-10T11:11:51Z</time>
      </trkpt>
      <trkpt lat="48.66883" lon="-2.30828">
        <ele>59</ele>
        <time>2014-06-10T11:11:53Z</time>
      </trkpt>
      <trkpt lat="48.66882" lon="-2.30822">
        <ele>59</ele>
        <time>2014-06-10T11:11:56Z</time>
      </trkpt>
      <trkpt lat="48.6688" lon="-2.30819">
        <ele>60</ele>
        <time>2014-06-10T11:11:58Z</time>
      </trkpt>
      <trkpt lat="48.66879" lon="-2.30815">
        <ele>60</ele>
        <time>2014-06-10T11:12:00Z</time>
      </trkpt>
      <trkpt lat="48.66877" lon="-2.3081">
        <ele>60</ele>
        <time>2014-06-10T11:12:03Z</time>
      </trkpt>
      <trkpt lat="48.66875" lon="-2.30806">
        <ele>60</ele>
        <time>2014-06-10T11:12:05Z</time>
      </trkpt>
      <trkpt lat="48.66874" lon="-2.30803">
        <ele>61</ele>
        <time>2014-06-10T11:12:07Z</time>
      </trkpt>
      <trkpt lat="48.66872" lon="-2.30799">
        <ele>61</ele>
        <time>2014-06-10T11:12:09Z</time>
      </trkpt>
      <trkpt lat="48.66872" lon="-2.30796">
        <ele>61</ele>
        <time>2014-06-10T11:12:11Z</time>
      </trkpt>
      <trkpt lat="48.6687" lon="-2.30791">
        <ele>62</ele>
        <time>2014-06-10T11:12:14Z</time>
      </trkpt>
      <trkpt lat="48.66869" lon="-2.30787">
        <ele>62</ele>
        <time>2014-06-10T11:12:16Z</time>
      </trkpt>
      <trkpt lat="48.66867" lon="-2.30784">
        <ele>62</ele>
        <time>2014-06-10T11:12:18Z</time>
      </trkpt>
      <trkpt lat="48.66866" lon="-2.30781">
        <ele>63</ele>
        <time>2014-06-10T11:12:20Z</time>
      </trkpt>
      <trkpt lat="48.66864" lon="-2.30778">
        <ele>63</ele>
        <time>2014-06-10T11:12:22Z</time>
      </trkpt>
      <trkpt lat="48.66863" lon="-2.30774">
        <ele>63</ele>
        <time>2014-06-10T11:12:24Z</time>
      </trkpt>
      <trkpt lat="48.66862" lon="-2.30771">
        <ele>63</ele>
        <time>2014-06-10T11:12:26Z</time>
      </trkpt>
      <trkpt lat="48.66861" lon="-2.30767">
        <ele>64</ele>
        <time>2014-06-10T11:12:28Z</time>
      </trkpt>
      <trkpt lat="48.6686" lon="-2.30763">
        <ele>64</ele>
        <time>2014-06-10T11:12:30Z</time>
      </trkpt>
      <trkpt lat="48.66859" lon="-2.30757">
        <ele>64</ele>
        <time>2014-06-10T11:12:33Z</time>
      </trkpt>
      <trkpt lat="48.66856" lon="-2.30752">
        <ele>64</ele>
        <time>2014-06-10T11:12:36Z</time>
      </trkpt>
      <trkpt lat="48.66854" lon="-2.30749">
        <ele>64</ele>
        <time>2014-06-10T11:12:38Z</time>
      </trkpt>
      <trkpt lat="48.66853" lon="-2.30746">
        <ele>64</ele>
        <time>2014-06-10T11:12:40Z</time>
      </trkpt>
      <trkpt lat="48.66851" lon="-2.30742">
        <ele>64</ele>
        <time>2014-06-10T11:12:42Z</time>
      </trkpt>
      <trkpt lat="48.6685" lon="-2.30738">
        <ele>64</ele>
        <time>2014-06-10T11:12:44Z</time>
      </trkpt>
      <trkpt lat="48.66848" lon="-2.30735">
        <ele>64</ele>
        <time>2014-06-10T11:12:46Z</time>
      </trkpt>
      <trkpt lat="48.66847" lon="-2.30731">
        <ele>64</ele>
        <time>2014-06-10T11:12:48Z</time>
      </trkpt>
      <trkpt lat="48.66846" lon="-2.30727">
        <ele>64</ele>
        <time>2014-06-10T11:12:50Z</time>
      </trkpt>
      <trkpt lat="48.66845" lon="-2.30722">
        <ele>64</ele>
        <time>2014-06-10T11:12:52Z</time>
      </trkpt>
      <trkpt lat="48.66845" lon="-2.30719">
        <ele>64</ele>
        <time>2014-06-10T11:12:54Z</time>
      </trkpt>
      <trkpt lat="48.66844" lon="-2.30715">
        <ele>64</ele>
        <time>2014-06-10T11:12:56Z</time>
      </trkpt>
      <trkpt lat="48.66844" lon="-2.30711">
        <ele>64</ele>
        <time>2014-06-10T11:12:58Z</time>
      </trkpt>
      <trkpt lat="48.66844" lon="-2.30707">
        <ele>64</ele>
        <time>2014-06-10T11:13:00Z</time>
      </trkpt>
      <trkpt lat="48.66845" lon="-2.30702">
        <ele>64</ele>
        <time>2014-06-10T11:13:02Z</time>
      </trkpt>
      <trkpt lat="48.66845" lon="-2.30698">
        <ele>64</ele>
        <time>2014-06-10T11:13:04Z</time>
      </trkpt>
      <trkpt lat="48.66845" lon="-2.30695">
        <ele>64</ele>
        <time>2014-06-10T11:13:06Z</time>
      </trkpt>
      <trkpt lat="48.66846" lon="-2.3069">
        <ele>64</ele>
        <time>2014-06-10T11:13:08Z</time>
      </trkpt>
      <trkpt lat="48.66846" lon="-2.30686">
        <ele>64</ele>
        <time>2014-06-10T11:13:10Z</time>
      </trkpt>
      <trkpt lat="48.66845" lon="-2.30682">
        <ele>64</ele>
        <time>2014-06-10T11:13:12Z</time>
      </trkpt>
      <trkpt lat="48.66845" lon="-2.30679">
        <ele>64</ele>
        <time>2014-06-10T11:13:14Z</time>
      </trkpt>
      <trkpt lat="48.66845" lon="-2.30675">
        <ele>64</ele>
        <time>2014-06-10T11:13:16Z</time>
      </trkpt>
      <trkpt lat="48.66845" lon="-2.3067">
        <ele>64</ele>
        <time>2014-06-10T11:13:18Z</time>
      </trkpt>
      <trkpt lat="48.66844" lon="-2.30665">
        <ele>64</ele>
        <time>2014-06-10T11:13:20Z</time>
      </trkpt>
      <trkpt lat="48.66844" lon="-2.30661">
        <ele>64</ele>
        <time>2014-06-10T11:13:22Z</time>
      </trkpt>
      <trkpt lat="48.66844" lon="-2.30657">
        <ele>64</ele>
        <time>2014-06-10T11:13:24Z</time>
      </trkpt>
      <trkpt lat="48.66843" lon="-2.30653">
        <ele>64</ele>
        <time>2014-06-10T11:13:26Z</time>
      </trkpt>
      <trkpt lat="48.66842" lon="-2.30649">
        <ele>64</ele>
        <time>2014-06-10T11:13:28Z</time>
      </trkpt>
      <trkpt lat="48.6684" lon="-2.30646">
        <ele>64</ele>
        <time>2014-06-10T11:13:30Z</time>
      </trkpt>
      <trkpt lat="48.66839" lon="-2.30642">
        <ele>64</ele>
        <time>2014-06-10T11:13:32Z</time>
      </trkpt>
      <trkpt lat="48.66836" lon="-2.30638">
        <ele>64</ele>
        <time>2014-06-10T11:13:35Z</time>
      </trkpt>
      <trkpt lat="48.66834" lon="-2.30635">
        <ele>64</ele>
        <time>2014-06-10T11:13:37Z</time>
      </trkpt>
      <trkpt lat="48.66831" lon="-2.30632">
        <ele>64</ele>
        <time>2014-06-10T11:13:40Z</time>
      </trkpt>
      <trkpt lat="48.6683" lon="-2.30629">
        <ele>64</ele>
        <time>2014-06-10T11:13:42Z</time>
      </trkpt>
      <trkpt lat="48.6683" lon="-2.30626">
        <ele>64</ele>
        <time>2014-06-10T11:13:44Z</time>
      </trkpt>
      <trkpt lat="48.66828" lon="-2.30625">
        <ele>64</ele>
        <time>2014-06-10T11:13:46Z</time>
      </trkpt>
      <trkpt lat="48.66828" lon="-2.30622">
        <ele>64</ele>
        <time>2014-06-10T11:13:48Z</time>
      </trkpt>
      <trkpt lat="48.66828" lon="-2.30619">
        <ele>64</ele>
        <time>2014-06-10T11:13:50Z</time>
      </trkpt>
      <trkpt lat="48.66828" lon="-2.30616">
        <ele>64</ele>
        <time>2014-06-10T11:13:52Z</time>
      </trkpt>
      <trkpt lat="48.66827" lon="-2.30613">
        <ele>64</ele>
        <time>2014-06-10T11:13:54Z</time>
      </trkpt>
      <trkpt lat="48.66827" lon="-2.30609">
        <ele>64</ele>
        <time>2014-06-10T11:13:56Z</time>
      </trkpt>
      <trkpt lat="48.66826" lon="-2.30605">
        <ele>64</ele>
        <time>2014-06-10T11:13:58Z</time>
      </trkpt>
      <trkpt lat="48.66824" lon="-2.30601">
        <ele>64</ele>
        <time>2014-06-10T11:14:00Z</time>
      </trkpt>
      <trkpt lat="48.66823" lon="-2.30597">
        <ele>64</ele>
        <time>2014-06-10T11:14:02Z</time>
      </trkpt>
      <trkpt lat="48.66822" lon="-2.30593">
        <ele>64</ele>
        <time>2014-06-10T11:14:04Z</time>
      </trkpt>
      <trkpt lat="48.66822" lon="-2.30589">
        <ele>64</ele>
        <time>2014-06-10T11:14:06Z</time>
      </trkpt>
      <trkpt lat="48.66822" lon="-2.30585">
        <ele>64</ele>
        <time>2014-06-10T11:14:08Z</time>
      </trkpt>
      <trkpt lat="48.66821" lon="-2.30581">
        <ele>64</ele>
        <time>2014-06-10T11:14:10Z</time>
      </trkpt>
      <trkpt lat="48.6682" lon="-2.30577">
        <ele>64</ele>
        <time>2014-06-10T11:14:12Z</time>
      </trkpt>
      <trkpt lat="48.66819" lon="-2.30573">
        <ele>64</ele>
        <time>2014-06-10T11:14:14Z</time>
      </trkpt>
      <trkpt lat="48.66818" lon="-2.30569">
        <ele>64</ele>
        <time>2014-06-10T11:14:16Z</time>
      </trkpt>
      <trkpt lat="48.66817" lon="-2.30565">
        <ele>64</ele>
        <time>2014-06-10T11:14:18Z</time>
      </trkpt>
      <trkpt lat="48.66816" lon="-2.3056">
        <ele>64</ele>
        <time>2014-06-10T11:14:20Z</time>
      </trkpt>
      <trkpt lat="48.66815" lon="-2.30556">
        <ele>64</ele>
        <time>2014-06-10T11:14:22Z</time>
      </trkpt>
      <trkpt lat="48.66814" lon="-2.30552">
        <ele>64</ele>
        <time>2014-06-10T11:14:24Z</time>
      </trkpt>
      <trkpt lat="48.66812" lon="-2.30548">
        <ele>64</ele>
        <time>2014-06-10T11:14:26Z</time>
      </trkpt>
      <trkpt lat="48.66811" lon="-2.30544">
        <ele>64</ele>
        <time>2014-06-10T11:14:28Z</time>
      </trkpt>
      <trkpt lat="48.66809" lon="-2.30542">
        <ele>64</ele>
        <time>2014-06-10T11:14:30Z</time>
      </trkpt>
      <trkpt lat="48.66808" lon="-2.30538">
        <ele>64</ele>
        <time>2014-06-10T11:14:32Z</time>
      </trkpt>
      <trkpt lat="48.66807" lon="-2.30534">
        <ele>64</ele>
        <time>2014-06-10T11:14:34Z</time>
      </trkpt>
      <trkpt lat="48.66806" lon="-2.30531">
        <ele>64</ele>
        <time>2014-06-10T11:14:36Z</time>
      </trkpt>
      <trkpt lat="48.66805" lon="-2.30527">
        <ele>64</ele>
        <time>2014-06-10T11:14:38Z</time>
      </trkpt>
      <trkpt lat="48.66803" lon="-2.30524">
        <ele>64</ele>
        <time>2014-06-10T11:14:40Z</time>
      </trkpt>
      <trkpt lat="48.66803" lon="-2.30521">
        <ele>64</ele>
        <time>2014-06-10T11:14:42Z</time>
      </trkpt>
      <trkpt lat="48.66802" lon="-2.30517">
        <ele>65</ele>
        <time>2014-06-10T11:14:44Z</time>
      </trkpt>
      <trkpt lat="48.66802" lon="-2.30513">
        <ele>65</ele>
        <time>2014-06-10T11:14:46Z</time>
      </trkpt>
      <trkpt lat="48.66801" lon="-2.30508">
        <ele>65</ele>
        <time>2014-06-10T11:14:49Z</time>
      </trkpt>
      <trkpt lat="48.66801" lon="-2.30504">
        <ele>65</ele>
        <time>2014-06-10T11:14:51Z</time>
      </trkpt>
      <trkpt lat="48.66801" lon="-2.305">
        <ele>66</ele>
        <time>2014-06-10T11:14:53Z</time>
      </trkpt>
      <trkpt lat="48.66801" lon="-2.30497">
        <ele>66</ele>
        <time>2014-06-10T11:14:55Z</time>
      </trkpt>
      <trkpt lat="48.66801" lon="-2.30493">
        <ele>67</ele>
        <time>2014-06-10T11:14:57Z</time>
      </trkpt>
      <trkpt lat="48.66801" lon="-2.30489">
        <ele>67</ele>
        <time>2014-06-10T11:14:59Z</time>
      </trkpt>
      <trkpt lat="48.668" lon="-2.30485">
        <ele>67</ele>
        <time>2014-06-10T11:15:02Z</time>
      </trkpt>
      <trkpt lat="48.66799" lon="-2.30483">
        <ele>68</ele>
        <time>2014-06-10T11:15:04Z</time>
      </trkpt>
      <trkpt lat="48.66799" lon="-2.30481">
        <ele>68</ele>
        <time>2014-06-10T11:15:06Z</time>
      </trkpt>
      <trkpt lat="48.66798" lon="-2.30479">
        <ele>69</ele>
        <time>2014-06-10T11:15:08Z</time>
      </trkpt>
      <trkpt lat="48.66797" lon="-2.30476">
        <ele>69</ele>
        <time>2014-06-10T11:15:10Z</time>
      </trkpt>
      <trkpt lat="48.66796" lon="-2.30472">
        <ele>70</ele>
        <time>2014-06-10T11:15:12Z</time>
      </trkpt>
      <trkpt lat="48.66795" lon="-2.30469">
        <ele>70</ele>
        <time>2014-06-10T11:15:14Z</time>
      </trkpt>
      <trkpt lat="48.66793" lon="-2.30466">
        <ele>70</ele>
        <time>2014-06-10T11:15:16Z</time>
      </trkpt>
      <trkpt lat="48.6679" lon="-2.30464">
        <ele>70</ele>
        <time>2014-06-10T11:15:18Z</time>
      </trkpt>
      <trkpt lat="48.66788" lon="-2.30462">
        <ele>70</ele>
        <time>2014-06-10T11:15:20Z</time>
      </trkpt>
      <trkpt lat="48.66786" lon="-2.30457">
        <ele>70</ele>
        <time>2014-06-10T11:15:23Z</time>
      </trkpt>
      <trkpt lat="48.66784" lon="-2.30453">
        <ele>70</ele>
        <time>2014-06-10T11:15:25Z</time>
      </trkpt>
      <trkpt lat="48.66782" lon="-2.30449">
        <ele>70</ele>
        <time>2014-06-10T11:15:27Z</time>
      </trkpt>
      <trkpt lat="48.6678" lon="-2.30446">
        <ele>71</ele>
        <time>2014-06-10T11:15:29Z</time>
      </trkpt>
      <trkpt lat="48.66778" lon="-2.30443">
        <ele>71</ele>
        <time>2014-06-10T11:15:31Z</time>
      </trkpt>
      <trkpt lat="48.66776" lon="-2.3044">
        <ele>71</ele>
        <time>2014-06-10T11:15:33Z</time>
      </trkpt>
      <trkpt lat="48.66775" lon="-2.30437">
        <ele>71</ele>
        <time>2014-06-10T11:15:35Z</time>
      </trkpt>
      <trkpt lat="48.66774" lon="-2.30433">
        <ele>71</ele>
        <time>2014-06-10T11:15:37Z</time>
      </trkpt>
      <trkpt lat="48.66773" lon="-2.30429">
        <ele>71</ele>
        <time>2014-06-10T11:15:40Z</time>
      </trkpt>
      <trkpt lat="48.66772" lon="-2.30427">
        <ele>71</ele>
        <time>2014-06-10T11:15:42Z</time>
      </trkpt>
      <trkpt lat="48.66772" lon="-2.30425">
        <ele>71</ele>
        <time>2014-06-10T11:15:45Z</time>
      </trkpt>
      <trkpt lat="48.66771" lon="-2.30424">
        <ele>71</ele>
        <time>2014-06-10T11:15:55Z</time>
      </trkpt>
      <trkpt lat="48.66771" lon="-2.30422">
        <ele>71</ele>
        <time>2014-06-10T11:15:58Z</time>
      </trkpt>
      <trkpt lat="48.66771" lon="-2.30419">
        <ele>71</ele>
        <time>2014-06-10T11:16:00Z</time>
      </trkpt>
      <trkpt lat="48.6677" lon="-2.30415">
        <ele>71</ele>
        <time>2014-06-10T11:16:02Z</time>
      </trkpt>
      <trkpt lat="48.6677" lon="-2.30411">
        <ele>71</ele>
        <time>2014-06-10T11:16:04Z</time>
      </trkpt>
      <trkpt lat="48.6677" lon="-2.30406">
        <ele>71</ele>
        <time>2014-06-10T11:16:06Z</time>
      </trkpt>
      <trkpt lat="48.66769" lon="-2.30403">
        <ele>71</ele>
        <time>2014-06-10T11:16:08Z</time>
      </trkpt>
      <trkpt lat="48.66769" lon="-2.30399">
        <ele>71</ele>
        <time>2014-06-10T11:16:10Z</time>
      </trkpt>
      <trkpt lat="48.66768" lon="-2.30395">
        <ele>71</ele>
        <time>2014-06-10T11:16:12Z</time>
      </trkpt>
      <trkpt lat="48.66768" lon="-2.30391">
        <ele>71</ele>
        <time>2014-06-10T11:16:14Z</time>
      </trkpt>
      <trkpt lat="48.66766" lon="-2.30387">
        <ele>71</ele>
        <time>2014-06-10T11:16:16Z</time>
      </trkpt>
      <trkpt lat="48.66765" lon="-2.30383">
        <ele>71</ele>
        <time>2014-06-10T11:16:18Z</time>
      </trkpt>
      <trkpt lat="48.66763" lon="-2.30379">
        <ele>71</ele>
        <time>2014-06-10T11:16:20Z</time>
      </trkpt>
      <trkpt lat="48.66759" lon="-2.30375">
        <ele>71</ele>
        <time>2014-06-10T11:16:23Z</time>
      </trkpt>
      <trkpt lat="48.66757" lon="-2.30373">
        <ele>71</ele>
        <time>2014-06-10T11:16:25Z</time>
      </trkpt>
      <trkpt lat="48.66754" lon="-2.3037">
        <ele>71</ele>
        <time>2014-06-10T11:16:27Z</time>
      </trkpt>
      <trkpt lat="48.66751" lon="-2.30367">
        <ele>71</ele>
        <time>2014-06-10T11:16:30Z</time>
      </trkpt>
      <trkpt lat="48.66748" lon="-2.30363">
        <ele>71</ele>
        <time>2014-06-10T11:16:33Z</time>
      </trkpt>
      <trkpt lat="48.66745" lon="-2.30361">
        <ele>71</ele>
        <time>2014-06-10T11:16:35Z</time>
      </trkpt>
      <trkpt lat="48.66743" lon="-2.3036">
        <ele>71</ele>
        <time>2014-06-10T11:16:37Z</time>
      </trkpt>
      <trkpt lat="48.66741" lon="-2.30359">
        <ele>71</ele>
        <time>2014-06-10T11:16:39Z</time>
      </trkpt>
      <trkpt lat="48.6674" lon="-2.30355">
        <ele>71</ele>
        <time>2014-06-10T11:16:41Z</time>
      </trkpt>
      <trkpt lat="48.66739" lon="-2.30351">
        <ele>71</ele>
        <time>2014-06-10T11:16:44Z</time>
      </trkpt>
      <trkpt lat="48.66738" lon="-2.30346">
        <ele>71</ele>
        <time>2014-06-10T11:16:47Z</time>
      </trkpt>
      <trkpt lat="48.66737" lon="-2.30343">
        <ele>71</ele>
        <time>2014-06-10T11:16:49Z</time>
      </trkpt>
      <trkpt lat="48.66736" lon="-2.30341">
        <ele>71</ele>
        <time>2014-06-10T11:16:51Z</time>
      </trkpt>
      <trkpt lat="48.66735" lon="-2.30339">
        <ele>71</ele>
        <time>2014-06-10T11:16:53Z</time>
      </trkpt>
      <trkpt lat="48.66733" lon="-2.30336">
        <ele>71</ele>
        <time>2014-06-10T11:16:56Z</time>
      </trkpt>
      <trkpt lat="48.66733" lon="-2.30334">
        <ele>71</ele>
        <time>2014-06-10T11:16:58Z</time>
      </trkpt>
      <trkpt lat="48.66733" lon="-2.30332">
        <ele>71</ele>
        <time>2014-06-10T11:17:01Z</time>
      </trkpt>
      <trkpt lat="48.66731" lon="-2.30331">
        <ele>71</ele>
        <time>2014-06-10T11:17:04Z</time>
      </trkpt>
      <trkpt lat="48.66729" lon="-2.30328">
        <ele>71</ele>
        <time>2014-06-10T11:17:06Z</time>
      </trkpt>
      <trkpt lat="48.66727" lon="-2.30326">
        <ele>71</ele>
        <time>2014-06-10T11:17:08Z</time>
      </trkpt>
      <trkpt lat="48.66724" lon="-2.30323">
        <ele>71</ele>
        <time>2014-06-10T11:17:10Z</time>
      </trkpt>
      <trkpt lat="48.66722" lon="-2.30319">
        <ele>70</ele>
        <time>2014-06-10T11:17:13Z</time>
      </trkpt>
      <trkpt lat="48.6672" lon="-2.30316">
        <ele>70</ele>
        <time>2014-06-10T11:17:15Z</time>
      </trkpt>
      <trkpt lat="48.66718" lon="-2.30312">
        <ele>69</ele>
        <time>2014-06-10T11:17:17Z</time>
      </trkpt>
      <trkpt lat="48.66717" lon="-2.30308">
        <ele>68</ele>
        <time>2014-06-10T11:17:19Z</time>
      </trkpt>
      <trkpt lat="48.66716" lon="-2.30304">
        <ele>67</ele>
        <time>2014-06-10T11:17:21Z</time>
      </trkpt>
      <trkpt lat="48.66715" lon="-2.30299">
        <ele>66</ele>
        <time>2014-06-10T11:17:23Z</time>
      </trkpt>
      <trkpt lat="48.66715" lon="-2.30294">
        <ele>65</ele>
        <time>2014-06-10T11:17:26Z</time>
      </trkpt>
      <trkpt lat="48.66715" lon="-2.30291">
        <ele>65</ele>
        <time>2014-06-10T11:17:28Z</time>
      </trkpt>
      <trkpt lat="48.66716" lon="-2.30286">
        <ele>65</ele>
        <time>2014-06-10T11:17:31Z</time>
      </trkpt>
      <trkpt lat="48.66716" lon="-2.30278">
        <ele>65</ele>
        <time>2014-06-10T11:17:33Z</time>
      </trkpt>
      <trkpt lat="48.66716" lon="-2.30271">
        <ele>65</ele>
        <time>2014-06-10T11:17:35Z</time>
      </trkpt>
      <trkpt lat="48.66717" lon="-2.30265">
        <ele>65</ele>
        <time>2014-06-10T11:17:37Z</time>
      </trkpt>
      <trkpt lat="48.66716" lon="-2.3026">
        <ele>65</ele>
        <time>2014-06-10T11:17:39Z</time>
      </trkpt>
      <trkpt lat="48.66718" lon="-2.30257">
        <ele>65</ele>
        <time>2014-06-10T11:17:41Z</time>
      </trkpt>
      <trkpt lat="48.66718" lon="-2.30253">
        <ele>65</ele>
        <time>2014-06-10T11:17:43Z</time>
      </trkpt>
      <trkpt lat="48.66719" lon="-2.30249">
        <ele>65</ele>
        <time>2014-06-10T11:17:45Z</time>
      </trkpt>
      <trkpt lat="48.66719" lon="-2.30244">
        <ele>65</ele>
        <time>2014-06-10T11:17:47Z</time>
      </trkpt>
      <trkpt lat="48.6672" lon="-2.30239">
        <ele>63</ele>
        <time>2014-06-10T11:17:49Z</time>
      </trkpt>
      <trkpt lat="48.66721" lon="-2.30233">
        <ele>62</ele>
        <time>2014-06-10T11:17:51Z</time>
      </trkpt>
      <trkpt lat="48.66722" lon="-2.30227">
        <ele>61</ele>
        <time>2014-06-10T11:17:53Z</time>
      </trkpt>
      <trkpt lat="48.66723" lon="-2.30223">
        <ele>61</ele>
        <time>2014-06-10T11:17:55Z</time>
      </trkpt>
      <trkpt lat="48.66723" lon="-2.30218">
        <ele>61</ele>
        <time>2014-06-10T11:17:57Z</time>
      </trkpt>
      <trkpt lat="48.66723" lon="-2.30213">
        <ele>61</ele>
        <time>2014-06-10T11:17:59Z</time>
      </trkpt>
      <trkpt lat="48.66722" lon="-2.30206">
        <ele>61</ele>
        <time>2014-06-10T11:18:01Z</time>
      </trkpt>
      <trkpt lat="48.66723" lon="-2.30201">
        <ele>61</ele>
        <time>2014-06-10T11:18:04Z</time>
      </trkpt>
      <trkpt lat="48.66723" lon="-2.30196">
        <ele>60</ele>
        <time>2014-06-10T11:18:06Z</time>
      </trkpt>
      <trkpt lat="48.66724" lon="-2.30195">
        <ele>59</ele>
        <time>2014-06-10T11:18:09Z</time>
      </trkpt>
      <trkpt lat="48.66725" lon="-2.30194">
        <ele>59</ele>
        <time>2014-06-10T11:18:11Z</time>
      </trkpt>
      <trkpt lat="48.66727" lon="-2.30194">
        <ele>59</ele>
        <time>2014-06-10T11:18:16Z</time>
      </trkpt>
      <trkpt lat="48.66726" lon="-2.30192">
        <ele>59</ele>
        <time>2014-06-10T11:18:18Z</time>
      </trkpt>
      <trkpt lat="48.66727" lon="-2.30189">
        <ele>59</ele>
        <time>2014-06-10T11:18:20Z</time>
      </trkpt>
      <trkpt lat="48.66725" lon="-2.30183">
        <ele>59</ele>
        <time>2014-06-10T11:18:22Z</time>
      </trkpt>
      <trkpt lat="48.66724" lon="-2.30179">
        <ele>59</ele>
        <time>2014-06-10T11:18:26Z</time>
      </trkpt>
      <trkpt lat="48.66724" lon="-2.30177">
        <ele>59</ele>
        <time>2014-06-10T11:18:36Z</time>
      </trkpt>
      <trkpt lat="48.66724" lon="-2.30175">
        <ele>59</ele>
        <time>2014-06-10T11:18:41Z</time>
      </trkpt>
      <trkpt lat="48.66724" lon="-2.30173">
        <ele>59</ele>
        <time>2014-06-10T11:18:43Z</time>
      </trkpt>
      <trkpt lat="48.66725" lon="-2.30169">
        <ele>59</ele>
        <time>2014-06-10T11:18:45Z</time>
      </trkpt>
      <trkpt lat="48.66725" lon="-2.30164">
        <ele>59</ele>
        <time>2014-06-10T11:18:47Z</time>
      </trkpt>
      <trkpt lat="48.66725" lon="-2.3016">
        <ele>59</ele>
        <time>2014-06-10T11:18:49Z</time>
      </trkpt>
      <trkpt lat="48.66724" lon="-2.30156">
        <ele>59</ele>
        <time>2014-06-10T11:18:51Z</time>
      </trkpt>
      <trkpt lat="48.66724" lon="-2.30153">
        <ele>59</ele>
        <time>2014-06-10T11:18:53Z</time>
      </trkpt>
      <trkpt lat="48.66724" lon="-2.30148">
        <ele>59</ele>
        <time>2014-06-10T11:18:55Z</time>
      </trkpt>
      <trkpt lat="48.66724" lon="-2.30143">
        <ele>59</ele>
        <time>2014-06-10T11:18:57Z</time>
      </trkpt>
      <trkpt lat="48.66724" lon="-2.30138">
        <ele>59</ele>
        <time>2014-06-10T11:18:59Z</time>
      </trkpt>
      <trkpt lat="48.66726" lon="-2.30134">
        <ele>59</ele>
        <time>2014-06-10T11:19:02Z</time>
      </trkpt>
      <trkpt lat="48.66726" lon="-2.3013">
        <ele>59</ele>
        <time>2014-06-10T11:19:04Z</time>
      </trkpt>
      <trkpt lat="48.66726" lon="-2.30126">
        <ele>59</ele>
        <time>2014-06-10T11:19:06Z</time>
      </trkpt>
      <trkpt lat="48.66725" lon="-2.30124">
        <ele>59</ele>
        <time>2014-06-10T11:19:08Z</time>
      </trkpt>
      <trkpt lat="48.66724" lon="-2.3012">
        <ele>59</ele>
        <time>2014-06-10T11:19:11Z</time>
      </trkpt>
      <trkpt lat="48.66724" lon="-2.30118">
        <ele>59</ele>
        <time>2014-06-10T11:19:13Z</time>
      </trkpt>
      <trkpt lat="48.66725" lon="-2.30116">
        <ele>59</ele>
        <time>2014-06-10T11:19:15Z</time>
      </trkpt>
      <trkpt lat="48.66725" lon="-2.30112">
        <ele>59</ele>
        <time>2014-06-10T11:19:17Z</time>
      </trkpt>
      <trkpt lat="48.66725" lon="-2.30107">
        <ele>59</ele>
        <time>2014-06-10T11:19:19Z</time>
      </trkpt>
      <trkpt lat="48.66723" lon="-2.30103">
        <ele>59</ele>
        <time>2014-06-10T11:19:21Z</time>
      </trkpt>
      <trkpt lat="48.6672" lon="-2.301">
        <ele>59</ele>
        <time>2014-06-10T11:19:23Z</time>
      </trkpt>
      <trkpt lat="48.66718" lon="-2.30098">
        <ele>59</ele>
        <time>2014-06-10T11:19:25Z</time>
      </trkpt>
      <trkpt lat="48.66717" lon="-2.30093">
        <ele>59</ele>
        <time>2014-06-10T11:19:28Z</time>
      </trkpt>
      <trkpt lat="48.66718" lon="-2.30088">
        <ele>59</ele>
        <time>2014-06-10T11:19:30Z</time>
      </trkpt>
      <trkpt lat="48.66718" lon="-2.30084">
        <ele>59</ele>
        <time>2014-06-10T11:19:32Z</time>
      </trkpt>
      <trkpt lat="48.66717" lon="-2.3008">
        <ele>59</ele>
        <time>2014-06-10T11:19:34Z</time>
      </trkpt>
      <trkpt lat="48.66716" lon="-2.30076">
        <ele>59</ele>
        <time>2014-06-10T11:19:36Z</time>
      </trkpt>
      <trkpt lat="48.66714" lon="-2.30071">
        <ele>59</ele>
        <time>2014-06-10T11:19:38Z</time>
      </trkpt>
      <trkpt lat="48.66713" lon="-2.30067">
        <ele>59</ele>
        <time>2014-06-10T11:19:40Z</time>
      </trkpt>
      <trkpt lat="48.66713" lon="-2.30062">
        <ele>59</ele>
        <time>2014-06-10T11:19:42Z</time>
      </trkpt>
      <trkpt lat="48.66713" lon="-2.30058">
        <ele>60</ele>
        <time>2014-06-10T11:19:44Z</time>
      </trkpt>
      <trkpt lat="48.66713" lon="-2.30053">
        <ele>60</ele>
        <time>2014-06-10T11:19:46Z</time>
      </trkpt>
      <trkpt lat="48.66714" lon="-2.30049">
        <ele>60</ele>
        <time>2014-06-10T11:19:48Z</time>
      </trkpt>
      <trkpt lat="48.66714" lon="-2.30045">
        <ele>60</ele>
        <time>2014-06-10T11:19:50Z</time>
      </trkpt>
      <trkpt lat="48.66716" lon="-2.30042">
        <ele>61</ele>
        <time>2014-06-10T11:19:52Z</time>
      </trkpt>
      <trkpt lat="48.66716" lon="-2.30038">
        <ele>61</ele>
        <time>2014-06-10T11:19:54Z</time>
      </trkpt>
      <trkpt lat="48.66716" lon="-2.30034">
        <ele>61</ele>
        <time>2014-06-10T11:19:56Z</time>
      </trkpt>
      <trkpt lat="48.66715" lon="-2.3003">
        <ele>62</ele>
        <time>2014-06-10T11:19:58Z</time>
      </trkpt>
      <trkpt lat="48.66715" lon="-2.30028">
        <ele>62</ele>
        <time>2014-06-10T11:20:00Z</time>
      </trkpt>
      <trkpt lat="48.66715" lon="-2.30026">
        <ele>62</ele>
        <time>2014-06-10T11:20:02Z</time>
      </trkpt>
      <trkpt lat="48.66714" lon="-2.30024">
        <ele>62</ele>
        <time>2014-06-10T11:20:04Z</time>
      </trkpt>
      <trkpt lat="48.66714" lon="-2.30022">
        <ele>62</ele>
        <time>2014-06-10T11:20:07Z</time>
      </trkpt>
      <trkpt lat="48.66713" lon="-2.3002">
        <ele>62</ele>
        <time>2014-06-10T11:20:09Z</time>
      </trkpt>
      <trkpt lat="48.66713" lon="-2.30017">
        <ele>62</ele>
        <time>2014-06-10T11:20:13Z</time>
      </trkpt>
      <trkpt lat="48.66713" lon="-2.30013">
        <ele>62</ele>
        <time>2014-06-10T11:20:15Z</time>
      </trkpt>
      <trkpt lat="48.66712" lon="-2.3001">
        <ele>62</ele>
        <time>2014-06-10T11:20:17Z</time>
      </trkpt>
      <trkpt lat="48.66712" lon="-2.30006">
        <ele>62</ele>
        <time>2014-06-10T11:20:19Z</time>
      </trkpt>
      <trkpt lat="48.66711" lon="-2.30002">
        <ele>63</ele>
        <time>2014-06-10T11:20:21Z</time>
      </trkpt>
      <trkpt lat="48.66711" lon="-2.29997">
        <ele>63</ele>
        <time>2014-06-10T11:20:23Z</time>
      </trkpt>
      <trkpt lat="48.66711" lon="-2.29993">
        <ele>63</ele>
        <time>2014-06-10T11:20:25Z</time>
      </trkpt>
      <trkpt lat="48.66711" lon="-2.29989">
        <ele>64</ele>
        <time>2014-06-10T11:20:27Z</time>
      </trkpt>
      <trkpt lat="48.6671" lon="-2.29985">
        <ele>64</ele>
        <time>2014-06-10T11:20:29Z</time>
      </trkpt>
      <trkpt lat="48.6671" lon="-2.29981">
        <ele>64</ele>
        <time>2014-06-10T11:20:31Z</time>
      </trkpt>
      <trkpt lat="48.6671" lon="-2.29977">
        <ele>64</ele>
        <time>2014-06-10T11:20:33Z</time>
      </trkpt>
      <trkpt lat="48.66709" lon="-2.29972">
        <ele>64</ele>
        <time>2014-06-10T11:20:36Z</time>
      </trkpt>
      <trkpt lat="48.66709" lon="-2.29969">
        <ele>64</ele>
        <time>2014-06-10T11:20:38Z</time>
      </trkpt>
      <trkpt lat="48.6671" lon="-2.29966">
        <ele>64</ele>
        <time>2014-06-10T11:20:40Z</time>
      </trkpt>
      <trkpt lat="48.6671" lon="-2.29963">
        <ele>65</ele>
        <time>2014-06-10T11:20:42Z</time>
      </trkpt>
      <trkpt lat="48.6671" lon="-2.29958">
        <ele>65</ele>
        <time>2014-06-10T11:20:44Z</time>
      </trkpt>
      <trkpt lat="48.6671" lon="-2.29954">
        <ele>65</ele>
        <time>2014-06-10T11:20:46Z</time>
      </trkpt>
      <trkpt lat="48.66709" lon="-2.2995">
        <ele>65</ele>
        <time>2014-06-10T11:20:48Z</time>
      </trkpt>
      <trkpt lat="48.66708" lon="-2.29945">
        <ele>65</ele>
        <time>2014-06-10T11:20:50Z</time>
      </trkpt>
      <trkpt lat="48.66707" lon="-2.29941">
        <ele>65</ele>
        <time>2014-06-10T11:20:52Z</time>
      </trkpt>
      <trkpt lat="48.66706" lon="-2.29937">
        <ele>65</ele>
        <time>2014-06-10T11:20:54Z</time>
      </trkpt>
      <trkpt lat="48.66704" lon="-2.29933">
        <ele>65</ele>
        <time>2014-06-10T11:20:56Z</time>
      </trkpt>
      <trkpt lat="48.66702" lon="-2.29929">
        <ele>65</ele>
        <time>2014-06-10T11:20:58Z</time>
      </trkpt>
      <trkpt lat="48.667" lon="-2.29926">
        <ele>65</ele>
        <time>2014-06-10T11:21:00Z</time>
      </trkpt>
      <trkpt lat="48.66697" lon="-2.29922">
        <ele>65</ele>
        <time>2014-06-10T11:21:02Z</time>
      </trkpt>
      <trkpt lat="48.66696" lon="-2.29918">
        <ele>65</ele>
        <time>2014-06-10T11:21:04Z</time>
      </trkpt>
      <trkpt lat="48.66694" lon="-2.29914">
        <ele>65</ele>
        <time>2014-06-10T11:21:06Z</time>
      </trkpt>
      <trkpt lat="48.66693" lon="-2.2991">
        <ele>65</ele>
        <time>2014-06-10T11:21:08Z</time>
      </trkpt>
      <trkpt lat="48.66692" lon="-2.29906">
        <ele>65</ele>
        <time>2014-06-10T11:21:10Z</time>
      </trkpt>
      <trkpt lat="48.66692" lon="-2.29902">
        <ele>65</ele>
        <time>2014-06-10T11:21:12Z</time>
      </trkpt>
      <trkpt lat="48.66691" lon="-2.29897">
        <ele>65</ele>
        <time>2014-06-10T11:21:14Z</time>
      </trkpt>
      <trkpt lat="48.6669" lon="-2.29892">
        <ele>65</ele>
        <time>2014-06-10T11:21:16Z</time>
      </trkpt>
      <trkpt lat="48.6669" lon="-2.29888">
        <ele>65</ele>
        <time>2014-06-10T11:21:18Z</time>
      </trkpt>
      <trkpt lat="48.6669" lon="-2.29884">
        <ele>65</ele>
        <time>2014-06-10T11:21:20Z</time>
      </trkpt>
      <trkpt lat="48.6669" lon="-2.2988">
        <ele>65</ele>
        <time>2014-06-10T11:21:22Z</time>
      </trkpt>
      <trkpt lat="48.6669" lon="-2.29877">
        <ele>65</ele>
        <time>2014-06-10T11:21:24Z</time>
      </trkpt>
      <trkpt lat="48.6669" lon="-2.29874">
        <ele>65</ele>
        <time>2014-06-10T11:21:26Z</time>
      </trkpt>
      <trkpt lat="48.66691" lon="-2.29871">
        <ele>65</ele>
        <time>2014-06-10T11:21:28Z</time>
      </trkpt>
      <trkpt lat="48.6669" lon="-2.29867">
        <ele>65</ele>
        <time>2014-06-10T11:21:30Z</time>
      </trkpt>
      <trkpt lat="48.66691" lon="-2.29864">
        <ele>65</ele>
        <time>2014-06-10T11:21:32Z</time>
      </trkpt>
      <trkpt lat="48.66692" lon="-2.2986">
        <ele>64</ele>
        <time>2014-06-10T11:21:34Z</time>
      </trkpt>
      <trkpt lat="48.66692" lon="-2.29856">
        <ele>64</ele>
        <time>2014-06-10T11:21:36Z</time>
      </trkpt>
      <trkpt lat="48.66692" lon="-2.29852">
        <ele>63</ele>
        <time>2014-06-10T11:21:38Z</time>
      </trkpt>
      <trkpt lat="48.66692" lon="-2.29849">
        <ele>63</ele>
        <time>2014-06-10T11:21:40Z</time>
      </trkpt>
      <trkpt lat="48.66693" lon="-2.29845">
        <ele>62</ele>
        <time>2014-06-10T11:21:42Z</time>
      </trkpt>
      <trkpt lat="48.66693" lon="-2.29841">
        <ele>62</ele>
        <time>2014-06-10T11:21:44Z</time>
      </trkpt>
      <trkpt lat="48.66693" lon="-2.29837">
        <ele>61</ele>
        <time>2014-06-10T11:21:46Z</time>
      </trkpt>
      <trkpt lat="48.66692" lon="-2.29832">
        <ele>61</ele>
        <time>2014-06-10T11:21:48Z</time>
      </trkpt>
      <trkpt lat="48.6669" lon="-2.29828">
        <ele>61</ele>
        <time>2014-06-10T11:21:50Z</time>
      </trkpt>
      <trkpt lat="48.66689" lon="-2.29824">
        <ele>61</ele>
        <time>2014-06-10T11:21:52Z</time>
      </trkpt>
      <trkpt lat="48.66687" lon="-2.29819">
        <ele>61</ele>
        <time>2014-06-10T11:21:54Z</time>
      </trkpt>
      <trkpt lat="48.66686" lon="-2.29816">
        <ele>61</ele>
        <time>2014-06-10T11:21:56Z</time>
      </trkpt>
      <trkpt lat="48.66684" lon="-2.29811">
        <ele>61</ele>
        <time>2014-06-10T11:21:58Z</time>
      </trkpt>
      <trkpt lat="48.66683" lon="-2.29807">
        <ele>61</ele>
        <time>2014-06-10T11:22:00Z</time>
      </trkpt>
      <trkpt lat="48.66683" lon="-2.29802">
        <ele>61</ele>
        <time>2014-06-10T11:22:02Z</time>
      </trkpt>
      <trkpt lat="48.66682" lon="-2.29798">
        <ele>61</ele>
        <time>2014-06-10T11:22:04Z</time>
      </trkpt>
      <trkpt lat="48.66681" lon="-2.29794">
        <ele>61</ele>
        <time>2014-06-10T11:22:06Z</time>
      </trkpt>
      <trkpt lat="48.66681" lon="-2.2979">
        <ele>61</ele>
        <time>2014-06-10T11:22:08Z</time>
      </trkpt>
      <trkpt lat="48.66681" lon="-2.29786">
        <ele>61</ele>
        <time>2014-06-10T11:22:10Z</time>
      </trkpt>
      <trkpt lat="48.66681" lon="-2.29783">
        <ele>61</ele>
        <time>2014-06-10T11:22:12Z</time>
      </trkpt>
      <trkpt lat="48.66682" lon="-2.2978">
        <ele>60</ele>
        <time>2014-06-10T11:22:14Z</time>
      </trkpt>
      <trkpt lat="48.66681" lon="-2.29778">
        <ele>59</ele>
        <time>2014-06-10T11:22:16Z</time>
      </trkpt>
      <trkpt lat="48.66682" lon="-2.29775">
        <ele>59</ele>
        <time>2014-06-10T11:22:19Z</time>
      </trkpt>
      <trkpt lat="48.66684" lon="-2.29772">
        <ele>58</ele>
        <time>2014-06-10T11:22:21Z</time>
      </trkpt>
      <trkpt lat="48.66684" lon="-2.29768">
        <ele>58</ele>
        <time>2014-06-10T11:22:23Z</time>
      </trkpt>
      <trkpt lat="48.66684" lon="-2.29763">
        <ele>58</ele>
        <time>2014-06-10T11:22:25Z</time>
      </trkpt>
      <trkpt lat="48.66686" lon="-2.29759">
        <ele>58</ele>
        <time>2014-06-10T11:22:28Z</time>
      </trkpt>
      <trkpt lat="48.66687" lon="-2.29758">
        <ele>56</ele>
        <time>2014-06-10T11:22:31Z</time>
      </trkpt>
      <trkpt lat="48.66689" lon="-2.29756">
        <ele>56</ele>
        <time>2014-06-10T11:22:33Z</time>
      </trkpt>
      <trkpt lat="48.6669" lon="-2.29752">
        <ele>55</ele>
        <time>2014-06-10T11:22:35Z</time>
      </trkpt>
      <trkpt lat="48.66691" lon="-2.29748">
        <ele>55</ele>
        <time>2014-06-10T11:22:37Z</time>
      </trkpt>
      <trkpt lat="48.66692" lon="-2.29745">
        <ele>55</ele>
        <time>2014-06-10T11:22:39Z</time>
      </trkpt>
      <trkpt lat="48.66693" lon="-2.2974">
        <ele>55</ele>
        <time>2014-06-10T11:22:41Z</time>
      </trkpt>
      <trkpt lat="48.66693" lon="-2.29736">
        <ele>55</ele>
        <time>2014-06-10T11:22:43Z</time>
      </trkpt>
      <trkpt lat="48.66694" lon="-2.29731">
        <ele>55</ele>
        <time>2014-06-10T11:22:45Z</time>
      </trkpt>
      <trkpt lat="48.66696" lon="-2.29729">
        <ele>55</ele>
        <time>2014-06-10T11:22:47Z</time>
      </trkpt>
      <trkpt lat="48.66698" lon="-2.29729">
        <ele>55</ele>
        <time>2014-06-10T11:22:49Z</time>
      </trkpt>
      <trkpt lat="48.66701" lon="-2.29729">
        <ele>55</ele>
        <time>2014-06-10T11:22:51Z</time>
      </trkpt>
      <trkpt lat="48.66703" lon="-2.29729">
        <ele>54</ele>
        <time>2014-06-10T11:22:53Z</time>
      </trkpt>
      <trkpt lat="48.66705" lon="-2.29727">
        <ele>54</ele>
        <time>2014-06-10T11:22:55Z</time>
      </trkpt>
      <trkpt lat="48.66706" lon="-2.29724">
        <ele>54</ele>
        <time>2014-06-10T11:22:57Z</time>
      </trkpt>
      <trkpt lat="48.66708" lon="-2.2972">
        <ele>54</ele>
        <time>2014-06-10T11:22:59Z</time>
      </trkpt>
      <trkpt lat="48.66709" lon="-2.29716">
        <ele>54</ele>
        <time>2014-06-10T11:23:01Z</time>
      </trkpt>
      <trkpt lat="48.6671" lon="-2.29713">
        <ele>53</ele>
        <time>2014-06-10T11:23:03Z</time>
      </trkpt>
      <trkpt lat="48.66711" lon="-2.29709">
        <ele>53</ele>
        <time>2014-06-10T11:23:05Z</time>
      </trkpt>
      <trkpt lat="48.66713" lon="-2.29706">
        <ele>53</ele>
        <time>2014-06-10T11:23:07Z</time>
      </trkpt>
      <trkpt lat="48.66715" lon="-2.29703">
        <ele>52</ele>
        <time>2014-06-10T11:23:09Z</time>
      </trkpt>
      <trkpt lat="48.66716" lon="-2.29698">
        <ele>52</ele>
        <time>2014-06-10T11:23:11Z</time>
      </trkpt>
      <trkpt lat="48.66717" lon="-2.29694">
        <ele>51</ele>
        <time>2014-06-10T11:23:13Z</time>
      </trkpt>
      <trkpt lat="48.66718" lon="-2.2969">
        <ele>51</ele>
        <time>2014-06-10T11:23:15Z</time>
      </trkpt>
      <trkpt lat="48.66718" lon="-2.29686">
        <ele>51</ele>
        <time>2014-06-10T11:23:17Z</time>
      </trkpt>
      <trkpt lat="48.66718" lon="-2.29681">
        <ele>51</ele>
        <time>2014-06-10T11:23:19Z</time>
      </trkpt>
      <trkpt lat="48.66719" lon="-2.29677">
        <ele>51</ele>
        <time>2014-06-10T11:23:21Z</time>
      </trkpt>
      <trkpt lat="48.66719" lon="-2.29672">
        <ele>51</ele>
        <time>2014-06-10T11:23:23Z</time>
      </trkpt>
      <trkpt lat="48.66718" lon="-2.29668">
        <ele>51</ele>
        <time>2014-06-10T11:23:25Z</time>
      </trkpt>
      <trkpt lat="48.66718" lon="-2.29663">
        <ele>51</ele>
        <time>2014-06-10T11:23:27Z</time>
      </trkpt>
      <trkpt lat="48.66719" lon="-2.2966">
        <ele>51</ele>
        <time>2014-06-10T11:23:29Z</time>
      </trkpt>
      <trkpt lat="48.6672" lon="-2.29656">
        <ele>51</ele>
        <time>2014-06-10T11:23:31Z</time>
      </trkpt>
      <trkpt lat="48.66719" lon="-2.29651">
        <ele>51</ele>
        <time>2014-06-10T11:23:33Z</time>
      </trkpt>
      <trkpt lat="48.6672" lon="-2.29647">
        <ele>51</ele>
        <time>2014-06-10T11:23:35Z</time>
      </trkpt>
      <trkpt lat="48.66721" lon="-2.29643">
        <ele>51</ele>
        <time>2014-06-10T11:23:37Z</time>
      </trkpt>
      <trkpt lat="48.66721" lon="-2.29639">
        <ele>51</ele>
        <time>2014-06-10T11:23:39Z</time>
      </trkpt>
      <trkpt lat="48.66722" lon="-2.29634">
        <ele>51</ele>
        <time>2014-06-10T11:23:41Z</time>
      </trkpt>
      <trkpt lat="48.66722" lon="-2.2963">
        <ele>51</ele>
        <time>2014-06-10T11:23:43Z</time>
      </trkpt>
      <trkpt lat="48.66722" lon="-2.29626">
        <ele>51</ele>
        <time>2014-06-10T11:23:45Z</time>
      </trkpt>
      <trkpt lat="48.66723" lon="-2.29621">
        <ele>51</ele>
        <time>2014-06-10T11:23:47Z</time>
      </trkpt>
      <trkpt lat="48.66723" lon="-2.29616">
        <ele>51</ele>
        <time>2014-06-10T11:23:49Z</time>
      </trkpt>
      <trkpt lat="48.66724" lon="-2.29612">
        <ele>51</ele>
        <time>2014-06-10T11:23:51Z</time>
      </trkpt>
      <trkpt lat="48.66722" lon="-2.29608">
        <ele>51</ele>
        <time>2014-06-10T11:23:53Z</time>
      </trkpt>
      <trkpt lat="48.66722" lon="-2.29604">
        <ele>51</ele>
        <time>2014-06-10T11:23:55Z</time>
      </trkpt>
      <trkpt lat="48.66722" lon="-2.29599">
        <ele>51</ele>
        <time>2014-06-10T11:23:57Z</time>
      </trkpt>
      <trkpt lat="48.66723" lon="-2.29595">
        <ele>50</ele>
        <time>2014-06-10T11:23:59Z</time>
      </trkpt>
      <trkpt lat="48.66724" lon="-2.2959">
        <ele>50</ele>
        <time>2014-06-10T11:24:01Z</time>
      </trkpt>
      <trkpt lat="48.66725" lon="-2.29586">
        <ele>50</ele>
        <time>2014-06-10T11:24:03Z</time>
      </trkpt>
      <trkpt lat="48.66726" lon="-2.29582">
        <ele>50</ele>
        <time>2014-06-10T11:24:05Z</time>
      </trkpt>
      <trkpt lat="48.66727" lon="-2.29578">
        <ele>50</ele>
        <time>2014-06-10T11:24:07Z</time>
      </trkpt>
      <trkpt lat="48.6673" lon="-2.29573">
        <ele>50</ele>
        <time>2014-06-10T11:24:10Z</time>
      </trkpt>
      <trkpt lat="48.66732" lon="-2.29572">
        <ele>50</ele>
        <time>2014-06-10T11:24:12Z</time>
      </trkpt>
      <trkpt lat="48.66735" lon="-2.29568">
        <ele>50</ele>
        <time>2014-06-10T11:24:15Z</time>
      </trkpt>
      <trkpt lat="48.66736" lon="-2.29564">
        <ele>50</ele>
        <time>2014-06-10T11:24:17Z</time>
      </trkpt>
      <trkpt lat="48.66737" lon="-2.2956">
        <ele>50</ele>
        <time>2014-06-10T11:24:19Z</time>
      </trkpt>
      <trkpt lat="48.66737" lon="-2.29556">
        <ele>50</ele>
        <time>2014-06-10T11:24:21Z</time>
      </trkpt>
      <trkpt lat="48.66738" lon="-2.29552">
        <ele>50</ele>
        <time>2014-06-10T11:24:23Z</time>
      </trkpt>
      <trkpt lat="48.66739" lon="-2.29548">
        <ele>50</ele>
        <time>2014-06-10T11:24:25Z</time>
      </trkpt>
      <trkpt lat="48.66739" lon="-2.29543">
        <ele>50</ele>
        <time>2014-06-10T11:24:27Z</time>
      </trkpt>
      <trkpt lat="48.6674" lon="-2.29539">
        <ele>50</ele>
        <time>2014-06-10T11:24:29Z</time>
      </trkpt>
      <trkpt lat="48.6674" lon="-2.29536">
        <ele>50</ele>
        <time>2014-06-10T11:24:31Z</time>
      </trkpt>
      <trkpt lat="48.66741" lon="-2.29532">
        <ele>50</ele>
        <time>2014-06-10T11:24:33Z</time>
      </trkpt>
      <trkpt lat="48.66742" lon="-2.29528">
        <ele>50</ele>
        <time>2014-06-10T11:24:35Z</time>
      </trkpt>
      <trkpt lat="48.66744" lon="-2.29525">
        <ele>50</ele>
        <time>2014-06-10T11:24:37Z</time>
      </trkpt>
      <trkpt lat="48.66745" lon="-2.29521">
        <ele>50</ele>
        <time>2014-06-10T11:24:39Z</time>
      </trkpt>
      <trkpt lat="48.66746" lon="-2.29518">
        <ele>50</ele>
        <time>2014-06-10T11:24:41Z</time>
      </trkpt>
      <trkpt lat="48.66745" lon="-2.29513">
        <ele>50</ele>
        <time>2014-06-10T11:24:44Z</time>
      </trkpt>
      <trkpt lat="48.66745" lon="-2.29511">
        <ele>50</ele>
        <time>2014-06-10T11:24:46Z</time>
      </trkpt>
      <trkpt lat="48.66745" lon="-2.29507">
        <ele>50</ele>
        <time>2014-06-10T11:24:48Z</time>
      </trkpt>
      <trkpt lat="48.66745" lon="-2.29503">
        <ele>49</ele>
        <time>2014-06-10T11:24:50Z</time>
      </trkpt>
      <trkpt lat="48.66746" lon="-2.29499">
        <ele>49</ele>
        <time>2014-06-10T11:24:52Z</time>
      </trkpt>
      <trkpt lat="48.66747" lon="-2.29496">
        <ele>49</ele>
        <time>2014-06-10T11:24:54Z</time>
      </trkpt>
      <trkpt lat="48.66747" lon="-2.29491">
        <ele>49</ele>
        <time>2014-06-10T11:24:56Z</time>
      </trkpt>
      <trkpt lat="48.66747" lon="-2.29487">
        <ele>48</ele>
        <time>2014-06-10T11:24:58Z</time>
      </trkpt>
      <trkpt lat="48.66748" lon="-2.29483">
        <ele>48</ele>
        <time>2014-06-10T11:25:00Z</time>
      </trkpt>
      <trkpt lat="48.66748" lon="-2.29479">
        <ele>48</ele>
        <time>2014-06-10T11:25:02Z</time>
      </trkpt>
      <trkpt lat="48.66749" lon="-2.29474">
        <ele>48</ele>
        <time>2014-06-10T11:25:04Z</time>
      </trkpt>
      <trkpt lat="48.6675" lon="-2.29471">
        <ele>47</ele>
        <time>2014-06-10T11:25:06Z</time>
      </trkpt>
      <trkpt lat="48.66751" lon="-2.29466">
        <ele>47</ele>
        <time>2014-06-10T11:25:09Z</time>
      </trkpt>
      <trkpt lat="48.66752" lon="-2.29462">
        <ele>46</ele>
        <time>2014-06-10T11:25:11Z</time>
      </trkpt>
      <trkpt lat="48.66753" lon="-2.29458">
        <ele>46</ele>
        <time>2014-06-10T11:25:13Z</time>
      </trkpt>
      <trkpt lat="48.66753" lon="-2.29454">
        <ele>46</ele>
        <time>2014-06-10T11:25:15Z</time>
      </trkpt>
      <trkpt lat="48.66754" lon="-2.2945">
        <ele>46</ele>
        <time>2014-06-10T11:25:17Z</time>
      </trkpt>
      <trkpt lat="48.66755" lon="-2.29446">
        <ele>46</ele>
        <time>2014-06-10T11:25:19Z</time>
      </trkpt>
      <trkpt lat="48.66756" lon="-2.29442">
        <ele>46</ele>
        <time>2014-06-10T11:25:21Z</time>
      </trkpt>
      <trkpt lat="48.66756" lon="-2.29438">
        <ele>46</ele>
        <time>2014-06-10T11:25:23Z</time>
      </trkpt>
      <trkpt lat="48.66756" lon="-2.29434">
        <ele>46</ele>
        <time>2014-06-10T11:25:25Z</time>
      </trkpt>
      <trkpt lat="48.66757" lon="-2.29429">
        <ele>46</ele>
        <time>2014-06-10T11:25:27Z</time>
      </trkpt>
      <trkpt lat="48.66758" lon="-2.29425">
        <ele>46</ele>
        <time>2014-06-10T11:25:29Z</time>
      </trkpt>
      <trkpt lat="48.66759" lon="-2.29421">
        <ele>46</ele>
        <time>2014-06-10T11:25:31Z</time>
      </trkpt>
      <trkpt lat="48.6676" lon="-2.29417">
        <ele>46</ele>
        <time>2014-06-10T11:25:33Z</time>
      </trkpt>
      <trkpt lat="48.66761" lon="-2.29413">
        <ele>46</ele>
        <time>2014-06-10T11:25:35Z</time>
      </trkpt>
      <trkpt lat="48.66761" lon="-2.29409">
        <ele>46</ele>
        <time>2014-06-10T11:25:37Z</time>
      </trkpt>
      <trkpt lat="48.66762" lon="-2.29404">
        <ele>46</ele>
        <time>2014-06-10T11:25:39Z</time>
      </trkpt>
      <trkpt lat="48.66762" lon="-2.294">
        <ele>46</ele>
        <time>2014-06-10T11:25:41Z</time>
      </trkpt>
      <trkpt lat="48.66761" lon="-2.29396">
        <ele>46</ele>
        <time>2014-06-10T11:25:43Z</time>
      </trkpt>
      <trkpt lat="48.6676" lon="-2.29392">
        <ele>46</ele>
        <time>2014-06-10T11:25:45Z</time>
      </trkpt>
      <trkpt lat="48.66758" lon="-2.29388">
        <ele>46</ele>
        <time>2014-06-10T11:25:47Z</time>
      </trkpt>
      <trkpt lat="48.66758" lon="-2.29384">
        <ele>46</ele>
        <time>2014-06-10T11:25:49Z</time>
      </trkpt>
      <trkpt lat="48.66758" lon="-2.2938">
        <ele>46</ele>
        <time>2014-06-10T11:25:51Z</time>
      </trkpt>
      <trkpt lat="48.66758" lon="-2.29375">
        <ele>46</ele>
        <time>2014-06-10T11:25:53Z</time>
      </trkpt>
      <trkpt lat="48.66758" lon="-2.29371">
        <ele>46</ele>
        <time>2014-06-10T11:25:55Z</time>
      </trkpt>
      <trkpt lat="48.66758" lon="-2.29367">
        <ele>46</ele>
        <time>2014-06-10T11:25:57Z</time>
      </trkpt>
      <trkpt lat="48.66758" lon="-2.29363">
        <ele>46</ele>
        <time>2014-06-10T11:25:59Z</time>
      </trkpt>
      <trkpt lat="48.66758" lon="-2.29358">
        <ele>46</ele>
        <time>2014-06-10T11:26:01Z</time>
      </trkpt>
      <trkpt lat="48.66758" lon="-2.29354">
        <ele>46</ele>
        <time>2014-06-10T11:26:03Z</time>
      </trkpt>
      <trkpt lat="48.66758" lon="-2.2935">
        <ele>46</ele>
        <time>2014-06-10T11:26:05Z</time>
      </trkpt>
      <trkpt lat="48.66757" lon="-2.29345">
        <ele>46</ele>
        <time>2014-06-10T11:26:08Z</time>
      </trkpt>
      <trkpt lat="48.66756" lon="-2.29341">
        <ele>46</ele>
        <time>2014-06-10T11:26:10Z</time>
      </trkpt>
      <trkpt lat="48.66755" lon="-2.29337">
        <ele>46</ele>
        <time>2014-06-10T11:26:12Z</time>
      </trkpt>
      <trkpt lat="48.66753" lon="-2.29333">
        <ele>46</ele>
        <time>2014-06-10T11:26:14Z</time>
      </trkpt>
      <trkpt lat="48.66753" lon="-2.29328">
        <ele>46</ele>
        <time>2014-06-10T11:26:16Z</time>
      </trkpt>
      <trkpt lat="48.66752" lon="-2.29325">
        <ele>45</ele>
        <time>2014-06-10T11:26:18Z</time>
      </trkpt>
      <trkpt lat="48.66753" lon="-2.29321">
        <ele>45</ele>
        <time>2014-06-10T11:26:20Z</time>
      </trkpt>
      <trkpt lat="48.66753" lon="-2.29316">
        <ele>45</ele>
        <time>2014-06-10T11:26:22Z</time>
      </trkpt>
      <trkpt lat="48.66753" lon="-2.29312">
        <ele>45</ele>
        <time>2014-06-10T11:26:24Z</time>
      </trkpt>
      <trkpt lat="48.66753" lon="-2.29307">
        <ele>45</ele>
        <time>2014-06-10T11:26:26Z</time>
      </trkpt>
      <trkpt lat="48.66755" lon="-2.29304">
        <ele>45</ele>
        <time>2014-06-10T11:26:28Z</time>
      </trkpt>
      <trkpt lat="48.66755" lon="-2.293">
        <ele>45</ele>
        <time>2014-06-10T11:26:30Z</time>
      </trkpt>
      <trkpt lat="48.66755" lon="-2.29296">
        <ele>45</ele>
        <time>2014-06-10T11:26:32Z</time>
      </trkpt>
      <trkpt lat="48.66755" lon="-2.29292">
        <ele>45</ele>
        <time>2014-06-10T11:26:34Z</time>
      </trkpt>
      <trkpt lat="48.66753" lon="-2.29287">
        <ele>45</ele>
        <time>2014-06-10T11:26:36Z</time>
      </trkpt>
      <trkpt lat="48.66751" lon="-2.29284">
        <ele>45</ele>
        <time>2014-06-10T11:26:38Z</time>
      </trkpt>
      <trkpt lat="48.66749" lon="-2.29279">
        <ele>45</ele>
        <time>2014-06-10T11:26:41Z</time>
      </trkpt>
      <trkpt lat="48.66746" lon="-2.29275">
        <ele>45</ele>
        <time>2014-06-10T11:26:44Z</time>
      </trkpt>
      <trkpt lat="48.66744" lon="-2.29272">
        <ele>45</ele>
        <time>2014-06-10T11:26:46Z</time>
      </trkpt>
      <trkpt lat="48.66741" lon="-2.29266">
        <ele>45</ele>
        <time>2014-06-10T11:26:49Z</time>
      </trkpt>
      <trkpt lat="48.66739" lon="-2.29263">
        <ele>45</ele>
        <time>2014-06-10T11:26:51Z</time>
      </trkpt>
      <trkpt lat="48.66738" lon="-2.29259">
        <ele>45</ele>
        <time>2014-06-10T11:26:53Z</time>
      </trkpt>
      <trkpt lat="48.66738" lon="-2.29256">
        <ele>45</ele>
        <time>2014-06-10T11:26:55Z</time>
      </trkpt>
      <trkpt lat="48.66738" lon="-2.29252">
        <ele>45</ele>
        <time>2014-06-10T11:26:57Z</time>
      </trkpt>
      <trkpt lat="48.66738" lon="-2.29248">
        <ele>45</ele>
        <time>2014-06-10T11:26:59Z</time>
      </trkpt>
      <trkpt lat="48.66737" lon="-2.29243">
        <ele>45</ele>
        <time>2014-06-10T11:27:01Z</time>
      </trkpt>
      <trkpt lat="48.66736" lon="-2.29239">
        <ele>45</ele>
        <time>2014-06-10T11:27:03Z</time>
      </trkpt>
      <trkpt lat="48.66735" lon="-2.29235">
        <ele>45</ele>
        <time>2014-06-10T11:27:05Z</time>
      </trkpt>
      <trkpt lat="48.66732" lon="-2.2923">
        <ele>45</ele>
        <time>2014-06-10T11:27:08Z</time>
      </trkpt>
      <trkpt lat="48.6673" lon="-2.29227">
        <ele>45</ele>
        <time>2014-06-10T11:27:10Z</time>
      </trkpt>
      <trkpt lat="48.66729" lon="-2.29223">
        <ele>45</ele>
        <time>2014-06-10T11:27:12Z</time>
      </trkpt>
      <trkpt lat="48.66727" lon="-2.29218">
        <ele>45</ele>
        <time>2014-06-10T11:27:15Z</time>
      </trkpt>
      <trkpt lat="48.66724" lon="-2.29214">
        <ele>45</ele>
        <time>2014-06-10T11:27:18Z</time>
      </trkpt>
      <trkpt lat="48.66721" lon="-2.29214">
        <ele>45</ele>
        <time>2014-06-10T11:27:20Z</time>
      </trkpt>
      <trkpt lat="48.66718" lon="-2.29213">
        <ele>45</ele>
        <time>2014-06-10T11:27:22Z</time>
      </trkpt>
      <trkpt lat="48.66716" lon="-2.29211">
        <ele>45</ele>
        <time>2014-06-10T11:27:24Z</time>
      </trkpt>
      <trkpt lat="48.66714" lon="-2.29207">
        <ele>45</ele>
        <time>2014-06-10T11:27:26Z</time>
      </trkpt>
      <trkpt lat="48.66713" lon="-2.29203">
        <ele>45</ele>
        <time>2014-06-10T11:27:28Z</time>
      </trkpt>
      <trkpt lat="48.66711" lon="-2.292">
        <ele>45</ele>
        <time>2014-06-10T11:27:30Z</time>
      </trkpt>
      <trkpt lat="48.66709" lon="-2.29196">
        <ele>45</ele>
        <time>2014-06-10T11:27:32Z</time>
      </trkpt>
      <trkpt lat="48.66706" lon="-2.29193">
        <ele>45</ele>
        <time>2014-06-10T11:27:34Z</time>
      </trkpt>
      <trkpt lat="48.66703" lon="-2.29189">
        <ele>45</ele>
        <time>2014-06-10T11:27:36Z</time>
      </trkpt>
      <trkpt lat="48.66702" lon="-2.29186">
        <ele>45</ele>
        <time>2014-06-10T11:27:38Z</time>
      </trkpt>
      <trkpt lat="48.667" lon="-2.29183">
        <ele>45</ele>
        <time>2014-06-10T11:27:41Z</time>
      </trkpt>
      <trkpt lat="48.66697" lon="-2.2918">
        <ele>45</ele>
        <time>2014-06-10T11:27:44Z</time>
      </trkpt>
      <trkpt lat="48.66694" lon="-2.29175">
        <ele>45</ele>
        <time>2014-06-10T11:27:46Z</time>
      </trkpt>
      <trkpt lat="48.66693" lon="-2.29171">
        <ele>45</ele>
        <time>2014-06-10T11:27:48Z</time>
      </trkpt>
      <trkpt lat="48.66693" lon="-2.29165">
        <ele>45</ele>
        <time>2014-06-10T11:27:51Z</time>
      </trkpt>
      <trkpt lat="48.66693" lon="-2.29161">
        <ele>45</ele>
        <time>2014-06-10T11:27:53Z</time>
      </trkpt>
      <trkpt lat="48.66693" lon="-2.29156">
        <ele>46</ele>
        <time>2014-06-10T11:27:55Z</time>
      </trkpt>
      <trkpt lat="48.66693" lon="-2.29152">
        <ele>46</ele>
        <time>2014-06-10T11:27:57Z</time>
      </trkpt>
      <trkpt lat="48.66694" lon="-2.29148">
        <ele>46</ele>
        <time>2014-06-10T11:27:59Z</time>
      </trkpt>
      <trkpt lat="48.66695" lon="-2.29142">
        <ele>46</ele>
        <time>2014-06-10T11:28:02Z</time>
      </trkpt>
      <trkpt lat="48.66696" lon="-2.29137">
        <ele>46</ele>
        <time>2014-06-10T11:28:05Z</time>
      </trkpt>
      <trkpt lat="48.66698" lon="-2.29135">
        <ele>46</ele>
        <time>2014-06-10T11:28:07Z</time>
      </trkpt>
      <trkpt lat="48.667" lon="-2.29132">
        <ele>46</ele>
        <time>2014-06-10T11:28:09Z</time>
      </trkpt>
      <trkpt lat="48.66702" lon="-2.2913">
        <ele>46</ele>
        <time>2014-06-10T11:28:11Z</time>
      </trkpt>
      <trkpt lat="48.66704" lon="-2.29127">
        <ele>46</ele>
        <time>2014-06-10T11:28:13Z</time>
      </trkpt>
      <trkpt lat="48.66706" lon="-2.29124">
        <ele>46</ele>
        <time>2014-06-10T11:28:15Z</time>
      </trkpt>
      <trkpt lat="48.66708" lon="-2.29121">
        <ele>46</ele>
        <time>2014-06-10T11:28:17Z</time>
      </trkpt>
      <trkpt lat="48.66709" lon="-2.29117">
        <ele>46</ele>
        <time>2014-06-10T11:28:19Z</time>
      </trkpt>
      <trkpt lat="48.66711" lon="-2.29114">
        <ele>46</ele>
        <time>2014-06-10T11:28:21Z</time>
      </trkpt>
      <trkpt lat="48.66711" lon="-2.29111">
        <ele>46</ele>
        <time>2014-06-10T11:28:26Z</time>
      </trkpt>
      <trkpt lat="48.66711" lon="-2.29109">
        <ele>46</ele>
        <time>2014-06-10T11:28:33Z</time>
      </trkpt>
      <trkpt lat="48.6671" lon="-2.29107">
        <ele>46</ele>
        <time>2014-06-10T11:28:39Z</time>
      </trkpt>
      <trkpt lat="48.66711" lon="-2.29105">
        <ele>46</ele>
        <time>2014-06-10T11:28:41Z</time>
      </trkpt>
      <trkpt lat="48.66711" lon="-2.29103">
        <ele>46</ele>
        <time>2014-06-10T11:28:49Z</time>
      </trkpt>
      <trkpt lat="48.66711" lon="-2.29101">
        <ele>46</ele>
        <time>2014-06-10T11:28:51Z</time>
      </trkpt>
      <trkpt lat="48.66712" lon="-2.29098">
        <ele>46</ele>
        <time>2014-06-10T11:28:53Z</time>
      </trkpt>
      <trkpt lat="48.66713" lon="-2.29095">
        <ele>46</ele>
        <time>2014-06-10T11:28:55Z</time>
      </trkpt>
      <trkpt lat="48.66713" lon="-2.29091">
        <ele>46</ele>
        <time>2014-06-10T11:28:57Z</time>
      </trkpt>
      <trkpt lat="48.66712" lon="-2.29087">
        <ele>46</ele>
        <time>2014-06-10T11:28:59Z</time>
      </trkpt>
      <trkpt lat="48.66712" lon="-2.29083">
        <ele>46</ele>
        <time>2014-06-10T11:29:01Z</time>
      </trkpt>
      <trkpt lat="48.66712" lon="-2.29081">
        <ele>46</ele>
        <time>2014-06-10T11:29:03Z</time>
      </trkpt>
      <trkpt lat="48.66712" lon="-2.29079">
        <ele>46</ele>
        <time>2014-06-10T11:29:05Z</time>
      </trkpt>
      <trkpt lat="48.66712" lon="-2.29076">
        <ele>46</ele>
        <time>2014-06-10T11:29:07Z</time>
      </trkpt>
      <trkpt lat="48.66711" lon="-2.29072">
        <ele>46</ele>
        <time>2014-06-10T11:29:09Z</time>
      </trkpt>
      <trkpt lat="48.6671" lon="-2.29068">
        <ele>46</ele>
        <time>2014-06-10T11:29:11Z</time>
      </trkpt>
      <trkpt lat="48.6671" lon="-2.29064">
        <ele>46</ele>
        <time>2014-06-10T11:29:13Z</time>
      </trkpt>
      <trkpt lat="48.66709" lon="-2.29059">
        <ele>46</ele>
        <time>2014-06-10T11:29:15Z</time>
      </trkpt>
      <trkpt lat="48.66707" lon="-2.29054">
        <ele>46</ele>
        <time>2014-06-10T11:29:17Z</time>
      </trkpt>
      <trkpt lat="48.66708" lon="-2.29049">
        <ele>46</ele>
        <time>2014-06-10T11:29:19Z</time>
      </trkpt>
      <trkpt lat="48.66708" lon="-2.29045">
        <ele>46</ele>
        <time>2014-06-10T11:29:21Z</time>
      </trkpt>
      <trkpt lat="48.66711" lon="-2.29041">
        <ele>45</ele>
        <time>2014-06-10T11:29:24Z</time>
      </trkpt>
      <trkpt lat="48.66712" lon="-2.29037">
        <ele>45</ele>
        <time>2014-06-10T11:29:26Z</time>
      </trkpt>
      <trkpt lat="48.66713" lon="-2.29033">
        <ele>44</ele>
        <time>2014-06-10T11:29:28Z</time>
      </trkpt>
      <trkpt lat="48.66714" lon="-2.29029">
        <ele>44</ele>
        <time>2014-06-10T11:29:30Z</time>
      </trkpt>
      <trkpt lat="48.66716" lon="-2.29026">
        <ele>44</ele>
        <time>2014-06-10T11:29:32Z</time>
      </trkpt>
      <trkpt lat="48.66717" lon="-2.29022">
        <ele>44</ele>
        <time>2014-06-10T11:29:34Z</time>
      </trkpt>
      <trkpt lat="48.66717" lon="-2.29018">
        <ele>44</ele>
        <time>2014-06-10T11:29:36Z</time>
      </trkpt>
      <trkpt lat="48.66717" lon="-2.29015">
        <ele>44</ele>
        <time>2014-06-10T11:29:38Z</time>
      </trkpt>
      <trkpt lat="48.66717" lon="-2.29012">
        <ele>44</ele>
        <time>2014-06-10T11:29:40Z</time>
      </trkpt>
      <trkpt lat="48.66716" lon="-2.2901">
        <ele>44</ele>
        <time>2014-06-10T11:29:51Z</time>
      </trkpt>
      <trkpt lat="48.66715" lon="-2.29006">
        <ele>44</ele>
        <time>2014-06-10T11:29:53Z</time>
      </trkpt>
      <trkpt lat="48.66714" lon="-2.29003">
        <ele>44</ele>
        <time>2014-06-10T11:29:55Z</time>
      </trkpt>
      <trkpt lat="48.66711" lon="-2.28998">
        <ele>44</ele>
        <time>2014-06-10T11:29:58Z</time>
      </trkpt>
      <trkpt lat="48.6671" lon="-2.28995">
        <ele>44</ele>
        <time>2014-06-10T11:30:00Z</time>
      </trkpt>
      <trkpt lat="48.66708" lon="-2.28991">
        <ele>44</ele>
        <time>2014-06-10T11:30:03Z</time>
      </trkpt>
      <trkpt lat="48.66707" lon="-2.28989">
        <ele>44</ele>
        <time>2014-06-10T11:30:08Z</time>
      </trkpt>
      <trkpt lat="48.66705" lon="-2.28987">
        <ele>44</ele>
        <time>2014-06-10T11:30:10Z</time>
      </trkpt>
      <trkpt lat="48.66703" lon="-2.28982">
        <ele>44</ele>
        <time>2014-06-10T11:30:13Z</time>
      </trkpt>
      <trkpt lat="48.66702" lon="-2.28979">
        <ele>44</ele>
        <time>2014-06-10T11:30:15Z</time>
      </trkpt>
      <trkpt lat="48.667" lon="-2.28975">
        <ele>44</ele>
        <time>2014-06-10T11:30:17Z</time>
      </trkpt>
      <trkpt lat="48.66698" lon="-2.28971">
        <ele>44</ele>
        <time>2014-06-10T11:30:19Z</time>
      </trkpt>
      <trkpt lat="48.66697" lon="-2.28967">
        <ele>44</ele>
        <time>2014-06-10T11:30:21Z</time>
      </trkpt>
      <trkpt lat="48.66696" lon="-2.28963">
        <ele>44</ele>
        <time>2014-06-10T11:30:23Z</time>
      </trkpt>
      <trkpt lat="48.66695" lon="-2.28959">
        <ele>43</ele>
        <time>2014-06-10T11:30:25Z</time>
      </trkpt>
      <trkpt lat="48.66695" lon="-2.28955">
        <ele>43</ele>
        <time>2014-06-10T11:30:27Z</time>
      </trkpt>
      <trkpt lat="48.66694" lon="-2.28951">
        <ele>43</ele>
        <time>2014-06-10T11:30:29Z</time>
      </trkpt>
      <trkpt lat="48.66694" lon="-2.28947">
        <ele>42</ele>
        <time>2014-06-10T11:30:31Z</time>
      </trkpt>
      <trkpt lat="48.66693" lon="-2.28943">
        <ele>42</ele>
        <time>2014-06-10T11:30:33Z</time>
      </trkpt>
      <trkpt lat="48.66692" lon="-2.28939">
        <ele>42</ele>
        <time>2014-06-10T11:30:35Z</time>
      </trkpt>
      <trkpt lat="48.66692" lon="-2.28935">
        <ele>42</ele>
        <time>2014-06-10T11:30:37Z</time>
      </trkpt>
      <trkpt lat="48.66691" lon="-2.2893">
        <ele>41</ele>
        <time>2014-06-10T11:30:39Z</time>
      </trkpt>
      <trkpt lat="48.66691" lon="-2.28926">
        <ele>41</ele>
        <time>2014-06-10T11:30:41Z</time>
      </trkpt>
      <trkpt lat="48.6669" lon="-2.28922">
        <ele>41</ele>
        <time>2014-06-10T11:30:43Z</time>
      </trkpt>
      <trkpt lat="48.66689" lon="-2.28918">
        <ele>41</ele>
        <time>2014-06-10T11:30:45Z</time>
      </trkpt>
      <trkpt lat="48.66689" lon="-2.28914">
        <ele>41</ele>
        <time>2014-06-10T11:30:47Z</time>
      </trkpt>
      <trkpt lat="48.66689" lon="-2.28908">
        <ele>40</ele>
        <time>2014-06-10T11:30:49Z</time>
      </trkpt>
      <trkpt lat="48.66689" lon="-2.28904">
        <ele>40</ele>
        <time>2014-06-10T11:30:51Z</time>
      </trkpt>
      <trkpt lat="48.6669" lon="-2.289">
        <ele>40</ele>
        <time>2014-06-10T11:30:53Z</time>
      </trkpt>
      <trkpt lat="48.6669" lon="-2.28895">
        <ele>40</ele>
        <time>2014-06-10T11:30:55Z</time>
      </trkpt>
      <trkpt lat="48.6669" lon="-2.28891">
        <ele>39</ele>
        <time>2014-06-10T11:30:57Z</time>
      </trkpt>
      <trkpt lat="48.66691" lon="-2.28887">
        <ele>39</ele>
        <time>2014-06-10T11:30:59Z</time>
      </trkpt>
      <trkpt lat="48.66691" lon="-2.28882">
        <ele>39</ele>
        <time>2014-06-10T11:31:01Z</time>
      </trkpt>
      <trkpt lat="48.66692" lon="-2.28878">
        <ele>39</ele>
        <time>2014-06-10T11:31:03Z</time>
      </trkpt>
      <trkpt lat="48.66692" lon="-2.28874">
        <ele>39</ele>
        <time>2014-06-10T11:31:05Z</time>
      </trkpt>
      <trkpt lat="48.66693" lon="-2.2887">
        <ele>39</ele>
        <time>2014-06-10T11:31:07Z</time>
      </trkpt>
      <trkpt lat="48.66694" lon="-2.28866">
        <ele>38</ele>
        <time>2014-06-10T11:31:09Z</time>
      </trkpt>
      <trkpt lat="48.66696" lon="-2.28864">
        <ele>38</ele>
        <time>2014-06-10T11:31:11Z</time>
      </trkpt>
      <trkpt lat="48.66697" lon="-2.28863">
        <ele>37</ele>
        <time>2014-06-10T11:31:13Z</time>
      </trkpt>
      <trkpt lat="48.66699" lon="-2.2886">
        <ele>37</ele>
        <time>2014-06-10T11:31:15Z</time>
      </trkpt>
      <trkpt lat="48.667" lon="-2.28856">
        <ele>36</ele>
        <time>2014-06-10T11:31:17Z</time>
      </trkpt>
      <trkpt lat="48.66701" lon="-2.28853">
        <ele>36</ele>
        <time>2014-06-10T11:31:19Z</time>
      </trkpt>
      <trkpt lat="48.66702" lon="-2.28849">
        <ele>36</ele>
        <time>2014-06-10T11:31:21Z</time>
      </trkpt>
      <trkpt lat="48.66704" lon="-2.28845">
        <ele>36</ele>
        <time>2014-06-10T11:31:23Z</time>
      </trkpt>
      <trkpt lat="48.66705" lon="-2.28842">
        <ele>36</ele>
        <time>2014-06-10T11:31:25Z</time>
      </trkpt>
      <trkpt lat="48.66707" lon="-2.28838">
        <ele>36</ele>
        <time>2014-06-10T11:31:27Z</time>
      </trkpt>
      <trkpt lat="48.66709" lon="-2.28834">
        <ele>36</ele>
        <time>2014-06-10T11:31:30Z</time>
      </trkpt>
      <trkpt lat="48.6671" lon="-2.28831">
        <ele>36</ele>
        <time>2014-06-10T11:31:32Z</time>
      </trkpt>
      <trkpt lat="48.66711" lon="-2.28828">
        <ele>36</ele>
        <time>2014-06-10T11:31:34Z</time>
      </trkpt>
      <trkpt lat="48.66712" lon="-2.28826">
        <ele>36</ele>
        <time>2014-06-10T11:31:36Z</time>
      </trkpt>
      <trkpt lat="48.66713" lon="-2.28824">
        <ele>36</ele>
        <time>2014-06-10T11:31:40Z</time>
      </trkpt>
      <trkpt lat="48.66714" lon="-2.28821">
        <ele>36</ele>
        <time>2014-06-10T11:31:42Z</time>
      </trkpt>
      <trkpt lat="48.66714" lon="-2.28818">
        <ele>36</ele>
        <time>2014-06-10T11:31:44Z</time>
      </trkpt>
      <trkpt lat="48.66713" lon="-2.28815">
        <ele>36</ele>
        <time>2014-06-10T11:31:46Z</time>
      </trkpt>
      <trkpt lat="48.6671" lon="-2.2881">
        <ele>35</ele>
        <time>2014-06-10T11:31:49Z</time>
      </trkpt>
      <trkpt lat="48.66707" lon="-2.28806">
        <ele>35</ele>
        <time>2014-06-10T11:31:51Z</time>
      </trkpt>
      <trkpt lat="48.66705" lon="-2.28803">
        <ele>35</ele>
        <time>2014-06-10T11:31:53Z</time>
      </trkpt>
      <trkpt lat="48.66702" lon="-2.288">
        <ele>35</ele>
        <time>2014-06-10T11:31:55Z</time>
      </trkpt>
      <trkpt lat="48.667" lon="-2.28798">
        <ele>35</ele>
        <time>2014-06-10T11:31:57Z</time>
      </trkpt>
      <trkpt lat="48.66697" lon="-2.28793">
        <ele>35</ele>
        <time>2014-06-10T11:32:00Z</time>
      </trkpt>
      <trkpt lat="48.66696" lon="-2.28789">
        <ele>34</ele>
        <time>2014-06-10T11:32:02Z</time>
      </trkpt>
      <trkpt lat="48.66695" lon="-2.28784">
        <ele>34</ele>
        <time>2014-06-10T11:32:04Z</time>
      </trkpt>
      <trkpt lat="48.66695" lon="-2.28781">
        <ele>34</ele>
        <time>2014-06-10T11:32:06Z</time>
      </trkpt>
      <trkpt lat="48.66696" lon="-2.28778">
        <ele>34</ele>
        <time>2014-06-10T11:32:08Z</time>
      </trkpt>
      <trkpt lat="48.66695" lon="-2.28775">
        <ele>34</ele>
        <time>2014-06-10T11:32:11Z</time>
      </trkpt>
      <trkpt lat="48.66694" lon="-2.2877">
        <ele>34</ele>
        <time>2014-06-10T11:32:13Z</time>
      </trkpt>
      <trkpt lat="48.66694" lon="-2.28766">
        <ele>34</ele>
        <time>2014-06-10T11:32:15Z</time>
      </trkpt>
      <trkpt lat="48.66693" lon="-2.28764">
        <ele>34</ele>
        <time>2014-06-10T11:32:17Z</time>
      </trkpt>
      <trkpt lat="48.66693" lon="-2.28762">
        <ele>33</ele>
        <time>2014-06-10T11:32:19Z</time>
      </trkpt>
      <trkpt lat="48.66693" lon="-2.28759">
        <ele>33</ele>
        <time>2014-06-10T11:32:21Z</time>
      </trkpt>
      <trkpt lat="48.66694" lon="-2.28754">
        <ele>33</ele>
        <time>2014-06-10T11:32:23Z</time>
      </trkpt>
      <trkpt lat="48.66695" lon="-2.28751">
        <ele>33</ele>
        <time>2014-06-10T11:32:25Z</time>
      </trkpt>
      <trkpt lat="48.66696" lon="-2.28747">
        <ele>33</ele>
        <time>2014-06-10T11:32:27Z</time>
      </trkpt>
      <trkpt lat="48.66697" lon="-2.28743">
        <ele>32</ele>
        <time>2014-06-10T11:32:29Z</time>
      </trkpt>
      <trkpt lat="48.66697" lon="-2.2874">
        <ele>32</ele>
        <time>2014-06-10T11:32:31Z</time>
      </trkpt>
      <trkpt lat="48.66697" lon="-2.28737">
        <ele>32</ele>
        <time>2014-06-10T11:32:33Z</time>
      </trkpt>
      <trkpt lat="48.66698" lon="-2.28734">
        <ele>31</ele>
        <time>2014-06-10T11:32:35Z</time>
      </trkpt>
      <trkpt lat="48.66697" lon="-2.28731">
        <ele>31</ele>
        <time>2014-06-10T11:32:39Z</time>
      </trkpt>
      <trkpt lat="48.66697" lon="-2.28729">
        <ele>31</ele>
        <time>2014-06-10T11:32:42Z</time>
      </trkpt>
      <trkpt lat="48.66696" lon="-2.28728">
        <ele>31</ele>
        <time>2014-06-10T11:32:49Z</time>
      </trkpt>
      <trkpt lat="48.66695" lon="-2.28726">
        <ele>31</ele>
        <time>2014-06-10T11:32:51Z</time>
      </trkpt>
      <trkpt lat="48.66693" lon="-2.28725">
        <ele>31</ele>
        <time>2014-06-10T11:33:02Z</time>
      </trkpt>
      <trkpt lat="48.66692" lon="-2.28722">
        <ele>31</ele>
        <time>2014-06-10T11:33:04Z</time>
      </trkpt>
      <trkpt lat="48.66689" lon="-2.28718">
        <ele>31</ele>
        <time>2014-06-10T11:33:07Z</time>
      </trkpt>
      <trkpt lat="48.66688" lon="-2.28715">
        <ele>31</ele>
        <time>2014-06-10T11:33:09Z</time>
      </trkpt>
      <trkpt lat="48.66686" lon="-2.28713">
        <ele>31</ele>
        <time>2014-06-10T11:33:11Z</time>
      </trkpt>
      <trkpt lat="48.66684" lon="-2.28711">
        <ele>31</ele>
        <time>2014-06-10T11:33:13Z</time>
      </trkpt>
      <trkpt lat="48.6668" lon="-2.28708">
        <ele>30</ele>
        <time>2014-06-10T11:33:16Z</time>
      </trkpt>
      <trkpt lat="48.66677" lon="-2.28707">
        <ele>30</ele>
        <time>2014-06-10T11:33:19Z</time>
      </trkpt>
      <trkpt lat="48.66674" lon="-2.28707">
        <ele>30</ele>
        <time>2014-06-10T11:33:21Z</time>
      </trkpt>
      <trkpt lat="48.66671" lon="-2.28707">
        <ele>29</ele>
        <time>2014-06-10T11:33:23Z</time>
      </trkpt>
      <trkpt lat="48.66669" lon="-2.28707">
        <ele>29</ele>
        <time>2014-06-10T11:33:25Z</time>
      </trkpt>
      <trkpt lat="48.66666" lon="-2.28707">
        <ele>29</ele>
        <time>2014-06-10T11:33:27Z</time>
      </trkpt>
      <trkpt lat="48.66663" lon="-2.28706">
        <ele>29</ele>
        <time>2014-06-10T11:33:29Z</time>
      </trkpt>
      <trkpt lat="48.66661" lon="-2.28706">
        <ele>29</ele>
        <time>2014-06-10T11:33:31Z</time>
      </trkpt>
      <trkpt lat="48.66659" lon="-2.28704">
        <ele>28</ele>
        <time>2014-06-10T11:33:33Z</time>
      </trkpt>
      <trkpt lat="48.66656" lon="-2.28701">
        <ele>27</ele>
        <time>2014-06-10T11:33:36Z</time>
      </trkpt>
      <trkpt lat="48.66654" lon="-2.28699">
        <ele>27</ele>
        <time>2014-06-10T11:33:38Z</time>
      </trkpt>
      <trkpt lat="48.66652" lon="-2.28698">
        <ele>27</ele>
        <time>2014-06-10T11:33:40Z</time>
      </trkpt>
      <trkpt lat="48.6665" lon="-2.28696">
        <ele>27</ele>
        <time>2014-06-10T11:33:42Z</time>
      </trkpt>
      <trkpt lat="48.66647" lon="-2.28694">
        <ele>27</ele>
        <time>2014-06-10T11:33:45Z</time>
      </trkpt>
      <trkpt lat="48.66645" lon="-2.28691">
        <ele>27</ele>
        <time>2014-06-10T11:33:48Z</time>
      </trkpt>
      <trkpt lat="48.66643" lon="-2.2869">
        <ele>26</ele>
        <time>2014-06-10T11:33:50Z</time>
      </trkpt>
      <trkpt lat="48.66642" lon="-2.28688">
        <ele>26</ele>
        <time>2014-06-10T11:33:52Z</time>
      </trkpt>
      <trkpt lat="48.66641" lon="-2.28687">
        <ele>25</ele>
        <time>2014-06-10T11:33:54Z</time>
      </trkpt>
      <trkpt lat="48.66639" lon="-2.28685">
        <ele>25</ele>
        <time>2014-06-10T11:33:56Z</time>
      </trkpt>
      <trkpt lat="48.66637" lon="-2.28683">
        <ele>24</ele>
        <time>2014-06-10T11:33:58Z</time>
      </trkpt>
      <trkpt lat="48.66636" lon="-2.28682">
        <ele>24</ele>
        <time>2014-06-10T11:34:00Z</time>
      </trkpt>
      <trkpt lat="48.66634" lon="-2.28681">
        <ele>23</ele>
        <time>2014-06-10T11:34:02Z</time>
      </trkpt>
      <trkpt lat="48.66633" lon="-2.28681">
        <ele>23</ele>
        <time>2014-06-10T11:34:04Z</time>
      </trkpt>
      <trkpt lat="48.66631" lon="-2.2868">
        <ele>22</ele>
        <time>2014-06-10T11:34:06Z</time>
      </trkpt>
      <trkpt lat="48.66629" lon="-2.2868">
        <ele>22</ele>
        <time>2014-06-10T11:34:08Z</time>
      </trkpt>
      <trkpt lat="48.66627" lon="-2.28682">
        <ele>21</ele>
        <time>2014-06-10T11:34:10Z</time>
      </trkpt>
      <trkpt lat="48.66626" lon="-2.28684">
        <ele>21</ele>
        <time>2014-06-10T11:34:12Z</time>
      </trkpt>
      <trkpt lat="48.66624" lon="-2.28686">
        <ele>21</ele>
        <time>2014-06-10T11:34:14Z</time>
      </trkpt>
      <trkpt lat="48.66622" lon="-2.28689">
        <ele>21</ele>
        <time>2014-06-10T11:34:16Z</time>
      </trkpt>
      <trkpt lat="48.66621" lon="-2.28691">
        <ele>21</ele>
        <time>2014-06-10T11:34:18Z</time>
      </trkpt>
      <trkpt lat="48.66619" lon="-2.28693">
        <ele>21</ele>
        <time>2014-06-10T11:34:20Z</time>
      </trkpt>
      <trkpt lat="48.66618" lon="-2.28694">
        <ele>21</ele>
        <time>2014-06-10T11:34:23Z</time>
      </trkpt>
      <trkpt lat="48.66616" lon="-2.28694">
        <ele>21</ele>
        <time>2014-06-10T11:34:25Z</time>
      </trkpt>
      <trkpt lat="48.66615" lon="-2.28695">
        <ele>21</ele>
        <time>2014-06-10T11:34:27Z</time>
      </trkpt>
      <trkpt lat="48.66613" lon="-2.28696">
        <ele>21</ele>
        <time>2014-06-10T11:34:29Z</time>
      </trkpt>
      <trkpt lat="48.66611" lon="-2.28696">
        <ele>21</ele>
        <time>2014-06-10T11:34:31Z</time>
      </trkpt>
      <trkpt lat="48.66609" lon="-2.28696">
        <ele>21</ele>
        <time>2014-06-10T11:34:33Z</time>
      </trkpt>
      <trkpt lat="48.66607" lon="-2.28694">
        <ele>21</ele>
        <time>2014-06-10T11:34:35Z</time>
      </trkpt>
      <trkpt lat="48.66604" lon="-2.28692">
        <ele>21</ele>
        <time>2014-06-10T11:34:37Z</time>
      </trkpt>
      <trkpt lat="48.666" lon="-2.2869">
        <ele>21</ele>
        <time>2014-06-10T11:34:40Z</time>
      </trkpt>
      <trkpt lat="48.66599" lon="-2.28688">
        <ele>21</ele>
        <time>2014-06-10T11:34:42Z</time>
      </trkpt>
      <trkpt lat="48.66597" lon="-2.28688">
        <ele>21</ele>
        <time>2014-06-10T11:34:48Z</time>
      </trkpt>
      <trkpt lat="48.66596" lon="-2.28685">
        <ele>21</ele>
        <time>2014-06-10T11:34:50Z</time>
      </trkpt>
      <trkpt lat="48.66594" lon="-2.28683">
        <ele>21</ele>
        <time>2014-06-10T11:34:52Z</time>
      </trkpt>
      <trkpt lat="48.66593" lon="-2.2868">
        <ele>21</ele>
        <time>2014-06-10T11:34:54Z</time>
      </trkpt>
      <trkpt lat="48.66591" lon="-2.28678">
        <ele>21</ele>
        <time>2014-06-10T11:34:56Z</time>
      </trkpt>
      <trkpt lat="48.66589" lon="-2.28676">
        <ele>21</ele>
        <time>2014-06-10T11:34:58Z</time>
      </trkpt>
      <trkpt lat="48.66587" lon="-2.28676">
        <ele>21</ele>
        <time>2014-06-10T11:35:00Z</time>
      </trkpt>
      <trkpt lat="48.66586" lon="-2.28675">
        <ele>21</ele>
        <time>2014-06-10T11:35:03Z</time>
      </trkpt>
      <trkpt lat="48.66585" lon="-2.28674">
        <ele>21</ele>
        <time>2014-06-10T11:35:09Z</time>
      </trkpt>
      <trkpt lat="48.66583" lon="-2.28673">
        <ele>21</ele>
        <time>2014-06-10T11:35:28Z</time>
      </trkpt>
      <trkpt lat="48.66582" lon="-2.28671">
        <ele>21</ele>
        <time>2014-06-10T11:35:30Z</time>
      </trkpt>
      <trkpt lat="48.6658" lon="-2.28668">
        <ele>21</ele>
        <time>2014-06-10T11:35:32Z</time>
      </trkpt>
      <trkpt lat="48.66579" lon="-2.28666">
        <ele>21</ele>
        <time>2014-06-10T11:35:34Z</time>
      </trkpt>
      <trkpt lat="48.66577" lon="-2.28663">
        <ele>21</ele>
        <time>2014-06-10T11:35:36Z</time>
      </trkpt>
      <trkpt lat="48.66574" lon="-2.28661">
        <ele>21</ele>
        <time>2014-06-10T11:35:38Z</time>
      </trkpt>
      <trkpt lat="48.66573" lon="-2.28659">
        <ele>21</ele>
        <time>2014-06-10T11:35:40Z</time>
      </trkpt>
      <trkpt lat="48.6657" lon="-2.28658">
        <ele>21</ele>
        <time>2014-06-10T11:35:42Z</time>
      </trkpt>
      <trkpt lat="48.66568" lon="-2.28657">
        <ele>21</ele>
        <time>2014-06-10T11:35:44Z</time>
      </trkpt>
      <trkpt lat="48.66565" lon="-2.28658">
        <ele>21</ele>
        <time>2014-06-10T11:35:46Z</time>
      </trkpt>
      <trkpt lat="48.66563" lon="-2.28659">
        <ele>21</ele>
        <time>2014-06-10T11:35:48Z</time>
      </trkpt>
      <trkpt lat="48.6656" lon="-2.2866">
        <ele>21</ele>
        <time>2014-06-10T11:35:51Z</time>
      </trkpt>
      <trkpt lat="48.66558" lon="-2.2866">
        <ele>21</ele>
        <time>2014-06-10T11:35:53Z</time>
      </trkpt>
      <trkpt lat="48.66556" lon="-2.28661">
        <ele>21</ele>
        <time>2014-06-10T11:35:55Z</time>
      </trkpt>
      <trkpt lat="48.66554" lon="-2.28661">
        <ele>21</ele>
        <time>2014-06-10T11:35:57Z</time>
      </trkpt>
      <trkpt lat="48.66551" lon="-2.28661">
        <ele>21</ele>
        <time>2014-06-10T11:36:00Z</time>
      </trkpt>
      <trkpt lat="48.66547" lon="-2.2866">
        <ele>21</ele>
        <time>2014-06-10T11:36:03Z</time>
      </trkpt>
      <trkpt lat="48.66545" lon="-2.28659">
        <ele>21</ele>
        <time>2014-06-10T11:36:05Z</time>
      </trkpt>
      <trkpt lat="48.66543" lon="-2.28657">
        <ele>22</ele>
        <time>2014-06-10T11:36:07Z</time>
      </trkpt>
      <trkpt lat="48.66542" lon="-2.28655">
        <ele>22</ele>
        <time>2014-06-10T11:36:09Z</time>
      </trkpt>
      <trkpt lat="48.66539" lon="-2.28654">
        <ele>22</ele>
        <time>2014-06-10T11:36:11Z</time>
      </trkpt>
      <trkpt lat="48.66537" lon="-2.28653">
        <ele>22</ele>
        <time>2014-06-10T11:36:13Z</time>
      </trkpt>
      <trkpt lat="48.66535" lon="-2.28652">
        <ele>22</ele>
        <time>2014-06-10T11:36:15Z</time>
      </trkpt>
      <trkpt lat="48.66533" lon="-2.28651">
        <ele>22</ele>
        <time>2014-06-10T11:36:17Z</time>
      </trkpt>
      <trkpt lat="48.6653" lon="-2.28649">
        <ele>22</ele>
        <time>2014-06-10T11:36:20Z</time>
      </trkpt>
      <trkpt lat="48.66527" lon="-2.28648">
        <ele>22</ele>
        <time>2014-06-10T11:36:22Z</time>
      </trkpt>
      <trkpt lat="48.66525" lon="-2.28645">
        <ele>22</ele>
        <time>2014-06-10T11:36:25Z</time>
      </trkpt>
      <trkpt lat="48.66523" lon="-2.28643">
        <ele>22</ele>
        <time>2014-06-10T11:36:27Z</time>
      </trkpt>
      <trkpt lat="48.66521" lon="-2.28641">
        <ele>22</ele>
        <time>2014-06-10T11:36:29Z</time>
      </trkpt>
      <trkpt lat="48.66519" lon="-2.28639">
        <ele>22</ele>
        <time>2014-06-10T11:36:31Z</time>
      </trkpt>
      <trkpt lat="48.66517" lon="-2.28636">
        <ele>22</ele>
        <time>2014-06-10T11:36:33Z</time>
      </trkpt>
      <trkpt lat="48.66516" lon="-2.28633">
        <ele>22</ele>
        <time>2014-06-10T11:36:35Z</time>
      </trkpt>
      <trkpt lat="48.66515" lon="-2.2863">
        <ele>22</ele>
        <time>2014-06-10T11:36:37Z</time>
      </trkpt>
      <trkpt lat="48.66514" lon="-2.28627">
        <ele>22</ele>
        <time>2014-06-10T11:36:39Z</time>
      </trkpt>
      <trkpt lat="48.66514" lon="-2.28624">
        <ele>22</ele>
        <time>2014-06-10T11:36:41Z</time>
      </trkpt>
      <trkpt lat="48.66514" lon="-2.28622">
        <ele>22</ele>
        <time>2014-06-10T11:36:43Z</time>
      </trkpt>
      <trkpt lat="48.66514" lon="-2.28619">
        <ele>22</ele>
        <time>2014-06-10T11:36:45Z</time>
      </trkpt>
      <trkpt lat="48.66515" lon="-2.28617">
        <ele>22</ele>
        <time>2014-06-10T11:36:47Z</time>
      </trkpt>
      <trkpt lat="48.66516" lon="-2.28615">
        <ele>22</ele>
        <time>2014-06-10T11:36:50Z</time>
      </trkpt>
      <trkpt lat="48.66515" lon="-2.28614">
        <ele>22</ele>
        <time>2014-06-10T11:37:03Z</time>
      </trkpt>
      <trkpt lat="48.66516" lon="-2.28611">
        <ele>22</ele>
        <time>2014-06-10T11:37:17Z</time>
      </trkpt>
      <trkpt lat="48.66516" lon="-2.28609">
        <ele>22</ele>
        <time>2014-06-10T11:37:19Z</time>
      </trkpt>
      <trkpt lat="48.66517" lon="-2.28608">
        <ele>22</ele>
        <time>2014-06-10T11:37:22Z</time>
      </trkpt>
      <trkpt lat="48.66517" lon="-2.28605">
        <ele>22</ele>
        <time>2014-06-10T11:37:28Z</time>
      </trkpt>
      <trkpt lat="48.66517" lon="-2.28603">
        <ele>22</ele>
        <time>2014-06-10T11:37:30Z</time>
      </trkpt>
      <trkpt lat="48.66518" lon="-2.286">
        <ele>22</ele>
        <time>2014-06-10T11:37:32Z</time>
      </trkpt>
      <trkpt lat="48.66519" lon="-2.28597">
        <ele>22</ele>
        <time>2014-06-10T11:37:34Z</time>
      </trkpt>
      <trkpt lat="48.6652" lon="-2.28593">
        <ele>22</ele>
        <time>2014-06-10T11:37:36Z</time>
      </trkpt>
      <trkpt lat="48.66519" lon="-2.28588">
        <ele>21</ele>
        <time>2014-06-10T11:37:39Z</time>
      </trkpt>
      <trkpt lat="48.66516" lon="-2.28586">
        <ele>21</ele>
        <time>2014-06-10T11:37:41Z</time>
      </trkpt>
      <trkpt lat="48.66514" lon="-2.28584">
        <ele>21</ele>
        <time>2014-06-10T11:37:43Z</time>
      </trkpt>
      <trkpt lat="48.66512" lon="-2.28582">
        <ele>21</ele>
        <time>2014-06-10T11:37:45Z</time>
      </trkpt>
      <trkpt lat="48.66509" lon="-2.2858">
        <ele>21</ele>
        <time>2014-06-10T11:37:47Z</time>
      </trkpt>
      <trkpt lat="48.66507" lon="-2.28579">
        <ele>21</ele>
        <time>2014-06-10T11:37:49Z</time>
      </trkpt>
      <trkpt lat="48.66504" lon="-2.28578">
        <ele>21</ele>
        <time>2014-06-10T11:37:51Z</time>
      </trkpt>
      <trkpt lat="48.66502" lon="-2.28576">
        <ele>21</ele>
        <time>2014-06-10T11:37:53Z</time>
      </trkpt>
      <trkpt lat="48.66499" lon="-2.28575">
        <ele>21</ele>
        <time>2014-06-10T11:37:55Z</time>
      </trkpt>
      <trkpt lat="48.66496" lon="-2.28574">
        <ele>21</ele>
        <time>2014-06-10T11:37:57Z</time>
      </trkpt>
      <trkpt lat="48.66494" lon="-2.28573">
        <ele>21</ele>
        <time>2014-06-10T11:37:59Z</time>
      </trkpt>
      <trkpt lat="48.66492" lon="-2.28572">
        <ele>20</ele>
        <time>2014-06-10T11:38:01Z</time>
      </trkpt>
      <trkpt lat="48.6649" lon="-2.28573">
        <ele>20</ele>
        <time>2014-06-10T11:38:03Z</time>
      </trkpt>
      <trkpt lat="48.66487" lon="-2.28575">
        <ele>20</ele>
        <time>2014-06-10T11:38:06Z</time>
      </trkpt>
      <trkpt lat="48.66486" lon="-2.28577">
        <ele>20</ele>
        <time>2014-06-10T11:38:17Z</time>
      </trkpt>
      <trkpt lat="48.66484" lon="-2.28579">
        <ele>20</ele>
        <time>2014-06-10T11:38:19Z</time>
      </trkpt>
      <trkpt lat="48.66482" lon="-2.28581">
        <ele>20</ele>
        <time>2014-06-10T11:38:21Z</time>
      </trkpt>
      <trkpt lat="48.6648" lon="-2.28584">
        <ele>20</ele>
        <time>2014-06-10T11:38:23Z</time>
      </trkpt>
      <trkpt lat="48.66479" lon="-2.28587">
        <ele>20</ele>
        <time>2014-06-10T11:38:25Z</time>
      </trkpt>
      <trkpt lat="48.66476" lon="-2.28592">
        <ele>20</ele>
        <time>2014-06-10T11:38:28Z</time>
      </trkpt>
      <trkpt lat="48.66474" lon="-2.28597">
        <ele>20</ele>
        <time>2014-06-10T11:38:31Z</time>
      </trkpt>
      <trkpt lat="48.66472" lon="-2.28599">
        <ele>20</ele>
        <time>2014-06-10T11:38:33Z</time>
      </trkpt>
      <trkpt lat="48.66471" lon="-2.28602">
        <ele>20</ele>
        <time>2014-06-10T11:38:35Z</time>
      </trkpt>
      <trkpt lat="48.6647" lon="-2.28605">
        <ele>20</ele>
        <time>2014-06-10T11:38:37Z</time>
      </trkpt>
      <trkpt lat="48.66468" lon="-2.28606">
        <ele>20</ele>
        <time>2014-06-10T11:38:39Z</time>
      </trkpt>
      <trkpt lat="48.66466" lon="-2.28608">
        <ele>20</ele>
        <time>2014-06-10T11:38:41Z</time>
      </trkpt>
      <trkpt lat="48.66465" lon="-2.28611">
        <ele>20</ele>
        <time>2014-06-10T11:38:43Z</time>
      </trkpt>
      <trkpt lat="48.66463" lon="-2.28613">
        <ele>21</ele>
        <time>2014-06-10T11:38:45Z</time>
      </trkpt>
      <trkpt lat="48.66462" lon="-2.28616">
        <ele>21</ele>
        <time>2014-06-10T11:38:47Z</time>
      </trkpt>
      <trkpt lat="48.6646" lon="-2.28618">
        <ele>22</ele>
        <time>2014-06-10T11:38:49Z</time>
      </trkpt>
      <trkpt lat="48.66457" lon="-2.28622">
        <ele>22</ele>
        <time>2014-06-10T11:38:52Z</time>
      </trkpt>
      <trkpt lat="48.66455" lon="-2.28623">
        <ele>22</ele>
        <time>2014-06-10T11:38:54Z</time>
      </trkpt>
      <trkpt lat="48.66454" lon="-2.28625">
        <ele>23</ele>
        <time>2014-06-10T11:38:57Z</time>
      </trkpt>
      <trkpt lat="48.66452" lon="-2.28625">
        <ele>23</ele>
        <time>2014-06-10T11:39:05Z</time>
      </trkpt>
      <trkpt lat="48.66451" lon="-2.28626">
        <ele>23</ele>
        <time>2014-06-10T11:39:07Z</time>
      </trkpt>
      <trkpt lat="48.66449" lon="-2.28627">
        <ele>23</ele>
        <time>2014-06-10T11:39:09Z</time>
      </trkpt>
      <trkpt lat="48.66446" lon="-2.28629">
        <ele>23</ele>
        <time>2014-06-10T11:39:12Z</time>
      </trkpt>
      <trkpt lat="48.66443" lon="-2.28631">
        <ele>23</ele>
        <time>2014-06-10T11:39:15Z</time>
      </trkpt>
      <trkpt lat="48.66441" lon="-2.28633">
        <ele>23</ele>
        <time>2014-06-10T11:39:17Z</time>
      </trkpt>
      <trkpt lat="48.66439" lon="-2.28634">
        <ele>23</ele>
        <time>2014-06-10T11:39:19Z</time>
      </trkpt>
      <trkpt lat="48.66436" lon="-2.28636">
        <ele>23</ele>
        <time>2014-06-10T11:39:21Z</time>
      </trkpt>
      <trkpt lat="48.66434" lon="-2.28637">
        <ele>23</ele>
        <time>2014-06-10T11:39:23Z</time>
      </trkpt>
      <trkpt lat="48.66431" lon="-2.2864">
        <ele>23</ele>
        <time>2014-06-10T11:39:26Z</time>
      </trkpt>
      <trkpt lat="48.66428" lon="-2.2864">
        <ele>23</ele>
        <time>2014-06-10T11:39:28Z</time>
      </trkpt>
      <trkpt lat="48.66425" lon="-2.28642">
        <ele>23</ele>
        <time>2014-06-10T11:39:31Z</time>
      </trkpt>
      <trkpt lat="48.66423" lon="-2.28643">
        <ele>23</ele>
        <time>2014-06-10T11:39:33Z</time>
      </trkpt>
      <trkpt lat="48.66421" lon="-2.28644">
        <ele>23</ele>
        <time>2014-06-10T11:39:35Z</time>
      </trkpt>
      <trkpt lat="48.66418" lon="-2.28645">
        <ele>23</ele>
        <time>2014-06-10T11:39:37Z</time>
      </trkpt>
      <trkpt lat="48.66416" lon="-2.28647">
        <ele>23</ele>
        <time>2014-06-10T11:39:39Z</time>
      </trkpt>
      <trkpt lat="48.66414" lon="-2.28649">
        <ele>23</ele>
        <time>2014-06-10T11:39:41Z</time>
      </trkpt>
      <trkpt lat="48.66412" lon="-2.28651">
        <ele>23</ele>
        <time>2014-06-10T11:39:43Z</time>
      </trkpt>
      <trkpt lat="48.6641" lon="-2.28654">
        <ele>23</ele>
        <time>2014-06-10T11:39:45Z</time>
      </trkpt>
      <trkpt lat="48.66408" lon="-2.28655">
        <ele>23</ele>
        <time>2014-06-10T11:39:47Z</time>
      </trkpt>
      <trkpt lat="48.66406" lon="-2.28656">
        <ele>23</ele>
        <time>2014-06-10T11:39:49Z</time>
      </trkpt>
      <trkpt lat="48.66404" lon="-2.28657">
        <ele>23</ele>
        <time>2014-06-10T11:39:51Z</time>
      </trkpt>
      <trkpt lat="48.66401" lon="-2.28658">
        <ele>23</ele>
        <time>2014-06-10T11:39:53Z</time>
      </trkpt>
      <trkpt lat="48.66399" lon="-2.28659">
        <ele>23</ele>
        <time>2014-06-10T11:39:55Z</time>
      </trkpt>
      <trkpt lat="48.66396" lon="-2.2866">
        <ele>23</ele>
        <time>2014-06-10T11:39:57Z</time>
      </trkpt>
      <trkpt lat="48.66393" lon="-2.28662">
        <ele>23</ele>
        <time>2014-06-10T11:39:59Z</time>
      </trkpt>
      <trkpt lat="48.66391" lon="-2.28663">
        <ele>23</ele>
        <time>2014-06-10T11:40:01Z</time>
      </trkpt>
      <trkpt lat="48.66388" lon="-2.28664">
        <ele>23</ele>
        <time>2014-06-10T11:40:03Z</time>
      </trkpt>
      <trkpt lat="48.66386" lon="-2.28666">
        <ele>23</ele>
        <time>2014-06-10T11:40:05Z</time>
      </trkpt>
      <trkpt lat="48.66383" lon="-2.28667">
        <ele>23</ele>
        <time>2014-06-10T11:40:07Z</time>
      </trkpt>
      <trkpt lat="48.6638" lon="-2.28667">
        <ele>23</ele>
        <time>2014-06-10T11:40:10Z</time>
      </trkpt>
      <trkpt lat="48.66378" lon="-2.28668">
        <ele>23</ele>
        <time>2014-06-10T11:40:12Z</time>
      </trkpt>
      <trkpt lat="48.66377" lon="-2.28669">
        <ele>23</ele>
        <time>2014-06-10T11:40:14Z</time>
      </trkpt>
      <trkpt lat="48.66375" lon="-2.28671">
        <ele>23</ele>
        <time>2014-06-10T11:40:16Z</time>
      </trkpt>
      <trkpt lat="48.66373" lon="-2.28673">
        <ele>23</ele>
        <time>2014-06-10T11:40:18Z</time>
      </trkpt>
      <trkpt lat="48.66372" lon="-2.28674">
        <ele>23</ele>
        <time>2014-06-10T11:40:21Z</time>
      </trkpt>
      <trkpt lat="48.6637" lon="-2.28675">
        <ele>23</ele>
        <time>2014-06-10T11:40:25Z</time>
      </trkpt>
      <trkpt lat="48.66369" lon="-2.28677">
        <ele>23</ele>
        <time>2014-06-10T11:40:27Z</time>
      </trkpt>
      <trkpt lat="48.66367" lon="-2.28679">
        <ele>23</ele>
        <time>2014-06-10T11:40:29Z</time>
      </trkpt>
      <trkpt lat="48.66365" lon="-2.2868">
        <ele>23</ele>
        <time>2014-06-10T11:40:31Z</time>
      </trkpt>
      <trkpt lat="48.66362" lon="-2.28681">
        <ele>23</ele>
        <time>2014-06-10T11:40:33Z</time>
      </trkpt>
      <trkpt lat="48.6636" lon="-2.28683">
        <ele>23</ele>
        <time>2014-06-10T11:40:35Z</time>
      </trkpt>
      <trkpt lat="48.66357" lon="-2.28684">
        <ele>23</ele>
        <time>2014-06-10T11:40:37Z</time>
      </trkpt>
      <trkpt lat="48.66353" lon="-2.28686">
        <ele>23</ele>
        <time>2014-06-10T11:40:40Z</time>
      </trkpt>
      <trkpt lat="48.66351" lon="-2.28688">
        <ele>23</ele>
        <time>2014-06-10T11:40:42Z</time>
      </trkpt>
      <trkpt lat="48.66348" lon="-2.2869">
        <ele>23</ele>
        <time>2014-06-10T11:40:44Z</time>
      </trkpt>
      <trkpt lat="48.66346" lon="-2.28692">
        <ele>23</ele>
        <time>2014-06-10T11:40:46Z</time>
      </trkpt>
      <trkpt lat="48.66342" lon="-2.28694">
        <ele>22</ele>
        <time>2014-06-10T11:40:49Z</time>
      </trkpt>
      <trkpt lat="48.66339" lon="-2.28698">
        <ele>22</ele>
        <time>2014-06-10T11:40:52Z</time>
      </trkpt>
      <trkpt lat="48.66336" lon="-2.28701">
        <ele>21</ele>
        <time>2014-06-10T11:40:55Z</time>
      </trkpt>
      <trkpt lat="48.66333" lon="-2.28704">
        <ele>21</ele>
        <time>2014-06-10T11:40:58Z</time>
      </trkpt>
      <trkpt lat="48.6633" lon="-2.28708">
        <ele>20</ele>
        <time>2014-06-10T11:41:01Z</time>
      </trkpt>
      <trkpt lat="48.66328" lon="-2.2871">
        <ele>20</ele>
        <time>2014-06-10T11:41:03Z</time>
      </trkpt>
      <trkpt lat="48.66326" lon="-2.28714">
        <ele>20</ele>
        <time>2014-06-10T11:41:05Z</time>
      </trkpt>
      <trkpt lat="48.66325" lon="-2.28718">
        <ele>20</ele>
        <time>2014-06-10T11:41:07Z</time>
      </trkpt>
      <trkpt lat="48.66325" lon="-2.28722">
        <ele>20</ele>
        <time>2014-06-10T11:41:09Z</time>
      </trkpt>
      <trkpt lat="48.66324" lon="-2.28726">
        <ele>20</ele>
        <time>2014-06-10T11:41:11Z</time>
      </trkpt>
      <trkpt lat="48.66322" lon="-2.28731">
        <ele>20</ele>
        <time>2014-06-10T11:41:14Z</time>
      </trkpt>
      <trkpt lat="48.66322" lon="-2.28734">
        <ele>20</ele>
        <time>2014-06-10T11:41:16Z</time>
      </trkpt>
      <trkpt lat="48.66321" lon="-2.28737">
        <ele>20</ele>
        <time>2014-06-10T11:41:18Z</time>
      </trkpt>
      <trkpt lat="48.6632" lon="-2.2874">
        <ele>20</ele>
        <time>2014-06-10T11:41:20Z</time>
      </trkpt>
      <trkpt lat="48.6632" lon="-2.28744">
        <ele>20</ele>
        <time>2014-06-10T11:41:22Z</time>
      </trkpt>
      <trkpt lat="48.66319" lon="-2.28748">
        <ele>20</ele>
        <time>2014-06-10T11:41:24Z</time>
      </trkpt>
      <trkpt lat="48.66319" lon="-2.28751">
        <ele>20</ele>
        <time>2014-06-10T11:41:26Z</time>
      </trkpt>
      <trkpt lat="48.66318" lon="-2.28756">
        <ele>20</ele>
        <time>2014-06-10T11:41:29Z</time>
      </trkpt>
      <trkpt lat="48.66317" lon="-2.28758">
        <ele>20</ele>
        <time>2014-06-10T11:41:31Z</time>
      </trkpt>
      <trkpt lat="48.66318" lon="-2.28761">
        <ele>20</ele>
        <time>2014-06-10T11:41:33Z</time>
      </trkpt>
      <trkpt lat="48.66319" lon="-2.28763">
        <ele>20</ele>
        <time>2014-06-10T11:41:35Z</time>
      </trkpt>
      <trkpt lat="48.66319" lon="-2.28768">
        <ele>20</ele>
        <time>2014-06-10T11:41:38Z</time>
      </trkpt>
      <trkpt lat="48.66319" lon="-2.28771">
        <ele>20</ele>
        <time>2014-06-10T11:41:40Z</time>
      </trkpt>
      <trkpt lat="48.66319" lon="-2.28776">
        <ele>20</ele>
        <time>2014-06-10T11:41:43Z</time>
      </trkpt>
      <trkpt lat="48.66319" lon="-2.28779">
        <ele>20</ele>
        <time>2014-06-10T11:41:45Z</time>
      </trkpt>
      <trkpt lat="48.66319" lon="-2.28781">
        <ele>20</ele>
        <time>2014-06-10T11:41:47Z</time>
      </trkpt>
      <trkpt lat="48.6632" lon="-2.28782">
        <ele>20</ele>
        <time>2014-06-10T11:41:51Z</time>
      </trkpt>
      <trkpt lat="48.6632" lon="-2.28784">
        <ele>22</ele>
        <time>2014-06-10T11:41:59Z</time>
      </trkpt>
      <trkpt lat="48.6632" lon="-2.28786">
        <ele>22</ele>
        <time>2014-06-10T11:42:02Z</time>
      </trkpt>
      <trkpt lat="48.6632" lon="-2.2879">
        <ele>23</ele>
        <time>2014-06-10T11:42:04Z</time>
      </trkpt>
      <trkpt lat="48.6632" lon="-2.28793">
        <ele>23</ele>
        <time>2014-06-10T11:42:06Z</time>
      </trkpt>
      <trkpt lat="48.66319" lon="-2.28796">
        <ele>24</ele>
        <time>2014-06-10T11:42:08Z</time>
      </trkpt>
      <trkpt lat="48.66319" lon="-2.28799">
        <ele>24</ele>
        <time>2014-06-10T11:42:10Z</time>
      </trkpt>
      <trkpt lat="48.6632" lon="-2.28801">
        <ele>24</ele>
        <time>2014-06-10T11:42:12Z</time>
      </trkpt>
      <trkpt lat="48.66321" lon="-2.28803">
        <ele>24</ele>
        <time>2014-06-10T11:42:14Z</time>
      </trkpt>
      <trkpt lat="48.66322" lon="-2.28808">
        <ele>25</ele>
        <time>2014-06-10T11:42:16Z</time>
      </trkpt>
      <trkpt lat="48.66323" lon="-2.28812">
        <ele>25</ele>
        <time>2014-06-10T11:42:18Z</time>
      </trkpt>
      <trkpt lat="48.66323" lon="-2.28816">
        <ele>25</ele>
        <time>2014-06-10T11:42:20Z</time>
      </trkpt>
      <trkpt lat="48.66323" lon="-2.28821">
        <ele>26</ele>
        <time>2014-06-10T11:42:22Z</time>
      </trkpt>
      <trkpt lat="48.66324" lon="-2.28825">
        <ele>27</ele>
        <time>2014-06-10T11:42:24Z</time>
      </trkpt>
      <trkpt lat="48.66325" lon="-2.28829">
        <ele>27</ele>
        <time>2014-06-10T11:42:26Z</time>
      </trkpt>
      <trkpt lat="48.66324" lon="-2.28833">
        <ele>27</ele>
        <time>2014-06-10T11:42:28Z</time>
      </trkpt>
      <trkpt lat="48.66324" lon="-2.28836">
        <ele>27</ele>
        <time>2014-06-10T11:42:30Z</time>
      </trkpt>
      <trkpt lat="48.66323" lon="-2.28839">
        <ele>27</ele>
        <time>2014-06-10T11:42:32Z</time>
      </trkpt>
      <trkpt lat="48.66322" lon="-2.28843">
        <ele>27</ele>
        <time>2014-06-10T11:42:34Z</time>
      </trkpt>
      <trkpt lat="48.66321" lon="-2.28847">
        <ele>27</ele>
        <time>2014-06-10T11:42:36Z</time>
      </trkpt>
      <trkpt lat="48.66321" lon="-2.28851">
        <ele>27</ele>
        <time>2014-06-10T11:42:38Z</time>
      </trkpt>
      <trkpt lat="48.66321" lon="-2.28855">
        <ele>27</ele>
        <time>2014-06-10T11:42:40Z</time>
      </trkpt>
      <trkpt lat="48.66321" lon="-2.28859">
        <ele>27</ele>
        <time>2014-06-10T11:42:42Z</time>
      </trkpt>
      <trkpt lat="48.66321" lon="-2.28863">
        <ele>27</ele>
        <time>2014-06-10T11:42:44Z</time>
      </trkpt>
      <trkpt lat="48.66321" lon="-2.28866">
        <ele>27</ele>
        <time>2014-06-10T11:42:46Z</time>
      </trkpt>
      <trkpt lat="48.66322" lon="-2.2887">
        <ele>27</ele>
        <time>2014-06-10T11:42:48Z</time>
      </trkpt>
      <trkpt lat="48.66321" lon="-2.28874">
        <ele>27</ele>
        <time>2014-06-10T11:42:50Z</time>
      </trkpt>
      <trkpt lat="48.66321" lon="-2.28877">
        <ele>27</ele>
        <time>2014-06-10T11:42:52Z</time>
      </trkpt>
      <trkpt lat="48.66322" lon="-2.28879">
        <ele>27</ele>
        <time>2014-06-10T11:42:54Z</time>
      </trkpt>
      <trkpt lat="48.66322" lon="-2.28881">
        <ele>26</ele>
        <time>2014-06-10T11:42:56Z</time>
      </trkpt>
      <trkpt lat="48.66322" lon="-2.28886">
        <ele>25</ele>
        <time>2014-06-10T11:42:59Z</time>
      </trkpt>
      <trkpt lat="48.66322" lon="-2.28889">
        <ele>24</ele>
        <time>2014-06-10T11:43:01Z</time>
      </trkpt>
      <trkpt lat="48.66322" lon="-2.28893">
        <ele>24</ele>
        <time>2014-06-10T11:43:04Z</time>
      </trkpt>
      <trkpt lat="48.66322" lon="-2.28897">
        <ele>24</ele>
        <time>2014-06-10T11:43:06Z</time>
      </trkpt>
      <trkpt lat="48.66321" lon="-2.289">
        <ele>24</ele>
        <time>2014-06-10T11:43:08Z</time>
      </trkpt>
      <trkpt lat="48.6632" lon="-2.28903">
        <ele>24</ele>
        <time>2014-06-10T11:43:10Z</time>
      </trkpt>
      <trkpt lat="48.66318" lon="-2.28907">
        <ele>24</ele>
        <time>2014-06-10T11:43:12Z</time>
      </trkpt>
      <trkpt lat="48.66318" lon="-2.28911">
        <ele>24</ele>
        <time>2014-06-10T11:43:14Z</time>
      </trkpt>
      <trkpt lat="48.66316" lon="-2.28915">
        <ele>24</ele>
        <time>2014-06-10T11:43:16Z</time>
      </trkpt>
      <trkpt lat="48.66316" lon="-2.2892">
        <ele>24</ele>
        <time>2014-06-10T11:43:19Z</time>
      </trkpt>
      <trkpt lat="48.66317" lon="-2.28922">
        <ele>24</ele>
        <time>2014-06-10T11:43:22Z</time>
      </trkpt>
      <trkpt lat="48.66316" lon="-2.28924">
        <ele>24</ele>
        <time>2014-06-10T11:43:24Z</time>
      </trkpt>
      <trkpt lat="48.66315" lon="-2.28927">
        <ele>24</ele>
        <time>2014-06-10T11:43:26Z</time>
      </trkpt>
      <trkpt lat="48.66314" lon="-2.28928">
        <ele>24</ele>
        <time>2014-06-10T11:43:28Z</time>
      </trkpt>
      <trkpt lat="48.66312" lon="-2.28931">
        <ele>24</ele>
        <time>2014-06-10T11:43:30Z</time>
      </trkpt>
      <trkpt lat="48.66311" lon="-2.28935">
        <ele>24</ele>
        <time>2014-06-10T11:43:32Z</time>
      </trkpt>
      <trkpt lat="48.6631" lon="-2.28939">
        <ele>24</ele>
        <time>2014-06-10T11:43:34Z</time>
      </trkpt>
      <trkpt lat="48.6631" lon="-2.28943">
        <ele>24</ele>
        <time>2014-06-10T11:43:37Z</time>
      </trkpt>
      <trkpt lat="48.6631" lon="-2.28945">
        <ele>25</ele>
        <time>2014-06-10T11:43:39Z</time>
      </trkpt>
      <trkpt lat="48.66311" lon="-2.28947">
        <ele>26</ele>
        <time>2014-06-10T11:43:42Z</time>
      </trkpt>
      <trkpt lat="48.66312" lon="-2.28949">
        <ele>26</ele>
        <time>2014-06-10T11:43:44Z</time>
      </trkpt>
      <trkpt lat="48.66311" lon="-2.28952">
        <ele>27</ele>
        <time>2014-06-10T11:43:46Z</time>
      </trkpt>
      <trkpt lat="48.66311" lon="-2.28955">
        <ele>28</ele>
        <time>2014-06-10T11:43:48Z</time>
      </trkpt>
      <trkpt lat="48.66311" lon="-2.28957">
        <ele>29</ele>
        <time>2014-06-10T11:43:50Z</time>
      </trkpt>
      <trkpt lat="48.66311" lon="-2.28959">
        <ele>30</ele>
        <time>2014-06-10T11:43:52Z</time>
      </trkpt>
      <trkpt lat="48.66311" lon="-2.28961">
        <ele>31</ele>
        <time>2014-06-10T11:43:54Z</time>
      </trkpt>
      <trkpt lat="48.6631" lon="-2.28964">
        <ele>33</ele>
        <time>2014-06-10T11:43:56Z</time>
      </trkpt>
      <trkpt lat="48.6631" lon="-2.28966">
        <ele>33</ele>
        <time>2014-06-10T11:43:58Z</time>
      </trkpt>
      <trkpt lat="48.66308" lon="-2.28971">
        <ele>33</ele>
        <time>2014-06-10T11:44:01Z</time>
      </trkpt>
      <trkpt lat="48.66308" lon="-2.28974">
        <ele>33</ele>
        <time>2014-06-10T11:44:03Z</time>
      </trkpt>
      <trkpt lat="48.66308" lon="-2.28977">
        <ele>33</ele>
        <time>2014-06-10T11:44:05Z</time>
      </trkpt>
      <trkpt lat="48.66309" lon="-2.28982">
        <ele>33</ele>
        <time>2014-06-10T11:44:08Z</time>
      </trkpt>
      <trkpt lat="48.66307" lon="-2.28983">
        <ele>33</ele>
        <time>2014-06-10T11:44:10Z</time>
      </trkpt>
      <trkpt lat="48.66306" lon="-2.28986">
        <ele>32</ele>
        <time>2014-06-10T11:44:12Z</time>
      </trkpt>
      <trkpt lat="48.66304" lon="-2.28987">
        <ele>31</ele>
        <time>2014-06-10T11:44:14Z</time>
      </trkpt>
      <trkpt lat="48.66301" lon="-2.2899">
        <ele>30</ele>
        <time>2014-06-10T11:44:16Z</time>
      </trkpt>
      <trkpt lat="48.66299" lon="-2.28993">
        <ele>29</ele>
        <time>2014-06-10T11:44:18Z</time>
      </trkpt>
      <trkpt lat="48.66298" lon="-2.28996">
        <ele>29</ele>
        <time>2014-06-10T11:44:20Z</time>
      </trkpt>
      <trkpt lat="48.66296" lon="-2.28999">
        <ele>28</ele>
        <time>2014-06-10T11:44:22Z</time>
      </trkpt>
      <trkpt lat="48.66293" lon="-2.29001">
        <ele>28</ele>
        <time>2014-06-10T11:44:24Z</time>
      </trkpt>
      <trkpt lat="48.66291" lon="-2.29003">
        <ele>28</ele>
        <time>2014-06-10T11:44:26Z</time>
      </trkpt>
      <trkpt lat="48.66288" lon="-2.29007">
        <ele>28</ele>
        <time>2014-06-10T11:44:29Z</time>
      </trkpt>
      <trkpt lat="48.66286" lon="-2.29011">
        <ele>28</ele>
        <time>2014-06-10T11:44:31Z</time>
      </trkpt>
      <trkpt lat="48.66285" lon="-2.29015">
        <ele>28</ele>
        <time>2014-06-10T11:44:33Z</time>
      </trkpt>
      <trkpt lat="48.66285" lon="-2.2902">
        <ele>28</ele>
        <time>2014-06-10T11:44:36Z</time>
      </trkpt>
      <trkpt lat="48.66283" lon="-2.29024">
        <ele>28</ele>
        <time>2014-06-10T11:44:38Z</time>
      </trkpt>
      <trkpt lat="48.66282" lon="-2.29026">
        <ele>27</ele>
        <time>2014-06-10T11:44:41Z</time>
      </trkpt>
      <trkpt lat="48.66281" lon="-2.29028">
        <ele>27</ele>
        <time>2014-06-10T11:44:43Z</time>
      </trkpt>
      <trkpt lat="48.66279" lon="-2.29031">
        <ele>26</ele>
        <time>2014-06-10T11:44:45Z</time>
      </trkpt>
      <trkpt lat="48.66277" lon="-2.29035">
        <ele>25</ele>
        <time>2014-06-10T11:44:47Z</time>
      </trkpt>
      <trkpt lat="48.66273" lon="-2.29038">
        <ele>23</ele>
        <time>2014-06-10T11:44:50Z</time>
      </trkpt>
      <trkpt lat="48.6627" lon="-2.29039">
        <ele>23</ele>
        <time>2014-06-10T11:44:52Z</time>
      </trkpt>
      <trkpt lat="48.66269" lon="-2.29041">
        <ele>23</ele>
        <time>2014-06-10T11:44:54Z</time>
      </trkpt>
      <trkpt lat="48.66266" lon="-2.29042">
        <ele>23</ele>
        <time>2014-06-10T11:44:57Z</time>
      </trkpt>
      <trkpt lat="48.66265" lon="-2.29043">
        <ele>23</ele>
        <time>2014-06-10T11:45:14Z</time>
      </trkpt>
      <trkpt lat="48.66264" lon="-2.29043">
        <ele>23</ele>
        <time>2014-06-10T11:45:18Z</time>
      </trkpt>
      <trkpt lat="48.66263" lon="-2.29044">
        <ele>24</ele>
        <time>2014-06-10T11:45:22Z</time>
      </trkpt>
      <trkpt lat="48.66262" lon="-2.29046">
        <ele>25</ele>
        <time>2014-06-10T11:46:01Z</time>
      </trkpt>
      <trkpt lat="48.6626" lon="-2.29046">
        <ele>25</ele>
        <time>2014-06-10T11:46:03Z</time>
      </trkpt>
      <trkpt lat="48.66259" lon="-2.29047">
        <ele>25</ele>
        <time>2014-06-10T11:46:05Z</time>
      </trkpt>
      <trkpt lat="48.66257" lon="-2.29049">
        <ele>25</ele>
        <time>2014-06-10T11:46:07Z</time>
      </trkpt>
      <trkpt lat="48.66256" lon="-2.29051">
        <ele>25</ele>
        <time>2014-06-10T11:46:09Z</time>
      </trkpt>
      <trkpt lat="48.66254" lon="-2.29053">
        <ele>25</ele>
        <time>2014-06-10T11:46:11Z</time>
      </trkpt>
      <trkpt lat="48.66252" lon="-2.29054">
        <ele>25</ele>
        <time>2014-06-10T11:46:13Z</time>
      </trkpt>
      <trkpt lat="48.66251" lon="-2.29056">
        <ele>25</ele>
        <time>2014-06-10T11:46:15Z</time>
      </trkpt>
      <trkpt lat="48.6625" lon="-2.29058">
        <ele>25</ele>
        <time>2014-06-10T11:46:17Z</time>
      </trkpt>
      <trkpt lat="48.66249" lon="-2.2906">
        <ele>25</ele>
        <time>2014-06-10T11:46:19Z</time>
      </trkpt>
      <trkpt lat="48.66248" lon="-2.29062">
        <ele>25</ele>
        <time>2014-06-10T11:46:21Z</time>
      </trkpt>
      <trkpt lat="48.66246" lon="-2.29063">
        <ele>25</ele>
        <time>2014-06-10T11:46:23Z</time>
      </trkpt>
      <trkpt lat="48.66243" lon="-2.29066">
        <ele>25</ele>
        <time>2014-06-10T11:46:26Z</time>
      </trkpt>
      <trkpt lat="48.66242" lon="-2.29068">
        <ele>25</ele>
        <time>2014-06-10T11:46:28Z</time>
      </trkpt>
      <trkpt lat="48.6624" lon="-2.29069">
        <ele>25</ele>
        <time>2014-06-10T11:46:30Z</time>
      </trkpt>
      <trkpt lat="48.66239" lon="-2.2907">
        <ele>25</ele>
        <time>2014-06-10T11:46:33Z</time>
      </trkpt>
      <trkpt lat="48.66236" lon="-2.29072">
        <ele>25</ele>
        <time>2014-06-10T11:46:35Z</time>
      </trkpt>
      <trkpt lat="48.66233" lon="-2.29076">
        <ele>25</ele>
        <time>2014-06-10T11:46:38Z</time>
      </trkpt>
      <trkpt lat="48.66231" lon="-2.29079">
        <ele>25</ele>
        <time>2014-06-10T11:46:40Z</time>
      </trkpt>
      <trkpt lat="48.6623" lon="-2.29082">
        <ele>25</ele>
        <time>2014-06-10T11:46:42Z</time>
      </trkpt>
      <trkpt lat="48.66228" lon="-2.29085">
        <ele>25</ele>
        <time>2014-06-10T11:46:44Z</time>
      </trkpt>
      <trkpt lat="48.66227" lon="-2.29087">
        <ele>25</ele>
        <time>2014-06-10T11:46:46Z</time>
      </trkpt>
      <trkpt lat="48.66227" lon="-2.2909">
        <ele>25</ele>
        <time>2014-06-10T11:46:48Z</time>
      </trkpt>
      <trkpt lat="48.66225" lon="-2.29093">
        <ele>25</ele>
        <time>2014-06-10T11:46:50Z</time>
      </trkpt>
      <trkpt lat="48.66224" lon="-2.29095">
        <ele>25</ele>
        <time>2014-06-10T11:46:52Z</time>
      </trkpt>
      <trkpt lat="48.66224" lon="-2.29098">
        <ele>25</ele>
        <time>2014-06-10T11:46:54Z</time>
      </trkpt>
      <trkpt lat="48.66224" lon="-2.291">
        <ele>25</ele>
        <time>2014-06-10T11:46:56Z</time>
      </trkpt>
      <trkpt lat="48.66224" lon="-2.29102">
        <ele>25</ele>
        <time>2014-06-10T11:46:58Z</time>
      </trkpt>
      <trkpt lat="48.66223" lon="-2.29104">
        <ele>25</ele>
        <time>2014-06-10T11:47:01Z</time>
      </trkpt>
      <trkpt lat="48.66222" lon="-2.29107">
        <ele>25</ele>
        <time>2014-06-10T11:47:03Z</time>
      </trkpt>
      <trkpt lat="48.66222" lon="-2.2911">
        <ele>25</ele>
        <time>2014-06-10T11:47:05Z</time>
      </trkpt>
      <trkpt lat="48.66221" lon="-2.29115">
        <ele>25</ele>
        <time>2014-06-10T11:47:08Z</time>
      </trkpt>
      <trkpt lat="48.6622" lon="-2.29119">
        <ele>25</ele>
        <time>2014-06-10T11:47:10Z</time>
      </trkpt>
      <trkpt lat="48.66219" lon="-2.29122">
        <ele>26</ele>
        <time>2014-06-10T11:47:12Z</time>
      </trkpt>
      <trkpt lat="48.66218" lon="-2.29124">
        <ele>26</ele>
        <time>2014-06-10T11:47:14Z</time>
      </trkpt>
      <trkpt lat="48.66217" lon="-2.29126">
        <ele>26</ele>
        <time>2014-06-10T11:47:16Z</time>
      </trkpt>
      <trkpt lat="48.66215" lon="-2.29129">
        <ele>26</ele>
        <time>2014-06-10T11:47:18Z</time>
      </trkpt>
      <trkpt lat="48.66214" lon="-2.29131">
        <ele>26</ele>
        <time>2014-06-10T11:47:20Z</time>
      </trkpt>
      <trkpt lat="48.66212" lon="-2.29135">
        <ele>26</ele>
        <time>2014-06-10T11:47:22Z</time>
      </trkpt>
      <trkpt lat="48.66211" lon="-2.29138">
        <ele>26</ele>
        <time>2014-06-10T11:47:24Z</time>
      </trkpt>
      <trkpt lat="48.66211" lon="-2.29141">
        <ele>26</ele>
        <time>2014-06-10T11:47:26Z</time>
      </trkpt>
      <trkpt lat="48.66209" lon="-2.29145">
        <ele>26</ele>
        <time>2014-06-10T11:47:28Z</time>
      </trkpt>
      <trkpt lat="48.66208" lon="-2.29148">
        <ele>26</ele>
        <time>2014-06-10T11:47:30Z</time>
      </trkpt>
      <trkpt lat="48.66207" lon="-2.29151">
        <ele>26</ele>
        <time>2014-06-10T11:47:32Z</time>
      </trkpt>
      <trkpt lat="48.66205" lon="-2.29155">
        <ele>26</ele>
        <time>2014-06-10T11:47:35Z</time>
      </trkpt>
      <trkpt lat="48.66203" lon="-2.29158">
        <ele>26</ele>
        <time>2014-06-10T11:47:37Z</time>
      </trkpt>
      <trkpt lat="48.66201" lon="-2.29163">
        <ele>26</ele>
        <time>2014-06-10T11:47:39Z</time>
      </trkpt>
      <trkpt lat="48.66198" lon="-2.29166">
        <ele>26</ele>
        <time>2014-06-10T11:47:41Z</time>
      </trkpt>
      <trkpt lat="48.66197" lon="-2.29169">
        <ele>26</ele>
        <time>2014-06-10T11:47:43Z</time>
      </trkpt>
      <trkpt lat="48.66195" lon="-2.29171">
        <ele>26</ele>
        <time>2014-06-10T11:47:45Z</time>
      </trkpt>
      <trkpt lat="48.66192" lon="-2.29172">
        <ele>26</ele>
        <time>2014-06-10T11:47:47Z</time>
      </trkpt>
      <trkpt lat="48.66191" lon="-2.29175">
        <ele>26</ele>
        <time>2014-06-10T11:47:49Z</time>
      </trkpt>
      <trkpt lat="48.6619" lon="-2.29179">
        <ele>25</ele>
        <time>2014-06-10T11:47:51Z</time>
      </trkpt>
      <trkpt lat="48.66188" lon="-2.29182">
        <ele>23</ele>
        <time>2014-06-10T11:47:54Z</time>
      </trkpt>
      <trkpt lat="48.66187" lon="-2.29185">
        <ele>22</ele>
        <time>2014-06-10T11:47:56Z</time>
      </trkpt>
      <trkpt lat="48.66185" lon="-2.29186">
        <ele>21</ele>
        <time>2014-06-10T11:47:58Z</time>
      </trkpt>
      <trkpt lat="48.66183" lon="-2.29188">
        <ele>20</ele>
        <time>2014-06-10T11:48:00Z</time>
      </trkpt>
      <trkpt lat="48.6618" lon="-2.29193">
        <ele>20</ele>
        <time>2014-06-10T11:48:02Z</time>
      </trkpt>
      <trkpt lat="48.66179" lon="-2.29197">
        <ele>20</ele>
        <time>2014-06-10T11:48:04Z</time>
      </trkpt>
      <trkpt lat="48.66176" lon="-2.292">
        <ele>20</ele>
        <time>2014-06-10T11:48:07Z</time>
      </trkpt>
      <trkpt lat="48.66175" lon="-2.29201">
        <ele>20</ele>
        <time>2014-06-10T11:48:09Z</time>
      </trkpt>
      <trkpt lat="48.66173" lon="-2.29203">
        <ele>19</ele>
        <time>2014-06-10T11:48:11Z</time>
      </trkpt>
      <trkpt lat="48.66171" lon="-2.29205">
        <ele>18</ele>
        <time>2014-06-10T11:48:13Z</time>
      </trkpt>
      <trkpt lat="48.66169" lon="-2.29207">
        <ele>17</ele>
        <time>2014-06-10T11:48:15Z</time>
      </trkpt>
      <trkpt lat="48.66165" lon="-2.29211">
        <ele>17</ele>
        <time>2014-06-10T11:48:18Z</time>
      </trkpt>
      <trkpt lat="48.66164" lon="-2.29214">
        <ele>17</ele>
        <time>2014-06-10T11:48:20Z</time>
      </trkpt>
      <trkpt lat="48.66162" lon="-2.29216">
        <ele>17</ele>
        <time>2014-06-10T11:48:22Z</time>
      </trkpt>
      <trkpt lat="48.6616" lon="-2.29221">
        <ele>17</ele>
        <time>2014-06-10T11:48:24Z</time>
      </trkpt>
      <trkpt lat="48.66158" lon="-2.29226">
        <ele>16</ele>
        <time>2014-06-10T11:48:27Z</time>
      </trkpt>
      <trkpt lat="48.66156" lon="-2.2923">
        <ele>16</ele>
        <time>2014-06-10T11:48:29Z</time>
      </trkpt>
      <trkpt lat="48.66155" lon="-2.29234">
        <ele>16</ele>
        <time>2014-06-10T11:48:31Z</time>
      </trkpt>
      <trkpt lat="48.66154" lon="-2.29237">
        <ele>16</ele>
        <time>2014-06-10T11:48:33Z</time>
      </trkpt>
      <trkpt lat="48.66153" lon="-2.29243">
        <ele>16</ele>
        <time>2014-06-10T11:48:36Z</time>
      </trkpt>
      <trkpt lat="48.66153" lon="-2.29246">
        <ele>16</ele>
        <time>2014-06-10T11:48:38Z</time>
      </trkpt>
      <trkpt lat="48.66153" lon="-2.29248">
        <ele>16</ele>
        <time>2014-06-10T11:48:40Z</time>
      </trkpt>
      <trkpt lat="48.66155" lon="-2.29251">
        <ele>16</ele>
        <time>2014-06-10T11:48:42Z</time>
      </trkpt>
      <trkpt lat="48.66155" lon="-2.29253">
        <ele>17</ele>
        <time>2014-06-10T11:48:44Z</time>
      </trkpt>
      <trkpt lat="48.66156" lon="-2.29254">
        <ele>19</ele>
        <time>2014-06-10T11:48:47Z</time>
      </trkpt>
      <trkpt lat="48.66156" lon="-2.29256">
        <ele>21</ele>
        <time>2014-06-10T11:48:49Z</time>
      </trkpt>
      <trkpt lat="48.66158" lon="-2.29258">
        <ele>23</ele>
        <time>2014-06-10T11:48:52Z</time>
      </trkpt>
      <trkpt lat="48.66158" lon="-2.2926">
        <ele>24</ele>
        <time>2014-06-10T11:48:54Z</time>
      </trkpt>
      <trkpt lat="48.66159" lon="-2.29262">
        <ele>26</ele>
        <time>2014-06-10T11:48:56Z</time>
      </trkpt>
      <trkpt lat="48.6616" lon="-2.29264">
        <ele>27</ele>
        <time>2014-06-10T11:48:58Z</time>
      </trkpt>
      <trkpt lat="48.66161" lon="-2.29265">
        <ele>29</ele>
        <time>2014-06-10T11:49:00Z</time>
      </trkpt>
      <trkpt lat="48.66163" lon="-2.29266">
        <ele>30</ele>
        <time>2014-06-10T11:49:02Z</time>
      </trkpt>
      <trkpt lat="48.66165" lon="-2.29266">
        <ele>31</ele>
        <time>2014-06-10T11:49:04Z</time>
      </trkpt>
      <trkpt lat="48.66167" lon="-2.29266">
        <ele>31</ele>
        <time>2014-06-10T11:49:06Z</time>
      </trkpt>
      <trkpt lat="48.6617" lon="-2.29267">
        <ele>32</ele>
        <time>2014-06-10T11:49:09Z</time>
      </trkpt>
      <trkpt lat="48.66173" lon="-2.2927">
        <ele>33</ele>
        <time>2014-06-10T11:49:12Z</time>
      </trkpt>
      <trkpt lat="48.66174" lon="-2.29274">
        <ele>33</ele>
        <time>2014-06-10T11:49:14Z</time>
      </trkpt>
      <trkpt lat="48.66174" lon="-2.29277">
        <ele>34</ele>
        <time>2014-06-10T11:49:17Z</time>
      </trkpt>
      <trkpt lat="48.66175" lon="-2.29279">
        <ele>34</ele>
        <time>2014-06-10T11:49:19Z</time>
      </trkpt>
      <trkpt lat="48.66177" lon="-2.29283">
        <ele>35</ele>
        <time>2014-06-10T11:49:21Z</time>
      </trkpt>
      <trkpt lat="48.66178" lon="-2.29287">
        <ele>35</ele>
        <time>2014-06-10T11:49:23Z</time>
      </trkpt>
      <trkpt lat="48.66178" lon="-2.29291">
        <ele>36</ele>
        <time>2014-06-10T11:49:25Z</time>
      </trkpt>
      <trkpt lat="48.66177" lon="-2.29297">
        <ele>37</ele>
        <time>2014-06-10T11:49:27Z</time>
      </trkpt>
      <trkpt lat="48.66178" lon="-2.29298">
        <ele>37</ele>
        <time>2014-06-10T11:49:29Z</time>
      </trkpt>
      <trkpt lat="48.66178" lon="-2.293">
        <ele>37</ele>
        <time>2014-06-10T11:49:31Z</time>
      </trkpt>
      <trkpt lat="48.66176" lon="-2.29305">
        <ele>37</ele>
        <time>2014-06-10T11:49:33Z</time>
      </trkpt>
      <trkpt lat="48.66175" lon="-2.2931">
        <ele>37</ele>
        <time>2014-06-10T11:49:35Z</time>
      </trkpt>
      <trkpt lat="48.66172" lon="-2.29314">
        <ele>36</ele>
        <time>2014-06-10T11:49:38Z</time>
      </trkpt>
      <trkpt lat="48.66172" lon="-2.29316">
        <ele>35</ele>
        <time>2014-06-10T11:49:40Z</time>
      </trkpt>
      <trkpt lat="48.6617" lon="-2.2932">
        <ele>33</ele>
        <time>2014-06-10T11:49:42Z</time>
      </trkpt>
      <trkpt lat="48.66168" lon="-2.29323">
        <ele>31</ele>
        <time>2014-06-10T11:49:44Z</time>
      </trkpt>
      <trkpt lat="48.66166" lon="-2.29325">
        <ele>30</ele>
        <time>2014-06-10T11:49:46Z</time>
      </trkpt>
      <trkpt lat="48.66164" lon="-2.29328">
        <ele>29</ele>
        <time>2014-06-10T11:49:48Z</time>
      </trkpt>
      <trkpt lat="48.66163" lon="-2.29332">
        <ele>29</ele>
        <time>2014-06-10T11:49:50Z</time>
      </trkpt>
      <trkpt lat="48.66162" lon="-2.29334">
        <ele>28</ele>
        <time>2014-06-10T11:49:52Z</time>
      </trkpt>
      <trkpt lat="48.66161" lon="-2.29336">
        <ele>28</ele>
        <time>2014-06-10T11:49:54Z</time>
      </trkpt>
      <trkpt lat="48.6616" lon="-2.29339">
        <ele>28</ele>
        <time>2014-06-10T11:49:56Z</time>
      </trkpt>
      <trkpt lat="48.66157" lon="-2.29344">
        <ele>27</ele>
        <time>2014-06-10T11:49:59Z</time>
      </trkpt>
      <trkpt lat="48.66154" lon="-2.29346">
        <ele>27</ele>
        <time>2014-06-10T11:50:01Z</time>
      </trkpt>
      <trkpt lat="48.66151" lon="-2.2935">
        <ele>27</ele>
        <time>2014-06-10T11:50:03Z</time>
      </trkpt>
      <trkpt lat="48.66147" lon="-2.29352">
        <ele>27</ele>
        <time>2014-06-10T11:50:05Z</time>
      </trkpt>
      <trkpt lat="48.66144" lon="-2.29353">
        <ele>27</ele>
        <time>2014-06-10T11:50:07Z</time>
      </trkpt>
      <trkpt lat="48.66141" lon="-2.29354">
        <ele>27</ele>
        <time>2014-06-10T11:50:09Z</time>
      </trkpt>
      <trkpt lat="48.66138" lon="-2.29355">
        <ele>27</ele>
        <time>2014-06-10T11:50:11Z</time>
      </trkpt>
      <trkpt lat="48.66136" lon="-2.29356">
        <ele>27</ele>
        <time>2014-06-10T11:50:13Z</time>
      </trkpt>
      <trkpt lat="48.66133" lon="-2.29356">
        <ele>27</ele>
        <time>2014-06-10T11:50:15Z</time>
      </trkpt>
      <trkpt lat="48.66131" lon="-2.29356">
        <ele>27</ele>
        <time>2014-06-10T11:50:17Z</time>
      </trkpt>
      <trkpt lat="48.66128" lon="-2.29358">
        <ele>27</ele>
        <time>2014-06-10T11:50:20Z</time>
      </trkpt>
      <trkpt lat="48.66126" lon="-2.29358">
        <ele>27</ele>
        <time>2014-06-10T11:50:22Z</time>
      </trkpt>
      <trkpt lat="48.66124" lon="-2.29359">
        <ele>27</ele>
        <time>2014-06-10T11:50:24Z</time>
      </trkpt>
      <trkpt lat="48.66122" lon="-2.29361">
        <ele>26</ele>
        <time>2014-06-10T11:50:26Z</time>
      </trkpt>
      <trkpt lat="48.66119" lon="-2.29362">
        <ele>26</ele>
        <time>2014-06-10T11:50:28Z</time>
      </trkpt>
      <trkpt lat="48.66117" lon="-2.29364">
        <ele>26</ele>
        <time>2014-06-10T11:50:30Z</time>
      </trkpt>
      <trkpt lat="48.66115" lon="-2.29366">
        <ele>26</ele>
        <time>2014-06-10T11:50:32Z</time>
      </trkpt>
      <trkpt lat="48.66113" lon="-2.2937">
        <ele>26</ele>
        <time>2014-06-10T11:50:34Z</time>
      </trkpt>
      <trkpt lat="48.6611" lon="-2.29373">
        <ele>26</ele>
        <time>2014-06-10T11:50:36Z</time>
      </trkpt>
      <trkpt lat="48.66108" lon="-2.29376">
        <ele>26</ele>
        <time>2014-06-10T11:50:38Z</time>
      </trkpt>
      <trkpt lat="48.66105" lon="-2.2938">
        <ele>26</ele>
        <time>2014-06-10T11:50:41Z</time>
      </trkpt>
      <trkpt lat="48.66103" lon="-2.29383">
        <ele>26</ele>
        <time>2014-06-10T11:50:43Z</time>
      </trkpt>
      <trkpt lat="48.66102" lon="-2.29385">
        <ele>26</ele>
        <time>2014-06-10T11:50:45Z</time>
      </trkpt>
      <trkpt lat="48.661" lon="-2.29388">
        <ele>26</ele>
        <time>2014-06-10T11:50:47Z</time>
      </trkpt>
      <trkpt lat="48.66098" lon="-2.29391">
        <ele>26</ele>
        <time>2014-06-10T11:50:49Z</time>
      </trkpt>
      <trkpt lat="48.66096" lon="-2.29394">
        <ele>26</ele>
        <time>2014-06-10T11:50:51Z</time>
      </trkpt>
      <trkpt lat="48.66094" lon="-2.29397">
        <ele>26</ele>
        <time>2014-06-10T11:50:53Z</time>
      </trkpt>
      <trkpt lat="48.66092" lon="-2.294">
        <ele>26</ele>
        <time>2014-06-10T11:50:55Z</time>
      </trkpt>
      <trkpt lat="48.6609" lon="-2.29402">
        <ele>26</ele>
        <time>2014-06-10T11:50:57Z</time>
      </trkpt>
      <trkpt lat="48.66088" lon="-2.29404">
        <ele>26</ele>
        <time>2014-06-10T11:50:59Z</time>
      </trkpt>
      <trkpt lat="48.66086" lon="-2.29406">
        <ele>26</ele>
        <time>2014-06-10T11:51:01Z</time>
      </trkpt>
      <trkpt lat="48.66083" lon="-2.29408">
        <ele>26</ele>
        <time>2014-06-10T11:51:03Z</time>
      </trkpt>
      <trkpt lat="48.66081" lon="-2.29412">
        <ele>26</ele>
        <time>2014-06-10T11:51:05Z</time>
      </trkpt>
      <trkpt lat="48.66079" lon="-2.29415">
        <ele>27</ele>
        <time>2014-06-10T11:51:07Z</time>
      </trkpt>
      <trkpt lat="48.66076" lon="-2.29419">
        <ele>29</ele>
        <time>2014-06-10T11:51:09Z</time>
      </trkpt>
      <trkpt lat="48.66073" lon="-2.29424">
        <ele>30</ele>
        <time>2014-06-10T11:51:12Z</time>
      </trkpt>
      <trkpt lat="48.6607" lon="-2.29424">
        <ele>31</ele>
        <time>2014-06-10T11:51:14Z</time>
      </trkpt>
      <trkpt lat="48.66066" lon="-2.29425">
        <ele>31</ele>
        <time>2014-06-10T11:51:16Z</time>
      </trkpt>
      <trkpt lat="48.66064" lon="-2.29427">
        <ele>31</ele>
        <time>2014-06-10T11:51:18Z</time>
      </trkpt>
      <trkpt lat="48.66063" lon="-2.29429">
        <ele>32</ele>
        <time>2014-06-10T11:51:20Z</time>
      </trkpt>
      <trkpt lat="48.66061" lon="-2.29432">
        <ele>32</ele>
        <time>2014-06-10T11:51:22Z</time>
      </trkpt>
      <trkpt lat="48.66059" lon="-2.29434">
        <ele>32</ele>
        <time>2014-06-10T11:51:24Z</time>
      </trkpt>
      <trkpt lat="48.66058" lon="-2.29436">
        <ele>33</ele>
        <time>2014-06-10T11:51:26Z</time>
      </trkpt>
      <trkpt lat="48.66056" lon="-2.29438">
        <ele>33</ele>
        <time>2014-06-10T11:51:28Z</time>
      </trkpt>
      <trkpt lat="48.66055" lon="-2.2944">
        <ele>33</ele>
        <time>2014-06-10T11:51:30Z</time>
      </trkpt>
      <trkpt lat="48.66053" lon="-2.29441">
        <ele>34</ele>
        <time>2014-06-10T11:51:32Z</time>
      </trkpt>
      <trkpt lat="48.66052" lon="-2.29442">
        <ele>34</ele>
        <time>2014-06-10T11:51:34Z</time>
      </trkpt>
      <trkpt lat="48.6605" lon="-2.29444">
        <ele>34</ele>
        <time>2014-06-10T11:51:36Z</time>
      </trkpt>
      <trkpt lat="48.66049" lon="-2.29447">
        <ele>35</ele>
        <time>2014-06-10T11:51:38Z</time>
      </trkpt>
      <trkpt lat="48.66049" lon="-2.2945">
        <ele>36</ele>
        <time>2014-06-10T11:51:40Z</time>
      </trkpt>
      <trkpt lat="48.66047" lon="-2.29454">
        <ele>37</ele>
        <time>2014-06-10T11:51:43Z</time>
      </trkpt>
      <trkpt lat="48.66046" lon="-2.29458">
        <ele>38</ele>
        <time>2014-06-10T11:51:45Z</time>
      </trkpt>
      <trkpt lat="48.66045" lon="-2.29462">
        <ele>38</ele>
        <time>2014-06-10T11:51:47Z</time>
      </trkpt>
      <trkpt lat="48.66043" lon="-2.29466">
        <ele>38</ele>
        <time>2014-06-10T11:51:49Z</time>
      </trkpt>
      <trkpt lat="48.66042" lon="-2.29472">
        <ele>38</ele>
        <time>2014-06-10T11:51:52Z</time>
      </trkpt>
      <trkpt lat="48.6604" lon="-2.29478">
        <ele>38</ele>
        <time>2014-06-10T11:51:55Z</time>
      </trkpt>
      <trkpt lat="48.66037" lon="-2.2948">
        <ele>38</ele>
        <time>2014-06-10T11:51:57Z</time>
      </trkpt>
      <trkpt lat="48.66035" lon="-2.29482">
        <ele>38</ele>
        <time>2014-06-10T11:51:59Z</time>
      </trkpt>
      <trkpt lat="48.66033" lon="-2.29486">
        <ele>38</ele>
        <time>2014-06-10T11:52:02Z</time>
      </trkpt>
      <trkpt lat="48.66032" lon="-2.2949">
        <ele>38</ele>
        <time>2014-06-10T11:52:05Z</time>
      </trkpt>
      <trkpt lat="48.6603" lon="-2.29491">
        <ele>38</ele>
        <time>2014-06-10T11:52:07Z</time>
      </trkpt>
      <trkpt lat="48.66028" lon="-2.29493">
        <ele>38</ele>
        <time>2014-06-10T11:52:09Z</time>
      </trkpt>
      <trkpt lat="48.66025" lon="-2.29497">
        <ele>39</ele>
        <time>2014-06-10T11:52:12Z</time>
      </trkpt>
      <trkpt lat="48.66024" lon="-2.29501">
        <ele>39</ele>
        <time>2014-06-10T11:52:14Z</time>
      </trkpt>
      <trkpt lat="48.66021" lon="-2.29505">
        <ele>39</ele>
        <time>2014-06-10T11:52:17Z</time>
      </trkpt>
      <trkpt lat="48.66018" lon="-2.29508">
        <ele>39</ele>
        <time>2014-06-10T11:52:19Z</time>
      </trkpt>
      <trkpt lat="48.66016" lon="-2.29509">
        <ele>39</ele>
        <time>2014-06-10T11:52:21Z</time>
      </trkpt>
      <trkpt lat="48.66013" lon="-2.29511">
        <ele>39</ele>
        <time>2014-06-10T11:52:23Z</time>
      </trkpt>
      <trkpt lat="48.6601" lon="-2.29512">
        <ele>39</ele>
        <time>2014-06-10T11:52:25Z</time>
      </trkpt>
      <trkpt lat="48.66008" lon="-2.29511">
        <ele>40</ele>
        <time>2014-06-10T11:52:27Z</time>
      </trkpt>
      <trkpt lat="48.66006" lon="-2.2951">
        <ele>40</ele>
        <time>2014-06-10T11:52:29Z</time>
      </trkpt>
      <trkpt lat="48.66003" lon="-2.2951">
        <ele>40</ele>
        <time>2014-06-10T11:52:31Z</time>
      </trkpt>
      <trkpt lat="48.65999" lon="-2.2951">
        <ele>40</ele>
        <time>2014-06-10T11:52:33Z</time>
      </trkpt>
      <trkpt lat="48.65996" lon="-2.2951">
        <ele>40</ele>
        <time>2014-06-10T11:52:35Z</time>
      </trkpt>
      <trkpt lat="48.65994" lon="-2.2951">
        <ele>40</ele>
        <time>2014-06-10T11:52:37Z</time>
      </trkpt>
      <trkpt lat="48.65991" lon="-2.2951">
        <ele>40</ele>
        <time>2014-06-10T11:52:39Z</time>
      </trkpt>
      <trkpt lat="48.65987" lon="-2.29511">
        <ele>40</ele>
        <time>2014-06-10T11:52:42Z</time>
      </trkpt>
      <trkpt lat="48.65984" lon="-2.29512">
        <ele>40</ele>
        <time>2014-06-10T11:52:45Z</time>
      </trkpt>
      <trkpt lat="48.65983" lon="-2.29511">
        <ele>40</ele>
        <time>2014-06-10T11:52:47Z</time>
      </trkpt>
      <trkpt lat="48.65981" lon="-2.2951">
        <ele>40</ele>
        <time>2014-06-10T11:52:49Z</time>
      </trkpt>
      <trkpt lat="48.6598" lon="-2.29508">
        <ele>40</ele>
        <time>2014-06-10T11:52:51Z</time>
      </trkpt>
      <trkpt lat="48.65979" lon="-2.29507">
        <ele>40</ele>
        <time>2014-06-10T11:52:53Z</time>
      </trkpt>
      <trkpt lat="48.65977" lon="-2.29506">
        <ele>40</ele>
        <time>2014-06-10T11:52:55Z</time>
      </trkpt>
      <trkpt lat="48.65976" lon="-2.29505">
        <ele>40</ele>
        <time>2014-06-10T11:52:57Z</time>
      </trkpt>
      <trkpt lat="48.65974" lon="-2.29505">
        <ele>40</ele>
        <time>2014-06-10T11:52:59Z</time>
      </trkpt>
      <trkpt lat="48.65973" lon="-2.29504">
        <ele>40</ele>
        <time>2014-06-10T11:53:02Z</time>
      </trkpt>
      <trkpt lat="48.65971" lon="-2.29504">
        <ele>40</ele>
        <time>2014-06-10T11:53:04Z</time>
      </trkpt>
      <trkpt lat="48.65968" lon="-2.29505">
        <ele>40</ele>
        <time>2014-06-10T11:53:06Z</time>
      </trkpt>
      <trkpt lat="48.65966" lon="-2.29505">
        <ele>40</ele>
        <time>2014-06-10T11:53:08Z</time>
      </trkpt>
      <trkpt lat="48.65963" lon="-2.29505">
        <ele>40</ele>
        <time>2014-06-10T11:53:10Z</time>
      </trkpt>
      <trkpt lat="48.6596" lon="-2.29505">
        <ele>40</ele>
        <time>2014-06-10T11:53:12Z</time>
      </trkpt>
      <trkpt lat="48.65958" lon="-2.29505">
        <ele>40</ele>
        <time>2014-06-10T11:53:14Z</time>
      </trkpt>
      <trkpt lat="48.65955" lon="-2.29505">
        <ele>40</ele>
        <time>2014-06-10T11:53:16Z</time>
      </trkpt>
      <trkpt lat="48.65952" lon="-2.29505">
        <ele>41</ele>
        <time>2014-06-10T11:53:18Z</time>
      </trkpt>
      <trkpt lat="48.65949" lon="-2.29505">
        <ele>41</ele>
        <time>2014-06-10T11:53:20Z</time>
      </trkpt>
      <trkpt lat="48.65947" lon="-2.29503">
        <ele>41</ele>
        <time>2014-06-10T11:53:22Z</time>
      </trkpt>
      <trkpt lat="48.65945" lon="-2.29504">
        <ele>41</ele>
        <time>2014-06-10T11:53:24Z</time>
      </trkpt>
      <trkpt lat="48.65941" lon="-2.29504">
        <ele>41</ele>
        <time>2014-06-10T11:53:27Z</time>
      </trkpt>
      <trkpt lat="48.65939" lon="-2.29504">
        <ele>42</ele>
        <time>2014-06-10T11:53:29Z</time>
      </trkpt>
      <trkpt lat="48.65936" lon="-2.29501">
        <ele>42</ele>
        <time>2014-06-10T11:53:31Z</time>
      </trkpt>
      <trkpt lat="48.65934" lon="-2.29499">
        <ele>42</ele>
        <time>2014-06-10T11:53:33Z</time>
      </trkpt>
      <trkpt lat="48.65931" lon="-2.29497">
        <ele>42</ele>
        <time>2014-06-10T11:53:35Z</time>
      </trkpt>
      <trkpt lat="48.65929" lon="-2.29495">
        <ele>43</ele>
        <time>2014-06-10T11:53:38Z</time>
      </trkpt>
      <trkpt lat="48.65927" lon="-2.29494">
        <ele>43</ele>
        <time>2014-06-10T11:53:40Z</time>
      </trkpt>
      <trkpt lat="48.65923" lon="-2.29493">
        <ele>43</ele>
        <time>2014-06-10T11:53:43Z</time>
      </trkpt>
      <trkpt lat="48.65922" lon="-2.29493">
        <ele>43</ele>
        <time>2014-06-10T11:53:45Z</time>
      </trkpt>
      <trkpt lat="48.6592" lon="-2.29493">
        <ele>43</ele>
        <time>2014-06-10T11:53:47Z</time>
      </trkpt>
      <trkpt lat="48.65919" lon="-2.29493">
        <ele>43</ele>
        <time>2014-06-10T11:53:50Z</time>
      </trkpt>
      <trkpt lat="48.65916" lon="-2.29491">
        <ele>43</ele>
        <time>2014-06-10T11:53:52Z</time>
      </trkpt>
      <trkpt lat="48.65913" lon="-2.29489">
        <ele>43</ele>
        <time>2014-06-10T11:53:54Z</time>
      </trkpt>
      <trkpt lat="48.65911" lon="-2.29487">
        <ele>43</ele>
        <time>2014-06-10T11:53:56Z</time>
      </trkpt>
      <trkpt lat="48.65908" lon="-2.29486">
        <ele>43</ele>
        <time>2014-06-10T11:53:58Z</time>
      </trkpt>
      <trkpt lat="48.65906" lon="-2.29484">
        <ele>43</ele>
        <time>2014-06-10T11:54:00Z</time>
      </trkpt>
      <trkpt lat="48.65904" lon="-2.29482">
        <ele>43</ele>
        <time>2014-06-10T11:54:02Z</time>
      </trkpt>
      <trkpt lat="48.65901" lon="-2.29481">
        <ele>43</ele>
        <time>2014-06-10T11:54:04Z</time>
      </trkpt>
      <trkpt lat="48.65899" lon="-2.29479">
        <ele>43</ele>
        <time>2014-06-10T11:54:06Z</time>
      </trkpt>
      <trkpt lat="48.65897" lon="-2.29476">
        <ele>42</ele>
        <time>2014-06-10T11:54:08Z</time>
      </trkpt>
      <trkpt lat="48.65895" lon="-2.29473">
        <ele>42</ele>
        <time>2014-06-10T11:54:10Z</time>
      </trkpt>
      <trkpt lat="48.65894" lon="-2.29471">
        <ele>41</ele>
        <time>2014-06-10T11:54:12Z</time>
      </trkpt>
      <trkpt lat="48.65891" lon="-2.29469">
        <ele>40</ele>
        <time>2014-06-10T11:54:14Z</time>
      </trkpt>
      <trkpt lat="48.65888" lon="-2.29466">
        <ele>39</ele>
        <time>2014-06-10T11:54:16Z</time>
      </trkpt>
      <trkpt lat="48.65886" lon="-2.29463">
        <ele>38</ele>
        <time>2014-06-10T11:54:19Z</time>
      </trkpt>
      <trkpt lat="48.65883" lon="-2.29458">
        <ele>38</ele>
        <time>2014-06-10T11:54:22Z</time>
      </trkpt>
      <trkpt lat="48.65881" lon="-2.29456">
        <ele>38</ele>
        <time>2014-06-10T11:54:24Z</time>
      </trkpt>
      <trkpt lat="48.65879" lon="-2.29454">
        <ele>37</ele>
        <time>2014-06-10T11:54:26Z</time>
      </trkpt>
      <trkpt lat="48.65878" lon="-2.2945">
        <ele>37</ele>
        <time>2014-06-10T11:54:28Z</time>
      </trkpt>
      <trkpt lat="48.65876" lon="-2.29447">
        <ele>37</ele>
        <time>2014-06-10T11:54:31Z</time>
      </trkpt>
      <trkpt lat="48.65874" lon="-2.29443">
        <ele>37</ele>
        <time>2014-06-10T11:54:33Z</time>
      </trkpt>
      <trkpt lat="48.65871" lon="-2.29439">
        <ele>37</ele>
        <time>2014-06-10T11:54:36Z</time>
      </trkpt>
      <trkpt lat="48.65869" lon="-2.29437">
        <ele>37</ele>
        <time>2014-06-10T11:54:38Z</time>
      </trkpt>
      <trkpt lat="48.65866" lon="-2.29434">
        <ele>37</ele>
        <time>2014-06-10T11:54:40Z</time>
      </trkpt>
      <trkpt lat="48.65864" lon="-2.29432">
        <ele>37</ele>
        <time>2014-06-10T11:54:42Z</time>
      </trkpt>
      <trkpt lat="48.6586" lon="-2.29429">
        <ele>37</ele>
        <time>2014-06-10T11:54:44Z</time>
      </trkpt>
      <trkpt lat="48.65857" lon="-2.29425">
        <ele>37</ele>
        <time>2014-06-10T11:54:47Z</time>
      </trkpt>
      <trkpt lat="48.65854" lon="-2.29422">
        <ele>37</ele>
        <time>2014-06-10T11:54:50Z</time>
      </trkpt>
      <trkpt lat="48.65851" lon="-2.2942">
        <ele>37</ele>
        <time>2014-06-10T11:54:52Z</time>
      </trkpt>
      <trkpt lat="48.6585" lon="-2.2942">
        <ele>37</ele>
        <time>2014-06-10T11:54:54Z</time>
      </trkpt>
      <trkpt lat="48.65848" lon="-2.29421">
        <ele>37</ele>
        <time>2014-06-10T11:54:56Z</time>
      </trkpt>
      <trkpt lat="48.65847" lon="-2.29422">
        <ele>36</ele>
        <time>2014-06-10T11:54:59Z</time>
      </trkpt>
      <trkpt lat="48.65845" lon="-2.29422">
        <ele>35</ele>
        <time>2014-06-10T11:55:01Z</time>
      </trkpt>
      <trkpt lat="48.65844" lon="-2.29423">
        <ele>34</ele>
        <time>2014-06-10T11:55:03Z</time>
      </trkpt>
      <trkpt lat="48.65842" lon="-2.29425">
        <ele>33</ele>
        <time>2014-06-10T11:55:05Z</time>
      </trkpt>
      <trkpt lat="48.65841" lon="-2.29426">
        <ele>33</ele>
        <time>2014-06-10T11:55:07Z</time>
      </trkpt>
      <trkpt lat="48.65839" lon="-2.29428">
        <ele>32</ele>
        <time>2014-06-10T11:55:09Z</time>
      </trkpt>
      <trkpt lat="48.65837" lon="-2.29428">
        <ele>31</ele>
        <time>2014-06-10T11:55:11Z</time>
      </trkpt>
      <trkpt lat="48.65835" lon="-2.29428">
        <ele>30</ele>
        <time>2014-06-10T11:55:13Z</time>
      </trkpt>
      <trkpt lat="48.65833" lon="-2.29428">
        <ele>30</ele>
        <time>2014-06-10T11:55:16Z</time>
      </trkpt>
      <trkpt lat="48.65831" lon="-2.29428">
        <ele>29</ele>
        <time>2014-06-10T11:55:18Z</time>
      </trkpt>
      <trkpt lat="48.65829" lon="-2.29427">
        <ele>29</ele>
        <time>2014-06-10T11:55:20Z</time>
      </trkpt>
      <trkpt lat="48.65828" lon="-2.29428">
        <ele>29</ele>
        <time>2014-06-10T11:55:22Z</time>
      </trkpt>
      <trkpt lat="48.65827" lon="-2.2943">
        <ele>28</ele>
        <time>2014-06-10T11:55:24Z</time>
      </trkpt>
      <trkpt lat="48.65825" lon="-2.29433">
        <ele>28</ele>
        <time>2014-06-10T11:55:26Z</time>
      </trkpt>
      <trkpt lat="48.65824" lon="-2.29435">
        <ele>27</ele>
        <time>2014-06-10T11:55:28Z</time>
      </trkpt>
      <trkpt lat="48.65824" lon="-2.29439">
        <ele>27</ele>
        <time>2014-06-10T11:55:30Z</time>
      </trkpt>
      <trkpt lat="48.65823" lon="-2.29443">
        <ele>27</ele>
        <time>2014-06-10T11:55:32Z</time>
      </trkpt>
      <trkpt lat="48.65823" lon="-2.29447">
        <ele>27</ele>
        <time>2014-06-10T11:55:34Z</time>
      </trkpt>
      <trkpt lat="48.65823" lon="-2.29451">
        <ele>27</ele>
        <time>2014-06-10T11:55:36Z</time>
      </trkpt>
      <trkpt lat="48.65823" lon="-2.29455">
        <ele>27</ele>
        <time>2014-06-10T11:55:38Z</time>
      </trkpt>
      <trkpt lat="48.65822" lon="-2.2946">
        <ele>27</ele>
        <time>2014-06-10T11:55:40Z</time>
      </trkpt>
      <trkpt lat="48.65823" lon="-2.29465">
        <ele>27</ele>
        <time>2014-06-10T11:55:42Z</time>
      </trkpt>
      <trkpt lat="48.65823" lon="-2.29467">
        <ele>26</ele>
        <time>2014-06-10T11:55:44Z</time>
      </trkpt>
      <trkpt lat="48.65824" lon="-2.29471">
        <ele>26</ele>
        <time>2014-06-10T11:55:46Z</time>
      </trkpt>
      <trkpt lat="48.65825" lon="-2.29475">
        <ele>25</ele>
        <time>2014-06-10T11:55:49Z</time>
      </trkpt>
      <trkpt lat="48.65826" lon="-2.29478">
        <ele>24</ele>
        <time>2014-06-10T11:55:51Z</time>
      </trkpt>
      <trkpt lat="48.65826" lon="-2.29481">
        <ele>23</ele>
        <time>2014-06-10T11:55:53Z</time>
      </trkpt>
      <trkpt lat="48.65827" lon="-2.29483">
        <ele>22</ele>
        <time>2014-06-10T11:55:55Z</time>
      </trkpt>
      <trkpt lat="48.65828" lon="-2.29489">
        <ele>22</ele>
        <time>2014-06-10T11:55:58Z</time>
      </trkpt>
      <trkpt lat="48.65829" lon="-2.29493">
        <ele>22</ele>
        <time>2014-06-10T11:56:00Z</time>
      </trkpt>
      <trkpt lat="48.65829" lon="-2.29496">
        <ele>22</ele>
        <time>2014-06-10T11:56:02Z</time>
      </trkpt>
      <trkpt lat="48.6583" lon="-2.29499">
        <ele>22</ele>
        <time>2014-06-10T11:56:04Z</time>
      </trkpt>
      <trkpt lat="48.65831" lon="-2.29504">
        <ele>22</ele>
        <time>2014-06-10T11:56:06Z</time>
      </trkpt>
      <trkpt lat="48.65834" lon="-2.2951">
        <ele>22</ele>
        <time>2014-06-10T11:56:09Z</time>
      </trkpt>
      <trkpt lat="48.65834" lon="-2.29514">
        <ele>21</ele>
        <time>2014-06-10T11:56:11Z</time>
      </trkpt>
      <trkpt lat="48.65832" lon="-2.29518">
        <ele>20</ele>
        <time>2014-06-10T11:56:14Z</time>
      </trkpt>
      <trkpt lat="48.65831" lon="-2.2952">
        <ele>19</ele>
        <time>2014-06-10T11:56:16Z</time>
      </trkpt>
      <trkpt lat="48.65828" lon="-2.29522">
        <ele>19</ele>
        <time>2014-06-10T11:56:18Z</time>
      </trkpt>
      <trkpt lat="48.65825" lon="-2.29522">
        <ele>19</ele>
        <time>2014-06-10T11:56:20Z</time>
      </trkpt>
      <trkpt lat="48.65823" lon="-2.29525">
        <ele>19</ele>
        <time>2014-06-10T11:56:22Z</time>
      </trkpt>
      <trkpt lat="48.6582" lon="-2.29531">
        <ele>19</ele>
        <time>2014-06-10T11:56:25Z</time>
      </trkpt>
      <trkpt lat="48.65818" lon="-2.29535">
        <ele>19</ele>
        <time>2014-06-10T11:56:27Z</time>
      </trkpt>
      <trkpt lat="48.65817" lon="-2.2954">
        <ele>19</ele>
        <time>2014-06-10T11:56:30Z</time>
      </trkpt>
      <trkpt lat="48.65817" lon="-2.29542">
        <ele>19</ele>
        <time>2014-06-10T11:56:32Z</time>
      </trkpt>
      <trkpt lat="48.65816" lon="-2.29546">
        <ele>19</ele>
        <time>2014-06-10T11:56:35Z</time>
      </trkpt>
      <trkpt lat="48.65815" lon="-2.29549">
        <ele>19</ele>
        <time>2014-06-10T11:56:37Z</time>
      </trkpt>
      <trkpt lat="48.65814" lon="-2.29551">
        <ele>19</ele>
        <time>2014-06-10T11:56:39Z</time>
      </trkpt>
      <trkpt lat="48.65814" lon="-2.29554">
        <ele>19</ele>
        <time>2014-06-10T11:56:41Z</time>
      </trkpt>
      <trkpt lat="48.65813" lon="-2.29556">
        <ele>19</ele>
        <time>2014-06-10T11:56:43Z</time>
      </trkpt>
      <trkpt lat="48.6581" lon="-2.29558">
        <ele>19</ele>
        <time>2014-06-10T11:56:46Z</time>
      </trkpt>
      <trkpt lat="48.6581" lon="-2.29561">
        <ele>19</ele>
        <time>2014-06-10T11:56:48Z</time>
      </trkpt>
      <trkpt lat="48.6581" lon="-2.29563">
        <ele>19</ele>
        <time>2014-06-10T11:56:50Z</time>
      </trkpt>
      <trkpt lat="48.65809" lon="-2.29566">
        <ele>19</ele>
        <time>2014-06-10T11:56:52Z</time>
      </trkpt>
      <trkpt lat="48.65808" lon="-2.29569">
        <ele>19</ele>
        <time>2014-06-10T11:56:54Z</time>
      </trkpt>
      <trkpt lat="48.65807" lon="-2.29572">
        <ele>19</ele>
        <time>2014-06-10T11:56:56Z</time>
      </trkpt>
      <trkpt lat="48.65806" lon="-2.29575">
        <ele>19</ele>
        <time>2014-06-10T11:56:58Z</time>
      </trkpt>
      <trkpt lat="48.65804" lon="-2.29578">
        <ele>19</ele>
        <time>2014-06-10T11:57:00Z</time>
      </trkpt>
      <trkpt lat="48.65803" lon="-2.2958">
        <ele>19</ele>
        <time>2014-06-10T11:57:02Z</time>
      </trkpt>
      <trkpt lat="48.65801" lon="-2.29581">
        <ele>19</ele>
        <time>2014-06-10T11:57:04Z</time>
      </trkpt>
      <trkpt lat="48.65799" lon="-2.29583">
        <ele>20</ele>
        <time>2014-06-10T11:57:06Z</time>
      </trkpt>
      <trkpt lat="48.65797" lon="-2.29585">
        <ele>21</ele>
        <time>2014-06-10T11:57:08Z</time>
      </trkpt>
      <trkpt lat="48.65796" lon="-2.29587">
        <ele>21</ele>
        <time>2014-06-10T11:57:10Z</time>
      </trkpt>
      <trkpt lat="48.65793" lon="-2.2959">
        <ele>21</ele>
        <time>2014-06-10T11:57:12Z</time>
      </trkpt>
      <trkpt lat="48.65791" lon="-2.29591">
        <ele>21</ele>
        <time>2014-06-10T11:57:14Z</time>
      </trkpt>
      <trkpt lat="48.65788" lon="-2.29594">
        <ele>21</ele>
        <time>2014-06-10T11:57:16Z</time>
      </trkpt>
      <trkpt lat="48.65785" lon="-2.29598">
        <ele>21</ele>
        <time>2014-06-10T11:57:19Z</time>
      </trkpt>
      <trkpt lat="48.65782" lon="-2.296">
        <ele>22</ele>
        <time>2014-06-10T11:57:21Z</time>
      </trkpt>
      <trkpt lat="48.65779" lon="-2.29601">
        <ele>23</ele>
        <time>2014-06-10T11:57:23Z</time>
      </trkpt>
      <trkpt lat="48.65778" lon="-2.29601">
        <ele>25</ele>
        <time>2014-06-10T11:57:25Z</time>
      </trkpt>
      <trkpt lat="48.65776" lon="-2.29602">
        <ele>25</ele>
        <time>2014-06-10T11:57:27Z</time>
      </trkpt>
      <trkpt lat="48.65773" lon="-2.29602">
        <ele>25</ele>
        <time>2014-06-10T11:57:29Z</time>
      </trkpt>
      <trkpt lat="48.65771" lon="-2.29603">
        <ele>25</ele>
        <time>2014-06-10T11:57:31Z</time>
      </trkpt>
      <trkpt lat="48.65768" lon="-2.29604">
        <ele>25</ele>
        <time>2014-06-10T11:57:33Z</time>
      </trkpt>
      <trkpt lat="48.65766" lon="-2.29606">
        <ele>25</ele>
        <time>2014-06-10T11:57:35Z</time>
      </trkpt>
      <trkpt lat="48.65763" lon="-2.29607">
        <ele>26</ele>
        <time>2014-06-10T11:57:38Z</time>
      </trkpt>
      <trkpt lat="48.65761" lon="-2.29609">
        <ele>26</ele>
        <time>2014-06-10T11:57:40Z</time>
      </trkpt>
      <trkpt lat="48.65758" lon="-2.29614">
        <ele>26</ele>
        <time>2014-06-10T11:57:44Z</time>
      </trkpt>
      <trkpt lat="48.65755" lon="-2.29618">
        <ele>26</ele>
        <time>2014-06-10T11:57:47Z</time>
      </trkpt>
      <trkpt lat="48.65751" lon="-2.29621">
        <ele>26</ele>
        <time>2014-06-10T11:57:50Z</time>
      </trkpt>
      <trkpt lat="48.65749" lon="-2.29626">
        <ele>27</ele>
        <time>2014-06-10T11:57:53Z</time>
      </trkpt>
      <trkpt lat="48.65747" lon="-2.2963">
        <ele>27</ele>
        <time>2014-06-10T11:57:55Z</time>
      </trkpt>
      <trkpt lat="48.65744" lon="-2.29634">
        <ele>27</ele>
        <time>2014-06-10T11:57:58Z</time>
      </trkpt>
      <trkpt lat="48.65743" lon="-2.29636">
        <ele>27</ele>
        <time>2014-06-10T11:58:00Z</time>
      </trkpt>
      <trkpt lat="48.65737" lon="-2.29639">
        <ele>29</ele>
        <time>2014-06-10T11:58:04Z</time>
      </trkpt>
      <trkpt lat="48.65735" lon="-2.29639">
        <ele>30</ele>
        <time>2014-06-10T11:58:06Z</time>
      </trkpt>
      <trkpt lat="48.65732" lon="-2.29641">
        <ele>30</ele>
        <time>2014-06-10T11:58:09Z</time>
      </trkpt>
      <trkpt lat="48.6573" lon="-2.29644">
        <ele>30</ele>
        <time>2014-06-10T11:58:11Z</time>
      </trkpt>
      <trkpt lat="48.65727" lon="-2.29646">
        <ele>30</ele>
        <time>2014-06-10T11:58:13Z</time>
      </trkpt>
      <trkpt lat="48.65726" lon="-2.29647">
        <ele>30</ele>
        <time>2014-06-10T11:58:15Z</time>
      </trkpt>
      <trkpt lat="48.65724" lon="-2.29649">
        <ele>30</ele>
        <time>2014-06-10T11:58:17Z</time>
      </trkpt>
      <trkpt lat="48.65722" lon="-2.29649">
        <ele>30</ele>
        <time>2014-06-10T11:58:19Z</time>
      </trkpt>
      <trkpt lat="48.65721" lon="-2.2965">
        <ele>30</ele>
        <time>2014-06-10T11:58:21Z</time>
      </trkpt>
      <trkpt lat="48.65719" lon="-2.2965">
        <ele>30</ele>
        <time>2014-06-10T11:58:23Z</time>
      </trkpt>
      <trkpt lat="48.65716" lon="-2.29651">
        <ele>30</ele>
        <time>2014-06-10T11:58:25Z</time>
      </trkpt>
      <trkpt lat="48.65714" lon="-2.29651">
        <ele>30</ele>
        <time>2014-06-10T11:58:27Z</time>
      </trkpt>
      <trkpt lat="48.65712" lon="-2.29653">
        <ele>30</ele>
        <time>2014-06-10T11:58:29Z</time>
      </trkpt>
      <trkpt lat="48.65712" lon="-2.29654">
        <ele>29</ele>
        <time>2014-06-10T11:58:31Z</time>
      </trkpt>
      <trkpt lat="48.6571" lon="-2.29656">
        <ele>28</ele>
        <time>2014-06-10T11:58:33Z</time>
      </trkpt>
      <trkpt lat="48.65708" lon="-2.29657">
        <ele>28</ele>
        <time>2014-06-10T11:58:35Z</time>
      </trkpt>
      <trkpt lat="48.65704" lon="-2.29659">
        <ele>28</ele>
        <time>2014-06-10T11:58:37Z</time>
      </trkpt>
      <trkpt lat="48.65701" lon="-2.29662">
        <ele>28</ele>
        <time>2014-06-10T11:58:39Z</time>
      </trkpt>
      <trkpt lat="48.65698" lon="-2.29662">
        <ele>28</ele>
        <time>2014-06-10T11:58:41Z</time>
      </trkpt>
      <trkpt lat="48.65696" lon="-2.29664">
        <ele>28</ele>
        <time>2014-06-10T11:58:43Z</time>
      </trkpt>
      <trkpt lat="48.65693" lon="-2.29667">
        <ele>29</ele>
        <time>2014-06-10T11:58:45Z</time>
      </trkpt>
      <trkpt lat="48.6569" lon="-2.29667">
        <ele>29</ele>
        <time>2014-06-10T11:58:47Z</time>
      </trkpt>
      <trkpt lat="48.65687" lon="-2.29668">
        <ele>29</ele>
        <time>2014-06-10T11:58:49Z</time>
      </trkpt>
      <trkpt lat="48.65685" lon="-2.29668">
        <ele>29</ele>
        <time>2014-06-10T11:58:51Z</time>
      </trkpt>
      <trkpt lat="48.65682" lon="-2.29669">
        <ele>29</ele>
        <time>2014-06-10T11:58:53Z</time>
      </trkpt>
      <trkpt lat="48.65681" lon="-2.2967">
        <ele>29</ele>
        <time>2014-06-10T11:58:55Z</time>
      </trkpt>
      <trkpt lat="48.6568" lon="-2.29672">
        <ele>29</ele>
        <time>2014-06-10T11:58:57Z</time>
      </trkpt>
      <trkpt lat="48.65678" lon="-2.29675">
        <ele>29</ele>
        <time>2014-06-10T11:58:59Z</time>
      </trkpt>
      <trkpt lat="48.65677" lon="-2.29679">
        <ele>29</ele>
        <time>2014-06-10T11:59:01Z</time>
      </trkpt>
      <trkpt lat="48.65675" lon="-2.29681">
        <ele>29</ele>
        <time>2014-06-10T11:59:03Z</time>
      </trkpt>
      <trkpt lat="48.65674" lon="-2.29683">
        <ele>30</ele>
        <time>2014-06-10T11:59:05Z</time>
      </trkpt>
      <trkpt lat="48.65672" lon="-2.29685">
        <ele>30</ele>
        <time>2014-06-10T11:59:07Z</time>
      </trkpt>
      <trkpt lat="48.6567" lon="-2.29687">
        <ele>30</ele>
        <time>2014-06-10T11:59:09Z</time>
      </trkpt>
      <trkpt lat="48.65668" lon="-2.29689">
        <ele>30</ele>
        <time>2014-06-10T11:59:11Z</time>
      </trkpt>
      <trkpt lat="48.65665" lon="-2.29693">
        <ele>30</ele>
        <time>2014-06-10T11:59:14Z</time>
      </trkpt>
      <trkpt lat="48.65663" lon="-2.29697">
        <ele>30</ele>
        <time>2014-06-10T11:59:17Z</time>
      </trkpt>
      <trkpt lat="48.65662" lon="-2.29698">
        <ele>30</ele>
        <time>2014-06-10T11:59:19Z</time>
      </trkpt>
      <trkpt lat="48.6566" lon="-2.29699">
        <ele>30</ele>
        <time>2014-06-10T11:59:21Z</time>
      </trkpt>
      <trkpt lat="48.65659" lon="-2.29701">
        <ele>30</ele>
        <time>2014-06-10T11:59:23Z</time>
      </trkpt>
      <trkpt lat="48.65658" lon="-2.29703">
        <ele>30</ele>
        <time>2014-06-10T11:59:26Z</time>
      </trkpt>
      <trkpt lat="48.65658" lon="-2.29706">
        <ele>30</ele>
        <time>2014-06-10T11:59:28Z</time>
      </trkpt>
      <trkpt lat="48.65657" lon="-2.2971">
        <ele>30</ele>
        <time>2014-06-10T11:59:31Z</time>
      </trkpt>
      <trkpt lat="48.65657" lon="-2.29713">
        <ele>30</ele>
        <time>2014-06-10T11:59:33Z</time>
      </trkpt>
      <trkpt lat="48.65657" lon="-2.29716">
        <ele>30</ele>
        <time>2014-06-10T11:59:35Z</time>
      </trkpt>
      <trkpt lat="48.65657" lon="-2.2972">
        <ele>30</ele>
        <time>2014-06-10T11:59:37Z</time>
      </trkpt>
      <trkpt lat="48.65656" lon="-2.29723">
        <ele>30</ele>
        <time>2014-06-10T11:59:39Z</time>
      </trkpt>
      <trkpt lat="48.65655" lon="-2.29728">
        <ele>30</ele>
        <time>2014-06-10T11:59:41Z</time>
      </trkpt>
      <trkpt lat="48.65654" lon="-2.29733">
        <ele>30</ele>
        <time>2014-06-10T11:59:43Z</time>
      </trkpt>
      <trkpt lat="48.65656" lon="-2.2974">
        <ele>30</ele>
        <time>2014-06-10T11:59:46Z</time>
      </trkpt>
      <trkpt lat="48.65655" lon="-2.29744">
        <ele>30</ele>
        <time>2014-06-10T11:59:48Z</time>
      </trkpt>
      <trkpt lat="48.65652" lon="-2.29749">
        <ele>30</ele>
        <time>2014-06-10T11:59:51Z</time>
      </trkpt>
      <trkpt lat="48.65651" lon="-2.29752">
        <ele>30</ele>
        <time>2014-06-10T11:59:53Z</time>
      </trkpt>
      <trkpt lat="48.65649" lon="-2.29753">
        <ele>30</ele>
        <time>2014-06-10T11:59:55Z</time>
      </trkpt>
      <trkpt lat="48.65647" lon="-2.29752">
        <ele>30</ele>
        <time>2014-06-10T11:59:58Z</time>
      </trkpt>
      <trkpt lat="48.65645" lon="-2.29751">
        <ele>30</ele>
        <time>2014-06-10T12:00:00Z</time>
      </trkpt>
      <trkpt lat="48.6564" lon="-2.2975">
        <ele>30</ele>
        <time>2014-06-10T12:00:04Z</time>
      </trkpt>
      <trkpt lat="48.65639" lon="-2.29751">
        <ele>30</ele>
        <time>2014-06-10T12:00:08Z</time>
      </trkpt>
      <trkpt lat="48.65636" lon="-2.29755">
        <ele>32</ele>
        <time>2014-06-10T12:00:12Z</time>
      </trkpt>
      <trkpt lat="48.65633" lon="-2.29756">
        <ele>34</ele>
        <time>2014-06-10T12:00:15Z</time>
      </trkpt>
      <trkpt lat="48.65633" lon="-2.29754">
        <ele>35</ele>
        <time>2014-06-10T12:00:20Z</time>
      </trkpt>
      <trkpt lat="48.65631" lon="-2.29752">
        <ele>35</ele>
        <time>2014-06-10T12:00:23Z</time>
      </trkpt>
      <trkpt lat="48.65628" lon="-2.29752">
        <ele>36</ele>
        <time>2014-06-10T12:00:27Z</time>
      </trkpt>
      <trkpt lat="48.65624" lon="-2.29754">
        <ele>37</ele>
        <time>2014-06-10T12:00:31Z</time>
      </trkpt>
      <trkpt lat="48.65621" lon="-2.29754">
        <ele>37</ele>
        <time>2014-06-10T12:00:33Z</time>
      </trkpt>
      <trkpt lat="48.65618" lon="-2.29756">
        <ele>37</ele>
        <time>2014-06-10T12:00:35Z</time>
      </trkpt>
      <trkpt lat="48.65616" lon="-2.29757">
        <ele>37</ele>
        <time>2014-06-10T12:00:37Z</time>
      </trkpt>
      <trkpt lat="48.65612" lon="-2.29758">
        <ele>37</ele>
        <time>2014-06-10T12:00:40Z</time>
      </trkpt>
      <trkpt lat="48.65609" lon="-2.2976">
        <ele>37</ele>
        <time>2014-06-10T12:00:43Z</time>
      </trkpt>
      <trkpt lat="48.65606" lon="-2.29761">
        <ele>37</ele>
        <time>2014-06-10T12:00:47Z</time>
      </trkpt>
      <trkpt lat="48.65601" lon="-2.29764">
        <ele>37</ele>
        <time>2014-06-10T12:00:51Z</time>
      </trkpt>
      <trkpt lat="48.656" lon="-2.29767">
        <ele>37</ele>
        <time>2014-06-10T12:00:53Z</time>
      </trkpt>
      <trkpt lat="48.65597" lon="-2.2977">
        <ele>37</ele>
        <time>2014-06-10T12:00:56Z</time>
      </trkpt>
      <trkpt lat="48.65595" lon="-2.29773">
        <ele>37</ele>
        <time>2014-06-10T12:00:58Z</time>
      </trkpt>
      <trkpt lat="48.65591" lon="-2.29778">
        <ele>35</ele>
        <time>2014-06-10T12:01:03Z</time>
      </trkpt>
      <trkpt lat="48.65587" lon="-2.29783">
        <ele>33</ele>
        <time>2014-06-10T12:01:07Z</time>
      </trkpt>
      <trkpt lat="48.65585" lon="-2.29786">
        <ele>33</ele>
        <time>2014-06-10T12:01:09Z</time>
      </trkpt>
      <trkpt lat="48.65584" lon="-2.29791">
        <ele>32</ele>
        <time>2014-06-10T12:01:12Z</time>
      </trkpt>
      <trkpt lat="48.65583" lon="-2.29795">
        <ele>32</ele>
        <time>2014-06-10T12:01:14Z</time>
      </trkpt>
      <trkpt lat="48.65581" lon="-2.29799">
        <ele>32</ele>
        <time>2014-06-10T12:01:16Z</time>
      </trkpt>
      <trkpt lat="48.65579" lon="-2.29802">
        <ele>32</ele>
        <time>2014-06-10T12:01:18Z</time>
      </trkpt>
      <trkpt lat="48.65577" lon="-2.29804">
        <ele>32</ele>
        <time>2014-06-10T12:01:20Z</time>
      </trkpt>
      <trkpt lat="48.65575" lon="-2.29811">
        <ele>31</ele>
        <time>2014-06-10T12:01:23Z</time>
      </trkpt>
      <trkpt lat="48.65572" lon="-2.29816">
        <ele>31</ele>
        <time>2014-06-10T12:01:26Z</time>
      </trkpt>
      <trkpt lat="48.65571" lon="-2.2982">
        <ele>31</ele>
        <time>2014-06-10T12:01:28Z</time>
      </trkpt>
      <trkpt lat="48.65572" lon="-2.29826">
        <ele>31</ele>
        <time>2014-06-10T12:01:31Z</time>
      </trkpt>
      <trkpt lat="48.65572" lon="-2.29831">
        <ele>31</ele>
        <time>2014-06-10T12:01:33Z</time>
      </trkpt>
      <trkpt lat="48.65574" lon="-2.29836">
        <ele>30</ele>
        <time>2014-06-10T12:01:36Z</time>
      </trkpt>
      <trkpt lat="48.65575" lon="-2.29838">
        <ele>30</ele>
        <time>2014-06-10T12:01:38Z</time>
      </trkpt>
      <trkpt lat="48.65575" lon="-2.29842">
        <ele>30</ele>
        <time>2014-06-10T12:01:40Z</time>
      </trkpt>
      <trkpt lat="48.65575" lon="-2.29847">
        <ele>30</ele>
        <time>2014-06-10T12:01:42Z</time>
      </trkpt>
      <trkpt lat="48.65575" lon="-2.29851">
        <ele>30</ele>
        <time>2014-06-10T12:01:44Z</time>
      </trkpt>
      <trkpt lat="48.65574" lon="-2.29854">
        <ele>30</ele>
        <time>2014-06-10T12:01:46Z</time>
      </trkpt>
      <trkpt lat="48.65573" lon="-2.29859">
        <ele>30</ele>
        <time>2014-06-10T12:01:48Z</time>
      </trkpt>
      <trkpt lat="48.65572" lon="-2.29866">
        <ele>30</ele>
        <time>2014-06-10T12:01:52Z</time>
      </trkpt>
      <trkpt lat="48.65571" lon="-2.29871">
        <ele>31</ele>
        <time>2014-06-10T12:01:54Z</time>
      </trkpt>
      <trkpt lat="48.6557" lon="-2.29875">
        <ele>32</ele>
        <time>2014-06-10T12:01:56Z</time>
      </trkpt>
      <trkpt lat="48.6557" lon="-2.29879">
        <ele>32</ele>
        <time>2014-06-10T12:01:58Z</time>
      </trkpt>
      <trkpt lat="48.65568" lon="-2.29884">
        <ele>33</ele>
        <time>2014-06-10T12:02:00Z</time>
      </trkpt>
      <trkpt lat="48.65567" lon="-2.29888">
        <ele>34</ele>
        <time>2014-06-10T12:02:02Z</time>
      </trkpt>
      <trkpt lat="48.65566" lon="-2.29892">
        <ele>35</ele>
        <time>2014-06-10T12:02:04Z</time>
      </trkpt>
      <trkpt lat="48.65565" lon="-2.29895">
        <ele>36</ele>
        <time>2014-06-10T12:02:06Z</time>
      </trkpt>
      <trkpt lat="48.65566" lon="-2.29898">
        <ele>37</ele>
        <time>2014-06-10T12:02:08Z</time>
      </trkpt>
      <trkpt lat="48.65565" lon="-2.29904">
        <ele>38</ele>
        <time>2014-06-10T12:02:11Z</time>
      </trkpt>
      <trkpt lat="48.65564" lon="-2.29909">
        <ele>39</ele>
        <time>2014-06-10T12:02:14Z</time>
      </trkpt>
      <trkpt lat="48.65564" lon="-2.29914">
        <ele>40</ele>
        <time>2014-06-10T12:02:17Z</time>
      </trkpt>
      <trkpt lat="48.65564" lon="-2.29917">
        <ele>40</ele>
        <time>2014-06-10T12:02:19Z</time>
      </trkpt>
      <trkpt lat="48.65565" lon="-2.29922">
        <ele>41</ele>
        <time>2014-06-10T12:02:22Z</time>
      </trkpt>
      <trkpt lat="48.65567" lon="-2.29925">
        <ele>41</ele>
        <time>2014-06-10T12:02:24Z</time>
      </trkpt>
      <trkpt lat="48.65566" lon="-2.29928">
        <ele>41</ele>
        <time>2014-06-10T12:02:26Z</time>
      </trkpt>
      <trkpt lat="48.65569" lon="-2.29932">
        <ele>41</ele>
        <time>2014-06-10T12:02:28Z</time>
      </trkpt>
      <trkpt lat="48.65569" lon="-2.29936">
        <ele>41</ele>
        <time>2014-06-10T12:02:30Z</time>
      </trkpt>
      <trkpt lat="48.65568" lon="-2.2994">
        <ele>41</ele>
        <time>2014-06-10T12:02:34Z</time>
      </trkpt>
      <trkpt lat="48.6557" lon="-2.2994">
        <ele>42</ele>
        <time>2014-06-10T12:02:37Z</time>
      </trkpt>
      <trkpt lat="48.6557" lon="-2.29939">
        <ele>42</ele>
        <time>2014-06-10T12:02:45Z</time>
      </trkpt>
      <trkpt lat="48.65572" lon="-2.29936">
        <ele>42</ele>
        <time>2014-06-10T12:02:48Z</time>
      </trkpt>
      <trkpt lat="48.65576" lon="-2.29934">
        <ele>43</ele>
        <time>2014-06-10T12:02:50Z</time>
      </trkpt>
      <trkpt lat="48.65582" lon="-2.29932">
        <ele>43</ele>
        <time>2014-06-10T12:02:53Z</time>
      </trkpt>
      <trkpt lat="48.65586" lon="-2.29931">
        <ele>44</ele>
        <time>2014-06-10T12:02:56Z</time>
      </trkpt>
      <trkpt lat="48.65584" lon="-2.29933">
        <ele>45</ele>
        <time>2014-06-10T12:03:00Z</time>
      </trkpt>
      <trkpt lat="48.65581" lon="-2.29936">
        <ele>45</ele>
        <time>2014-06-10T12:03:02Z</time>
      </trkpt>
      <trkpt lat="48.65578" lon="-2.29939">
        <ele>46</ele>
        <time>2014-06-10T12:03:05Z</time>
      </trkpt>
      <trkpt lat="48.65577" lon="-2.29942">
        <ele>46</ele>
        <time>2014-06-10T12:03:07Z</time>
      </trkpt>
      <trkpt lat="48.65574" lon="-2.29946">
        <ele>46</ele>
        <time>2014-06-10T12:03:11Z</time>
      </trkpt>
      <trkpt lat="48.6557" lon="-2.29949">
        <ele>46</ele>
        <time>2014-06-10T12:03:13Z</time>
      </trkpt>
      <trkpt lat="48.65567" lon="-2.29951">
        <ele>46</ele>
        <time>2014-06-10T12:03:15Z</time>
      </trkpt>
      <trkpt lat="48.65562" lon="-2.29953">
        <ele>46</ele>
        <time>2014-06-10T12:03:18Z</time>
      </trkpt>
      <trkpt lat="48.65561" lon="-2.29955">
        <ele>46</ele>
        <time>2014-06-10T12:03:20Z</time>
      </trkpt>
      <trkpt lat="48.65559" lon="-2.29955">
        <ele>46</ele>
        <time>2014-06-10T12:03:22Z</time>
      </trkpt>
      <trkpt lat="48.65558" lon="-2.29955">
        <ele>47</ele>
        <time>2014-06-10T12:03:25Z</time>
      </trkpt>
      <trkpt lat="48.65557" lon="-2.29952">
        <ele>48</ele>
        <time>2014-06-10T12:03:28Z</time>
      </trkpt>
      <trkpt lat="48.65557" lon="-2.29949">
        <ele>49</ele>
        <time>2014-06-10T12:03:30Z</time>
      </trkpt>
      <trkpt lat="48.65555" lon="-2.29947">
        <ele>50</ele>
        <time>2014-06-10T12:03:33Z</time>
      </trkpt>
      <trkpt lat="48.65554" lon="-2.29945">
        <ele>51</ele>
        <time>2014-06-10T12:03:35Z</time>
      </trkpt>
      <trkpt lat="48.65551" lon="-2.29944">
        <ele>51</ele>
        <time>2014-06-10T12:03:39Z</time>
      </trkpt>
      <trkpt lat="48.65548" lon="-2.29944">
        <ele>51</ele>
        <time>2014-06-10T12:03:42Z</time>
      </trkpt>
      <trkpt lat="48.65545" lon="-2.29944">
        <ele>51</ele>
        <time>2014-06-10T12:03:44Z</time>
      </trkpt>
      <trkpt lat="48.65544" lon="-2.29944">
        <ele>51</ele>
        <time>2014-06-10T12:03:46Z</time>
      </trkpt>
      <trkpt lat="48.65541" lon="-2.29941">
        <ele>51</ele>
        <time>2014-06-10T12:03:50Z</time>
      </trkpt>
      <trkpt lat="48.6554" lon="-2.29939">
        <ele>51</ele>
        <time>2014-06-10T12:03:52Z</time>
      </trkpt>
      <trkpt lat="48.65537" lon="-2.29937">
        <ele>51</ele>
        <time>2014-06-10T12:03:56Z</time>
      </trkpt>
      <trkpt lat="48.65535" lon="-2.29936">
        <ele>53</ele>
        <time>2014-06-10T12:03:58Z</time>
      </trkpt>
      <trkpt lat="48.65532" lon="-2.29936">
        <ele>55</ele>
        <time>2014-06-10T12:04:01Z</time>
      </trkpt>
      <trkpt lat="48.6553" lon="-2.29935">
        <ele>56</ele>
        <time>2014-06-10T12:04:03Z</time>
      </trkpt>
      <trkpt lat="48.65529" lon="-2.29935">
        <ele>58</ele>
        <time>2014-06-10T12:04:06Z</time>
      </trkpt>
      <trkpt lat="48.65527" lon="-2.29935">
        <ele>59</ele>
        <time>2014-06-10T12:04:13Z</time>
      </trkpt>
      <trkpt lat="48.65523" lon="-2.29933">
        <ele>59</ele>
        <time>2014-06-10T12:04:17Z</time>
      </trkpt>
      <trkpt lat="48.6552" lon="-2.29931">
        <ele>60</ele>
        <time>2014-06-10T12:04:20Z</time>
      </trkpt>
      <trkpt lat="48.65518" lon="-2.29929">
        <ele>60</ele>
        <time>2014-06-10T12:04:22Z</time>
      </trkpt>
      <trkpt lat="48.65516" lon="-2.29927">
        <ele>61</ele>
        <time>2014-06-10T12:04:24Z</time>
      </trkpt>
      <trkpt lat="48.65513" lon="-2.29924">
        <ele>62</ele>
        <time>2014-06-10T12:04:27Z</time>
      </trkpt>
      <trkpt lat="48.65512" lon="-2.29921">
        <ele>62</ele>
        <time>2014-06-10T12:04:29Z</time>
      </trkpt>
      <trkpt lat="48.65509" lon="-2.29917">
        <ele>62</ele>
        <time>2014-06-10T12:04:32Z</time>
      </trkpt>
      <trkpt lat="48.65507" lon="-2.29915">
        <ele>62</ele>
        <time>2014-06-10T12:04:34Z</time>
      </trkpt>
      <trkpt lat="48.65505" lon="-2.29915">
        <ele>62</ele>
        <time>2014-06-10T12:04:36Z</time>
      </trkpt>
      <trkpt lat="48.65503" lon="-2.29915">
        <ele>62</ele>
        <time>2014-06-10T12:04:38Z</time>
      </trkpt>
      <trkpt lat="48.65499" lon="-2.29917">
        <ele>62</ele>
        <time>2014-06-10T12:04:41Z</time>
      </trkpt>
      <trkpt lat="48.65498" lon="-2.29917">
        <ele>62</ele>
        <time>2014-06-10T12:04:43Z</time>
      </trkpt>
      <trkpt lat="48.65495" lon="-2.29917">
        <ele>62</ele>
        <time>2014-06-10T12:04:45Z</time>
      </trkpt>
      <trkpt lat="48.65493" lon="-2.29915">
        <ele>62</ele>
        <time>2014-06-10T12:04:47Z</time>
      </trkpt>
      <trkpt lat="48.6549" lon="-2.29912">
        <ele>62</ele>
        <time>2014-06-10T12:04:50Z</time>
      </trkpt>
      <trkpt lat="48.6549" lon="-2.2991">
        <ele>62</ele>
        <time>2014-06-10T12:04:52Z</time>
      </trkpt>
      <trkpt lat="48.65488" lon="-2.29909">
        <ele>62</ele>
        <time>2014-06-10T12:04:54Z</time>
      </trkpt>
      <trkpt lat="48.65486" lon="-2.29908">
        <ele>62</ele>
        <time>2014-06-10T12:04:57Z</time>
      </trkpt>
      <trkpt lat="48.65484" lon="-2.29906">
        <ele>61</ele>
        <time>2014-06-10T12:04:59Z</time>
      </trkpt>
      <trkpt lat="48.65482" lon="-2.29904">
        <ele>61</ele>
        <time>2014-06-10T12:05:01Z</time>
      </trkpt>
      <trkpt lat="48.65479" lon="-2.299">
        <ele>60</ele>
        <time>2014-06-10T12:05:04Z</time>
      </trkpt>
      <trkpt lat="48.65475" lon="-2.29896">
        <ele>60</ele>
        <time>2014-06-10T12:05:07Z</time>
      </trkpt>
      <trkpt lat="48.65473" lon="-2.29892">
        <ele>59</ele>
        <time>2014-06-10T12:05:10Z</time>
      </trkpt>
      <trkpt lat="48.65472" lon="-2.29888">
        <ele>59</ele>
        <time>2014-06-10T12:05:12Z</time>
      </trkpt>
      <trkpt lat="48.65469" lon="-2.29884">
        <ele>58</ele>
        <time>2014-06-10T12:05:15Z</time>
      </trkpt>
      <trkpt lat="48.65467" lon="-2.29882">
        <ele>58</ele>
        <time>2014-06-10T12:05:17Z</time>
      </trkpt>
      <trkpt lat="48.65464" lon="-2.29879">
        <ele>58</ele>
        <time>2014-06-10T12:05:19Z</time>
      </trkpt>
      <trkpt lat="48.65461" lon="-2.29874">
        <ele>57</ele>
        <time>2014-06-10T12:05:22Z</time>
      </trkpt>
      <trkpt lat="48.65459" lon="-2.29871">
        <ele>57</ele>
        <time>2014-06-10T12:05:24Z</time>
      </trkpt>
      <trkpt lat="48.65455" lon="-2.29868">
        <ele>56</ele>
        <time>2014-06-10T12:05:26Z</time>
      </trkpt>
      <trkpt lat="48.65452" lon="-2.29865">
        <ele>56</ele>
        <time>2014-06-10T12:05:28Z</time>
      </trkpt>
      <trkpt lat="48.6545" lon="-2.2986">
        <ele>55</ele>
        <time>2014-06-10T12:05:31Z</time>
      </trkpt>
      <trkpt lat="48.65448" lon="-2.29858">
        <ele>54</ele>
        <time>2014-06-10T12:05:33Z</time>
      </trkpt>
      <trkpt lat="48.65447" lon="-2.29856">
        <ele>54</ele>
        <time>2014-06-10T12:05:35Z</time>
      </trkpt>
      <trkpt lat="48.65446" lon="-2.29854">
        <ele>52</ele>
        <time>2014-06-10T12:05:39Z</time>
      </trkpt>
      <trkpt lat="48.65445" lon="-2.29854">
        <ele>52</ele>
        <time>2014-06-10T12:05:41Z</time>
      </trkpt>
      <trkpt lat="48.65443" lon="-2.29853">
        <ele>51</ele>
        <time>2014-06-10T12:05:43Z</time>
      </trkpt>
      <trkpt lat="48.65441" lon="-2.29852">
        <ele>51</ele>
        <time>2014-06-10T12:05:45Z</time>
      </trkpt>
      <trkpt lat="48.65437" lon="-2.29851">
        <ele>51</ele>
        <time>2014-06-10T12:05:49Z</time>
      </trkpt>
      <trkpt lat="48.65435" lon="-2.29852">
        <ele>51</ele>
        <time>2014-06-10T12:05:51Z</time>
      </trkpt>
      <trkpt lat="48.65433" lon="-2.29852">
        <ele>51</ele>
        <time>2014-06-10T12:05:53Z</time>
      </trkpt>
      <trkpt lat="48.65431" lon="-2.29851">
        <ele>51</ele>
        <time>2014-06-10T12:05:55Z</time>
      </trkpt>
      <trkpt lat="48.65429" lon="-2.29852">
        <ele>51</ele>
        <time>2014-06-10T12:05:57Z</time>
      </trkpt>
      <trkpt lat="48.65427" lon="-2.29852">
        <ele>51</ele>
        <time>2014-06-10T12:05:59Z</time>
      </trkpt>
      <trkpt lat="48.65425" lon="-2.29853">
        <ele>51</ele>
        <time>2014-06-10T12:06:01Z</time>
      </trkpt>
      <trkpt lat="48.65423" lon="-2.29853">
        <ele>51</ele>
        <time>2014-06-10T12:06:03Z</time>
      </trkpt>
      <trkpt lat="48.65421" lon="-2.29853">
        <ele>51</ele>
        <time>2014-06-10T12:06:05Z</time>
      </trkpt>
      <trkpt lat="48.65419" lon="-2.29853">
        <ele>51</ele>
        <time>2014-06-10T12:06:07Z</time>
      </trkpt>
      <trkpt lat="48.65416" lon="-2.29854">
        <ele>51</ele>
        <time>2014-06-10T12:06:09Z</time>
      </trkpt>
      <trkpt lat="48.65414" lon="-2.29855">
        <ele>51</ele>
        <time>2014-06-10T12:06:11Z</time>
      </trkpt>
      <trkpt lat="48.65411" lon="-2.29855">
        <ele>51</ele>
        <time>2014-06-10T12:06:13Z</time>
      </trkpt>
      <trkpt lat="48.65408" lon="-2.29855">
        <ele>51</ele>
        <time>2014-06-10T12:06:15Z</time>
      </trkpt>
      <trkpt lat="48.65406" lon="-2.29854">
        <ele>51</ele>
        <time>2014-06-10T12:06:17Z</time>
      </trkpt>
      <trkpt lat="48.65403" lon="-2.29854">
        <ele>51</ele>
        <time>2014-06-10T12:06:20Z</time>
      </trkpt>
      <trkpt lat="48.65399" lon="-2.29854">
        <ele>51</ele>
        <time>2014-06-10T12:06:23Z</time>
      </trkpt>
      <trkpt lat="48.65396" lon="-2.29853">
        <ele>51</ele>
        <time>2014-06-10T12:06:25Z</time>
      </trkpt>
      <trkpt lat="48.65394" lon="-2.29853">
        <ele>51</ele>
        <time>2014-06-10T12:06:27Z</time>
      </trkpt>
      <trkpt lat="48.65391" lon="-2.29853">
        <ele>51</ele>
        <time>2014-06-10T12:06:29Z</time>
      </trkpt>
      <trkpt lat="48.65389" lon="-2.29853">
        <ele>51</ele>
        <time>2014-06-10T12:06:31Z</time>
      </trkpt>
      <trkpt lat="48.65387" lon="-2.29854">
        <ele>51</ele>
        <time>2014-06-10T12:06:33Z</time>
      </trkpt>
      <trkpt lat="48.65385" lon="-2.29855">
        <ele>51</ele>
        <time>2014-06-10T12:06:35Z</time>
      </trkpt>
      <trkpt lat="48.65383" lon="-2.29855">
        <ele>51</ele>
        <time>2014-06-10T12:06:37Z</time>
      </trkpt>
      <trkpt lat="48.65381" lon="-2.29855">
        <ele>51</ele>
        <time>2014-06-10T12:06:39Z</time>
      </trkpt>
      <trkpt lat="48.65379" lon="-2.29855">
        <ele>51</ele>
        <time>2014-06-10T12:06:41Z</time>
      </trkpt>
      <trkpt lat="48.65377" lon="-2.29854">
        <ele>51</ele>
        <time>2014-06-10T12:06:43Z</time>
      </trkpt>
      <trkpt lat="48.65374" lon="-2.29854">
        <ele>51</ele>
        <time>2014-06-10T12:06:45Z</time>
      </trkpt>
      <trkpt lat="48.65372" lon="-2.29855">
        <ele>51</ele>
        <time>2014-06-10T12:06:47Z</time>
      </trkpt>
      <trkpt lat="48.65369" lon="-2.29855">
        <ele>51</ele>
        <time>2014-06-10T12:06:49Z</time>
      </trkpt>
      <trkpt lat="48.65367" lon="-2.29855">
        <ele>51</ele>
        <time>2014-06-10T12:06:51Z</time>
      </trkpt>
      <trkpt lat="48.65365" lon="-2.29855">
        <ele>51</ele>
        <time>2014-06-10T12:06:53Z</time>
      </trkpt>
      <trkpt lat="48.65363" lon="-2.29855">
        <ele>51</ele>
        <time>2014-06-10T12:06:55Z</time>
      </trkpt>
      <trkpt lat="48.6536" lon="-2.29854">
        <ele>51</ele>
        <time>2014-06-10T12:06:57Z</time>
      </trkpt>
      <trkpt lat="48.65357" lon="-2.29854">
        <ele>51</ele>
        <time>2014-06-10T12:06:59Z</time>
      </trkpt>
      <trkpt lat="48.65353" lon="-2.29854">
        <ele>51</ele>
        <time>2014-06-10T12:07:02Z</time>
      </trkpt>
      <trkpt lat="48.6535" lon="-2.29854">
        <ele>51</ele>
        <time>2014-06-10T12:07:05Z</time>
      </trkpt>
      <trkpt lat="48.65347" lon="-2.29854">
        <ele>51</ele>
        <time>2014-06-10T12:07:08Z</time>
      </trkpt>
      <trkpt lat="48.65343" lon="-2.29855">
        <ele>51</ele>
        <time>2014-06-10T12:07:10Z</time>
      </trkpt>
      <trkpt lat="48.6534" lon="-2.29855">
        <ele>51</ele>
        <time>2014-06-10T12:07:12Z</time>
      </trkpt>
      <trkpt lat="48.65337" lon="-2.29855">
        <ele>51</ele>
        <time>2014-06-10T12:07:14Z</time>
      </trkpt>
      <trkpt lat="48.65334" lon="-2.29855">
        <ele>51</ele>
        <time>2014-06-10T12:07:16Z</time>
      </trkpt>
      <trkpt lat="48.65331" lon="-2.29855">
        <ele>51</ele>
        <time>2014-06-10T12:07:18Z</time>
      </trkpt>
      <trkpt lat="48.65328" lon="-2.29855">
        <ele>51</ele>
        <time>2014-06-10T12:07:20Z</time>
      </trkpt>
      <trkpt lat="48.65325" lon="-2.29855">
        <ele>51</ele>
        <time>2014-06-10T12:07:22Z</time>
      </trkpt>
      <trkpt lat="48.65324" lon="-2.29855">
        <ele>51</ele>
        <time>2014-06-10T12:07:24Z</time>
      </trkpt>
      <trkpt lat="48.65321" lon="-2.29855">
        <ele>51</ele>
        <time>2014-06-10T12:07:26Z</time>
      </trkpt>
      <trkpt lat="48.65319" lon="-2.29856">
        <ele>51</ele>
        <time>2014-06-10T12:07:28Z</time>
      </trkpt>
      <trkpt lat="48.65317" lon="-2.29857">
        <ele>51</ele>
        <time>2014-06-10T12:07:30Z</time>
      </trkpt>
      <trkpt lat="48.65314" lon="-2.29858">
        <ele>52</ele>
        <time>2014-06-10T12:07:34Z</time>
      </trkpt>
      <trkpt lat="48.65312" lon="-2.2986">
        <ele>52</ele>
        <time>2014-06-10T12:07:36Z</time>
      </trkpt>
      <trkpt lat="48.6531" lon="-2.29862">
        <ele>52</ele>
        <time>2014-06-10T12:07:38Z</time>
      </trkpt>
      <trkpt lat="48.65309" lon="-2.29865">
        <ele>52</ele>
        <time>2014-06-10T12:07:40Z</time>
      </trkpt>
      <trkpt lat="48.65306" lon="-2.29868">
        <ele>52</ele>
        <time>2014-06-10T12:07:43Z</time>
      </trkpt>
      <trkpt lat="48.65304" lon="-2.29869">
        <ele>52</ele>
        <time>2014-06-10T12:07:45Z</time>
      </trkpt>
      <trkpt lat="48.65303" lon="-2.29871">
        <ele>52</ele>
        <time>2014-06-10T12:07:47Z</time>
      </trkpt>
      <trkpt lat="48.65299" lon="-2.29874">
        <ele>52</ele>
        <time>2014-06-10T12:07:50Z</time>
      </trkpt>
      <trkpt lat="48.65297" lon="-2.29875">
        <ele>52</ele>
        <time>2014-06-10T12:07:52Z</time>
      </trkpt>
      <trkpt lat="48.65294" lon="-2.29877">
        <ele>52</ele>
        <time>2014-06-10T12:07:55Z</time>
      </trkpt>
      <trkpt lat="48.65292" lon="-2.29879">
        <ele>52</ele>
        <time>2014-06-10T12:07:57Z</time>
      </trkpt>
      <trkpt lat="48.6529" lon="-2.2988">
        <ele>52</ele>
        <time>2014-06-10T12:07:59Z</time>
      </trkpt>
      <trkpt lat="48.65289" lon="-2.2988">
        <ele>52</ele>
        <time>2014-06-10T12:08:01Z</time>
      </trkpt>
      <trkpt lat="48.65287" lon="-2.29881">
        <ele>52</ele>
        <time>2014-06-10T12:08:03Z</time>
      </trkpt>
      <trkpt lat="48.65284" lon="-2.29882">
        <ele>52</ele>
        <time>2014-06-10T12:08:05Z</time>
      </trkpt>
      <trkpt lat="48.65281" lon="-2.29883">
        <ele>52</ele>
        <time>2014-06-10T12:08:07Z</time>
      </trkpt>
      <trkpt lat="48.65278" lon="-2.29884">
        <ele>52</ele>
        <time>2014-06-10T12:08:09Z</time>
      </trkpt>
      <trkpt lat="48.65276" lon="-2.29885">
        <ele>52</ele>
        <time>2014-06-10T12:08:11Z</time>
      </trkpt>
      <trkpt lat="48.65272" lon="-2.29886">
        <ele>52</ele>
        <time>2014-06-10T12:08:14Z</time>
      </trkpt>
      <trkpt lat="48.65269" lon="-2.29886">
        <ele>52</ele>
        <time>2014-06-10T12:08:16Z</time>
      </trkpt>
      <trkpt lat="48.65267" lon="-2.29888">
        <ele>52</ele>
        <time>2014-06-10T12:08:18Z</time>
      </trkpt>
      <trkpt lat="48.65264" lon="-2.29891">
        <ele>52</ele>
        <time>2014-06-10T12:08:21Z</time>
      </trkpt>
      <trkpt lat="48.65263" lon="-2.29894">
        <ele>53</ele>
        <time>2014-06-10T12:08:23Z</time>
      </trkpt>
      <trkpt lat="48.65262" lon="-2.29898">
        <ele>53</ele>
        <time>2014-06-10T12:08:25Z</time>
      </trkpt>
      <trkpt lat="48.65261" lon="-2.29902">
        <ele>54</ele>
        <time>2014-06-10T12:08:27Z</time>
      </trkpt>
      <trkpt lat="48.65261" lon="-2.29906">
        <ele>54</ele>
        <time>2014-06-10T12:08:29Z</time>
      </trkpt>
      <trkpt lat="48.65261" lon="-2.29909">
        <ele>55</ele>
        <time>2014-06-10T12:08:31Z</time>
      </trkpt>
      <trkpt lat="48.65259" lon="-2.29913">
        <ele>55</ele>
        <time>2014-06-10T12:08:33Z</time>
      </trkpt>
      <trkpt lat="48.65256" lon="-2.29916">
        <ele>56</ele>
        <time>2014-06-10T12:08:35Z</time>
      </trkpt>
      <trkpt lat="48.65253" lon="-2.29916">
        <ele>56</ele>
        <time>2014-06-10T12:08:37Z</time>
      </trkpt>
      <trkpt lat="48.65252" lon="-2.29915">
        <ele>56</ele>
        <time>2014-06-10T12:08:39Z</time>
      </trkpt>
      <trkpt lat="48.65249" lon="-2.29913">
        <ele>56</ele>
        <time>2014-06-10T12:08:41Z</time>
      </trkpt>
      <trkpt lat="48.65247" lon="-2.2991">
        <ele>56</ele>
        <time>2014-06-10T12:08:43Z</time>
      </trkpt>
      <trkpt lat="48.65244" lon="-2.29908">
        <ele>56</ele>
        <time>2014-06-10T12:08:45Z</time>
      </trkpt>
      <trkpt lat="48.65242" lon="-2.29906">
        <ele>56</ele>
        <time>2014-06-10T12:08:47Z</time>
      </trkpt>
      <trkpt lat="48.6524" lon="-2.29904">
        <ele>56</ele>
        <time>2014-06-10T12:08:49Z</time>
      </trkpt>
      <trkpt lat="48.65238" lon="-2.29902">
        <ele>57</ele>
        <time>2014-06-10T12:08:51Z</time>
      </trkpt>
      <trkpt lat="48.65235" lon="-2.29902">
        <ele>57</ele>
        <time>2014-06-10T12:08:53Z</time>
      </trkpt>
      <trkpt lat="48.65233" lon="-2.29901">
        <ele>57</ele>
        <time>2014-06-10T12:08:55Z</time>
      </trkpt>
      <trkpt lat="48.65229" lon="-2.29899">
        <ele>57</ele>
        <time>2014-06-10T12:08:57Z</time>
      </trkpt>
      <trkpt lat="48.65228" lon="-2.29897">
        <ele>57</ele>
        <time>2014-06-10T12:08:59Z</time>
      </trkpt>
      <trkpt lat="48.65224" lon="-2.29896">
        <ele>57</ele>
        <time>2014-06-10T12:09:02Z</time>
      </trkpt>
      <trkpt lat="48.65222" lon="-2.29894">
        <ele>57</ele>
        <time>2014-06-10T12:09:04Z</time>
      </trkpt>
      <trkpt lat="48.6522" lon="-2.29892">
        <ele>57</ele>
        <time>2014-06-10T12:09:06Z</time>
      </trkpt>
      <trkpt lat="48.65217" lon="-2.2989">
        <ele>57</ele>
        <time>2014-06-10T12:09:09Z</time>
      </trkpt>
      <trkpt lat="48.65213" lon="-2.2989">
        <ele>57</ele>
        <time>2014-06-10T12:09:12Z</time>
      </trkpt>
      <trkpt lat="48.6521" lon="-2.29892">
        <ele>57</ele>
        <time>2014-06-10T12:09:15Z</time>
      </trkpt>
      <trkpt lat="48.65209" lon="-2.29894">
        <ele>57</ele>
        <time>2014-06-10T12:09:17Z</time>
      </trkpt>
      <trkpt lat="48.65207" lon="-2.29896">
        <ele>57</ele>
        <time>2014-06-10T12:09:19Z</time>
      </trkpt>
      <trkpt lat="48.65206" lon="-2.29898">
        <ele>57</ele>
        <time>2014-06-10T12:09:21Z</time>
      </trkpt>
      <trkpt lat="48.65204" lon="-2.29898">
        <ele>57</ele>
        <time>2014-06-10T12:09:23Z</time>
      </trkpt>
      <trkpt lat="48.65201" lon="-2.29898">
        <ele>57</ele>
        <time>2014-06-10T12:09:26Z</time>
      </trkpt>
      <trkpt lat="48.652" lon="-2.29897">
        <ele>57</ele>
        <time>2014-06-10T12:09:28Z</time>
      </trkpt>
      <trkpt lat="48.65197" lon="-2.29896">
        <ele>57</ele>
        <time>2014-06-10T12:09:30Z</time>
      </trkpt>
      <trkpt lat="48.65195" lon="-2.29896">
        <ele>57</ele>
        <time>2014-06-10T12:09:32Z</time>
      </trkpt>
      <trkpt lat="48.65192" lon="-2.29895">
        <ele>57</ele>
        <time>2014-06-10T12:09:34Z</time>
      </trkpt>
      <trkpt lat="48.65191" lon="-2.29897">
        <ele>57</ele>
        <time>2014-06-10T12:09:36Z</time>
      </trkpt>
      <trkpt lat="48.65189" lon="-2.299">
        <ele>57</ele>
        <time>2014-06-10T12:09:38Z</time>
      </trkpt>
      <trkpt lat="48.65189" lon="-2.29902">
        <ele>57</ele>
        <time>2014-06-10T12:09:40Z</time>
      </trkpt>
      <trkpt lat="48.65189" lon="-2.29905">
        <ele>56</ele>
        <time>2014-06-10T12:09:42Z</time>
      </trkpt>
      <trkpt lat="48.65188" lon="-2.29907">
        <ele>56</ele>
        <time>2014-06-10T12:09:44Z</time>
      </trkpt>
      <trkpt lat="48.65186" lon="-2.29907">
        <ele>55</ele>
        <time>2014-06-10T12:09:46Z</time>
      </trkpt>
      <trkpt lat="48.65184" lon="-2.29906">
        <ele>55</ele>
        <time>2014-06-10T12:09:48Z</time>
      </trkpt>
      <trkpt lat="48.65182" lon="-2.29904">
        <ele>54</ele>
        <time>2014-06-10T12:09:50Z</time>
      </trkpt>
      <trkpt lat="48.65179" lon="-2.29902">
        <ele>54</ele>
        <time>2014-06-10T12:09:52Z</time>
      </trkpt>
      <trkpt lat="48.65177" lon="-2.299">
        <ele>54</ele>
        <time>2014-06-10T12:09:54Z</time>
      </trkpt>
      <trkpt lat="48.65174" lon="-2.29897">
        <ele>54</ele>
        <time>2014-06-10T12:09:57Z</time>
      </trkpt>
      <trkpt lat="48.65173" lon="-2.29897">
        <ele>54</ele>
        <time>2014-06-10T12:09:59Z</time>
      </trkpt>
      <trkpt lat="48.65171" lon="-2.29896">
        <ele>53</ele>
        <time>2014-06-10T12:10:01Z</time>
      </trkpt>
      <trkpt lat="48.65168" lon="-2.29895">
        <ele>53</ele>
        <time>2014-06-10T12:10:03Z</time>
      </trkpt>
      <trkpt lat="48.65165" lon="-2.29893">
        <ele>52</ele>
        <time>2014-06-10T12:10:06Z</time>
      </trkpt>
      <trkpt lat="48.65162" lon="-2.29891">
        <ele>51</ele>
        <time>2014-06-10T12:10:09Z</time>
      </trkpt>
      <trkpt lat="48.6516" lon="-2.29891">
        <ele>51</ele>
        <time>2014-06-10T12:10:11Z</time>
      </trkpt>
      <trkpt lat="48.65159" lon="-2.29892">
        <ele>50</ele>
        <time>2014-06-10T12:10:13Z</time>
      </trkpt>
      <trkpt lat="48.65157" lon="-2.29894">
        <ele>50</ele>
        <time>2014-06-10T12:10:15Z</time>
      </trkpt>
      <trkpt lat="48.65156" lon="-2.29897">
        <ele>50</ele>
        <time>2014-06-10T12:10:17Z</time>
      </trkpt>
      <trkpt lat="48.65155" lon="-2.299">
        <ele>49</ele>
        <time>2014-06-10T12:10:19Z</time>
      </trkpt>
      <trkpt lat="48.65154" lon="-2.29903">
        <ele>49</ele>
        <time>2014-06-10T12:10:21Z</time>
      </trkpt>
      <trkpt lat="48.65153" lon="-2.29906">
        <ele>49</ele>
        <time>2014-06-10T12:10:23Z</time>
      </trkpt>
      <trkpt lat="48.65152" lon="-2.29908">
        <ele>49</ele>
        <time>2014-06-10T12:10:25Z</time>
      </trkpt>
      <trkpt lat="48.65151" lon="-2.2991">
        <ele>48</ele>
        <time>2014-06-10T12:10:27Z</time>
      </trkpt>
      <trkpt lat="48.6515" lon="-2.29912">
        <ele>48</ele>
        <time>2014-06-10T12:10:29Z</time>
      </trkpt>
      <trkpt lat="48.65148" lon="-2.29913">
        <ele>48</ele>
        <time>2014-06-10T12:10:31Z</time>
      </trkpt>
      <trkpt lat="48.65147" lon="-2.29913">
        <ele>47</ele>
        <time>2014-06-10T12:10:35Z</time>
      </trkpt>
      <trkpt lat="48.65146" lon="-2.29916">
        <ele>47</ele>
        <time>2014-06-10T12:10:38Z</time>
      </trkpt>
      <trkpt lat="48.65146" lon="-2.29919">
        <ele>47</ele>
        <time>2014-06-10T12:10:40Z</time>
      </trkpt>
      <trkpt lat="48.65146" lon="-2.29922">
        <ele>46</ele>
        <time>2014-06-10T12:10:42Z</time>
      </trkpt>
      <trkpt lat="48.65146" lon="-2.29925">
        <ele>46</ele>
        <time>2014-06-10T12:10:44Z</time>
      </trkpt>
      <trkpt lat="48.65148" lon="-2.2993">
        <ele>45</ele>
        <time>2014-06-10T12:10:47Z</time>
      </trkpt>
      <trkpt lat="48.65149" lon="-2.29933">
        <ele>44</ele>
        <time>2014-06-10T12:10:49Z</time>
      </trkpt>
      <trkpt lat="48.6515" lon="-2.29936">
        <ele>44</ele>
        <time>2014-06-10T12:10:51Z</time>
      </trkpt>
      <trkpt lat="48.65151" lon="-2.2994">
        <ele>43</ele>
        <time>2014-06-10T12:10:53Z</time>
      </trkpt>
      <trkpt lat="48.65153" lon="-2.29942">
        <ele>42</ele>
        <time>2014-06-10T12:10:55Z</time>
      </trkpt>
      <trkpt lat="48.65155" lon="-2.29947">
        <ele>41</ele>
        <time>2014-06-10T12:10:58Z</time>
      </trkpt>
      <trkpt lat="48.65155" lon="-2.29951">
        <ele>40</ele>
        <time>2014-06-10T12:11:01Z</time>
      </trkpt>
      <trkpt lat="48.65155" lon="-2.29954">
        <ele>40</ele>
        <time>2014-06-10T12:11:03Z</time>
      </trkpt>
      <trkpt lat="48.65155" lon="-2.29957">
        <ele>39</ele>
        <time>2014-06-10T12:11:05Z</time>
      </trkpt>
      <trkpt lat="48.65155" lon="-2.2996">
        <ele>39</ele>
        <time>2014-06-10T12:11:07Z</time>
      </trkpt>
      <trkpt lat="48.65155" lon="-2.29962">
        <ele>38</ele>
        <time>2014-06-10T12:11:09Z</time>
      </trkpt>
      <trkpt lat="48.65156" lon="-2.29965">
        <ele>36</ele>
        <time>2014-06-10T12:11:11Z</time>
      </trkpt>
      <trkpt lat="48.65157" lon="-2.29967">
        <ele>35</ele>
        <time>2014-06-10T12:11:13Z</time>
      </trkpt>
      <trkpt lat="48.65157" lon="-2.29972">
        <ele>34</ele>
        <time>2014-06-10T12:11:16Z</time>
      </trkpt>
      <trkpt lat="48.65158" lon="-2.29974">
        <ele>33</ele>
        <time>2014-06-10T12:11:19Z</time>
      </trkpt>
      <trkpt lat="48.65158" lon="-2.29976">
        <ele>33</ele>
        <time>2014-06-10T12:11:21Z</time>
      </trkpt>
      <trkpt lat="48.65158" lon="-2.29978">
        <ele>33</ele>
        <time>2014-06-10T12:11:23Z</time>
      </trkpt>
      <trkpt lat="48.65158" lon="-2.29981">
        <ele>33</ele>
        <time>2014-06-10T12:11:25Z</time>
      </trkpt>
      <trkpt lat="48.65158" lon="-2.29984">
        <ele>33</ele>
        <time>2014-06-10T12:11:27Z</time>
      </trkpt>
      <trkpt lat="48.65159" lon="-2.29987">
        <ele>33</ele>
        <time>2014-06-10T12:11:29Z</time>
      </trkpt>
      <trkpt lat="48.65159" lon="-2.29989">
        <ele>33</ele>
        <time>2014-06-10T12:11:31Z</time>
      </trkpt>
      <trkpt lat="48.65159" lon="-2.29992">
        <ele>33</ele>
        <time>2014-06-10T12:11:33Z</time>
      </trkpt>
      <trkpt lat="48.65159" lon="-2.29994">
        <ele>33</ele>
        <time>2014-06-10T12:11:35Z</time>
      </trkpt>
      <trkpt lat="48.65159" lon="-2.29996">
        <ele>32</ele>
        <time>2014-06-10T12:11:37Z</time>
      </trkpt>
      <trkpt lat="48.65159" lon="-2.29998">
        <ele>32</ele>
        <time>2014-06-10T12:11:39Z</time>
      </trkpt>
      <trkpt lat="48.65159" lon="-2.3">
        <ele>32</ele>
        <time>2014-06-10T12:11:41Z</time>
      </trkpt>
      <trkpt lat="48.65159" lon="-2.30001">
        <ele>31</ele>
        <time>2014-06-10T12:11:43Z</time>
      </trkpt>
      <trkpt lat="48.65159" lon="-2.30003">
        <ele>31</ele>
        <time>2014-06-10T12:11:45Z</time>
      </trkpt>
      <trkpt lat="48.65159" lon="-2.30005">
        <ele>30</ele>
        <time>2014-06-10T12:11:47Z</time>
      </trkpt>
      <trkpt lat="48.65159" lon="-2.30007">
        <ele>30</ele>
        <time>2014-06-10T12:11:49Z</time>
      </trkpt>
      <trkpt lat="48.6516" lon="-2.3001">
        <ele>30</ele>
        <time>2014-06-10T12:11:51Z</time>
      </trkpt>
      <trkpt lat="48.6516" lon="-2.30012">
        <ele>29</ele>
        <time>2014-06-10T12:11:53Z</time>
      </trkpt>
      <trkpt lat="48.6516" lon="-2.30013">
        <ele>29</ele>
        <time>2014-06-10T12:11:55Z</time>
      </trkpt>
      <trkpt lat="48.6516" lon="-2.30015">
        <ele>29</ele>
        <time>2014-06-10T12:11:57Z</time>
      </trkpt>
      <trkpt lat="48.65159" lon="-2.30017">
        <ele>28</ele>
        <time>2014-06-10T12:12:00Z</time>
      </trkpt>
      <trkpt lat="48.65158" lon="-2.30018">
        <ele>27</ele>
        <time>2014-06-10T12:12:02Z</time>
      </trkpt>
      <trkpt lat="48.65157" lon="-2.30021">
        <ele>27</ele>
        <time>2014-06-10T12:12:04Z</time>
      </trkpt>
      <trkpt lat="48.65158" lon="-2.30025">
        <ele>26</ele>
        <time>2014-06-10T12:12:07Z</time>
      </trkpt>
      <trkpt lat="48.65158" lon="-2.30029">
        <ele>25</ele>
        <time>2014-06-10T12:12:09Z</time>
      </trkpt>
      <trkpt lat="48.65157" lon="-2.30032">
        <ele>22</ele>
        <time>2014-06-10T12:12:13Z</time>
      </trkpt>
      <trkpt lat="48.65157" lon="-2.30036">
        <ele>21</ele>
        <time>2014-06-10T12:12:15Z</time>
      </trkpt>
      <trkpt lat="48.65156" lon="-2.30039">
        <ele>21</ele>
        <time>2014-06-10T12:12:17Z</time>
      </trkpt>
      <trkpt lat="48.65155" lon="-2.30041">
        <ele>21</ele>
        <time>2014-06-10T12:12:19Z</time>
      </trkpt>
      <trkpt lat="48.65155" lon="-2.30042">
        <ele>21</ele>
        <time>2014-06-10T12:12:21Z</time>
      </trkpt>
      <trkpt lat="48.65153" lon="-2.30044">
        <ele>21</ele>
        <time>2014-06-10T12:12:24Z</time>
      </trkpt>
      <trkpt lat="48.65153" lon="-2.30046">
        <ele>21</ele>
        <time>2014-06-10T12:12:28Z</time>
      </trkpt>
      <trkpt lat="48.65151" lon="-2.30046">
        <ele>21</ele>
        <time>2014-06-10T12:12:37Z</time>
      </trkpt>
      <trkpt lat="48.65148" lon="-2.30046">
        <ele>21</ele>
        <time>2014-06-10T12:12:39Z</time>
      </trkpt>
      <trkpt lat="48.65145" lon="-2.30043">
        <ele>21</ele>
        <time>2014-06-10T12:12:42Z</time>
      </trkpt>
      <trkpt lat="48.65143" lon="-2.30042">
        <ele>21</ele>
        <time>2014-06-10T12:12:44Z</time>
      </trkpt>
      <trkpt lat="48.65142" lon="-2.30041">
        <ele>23</ele>
        <time>2014-06-10T12:12:47Z</time>
      </trkpt>
      <trkpt lat="48.65142" lon="-2.30038">
        <ele>27</ele>
        <time>2014-06-10T12:12:53Z</time>
      </trkpt>
      <trkpt lat="48.6514" lon="-2.30038">
        <ele>27</ele>
        <time>2014-06-10T12:12:55Z</time>
      </trkpt>
      <trkpt lat="48.65137" lon="-2.30036">
        <ele>28</ele>
        <time>2014-06-10T12:12:58Z</time>
      </trkpt>
      <trkpt lat="48.65136" lon="-2.30035">
        <ele>28</ele>
        <time>2014-06-10T12:13:01Z</time>
      </trkpt>
      <trkpt lat="48.65135" lon="-2.30034">
        <ele>28</ele>
        <time>2014-06-10T12:13:04Z</time>
      </trkpt>
      <trkpt lat="48.65134" lon="-2.30033">
        <ele>28</ele>
        <time>2014-06-10T12:13:06Z</time>
      </trkpt>
      <trkpt lat="48.65133" lon="-2.30033">
        <ele>28</ele>
        <time>2014-06-10T12:13:08Z</time>
      </trkpt>
      <trkpt lat="48.65131" lon="-2.30033">
        <ele>28</ele>
        <time>2014-06-10T12:13:10Z</time>
      </trkpt>
      <trkpt lat="48.65129" lon="-2.30033">
        <ele>28</ele>
        <time>2014-06-10T12:13:12Z</time>
      </trkpt>
      <trkpt lat="48.65126" lon="-2.30032">
        <ele>27</ele>
        <time>2014-06-10T12:13:15Z</time>
      </trkpt>
      <trkpt lat="48.65124" lon="-2.30032">
        <ele>27</ele>
        <time>2014-06-10T12:13:17Z</time>
      </trkpt>
      <trkpt lat="48.65122" lon="-2.30032">
        <ele>26</ele>
        <time>2014-06-10T12:13:19Z</time>
      </trkpt>
      <trkpt lat="48.65118" lon="-2.30031">
        <ele>25</ele>
        <time>2014-06-10T12:13:22Z</time>
      </trkpt>
      <trkpt lat="48.65116" lon="-2.30031">
        <ele>25</ele>
        <time>2014-06-10T12:13:24Z</time>
      </trkpt>
      <trkpt lat="48.65114" lon="-2.3003">
        <ele>24</ele>
        <time>2014-06-10T12:13:26Z</time>
      </trkpt>
      <trkpt lat="48.65113" lon="-2.3003">
        <ele>23</ele>
        <time>2014-06-10T12:13:28Z</time>
      </trkpt>
      <trkpt lat="48.65106" lon="-2.30031">
        <ele>29</ele>
        <time>2014-06-10T12:13:34Z</time>
      </trkpt>
      <trkpt lat="48.65105" lon="-2.30033">
        <ele>28</ele>
        <time>2014-06-10T12:13:37Z</time>
      </trkpt>
      <trkpt lat="48.65103" lon="-2.30034">
        <ele>27</ele>
        <time>2014-06-10T12:13:39Z</time>
      </trkpt>
      <trkpt lat="48.651" lon="-2.30035">
        <ele>27</ele>
        <time>2014-06-10T12:13:41Z</time>
      </trkpt>
      <trkpt lat="48.65098" lon="-2.30035">
        <ele>27</ele>
        <time>2014-06-10T12:13:43Z</time>
      </trkpt>
      <trkpt lat="48.65096" lon="-2.30036">
        <ele>27</ele>
        <time>2014-06-10T12:13:45Z</time>
      </trkpt>
      <trkpt lat="48.65094" lon="-2.30037">
        <ele>26</ele>
        <time>2014-06-10T12:13:47Z</time>
      </trkpt>
      <trkpt lat="48.65091" lon="-2.30037">
        <ele>25</ele>
        <time>2014-06-10T12:13:49Z</time>
      </trkpt>
      <trkpt lat="48.65089" lon="-2.30039">
        <ele>25</ele>
        <time>2014-06-10T12:13:51Z</time>
      </trkpt>
      <trkpt lat="48.65086" lon="-2.3004">
        <ele>25</ele>
        <time>2014-06-10T12:13:53Z</time>
      </trkpt>
      <trkpt lat="48.65084" lon="-2.30041">
        <ele>25</ele>
        <time>2014-06-10T12:13:55Z</time>
      </trkpt>
      <trkpt lat="48.65083" lon="-2.30042">
        <ele>25</ele>
        <time>2014-06-10T12:13:57Z</time>
      </trkpt>
      <trkpt lat="48.65083" lon="-2.30045">
        <ele>25</ele>
        <time>2014-06-10T12:14:00Z</time>
      </trkpt>
      <trkpt lat="48.65082" lon="-2.30047">
        <ele>25</ele>
        <time>2014-06-10T12:14:02Z</time>
      </trkpt>
      <trkpt lat="48.65081" lon="-2.30048">
        <ele>25</ele>
        <time>2014-06-10T12:14:04Z</time>
      </trkpt>
      <trkpt lat="48.6508" lon="-2.3005">
        <ele>25</ele>
        <time>2014-06-10T12:14:06Z</time>
      </trkpt>
      <trkpt lat="48.6508" lon="-2.30052">
        <ele>25</ele>
        <time>2014-06-10T12:14:08Z</time>
      </trkpt>
      <trkpt lat="48.65081" lon="-2.30054">
        <ele>25</ele>
        <time>2014-06-10T12:14:10Z</time>
      </trkpt>
      <trkpt lat="48.6508" lon="-2.30056">
        <ele>25</ele>
        <time>2014-06-10T12:14:12Z</time>
      </trkpt>
      <trkpt lat="48.65079" lon="-2.30059">
        <ele>25</ele>
        <time>2014-06-10T12:14:14Z</time>
      </trkpt>
      <trkpt lat="48.65078" lon="-2.30061">
        <ele>25</ele>
        <time>2014-06-10T12:14:16Z</time>
      </trkpt>
      <trkpt lat="48.65079" lon="-2.30065">
        <ele>25</ele>
        <time>2014-06-10T12:14:18Z</time>
      </trkpt>
      <trkpt lat="48.65079" lon="-2.30068">
        <ele>25</ele>
        <time>2014-06-10T12:14:20Z</time>
      </trkpt>
      <trkpt lat="48.65078" lon="-2.3007">
        <ele>25</ele>
        <time>2014-06-10T12:14:24Z</time>
      </trkpt>
      <trkpt lat="48.65079" lon="-2.30071">
        <ele>25</ele>
        <time>2014-06-10T12:14:26Z</time>
      </trkpt>
      <trkpt lat="48.65078" lon="-2.30073">
        <ele>25</ele>
        <time>2014-06-10T12:14:28Z</time>
      </trkpt>
      <trkpt lat="48.65076" lon="-2.30076">
        <ele>25</ele>
        <time>2014-06-10T12:14:30Z</time>
      </trkpt>
      <trkpt lat="48.65073" lon="-2.30076">
        <ele>25</ele>
        <time>2014-06-10T12:14:32Z</time>
      </trkpt>
      <trkpt lat="48.65071" lon="-2.30078">
        <ele>25</ele>
        <time>2014-06-10T12:14:34Z</time>
      </trkpt>
      <trkpt lat="48.6507" lon="-2.30079">
        <ele>25</ele>
        <time>2014-06-10T12:14:36Z</time>
      </trkpt>
      <trkpt lat="48.6507" lon="-2.30081">
        <ele>25</ele>
        <time>2014-06-10T12:14:38Z</time>
      </trkpt>
      <trkpt lat="48.65068" lon="-2.30083">
        <ele>26</ele>
        <time>2014-06-10T12:14:41Z</time>
      </trkpt>
      <trkpt lat="48.65066" lon="-2.30084">
        <ele>27</ele>
        <time>2014-06-10T12:14:43Z</time>
      </trkpt>
      <trkpt lat="48.65063" lon="-2.30086">
        <ele>28</ele>
        <time>2014-06-10T12:14:47Z</time>
      </trkpt>
      <trkpt lat="48.6506" lon="-2.30088">
        <ele>28</ele>
        <time>2014-06-10T12:14:50Z</time>
      </trkpt>
      <trkpt lat="48.65057" lon="-2.30088">
        <ele>28</ele>
        <time>2014-06-10T12:14:52Z</time>
      </trkpt>
      <trkpt lat="48.65054" lon="-2.3009">
        <ele>28</ele>
        <time>2014-06-10T12:14:54Z</time>
      </trkpt>
      <trkpt lat="48.65053" lon="-2.30091">
        <ele>28</ele>
        <time>2014-06-10T12:14:56Z</time>
      </trkpt>
      <trkpt lat="48.65051" lon="-2.30093">
        <ele>28</ele>
        <time>2014-06-10T12:14:58Z</time>
      </trkpt>
      <trkpt lat="48.6505" lon="-2.30094">
        <ele>28</ele>
        <time>2014-06-10T12:15:00Z</time>
      </trkpt>
      <trkpt lat="48.65048" lon="-2.30095">
        <ele>29</ele>
        <time>2014-06-10T12:15:02Z</time>
      </trkpt>
      <trkpt lat="48.65047" lon="-2.30095">
        <ele>30</ele>
        <time>2014-06-10T12:15:04Z</time>
      </trkpt>
      <trkpt lat="48.65044" lon="-2.30096">
        <ele>31</ele>
        <time>2014-06-10T12:15:06Z</time>
      </trkpt>
      <trkpt lat="48.65042" lon="-2.30097">
        <ele>33</ele>
        <time>2014-06-10T12:15:08Z</time>
      </trkpt>
      <trkpt lat="48.6504" lon="-2.30097">
        <ele>34</ele>
        <time>2014-06-10T12:15:10Z</time>
      </trkpt>
      <trkpt lat="48.65038" lon="-2.30098">
        <ele>35</ele>
        <time>2014-06-10T12:15:12Z</time>
      </trkpt>
      <trkpt lat="48.65035" lon="-2.30099">
        <ele>36</ele>
        <time>2014-06-10T12:15:14Z</time>
      </trkpt>
      <trkpt lat="48.65032" lon="-2.30101">
        <ele>36</ele>
        <time>2014-06-10T12:15:17Z</time>
      </trkpt>
      <trkpt lat="48.65029" lon="-2.30102">
        <ele>36</ele>
        <time>2014-06-10T12:15:19Z</time>
      </trkpt>
      <trkpt lat="48.65026" lon="-2.30102">
        <ele>36</ele>
        <time>2014-06-10T12:15:21Z</time>
      </trkpt>
      <trkpt lat="48.65024" lon="-2.30103">
        <ele>36</ele>
        <time>2014-06-10T12:15:23Z</time>
      </trkpt>
      <trkpt lat="48.65022" lon="-2.30104">
        <ele>36</ele>
        <time>2014-06-10T12:15:25Z</time>
      </trkpt>
      <trkpt lat="48.6502" lon="-2.30105">
        <ele>36</ele>
        <time>2014-06-10T12:15:27Z</time>
      </trkpt>
      <trkpt lat="48.65018" lon="-2.30106">
        <ele>36</ele>
        <time>2014-06-10T12:15:29Z</time>
      </trkpt>
      <trkpt lat="48.65017" lon="-2.30108">
        <ele>36</ele>
        <time>2014-06-10T12:15:31Z</time>
      </trkpt>
      <trkpt lat="48.65015" lon="-2.30109">
        <ele>36</ele>
        <time>2014-06-10T12:15:33Z</time>
      </trkpt>
      <trkpt lat="48.65015" lon="-2.30112">
        <ele>35</ele>
        <time>2014-06-10T12:15:36Z</time>
      </trkpt>
      <trkpt lat="48.65013" lon="-2.30113">
        <ele>35</ele>
        <time>2014-06-10T12:15:38Z</time>
      </trkpt>
      <trkpt lat="48.65011" lon="-2.30116">
        <ele>35</ele>
        <time>2014-06-10T12:15:40Z</time>
      </trkpt>
      <trkpt lat="48.65008" lon="-2.3012">
        <ele>35</ele>
        <time>2014-06-10T12:15:43Z</time>
      </trkpt>
      <trkpt lat="48.65005" lon="-2.30125">
        <ele>34</ele>
        <time>2014-06-10T12:15:46Z</time>
      </trkpt>
      <trkpt lat="48.65004" lon="-2.3013">
        <ele>34</ele>
        <time>2014-06-10T12:15:48Z</time>
      </trkpt>
      <trkpt lat="48.65003" lon="-2.30132">
        <ele>34</ele>
        <time>2014-06-10T12:15:50Z</time>
      </trkpt>
      <trkpt lat="48.65001" lon="-2.30135">
        <ele>34</ele>
        <time>2014-06-10T12:15:52Z</time>
      </trkpt>
      <trkpt lat="48.64998" lon="-2.30138">
        <ele>34</ele>
        <time>2014-06-10T12:15:54Z</time>
      </trkpt>
      <trkpt lat="48.64996" lon="-2.30142">
        <ele>34</ele>
        <time>2014-06-10T12:15:57Z</time>
      </trkpt>
      <trkpt lat="48.64995" lon="-2.30145">
        <ele>34</ele>
        <time>2014-06-10T12:15:59Z</time>
      </trkpt>
      <trkpt lat="48.64994" lon="-2.30146">
        <ele>34</ele>
        <time>2014-06-10T12:16:01Z</time>
      </trkpt>
      <trkpt lat="48.64991" lon="-2.30148">
        <ele>34</ele>
        <time>2014-06-10T12:16:03Z</time>
      </trkpt>
      <trkpt lat="48.64989" lon="-2.30151">
        <ele>34</ele>
        <time>2014-06-10T12:16:05Z</time>
      </trkpt>
      <trkpt lat="48.64986" lon="-2.30155">
        <ele>34</ele>
        <time>2014-06-10T12:16:08Z</time>
      </trkpt>
      <trkpt lat="48.64985" lon="-2.30158">
        <ele>34</ele>
        <time>2014-06-10T12:16:10Z</time>
      </trkpt>
      <trkpt lat="48.64983" lon="-2.30161">
        <ele>34</ele>
        <time>2014-06-10T12:16:12Z</time>
      </trkpt>
      <trkpt lat="48.64982" lon="-2.30165">
        <ele>34</ele>
        <time>2014-06-10T12:16:14Z</time>
      </trkpt>
      <trkpt lat="48.64981" lon="-2.30168">
        <ele>34</ele>
        <time>2014-06-10T12:16:16Z</time>
      </trkpt>
      <trkpt lat="48.6498" lon="-2.30171">
        <ele>34</ele>
        <time>2014-06-10T12:16:18Z</time>
      </trkpt>
      <trkpt lat="48.64979" lon="-2.30175">
        <ele>34</ele>
        <time>2014-06-10T12:16:20Z</time>
      </trkpt>
      <trkpt lat="48.64978" lon="-2.30178">
        <ele>33</ele>
        <time>2014-06-10T12:16:22Z</time>
      </trkpt>
      <trkpt lat="48.64977" lon="-2.30183">
        <ele>33</ele>
        <time>2014-06-10T12:16:25Z</time>
      </trkpt>
      <trkpt lat="48.64977" lon="-2.30186">
        <ele>32</ele>
        <time>2014-06-10T12:16:27Z</time>
      </trkpt>
      <trkpt lat="48.64977" lon="-2.30191">
        <ele>31</ele>
        <time>2014-06-10T12:16:29Z</time>
      </trkpt>
      <trkpt lat="48.64978" lon="-2.30195">
        <ele>31</ele>
        <time>2014-06-10T12:16:31Z</time>
      </trkpt>
      <trkpt lat="48.64978" lon="-2.30199">
        <ele>30</ele>
        <time>2014-06-10T12:16:33Z</time>
      </trkpt>
      <trkpt lat="48.64978" lon="-2.30204">
        <ele>29</ele>
        <time>2014-06-10T12:16:35Z</time>
      </trkpt>
      <trkpt lat="48.64977" lon="-2.30208">
        <ele>29</ele>
        <time>2014-06-10T12:16:37Z</time>
      </trkpt>
      <trkpt lat="48.64977" lon="-2.30212">
        <ele>29</ele>
        <time>2014-06-10T12:16:39Z</time>
      </trkpt>
      <trkpt lat="48.64976" lon="-2.30215">
        <ele>28</ele>
        <time>2014-06-10T12:16:41Z</time>
      </trkpt>
      <trkpt lat="48.64976" lon="-2.3022">
        <ele>28</ele>
        <time>2014-06-10T12:16:44Z</time>
      </trkpt>
      <trkpt lat="48.64975" lon="-2.30222">
        <ele>28</ele>
        <time>2014-06-10T12:16:46Z</time>
      </trkpt>
      <trkpt lat="48.64975" lon="-2.30224">
        <ele>28</ele>
        <time>2014-06-10T12:16:50Z</time>
      </trkpt>
      <trkpt lat="48.64973" lon="-2.30225">
        <ele>28</ele>
        <time>2014-06-10T12:16:52Z</time>
      </trkpt>
      <trkpt lat="48.64971" lon="-2.30225">
        <ele>28</ele>
        <time>2014-06-10T12:16:54Z</time>
      </trkpt>
      <trkpt lat="48.64968" lon="-2.30226">
        <ele>29</ele>
        <time>2014-06-10T12:16:57Z</time>
      </trkpt>
      <trkpt lat="48.64965" lon="-2.30226">
        <ele>30</ele>
        <time>2014-06-10T12:16:59Z</time>
      </trkpt>
      <trkpt lat="48.64964" lon="-2.30225">
        <ele>31</ele>
        <time>2014-06-10T12:17:01Z</time>
      </trkpt>
      <trkpt lat="48.64962" lon="-2.30227">
        <ele>32</ele>
        <time>2014-06-10T12:17:04Z</time>
      </trkpt>
      <trkpt lat="48.64962" lon="-2.3023">
        <ele>33</ele>
        <time>2014-06-10T12:17:06Z</time>
      </trkpt>
      <trkpt lat="48.64964" lon="-2.30233">
        <ele>33</ele>
        <time>2014-06-10T12:17:08Z</time>
      </trkpt>
      <trkpt lat="48.64965" lon="-2.30236">
        <ele>33</ele>
        <time>2014-06-10T12:17:10Z</time>
      </trkpt>
      <trkpt lat="48.64967" lon="-2.30238">
        <ele>33</ele>
        <time>2014-06-10T12:17:12Z</time>
      </trkpt>
      <trkpt lat="48.64967" lon="-2.30241">
        <ele>33</ele>
        <time>2014-06-10T12:17:14Z</time>
      </trkpt>
      <trkpt lat="48.64967" lon="-2.30243">
        <ele>33</ele>
        <time>2014-06-10T12:17:16Z</time>
      </trkpt>
      <trkpt lat="48.64966" lon="-2.30245">
        <ele>32</ele>
        <time>2014-06-10T12:17:19Z</time>
      </trkpt>
      <trkpt lat="48.64964" lon="-2.30245">
        <ele>30</ele>
        <time>2014-06-10T12:17:21Z</time>
      </trkpt>
      <trkpt lat="48.64963" lon="-2.30245">
        <ele>29</ele>
        <time>2014-06-10T12:17:23Z</time>
      </trkpt>
      <trkpt lat="48.64961" lon="-2.30244">
        <ele>29</ele>
        <time>2014-06-10T12:17:25Z</time>
      </trkpt>
      <trkpt lat="48.6496" lon="-2.30244">
        <ele>29</ele>
        <time>2014-06-10T12:17:27Z</time>
      </trkpt>
      <trkpt lat="48.64959" lon="-2.30242">
        <ele>28</ele>
        <time>2014-06-10T12:17:30Z</time>
      </trkpt>
      <trkpt lat="48.64957" lon="-2.30241">
        <ele>28</ele>
        <time>2014-06-10T12:17:32Z</time>
      </trkpt>
      <trkpt lat="48.64955" lon="-2.3024">
        <ele>27</ele>
        <time>2014-06-10T12:17:34Z</time>
      </trkpt>
      <trkpt lat="48.64953" lon="-2.30239">
        <ele>27</ele>
        <time>2014-06-10T12:17:36Z</time>
      </trkpt>
      <trkpt lat="48.6495" lon="-2.30239">
        <ele>27</ele>
        <time>2014-06-10T12:17:38Z</time>
      </trkpt>
      <trkpt lat="48.64948" lon="-2.3024">
        <ele>27</ele>
        <time>2014-06-10T12:17:40Z</time>
      </trkpt>
      <trkpt lat="48.64947" lon="-2.30241">
        <ele>27</ele>
        <time>2014-06-10T12:17:42Z</time>
      </trkpt>
      <trkpt lat="48.64946" lon="-2.30243">
        <ele>27</ele>
        <time>2014-06-10T12:17:44Z</time>
      </trkpt>
      <trkpt lat="48.64946" lon="-2.30244">
        <ele>27</ele>
        <time>2014-06-10T12:17:46Z</time>
      </trkpt>
      <trkpt lat="48.64945" lon="-2.30247">
        <ele>27</ele>
        <time>2014-06-10T12:17:48Z</time>
      </trkpt>
      <trkpt lat="48.64944" lon="-2.30251">
        <ele>27</ele>
        <time>2014-06-10T12:17:50Z</time>
      </trkpt>
      <trkpt lat="48.64943" lon="-2.30253">
        <ele>27</ele>
        <time>2014-06-10T12:17:52Z</time>
      </trkpt>
      <trkpt lat="48.64942" lon="-2.30256">
        <ele>27</ele>
        <time>2014-06-10T12:17:54Z</time>
      </trkpt>
      <trkpt lat="48.64941" lon="-2.30257">
        <ele>27</ele>
        <time>2014-06-10T12:17:57Z</time>
      </trkpt>
      <trkpt lat="48.64942" lon="-2.3026">
        <ele>27</ele>
        <time>2014-06-10T12:17:59Z</time>
      </trkpt>
      <trkpt lat="48.64944" lon="-2.30264">
        <ele>27</ele>
        <time>2014-06-10T12:18:01Z</time>
      </trkpt>
      <trkpt lat="48.64943" lon="-2.30268">
        <ele>26</ele>
        <time>2014-06-10T12:18:03Z</time>
      </trkpt>
      <trkpt lat="48.64942" lon="-2.3027">
        <ele>25</ele>
        <time>2014-06-10T12:18:05Z</time>
      </trkpt>
      <trkpt lat="48.64941" lon="-2.30275">
        <ele>23</ele>
        <time>2014-06-10T12:18:08Z</time>
      </trkpt>
      <trkpt lat="48.6494" lon="-2.30281">
        <ele>22</ele>
        <time>2014-06-10T12:18:11Z</time>
      </trkpt>
      <trkpt lat="48.64938" lon="-2.30285">
        <ele>21</ele>
        <time>2014-06-10T12:18:13Z</time>
      </trkpt>
      <trkpt lat="48.64938" lon="-2.30287">
        <ele>21</ele>
        <time>2014-06-10T12:18:15Z</time>
      </trkpt>
      <trkpt lat="48.64936" lon="-2.3029">
        <ele>20</ele>
        <time>2014-06-10T12:18:17Z</time>
      </trkpt>
      <trkpt lat="48.64936" lon="-2.30294">
        <ele>19</ele>
        <time>2014-06-10T12:18:19Z</time>
      </trkpt>
      <trkpt lat="48.64933" lon="-2.30299">
        <ele>19</ele>
        <time>2014-06-10T12:18:22Z</time>
      </trkpt>
      <trkpt lat="48.64932" lon="-2.30304">
        <ele>19</ele>
        <time>2014-06-10T12:18:25Z</time>
      </trkpt>
      <trkpt lat="48.6493" lon="-2.30308">
        <ele>19</ele>
        <time>2014-06-10T12:18:28Z</time>
      </trkpt>
      <trkpt lat="48.64926" lon="-2.30311">
        <ele>19</ele>
        <time>2014-06-10T12:18:31Z</time>
      </trkpt>
      <trkpt lat="48.64923" lon="-2.30311">
        <ele>19</ele>
        <time>2014-06-10T12:18:33Z</time>
      </trkpt>
      <trkpt lat="48.64922" lon="-2.30311">
        <ele>19</ele>
        <time>2014-06-10T12:18:36Z</time>
      </trkpt>
      <trkpt lat="48.6492" lon="-2.30313">
        <ele>19</ele>
        <time>2014-06-10T12:18:39Z</time>
      </trkpt>
      <trkpt lat="48.64921" lon="-2.30315">
        <ele>19</ele>
        <time>2014-06-10T12:18:41Z</time>
      </trkpt>
      <trkpt lat="48.6492" lon="-2.30317">
        <ele>19</ele>
        <time>2014-06-10T12:18:43Z</time>
      </trkpt>
      <trkpt lat="48.64919" lon="-2.3032">
        <ele>19</ele>
        <time>2014-06-10T12:18:46Z</time>
      </trkpt>
      <trkpt lat="48.64918" lon="-2.30322">
        <ele>19</ele>
        <time>2014-06-10T12:18:48Z</time>
      </trkpt>
      <trkpt lat="48.64916" lon="-2.30324">
        <ele>21</ele>
        <time>2014-06-10T12:18:51Z</time>
      </trkpt>
      <trkpt lat="48.64915" lon="-2.30327">
        <ele>23</ele>
        <time>2014-06-10T12:18:53Z</time>
      </trkpt>
      <trkpt lat="48.64914" lon="-2.3033">
        <ele>23</ele>
        <time>2014-06-10T12:18:55Z</time>
      </trkpt>
      <trkpt lat="48.64913" lon="-2.30331">
        <ele>23</ele>
        <time>2014-06-10T12:18:57Z</time>
      </trkpt>
      <trkpt lat="48.6491" lon="-2.30333">
        <ele>23</ele>
        <time>2014-06-10T12:18:59Z</time>
      </trkpt>
      <trkpt lat="48.64908" lon="-2.30335">
        <ele>23</ele>
        <time>2014-06-10T12:19:02Z</time>
      </trkpt>
      <trkpt lat="48.64908" lon="-2.3034">
        <ele>23</ele>
        <time>2014-06-10T12:19:04Z</time>
      </trkpt>
      <trkpt lat="48.64905" lon="-2.30342">
        <ele>23</ele>
        <time>2014-06-10T12:19:06Z</time>
      </trkpt>
      <trkpt lat="48.64902" lon="-2.30344">
        <ele>24</ele>
        <time>2014-06-10T12:19:09Z</time>
      </trkpt>
      <trkpt lat="48.64898" lon="-2.30344">
        <ele>27</ele>
        <time>2014-06-10T12:19:12Z</time>
      </trkpt>
      <trkpt lat="48.64896" lon="-2.30345">
        <ele>29</ele>
        <time>2014-06-10T12:19:14Z</time>
      </trkpt>
      <trkpt lat="48.64895" lon="-2.30345">
        <ele>29</ele>
        <time>2014-06-10T12:19:16Z</time>
      </trkpt>
      <trkpt lat="48.64893" lon="-2.30345">
        <ele>29</ele>
        <time>2014-06-10T12:19:18Z</time>
      </trkpt>
      <trkpt lat="48.6489" lon="-2.30346">
        <ele>30</ele>
        <time>2014-06-10T12:19:21Z</time>
      </trkpt>
      <trkpt lat="48.64887" lon="-2.30347">
        <ele>31</ele>
        <time>2014-06-10T12:19:23Z</time>
      </trkpt>
      <trkpt lat="48.64884" lon="-2.30348">
        <ele>31</ele>
        <time>2014-06-10T12:19:26Z</time>
      </trkpt>
      <trkpt lat="48.6488" lon="-2.30349">
        <ele>32</ele>
        <time>2014-06-10T12:19:29Z</time>
      </trkpt>
      <trkpt lat="48.64878" lon="-2.3035">
        <ele>32</ele>
        <time>2014-06-10T12:19:31Z</time>
      </trkpt>
      <trkpt lat="48.64877" lon="-2.30351">
        <ele>32</ele>
        <time>2014-06-10T12:19:34Z</time>
      </trkpt>
      <trkpt lat="48.64875" lon="-2.30353">
        <ele>32</ele>
        <time>2014-06-10T12:19:36Z</time>
      </trkpt>
      <trkpt lat="48.64872" lon="-2.30357">
        <ele>32</ele>
        <time>2014-06-10T12:19:39Z</time>
      </trkpt>
      <trkpt lat="48.64869" lon="-2.30359">
        <ele>32</ele>
        <time>2014-06-10T12:19:42Z</time>
      </trkpt>
      <trkpt lat="48.64867" lon="-2.3036">
        <ele>32</ele>
        <time>2014-06-10T12:19:44Z</time>
      </trkpt>
      <trkpt lat="48.64865" lon="-2.30359">
        <ele>32</ele>
        <time>2014-06-10T12:19:46Z</time>
      </trkpt>
      <trkpt lat="48.64862" lon="-2.30359">
        <ele>31</ele>
        <time>2014-06-10T12:19:48Z</time>
      </trkpt>
      <trkpt lat="48.64861" lon="-2.30359">
        <ele>31</ele>
        <time>2014-06-10T12:19:50Z</time>
      </trkpt>
      <trkpt lat="48.64858" lon="-2.3036">
        <ele>30</ele>
        <time>2014-06-10T12:19:52Z</time>
      </trkpt>
      <trkpt lat="48.64856" lon="-2.30362">
        <ele>30</ele>
        <time>2014-06-10T12:19:54Z</time>
      </trkpt>
      <trkpt lat="48.64853" lon="-2.30363">
        <ele>29</ele>
        <time>2014-06-10T12:19:56Z</time>
      </trkpt>
      <trkpt lat="48.6485" lon="-2.30365">
        <ele>29</ele>
        <time>2014-06-10T12:19:58Z</time>
      </trkpt>
      <trkpt lat="48.64848" lon="-2.30368">
        <ele>28</ele>
        <time>2014-06-10T12:20:00Z</time>
      </trkpt>
      <trkpt lat="48.64845" lon="-2.30369">
        <ele>28</ele>
        <time>2014-06-10T12:20:02Z</time>
      </trkpt>
      <trkpt lat="48.64842" lon="-2.30372">
        <ele>28</ele>
        <time>2014-06-10T12:20:04Z</time>
      </trkpt>
      <trkpt lat="48.6484" lon="-2.30374">
        <ele>28</ele>
        <time>2014-06-10T12:20:06Z</time>
      </trkpt>
      <trkpt lat="48.64838" lon="-2.30375">
        <ele>28</ele>
        <time>2014-06-10T12:20:08Z</time>
      </trkpt>
      <trkpt lat="48.64836" lon="-2.30377">
        <ele>28</ele>
        <time>2014-06-10T12:20:10Z</time>
      </trkpt>
      <trkpt lat="48.64834" lon="-2.30378">
        <ele>28</ele>
        <time>2014-06-10T12:20:12Z</time>
      </trkpt>
      <trkpt lat="48.64832" lon="-2.3038">
        <ele>28</ele>
        <time>2014-06-10T12:20:14Z</time>
      </trkpt>
      <trkpt lat="48.64829" lon="-2.30381">
        <ele>28</ele>
        <time>2014-06-10T12:20:17Z</time>
      </trkpt>
      <trkpt lat="48.64827" lon="-2.30383">
        <ele>28</ele>
        <time>2014-06-10T12:20:19Z</time>
      </trkpt>
      <trkpt lat="48.64827" lon="-2.30384">
        <ele>28</ele>
        <time>2014-06-10T12:20:21Z</time>
      </trkpt>
      <trkpt lat="48.64827" lon="-2.30387">
        <ele>28</ele>
        <time>2014-06-10T12:20:23Z</time>
      </trkpt>
      <trkpt lat="48.64825" lon="-2.30389">
        <ele>28</ele>
        <time>2014-06-10T12:20:25Z</time>
      </trkpt>
      <trkpt lat="48.64825" lon="-2.30392">
        <ele>28</ele>
        <time>2014-06-10T12:20:27Z</time>
      </trkpt>
      <trkpt lat="48.64824" lon="-2.30394">
        <ele>28</ele>
        <time>2014-06-10T12:20:29Z</time>
      </trkpt>
      <trkpt lat="48.64823" lon="-2.30397">
        <ele>28</ele>
        <time>2014-06-10T12:20:31Z</time>
      </trkpt>
      <trkpt lat="48.6482" lon="-2.30399">
        <ele>28</ele>
        <time>2014-06-10T12:20:33Z</time>
      </trkpt>
      <trkpt lat="48.64818" lon="-2.30404">
        <ele>28</ele>
        <time>2014-06-10T12:20:36Z</time>
      </trkpt>
      <trkpt lat="48.64816" lon="-2.30406">
        <ele>28</ele>
        <time>2014-06-10T12:20:38Z</time>
      </trkpt>
      <trkpt lat="48.64815" lon="-2.3041">
        <ele>28</ele>
        <time>2014-06-10T12:20:40Z</time>
      </trkpt>
      <trkpt lat="48.64813" lon="-2.30415">
        <ele>28</ele>
        <time>2014-06-10T12:20:43Z</time>
      </trkpt>
      <trkpt lat="48.64812" lon="-2.30418">
        <ele>28</ele>
        <time>2014-06-10T12:20:45Z</time>
      </trkpt>
      <trkpt lat="48.64811" lon="-2.30421">
        <ele>28</ele>
        <time>2014-06-10T12:20:47Z</time>
      </trkpt>
      <trkpt lat="48.6481" lon="-2.30424">
        <ele>28</ele>
        <time>2014-06-10T12:20:49Z</time>
      </trkpt>
      <trkpt lat="48.64808" lon="-2.30429">
        <ele>28</ele>
        <time>2014-06-10T12:20:52Z</time>
      </trkpt>
      <trkpt lat="48.64808" lon="-2.30432">
        <ele>27</ele>
        <time>2014-06-10T12:20:54Z</time>
      </trkpt>
      <trkpt lat="48.64807" lon="-2.30435">
        <ele>26</ele>
        <time>2014-06-10T12:20:56Z</time>
      </trkpt>
      <trkpt lat="48.64806" lon="-2.3044">
        <ele>25</ele>
        <time>2014-06-10T12:20:59Z</time>
      </trkpt>
      <trkpt lat="48.64806" lon="-2.30443">
        <ele>25</ele>
        <time>2014-06-10T12:21:01Z</time>
      </trkpt>
      <trkpt lat="48.64807" lon="-2.30445">
        <ele>24</ele>
        <time>2014-06-10T12:21:03Z</time>
      </trkpt>
      <trkpt lat="48.64806" lon="-2.30447">
        <ele>24</ele>
        <time>2014-06-10T12:21:05Z</time>
      </trkpt>
      <trkpt lat="48.64806" lon="-2.30449">
        <ele>24</ele>
        <time>2014-06-10T12:21:07Z</time>
      </trkpt>
      <trkpt lat="48.64806" lon="-2.30451">
        <ele>23</ele>
        <time>2014-06-10T12:21:09Z</time>
      </trkpt>
      <trkpt lat="48.64805" lon="-2.30453">
        <ele>23</ele>
        <time>2014-06-10T12:21:11Z</time>
      </trkpt>
      <trkpt lat="48.64805" lon="-2.30456">
        <ele>23</ele>
        <time>2014-06-10T12:21:13Z</time>
      </trkpt>
      <trkpt lat="48.64804" lon="-2.30458">
        <ele>23</ele>
        <time>2014-06-10T12:21:15Z</time>
      </trkpt>
      <trkpt lat="48.64804" lon="-2.30462">
        <ele>23</ele>
        <time>2014-06-10T12:21:17Z</time>
      </trkpt>
      <trkpt lat="48.64803" lon="-2.30465">
        <ele>23</ele>
        <time>2014-06-10T12:21:19Z</time>
      </trkpt>
      <trkpt lat="48.64804" lon="-2.30468">
        <ele>23</ele>
        <time>2014-06-10T12:21:21Z</time>
      </trkpt>
      <trkpt lat="48.64805" lon="-2.30472">
        <ele>23</ele>
        <time>2014-06-10T12:21:23Z</time>
      </trkpt>
      <trkpt lat="48.64805" lon="-2.30475">
        <ele>23</ele>
        <time>2014-06-10T12:21:25Z</time>
      </trkpt>
      <trkpt lat="48.64804" lon="-2.3048">
        <ele>23</ele>
        <time>2014-06-10T12:21:27Z</time>
      </trkpt>
      <trkpt lat="48.64803" lon="-2.30482">
        <ele>23</ele>
        <time>2014-06-10T12:21:29Z</time>
      </trkpt>
      <trkpt lat="48.64802" lon="-2.30484">
        <ele>23</ele>
        <time>2014-06-10T12:21:31Z</time>
      </trkpt>
      <trkpt lat="48.64799" lon="-2.30488">
        <ele>23</ele>
        <time>2014-06-10T12:21:34Z</time>
      </trkpt>
      <trkpt lat="48.64796" lon="-2.3049">
        <ele>23</ele>
        <time>2014-06-10T12:21:37Z</time>
      </trkpt>
      <trkpt lat="48.64792" lon="-2.30493">
        <ele>23</ele>
        <time>2014-06-10T12:21:40Z</time>
      </trkpt>
      <trkpt lat="48.6479" lon="-2.30498">
        <ele>23</ele>
        <time>2014-06-10T12:21:43Z</time>
      </trkpt>
      <trkpt lat="48.64789" lon="-2.30499">
        <ele>23</ele>
        <time>2014-06-10T12:21:45Z</time>
      </trkpt>
      <trkpt lat="48.64787" lon="-2.30501">
        <ele>23</ele>
        <time>2014-06-10T12:21:47Z</time>
      </trkpt>
      <trkpt lat="48.64783" lon="-2.30505">
        <ele>24</ele>
        <time>2014-06-10T12:21:50Z</time>
      </trkpt>
      <trkpt lat="48.64782" lon="-2.30509">
        <ele>25</ele>
        <time>2014-06-10T12:21:53Z</time>
      </trkpt>
      <trkpt lat="48.64781" lon="-2.30512">
        <ele>25</ele>
        <time>2014-06-10T12:21:55Z</time>
      </trkpt>
      <trkpt lat="48.6478" lon="-2.30516">
        <ele>25</ele>
        <time>2014-06-10T12:21:57Z</time>
      </trkpt>
      <trkpt lat="48.64778" lon="-2.30519">
        <ele>25</ele>
        <time>2014-06-10T12:21:59Z</time>
      </trkpt>
      <trkpt lat="48.64775" lon="-2.30522">
        <ele>25</ele>
        <time>2014-06-10T12:22:02Z</time>
      </trkpt>
      <trkpt lat="48.64774" lon="-2.30524">
        <ele>25</ele>
        <time>2014-06-10T12:22:04Z</time>
      </trkpt>
      <trkpt lat="48.64772" lon="-2.30528">
        <ele>25</ele>
        <time>2014-06-10T12:22:06Z</time>
      </trkpt>
      <trkpt lat="48.6477" lon="-2.30531">
        <ele>25</ele>
        <time>2014-06-10T12:22:08Z</time>
      </trkpt>
      <trkpt lat="48.64767" lon="-2.30533">
        <ele>25</ele>
        <time>2014-06-10T12:22:10Z</time>
      </trkpt>
      <trkpt lat="48.64765" lon="-2.30535">
        <ele>25</ele>
        <time>2014-06-10T12:22:12Z</time>
      </trkpt>
      <trkpt lat="48.64763" lon="-2.30537">
        <ele>25</ele>
        <time>2014-06-10T12:22:14Z</time>
      </trkpt>
      <trkpt lat="48.64761" lon="-2.30539">
        <ele>25</ele>
        <time>2014-06-10T12:22:16Z</time>
      </trkpt>
      <trkpt lat="48.6476" lon="-2.30543">
        <ele>25</ele>
        <time>2014-06-10T12:22:18Z</time>
      </trkpt>
      <trkpt lat="48.64758" lon="-2.30544">
        <ele>25</ele>
        <time>2014-06-10T12:22:20Z</time>
      </trkpt>
      <trkpt lat="48.64755" lon="-2.30548">
        <ele>25</ele>
        <time>2014-06-10T12:22:23Z</time>
      </trkpt>
      <trkpt lat="48.64754" lon="-2.3055">
        <ele>25</ele>
        <time>2014-06-10T12:22:25Z</time>
      </trkpt>
      <trkpt lat="48.64752" lon="-2.30552">
        <ele>25</ele>
        <time>2014-06-10T12:22:27Z</time>
      </trkpt>
      <trkpt lat="48.64751" lon="-2.30554">
        <ele>25</ele>
        <time>2014-06-10T12:22:29Z</time>
      </trkpt>
      <trkpt lat="48.64749" lon="-2.30557">
        <ele>25</ele>
        <time>2014-06-10T12:22:31Z</time>
      </trkpt>
      <trkpt lat="48.64748" lon="-2.3056">
        <ele>25</ele>
        <time>2014-06-10T12:22:33Z</time>
      </trkpt>
      <trkpt lat="48.64746" lon="-2.30562">
        <ele>25</ele>
        <time>2014-06-10T12:22:35Z</time>
      </trkpt>
      <trkpt lat="48.64745" lon="-2.30564">
        <ele>25</ele>
        <time>2014-06-10T12:22:37Z</time>
      </trkpt>
      <trkpt lat="48.64743" lon="-2.30566">
        <ele>25</ele>
        <time>2014-06-10T12:22:39Z</time>
      </trkpt>
      <trkpt lat="48.6474" lon="-2.30569">
        <ele>25</ele>
        <time>2014-06-10T12:22:42Z</time>
      </trkpt>
      <trkpt lat="48.64738" lon="-2.30573">
        <ele>25</ele>
        <time>2014-06-10T12:22:44Z</time>
      </trkpt>
      <trkpt lat="48.64737" lon="-2.30578">
        <ele>25</ele>
        <time>2014-06-10T12:22:47Z</time>
      </trkpt>
      <trkpt lat="48.64735" lon="-2.3058">
        <ele>25</ele>
        <time>2014-06-10T12:22:49Z</time>
      </trkpt>
      <trkpt lat="48.64734" lon="-2.30581">
        <ele>25</ele>
        <time>2014-06-10T12:22:51Z</time>
      </trkpt>
      <trkpt lat="48.64731" lon="-2.30583">
        <ele>26</ele>
        <time>2014-06-10T12:22:53Z</time>
      </trkpt>
      <trkpt lat="48.6473" lon="-2.30585">
        <ele>26</ele>
        <time>2014-06-10T12:22:55Z</time>
      </trkpt>
      <trkpt lat="48.64727" lon="-2.30587">
        <ele>28</ele>
        <time>2014-06-10T12:22:58Z</time>
      </trkpt>
      <trkpt lat="48.64726" lon="-2.30591">
        <ele>28</ele>
        <time>2014-06-10T12:23:01Z</time>
      </trkpt>
      <trkpt lat="48.64724" lon="-2.30593">
        <ele>28</ele>
        <time>2014-06-10T12:23:03Z</time>
      </trkpt>
      <trkpt lat="48.64721" lon="-2.30598">
        <ele>29</ele>
        <time>2014-06-10T12:23:06Z</time>
      </trkpt>
      <trkpt lat="48.64719" lon="-2.306">
        <ele>29</ele>
        <time>2014-06-10T12:23:08Z</time>
      </trkpt>
      <trkpt lat="48.64718" lon="-2.30602">
        <ele>29</ele>
        <time>2014-06-10T12:23:10Z</time>
      </trkpt>
      <trkpt lat="48.64715" lon="-2.30604">
        <ele>30</ele>
        <time>2014-06-10T12:23:12Z</time>
      </trkpt>
      <trkpt lat="48.64714" lon="-2.30607">
        <ele>31</ele>
        <time>2014-06-10T12:23:14Z</time>
      </trkpt>
      <trkpt lat="48.64713" lon="-2.30611">
        <ele>31</ele>
        <time>2014-06-10T12:23:16Z</time>
      </trkpt>
      <trkpt lat="48.64712" lon="-2.30612">
        <ele>31</ele>
        <time>2014-06-10T12:23:18Z</time>
      </trkpt>
      <trkpt lat="48.64708" lon="-2.30613">
        <ele>31</ele>
        <time>2014-06-10T12:23:21Z</time>
      </trkpt>
      <trkpt lat="48.64707" lon="-2.30615">
        <ele>31</ele>
        <time>2014-06-10T12:23:23Z</time>
      </trkpt>
      <trkpt lat="48.64705" lon="-2.30619">
        <ele>31</ele>
        <time>2014-06-10T12:23:25Z</time>
      </trkpt>
      <trkpt lat="48.64703" lon="-2.30623">
        <ele>31</ele>
        <time>2014-06-10T12:23:27Z</time>
      </trkpt>
      <trkpt lat="48.64701" lon="-2.30625">
        <ele>31</ele>
        <time>2014-06-10T12:23:29Z</time>
      </trkpt>
      <trkpt lat="48.647" lon="-2.30628">
        <ele>31</ele>
        <time>2014-06-10T12:23:31Z</time>
      </trkpt>
      <trkpt lat="48.647" lon="-2.30633">
        <ele>31</ele>
        <time>2014-06-10T12:23:33Z</time>
      </trkpt>
      <trkpt lat="48.64699" lon="-2.30637">
        <ele>31</ele>
        <time>2014-06-10T12:23:36Z</time>
      </trkpt>
      <trkpt lat="48.64697" lon="-2.3064">
        <ele>31</ele>
        <time>2014-06-10T12:23:38Z</time>
      </trkpt>
      <trkpt lat="48.64696" lon="-2.30642">
        <ele>31</ele>
        <time>2014-06-10T12:23:40Z</time>
      </trkpt>
      <trkpt lat="48.64695" lon="-2.30646">
        <ele>31</ele>
        <time>2014-06-10T12:23:42Z</time>
      </trkpt>
      <trkpt lat="48.64693" lon="-2.30647">
        <ele>31</ele>
        <time>2014-06-10T12:23:44Z</time>
      </trkpt>
      <trkpt lat="48.64692" lon="-2.30649">
        <ele>31</ele>
        <time>2014-06-10T12:23:46Z</time>
      </trkpt>
      <trkpt lat="48.64691" lon="-2.30651">
        <ele>31</ele>
        <time>2014-06-10T12:23:49Z</time>
      </trkpt>
      <trkpt lat="48.64691" lon="-2.30653">
        <ele>34</ele>
        <time>2014-06-10T12:23:54Z</time>
      </trkpt>
      <trkpt lat="48.6469" lon="-2.30655">
        <ele>35</ele>
        <time>2014-06-10T12:23:56Z</time>
      </trkpt>
      <trkpt lat="48.6469" lon="-2.30657">
        <ele>35</ele>
        <time>2014-06-10T12:23:58Z</time>
      </trkpt>
      <trkpt lat="48.64688" lon="-2.30662">
        <ele>35</ele>
        <time>2014-06-10T12:24:01Z</time>
      </trkpt>
      <trkpt lat="48.64685" lon="-2.30665">
        <ele>35</ele>
        <time>2014-06-10T12:24:04Z</time>
      </trkpt>
      <trkpt lat="48.64682" lon="-2.30666">
        <ele>35</ele>
        <time>2014-06-10T12:24:06Z</time>
      </trkpt>
      <trkpt lat="48.64679" lon="-2.30668">
        <ele>35</ele>
        <time>2014-06-10T12:24:09Z</time>
      </trkpt>
      <trkpt lat="48.64677" lon="-2.30669">
        <ele>35</ele>
        <time>2014-06-10T12:24:11Z</time>
      </trkpt>
      <trkpt lat="48.64677" lon="-2.30672">
        <ele>35</ele>
        <time>2014-06-10T12:24:13Z</time>
      </trkpt>
      <trkpt lat="48.64674" lon="-2.30677">
        <ele>35</ele>
        <time>2014-06-10T12:24:16Z</time>
      </trkpt>
      <trkpt lat="48.64673" lon="-2.30681">
        <ele>35</ele>
        <time>2014-06-10T12:24:19Z</time>
      </trkpt>
      <trkpt lat="48.64672" lon="-2.30684">
        <ele>35</ele>
        <time>2014-06-10T12:24:21Z</time>
      </trkpt>
      <trkpt lat="48.64672" lon="-2.30687">
        <ele>34</ele>
        <time>2014-06-10T12:24:23Z</time>
      </trkpt>
      <trkpt lat="48.64671" lon="-2.3069">
        <ele>33</ele>
        <time>2014-06-10T12:24:25Z</time>
      </trkpt>
      <trkpt lat="48.6467" lon="-2.30695">
        <ele>33</ele>
        <time>2014-06-10T12:24:28Z</time>
      </trkpt>
      <trkpt lat="48.64669" lon="-2.30698">
        <ele>33</ele>
        <time>2014-06-10T12:24:30Z</time>
      </trkpt>
      <trkpt lat="48.64667" lon="-2.30701">
        <ele>33</ele>
        <time>2014-06-10T12:24:32Z</time>
      </trkpt>
      <trkpt lat="48.64665" lon="-2.30704">
        <ele>33</ele>
        <time>2014-06-10T12:24:35Z</time>
      </trkpt>
      <trkpt lat="48.64663" lon="-2.30706">
        <ele>33</ele>
        <time>2014-06-10T12:24:37Z</time>
      </trkpt>
      <trkpt lat="48.64661" lon="-2.3071">
        <ele>33</ele>
        <time>2014-06-10T12:24:40Z</time>
      </trkpt>
      <trkpt lat="48.6466" lon="-2.30712">
        <ele>33</ele>
        <time>2014-06-10T12:24:42Z</time>
      </trkpt>
      <trkpt lat="48.64658" lon="-2.30716">
        <ele>33</ele>
        <time>2014-06-10T12:24:44Z</time>
      </trkpt>
      <trkpt lat="48.64657" lon="-2.30719">
        <ele>33</ele>
        <time>2014-06-10T12:24:46Z</time>
      </trkpt>
      <trkpt lat="48.64655" lon="-2.30723">
        <ele>33</ele>
        <time>2014-06-10T12:24:49Z</time>
      </trkpt>
      <trkpt lat="48.64653" lon="-2.30725">
        <ele>33</ele>
        <time>2014-06-10T12:24:51Z</time>
      </trkpt>
      <trkpt lat="48.6465" lon="-2.3073">
        <ele>33</ele>
        <time>2014-06-10T12:24:54Z</time>
      </trkpt>
      <trkpt lat="48.64648" lon="-2.30735">
        <ele>33</ele>
        <time>2014-06-10T12:24:57Z</time>
      </trkpt>
      <trkpt lat="48.64647" lon="-2.30738">
        <ele>33</ele>
        <time>2014-06-10T12:24:59Z</time>
      </trkpt>
      <trkpt lat="48.64645" lon="-2.30743">
        <ele>33</ele>
        <time>2014-06-10T12:25:02Z</time>
      </trkpt>
      <trkpt lat="48.64642" lon="-2.30747">
        <ele>33</ele>
        <time>2014-06-10T12:25:05Z</time>
      </trkpt>
      <trkpt lat="48.6464" lon="-2.30749">
        <ele>33</ele>
        <time>2014-06-10T12:25:07Z</time>
      </trkpt>
      <trkpt lat="48.64639" lon="-2.30751">
        <ele>33</ele>
        <time>2014-06-10T12:25:09Z</time>
      </trkpt>
      <trkpt lat="48.64638" lon="-2.30754">
        <ele>33</ele>
        <time>2014-06-10T12:25:11Z</time>
      </trkpt>
      <trkpt lat="48.64637" lon="-2.30755">
        <ele>33</ele>
        <time>2014-06-10T12:25:14Z</time>
      </trkpt>
      <trkpt lat="48.64635" lon="-2.30757">
        <ele>34</ele>
        <time>2014-06-10T12:25:16Z</time>
      </trkpt>
      <trkpt lat="48.64634" lon="-2.3076">
        <ele>35</ele>
        <time>2014-06-10T12:25:18Z</time>
      </trkpt>
      <trkpt lat="48.64633" lon="-2.30762">
        <ele>35</ele>
        <time>2014-06-10T12:25:20Z</time>
      </trkpt>
      <trkpt lat="48.6463" lon="-2.30766">
        <ele>36</ele>
        <time>2014-06-10T12:25:23Z</time>
      </trkpt>
      <trkpt lat="48.64628" lon="-2.30769">
        <ele>37</ele>
        <time>2014-06-10T12:25:25Z</time>
      </trkpt>
      <trkpt lat="48.64628" lon="-2.30772">
        <ele>37</ele>
        <time>2014-06-10T12:25:27Z</time>
      </trkpt>
      <trkpt lat="48.64627" lon="-2.30775">
        <ele>37</ele>
        <time>2014-06-10T12:25:29Z</time>
      </trkpt>
      <trkpt lat="48.64626" lon="-2.30779">
        <ele>37</ele>
        <time>2014-06-10T12:25:31Z</time>
      </trkpt>
      <trkpt lat="48.64623" lon="-2.30783">
        <ele>37</ele>
        <time>2014-06-10T12:25:33Z</time>
      </trkpt>
      <trkpt lat="48.64621" lon="-2.30785">
        <ele>37</ele>
        <time>2014-06-10T12:25:35Z</time>
      </trkpt>
      <trkpt lat="48.6462" lon="-2.30788">
        <ele>37</ele>
        <time>2014-06-10T12:25:37Z</time>
      </trkpt>
      <trkpt lat="48.64619" lon="-2.30791">
        <ele>37</ele>
        <time>2014-06-10T12:25:39Z</time>
      </trkpt>
      <trkpt lat="48.64618" lon="-2.30793">
        <ele>37</ele>
        <time>2014-06-10T12:25:41Z</time>
      </trkpt>
      <trkpt lat="48.64614" lon="-2.30796">
        <ele>37</ele>
        <time>2014-06-10T12:25:44Z</time>
      </trkpt>
      <trkpt lat="48.64613" lon="-2.30798">
        <ele>37</ele>
        <time>2014-06-10T12:25:46Z</time>
      </trkpt>
      <trkpt lat="48.64612" lon="-2.308">
        <ele>37</ele>
        <time>2014-06-10T12:25:48Z</time>
      </trkpt>
      <trkpt lat="48.64611" lon="-2.30802">
        <ele>37</ele>
        <time>2014-06-10T12:25:50Z</time>
      </trkpt>
      <trkpt lat="48.64609" lon="-2.30804">
        <ele>37</ele>
        <time>2014-06-10T12:25:53Z</time>
      </trkpt>
      <trkpt lat="48.64606" lon="-2.30807">
        <ele>37</ele>
        <time>2014-06-10T12:25:55Z</time>
      </trkpt>
      <trkpt lat="48.64605" lon="-2.30809">
        <ele>37</ele>
        <time>2014-06-10T12:25:57Z</time>
      </trkpt>
      <trkpt lat="48.64603" lon="-2.30811">
        <ele>37</ele>
        <time>2014-06-10T12:25:59Z</time>
      </trkpt>
      <trkpt lat="48.64601" lon="-2.30812">
        <ele>37</ele>
        <time>2014-06-10T12:26:01Z</time>
      </trkpt>
      <trkpt lat="48.646" lon="-2.30814">
        <ele>37</ele>
        <time>2014-06-10T12:26:03Z</time>
      </trkpt>
      <trkpt lat="48.64598" lon="-2.30815">
        <ele>37</ele>
        <time>2014-06-10T12:26:05Z</time>
      </trkpt>
      <trkpt lat="48.64597" lon="-2.30816">
        <ele>37</ele>
        <time>2014-06-10T12:26:10Z</time>
      </trkpt>
      <trkpt lat="48.64598" lon="-2.30819">
        <ele>37</ele>
        <time>2014-06-10T12:26:15Z</time>
      </trkpt>
      <trkpt lat="48.64599" lon="-2.3082">
        <ele>37</ele>
        <time>2014-06-10T12:26:23Z</time>
      </trkpt>
      <trkpt lat="48.64601" lon="-2.30821">
        <ele>37</ele>
        <time>2014-06-10T12:26:27Z</time>
      </trkpt>
      <trkpt lat="48.646" lon="-2.3082">
        <ele>37</ele>
        <time>2014-06-10T12:26:38Z</time>
      </trkpt>
      <trkpt lat="48.64598" lon="-2.30821">
        <ele>37</ele>
        <time>2014-06-10T12:26:43Z</time>
      </trkpt>
      <trkpt lat="48.64597" lon="-2.30822">
        <ele>38</ele>
        <time>2014-06-10T12:26:45Z</time>
      </trkpt>
      <trkpt lat="48.64595" lon="-2.30822">
        <ele>38</ele>
        <time>2014-06-10T12:26:50Z</time>
      </trkpt>
      <trkpt lat="48.64594" lon="-2.30822">
        <ele>39</ele>
        <time>2014-06-10T12:26:54Z</time>
      </trkpt>
      <trkpt lat="48.64593" lon="-2.30822">
        <ele>39</ele>
        <time>2014-06-10T12:26:57Z</time>
      </trkpt>
      <trkpt lat="48.64592" lon="-2.30822">
        <ele>40</ele>
        <time>2014-06-10T12:27:00Z</time>
      </trkpt>
      <trkpt lat="48.6459" lon="-2.30822">
        <ele>41</ele>
        <time>2014-06-10T12:27:03Z</time>
      </trkpt>
      <trkpt lat="48.64589" lon="-2.30822">
        <ele>41</ele>
        <time>2014-06-10T12:27:05Z</time>
      </trkpt>
      <trkpt lat="48.64588" lon="-2.30822">
        <ele>41</ele>
        <time>2014-06-10T12:27:07Z</time>
      </trkpt>
      <trkpt lat="48.64586" lon="-2.30822">
        <ele>41</ele>
        <time>2014-06-10T12:27:09Z</time>
      </trkpt>
      <trkpt lat="48.64585" lon="-2.30824">
        <ele>42</ele>
        <time>2014-06-10T12:27:11Z</time>
      </trkpt>
      <trkpt lat="48.64584" lon="-2.30826">
        <ele>42</ele>
        <time>2014-06-10T12:27:13Z</time>
      </trkpt>
      <trkpt lat="48.64582" lon="-2.30828">
        <ele>42</ele>
        <time>2014-06-10T12:27:15Z</time>
      </trkpt>
      <trkpt lat="48.64581" lon="-2.3083">
        <ele>42</ele>
        <time>2014-06-10T12:27:18Z</time>
      </trkpt>
      <trkpt lat="48.64579" lon="-2.30831">
        <ele>42</ele>
        <time>2014-06-10T12:27:20Z</time>
      </trkpt>
      <trkpt lat="48.64578" lon="-2.30832">
        <ele>42</ele>
        <time>2014-06-10T12:27:22Z</time>
      </trkpt>
      <trkpt lat="48.64576" lon="-2.30834">
        <ele>42</ele>
        <time>2014-06-10T12:27:24Z</time>
      </trkpt>
      <trkpt lat="48.64575" lon="-2.30837">
        <ele>42</ele>
        <time>2014-06-10T12:27:26Z</time>
      </trkpt>
      <trkpt lat="48.64574" lon="-2.30837">
        <ele>42</ele>
        <time>2014-06-10T12:27:31Z</time>
      </trkpt>
      <trkpt lat="48.64572" lon="-2.3084">
        <ele>42</ele>
        <time>2014-06-10T12:27:35Z</time>
      </trkpt>
      <trkpt lat="48.64572" lon="-2.30843">
        <ele>42</ele>
        <time>2014-06-10T12:27:37Z</time>
      </trkpt>
      <trkpt lat="48.64569" lon="-2.30846">
        <ele>42</ele>
        <time>2014-06-10T12:27:39Z</time>
      </trkpt>
      <trkpt lat="48.64567" lon="-2.30848">
        <ele>42</ele>
        <time>2014-06-10T12:27:42Z</time>
      </trkpt>
      <trkpt lat="48.64566" lon="-2.3085">
        <ele>41</ele>
        <time>2014-06-10T12:27:44Z</time>
      </trkpt>
      <trkpt lat="48.64564" lon="-2.30852">
        <ele>40</ele>
        <time>2014-06-10T12:27:46Z</time>
      </trkpt>
      <trkpt lat="48.64564" lon="-2.30854">
        <ele>39</ele>
        <time>2014-06-10T12:27:48Z</time>
      </trkpt>
      <trkpt lat="48.64562" lon="-2.30854">
        <ele>39</ele>
        <time>2014-06-10T12:27:50Z</time>
      </trkpt>
      <trkpt lat="48.6456" lon="-2.30855">
        <ele>39</ele>
        <time>2014-06-10T12:27:52Z</time>
      </trkpt>
      <trkpt lat="48.64559" lon="-2.30857">
        <ele>38</ele>
        <time>2014-06-10T12:27:54Z</time>
      </trkpt>
      <trkpt lat="48.64557" lon="-2.30858">
        <ele>37</ele>
        <time>2014-06-10T12:27:56Z</time>
      </trkpt>
      <trkpt lat="48.64555" lon="-2.3086">
        <ele>37</ele>
        <time>2014-06-10T12:27:58Z</time>
      </trkpt>
      <trkpt lat="48.64554" lon="-2.30861">
        <ele>36</ele>
        <time>2014-06-10T12:28:01Z</time>
      </trkpt>
      <trkpt lat="48.64552" lon="-2.30861">
        <ele>35</ele>
        <time>2014-06-10T12:28:03Z</time>
      </trkpt>
      <trkpt lat="48.6455" lon="-2.30862">
        <ele>35</ele>
        <time>2014-06-10T12:28:05Z</time>
      </trkpt>
      <trkpt lat="48.64548" lon="-2.30862">
        <ele>35</ele>
        <time>2014-06-10T12:28:07Z</time>
      </trkpt>
      <trkpt lat="48.64545" lon="-2.30864">
        <ele>34</ele>
        <time>2014-06-10T12:28:09Z</time>
      </trkpt>
      <trkpt lat="48.64542" lon="-2.30866">
        <ele>33</ele>
        <time>2014-06-10T12:28:11Z</time>
      </trkpt>
      <trkpt lat="48.64541" lon="-2.30866">
        <ele>32</ele>
        <time>2014-06-10T12:28:13Z</time>
      </trkpt>
      <trkpt lat="48.64539" lon="-2.30866">
        <ele>31</ele>
        <time>2014-06-10T12:28:15Z</time>
      </trkpt>
      <trkpt lat="48.64538" lon="-2.30864">
        <ele>30</ele>
        <time>2014-06-10T12:28:17Z</time>
      </trkpt>
      <trkpt lat="48.64536" lon="-2.30862">
        <ele>29</ele>
        <time>2014-06-10T12:28:21Z</time>
      </trkpt>
      <trkpt lat="48.64534" lon="-2.30859">
        <ele>29</ele>
        <time>2014-06-10T12:28:23Z</time>
      </trkpt>
      <trkpt lat="48.64532" lon="-2.30856">
        <ele>29</ele>
        <time>2014-06-10T12:28:25Z</time>
      </trkpt>
      <trkpt lat="48.6453" lon="-2.30854">
        <ele>29</ele>
        <time>2014-06-10T12:28:27Z</time>
      </trkpt>
      <trkpt lat="48.64528" lon="-2.30851">
        <ele>29</ele>
        <time>2014-06-10T12:28:29Z</time>
      </trkpt>
      <trkpt lat="48.64526" lon="-2.3085">
        <ele>29</ele>
        <time>2014-06-10T12:28:31Z</time>
      </trkpt>
      <trkpt lat="48.64523" lon="-2.30849">
        <ele>29</ele>
        <time>2014-06-10T12:28:33Z</time>
      </trkpt>
      <trkpt lat="48.64521" lon="-2.30849">
        <ele>29</ele>
        <time>2014-06-10T12:28:35Z</time>
      </trkpt>
      <trkpt lat="48.64518" lon="-2.30849">
        <ele>28</ele>
        <time>2014-06-10T12:28:37Z</time>
      </trkpt>
      <trkpt lat="48.64516" lon="-2.30851">
        <ele>27</ele>
        <time>2014-06-10T12:28:39Z</time>
      </trkpt>
      <trkpt lat="48.64515" lon="-2.30853">
        <ele>26</ele>
        <time>2014-06-10T12:28:41Z</time>
      </trkpt>
      <trkpt lat="48.64512" lon="-2.30856">
        <ele>25</ele>
        <time>2014-06-10T12:28:44Z</time>
      </trkpt>
      <trkpt lat="48.64511" lon="-2.30859">
        <ele>25</ele>
        <time>2014-06-10T12:28:46Z</time>
      </trkpt>
      <trkpt lat="48.64509" lon="-2.30862">
        <ele>25</ele>
        <time>2014-06-10T12:28:49Z</time>
      </trkpt>
      <trkpt lat="48.64506" lon="-2.30864">
        <ele>25</ele>
        <time>2014-06-10T12:28:51Z</time>
      </trkpt>
      <trkpt lat="48.64504" lon="-2.30867">
        <ele>25</ele>
        <time>2014-06-10T12:28:53Z</time>
      </trkpt>
      <trkpt lat="48.64501" lon="-2.30871">
        <ele>25</ele>
        <time>2014-06-10T12:28:56Z</time>
      </trkpt>
      <trkpt lat="48.64499" lon="-2.30871">
        <ele>25</ele>
        <time>2014-06-10T12:28:58Z</time>
      </trkpt>
      <trkpt lat="48.64496" lon="-2.30873">
        <ele>25</ele>
        <time>2014-06-10T12:29:00Z</time>
      </trkpt>
      <trkpt lat="48.64493" lon="-2.30876">
        <ele>25</ele>
        <time>2014-06-10T12:29:02Z</time>
      </trkpt>
      <trkpt lat="48.64492" lon="-2.30877">
        <ele>25</ele>
        <time>2014-06-10T12:29:04Z</time>
      </trkpt>
      <trkpt lat="48.6449" lon="-2.3088">
        <ele>25</ele>
        <time>2014-06-10T12:29:06Z</time>
      </trkpt>
      <trkpt lat="48.64489" lon="-2.30883">
        <ele>24</ele>
        <time>2014-06-10T12:29:08Z</time>
      </trkpt>
      <trkpt lat="48.64486" lon="-2.30887">
        <ele>23</ele>
        <time>2014-06-10T12:29:10Z</time>
      </trkpt>
      <trkpt lat="48.64486" lon="-2.3089">
        <ele>23</ele>
        <time>2014-06-10T12:29:12Z</time>
      </trkpt>
      <trkpt lat="48.64484" lon="-2.30893">
        <ele>23</ele>
        <time>2014-06-10T12:29:14Z</time>
      </trkpt>
      <trkpt lat="48.64482" lon="-2.30898">
        <ele>23</ele>
        <time>2014-06-10T12:29:17Z</time>
      </trkpt>
      <trkpt lat="48.6448" lon="-2.30899">
        <ele>23</ele>
        <time>2014-06-10T12:29:19Z</time>
      </trkpt>
      <trkpt lat="48.64478" lon="-2.30902">
        <ele>23</ele>
        <time>2014-06-10T12:29:22Z</time>
      </trkpt>
      <trkpt lat="48.64476" lon="-2.30903">
        <ele>23</ele>
        <time>2014-06-10T12:29:24Z</time>
      </trkpt>
      <trkpt lat="48.64473" lon="-2.30903">
        <ele>23</ele>
        <time>2014-06-10T12:29:26Z</time>
      </trkpt>
      <trkpt lat="48.64471" lon="-2.30903">
        <ele>23</ele>
        <time>2014-06-10T12:29:28Z</time>
      </trkpt>
      <trkpt lat="48.64469" lon="-2.30902">
        <ele>23</ele>
        <time>2014-06-10T12:29:30Z</time>
      </trkpt>
      <trkpt lat="48.64465" lon="-2.30903">
        <ele>23</ele>
        <time>2014-06-10T12:29:32Z</time>
      </trkpt>
      <trkpt lat="48.64463" lon="-2.30903">
        <ele>23</ele>
        <time>2014-06-10T12:29:34Z</time>
      </trkpt>
      <trkpt lat="48.6446" lon="-2.30902">
        <ele>23</ele>
        <time>2014-06-10T12:29:36Z</time>
      </trkpt>
      <trkpt lat="48.64457" lon="-2.30902">
        <ele>23</ele>
        <time>2014-06-10T12:29:38Z</time>
      </trkpt>
      <trkpt lat="48.64454" lon="-2.30904">
        <ele>23</ele>
        <time>2014-06-10T12:29:41Z</time>
      </trkpt>
      <trkpt lat="48.64452" lon="-2.30906">
        <ele>23</ele>
        <time>2014-06-10T12:29:43Z</time>
      </trkpt>
      <trkpt lat="48.6445" lon="-2.30908">
        <ele>23</ele>
        <time>2014-06-10T12:29:45Z</time>
      </trkpt>
      <trkpt lat="48.64449" lon="-2.3091">
        <ele>23</ele>
        <time>2014-06-10T12:29:47Z</time>
      </trkpt>
      <trkpt lat="48.64446" lon="-2.30913">
        <ele>23</ele>
        <time>2014-06-10T12:29:49Z</time>
      </trkpt>
      <trkpt lat="48.64444" lon="-2.30915">
        <ele>23</ele>
        <time>2014-06-10T12:29:51Z</time>
      </trkpt>
      <trkpt lat="48.64441" lon="-2.30917">
        <ele>23</ele>
        <time>2014-06-10T12:29:53Z</time>
      </trkpt>
      <trkpt lat="48.6444" lon="-2.30919">
        <ele>23</ele>
        <time>2014-06-10T12:29:55Z</time>
      </trkpt>
      <trkpt lat="48.64439" lon="-2.30921">
        <ele>23</ele>
        <time>2014-06-10T12:29:57Z</time>
      </trkpt>
      <trkpt lat="48.64438" lon="-2.30924">
        <ele>23</ele>
        <time>2014-06-10T12:29:59Z</time>
      </trkpt>
      <trkpt lat="48.64437" lon="-2.30928">
        <ele>23</ele>
        <time>2014-06-10T12:30:01Z</time>
      </trkpt>
      <trkpt lat="48.64436" lon="-2.3093">
        <ele>22</ele>
        <time>2014-06-10T12:30:03Z</time>
      </trkpt>
      <trkpt lat="48.64435" lon="-2.30931">
        <ele>21</ele>
        <time>2014-06-10T12:30:05Z</time>
      </trkpt>
      <trkpt lat="48.64433" lon="-2.30932">
        <ele>20</ele>
        <time>2014-06-10T12:30:07Z</time>
      </trkpt>
      <trkpt lat="48.64432" lon="-2.30934">
        <ele>20</ele>
        <time>2014-06-10T12:30:09Z</time>
      </trkpt>
      <trkpt lat="48.64431" lon="-2.30935">
        <ele>20</ele>
        <time>2014-06-10T12:30:11Z</time>
      </trkpt>
      <trkpt lat="48.64429" lon="-2.30937">
        <ele>19</ele>
        <time>2014-06-10T12:30:13Z</time>
      </trkpt>
      <trkpt lat="48.64426" lon="-2.30939">
        <ele>18</ele>
        <time>2014-06-10T12:30:16Z</time>
      </trkpt>
      <trkpt lat="48.64423" lon="-2.30942">
        <ele>18</ele>
        <time>2014-06-10T12:30:18Z</time>
      </trkpt>
      <trkpt lat="48.64422" lon="-2.30946">
        <ele>18</ele>
        <time>2014-06-10T12:30:20Z</time>
      </trkpt>
      <trkpt lat="48.6442" lon="-2.30949">
        <ele>18</ele>
        <time>2014-06-10T12:30:22Z</time>
      </trkpt>
      <trkpt lat="48.64417" lon="-2.30951">
        <ele>18</ele>
        <time>2014-06-10T12:30:24Z</time>
      </trkpt>
      <trkpt lat="48.64415" lon="-2.30953">
        <ele>18</ele>
        <time>2014-06-10T12:30:26Z</time>
      </trkpt>
      <trkpt lat="48.64412" lon="-2.30955">
        <ele>18</ele>
        <time>2014-06-10T12:30:28Z</time>
      </trkpt>
      <trkpt lat="48.64411" lon="-2.30958">
        <ele>18</ele>
        <time>2014-06-10T12:30:30Z</time>
      </trkpt>
      <trkpt lat="48.64409" lon="-2.3096">
        <ele>18</ele>
        <time>2014-06-10T12:30:32Z</time>
      </trkpt>
      <trkpt lat="48.64405" lon="-2.30963">
        <ele>18</ele>
        <time>2014-06-10T12:30:35Z</time>
      </trkpt>
      <trkpt lat="48.64401" lon="-2.30967">
        <ele>18</ele>
        <time>2014-06-10T12:30:38Z</time>
      </trkpt>
      <trkpt lat="48.64398" lon="-2.3097">
        <ele>18</ele>
        <time>2014-06-10T12:30:40Z</time>
      </trkpt>
      <trkpt lat="48.64394" lon="-2.30972">
        <ele>20</ele>
        <time>2014-06-10T12:30:42Z</time>
      </trkpt>
      <trkpt lat="48.64391" lon="-2.30974">
        <ele>22</ele>
        <time>2014-06-10T12:30:44Z</time>
      </trkpt>
      <trkpt lat="48.6439" lon="-2.30978">
        <ele>22</ele>
        <time>2014-06-10T12:30:46Z</time>
      </trkpt>
      <trkpt lat="48.64388" lon="-2.30981">
        <ele>22</ele>
        <time>2014-06-10T12:30:48Z</time>
      </trkpt>
      <trkpt lat="48.64384" lon="-2.30982">
        <ele>22</ele>
        <time>2014-06-10T12:30:51Z</time>
      </trkpt>
      <trkpt lat="48.64383" lon="-2.30983">
        <ele>22</ele>
        <time>2014-06-10T12:30:53Z</time>
      </trkpt>
      <trkpt lat="48.64381" lon="-2.30984">
        <ele>22</ele>
        <time>2014-06-10T12:30:55Z</time>
      </trkpt>
      <trkpt lat="48.64378" lon="-2.30985">
        <ele>22</ele>
        <time>2014-06-10T12:30:57Z</time>
      </trkpt>
      <trkpt lat="48.64375" lon="-2.30987">
        <ele>22</ele>
        <time>2014-06-10T12:31:00Z</time>
      </trkpt>
      <trkpt lat="48.64372" lon="-2.30989">
        <ele>23</ele>
        <time>2014-06-10T12:31:02Z</time>
      </trkpt>
      <trkpt lat="48.64369" lon="-2.3099">
        <ele>23</ele>
        <time>2014-06-10T12:31:04Z</time>
      </trkpt>
      <trkpt lat="48.64367" lon="-2.30992">
        <ele>26</ele>
        <time>2014-06-10T12:31:07Z</time>
      </trkpt>
      <trkpt lat="48.64366" lon="-2.30994">
        <ele>27</ele>
        <time>2014-06-10T12:31:09Z</time>
      </trkpt>
      <trkpt lat="48.64365" lon="-2.30996">
        <ele>27</ele>
        <time>2014-06-10T12:31:11Z</time>
      </trkpt>
      <trkpt lat="48.64361" lon="-2.30996">
        <ele>27</ele>
        <time>2014-06-10T12:31:14Z</time>
      </trkpt>
      <trkpt lat="48.64359" lon="-2.30996">
        <ele>27</ele>
        <time>2014-06-10T12:31:16Z</time>
      </trkpt>
      <trkpt lat="48.64358" lon="-2.30994">
        <ele>27</ele>
        <time>2014-06-10T12:31:19Z</time>
      </trkpt>
      <trkpt lat="48.64356" lon="-2.30994">
        <ele>27</ele>
        <time>2014-06-10T12:31:21Z</time>
      </trkpt>
      <trkpt lat="48.64353" lon="-2.30995">
        <ele>28</ele>
        <time>2014-06-10T12:31:24Z</time>
      </trkpt>
      <trkpt lat="48.6435" lon="-2.30994">
        <ele>28</ele>
        <time>2014-06-10T12:31:26Z</time>
      </trkpt>
      <trkpt lat="48.64349" lon="-2.30996">
        <ele>28</ele>
        <time>2014-06-10T12:31:28Z</time>
      </trkpt>
      <trkpt lat="48.64346" lon="-2.30997">
        <ele>28</ele>
        <time>2014-06-10T12:31:30Z</time>
      </trkpt>
      <trkpt lat="48.64343" lon="-2.30999">
        <ele>28</ele>
        <time>2014-06-10T12:31:33Z</time>
      </trkpt>
      <trkpt lat="48.64341" lon="-2.31001">
        <ele>29</ele>
        <time>2014-06-10T12:31:36Z</time>
      </trkpt>
      <trkpt lat="48.64341" lon="-2.31003">
        <ele>29</ele>
        <time>2014-06-10T12:31:38Z</time>
      </trkpt>
      <trkpt lat="48.6434" lon="-2.31005">
        <ele>29</ele>
        <time>2014-06-10T12:31:40Z</time>
      </trkpt>
      <trkpt lat="48.64338" lon="-2.31006">
        <ele>29</ele>
        <time>2014-06-10T12:31:42Z</time>
      </trkpt>
      <trkpt lat="48.64336" lon="-2.31007">
        <ele>29</ele>
        <time>2014-06-10T12:31:44Z</time>
      </trkpt>
      <trkpt lat="48.64335" lon="-2.31007">
        <ele>29</ele>
        <time>2014-06-10T12:31:46Z</time>
      </trkpt>
      <trkpt lat="48.64333" lon="-2.31007">
        <ele>29</ele>
        <time>2014-06-10T12:31:48Z</time>
      </trkpt>
      <trkpt lat="48.64331" lon="-2.31008">
        <ele>29</ele>
        <time>2014-06-10T12:31:51Z</time>
      </trkpt>
      <trkpt lat="48.6433" lon="-2.31008">
        <ele>29</ele>
        <time>2014-06-10T12:31:53Z</time>
      </trkpt>
      <trkpt lat="48.64326" lon="-2.31011">
        <ele>29</ele>
        <time>2014-06-10T12:31:56Z</time>
      </trkpt>
      <trkpt lat="48.64323" lon="-2.31012">
        <ele>28</ele>
        <time>2014-06-10T12:31:59Z</time>
      </trkpt>
      <trkpt lat="48.6432" lon="-2.31011">
        <ele>26</ele>
        <time>2014-06-10T12:32:02Z</time>
      </trkpt>
      <trkpt lat="48.64316" lon="-2.31011">
        <ele>26</ele>
        <time>2014-06-10T12:32:04Z</time>
      </trkpt>
      <trkpt lat="48.64313" lon="-2.31011">
        <ele>26</ele>
        <time>2014-06-10T12:32:06Z</time>
      </trkpt>
      <trkpt lat="48.64311" lon="-2.3101">
        <ele>26</ele>
        <time>2014-06-10T12:32:10Z</time>
      </trkpt>
      <trkpt lat="48.64309" lon="-2.31009">
        <ele>26</ele>
        <time>2014-06-10T12:32:12Z</time>
      </trkpt>
      <trkpt lat="48.64306" lon="-2.31012">
        <ele>26</ele>
        <time>2014-06-10T12:32:15Z</time>
      </trkpt>
      <trkpt lat="48.64304" lon="-2.31013">
        <ele>26</ele>
        <time>2014-06-10T12:32:18Z</time>
      </trkpt>
      <trkpt lat="48.64303" lon="-2.31014">
        <ele>26</ele>
        <time>2014-06-10T12:32:20Z</time>
      </trkpt>
      <trkpt lat="48.64301" lon="-2.31015">
        <ele>26</ele>
        <time>2014-06-10T12:32:22Z</time>
      </trkpt>
      <trkpt lat="48.643" lon="-2.31018">
        <ele>26</ele>
        <time>2014-06-10T12:32:24Z</time>
      </trkpt>
      <trkpt lat="48.64297" lon="-2.3102">
        <ele>26</ele>
        <time>2014-06-10T12:32:27Z</time>
      </trkpt>
      <trkpt lat="48.64294" lon="-2.3102">
        <ele>26</ele>
        <time>2014-06-10T12:32:29Z</time>
      </trkpt>
      <trkpt lat="48.64292" lon="-2.3102">
        <ele>26</ele>
        <time>2014-06-10T12:32:31Z</time>
      </trkpt>
      <trkpt lat="48.64289" lon="-2.31019">
        <ele>26</ele>
        <time>2014-06-10T12:32:34Z</time>
      </trkpt>
      <trkpt lat="48.64288" lon="-2.31019">
        <ele>26</ele>
        <time>2014-06-10T12:32:36Z</time>
      </trkpt>
      <trkpt lat="48.64286" lon="-2.31018">
        <ele>26</ele>
        <time>2014-06-10T12:32:38Z</time>
      </trkpt>
      <trkpt lat="48.64282" lon="-2.31018">
        <ele>26</ele>
        <time>2014-06-10T12:32:40Z</time>
      </trkpt>
      <trkpt lat="48.64279" lon="-2.31019">
        <ele>26</ele>
        <time>2014-06-10T12:32:43Z</time>
      </trkpt>
      <trkpt lat="48.64277" lon="-2.31019">
        <ele>26</ele>
        <time>2014-06-10T12:32:46Z</time>
      </trkpt>
      <trkpt lat="48.64276" lon="-2.31021">
        <ele>26</ele>
        <time>2014-06-10T12:32:48Z</time>
      </trkpt>
      <trkpt lat="48.64275" lon="-2.31022">
        <ele>26</ele>
        <time>2014-06-10T12:32:50Z</time>
      </trkpt>
      <trkpt lat="48.64272" lon="-2.31024">
        <ele>26</ele>
        <time>2014-06-10T12:32:52Z</time>
      </trkpt>
      <trkpt lat="48.6427" lon="-2.31026">
        <ele>26</ele>
        <time>2014-06-10T12:32:54Z</time>
      </trkpt>
      <trkpt lat="48.64269" lon="-2.31026">
        <ele>26</ele>
        <time>2014-06-10T12:32:56Z</time>
      </trkpt>
      <trkpt lat="48.64268" lon="-2.31028">
        <ele>26</ele>
        <time>2014-06-10T12:32:58Z</time>
      </trkpt>
      <trkpt lat="48.64267" lon="-2.31031">
        <ele>26</ele>
        <time>2014-06-10T12:33:00Z</time>
      </trkpt>
      <trkpt lat="48.64267" lon="-2.31037">
        <ele>26</ele>
        <time>2014-06-10T12:33:03Z</time>
      </trkpt>
      <trkpt lat="48.64268" lon="-2.31039">
        <ele>26</ele>
        <time>2014-06-10T12:33:05Z</time>
      </trkpt>
      <trkpt lat="48.64267" lon="-2.31041">
        <ele>26</ele>
        <time>2014-06-10T12:33:07Z</time>
      </trkpt>
      <trkpt lat="48.64265" lon="-2.31042">
        <ele>26</ele>
        <time>2014-06-10T12:33:10Z</time>
      </trkpt>
      <trkpt lat="48.64264" lon="-2.31043">
        <ele>26</ele>
        <time>2014-06-10T12:33:12Z</time>
      </trkpt>
      <trkpt lat="48.64259" lon="-2.31043">
        <ele>26</ele>
        <time>2014-06-10T12:33:15Z</time>
      </trkpt>
      <trkpt lat="48.64256" lon="-2.31042">
        <ele>27</ele>
        <time>2014-06-10T12:33:18Z</time>
      </trkpt>
      <trkpt lat="48.64252" lon="-2.31043">
        <ele>27</ele>
        <time>2014-06-10T12:33:20Z</time>
      </trkpt>
      <trkpt lat="48.6425" lon="-2.31044">
        <ele>27</ele>
        <time>2014-06-10T12:33:22Z</time>
      </trkpt>
      <trkpt lat="48.64248" lon="-2.31044">
        <ele>27</ele>
        <time>2014-06-10T12:33:24Z</time>
      </trkpt>
      <trkpt lat="48.64245" lon="-2.31045">
        <ele>27</ele>
        <time>2014-06-10T12:33:26Z</time>
      </trkpt>
      <trkpt lat="48.64243" lon="-2.31047">
        <ele>27</ele>
        <time>2014-06-10T12:33:28Z</time>
      </trkpt>
      <trkpt lat="48.64238" lon="-2.31048">
        <ele>28</ele>
        <time>2014-06-10T12:33:31Z</time>
      </trkpt>
      <trkpt lat="48.64237" lon="-2.31049">
        <ele>30</ele>
        <time>2014-06-10T12:33:33Z</time>
      </trkpt>
      <trkpt lat="48.64236" lon="-2.31049">
        <ele>31</ele>
        <time>2014-06-10T12:33:35Z</time>
      </trkpt>
      <trkpt lat="48.64236" lon="-2.31051">
        <ele>31</ele>
        <time>2014-06-10T12:33:37Z</time>
      </trkpt>
      <trkpt lat="48.64235" lon="-2.31053">
        <ele>32</ele>
        <time>2014-06-10T12:33:39Z</time>
      </trkpt>
      <trkpt lat="48.64234" lon="-2.31054">
        <ele>32</ele>
        <time>2014-06-10T12:33:41Z</time>
      </trkpt>
      <trkpt lat="48.64233" lon="-2.31055">
        <ele>34</ele>
        <time>2014-06-10T12:33:44Z</time>
      </trkpt>
      <trkpt lat="48.64231" lon="-2.31059">
        <ele>35</ele>
        <time>2014-06-10T12:33:47Z</time>
      </trkpt>
      <trkpt lat="48.64232" lon="-2.31061">
        <ele>35</ele>
        <time>2014-06-10T12:33:49Z</time>
      </trkpt>
      <trkpt lat="48.64231" lon="-2.31063">
        <ele>35</ele>
        <time>2014-06-10T12:33:51Z</time>
      </trkpt>
      <trkpt lat="48.6423" lon="-2.31065">
        <ele>35</ele>
        <time>2014-06-10T12:33:53Z</time>
      </trkpt>
      <trkpt lat="48.64229" lon="-2.31066">
        <ele>35</ele>
        <time>2014-06-10T12:33:55Z</time>
      </trkpt>
      <trkpt lat="48.64227" lon="-2.31067">
        <ele>35</ele>
        <time>2014-06-10T12:33:57Z</time>
      </trkpt>
      <trkpt lat="48.64223" lon="-2.31068">
        <ele>35</ele>
        <time>2014-06-10T12:33:59Z</time>
      </trkpt>
      <trkpt lat="48.64222" lon="-2.3107">
        <ele>35</ele>
        <time>2014-06-10T12:34:01Z</time>
      </trkpt>
      <trkpt lat="48.64221" lon="-2.31072">
        <ele>35</ele>
        <time>2014-06-10T12:34:03Z</time>
      </trkpt>
      <trkpt lat="48.64218" lon="-2.31072">
        <ele>35</ele>
        <time>2014-06-10T12:34:06Z</time>
      </trkpt>
      <trkpt lat="48.64216" lon="-2.31076">
        <ele>34</ele>
        <time>2014-06-10T12:34:09Z</time>
      </trkpt>
      <trkpt lat="48.64213" lon="-2.31077">
        <ele>33</ele>
        <time>2014-06-10T12:34:11Z</time>
      </trkpt>
      <trkpt lat="48.64211" lon="-2.31078">
        <ele>33</ele>
        <time>2014-06-10T12:34:14Z</time>
      </trkpt>
      <trkpt lat="48.64209" lon="-2.31079">
        <ele>33</ele>
        <time>2014-06-10T12:34:17Z</time>
      </trkpt>
      <trkpt lat="48.64207" lon="-2.3108">
        <ele>33</ele>
        <time>2014-06-10T12:34:19Z</time>
      </trkpt>
      <trkpt lat="48.64206" lon="-2.3108">
        <ele>33</ele>
        <time>2014-06-10T12:34:24Z</time>
      </trkpt>
      <trkpt lat="48.64203" lon="-2.31079">
        <ele>35</ele>
        <time>2014-06-10T12:34:27Z</time>
      </trkpt>
      <trkpt lat="48.64205" lon="-2.3108">
        <ele>37</ele>
        <time>2014-06-10T12:34:31Z</time>
      </trkpt>
      <trkpt lat="48.64202" lon="-2.31077">
        <ele>38</ele>
        <time>2014-06-10T12:34:35Z</time>
      </trkpt>
      <trkpt lat="48.64203" lon="-2.31075">
        <ele>38</ele>
        <time>2014-06-10T12:34:37Z</time>
      </trkpt>
      <trkpt lat="48.64202" lon="-2.31074">
        <ele>38</ele>
        <time>2014-06-10T12:34:41Z</time>
      </trkpt>
      <trkpt lat="48.64201" lon="-2.31075">
        <ele>38</ele>
        <time>2014-06-10T12:34:46Z</time>
      </trkpt>
      <trkpt lat="48.642" lon="-2.31073">
        <ele>38</ele>
        <time>2014-06-10T12:34:49Z</time>
      </trkpt>
      <trkpt lat="48.64199" lon="-2.31072">
        <ele>38</ele>
        <time>2014-06-10T12:34:51Z</time>
      </trkpt>
      <trkpt lat="48.64198" lon="-2.3107">
        <ele>38</ele>
        <time>2014-06-10T12:34:59Z</time>
      </trkpt>
      <trkpt lat="48.64196" lon="-2.31068">
        <ele>38</ele>
        <time>2014-06-10T12:35:01Z</time>
      </trkpt>
      <trkpt lat="48.64196" lon="-2.31065">
        <ele>38</ele>
        <time>2014-06-10T12:35:04Z</time>
      </trkpt>
      <trkpt lat="48.64194" lon="-2.31064">
        <ele>38</ele>
        <time>2014-06-10T12:35:07Z</time>
      </trkpt>
      <trkpt lat="48.64193" lon="-2.31064">
        <ele>38</ele>
        <time>2014-06-10T12:35:09Z</time>
      </trkpt>
      <trkpt lat="48.64191" lon="-2.31063">
        <ele>38</ele>
        <time>2014-06-10T12:35:12Z</time>
      </trkpt>
      <trkpt lat="48.64188" lon="-2.31062">
        <ele>38</ele>
        <time>2014-06-10T12:35:14Z</time>
      </trkpt>
      <trkpt lat="48.64184" lon="-2.3106">
        <ele>38</ele>
        <time>2014-06-10T12:35:17Z</time>
      </trkpt>
      <trkpt lat="48.64183" lon="-2.31058">
        <ele>38</ele>
        <time>2014-06-10T12:35:19Z</time>
      </trkpt>
      <trkpt lat="48.6418" lon="-2.31056">
        <ele>38</ele>
        <time>2014-06-10T12:35:22Z</time>
      </trkpt>
      <trkpt lat="48.64177" lon="-2.31055">
        <ele>38</ele>
        <time>2014-06-10T12:35:24Z</time>
      </trkpt>
      <trkpt lat="48.64175" lon="-2.31053">
        <ele>38</ele>
        <time>2014-06-10T12:35:27Z</time>
      </trkpt>
      <trkpt lat="48.64172" lon="-2.31052">
        <ele>38</ele>
        <time>2014-06-10T12:35:29Z</time>
      </trkpt>
      <trkpt lat="48.64168" lon="-2.3105">
        <ele>35</ele>
        <time>2014-06-10T12:35:33Z</time>
      </trkpt>
      <trkpt lat="48.64165" lon="-2.31049">
        <ele>33</ele>
        <time>2014-06-10T12:35:35Z</time>
      </trkpt>
      <trkpt lat="48.64163" lon="-2.31048">
        <ele>32</ele>
        <time>2014-06-10T12:35:37Z</time>
      </trkpt>
      <trkpt lat="48.64161" lon="-2.31047">
        <ele>31</ele>
        <time>2014-06-10T12:35:39Z</time>
      </trkpt>
      <trkpt lat="48.64159" lon="-2.31045">
        <ele>31</ele>
        <time>2014-06-10T12:35:41Z</time>
      </trkpt>
      <trkpt lat="48.64156" lon="-2.31043">
        <ele>31</ele>
        <time>2014-06-10T12:35:43Z</time>
      </trkpt>
      <trkpt lat="48.64155" lon="-2.31041">
        <ele>31</ele>
        <time>2014-06-10T12:35:45Z</time>
      </trkpt>
      <trkpt lat="48.64153" lon="-2.31039">
        <ele>31</ele>
        <time>2014-06-10T12:35:47Z</time>
      </trkpt>
      <trkpt lat="48.6415" lon="-2.31037">
        <ele>31</ele>
        <time>2014-06-10T12:35:49Z</time>
      </trkpt>
      <trkpt lat="48.64147" lon="-2.31036">
        <ele>31</ele>
        <time>2014-06-10T12:35:51Z</time>
      </trkpt>
      <trkpt lat="48.64145" lon="-2.31035">
        <ele>31</ele>
        <time>2014-06-10T12:35:53Z</time>
      </trkpt>
      <trkpt lat="48.64141" lon="-2.31033">
        <ele>29</ele>
        <time>2014-06-10T12:35:57Z</time>
      </trkpt>
      <trkpt lat="48.6414" lon="-2.3103">
        <ele>28</ele>
        <time>2014-06-10T12:35:59Z</time>
      </trkpt>
      <trkpt lat="48.64138" lon="-2.31028">
        <ele>26</ele>
        <time>2014-06-10T12:36:01Z</time>
      </trkpt>
      <trkpt lat="48.64136" lon="-2.31026">
        <ele>26</ele>
        <time>2014-06-10T12:36:03Z</time>
      </trkpt>
      <trkpt lat="48.64134" lon="-2.31023">
        <ele>23</ele>
        <time>2014-06-10T12:36:07Z</time>
      </trkpt>
      <trkpt lat="48.64132" lon="-2.31021">
        <ele>21</ele>
        <time>2014-06-10T12:36:10Z</time>
      </trkpt>
      <trkpt lat="48.6413" lon="-2.31019">
        <ele>21</ele>
        <time>2014-06-10T12:36:12Z</time>
      </trkpt>
      <trkpt lat="48.64128" lon="-2.31016">
        <ele>21</ele>
        <time>2014-06-10T12:36:14Z</time>
      </trkpt>
      <trkpt lat="48.64127" lon="-2.31013">
        <ele>21</ele>
        <time>2014-06-10T12:36:16Z</time>
      </trkpt>
      <trkpt lat="48.64126" lon="-2.31012">
        <ele>21</ele>
        <time>2014-06-10T12:36:18Z</time>
      </trkpt>
      <trkpt lat="48.64122" lon="-2.31007">
        <ele>21</ele>
        <time>2014-06-10T12:36:23Z</time>
      </trkpt>
      <trkpt lat="48.64122" lon="-2.31006">
        <ele>20</ele>
        <time>2014-06-10T12:36:25Z</time>
      </trkpt>
      <trkpt lat="48.64121" lon="-2.31003">
        <ele>20</ele>
        <time>2014-06-10T12:36:27Z</time>
      </trkpt>
      <trkpt lat="48.64121" lon="-2.30997">
        <ele>20</ele>
        <time>2014-06-10T12:36:29Z</time>
      </trkpt>
      <trkpt lat="48.64121" lon="-2.30995">
        <ele>20</ele>
        <time>2014-06-10T12:36:33Z</time>
      </trkpt>
      <trkpt lat="48.64122" lon="-2.30998">
        <ele>19</ele>
        <time>2014-06-10T12:36:36Z</time>
      </trkpt>
      <trkpt lat="48.64123" lon="-2.30999">
        <ele>16</ele>
        <time>2014-06-10T12:36:39Z</time>
      </trkpt>
      <trkpt lat="48.64126" lon="-2.31003">
        <ele>12</ele>
        <time>2014-06-10T12:36:49Z</time>
      </trkpt>
      <trkpt lat="48.64128" lon="-2.31003">
        <ele>12</ele>
        <time>2014-06-10T12:36:52Z</time>
      </trkpt>
      <trkpt lat="48.64128" lon="-2.31002">
        <ele>12</ele>
        <time>2014-06-10T12:36:54Z</time>
      </trkpt>
      <trkpt lat="48.64127" lon="-2.31004">
        <ele>12</ele>
        <time>2014-06-10T12:36:57Z</time>
      </trkpt>
      <trkpt lat="48.64126" lon="-2.31002">
        <ele>12</ele>
        <time>2014-06-10T12:36:59Z</time>
      </trkpt>
      <trkpt lat="48.64128" lon="-2.31003">
        <ele>12</ele>
        <time>2014-06-10T12:37:01Z</time>
      </trkpt>
      <trkpt lat="48.6413" lon="-2.31008">
        <ele>13</ele>
        <time>2014-06-10T12:37:04Z</time>
      </trkpt>
      <trkpt lat="48.6413" lon="-2.31011">
        <ele>13</ele>
        <time>2014-06-10T12:37:06Z</time>
      </trkpt>
      <trkpt lat="48.64129" lon="-2.31011">
        <ele>13</ele>
        <time>2014-06-10T12:37:09Z</time>
      </trkpt>
      <trkpt lat="48.64128" lon="-2.31009">
        <ele>15</ele>
        <time>2014-06-10T12:37:12Z</time>
      </trkpt>
      <trkpt lat="48.64127" lon="-2.31007">
        <ele>16</ele>
        <time>2014-06-10T12:37:15Z</time>
      </trkpt>
      <trkpt lat="48.64124" lon="-2.31003">
        <ele>17</ele>
        <time>2014-06-10T12:37:19Z</time>
      </trkpt>
      <trkpt lat="48.64121" lon="-2.31002">
        <ele>17</ele>
        <time>2014-06-10T12:37:24Z</time>
      </trkpt>
      <trkpt lat="48.64119" lon="-2.31">
        <ele>17</ele>
        <time>2014-06-10T12:37:27Z</time>
      </trkpt>
      <trkpt lat="48.64119" lon="-2.30997">
        <ele>17</ele>
        <time>2014-06-10T12:37:30Z</time>
      </trkpt>
      <trkpt lat="48.64119" lon="-2.30993">
        <ele>17</ele>
        <time>2014-06-10T12:37:35Z</time>
      </trkpt>
      <trkpt lat="48.64118" lon="-2.30989">
        <ele>17</ele>
        <time>2014-06-10T12:37:38Z</time>
      </trkpt>
      <trkpt lat="48.6412" lon="-2.30988">
        <ele>17</ele>
        <time>2014-06-10T12:37:40Z</time>
      </trkpt>
      <trkpt lat="48.64121" lon="-2.30985">
        <ele>17</ele>
        <time>2014-06-10T12:37:43Z</time>
      </trkpt>
      <trkpt lat="48.64122" lon="-2.30981">
        <ele>16</ele>
        <time>2014-06-10T12:37:46Z</time>
      </trkpt>
      <trkpt lat="48.64122" lon="-2.30979">
        <ele>15</ele>
        <time>2014-06-10T12:37:48Z</time>
      </trkpt>
      <trkpt lat="48.6412" lon="-2.30975">
        <ele>15</ele>
        <time>2014-06-10T12:37:51Z</time>
      </trkpt>
      <trkpt lat="48.64119" lon="-2.30973">
        <ele>15</ele>
        <time>2014-06-10T12:37:53Z</time>
      </trkpt>
      <trkpt lat="48.64117" lon="-2.30971">
        <ele>15</ele>
        <time>2014-06-10T12:37:55Z</time>
      </trkpt>
      <trkpt lat="48.64113" lon="-2.30969">
        <ele>14</ele>
        <time>2014-06-10T12:37:59Z</time>
      </trkpt>
      <trkpt lat="48.6411" lon="-2.30969">
        <ele>14</ele>
        <time>2014-06-10T12:38:01Z</time>
      </trkpt>
      <trkpt lat="48.64107" lon="-2.30967">
        <ele>14</ele>
        <time>2014-06-10T12:38:04Z</time>
      </trkpt>
      <trkpt lat="48.64105" lon="-2.30966">
        <ele>14</ele>
        <time>2014-06-10T12:38:06Z</time>
      </trkpt>
      <trkpt lat="48.64101" lon="-2.30966">
        <ele>14</ele>
        <time>2014-06-10T12:38:10Z</time>
      </trkpt>
      <trkpt lat="48.64099" lon="-2.30966">
        <ele>14</ele>
        <time>2014-06-10T12:38:12Z</time>
      </trkpt>
      <trkpt lat="48.64097" lon="-2.30968">
        <ele>14</ele>
        <time>2014-06-10T12:38:15Z</time>
      </trkpt>
      <trkpt lat="48.64096" lon="-2.30969">
        <ele>14</ele>
        <time>2014-06-10T12:38:17Z</time>
      </trkpt>
      <trkpt lat="48.64095" lon="-2.30974">
        <ele>14</ele>
        <time>2014-06-10T12:38:20Z</time>
      </trkpt>
      <trkpt lat="48.64095" lon="-2.30978">
        <ele>14</ele>
        <time>2014-06-10T12:38:23Z</time>
      </trkpt>
      <trkpt lat="48.64097" lon="-2.30984">
        <ele>13</ele>
        <time>2014-06-10T12:38:26Z</time>
      </trkpt>
      <trkpt lat="48.64097" lon="-2.30988">
        <ele>13</ele>
        <time>2014-06-10T12:38:28Z</time>
      </trkpt>
      <trkpt lat="48.64094" lon="-2.30994">
        <ele>13</ele>
        <time>2014-06-10T12:38:31Z</time>
      </trkpt>
      <trkpt lat="48.64095" lon="-2.30998">
        <ele>13</ele>
        <time>2014-06-10T12:38:33Z</time>
      </trkpt>
      <trkpt lat="48.64095" lon="-2.31002">
        <ele>13</ele>
        <time>2014-06-10T12:38:35Z</time>
      </trkpt>
      <trkpt lat="48.64094" lon="-2.31006">
        <ele>12</ele>
        <time>2014-06-10T12:38:37Z</time>
      </trkpt>
      <trkpt lat="48.64093" lon="-2.31011">
        <ele>12</ele>
        <time>2014-06-10T12:38:40Z</time>
      </trkpt>
      <trkpt lat="48.64094" lon="-2.31017">
        <ele>12</ele>
        <time>2014-06-10T12:38:44Z</time>
      </trkpt>
      <trkpt lat="48.64094" lon="-2.3102">
        <ele>12</ele>
        <time>2014-06-10T12:38:46Z</time>
      </trkpt>
      <trkpt lat="48.64093" lon="-2.31025">
        <ele>12</ele>
        <time>2014-06-10T12:38:50Z</time>
      </trkpt>
      <trkpt lat="48.64093" lon="-2.31028">
        <ele>13</ele>
        <time>2014-06-10T12:38:52Z</time>
      </trkpt>
      <trkpt lat="48.64092" lon="-2.31032">
        <ele>15</ele>
        <time>2014-06-10T12:38:55Z</time>
      </trkpt>
      <trkpt lat="48.64092" lon="-2.31037">
        <ele>17</ele>
        <time>2014-06-10T12:38:59Z</time>
      </trkpt>
      <trkpt lat="48.64088" lon="-2.3104">
        <ele>17</ele>
        <time>2014-06-10T12:39:02Z</time>
      </trkpt>
      <trkpt lat="48.64087" lon="-2.31044">
        <ele>18</ele>
        <time>2014-06-10T12:39:04Z</time>
      </trkpt>
      <trkpt lat="48.64085" lon="-2.3105">
        <ele>19</ele>
        <time>2014-06-10T12:39:08Z</time>
      </trkpt>
      <trkpt lat="48.6408" lon="-2.31051">
        <ele>20</ele>
        <time>2014-06-10T12:39:10Z</time>
      </trkpt>
      <trkpt lat="48.64075" lon="-2.31054">
        <ele>22</ele>
        <time>2014-06-10T12:39:13Z</time>
      </trkpt>
      <trkpt lat="48.64074" lon="-2.31057">
        <ele>22</ele>
        <time>2014-06-10T12:39:15Z</time>
      </trkpt>
      <trkpt lat="48.64071" lon="-2.31063">
        <ele>23</ele>
        <time>2014-06-10T12:39:18Z</time>
      </trkpt>
      <trkpt lat="48.64069" lon="-2.31065">
        <ele>23</ele>
        <time>2014-06-10T12:39:20Z</time>
      </trkpt>
      <trkpt lat="48.64068" lon="-2.31069">
        <ele>23</ele>
        <time>2014-06-10T12:39:23Z</time>
      </trkpt>
      <trkpt lat="48.64066" lon="-2.31073">
        <ele>23</ele>
        <time>2014-06-10T12:39:25Z</time>
      </trkpt>
      <trkpt lat="48.64063" lon="-2.31077">
        <ele>23</ele>
        <time>2014-06-10T12:39:28Z</time>
      </trkpt>
      <trkpt lat="48.64059" lon="-2.3108">
        <ele>24</ele>
        <time>2014-06-10T12:39:30Z</time>
      </trkpt>
      <trkpt lat="48.64053" lon="-2.31083">
        <ele>28</ele>
        <time>2014-06-10T12:39:34Z</time>
      </trkpt>
      <trkpt lat="48.6405" lon="-2.31084">
        <ele>29</ele>
        <time>2014-06-10T12:39:36Z</time>
      </trkpt>
      <trkpt lat="48.64048" lon="-2.31087">
        <ele>31</ele>
        <time>2014-06-10T12:39:38Z</time>
      </trkpt>
      <trkpt lat="48.64046" lon="-2.3109">
        <ele>33</ele>
        <time>2014-06-10T12:39:41Z</time>
      </trkpt>
      <trkpt lat="48.64043" lon="-2.31093">
        <ele>35</ele>
        <time>2014-06-10T12:39:44Z</time>
      </trkpt>
      <trkpt lat="48.6404" lon="-2.31098">
        <ele>37</ele>
        <time>2014-06-10T12:39:46Z</time>
      </trkpt>
      <trkpt lat="48.64035" lon="-2.31102">
        <ele>40</ele>
        <time>2014-06-10T12:39:49Z</time>
      </trkpt>
      <trkpt lat="48.64035" lon="-2.31104">
        <ele>41</ele>
        <time>2014-06-10T12:39:51Z</time>
      </trkpt>
      <trkpt lat="48.64034" lon="-2.3111">
        <ele>41</ele>
        <time>2014-06-10T12:39:54Z</time>
      </trkpt>
      <trkpt lat="48.64032" lon="-2.31115">
        <ele>41</ele>
        <time>2014-06-10T12:39:57Z</time>
      </trkpt>
      <trkpt lat="48.64033" lon="-2.31119">
        <ele>38</ele>
        <time>2014-06-10T12:40:00Z</time>
      </trkpt>
      <trkpt lat="48.64031" lon="-2.31122">
        <ele>36</ele>
        <time>2014-06-10T12:40:02Z</time>
      </trkpt>
      <trkpt lat="48.6403" lon="-2.31124">
        <ele>35</ele>
        <time>2014-06-10T12:40:04Z</time>
      </trkpt>
      <trkpt lat="48.64027" lon="-2.31128">
        <ele>35</ele>
        <time>2014-06-10T12:40:07Z</time>
      </trkpt>
      <trkpt lat="48.64027" lon="-2.31135">
        <ele>34</ele>
        <time>2014-06-10T12:40:10Z</time>
      </trkpt>
      <trkpt lat="48.64026" lon="-2.31139">
        <ele>33</ele>
        <time>2014-06-10T12:40:12Z</time>
      </trkpt>
      <trkpt lat="48.64022" lon="-2.31145">
        <ele>31</ele>
        <time>2014-06-10T12:40:16Z</time>
      </trkpt>
      <trkpt lat="48.64019" lon="-2.31149">
        <ele>31</ele>
        <time>2014-06-10T12:40:19Z</time>
      </trkpt>
      <trkpt lat="48.64015" lon="-2.31153">
        <ele>31</ele>
        <time>2014-06-10T12:40:22Z</time>
      </trkpt>
      <trkpt lat="48.64015" lon="-2.31159">
        <ele>31</ele>
        <time>2014-06-10T12:40:25Z</time>
      </trkpt>
      <trkpt lat="48.64015" lon="-2.31164">
        <ele>31</ele>
        <time>2014-06-10T12:40:27Z</time>
      </trkpt>
      <trkpt lat="48.64013" lon="-2.31169">
        <ele>31</ele>
        <time>2014-06-10T12:40:30Z</time>
      </trkpt>
      <trkpt lat="48.6401" lon="-2.31172">
        <ele>31</ele>
        <time>2014-06-10T12:40:32Z</time>
      </trkpt>
      <trkpt lat="48.64008" lon="-2.31175">
        <ele>31</ele>
        <time>2014-06-10T12:40:35Z</time>
      </trkpt>
      <trkpt lat="48.64007" lon="-2.31179">
        <ele>31</ele>
        <time>2014-06-10T12:40:37Z</time>
      </trkpt>
      <trkpt lat="48.64003" lon="-2.31182">
        <ele>31</ele>
        <time>2014-06-10T12:40:41Z</time>
      </trkpt>
      <trkpt lat="48.64001" lon="-2.31186">
        <ele>31</ele>
        <time>2014-06-10T12:40:43Z</time>
      </trkpt>
      <trkpt lat="48.63997" lon="-2.31191">
        <ele>31</ele>
        <time>2014-06-10T12:40:46Z</time>
      </trkpt>
      <trkpt lat="48.63997" lon="-2.31195">
        <ele>31</ele>
        <time>2014-06-10T12:40:48Z</time>
      </trkpt>
      <trkpt lat="48.63995" lon="-2.31203">
        <ele>29</ele>
        <time>2014-06-10T12:40:51Z</time>
      </trkpt>
      <trkpt lat="48.63993" lon="-2.31208">
        <ele>27</ele>
        <time>2014-06-10T12:40:53Z</time>
      </trkpt>
      <trkpt lat="48.6399" lon="-2.31214">
        <ele>23</ele>
        <time>2014-06-10T12:40:57Z</time>
      </trkpt>
      <trkpt lat="48.63989" lon="-2.31216">
        <ele>23</ele>
        <time>2014-06-10T12:40:59Z</time>
      </trkpt>
      <trkpt lat="48.63986" lon="-2.31221">
        <ele>23</ele>
        <time>2014-06-10T12:41:03Z</time>
      </trkpt>
      <trkpt lat="48.63987" lon="-2.31223">
        <ele>22</ele>
        <time>2014-06-10T12:41:07Z</time>
      </trkpt>
      <trkpt lat="48.63986" lon="-2.31223">
        <ele>19</ele>
        <time>2014-06-10T12:41:12Z</time>
      </trkpt>
      <trkpt lat="48.63985" lon="-2.3122">
        <ele>19</ele>
        <time>2014-06-10T12:41:18Z</time>
      </trkpt>
      <trkpt lat="48.63982" lon="-2.31216">
        <ele>19</ele>
        <time>2014-06-10T12:41:25Z</time>
      </trkpt>
      <trkpt lat="48.63981" lon="-2.31215">
        <ele>19</ele>
        <time>2014-06-10T12:41:27Z</time>
      </trkpt>
      <trkpt lat="48.63981" lon="-2.31217">
        <ele>19</ele>
        <time>2014-06-10T12:41:31Z</time>
      </trkpt>
      <trkpt lat="48.6398" lon="-2.31215">
        <ele>19</ele>
        <time>2014-06-10T12:41:35Z</time>
      </trkpt>
      <trkpt lat="48.63979" lon="-2.31213">
        <ele>20</ele>
        <time>2014-06-10T12:41:37Z</time>
      </trkpt>
      <trkpt lat="48.63981" lon="-2.31217">
        <ele>23</ele>
        <time>2014-06-10T12:41:42Z</time>
      </trkpt>
      <trkpt lat="48.63981" lon="-2.31225">
        <ele>25</ele>
        <time>2014-06-10T12:41:45Z</time>
      </trkpt>
      <trkpt lat="48.63981" lon="-2.31229">
        <ele>26</ele>
        <time>2014-06-10T12:41:48Z</time>
      </trkpt>
      <trkpt lat="48.6398" lon="-2.31231">
        <ele>28</ele>
        <time>2014-06-10T12:41:50Z</time>
      </trkpt>
      <trkpt lat="48.63978" lon="-2.31232">
        <ele>30</ele>
        <time>2014-06-10T12:41:52Z</time>
      </trkpt>
      <trkpt lat="48.63976" lon="-2.31235">
        <ele>32</ele>
        <time>2014-06-10T12:41:54Z</time>
      </trkpt>
      <trkpt lat="48.63972" lon="-2.31238">
        <ele>34</ele>
        <time>2014-06-10T12:41:56Z</time>
      </trkpt>
      <trkpt lat="48.6397" lon="-2.31241">
        <ele>38</ele>
        <time>2014-06-10T12:41:59Z</time>
      </trkpt>
      <trkpt lat="48.63968" lon="-2.31247">
        <ele>42</ele>
        <time>2014-06-10T12:42:01Z</time>
      </trkpt>
      <trkpt lat="48.63966" lon="-2.31252">
        <ele>46</ele>
        <time>2014-06-10T12:42:03Z</time>
      </trkpt>
      <trkpt lat="48.63964" lon="-2.31257">
        <ele>49</ele>
        <time>2014-06-10T12:42:05Z</time>
      </trkpt>
      <trkpt lat="48.63963" lon="-2.31261">
        <ele>51</ele>
        <time>2014-06-10T12:42:07Z</time>
      </trkpt>
      <trkpt lat="48.6396" lon="-2.31265">
        <ele>53</ele>
        <time>2014-06-10T12:42:09Z</time>
      </trkpt>
      <trkpt lat="48.63959" lon="-2.31272">
        <ele>56</ele>
        <time>2014-06-10T12:42:12Z</time>
      </trkpt>
      <trkpt lat="48.63962" lon="-2.31275">
        <ele>58</ele>
        <time>2014-06-10T12:42:15Z</time>
      </trkpt>
      <trkpt lat="48.63966" lon="-2.31278">
        <ele>58</ele>
        <time>2014-06-10T12:42:17Z</time>
      </trkpt>
      <trkpt lat="48.63968" lon="-2.31283">
        <ele>57</ele>
        <time>2014-06-10T12:42:19Z</time>
      </trkpt>
      <trkpt lat="48.63971" lon="-2.31289">
        <ele>54</ele>
        <time>2014-06-10T12:42:22Z</time>
      </trkpt>
      <trkpt lat="48.63972" lon="-2.31293">
        <ele>52</ele>
        <time>2014-06-10T12:42:24Z</time>
      </trkpt>
      <trkpt lat="48.63972" lon="-2.31296">
        <ele>49</ele>
        <time>2014-06-10T12:42:27Z</time>
      </trkpt>
      <trkpt lat="48.63972" lon="-2.313">
        <ele>47</ele>
        <time>2014-06-10T12:42:29Z</time>
      </trkpt>
      <trkpt lat="48.63974" lon="-2.31305">
        <ele>46</ele>
        <time>2014-06-10T12:42:31Z</time>
      </trkpt>
      <trkpt lat="48.63973" lon="-2.3131">
        <ele>46</ele>
        <time>2014-06-10T12:42:34Z</time>
      </trkpt>
      <trkpt lat="48.63975" lon="-2.31316">
        <ele>45</ele>
        <time>2014-06-10T12:42:37Z</time>
      </trkpt>
      <trkpt lat="48.63978" lon="-2.31319">
        <ele>44</ele>
        <time>2014-06-10T12:42:39Z</time>
      </trkpt>
      <trkpt lat="48.63979" lon="-2.31324">
        <ele>42</ele>
        <time>2014-06-10T12:42:41Z</time>
      </trkpt>
      <trkpt lat="48.63981" lon="-2.31328">
        <ele>40</ele>
        <time>2014-06-10T12:42:43Z</time>
      </trkpt>
      <trkpt lat="48.6398" lon="-2.3133">
        <ele>38</ele>
        <time>2014-06-10T12:42:45Z</time>
      </trkpt>
      <trkpt lat="48.6398" lon="-2.31331">
        <ele>37</ele>
        <time>2014-06-10T12:42:48Z</time>
      </trkpt>
      <trkpt lat="48.63982" lon="-2.31334">
        <ele>37</ele>
        <time>2014-06-10T12:42:50Z</time>
      </trkpt>
      <trkpt lat="48.63982" lon="-2.31337">
        <ele>37</ele>
        <time>2014-06-10T12:42:52Z</time>
      </trkpt>
      <trkpt lat="48.63983" lon="-2.31341">
        <ele>37</ele>
        <time>2014-06-10T12:42:54Z</time>
      </trkpt>
      <trkpt lat="48.63984" lon="-2.31343">
        <ele>37</ele>
        <time>2014-06-10T12:42:56Z</time>
      </trkpt>
      <trkpt lat="48.63983" lon="-2.31345">
        <ele>37</ele>
        <time>2014-06-10T12:42:58Z</time>
      </trkpt>
      <trkpt lat="48.63986" lon="-2.31347">
        <ele>37</ele>
        <time>2014-06-10T12:43:00Z</time>
      </trkpt>
      <trkpt lat="48.63987" lon="-2.3135">
        <ele>37</ele>
        <time>2014-06-10T12:43:04Z</time>
      </trkpt>
      <trkpt lat="48.63987" lon="-2.31352">
        <ele>37</ele>
        <time>2014-06-10T12:43:06Z</time>
      </trkpt>
      <trkpt lat="48.63988" lon="-2.31354">
        <ele>40</ele>
        <time>2014-06-10T12:43:10Z</time>
      </trkpt>
      <trkpt lat="48.6399" lon="-2.31356">
        <ele>42</ele>
        <time>2014-06-10T12:43:12Z</time>
      </trkpt>
      <trkpt lat="48.6399" lon="-2.31361">
        <ele>43</ele>
        <time>2014-06-10T12:43:14Z</time>
      </trkpt>
      <trkpt lat="48.6399" lon="-2.31363">
        <ele>43</ele>
        <time>2014-06-10T12:43:16Z</time>
      </trkpt>
      <trkpt lat="48.6399" lon="-2.31365">
        <ele>45</ele>
        <time>2014-06-10T12:43:18Z</time>
      </trkpt>
      <trkpt lat="48.6399" lon="-2.31369">
        <ele>48</ele>
        <time>2014-06-10T12:43:21Z</time>
      </trkpt>
      <trkpt lat="48.6399" lon="-2.31371">
        <ele>49</ele>
        <time>2014-06-10T12:43:23Z</time>
      </trkpt>
      <trkpt lat="48.63994" lon="-2.31374">
        <ele>52</ele>
        <time>2014-06-10T12:43:27Z</time>
      </trkpt>
      <trkpt lat="48.63997" lon="-2.31376">
        <ele>53</ele>
        <time>2014-06-10T12:43:30Z</time>
      </trkpt>
      <trkpt lat="48.63998" lon="-2.31377">
        <ele>53</ele>
        <time>2014-06-10T12:43:32Z</time>
      </trkpt>
      <trkpt lat="48.64001" lon="-2.3138">
        <ele>53</ele>
        <time>2014-06-10T12:43:34Z</time>
      </trkpt>
      <trkpt lat="48.64003" lon="-2.31381">
        <ele>53</ele>
        <time>2014-06-10T12:43:36Z</time>
      </trkpt>
      <trkpt lat="48.64004" lon="-2.31382">
        <ele>53</ele>
        <time>2014-06-10T12:43:38Z</time>
      </trkpt>
      <trkpt lat="48.64007" lon="-2.31385">
        <ele>53</ele>
        <time>2014-06-10T12:43:40Z</time>
      </trkpt>
      <trkpt lat="48.6401" lon="-2.31387">
        <ele>53</ele>
        <time>2014-06-10T12:43:43Z</time>
      </trkpt>
      <trkpt lat="48.64011" lon="-2.31389">
        <ele>53</ele>
        <time>2014-06-10T12:43:45Z</time>
      </trkpt>
      <trkpt lat="48.64012" lon="-2.31391">
        <ele>53</ele>
        <time>2014-06-10T12:43:47Z</time>
      </trkpt>
      <trkpt lat="48.64014" lon="-2.31391">
        <ele>54</ele>
        <time>2014-06-10T12:43:49Z</time>
      </trkpt>
      <trkpt lat="48.64016" lon="-2.31393">
        <ele>55</ele>
        <time>2014-06-10T12:43:51Z</time>
      </trkpt>
      <trkpt lat="48.64019" lon="-2.31395">
        <ele>55</ele>
        <time>2014-06-10T12:43:53Z</time>
      </trkpt>
      <trkpt lat="48.64024" lon="-2.31397">
        <ele>55</ele>
        <time>2014-06-10T12:43:55Z</time>
      </trkpt>
      <trkpt lat="48.64028" lon="-2.314">
        <ele>55</ele>
        <time>2014-06-10T12:43:58Z</time>
      </trkpt>
      <trkpt lat="48.64029" lon="-2.31402">
        <ele>55</ele>
        <time>2014-06-10T12:44:00Z</time>
      </trkpt>
      <trkpt lat="48.64033" lon="-2.31405">
        <ele>55</ele>
        <time>2014-06-10T12:44:03Z</time>
      </trkpt>
      <trkpt lat="48.64036" lon="-2.31408">
        <ele>54</ele>
        <time>2014-06-10T12:44:05Z</time>
      </trkpt>
      <trkpt lat="48.64037" lon="-2.3141">
        <ele>53</ele>
        <time>2014-06-10T12:44:07Z</time>
      </trkpt>
      <trkpt lat="48.6404" lon="-2.31411">
        <ele>53</ele>
        <time>2014-06-10T12:44:09Z</time>
      </trkpt>
      <trkpt lat="48.64044" lon="-2.31414">
        <ele>53</ele>
        <time>2014-06-10T12:44:11Z</time>
      </trkpt>
      <trkpt lat="48.64046" lon="-2.31416">
        <ele>53</ele>
        <time>2014-06-10T12:44:13Z</time>
      </trkpt>
      <trkpt lat="48.64048" lon="-2.31418">
        <ele>53</ele>
        <time>2014-06-10T12:44:16Z</time>
      </trkpt>
      <trkpt lat="48.64052" lon="-2.31422">
        <ele>53</ele>
        <time>2014-06-10T12:44:19Z</time>
      </trkpt>
      <trkpt lat="48.64054" lon="-2.31424">
        <ele>53</ele>
        <time>2014-06-10T12:44:21Z</time>
      </trkpt>
      <trkpt lat="48.64056" lon="-2.31427">
        <ele>53</ele>
        <time>2014-06-10T12:44:23Z</time>
      </trkpt>
      <trkpt lat="48.64058" lon="-2.3143">
        <ele>53</ele>
        <time>2014-06-10T12:44:25Z</time>
      </trkpt>
      <trkpt lat="48.64058" lon="-2.31433">
        <ele>53</ele>
        <time>2014-06-10T12:44:27Z</time>
      </trkpt>
      <trkpt lat="48.64061" lon="-2.31436">
        <ele>53</ele>
        <time>2014-06-10T12:44:29Z</time>
      </trkpt>
      <trkpt lat="48.64063" lon="-2.3144">
        <ele>53</ele>
        <time>2014-06-10T12:44:31Z</time>
      </trkpt>
      <trkpt lat="48.64065" lon="-2.31444">
        <ele>53</ele>
        <time>2014-06-10T12:44:33Z</time>
      </trkpt>
      <trkpt lat="48.64066" lon="-2.31445">
        <ele>53</ele>
        <time>2014-06-10T12:44:35Z</time>
      </trkpt>
      <trkpt lat="48.64067" lon="-2.31446">
        <ele>53</ele>
        <time>2014-06-10T12:44:38Z</time>
      </trkpt>
      <trkpt lat="48.6407" lon="-2.31448">
        <ele>53</ele>
        <time>2014-06-10T12:44:40Z</time>
      </trkpt>
      <trkpt lat="48.64071" lon="-2.3145">
        <ele>53</ele>
        <time>2014-06-10T12:44:42Z</time>
      </trkpt>
      <trkpt lat="48.64074" lon="-2.31453">
        <ele>53</ele>
        <time>2014-06-10T12:44:45Z</time>
      </trkpt>
      <trkpt lat="48.64078" lon="-2.31456">
        <ele>53</ele>
        <time>2014-06-10T12:44:47Z</time>
      </trkpt>
      <trkpt lat="48.64081" lon="-2.31458">
        <ele>57</ele>
        <time>2014-06-10T12:44:52Z</time>
      </trkpt>
      <trkpt lat="48.64085" lon="-2.31463">
        <ele>58</ele>
        <time>2014-06-10T12:44:54Z</time>
      </trkpt>
      <trkpt lat="48.64087" lon="-2.31465">
        <ele>58</ele>
        <time>2014-06-10T12:44:57Z</time>
      </trkpt>
      <trkpt lat="48.6409" lon="-2.31468">
        <ele>58</ele>
        <time>2014-06-10T12:44:59Z</time>
      </trkpt>
      <trkpt lat="48.6409" lon="-2.3147">
        <ele>58</ele>
        <time>2014-06-10T12:45:02Z</time>
      </trkpt>
      <trkpt lat="48.64092" lon="-2.3147">
        <ele>58</ele>
        <time>2014-06-10T12:45:05Z</time>
      </trkpt>
      <trkpt lat="48.64094" lon="-2.31472">
        <ele>58</ele>
        <time>2014-06-10T12:45:07Z</time>
      </trkpt>
      <trkpt lat="48.64097" lon="-2.31475">
        <ele>58</ele>
        <time>2014-06-10T12:45:10Z</time>
      </trkpt>
      <trkpt lat="48.64099" lon="-2.31476">
        <ele>58</ele>
        <time>2014-06-10T12:45:12Z</time>
      </trkpt>
      <trkpt lat="48.64101" lon="-2.31475">
        <ele>58</ele>
        <time>2014-06-10T12:45:14Z</time>
      </trkpt>
      <trkpt lat="48.64105" lon="-2.31475">
        <ele>58</ele>
        <time>2014-06-10T12:45:16Z</time>
      </trkpt>
      <trkpt lat="48.64107" lon="-2.31477">
        <ele>58</ele>
        <time>2014-06-10T12:45:18Z</time>
      </trkpt>
      <trkpt lat="48.64109" lon="-2.3148">
        <ele>58</ele>
        <time>2014-06-10T12:45:21Z</time>
      </trkpt>
      <trkpt lat="48.64112" lon="-2.3148">
        <ele>59</ele>
        <time>2014-06-10T12:45:23Z</time>
      </trkpt>
      <trkpt lat="48.64114" lon="-2.31481">
        <ele>59</ele>
        <time>2014-06-10T12:45:25Z</time>
      </trkpt>
      <trkpt lat="48.64116" lon="-2.31481">
        <ele>59</ele>
        <time>2014-06-10T12:45:27Z</time>
      </trkpt>
      <trkpt lat="48.64119" lon="-2.31481">
        <ele>60</ele>
        <time>2014-06-10T12:45:29Z</time>
      </trkpt>
      <trkpt lat="48.64122" lon="-2.31483">
        <ele>60</ele>
        <time>2014-06-10T12:45:31Z</time>
      </trkpt>
      <trkpt lat="48.64124" lon="-2.31483">
        <ele>60</ele>
        <time>2014-06-10T12:45:33Z</time>
      </trkpt>
      <trkpt lat="48.64126" lon="-2.31485">
        <ele>60</ele>
        <time>2014-06-10T12:45:35Z</time>
      </trkpt>
      <trkpt lat="48.64128" lon="-2.3149">
        <ele>60</ele>
        <time>2014-06-10T12:45:37Z</time>
      </trkpt>
      <trkpt lat="48.64129" lon="-2.31494">
        <ele>60</ele>
        <time>2014-06-10T12:45:39Z</time>
      </trkpt>
      <trkpt lat="48.64129" lon="-2.31498">
        <ele>59</ele>
        <time>2014-06-10T12:45:41Z</time>
      </trkpt>
      <trkpt lat="48.6413" lon="-2.31502">
        <ele>58</ele>
        <time>2014-06-10T12:45:43Z</time>
      </trkpt>
      <trkpt lat="48.64129" lon="-2.31506">
        <ele>57</ele>
        <time>2014-06-10T12:45:45Z</time>
      </trkpt>
      <trkpt lat="48.64128" lon="-2.31511">
        <ele>55</ele>
        <time>2014-06-10T12:45:47Z</time>
      </trkpt>
      <trkpt lat="48.64127" lon="-2.31514">
        <ele>55</ele>
        <time>2014-06-10T12:45:49Z</time>
      </trkpt>
      <trkpt lat="48.64124" lon="-2.31516">
        <ele>55</ele>
        <time>2014-06-10T12:45:51Z</time>
      </trkpt>
      <trkpt lat="48.6412" lon="-2.31519">
        <ele>55</ele>
        <time>2014-06-10T12:45:53Z</time>
      </trkpt>
      <trkpt lat="48.6412" lon="-2.31523">
        <ele>55</ele>
        <time>2014-06-10T12:45:55Z</time>
      </trkpt>
      <trkpt lat="48.64119" lon="-2.31526">
        <ele>55</ele>
        <time>2014-06-10T12:45:57Z</time>
      </trkpt>
      <trkpt lat="48.64118" lon="-2.3153">
        <ele>55</ele>
        <time>2014-06-10T12:45:59Z</time>
      </trkpt>
      <trkpt lat="48.64117" lon="-2.31533">
        <ele>55</ele>
        <time>2014-06-10T12:46:01Z</time>
      </trkpt>
      <trkpt lat="48.64118" lon="-2.31538">
        <ele>55</ele>
        <time>2014-06-10T12:46:03Z</time>
      </trkpt>
      <trkpt lat="48.64117" lon="-2.3154">
        <ele>55</ele>
        <time>2014-06-10T12:46:05Z</time>
      </trkpt>
      <trkpt lat="48.64115" lon="-2.31541">
        <ele>55</ele>
        <time>2014-06-10T12:46:08Z</time>
      </trkpt>
      <trkpt lat="48.64113" lon="-2.31541">
        <ele>55</ele>
        <time>2014-06-10T12:46:17Z</time>
      </trkpt>
      <trkpt lat="48.64112" lon="-2.31541">
        <ele>55</ele>
        <time>2014-06-10T12:46:25Z</time>
      </trkpt>
      <trkpt lat="48.64111" lon="-2.31541">
        <ele>55</ele>
        <time>2014-06-10T12:46:28Z</time>
      </trkpt>
      <trkpt lat="48.64111" lon="-2.3154">
        <ele>55</ele>
        <time>2014-06-10T12:46:35Z</time>
      </trkpt>
      <trkpt lat="48.64113" lon="-2.31541">
        <ele>55</ele>
        <time>2014-06-10T12:46:37Z</time>
      </trkpt>
      <trkpt lat="48.64114" lon="-2.31542">
        <ele>55</ele>
        <time>2014-06-10T12:46:40Z</time>
      </trkpt>
      <trkpt lat="48.64117" lon="-2.31541">
        <ele>55</ele>
        <time>2014-06-10T12:46:42Z</time>
      </trkpt>
      <trkpt lat="48.64118" lon="-2.31544">
        <ele>55</ele>
        <time>2014-06-10T12:46:45Z</time>
      </trkpt>
      <trkpt lat="48.6412" lon="-2.31547">
        <ele>55</ele>
        <time>2014-06-10T12:46:47Z</time>
      </trkpt>
      <trkpt lat="48.64121" lon="-2.31551">
        <ele>55</ele>
        <time>2014-06-10T12:46:49Z</time>
      </trkpt>
      <trkpt lat="48.64122" lon="-2.31554">
        <ele>55</ele>
        <time>2014-06-10T12:46:51Z</time>
      </trkpt>
      <trkpt lat="48.64124" lon="-2.31558">
        <ele>55</ele>
        <time>2014-06-10T12:46:54Z</time>
      </trkpt>
      <trkpt lat="48.64125" lon="-2.31562">
        <ele>55</ele>
        <time>2014-06-10T12:46:56Z</time>
      </trkpt>
      <trkpt lat="48.64126" lon="-2.31565">
        <ele>55</ele>
        <time>2014-06-10T12:46:58Z</time>
      </trkpt>
      <trkpt lat="48.64128" lon="-2.3157">
        <ele>54</ele>
        <time>2014-06-10T12:47:01Z</time>
      </trkpt>
      <trkpt lat="48.6413" lon="-2.31574">
        <ele>54</ele>
        <time>2014-06-10T12:47:03Z</time>
      </trkpt>
      <trkpt lat="48.64132" lon="-2.31577">
        <ele>54</ele>
        <time>2014-06-10T12:47:05Z</time>
      </trkpt>
      <trkpt lat="48.64133" lon="-2.31581">
        <ele>54</ele>
        <time>2014-06-10T12:47:07Z</time>
      </trkpt>
      <trkpt lat="48.64134" lon="-2.31584">
        <ele>54</ele>
        <time>2014-06-10T12:47:09Z</time>
      </trkpt>
      <trkpt lat="48.64135" lon="-2.31587">
        <ele>54</ele>
        <time>2014-06-10T12:47:11Z</time>
      </trkpt>
      <trkpt lat="48.64137" lon="-2.3159">
        <ele>54</ele>
        <time>2014-06-10T12:47:13Z</time>
      </trkpt>
      <trkpt lat="48.64139" lon="-2.31593">
        <ele>54</ele>
        <time>2014-06-10T12:47:15Z</time>
      </trkpt>
      <trkpt lat="48.64141" lon="-2.31596">
        <ele>54</ele>
        <time>2014-06-10T12:47:17Z</time>
      </trkpt>
      <trkpt lat="48.64144" lon="-2.316">
        <ele>54</ele>
        <time>2014-06-10T12:47:20Z</time>
      </trkpt>
      <trkpt lat="48.64146" lon="-2.31603">
        <ele>54</ele>
        <time>2014-06-10T12:47:22Z</time>
      </trkpt>
      <trkpt lat="48.64149" lon="-2.31607">
        <ele>54</ele>
        <time>2014-06-10T12:47:25Z</time>
      </trkpt>
      <trkpt lat="48.64152" lon="-2.3161">
        <ele>54</ele>
        <time>2014-06-10T12:47:27Z</time>
      </trkpt>
      <trkpt lat="48.64154" lon="-2.31612">
        <ele>54</ele>
        <time>2014-06-10T12:47:29Z</time>
      </trkpt>
      <trkpt lat="48.64158" lon="-2.31616">
        <ele>54</ele>
        <time>2014-06-10T12:47:32Z</time>
      </trkpt>
      <trkpt lat="48.64162" lon="-2.31619">
        <ele>54</ele>
        <time>2014-06-10T12:47:34Z</time>
      </trkpt>
      <trkpt lat="48.64164" lon="-2.31622">
        <ele>54</ele>
        <time>2014-06-10T12:47:36Z</time>
      </trkpt>
      <trkpt lat="48.64168" lon="-2.31625">
        <ele>54</ele>
        <time>2014-06-10T12:47:38Z</time>
      </trkpt>
      <trkpt lat="48.6417" lon="-2.31627">
        <ele>54</ele>
        <time>2014-06-10T12:47:40Z</time>
      </trkpt>
      <trkpt lat="48.64172" lon="-2.3163">
        <ele>54</ele>
        <time>2014-06-10T12:47:42Z</time>
      </trkpt>
      <trkpt lat="48.64175" lon="-2.31634">
        <ele>54</ele>
        <time>2014-06-10T12:47:44Z</time>
      </trkpt>
      <trkpt lat="48.64177" lon="-2.31638">
        <ele>54</ele>
        <time>2014-06-10T12:47:47Z</time>
      </trkpt>
      <trkpt lat="48.64179" lon="-2.3164">
        <ele>54</ele>
        <time>2014-06-10T12:47:49Z</time>
      </trkpt>
      <trkpt lat="48.6418" lon="-2.31642">
        <ele>54</ele>
        <time>2014-06-10T12:47:51Z</time>
      </trkpt>
      <trkpt lat="48.64183" lon="-2.31646">
        <ele>54</ele>
        <time>2014-06-10T12:47:53Z</time>
      </trkpt>
      <trkpt lat="48.64184" lon="-2.31652">
        <ele>55</ele>
        <time>2014-06-10T12:47:56Z</time>
      </trkpt>
      <trkpt lat="48.64187" lon="-2.31656">
        <ele>55</ele>
        <time>2014-06-10T12:47:58Z</time>
      </trkpt>
      <trkpt lat="48.64189" lon="-2.3166">
        <ele>55</ele>
        <time>2014-06-10T12:48:00Z</time>
      </trkpt>
      <trkpt lat="48.6419" lon="-2.31664">
        <ele>55</ele>
        <time>2014-06-10T12:48:02Z</time>
      </trkpt>
      <trkpt lat="48.64191" lon="-2.31667">
        <ele>55</ele>
        <time>2014-06-10T12:48:04Z</time>
      </trkpt>
      <trkpt lat="48.64191" lon="-2.3167">
        <ele>55</ele>
        <time>2014-06-10T12:48:06Z</time>
      </trkpt>
      <trkpt lat="48.64193" lon="-2.31675">
        <ele>55</ele>
        <time>2014-06-10T12:48:08Z</time>
      </trkpt>
      <trkpt lat="48.64194" lon="-2.31679">
        <ele>55</ele>
        <time>2014-06-10T12:48:10Z</time>
      </trkpt>
      <trkpt lat="48.64196" lon="-2.31682">
        <ele>55</ele>
        <time>2014-06-10T12:48:12Z</time>
      </trkpt>
      <trkpt lat="48.64196" lon="-2.31687">
        <ele>55</ele>
        <time>2014-06-10T12:48:14Z</time>
      </trkpt>
      <trkpt lat="48.64196" lon="-2.31691">
        <ele>55</ele>
        <time>2014-06-10T12:48:16Z</time>
      </trkpt>
      <trkpt lat="48.64196" lon="-2.31696">
        <ele>55</ele>
        <time>2014-06-10T12:48:18Z</time>
      </trkpt>
      <trkpt lat="48.64195" lon="-2.317">
        <ele>55</ele>
        <time>2014-06-10T12:48:20Z</time>
      </trkpt>
      <trkpt lat="48.64195" lon="-2.31704">
        <ele>55</ele>
        <time>2014-06-10T12:48:22Z</time>
      </trkpt>
      <trkpt lat="48.64194" lon="-2.31709">
        <ele>55</ele>
        <time>2014-06-10T12:48:24Z</time>
      </trkpt>
      <trkpt lat="48.64193" lon="-2.31713">
        <ele>55</ele>
        <time>2014-06-10T12:48:26Z</time>
      </trkpt>
      <trkpt lat="48.64193" lon="-2.31718">
        <ele>55</ele>
        <time>2014-06-10T12:48:28Z</time>
      </trkpt>
      <trkpt lat="48.64192" lon="-2.31722">
        <ele>55</ele>
        <time>2014-06-10T12:48:30Z</time>
      </trkpt>
      <trkpt lat="48.64192" lon="-2.31727">
        <ele>55</ele>
        <time>2014-06-10T12:48:32Z</time>
      </trkpt>
      <trkpt lat="48.64191" lon="-2.31731">
        <ele>55</ele>
        <time>2014-06-10T12:48:34Z</time>
      </trkpt>
      <trkpt lat="48.64191" lon="-2.31736">
        <ele>55</ele>
        <time>2014-06-10T12:48:36Z</time>
      </trkpt>
      <trkpt lat="48.6419" lon="-2.31741">
        <ele>55</ele>
        <time>2014-06-10T12:48:38Z</time>
      </trkpt>
      <trkpt lat="48.64189" lon="-2.31746">
        <ele>55</ele>
        <time>2014-06-10T12:48:40Z</time>
      </trkpt>
      <trkpt lat="48.64188" lon="-2.3175">
        <ele>55</ele>
        <time>2014-06-10T12:48:42Z</time>
      </trkpt>
      <trkpt lat="48.64187" lon="-2.31755">
        <ele>55</ele>
        <time>2014-06-10T12:48:44Z</time>
      </trkpt>
      <trkpt lat="48.64186" lon="-2.31759">
        <ele>55</ele>
        <time>2014-06-10T12:48:46Z</time>
      </trkpt>
      <trkpt lat="48.64186" lon="-2.31764">
        <ele>55</ele>
        <time>2014-06-10T12:48:48Z</time>
      </trkpt>
      <trkpt lat="48.64185" lon="-2.31768">
        <ele>55</ele>
        <time>2014-06-10T12:48:50Z</time>
      </trkpt>
      <trkpt lat="48.64184" lon="-2.31772">
        <ele>55</ele>
        <time>2014-06-10T12:48:52Z</time>
      </trkpt>
      <trkpt lat="48.64182" lon="-2.31779">
        <ele>55</ele>
        <time>2014-06-10T12:48:55Z</time>
      </trkpt>
      <trkpt lat="48.64182" lon="-2.31783">
        <ele>55</ele>
        <time>2014-06-10T12:48:57Z</time>
      </trkpt>
      <trkpt lat="48.64181" lon="-2.31787">
        <ele>55</ele>
        <time>2014-06-10T12:48:59Z</time>
      </trkpt>
      <trkpt lat="48.64179" lon="-2.31792">
        <ele>55</ele>
        <time>2014-06-10T12:49:01Z</time>
      </trkpt>
      <trkpt lat="48.64178" lon="-2.31796">
        <ele>55</ele>
        <time>2014-06-10T12:49:03Z</time>
      </trkpt>
      <trkpt lat="48.64178" lon="-2.31801">
        <ele>55</ele>
        <time>2014-06-10T12:49:05Z</time>
      </trkpt>
      <trkpt lat="48.64178" lon="-2.31805">
        <ele>56</ele>
        <time>2014-06-10T12:49:07Z</time>
      </trkpt>
      <trkpt lat="48.64177" lon="-2.31809">
        <ele>56</ele>
        <time>2014-06-10T12:49:09Z</time>
      </trkpt>
      <trkpt lat="48.64178" lon="-2.31814">
        <ele>56</ele>
        <time>2014-06-10T12:49:11Z</time>
      </trkpt>
      <trkpt lat="48.64177" lon="-2.31818">
        <ele>56</ele>
        <time>2014-06-10T12:49:13Z</time>
      </trkpt>
      <trkpt lat="48.64177" lon="-2.31822">
        <ele>56</ele>
        <time>2014-06-10T12:49:15Z</time>
      </trkpt>
      <trkpt lat="48.64177" lon="-2.31826">
        <ele>56</ele>
        <time>2014-06-10T12:49:17Z</time>
      </trkpt>
      <trkpt lat="48.64177" lon="-2.31829">
        <ele>56</ele>
        <time>2014-06-10T12:49:19Z</time>
      </trkpt>
      <trkpt lat="48.64176" lon="-2.31833">
        <ele>56</ele>
        <time>2014-06-10T12:49:21Z</time>
      </trkpt>
      <trkpt lat="48.64175" lon="-2.31837">
        <ele>56</ele>
        <time>2014-06-10T12:49:24Z</time>
      </trkpt>
      <trkpt lat="48.64173" lon="-2.31839">
        <ele>56</ele>
        <time>2014-06-10T12:49:26Z</time>
      </trkpt>
      <trkpt lat="48.64172" lon="-2.3184">
        <ele>57</ele>
        <time>2014-06-10T12:49:29Z</time>
      </trkpt>
      <trkpt lat="48.64171" lon="-2.31842">
        <ele>57</ele>
        <time>2014-06-10T12:49:37Z</time>
      </trkpt>
      <trkpt lat="48.64172" lon="-2.31844">
        <ele>57</ele>
        <time>2014-06-10T12:49:39Z</time>
      </trkpt>
      <trkpt lat="48.64172" lon="-2.31848">
        <ele>57</ele>
        <time>2014-06-10T12:49:41Z</time>
      </trkpt>
      <trkpt lat="48.64172" lon="-2.31851">
        <ele>57</ele>
        <time>2014-06-10T12:49:43Z</time>
      </trkpt>
      <trkpt lat="48.64174" lon="-2.31857">
        <ele>57</ele>
        <time>2014-06-10T12:49:46Z</time>
      </trkpt>
      <trkpt lat="48.64175" lon="-2.31861">
        <ele>58</ele>
        <time>2014-06-10T12:49:48Z</time>
      </trkpt>
      <trkpt lat="48.64177" lon="-2.31863">
        <ele>58</ele>
        <time>2014-06-10T12:49:50Z</time>
      </trkpt>
      <trkpt lat="48.64178" lon="-2.31866">
        <ele>58</ele>
        <time>2014-06-10T12:49:52Z</time>
      </trkpt>
      <trkpt lat="48.64179" lon="-2.31868">
        <ele>58</ele>
        <time>2014-06-10T12:49:54Z</time>
      </trkpt>
      <trkpt lat="48.6418" lon="-2.31868">
        <ele>58</ele>
        <time>2014-06-10T12:50:02Z</time>
      </trkpt>
      <trkpt lat="48.64182" lon="-2.31868">
        <ele>59</ele>
        <time>2014-06-10T12:50:10Z</time>
      </trkpt>
      <trkpt lat="48.64183" lon="-2.31869">
        <ele>59</ele>
        <time>2014-06-10T12:50:12Z</time>
      </trkpt>
      <trkpt lat="48.64185" lon="-2.31872">
        <ele>59</ele>
        <time>2014-06-10T12:50:14Z</time>
      </trkpt>
      <trkpt lat="48.64187" lon="-2.31875">
        <ele>59</ele>
        <time>2014-06-10T12:50:16Z</time>
      </trkpt>
      <trkpt lat="48.64188" lon="-2.31877">
        <ele>59</ele>
        <time>2014-06-10T12:50:18Z</time>
      </trkpt>
      <trkpt lat="48.6419" lon="-2.3188">
        <ele>59</ele>
        <time>2014-06-10T12:50:20Z</time>
      </trkpt>
      <trkpt lat="48.64193" lon="-2.31885">
        <ele>59</ele>
        <time>2014-06-10T12:50:23Z</time>
      </trkpt>
      <trkpt lat="48.64196" lon="-2.31889">
        <ele>59</ele>
        <time>2014-06-10T12:50:26Z</time>
      </trkpt>
      <trkpt lat="48.64198" lon="-2.31891">
        <ele>59</ele>
        <time>2014-06-10T12:50:28Z</time>
      </trkpt>
      <trkpt lat="48.642" lon="-2.31894">
        <ele>59</ele>
        <time>2014-06-10T12:50:30Z</time>
      </trkpt>
      <trkpt lat="48.64202" lon="-2.31898">
        <ele>59</ele>
        <time>2014-06-10T12:50:32Z</time>
      </trkpt>
      <trkpt lat="48.64205" lon="-2.31901">
        <ele>59</ele>
        <time>2014-06-10T12:50:35Z</time>
      </trkpt>
      <trkpt lat="48.64207" lon="-2.31903">
        <ele>59</ele>
        <time>2014-06-10T12:50:37Z</time>
      </trkpt>
      <trkpt lat="48.6421" lon="-2.31905">
        <ele>59</ele>
        <time>2014-06-10T12:50:39Z</time>
      </trkpt>
      <trkpt lat="48.64213" lon="-2.31907">
        <ele>59</ele>
        <time>2014-06-10T12:50:42Z</time>
      </trkpt>
      <trkpt lat="48.64216" lon="-2.31909">
        <ele>59</ele>
        <time>2014-06-10T12:50:44Z</time>
      </trkpt>
      <trkpt lat="48.64218" lon="-2.31911">
        <ele>59</ele>
        <time>2014-06-10T12:50:46Z</time>
      </trkpt>
      <trkpt lat="48.6422" lon="-2.31913">
        <ele>59</ele>
        <time>2014-06-10T12:50:48Z</time>
      </trkpt>
      <trkpt lat="48.64223" lon="-2.31914">
        <ele>59</ele>
        <time>2014-06-10T12:50:50Z</time>
      </trkpt>
      <trkpt lat="48.64226" lon="-2.31916">
        <ele>59</ele>
        <time>2014-06-10T12:50:52Z</time>
      </trkpt>
      <trkpt lat="48.64228" lon="-2.31918">
        <ele>59</ele>
        <time>2014-06-10T12:50:54Z</time>
      </trkpt>
      <trkpt lat="48.64231" lon="-2.3192">
        <ele>59</ele>
        <time>2014-06-10T12:50:56Z</time>
      </trkpt>
      <trkpt lat="48.64233" lon="-2.31922">
        <ele>59</ele>
        <time>2014-06-10T12:50:58Z</time>
      </trkpt>
      <trkpt lat="48.64236" lon="-2.31923">
        <ele>59</ele>
        <time>2014-06-10T12:51:00Z</time>
      </trkpt>
      <trkpt lat="48.64239" lon="-2.31924">
        <ele>59</ele>
        <time>2014-06-10T12:51:02Z</time>
      </trkpt>
      <trkpt lat="48.64243" lon="-2.31925">
        <ele>59</ele>
        <time>2014-06-10T12:51:05Z</time>
      </trkpt>
      <trkpt lat="48.64245" lon="-2.31926">
        <ele>59</ele>
        <time>2014-06-10T12:51:07Z</time>
      </trkpt>
      <trkpt lat="48.64248" lon="-2.31927">
        <ele>59</ele>
        <time>2014-06-10T12:51:09Z</time>
      </trkpt>
      <trkpt lat="48.6425" lon="-2.31928">
        <ele>59</ele>
        <time>2014-06-10T12:51:11Z</time>
      </trkpt>
      <trkpt lat="48.64253" lon="-2.31929">
        <ele>59</ele>
        <time>2014-06-10T12:51:13Z</time>
      </trkpt>
      <trkpt lat="48.64255" lon="-2.3193">
        <ele>59</ele>
        <time>2014-06-10T12:51:15Z</time>
      </trkpt>
      <trkpt lat="48.64258" lon="-2.31932">
        <ele>59</ele>
        <time>2014-06-10T12:51:17Z</time>
      </trkpt>
      <trkpt lat="48.64261" lon="-2.31936">
        <ele>59</ele>
        <time>2014-06-10T12:51:20Z</time>
      </trkpt>
      <trkpt lat="48.64264" lon="-2.31938">
        <ele>59</ele>
        <time>2014-06-10T12:51:22Z</time>
      </trkpt>
      <trkpt lat="48.64267" lon="-2.3194">
        <ele>59</ele>
        <time>2014-06-10T12:51:24Z</time>
      </trkpt>
      <trkpt lat="48.64269" lon="-2.31942">
        <ele>59</ele>
        <time>2014-06-10T12:51:26Z</time>
      </trkpt>
      <trkpt lat="48.64272" lon="-2.31944">
        <ele>59</ele>
        <time>2014-06-10T12:51:28Z</time>
      </trkpt>
      <trkpt lat="48.64275" lon="-2.31946">
        <ele>59</ele>
        <time>2014-06-10T12:51:30Z</time>
      </trkpt>
      <trkpt lat="48.64278" lon="-2.31949">
        <ele>59</ele>
        <time>2014-06-10T12:51:33Z</time>
      </trkpt>
      <trkpt lat="48.6428" lon="-2.31951">
        <ele>59</ele>
        <time>2014-06-10T12:51:35Z</time>
      </trkpt>
      <trkpt lat="48.64283" lon="-2.31953">
        <ele>59</ele>
        <time>2014-06-10T12:51:37Z</time>
      </trkpt>
      <trkpt lat="48.64286" lon="-2.31955">
        <ele>59</ele>
        <time>2014-06-10T12:51:39Z</time>
      </trkpt>
      <trkpt lat="48.64289" lon="-2.31958">
        <ele>59</ele>
        <time>2014-06-10T12:51:41Z</time>
      </trkpt>
      <trkpt lat="48.64291" lon="-2.3196">
        <ele>59</ele>
        <time>2014-06-10T12:51:43Z</time>
      </trkpt>
      <trkpt lat="48.64295" lon="-2.31963">
        <ele>59</ele>
        <time>2014-06-10T12:51:46Z</time>
      </trkpt>
      <trkpt lat="48.64297" lon="-2.31965">
        <ele>59</ele>
        <time>2014-06-10T12:51:48Z</time>
      </trkpt>
      <trkpt lat="48.64301" lon="-2.31968">
        <ele>59</ele>
        <time>2014-06-10T12:51:51Z</time>
      </trkpt>
      <trkpt lat="48.64303" lon="-2.3197">
        <ele>59</ele>
        <time>2014-06-10T12:51:53Z</time>
      </trkpt>
      <trkpt lat="48.64307" lon="-2.31973">
        <ele>59</ele>
        <time>2014-06-10T12:51:56Z</time>
      </trkpt>
      <trkpt lat="48.64309" lon="-2.31975">
        <ele>59</ele>
        <time>2014-06-10T12:51:58Z</time>
      </trkpt>
      <trkpt lat="48.64311" lon="-2.31978">
        <ele>59</ele>
        <time>2014-06-10T12:52:00Z</time>
      </trkpt>
      <trkpt lat="48.64314" lon="-2.3198">
        <ele>59</ele>
        <time>2014-06-10T12:52:02Z</time>
      </trkpt>
      <trkpt lat="48.64317" lon="-2.31983">
        <ele>59</ele>
        <time>2014-06-10T12:52:04Z</time>
      </trkpt>
      <trkpt lat="48.64319" lon="-2.31986">
        <ele>59</ele>
        <time>2014-06-10T12:52:06Z</time>
      </trkpt>
      <trkpt lat="48.64322" lon="-2.31988">
        <ele>59</ele>
        <time>2014-06-10T12:52:08Z</time>
      </trkpt>
      <trkpt lat="48.64325" lon="-2.3199">
        <ele>59</ele>
        <time>2014-06-10T12:52:10Z</time>
      </trkpt>
      <trkpt lat="48.64328" lon="-2.31993">
        <ele>59</ele>
        <time>2014-06-10T12:52:13Z</time>
      </trkpt>
      <trkpt lat="48.64331" lon="-2.31995">
        <ele>59</ele>
        <time>2014-06-10T12:52:15Z</time>
      </trkpt>
      <trkpt lat="48.64333" lon="-2.31996">
        <ele>59</ele>
        <time>2014-06-10T12:52:17Z</time>
      </trkpt>
      <trkpt lat="48.64336" lon="-2.31998">
        <ele>59</ele>
        <time>2014-06-10T12:52:19Z</time>
      </trkpt>
      <trkpt lat="48.64338" lon="-2.32">
        <ele>59</ele>
        <time>2014-06-10T12:52:21Z</time>
      </trkpt>
      <trkpt lat="48.64341" lon="-2.32002">
        <ele>59</ele>
        <time>2014-06-10T12:52:23Z</time>
      </trkpt>
      <trkpt lat="48.64343" lon="-2.32004">
        <ele>59</ele>
        <time>2014-06-10T12:52:25Z</time>
      </trkpt>
      <trkpt lat="48.64346" lon="-2.32006">
        <ele>59</ele>
        <time>2014-06-10T12:52:27Z</time>
      </trkpt>
      <trkpt lat="48.64349" lon="-2.32009">
        <ele>59</ele>
        <time>2014-06-10T12:52:30Z</time>
      </trkpt>
      <trkpt lat="48.64352" lon="-2.3201">
        <ele>59</ele>
        <time>2014-06-10T12:52:32Z</time>
      </trkpt>
      <trkpt lat="48.64355" lon="-2.32012">
        <ele>59</ele>
        <time>2014-06-10T12:52:34Z</time>
      </trkpt>
      <trkpt lat="48.64358" lon="-2.32015">
        <ele>59</ele>
        <time>2014-06-10T12:52:36Z</time>
      </trkpt>
      <trkpt lat="48.64359" lon="-2.32017">
        <ele>59</ele>
        <time>2014-06-10T12:52:38Z</time>
      </trkpt>
      <trkpt lat="48.6436" lon="-2.32021">
        <ele>59</ele>
        <time>2014-06-10T12:52:40Z</time>
      </trkpt>
      <trkpt lat="48.64363" lon="-2.32025">
        <ele>59</ele>
        <time>2014-06-10T12:52:43Z</time>
      </trkpt>
      <trkpt lat="48.64365" lon="-2.32028">
        <ele>59</ele>
        <time>2014-06-10T12:52:45Z</time>
      </trkpt>
      <trkpt lat="48.64366" lon="-2.32031">
        <ele>59</ele>
        <time>2014-06-10T12:52:47Z</time>
      </trkpt>
      <trkpt lat="48.64367" lon="-2.32033">
        <ele>59</ele>
        <time>2014-06-10T12:52:49Z</time>
      </trkpt>
      <trkpt lat="48.64368" lon="-2.32036">
        <ele>59</ele>
        <time>2014-06-10T12:52:51Z</time>
      </trkpt>
      <trkpt lat="48.6437" lon="-2.32039">
        <ele>59</ele>
        <time>2014-06-10T12:52:53Z</time>
      </trkpt>
      <trkpt lat="48.64372" lon="-2.32042">
        <ele>59</ele>
        <time>2014-06-10T12:52:55Z</time>
      </trkpt>
      <trkpt lat="48.64374" lon="-2.32045">
        <ele>59</ele>
        <time>2014-06-10T12:52:57Z</time>
      </trkpt>
      <trkpt lat="48.64376" lon="-2.32048">
        <ele>59</ele>
        <time>2014-06-10T12:52:59Z</time>
      </trkpt>
      <trkpt lat="48.64378" lon="-2.32052">
        <ele>59</ele>
        <time>2014-06-10T12:53:01Z</time>
      </trkpt>
      <trkpt lat="48.64381" lon="-2.32056">
        <ele>59</ele>
        <time>2014-06-10T12:53:04Z</time>
      </trkpt>
      <trkpt lat="48.64382" lon="-2.3206">
        <ele>59</ele>
        <time>2014-06-10T12:53:06Z</time>
      </trkpt>
      <trkpt lat="48.64384" lon="-2.32063">
        <ele>59</ele>
        <time>2014-06-10T12:53:08Z</time>
      </trkpt>
      <trkpt lat="48.64386" lon="-2.32066">
        <ele>59</ele>
        <time>2014-06-10T12:53:10Z</time>
      </trkpt>
      <trkpt lat="48.64389" lon="-2.3207">
        <ele>59</ele>
        <time>2014-06-10T12:53:13Z</time>
      </trkpt>
      <trkpt lat="48.6439" lon="-2.32073">
        <ele>59</ele>
        <time>2014-06-10T12:53:15Z</time>
      </trkpt>
      <trkpt lat="48.64392" lon="-2.32076">
        <ele>59</ele>
        <time>2014-06-10T12:53:17Z</time>
      </trkpt>
      <trkpt lat="48.64394" lon="-2.32081">
        <ele>59</ele>
        <time>2014-06-10T12:53:20Z</time>
      </trkpt>
      <trkpt lat="48.64396" lon="-2.32084">
        <ele>59</ele>
        <time>2014-06-10T12:53:22Z</time>
      </trkpt>
      <trkpt lat="48.64398" lon="-2.32088">
        <ele>59</ele>
        <time>2014-06-10T12:53:24Z</time>
      </trkpt>
      <trkpt lat="48.644" lon="-2.32092">
        <ele>59</ele>
        <time>2014-06-10T12:53:26Z</time>
      </trkpt>
      <trkpt lat="48.64401" lon="-2.32095">
        <ele>59</ele>
        <time>2014-06-10T12:53:28Z</time>
      </trkpt>
      <trkpt lat="48.64403" lon="-2.32099">
        <ele>59</ele>
        <time>2014-06-10T12:53:30Z</time>
      </trkpt>
      <trkpt lat="48.64405" lon="-2.32102">
        <ele>59</ele>
        <time>2014-06-10T12:53:32Z</time>
      </trkpt>
      <trkpt lat="48.64406" lon="-2.32106">
        <ele>59</ele>
        <time>2014-06-10T12:53:34Z</time>
      </trkpt>
      <trkpt lat="48.64408" lon="-2.32111">
        <ele>59</ele>
        <time>2014-06-10T12:53:37Z</time>
      </trkpt>
      <trkpt lat="48.64411" lon="-2.32115">
        <ele>59</ele>
        <time>2014-06-10T12:53:40Z</time>
      </trkpt>
      <trkpt lat="48.64412" lon="-2.32118">
        <ele>59</ele>
        <time>2014-06-10T12:53:42Z</time>
      </trkpt>
      <trkpt lat="48.64414" lon="-2.32122">
        <ele>59</ele>
        <time>2014-06-10T12:53:44Z</time>
      </trkpt>
      <trkpt lat="48.64415" lon="-2.32126">
        <ele>59</ele>
        <time>2014-06-10T12:53:46Z</time>
      </trkpt>
      <trkpt lat="48.64417" lon="-2.32129">
        <ele>59</ele>
        <time>2014-06-10T12:53:48Z</time>
      </trkpt>
      <trkpt lat="48.64418" lon="-2.32134">
        <ele>59</ele>
        <time>2014-06-10T12:53:50Z</time>
      </trkpt>
      <trkpt lat="48.6442" lon="-2.32137">
        <ele>59</ele>
        <time>2014-06-10T12:53:52Z</time>
      </trkpt>
      <trkpt lat="48.64421" lon="-2.32141">
        <ele>59</ele>
        <time>2014-06-10T12:53:54Z</time>
      </trkpt>
      <trkpt lat="48.64423" lon="-2.32146">
        <ele>59</ele>
        <time>2014-06-10T12:53:56Z</time>
      </trkpt>
      <trkpt lat="48.64425" lon="-2.3215">
        <ele>59</ele>
        <time>2014-06-10T12:53:58Z</time>
      </trkpt>
      <trkpt lat="48.64426" lon="-2.32154">
        <ele>59</ele>
        <time>2014-06-10T12:54:00Z</time>
      </trkpt>
      <trkpt lat="48.64427" lon="-2.32158">
        <ele>59</ele>
        <time>2014-06-10T12:54:02Z</time>
      </trkpt>
      <trkpt lat="48.64429" lon="-2.32162">
        <ele>59</ele>
        <time>2014-06-10T12:54:04Z</time>
      </trkpt>
      <trkpt lat="48.6443" lon="-2.32166">
        <ele>59</ele>
        <time>2014-06-10T12:54:06Z</time>
      </trkpt>
      <trkpt lat="48.64432" lon="-2.3217">
        <ele>59</ele>
        <time>2014-06-10T12:54:08Z</time>
      </trkpt>
      <trkpt lat="48.64433" lon="-2.32173">
        <ele>59</ele>
        <time>2014-06-10T12:54:10Z</time>
      </trkpt>
      <trkpt lat="48.64434" lon="-2.32177">
        <ele>59</ele>
        <time>2014-06-10T12:54:12Z</time>
      </trkpt>
      <trkpt lat="48.64436" lon="-2.32181">
        <ele>58</ele>
        <time>2014-06-10T12:54:14Z</time>
      </trkpt>
      <trkpt lat="48.64437" lon="-2.32185">
        <ele>58</ele>
        <time>2014-06-10T12:54:16Z</time>
      </trkpt>
      <trkpt lat="48.64439" lon="-2.32188">
        <ele>58</ele>
        <time>2014-06-10T12:54:18Z</time>
      </trkpt>
      <trkpt lat="48.64441" lon="-2.32192">
        <ele>58</ele>
        <time>2014-06-10T12:54:20Z</time>
      </trkpt>
      <trkpt lat="48.64442" lon="-2.32196">
        <ele>57</ele>
        <time>2014-06-10T12:54:22Z</time>
      </trkpt>
      <trkpt lat="48.64444" lon="-2.32201">
        <ele>57</ele>
        <time>2014-06-10T12:54:24Z</time>
      </trkpt>
      <trkpt lat="48.64446" lon="-2.32204">
        <ele>57</ele>
        <time>2014-06-10T12:54:26Z</time>
      </trkpt>
      <trkpt lat="48.64447" lon="-2.32208">
        <ele>57</ele>
        <time>2014-06-10T12:54:28Z</time>
      </trkpt>
      <trkpt lat="48.64449" lon="-2.32211">
        <ele>57</ele>
        <time>2014-06-10T12:54:30Z</time>
      </trkpt>
      <trkpt lat="48.6445" lon="-2.32214">
        <ele>56</ele>
        <time>2014-06-10T12:54:32Z</time>
      </trkpt>
      <trkpt lat="48.64452" lon="-2.32219">
        <ele>56</ele>
        <time>2014-06-10T12:54:34Z</time>
      </trkpt>
      <trkpt lat="48.64453" lon="-2.32223">
        <ele>56</ele>
        <time>2014-06-10T12:54:36Z</time>
      </trkpt>
      <trkpt lat="48.64455" lon="-2.32227">
        <ele>56</ele>
        <time>2014-06-10T12:54:38Z</time>
      </trkpt>
      <trkpt lat="48.64457" lon="-2.32231">
        <ele>56</ele>
        <time>2014-06-10T12:54:40Z</time>
      </trkpt>
      <trkpt lat="48.64458" lon="-2.32235">
        <ele>56</ele>
        <time>2014-06-10T12:54:42Z</time>
      </trkpt>
      <trkpt lat="48.6446" lon="-2.32239">
        <ele>56</ele>
        <time>2014-06-10T12:54:44Z</time>
      </trkpt>
      <trkpt lat="48.64462" lon="-2.32242">
        <ele>56</ele>
        <time>2014-06-10T12:54:46Z</time>
      </trkpt>
      <trkpt lat="48.64465" lon="-2.32246">
        <ele>56</ele>
        <time>2014-06-10T12:54:48Z</time>
      </trkpt>
      <trkpt lat="48.64467" lon="-2.32249">
        <ele>56</ele>
        <time>2014-06-10T12:54:50Z</time>
      </trkpt>
      <trkpt lat="48.6447" lon="-2.32251">
        <ele>56</ele>
        <time>2014-06-10T12:54:52Z</time>
      </trkpt>
      <trkpt lat="48.64472" lon="-2.32254">
        <ele>56</ele>
        <time>2014-06-10T12:54:54Z</time>
      </trkpt>
      <trkpt lat="48.64474" lon="-2.32257">
        <ele>56</ele>
        <time>2014-06-10T12:54:56Z</time>
      </trkpt>
      <trkpt lat="48.64477" lon="-2.32259">
        <ele>56</ele>
        <time>2014-06-10T12:54:58Z</time>
      </trkpt>
      <trkpt lat="48.6448" lon="-2.32262">
        <ele>56</ele>
        <time>2014-06-10T12:55:00Z</time>
      </trkpt>
      <trkpt lat="48.64482" lon="-2.32265">
        <ele>56</ele>
        <time>2014-06-10T12:55:02Z</time>
      </trkpt>
      <trkpt lat="48.64485" lon="-2.32267">
        <ele>56</ele>
        <time>2014-06-10T12:55:04Z</time>
      </trkpt>
      <trkpt lat="48.64487" lon="-2.3227">
        <ele>56</ele>
        <time>2014-06-10T12:55:06Z</time>
      </trkpt>
      <trkpt lat="48.6449" lon="-2.32272">
        <ele>56</ele>
        <time>2014-06-10T12:55:08Z</time>
      </trkpt>
      <trkpt lat="48.64492" lon="-2.32274">
        <ele>56</ele>
        <time>2014-06-10T12:55:10Z</time>
      </trkpt>
      <trkpt lat="48.64494" lon="-2.32277">
        <ele>56</ele>
        <time>2014-06-10T12:55:12Z</time>
      </trkpt>
      <trkpt lat="48.64496" lon="-2.3228">
        <ele>56</ele>
        <time>2014-06-10T12:55:14Z</time>
      </trkpt>
      <trkpt lat="48.64499" lon="-2.32283">
        <ele>56</ele>
        <time>2014-06-10T12:55:16Z</time>
      </trkpt>
      <trkpt lat="48.64502" lon="-2.32287">
        <ele>56</ele>
        <time>2014-06-10T12:55:19Z</time>
      </trkpt>
      <trkpt lat="48.64504" lon="-2.32289">
        <ele>56</ele>
        <time>2014-06-10T12:55:21Z</time>
      </trkpt>
      <trkpt lat="48.64506" lon="-2.32292">
        <ele>56</ele>
        <time>2014-06-10T12:55:23Z</time>
      </trkpt>
      <trkpt lat="48.64509" lon="-2.32295">
        <ele>56</ele>
        <time>2014-06-10T12:55:26Z</time>
      </trkpt>
      <trkpt lat="48.64511" lon="-2.32298">
        <ele>56</ele>
        <time>2014-06-10T12:55:28Z</time>
      </trkpt>
      <trkpt lat="48.64512" lon="-2.32301">
        <ele>56</ele>
        <time>2014-06-10T12:55:30Z</time>
      </trkpt>
      <trkpt lat="48.64515" lon="-2.32306">
        <ele>56</ele>
        <time>2014-06-10T12:55:33Z</time>
      </trkpt>
      <trkpt lat="48.64517" lon="-2.32308">
        <ele>56</ele>
        <time>2014-06-10T12:55:35Z</time>
      </trkpt>
      <trkpt lat="48.64519" lon="-2.32311">
        <ele>56</ele>
        <time>2014-06-10T12:55:37Z</time>
      </trkpt>
      <trkpt lat="48.64521" lon="-2.32316">
        <ele>56</ele>
        <time>2014-06-10T12:55:40Z</time>
      </trkpt>
      <trkpt lat="48.64523" lon="-2.32319">
        <ele>56</ele>
        <time>2014-06-10T12:55:42Z</time>
      </trkpt>
      <trkpt lat="48.64525" lon="-2.32322">
        <ele>56</ele>
        <time>2014-06-10T12:55:44Z</time>
      </trkpt>
      <trkpt lat="48.64527" lon="-2.32324">
        <ele>56</ele>
        <time>2014-06-10T12:55:46Z</time>
      </trkpt>
      <trkpt lat="48.64529" lon="-2.32327">
        <ele>56</ele>
        <time>2014-06-10T12:55:48Z</time>
      </trkpt>
      <trkpt lat="48.64531" lon="-2.3233">
        <ele>56</ele>
        <time>2014-06-10T12:55:50Z</time>
      </trkpt>
      <trkpt lat="48.64532" lon="-2.32333">
        <ele>56</ele>
        <time>2014-06-10T12:55:52Z</time>
      </trkpt>
      <trkpt lat="48.64532" lon="-2.32337">
        <ele>56</ele>
        <time>2014-06-10T12:55:55Z</time>
      </trkpt>
      <trkpt lat="48.64532" lon="-2.32339">
        <ele>56</ele>
        <time>2014-06-10T12:56:09Z</time>
      </trkpt>
      <trkpt lat="48.64531" lon="-2.32343">
        <ele>56</ele>
        <time>2014-06-10T12:56:11Z</time>
      </trkpt>
      <trkpt lat="48.64529" lon="-2.32346">
        <ele>56</ele>
        <time>2014-06-10T12:56:13Z</time>
      </trkpt>
      <trkpt lat="48.64528" lon="-2.3235">
        <ele>56</ele>
        <time>2014-06-10T12:56:15Z</time>
      </trkpt>
      <trkpt lat="48.64526" lon="-2.32353">
        <ele>56</ele>
        <time>2014-06-10T12:56:17Z</time>
      </trkpt>
      <trkpt lat="48.64526" lon="-2.32356">
        <ele>56</ele>
        <time>2014-06-10T12:56:19Z</time>
      </trkpt>
      <trkpt lat="48.64525" lon="-2.3236">
        <ele>56</ele>
        <time>2014-06-10T12:56:21Z</time>
      </trkpt>
      <trkpt lat="48.64523" lon="-2.32364">
        <ele>56</ele>
        <time>2014-06-10T12:56:23Z</time>
      </trkpt>
      <trkpt lat="48.64523" lon="-2.32368">
        <ele>56</ele>
        <time>2014-06-10T12:56:25Z</time>
      </trkpt>
      <trkpt lat="48.64521" lon="-2.32371">
        <ele>56</ele>
        <time>2014-06-10T12:56:27Z</time>
      </trkpt>
      <trkpt lat="48.6452" lon="-2.32375">
        <ele>56</ele>
        <time>2014-06-10T12:56:29Z</time>
      </trkpt>
      <trkpt lat="48.6452" lon="-2.32379">
        <ele>56</ele>
        <time>2014-06-10T12:56:31Z</time>
      </trkpt>
      <trkpt lat="48.6452" lon="-2.32384">
        <ele>56</ele>
        <time>2014-06-10T12:56:33Z</time>
      </trkpt>
      <trkpt lat="48.64519" lon="-2.32388">
        <ele>56</ele>
        <time>2014-06-10T12:56:35Z</time>
      </trkpt>
      <trkpt lat="48.64519" lon="-2.32392">
        <ele>56</ele>
        <time>2014-06-10T12:56:37Z</time>
      </trkpt>
      <trkpt lat="48.6452" lon="-2.32397">
        <ele>56</ele>
        <time>2014-06-10T12:56:39Z</time>
      </trkpt>
      <trkpt lat="48.6452" lon="-2.32401">
        <ele>56</ele>
        <time>2014-06-10T12:56:41Z</time>
      </trkpt>
      <trkpt lat="48.64519" lon="-2.32406">
        <ele>56</ele>
        <time>2014-06-10T12:56:43Z</time>
      </trkpt>
      <trkpt lat="48.64519" lon="-2.3241">
        <ele>56</ele>
        <time>2014-06-10T12:56:45Z</time>
      </trkpt>
      <trkpt lat="48.64518" lon="-2.32414">
        <ele>56</ele>
        <time>2014-06-10T12:56:47Z</time>
      </trkpt>
      <trkpt lat="48.64517" lon="-2.32418">
        <ele>56</ele>
        <time>2014-06-10T12:56:49Z</time>
      </trkpt>
      <trkpt lat="48.64516" lon="-2.32422">
        <ele>56</ele>
        <time>2014-06-10T12:56:52Z</time>
      </trkpt>
      <trkpt lat="48.64517" lon="-2.32423">
        <ele>56</ele>
        <time>2014-06-10T12:56:55Z</time>
      </trkpt>
      <trkpt lat="48.64516" lon="-2.32427">
        <ele>56</ele>
        <time>2014-06-10T12:56:57Z</time>
      </trkpt>
      <trkpt lat="48.64516" lon="-2.32431">
        <ele>56</ele>
        <time>2014-06-10T12:56:59Z</time>
      </trkpt>
      <trkpt lat="48.64515" lon="-2.32435">
        <ele>56</ele>
        <time>2014-06-10T12:57:01Z</time>
      </trkpt>
      <trkpt lat="48.64516" lon="-2.32439">
        <ele>56</ele>
        <time>2014-06-10T12:57:03Z</time>
      </trkpt>
      <trkpt lat="48.64516" lon="-2.32443">
        <ele>56</ele>
        <time>2014-06-10T12:57:05Z</time>
      </trkpt>
      <trkpt lat="48.64516" lon="-2.32447">
        <ele>56</ele>
        <time>2014-06-10T12:57:07Z</time>
      </trkpt>
      <trkpt lat="48.64518" lon="-2.3245">
        <ele>56</ele>
        <time>2014-06-10T12:57:09Z</time>
      </trkpt>
      <trkpt lat="48.64519" lon="-2.32454">
        <ele>56</ele>
        <time>2014-06-10T12:57:11Z</time>
      </trkpt>
      <trkpt lat="48.6452" lon="-2.32457">
        <ele>56</ele>
        <time>2014-06-10T12:57:13Z</time>
      </trkpt>
      <trkpt lat="48.64521" lon="-2.32461">
        <ele>56</ele>
        <time>2014-06-10T12:57:15Z</time>
      </trkpt>
      <trkpt lat="48.64523" lon="-2.32465">
        <ele>56</ele>
        <time>2014-06-10T12:57:17Z</time>
      </trkpt>
      <trkpt lat="48.64524" lon="-2.32468">
        <ele>56</ele>
        <time>2014-06-10T12:57:19Z</time>
      </trkpt>
      <trkpt lat="48.64525" lon="-2.32472">
        <ele>56</ele>
        <time>2014-06-10T12:57:21Z</time>
      </trkpt>
      <trkpt lat="48.64526" lon="-2.32476">
        <ele>56</ele>
        <time>2014-06-10T12:57:23Z</time>
      </trkpt>
      <trkpt lat="48.64527" lon="-2.32479">
        <ele>56</ele>
        <time>2014-06-10T12:57:25Z</time>
      </trkpt>
      <trkpt lat="48.64528" lon="-2.32483">
        <ele>56</ele>
        <time>2014-06-10T12:57:27Z</time>
      </trkpt>
      <trkpt lat="48.6453" lon="-2.32487">
        <ele>56</ele>
        <time>2014-06-10T12:57:29Z</time>
      </trkpt>
      <trkpt lat="48.64531" lon="-2.3249">
        <ele>56</ele>
        <time>2014-06-10T12:57:31Z</time>
      </trkpt>
      <trkpt lat="48.64532" lon="-2.32493">
        <ele>56</ele>
        <time>2014-06-10T12:57:33Z</time>
      </trkpt>
      <trkpt lat="48.64533" lon="-2.32497">
        <ele>56</ele>
        <time>2014-06-10T12:57:35Z</time>
      </trkpt>
      <trkpt lat="48.64534" lon="-2.32501">
        <ele>56</ele>
        <time>2014-06-10T12:57:37Z</time>
      </trkpt>
      <trkpt lat="48.64536" lon="-2.32505">
        <ele>56</ele>
        <time>2014-06-10T12:57:39Z</time>
      </trkpt>
      <trkpt lat="48.64537" lon="-2.32508">
        <ele>56</ele>
        <time>2014-06-10T12:57:41Z</time>
      </trkpt>
      <trkpt lat="48.64538" lon="-2.32512">
        <ele>56</ele>
        <time>2014-06-10T12:57:43Z</time>
      </trkpt>
      <trkpt lat="48.64539" lon="-2.32516">
        <ele>56</ele>
        <time>2014-06-10T12:57:45Z</time>
      </trkpt>
      <trkpt lat="48.6454" lon="-2.3252">
        <ele>56</ele>
        <time>2014-06-10T12:57:47Z</time>
      </trkpt>
      <trkpt lat="48.64541" lon="-2.32523">
        <ele>56</ele>
        <time>2014-06-10T12:57:49Z</time>
      </trkpt>
      <trkpt lat="48.64542" lon="-2.32527">
        <ele>56</ele>
        <time>2014-06-10T12:57:51Z</time>
      </trkpt>
      <trkpt lat="48.64543" lon="-2.32531">
        <ele>56</ele>
        <time>2014-06-10T12:57:53Z</time>
      </trkpt>
      <trkpt lat="48.64544" lon="-2.32535">
        <ele>56</ele>
        <time>2014-06-10T12:57:55Z</time>
      </trkpt>
      <trkpt lat="48.64545" lon="-2.32539">
        <ele>56</ele>
        <time>2014-06-10T12:57:57Z</time>
      </trkpt>
      <trkpt lat="48.64545" lon="-2.32542">
        <ele>56</ele>
        <time>2014-06-10T12:57:59Z</time>
      </trkpt>
      <trkpt lat="48.64546" lon="-2.32546">
        <ele>56</ele>
        <time>2014-06-10T12:58:01Z</time>
      </trkpt>
      <trkpt lat="48.64547" lon="-2.3255">
        <ele>56</ele>
        <time>2014-06-10T12:58:03Z</time>
      </trkpt>
      <trkpt lat="48.64547" lon="-2.32554">
        <ele>56</ele>
        <time>2014-06-10T12:58:05Z</time>
      </trkpt>
      <trkpt lat="48.64548" lon="-2.32558">
        <ele>56</ele>
        <time>2014-06-10T12:58:07Z</time>
      </trkpt>
      <trkpt lat="48.64549" lon="-2.32562">
        <ele>56</ele>
        <time>2014-06-10T12:58:09Z</time>
      </trkpt>
      <trkpt lat="48.6455" lon="-2.32566">
        <ele>56</ele>
        <time>2014-06-10T12:58:11Z</time>
      </trkpt>
      <trkpt lat="48.6455" lon="-2.32571">
        <ele>56</ele>
        <time>2014-06-10T12:58:13Z</time>
      </trkpt>
      <trkpt lat="48.64551" lon="-2.32575">
        <ele>56</ele>
        <time>2014-06-10T12:58:15Z</time>
      </trkpt>
      <trkpt lat="48.64552" lon="-2.32579">
        <ele>56</ele>
        <time>2014-06-10T12:58:17Z</time>
      </trkpt>
      <trkpt lat="48.64552" lon="-2.32583">
        <ele>56</ele>
        <time>2014-06-10T12:58:19Z</time>
      </trkpt>
      <trkpt lat="48.64553" lon="-2.32587">
        <ele>56</ele>
        <time>2014-06-10T12:58:21Z</time>
      </trkpt>
      <trkpt lat="48.64554" lon="-2.32591">
        <ele>56</ele>
        <time>2014-06-10T12:58:23Z</time>
      </trkpt>
      <trkpt lat="48.64554" lon="-2.32595">
        <ele>56</ele>
        <time>2014-06-10T12:58:25Z</time>
      </trkpt>
      <trkpt lat="48.64555" lon="-2.32599">
        <ele>56</ele>
        <time>2014-06-10T12:58:27Z</time>
      </trkpt>
      <trkpt lat="48.64555" lon="-2.32604">
        <ele>56</ele>
        <time>2014-06-10T12:58:29Z</time>
      </trkpt>
      <trkpt lat="48.64555" lon="-2.32608">
        <ele>56</ele>
        <time>2014-06-10T12:58:31Z</time>
      </trkpt>
      <trkpt lat="48.64555" lon="-2.32612">
        <ele>55</ele>
        <time>2014-06-10T12:58:33Z</time>
      </trkpt>
      <trkpt lat="48.64555" lon="-2.32616">
        <ele>55</ele>
        <time>2014-06-10T12:58:35Z</time>
      </trkpt>
      <trkpt lat="48.64555" lon="-2.3262">
        <ele>54</ele>
        <time>2014-06-10T12:58:37Z</time>
      </trkpt>
      <trkpt lat="48.64554" lon="-2.32624">
        <ele>54</ele>
        <time>2014-06-10T12:58:39Z</time>
      </trkpt>
      <trkpt lat="48.64554" lon="-2.32629">
        <ele>54</ele>
        <time>2014-06-10T12:58:41Z</time>
      </trkpt>
      <trkpt lat="48.64554" lon="-2.32633">
        <ele>53</ele>
        <time>2014-06-10T12:58:43Z</time>
      </trkpt>
      <trkpt lat="48.64555" lon="-2.32638">
        <ele>53</ele>
        <time>2014-06-10T12:58:45Z</time>
      </trkpt>
      <trkpt lat="48.64555" lon="-2.32642">
        <ele>53</ele>
        <time>2014-06-10T12:58:47Z</time>
      </trkpt>
      <trkpt lat="48.64557" lon="-2.32647">
        <ele>53</ele>
        <time>2014-06-10T12:58:49Z</time>
      </trkpt>
      <trkpt lat="48.64558" lon="-2.32651">
        <ele>53</ele>
        <time>2014-06-10T12:58:51Z</time>
      </trkpt>
      <trkpt lat="48.64558" lon="-2.32656">
        <ele>53</ele>
        <time>2014-06-10T12:58:53Z</time>
      </trkpt>
      <trkpt lat="48.64558" lon="-2.3266">
        <ele>53</ele>
        <time>2014-06-10T12:58:55Z</time>
      </trkpt>
      <trkpt lat="48.64558" lon="-2.32665">
        <ele>53</ele>
        <time>2014-06-10T12:58:57Z</time>
      </trkpt>
      <trkpt lat="48.64558" lon="-2.32669">
        <ele>53</ele>
        <time>2014-06-10T12:58:59Z</time>
      </trkpt>
      <trkpt lat="48.64559" lon="-2.32673">
        <ele>53</ele>
        <time>2014-06-10T12:59:01Z</time>
      </trkpt>
      <trkpt lat="48.64559" lon="-2.32677">
        <ele>53</ele>
        <time>2014-06-10T12:59:03Z</time>
      </trkpt>
      <trkpt lat="48.64559" lon="-2.32681">
        <ele>53</ele>
        <time>2014-06-10T12:59:05Z</time>
      </trkpt>
      <trkpt lat="48.64558" lon="-2.32685">
        <ele>53</ele>
        <time>2014-06-10T12:59:07Z</time>
      </trkpt>
      <trkpt lat="48.64558" lon="-2.32689">
        <ele>53</ele>
        <time>2014-06-10T12:59:09Z</time>
      </trkpt>
      <trkpt lat="48.64558" lon="-2.32693">
        <ele>53</ele>
        <time>2014-06-10T12:59:11Z</time>
      </trkpt>
      <trkpt lat="48.64558" lon="-2.32697">
        <ele>53</ele>
        <time>2014-06-10T12:59:13Z</time>
      </trkpt>
      <trkpt lat="48.64558" lon="-2.32701">
        <ele>53</ele>
        <time>2014-06-10T12:59:15Z</time>
      </trkpt>
      <trkpt lat="48.64557" lon="-2.32705">
        <ele>52</ele>
        <time>2014-06-10T12:59:17Z</time>
      </trkpt>
      <trkpt lat="48.64557" lon="-2.32709">
        <ele>52</ele>
        <time>2014-06-10T12:59:19Z</time>
      </trkpt>
      <trkpt lat="48.64556" lon="-2.32712">
        <ele>51</ele>
        <time>2014-06-10T12:59:21Z</time>
      </trkpt>
      <trkpt lat="48.64556" lon="-2.32716">
        <ele>50</ele>
        <time>2014-06-10T12:59:23Z</time>
      </trkpt>
      <trkpt lat="48.64555" lon="-2.3272">
        <ele>50</ele>
        <time>2014-06-10T12:59:25Z</time>
      </trkpt>
      <trkpt lat="48.64555" lon="-2.32724">
        <ele>49</ele>
        <time>2014-06-10T12:59:27Z</time>
      </trkpt>
      <trkpt lat="48.64555" lon="-2.32728">
        <ele>49</ele>
        <time>2014-06-10T12:59:29Z</time>
      </trkpt>
      <trkpt lat="48.64555" lon="-2.32732">
        <ele>48</ele>
        <time>2014-06-10T12:59:31Z</time>
      </trkpt>
      <trkpt lat="48.64555" lon="-2.32736">
        <ele>48</ele>
        <time>2014-06-10T12:59:33Z</time>
      </trkpt>
      <trkpt lat="48.64555" lon="-2.3274">
        <ele>48</ele>
        <time>2014-06-10T12:59:35Z</time>
      </trkpt>
      <trkpt lat="48.64555" lon="-2.32744">
        <ele>48</ele>
        <time>2014-06-10T12:59:37Z</time>
      </trkpt>
      <trkpt lat="48.64557" lon="-2.32748">
        <ele>48</ele>
        <time>2014-06-10T12:59:39Z</time>
      </trkpt>
      <trkpt lat="48.64557" lon="-2.32752">
        <ele>48</ele>
        <time>2014-06-10T12:59:41Z</time>
      </trkpt>
      <trkpt lat="48.64557" lon="-2.32756">
        <ele>48</ele>
        <time>2014-06-10T12:59:43Z</time>
      </trkpt>
      <trkpt lat="48.64558" lon="-2.3276">
        <ele>48</ele>
        <time>2014-06-10T12:59:45Z</time>
      </trkpt>
      <trkpt lat="48.64558" lon="-2.32765">
        <ele>48</ele>
        <time>2014-06-10T12:59:47Z</time>
      </trkpt>
      <trkpt lat="48.64558" lon="-2.32769">
        <ele>48</ele>
        <time>2014-06-10T12:59:49Z</time>
      </trkpt>
      <trkpt lat="48.64558" lon="-2.32773">
        <ele>48</ele>
        <time>2014-06-10T12:59:51Z</time>
      </trkpt>
      <trkpt lat="48.64558" lon="-2.32776">
        <ele>48</ele>
        <time>2014-06-10T12:59:53Z</time>
      </trkpt>
      <trkpt lat="48.64558" lon="-2.32781">
        <ele>48</ele>
        <time>2014-06-10T12:59:55Z</time>
      </trkpt>
      <trkpt lat="48.64558" lon="-2.32785">
        <ele>48</ele>
        <time>2014-06-10T12:59:57Z</time>
      </trkpt>
      <trkpt lat="48.64558" lon="-2.32789">
        <ele>48</ele>
        <time>2014-06-10T12:59:59Z</time>
      </trkpt>
      <trkpt lat="48.64558" lon="-2.32793">
        <ele>48</ele>
        <time>2014-06-10T13:00:01Z</time>
      </trkpt>
      <trkpt lat="48.64558" lon="-2.32797">
        <ele>48</ele>
        <time>2014-06-10T13:00:03Z</time>
      </trkpt>
      <trkpt lat="48.64557" lon="-2.32801">
        <ele>47</ele>
        <time>2014-06-10T13:00:05Z</time>
      </trkpt>
      <trkpt lat="48.64557" lon="-2.32806">
        <ele>47</ele>
        <time>2014-06-10T13:00:07Z</time>
      </trkpt>
      <trkpt lat="48.64557" lon="-2.3281">
        <ele>47</ele>
        <time>2014-06-10T13:00:09Z</time>
      </trkpt>
      <trkpt lat="48.6456" lon="-2.32816">
        <ele>47</ele>
        <time>2014-06-10T13:00:11Z</time>
      </trkpt>
      <trkpt lat="48.6456" lon="-2.3282">
        <ele>47</ele>
        <time>2014-06-10T13:00:13Z</time>
      </trkpt>
      <trkpt lat="48.64559" lon="-2.32824">
        <ele>47</ele>
        <time>2014-06-10T13:00:15Z</time>
      </trkpt>
      <trkpt lat="48.6456" lon="-2.32828">
        <ele>47</ele>
        <time>2014-06-10T13:00:17Z</time>
      </trkpt>
      <trkpt lat="48.6456" lon="-2.32833">
        <ele>47</ele>
        <time>2014-06-10T13:00:19Z</time>
      </trkpt>
      <trkpt lat="48.6456" lon="-2.32837">
        <ele>47</ele>
        <time>2014-06-10T13:00:21Z</time>
      </trkpt>
      <trkpt lat="48.6456" lon="-2.32841">
        <ele>47</ele>
        <time>2014-06-10T13:00:23Z</time>
      </trkpt>
      <trkpt lat="48.6456" lon="-2.32845">
        <ele>47</ele>
        <time>2014-06-10T13:00:25Z</time>
      </trkpt>
      <trkpt lat="48.6456" lon="-2.32849">
        <ele>47</ele>
        <time>2014-06-10T13:00:27Z</time>
      </trkpt>
      <trkpt lat="48.6456" lon="-2.32853">
        <ele>47</ele>
        <time>2014-06-10T13:00:29Z</time>
      </trkpt>
      <trkpt lat="48.6456" lon="-2.32857">
        <ele>47</ele>
        <time>2014-06-10T13:00:31Z</time>
      </trkpt>
      <trkpt lat="48.6456" lon="-2.32861">
        <ele>47</ele>
        <time>2014-06-10T13:00:33Z</time>
      </trkpt>
      <trkpt lat="48.64559" lon="-2.32865">
        <ele>47</ele>
        <time>2014-06-10T13:00:35Z</time>
      </trkpt>
      <trkpt lat="48.64559" lon="-2.32869">
        <ele>47</ele>
        <time>2014-06-10T13:00:37Z</time>
      </trkpt>
      <trkpt lat="48.64559" lon="-2.32874">
        <ele>47</ele>
        <time>2014-06-10T13:00:39Z</time>
      </trkpt>
      <trkpt lat="48.64558" lon="-2.32877">
        <ele>46</ele>
        <time>2014-06-10T13:00:41Z</time>
      </trkpt>
      <trkpt lat="48.64558" lon="-2.32881">
        <ele>46</ele>
        <time>2014-06-10T13:00:43Z</time>
      </trkpt>
      <trkpt lat="48.64558" lon="-2.32885">
        <ele>46</ele>
        <time>2014-06-10T13:00:45Z</time>
      </trkpt>
      <trkpt lat="48.64558" lon="-2.32889">
        <ele>45</ele>
        <time>2014-06-10T13:00:47Z</time>
      </trkpt>
      <trkpt lat="48.64558" lon="-2.32894">
        <ele>45</ele>
        <time>2014-06-10T13:00:49Z</time>
      </trkpt>
      <trkpt lat="48.64558" lon="-2.32898">
        <ele>45</ele>
        <time>2014-06-10T13:00:51Z</time>
      </trkpt>
      <trkpt lat="48.64558" lon="-2.32902">
        <ele>45</ele>
        <time>2014-06-10T13:00:53Z</time>
      </trkpt>
      <trkpt lat="48.64558" lon="-2.32906">
        <ele>45</ele>
        <time>2014-06-10T13:00:55Z</time>
      </trkpt>
      <trkpt lat="48.64558" lon="-2.3291">
        <ele>45</ele>
        <time>2014-06-10T13:00:57Z</time>
      </trkpt>
      <trkpt lat="48.64558" lon="-2.32914">
        <ele>45</ele>
        <time>2014-06-10T13:00:59Z</time>
      </trkpt>
      <trkpt lat="48.64558" lon="-2.32919">
        <ele>45</ele>
        <time>2014-06-10T13:01:01Z</time>
      </trkpt>
      <trkpt lat="48.64559" lon="-2.32923">
        <ele>44</ele>
        <time>2014-06-10T13:01:03Z</time>
      </trkpt>
      <trkpt lat="48.64558" lon="-2.32927">
        <ele>44</ele>
        <time>2014-06-10T13:01:05Z</time>
      </trkpt>
      <trkpt lat="48.64561" lon="-2.32932">
        <ele>44</ele>
        <time>2014-06-10T13:01:07Z</time>
      </trkpt>
      <trkpt lat="48.64564" lon="-2.32938">
        <ele>44</ele>
        <time>2014-06-10T13:01:09Z</time>
      </trkpt>
      <trkpt lat="48.64566" lon="-2.32944">
        <ele>44</ele>
        <time>2014-06-10T13:01:11Z</time>
      </trkpt>
      <trkpt lat="48.64568" lon="-2.32949">
        <ele>44</ele>
        <time>2014-06-10T13:01:13Z</time>
      </trkpt>
      <trkpt lat="48.64568" lon="-2.32954">
        <ele>45</ele>
        <time>2014-06-10T13:01:15Z</time>
      </trkpt>
      <trkpt lat="48.64567" lon="-2.32958">
        <ele>46</ele>
        <time>2014-06-10T13:01:17Z</time>
      </trkpt>
      <trkpt lat="48.64567" lon="-2.32963">
        <ele>46</ele>
        <time>2014-06-10T13:01:19Z</time>
      </trkpt>
      <trkpt lat="48.64567" lon="-2.32967">
        <ele>46</ele>
        <time>2014-06-10T13:01:21Z</time>
      </trkpt>
      <trkpt lat="48.64567" lon="-2.32972">
        <ele>46</ele>
        <time>2014-06-10T13:01:23Z</time>
      </trkpt>
      <trkpt lat="48.64567" lon="-2.32977">
        <ele>46</ele>
        <time>2014-06-10T13:01:25Z</time>
      </trkpt>
      <trkpt lat="48.64567" lon="-2.32981">
        <ele>47</ele>
        <time>2014-06-10T13:01:27Z</time>
      </trkpt>
      <trkpt lat="48.64568" lon="-2.32986">
        <ele>47</ele>
        <time>2014-06-10T13:01:29Z</time>
      </trkpt>
      <trkpt lat="48.64568" lon="-2.32991">
        <ele>48</ele>
        <time>2014-06-10T13:01:31Z</time>
      </trkpt>
      <trkpt lat="48.64568" lon="-2.32995">
        <ele>48</ele>
        <time>2014-06-10T13:01:33Z</time>
      </trkpt>
      <trkpt lat="48.64567" lon="-2.32999">
        <ele>48</ele>
        <time>2014-06-10T13:01:35Z</time>
      </trkpt>
      <trkpt lat="48.64566" lon="-2.33004">
        <ele>48</ele>
        <time>2014-06-10T13:01:37Z</time>
      </trkpt>
      <trkpt lat="48.64566" lon="-2.33009">
        <ele>48</ele>
        <time>2014-06-10T13:01:39Z</time>
      </trkpt>
      <trkpt lat="48.64566" lon="-2.33013">
        <ele>48</ele>
        <time>2014-06-10T13:01:41Z</time>
      </trkpt>
      <trkpt lat="48.64566" lon="-2.33017">
        <ele>48</ele>
        <time>2014-06-10T13:01:43Z</time>
      </trkpt>
      <trkpt lat="48.64565" lon="-2.33022">
        <ele>48</ele>
        <time>2014-06-10T13:01:45Z</time>
      </trkpt>
      <trkpt lat="48.64564" lon="-2.33026">
        <ele>48</ele>
        <time>2014-06-10T13:01:47Z</time>
      </trkpt>
      <trkpt lat="48.64564" lon="-2.33031">
        <ele>48</ele>
        <time>2014-06-10T13:01:49Z</time>
      </trkpt>
      <trkpt lat="48.64563" lon="-2.33035">
        <ele>48</ele>
        <time>2014-06-10T13:01:51Z</time>
      </trkpt>
      <trkpt lat="48.64563" lon="-2.3304">
        <ele>48</ele>
        <time>2014-06-10T13:01:53Z</time>
      </trkpt>
      <trkpt lat="48.64563" lon="-2.33044">
        <ele>48</ele>
        <time>2014-06-10T13:01:55Z</time>
      </trkpt>
      <trkpt lat="48.64563" lon="-2.33049">
        <ele>48</ele>
        <time>2014-06-10T13:01:57Z</time>
      </trkpt>
      <trkpt lat="48.64563" lon="-2.33053">
        <ele>48</ele>
        <time>2014-06-10T13:01:59Z</time>
      </trkpt>
      <trkpt lat="48.64562" lon="-2.33058">
        <ele>48</ele>
        <time>2014-06-10T13:02:01Z</time>
      </trkpt>
      <trkpt lat="48.64561" lon="-2.33062">
        <ele>49</ele>
        <time>2014-06-10T13:02:03Z</time>
      </trkpt>
      <trkpt lat="48.6456" lon="-2.33066">
        <ele>49</ele>
        <time>2014-06-10T13:02:05Z</time>
      </trkpt>
      <trkpt lat="48.64559" lon="-2.3307">
        <ele>49</ele>
        <time>2014-06-10T13:02:07Z</time>
      </trkpt>
      <trkpt lat="48.64559" lon="-2.33074">
        <ele>49</ele>
        <time>2014-06-10T13:02:09Z</time>
      </trkpt>
      <trkpt lat="48.64557" lon="-2.33078">
        <ele>49</ele>
        <time>2014-06-10T13:02:11Z</time>
      </trkpt>
      <trkpt lat="48.64556" lon="-2.33082">
        <ele>49</ele>
        <time>2014-06-10T13:02:13Z</time>
      </trkpt>
      <trkpt lat="48.64556" lon="-2.33086">
        <ele>49</ele>
        <time>2014-06-10T13:02:15Z</time>
      </trkpt>
      <trkpt lat="48.64555" lon="-2.3309">
        <ele>49</ele>
        <time>2014-06-10T13:02:17Z</time>
      </trkpt>
      <trkpt lat="48.64553" lon="-2.33094">
        <ele>49</ele>
        <time>2014-06-10T13:02:19Z</time>
      </trkpt>
      <trkpt lat="48.64553" lon="-2.33098">
        <ele>49</ele>
        <time>2014-06-10T13:02:21Z</time>
      </trkpt>
      <trkpt lat="48.64551" lon="-2.33102">
        <ele>49</ele>
        <time>2014-06-10T13:02:23Z</time>
      </trkpt>
      <trkpt lat="48.6455" lon="-2.33106">
        <ele>49</ele>
        <time>2014-06-10T13:02:25Z</time>
      </trkpt>
      <trkpt lat="48.64549" lon="-2.3311">
        <ele>49</ele>
        <time>2014-06-10T13:02:27Z</time>
      </trkpt>
      <trkpt lat="48.64548" lon="-2.33114">
        <ele>49</ele>
        <time>2014-06-10T13:02:29Z</time>
      </trkpt>
      <trkpt lat="48.64546" lon="-2.33118">
        <ele>49</ele>
        <time>2014-06-10T13:02:31Z</time>
      </trkpt>
      <trkpt lat="48.64545" lon="-2.33122">
        <ele>49</ele>
        <time>2014-06-10T13:02:33Z</time>
      </trkpt>
      <trkpt lat="48.64543" lon="-2.33125">
        <ele>49</ele>
        <time>2014-06-10T13:02:35Z</time>
      </trkpt>
      <trkpt lat="48.64542" lon="-2.33128">
        <ele>49</ele>
        <time>2014-06-10T13:02:37Z</time>
      </trkpt>
      <trkpt lat="48.6454" lon="-2.33132">
        <ele>49</ele>
        <time>2014-06-10T13:02:39Z</time>
      </trkpt>
      <trkpt lat="48.64539" lon="-2.33136">
        <ele>49</ele>
        <time>2014-06-10T13:02:41Z</time>
      </trkpt>
      <trkpt lat="48.64537" lon="-2.33139">
        <ele>49</ele>
        <time>2014-06-10T13:02:43Z</time>
      </trkpt>
      <trkpt lat="48.64536" lon="-2.33142">
        <ele>49</ele>
        <time>2014-06-10T13:02:45Z</time>
      </trkpt>
      <trkpt lat="48.64534" lon="-2.33146">
        <ele>49</ele>
        <time>2014-06-10T13:02:47Z</time>
      </trkpt>
      <trkpt lat="48.64532" lon="-2.33149">
        <ele>49</ele>
        <time>2014-06-10T13:02:49Z</time>
      </trkpt>
      <trkpt lat="48.6453" lon="-2.33153">
        <ele>49</ele>
        <time>2014-06-10T13:02:51Z</time>
      </trkpt>
      <trkpt lat="48.64528" lon="-2.33156">
        <ele>49</ele>
        <time>2014-06-10T13:02:53Z</time>
      </trkpt>
      <trkpt lat="48.64526" lon="-2.33161">
        <ele>49</ele>
        <time>2014-06-10T13:02:56Z</time>
      </trkpt>
      <trkpt lat="48.64523" lon="-2.33166">
        <ele>49</ele>
        <time>2014-06-10T13:02:59Z</time>
      </trkpt>
      <trkpt lat="48.64521" lon="-2.3317">
        <ele>49</ele>
        <time>2014-06-10T13:03:01Z</time>
      </trkpt>
      <trkpt lat="48.64519" lon="-2.33173">
        <ele>49</ele>
        <time>2014-06-10T13:03:03Z</time>
      </trkpt>
      <trkpt lat="48.64517" lon="-2.33176">
        <ele>49</ele>
        <time>2014-06-10T13:03:05Z</time>
      </trkpt>
      <trkpt lat="48.64515" lon="-2.33181">
        <ele>49</ele>
        <time>2014-06-10T13:03:08Z</time>
      </trkpt>
      <trkpt lat="48.64512" lon="-2.33186">
        <ele>49</ele>
        <time>2014-06-10T13:03:11Z</time>
      </trkpt>
      <trkpt lat="48.64511" lon="-2.33189">
        <ele>49</ele>
        <time>2014-06-10T13:03:13Z</time>
      </trkpt>
      <trkpt lat="48.64508" lon="-2.33193">
        <ele>49</ele>
        <time>2014-06-10T13:03:16Z</time>
      </trkpt>
      <trkpt lat="48.64506" lon="-2.33196">
        <ele>49</ele>
        <time>2014-06-10T13:03:18Z</time>
      </trkpt>
      <trkpt lat="48.64504" lon="-2.33198">
        <ele>49</ele>
        <time>2014-06-10T13:03:20Z</time>
      </trkpt>
      <trkpt lat="48.64501" lon="-2.33202">
        <ele>49</ele>
        <time>2014-06-10T13:03:22Z</time>
      </trkpt>
      <trkpt lat="48.645" lon="-2.33206">
        <ele>49</ele>
        <time>2014-06-10T13:03:24Z</time>
      </trkpt>
      <trkpt lat="48.64499" lon="-2.33209">
        <ele>49</ele>
        <time>2014-06-10T13:03:26Z</time>
      </trkpt>
      <trkpt lat="48.64497" lon="-2.33212">
        <ele>49</ele>
        <time>2014-06-10T13:03:28Z</time>
      </trkpt>
      <trkpt lat="48.64495" lon="-2.33215">
        <ele>49</ele>
        <time>2014-06-10T13:03:30Z</time>
      </trkpt>
      <trkpt lat="48.64493" lon="-2.33219">
        <ele>49</ele>
        <time>2014-06-10T13:03:32Z</time>
      </trkpt>
      <trkpt lat="48.64491" lon="-2.33222">
        <ele>49</ele>
        <time>2014-06-10T13:03:34Z</time>
      </trkpt>
      <trkpt lat="48.64489" lon="-2.33225">
        <ele>49</ele>
        <time>2014-06-10T13:03:36Z</time>
      </trkpt>
      <trkpt lat="48.64488" lon="-2.33228">
        <ele>49</ele>
        <time>2014-06-10T13:03:38Z</time>
      </trkpt>
      <trkpt lat="48.64486" lon="-2.33231">
        <ele>49</ele>
        <time>2014-06-10T13:03:40Z</time>
      </trkpt>
      <trkpt lat="48.64484" lon="-2.33235">
        <ele>49</ele>
        <time>2014-06-10T13:03:42Z</time>
      </trkpt>
      <trkpt lat="48.64482" lon="-2.33238">
        <ele>49</ele>
        <time>2014-06-10T13:03:44Z</time>
      </trkpt>
      <trkpt lat="48.6448" lon="-2.33243">
        <ele>49</ele>
        <time>2014-06-10T13:03:47Z</time>
      </trkpt>
      <trkpt lat="48.64478" lon="-2.33247">
        <ele>49</ele>
        <time>2014-06-10T13:03:49Z</time>
      </trkpt>
      <trkpt lat="48.64476" lon="-2.3325">
        <ele>49</ele>
        <time>2014-06-10T13:03:51Z</time>
      </trkpt>
      <trkpt lat="48.64474" lon="-2.33254">
        <ele>49</ele>
        <time>2014-06-10T13:03:54Z</time>
      </trkpt>
      <trkpt lat="48.64474" lon="-2.33255">
        <ele>49</ele>
        <time>2014-06-10T13:04:05Z</time>
      </trkpt>
      <trkpt lat="48.64476" lon="-2.33258">
        <ele>49</ele>
        <time>2014-06-10T13:04:07Z</time>
      </trkpt>
      <trkpt lat="48.64477" lon="-2.33261">
        <ele>49</ele>
        <time>2014-06-10T13:04:09Z</time>
      </trkpt>
      <trkpt lat="48.64478" lon="-2.33265">
        <ele>49</ele>
        <time>2014-06-10T13:04:11Z</time>
      </trkpt>
      <trkpt lat="48.6448" lon="-2.3327">
        <ele>49</ele>
        <time>2014-06-10T13:04:14Z</time>
      </trkpt>
      <trkpt lat="48.64481" lon="-2.33273">
        <ele>49</ele>
        <time>2014-06-10T13:04:16Z</time>
      </trkpt>
      <trkpt lat="48.64483" lon="-2.33276">
        <ele>49</ele>
        <time>2014-06-10T13:04:18Z</time>
      </trkpt>
      <trkpt lat="48.64485" lon="-2.33278">
        <ele>49</ele>
        <time>2014-06-10T13:04:20Z</time>
      </trkpt>
      <trkpt lat="48.64487" lon="-2.33281">
        <ele>49</ele>
        <time>2014-06-10T13:04:22Z</time>
      </trkpt>
      <trkpt lat="48.64489" lon="-2.33284">
        <ele>49</ele>
        <time>2014-06-10T13:04:24Z</time>
      </trkpt>
      <trkpt lat="48.6449" lon="-2.33287">
        <ele>49</ele>
        <time>2014-06-10T13:04:26Z</time>
      </trkpt>
      <trkpt lat="48.64491" lon="-2.33291">
        <ele>49</ele>
        <time>2014-06-10T13:04:28Z</time>
      </trkpt>
      <trkpt lat="48.64494" lon="-2.33295">
        <ele>49</ele>
        <time>2014-06-10T13:04:31Z</time>
      </trkpt>
      <trkpt lat="48.64495" lon="-2.33298">
        <ele>49</ele>
        <time>2014-06-10T13:04:33Z</time>
      </trkpt>
      <trkpt lat="48.64499" lon="-2.33303">
        <ele>49</ele>
        <time>2014-06-10T13:04:36Z</time>
      </trkpt>
      <trkpt lat="48.645" lon="-2.33306">
        <ele>49</ele>
        <time>2014-06-10T13:04:38Z</time>
      </trkpt>
      <trkpt lat="48.64503" lon="-2.3331">
        <ele>49</ele>
        <time>2014-06-10T13:04:40Z</time>
      </trkpt>
      <trkpt lat="48.64505" lon="-2.33314">
        <ele>49</ele>
        <time>2014-06-10T13:04:43Z</time>
      </trkpt>
      <trkpt lat="48.64506" lon="-2.33317">
        <ele>49</ele>
        <time>2014-06-10T13:04:45Z</time>
      </trkpt>
      <trkpt lat="48.64509" lon="-2.33321">
        <ele>49</ele>
        <time>2014-06-10T13:04:48Z</time>
      </trkpt>
      <trkpt lat="48.64513" lon="-2.33325">
        <ele>50</ele>
        <time>2014-06-10T13:04:51Z</time>
      </trkpt>
      <trkpt lat="48.64514" lon="-2.33329">
        <ele>50</ele>
        <time>2014-06-10T13:04:53Z</time>
      </trkpt>
      <trkpt lat="48.64517" lon="-2.33333">
        <ele>50</ele>
        <time>2014-06-10T13:04:56Z</time>
      </trkpt>
      <trkpt lat="48.64519" lon="-2.33336">
        <ele>50</ele>
        <time>2014-06-10T13:04:58Z</time>
      </trkpt>
      <trkpt lat="48.64521" lon="-2.3334">
        <ele>50</ele>
        <time>2014-06-10T13:05:00Z</time>
      </trkpt>
      <trkpt lat="48.64523" lon="-2.33342">
        <ele>50</ele>
        <time>2014-06-10T13:05:02Z</time>
      </trkpt>
      <trkpt lat="48.64525" lon="-2.33344">
        <ele>50</ele>
        <time>2014-06-10T13:05:04Z</time>
      </trkpt>
      <trkpt lat="48.64527" lon="-2.33348">
        <ele>50</ele>
        <time>2014-06-10T13:05:06Z</time>
      </trkpt>
      <trkpt lat="48.64529" lon="-2.3335">
        <ele>50</ele>
        <time>2014-06-10T13:05:08Z</time>
      </trkpt>
      <trkpt lat="48.64532" lon="-2.33354">
        <ele>50</ele>
        <time>2014-06-10T13:05:11Z</time>
      </trkpt>
      <trkpt lat="48.64534" lon="-2.33357">
        <ele>50</ele>
        <time>2014-06-10T13:05:13Z</time>
      </trkpt>
      <trkpt lat="48.64537" lon="-2.33361">
        <ele>50</ele>
        <time>2014-06-10T13:05:16Z</time>
      </trkpt>
      <trkpt lat="48.64539" lon="-2.33362">
        <ele>50</ele>
        <time>2014-06-10T13:05:18Z</time>
      </trkpt>
      <trkpt lat="48.64542" lon="-2.33365">
        <ele>50</ele>
        <time>2014-06-10T13:05:20Z</time>
      </trkpt>
      <trkpt lat="48.64544" lon="-2.33367">
        <ele>50</ele>
        <time>2014-06-10T13:05:22Z</time>
      </trkpt>
      <trkpt lat="48.64547" lon="-2.33371">
        <ele>50</ele>
        <time>2014-06-10T13:05:25Z</time>
      </trkpt>
      <trkpt lat="48.64549" lon="-2.33373">
        <ele>50</ele>
        <time>2014-06-10T13:05:27Z</time>
      </trkpt>
      <trkpt lat="48.64551" lon="-2.33376">
        <ele>50</ele>
        <time>2014-06-10T13:05:29Z</time>
      </trkpt>
      <trkpt lat="48.64554" lon="-2.33378">
        <ele>50</ele>
        <time>2014-06-10T13:05:31Z</time>
      </trkpt>
      <trkpt lat="48.64557" lon="-2.33381">
        <ele>50</ele>
        <time>2014-06-10T13:05:33Z</time>
      </trkpt>
      <trkpt lat="48.64559" lon="-2.33383">
        <ele>50</ele>
        <time>2014-06-10T13:05:35Z</time>
      </trkpt>
      <trkpt lat="48.64561" lon="-2.33385">
        <ele>50</ele>
        <time>2014-06-10T13:05:37Z</time>
      </trkpt>
      <trkpt lat="48.64564" lon="-2.33387">
        <ele>50</ele>
        <time>2014-06-10T13:05:39Z</time>
      </trkpt>
      <trkpt lat="48.64566" lon="-2.3339">
        <ele>50</ele>
        <time>2014-06-10T13:05:41Z</time>
      </trkpt>
      <trkpt lat="48.64568" lon="-2.33392">
        <ele>50</ele>
        <time>2014-06-10T13:05:43Z</time>
      </trkpt>
      <trkpt lat="48.64571" lon="-2.33395">
        <ele>50</ele>
        <time>2014-06-10T13:05:46Z</time>
      </trkpt>
      <trkpt lat="48.64573" lon="-2.33396">
        <ele>50</ele>
        <time>2014-06-10T13:05:49Z</time>
      </trkpt>
      <trkpt lat="48.64574" lon="-2.33397">
        <ele>50</ele>
        <time>2014-06-10T13:05:51Z</time>
      </trkpt>
      <trkpt lat="48.64576" lon="-2.334">
        <ele>50</ele>
        <time>2014-06-10T13:05:53Z</time>
      </trkpt>
      <trkpt lat="48.64578" lon="-2.33401">
        <ele>50</ele>
        <time>2014-06-10T13:05:55Z</time>
      </trkpt>
      <trkpt lat="48.6458" lon="-2.33403">
        <ele>50</ele>
        <time>2014-06-10T13:05:57Z</time>
      </trkpt>
      <trkpt lat="48.64582" lon="-2.33406">
        <ele>50</ele>
        <time>2014-06-10T13:05:59Z</time>
      </trkpt>
      <trkpt lat="48.64585" lon="-2.3341">
        <ele>50</ele>
        <time>2014-06-10T13:06:02Z</time>
      </trkpt>
      <trkpt lat="48.64587" lon="-2.33413">
        <ele>50</ele>
        <time>2014-06-10T13:06:04Z</time>
      </trkpt>
      <trkpt lat="48.64589" lon="-2.33415">
        <ele>50</ele>
        <time>2014-06-10T13:06:06Z</time>
      </trkpt>
      <trkpt lat="48.64591" lon="-2.33418">
        <ele>50</ele>
        <time>2014-06-10T13:06:08Z</time>
      </trkpt>
      <trkpt lat="48.64593" lon="-2.3342">
        <ele>50</ele>
        <time>2014-06-10T13:06:10Z</time>
      </trkpt>
      <trkpt lat="48.64595" lon="-2.33423">
        <ele>50</ele>
        <time>2014-06-10T13:06:12Z</time>
      </trkpt>
      <trkpt lat="48.64597" lon="-2.33426">
        <ele>50</ele>
        <time>2014-06-10T13:06:14Z</time>
      </trkpt>
      <trkpt lat="48.64599" lon="-2.33428">
        <ele>50</ele>
        <time>2014-06-10T13:06:16Z</time>
      </trkpt>
      <trkpt lat="48.64601" lon="-2.33431">
        <ele>50</ele>
        <time>2014-06-10T13:06:18Z</time>
      </trkpt>
      <trkpt lat="48.64604" lon="-2.33435">
        <ele>50</ele>
        <time>2014-06-10T13:06:21Z</time>
      </trkpt>
      <trkpt lat="48.64607" lon="-2.33439">
        <ele>50</ele>
        <time>2014-06-10T13:06:24Z</time>
      </trkpt>
      <trkpt lat="48.64609" lon="-2.33442">
        <ele>50</ele>
        <time>2014-06-10T13:06:26Z</time>
      </trkpt>
      <trkpt lat="48.64611" lon="-2.33445">
        <ele>50</ele>
        <time>2014-06-10T13:06:28Z</time>
      </trkpt>
      <trkpt lat="48.64614" lon="-2.33448">
        <ele>50</ele>
        <time>2014-06-10T13:06:30Z</time>
      </trkpt>
      <trkpt lat="48.64617" lon="-2.33451">
        <ele>50</ele>
        <time>2014-06-10T13:06:32Z</time>
      </trkpt>
      <trkpt lat="48.64619" lon="-2.33453">
        <ele>50</ele>
        <time>2014-06-10T13:06:34Z</time>
      </trkpt>
      <trkpt lat="48.64622" lon="-2.33457">
        <ele>50</ele>
        <time>2014-06-10T13:06:37Z</time>
      </trkpt>
      <trkpt lat="48.64623" lon="-2.3346">
        <ele>50</ele>
        <time>2014-06-10T13:06:39Z</time>
      </trkpt>
      <trkpt lat="48.64625" lon="-2.33464">
        <ele>50</ele>
        <time>2014-06-10T13:06:41Z</time>
      </trkpt>
      <trkpt lat="48.64627" lon="-2.33467">
        <ele>50</ele>
        <time>2014-06-10T13:06:43Z</time>
      </trkpt>
      <trkpt lat="48.6463" lon="-2.33469">
        <ele>51</ele>
        <time>2014-06-10T13:06:45Z</time>
      </trkpt>
      <trkpt lat="48.64632" lon="-2.33472">
        <ele>51</ele>
        <time>2014-06-10T13:06:47Z</time>
      </trkpt>
      <trkpt lat="48.64634" lon="-2.33475">
        <ele>51</ele>
        <time>2014-06-10T13:06:49Z</time>
      </trkpt>
      <trkpt lat="48.64637" lon="-2.33479">
        <ele>51</ele>
        <time>2014-06-10T13:06:52Z</time>
      </trkpt>
      <trkpt lat="48.64639" lon="-2.33481">
        <ele>51</ele>
        <time>2014-06-10T13:06:54Z</time>
      </trkpt>
      <trkpt lat="48.6464" lon="-2.33484">
        <ele>51</ele>
        <time>2014-06-10T13:06:56Z</time>
      </trkpt>
      <trkpt lat="48.64642" lon="-2.33487">
        <ele>51</ele>
        <time>2014-06-10T13:06:58Z</time>
      </trkpt>
      <trkpt lat="48.64646" lon="-2.3349">
        <ele>51</ele>
        <time>2014-06-10T13:07:00Z</time>
      </trkpt>
      <trkpt lat="48.64649" lon="-2.33493">
        <ele>51</ele>
        <time>2014-06-10T13:07:02Z</time>
      </trkpt>
      <trkpt lat="48.64652" lon="-2.33496">
        <ele>51</ele>
        <time>2014-06-10T13:07:04Z</time>
      </trkpt>
      <trkpt lat="48.64655" lon="-2.33501">
        <ele>51</ele>
        <time>2014-06-10T13:07:07Z</time>
      </trkpt>
      <trkpt lat="48.64657" lon="-2.33504">
        <ele>51</ele>
        <time>2014-06-10T13:07:09Z</time>
      </trkpt>
      <trkpt lat="48.6466" lon="-2.33506">
        <ele>51</ele>
        <time>2014-06-10T13:07:11Z</time>
      </trkpt>
      <trkpt lat="48.64663" lon="-2.3351">
        <ele>51</ele>
        <time>2014-06-10T13:07:14Z</time>
      </trkpt>
      <trkpt lat="48.64665" lon="-2.33512">
        <ele>51</ele>
        <time>2014-06-10T13:07:16Z</time>
      </trkpt>
      <trkpt lat="48.64667" lon="-2.33515">
        <ele>51</ele>
        <time>2014-06-10T13:07:18Z</time>
      </trkpt>
      <trkpt lat="48.64669" lon="-2.33517">
        <ele>51</ele>
        <time>2014-06-10T13:07:20Z</time>
      </trkpt>
      <trkpt lat="48.64671" lon="-2.33519">
        <ele>51</ele>
        <time>2014-06-10T13:07:22Z</time>
      </trkpt>
      <trkpt lat="48.64674" lon="-2.33521">
        <ele>51</ele>
        <time>2014-06-10T13:07:24Z</time>
      </trkpt>
      <trkpt lat="48.64676" lon="-2.33523">
        <ele>51</ele>
        <time>2014-06-10T13:07:26Z</time>
      </trkpt>
      <trkpt lat="48.64679" lon="-2.33524">
        <ele>51</ele>
        <time>2014-06-10T13:07:28Z</time>
      </trkpt>
      <trkpt lat="48.64682" lon="-2.33526">
        <ele>51</ele>
        <time>2014-06-10T13:07:30Z</time>
      </trkpt>
      <trkpt lat="48.64685" lon="-2.33527">
        <ele>51</ele>
        <time>2014-06-10T13:07:32Z</time>
      </trkpt>
      <trkpt lat="48.64687" lon="-2.33529">
        <ele>51</ele>
        <time>2014-06-10T13:07:34Z</time>
      </trkpt>
      <trkpt lat="48.6469" lon="-2.3353">
        <ele>51</ele>
        <time>2014-06-10T13:07:36Z</time>
      </trkpt>
      <trkpt lat="48.64693" lon="-2.33532">
        <ele>51</ele>
        <time>2014-06-10T13:07:38Z</time>
      </trkpt>
      <trkpt lat="48.64695" lon="-2.33534">
        <ele>51</ele>
        <time>2014-06-10T13:07:40Z</time>
      </trkpt>
      <trkpt lat="48.64697" lon="-2.33535">
        <ele>51</ele>
        <time>2014-06-10T13:07:42Z</time>
      </trkpt>
      <trkpt lat="48.647" lon="-2.33537">
        <ele>51</ele>
        <time>2014-06-10T13:07:44Z</time>
      </trkpt>
      <trkpt lat="48.64703" lon="-2.33538">
        <ele>51</ele>
        <time>2014-06-10T13:07:46Z</time>
      </trkpt>
      <trkpt lat="48.64706" lon="-2.33539">
        <ele>51</ele>
        <time>2014-06-10T13:07:48Z</time>
      </trkpt>
      <trkpt lat="48.64708" lon="-2.33541">
        <ele>51</ele>
        <time>2014-06-10T13:07:50Z</time>
      </trkpt>
      <trkpt lat="48.64711" lon="-2.33542">
        <ele>51</ele>
        <time>2014-06-10T13:07:52Z</time>
      </trkpt>
      <trkpt lat="48.64714" lon="-2.33543">
        <ele>51</ele>
        <time>2014-06-10T13:07:54Z</time>
      </trkpt>
      <trkpt lat="48.64716" lon="-2.33544">
        <ele>51</ele>
        <time>2014-06-10T13:07:56Z</time>
      </trkpt>
      <trkpt lat="48.64719" lon="-2.33545">
        <ele>51</ele>
        <time>2014-06-10T13:07:58Z</time>
      </trkpt>
      <trkpt lat="48.64722" lon="-2.33546">
        <ele>51</ele>
        <time>2014-06-10T13:08:00Z</time>
      </trkpt>
      <trkpt lat="48.64724" lon="-2.33547">
        <ele>51</ele>
        <time>2014-06-10T13:08:02Z</time>
      </trkpt>
      <trkpt lat="48.64727" lon="-2.33548">
        <ele>51</ele>
        <time>2014-06-10T13:08:04Z</time>
      </trkpt>
      <trkpt lat="48.6473" lon="-2.33548">
        <ele>51</ele>
        <time>2014-06-10T13:08:06Z</time>
      </trkpt>
      <trkpt lat="48.64732" lon="-2.3355">
        <ele>51</ele>
        <time>2014-06-10T13:08:08Z</time>
      </trkpt>
      <trkpt lat="48.64735" lon="-2.3355">
        <ele>51</ele>
        <time>2014-06-10T13:08:10Z</time>
      </trkpt>
      <trkpt lat="48.64738" lon="-2.33551">
        <ele>51</ele>
        <time>2014-06-10T13:08:12Z</time>
      </trkpt>
      <trkpt lat="48.6474" lon="-2.33551">
        <ele>51</ele>
        <time>2014-06-10T13:08:14Z</time>
      </trkpt>
      <trkpt lat="48.64743" lon="-2.33551">
        <ele>51</ele>
        <time>2014-06-10T13:08:16Z</time>
      </trkpt>
      <trkpt lat="48.64746" lon="-2.33552">
        <ele>51</ele>
        <time>2014-06-10T13:08:18Z</time>
      </trkpt>
      <trkpt lat="48.64748" lon="-2.33552">
        <ele>51</ele>
        <time>2014-06-10T13:08:20Z</time>
      </trkpt>
      <trkpt lat="48.64751" lon="-2.33553">
        <ele>51</ele>
        <time>2014-06-10T13:08:22Z</time>
      </trkpt>
      <trkpt lat="48.64753" lon="-2.33553">
        <ele>51</ele>
        <time>2014-06-10T13:08:24Z</time>
      </trkpt>
      <trkpt lat="48.64756" lon="-2.33554">
        <ele>51</ele>
        <time>2014-06-10T13:08:26Z</time>
      </trkpt>
      <trkpt lat="48.64759" lon="-2.33555">
        <ele>51</ele>
        <time>2014-06-10T13:08:28Z</time>
      </trkpt>
      <trkpt lat="48.64762" lon="-2.33555">
        <ele>51</ele>
        <time>2014-06-10T13:08:30Z</time>
      </trkpt>
      <trkpt lat="48.64765" lon="-2.33556">
        <ele>51</ele>
        <time>2014-06-10T13:08:32Z</time>
      </trkpt>
      <trkpt lat="48.64767" lon="-2.33557">
        <ele>51</ele>
        <time>2014-06-10T13:08:34Z</time>
      </trkpt>
      <trkpt lat="48.6477" lon="-2.33558">
        <ele>51</ele>
        <time>2014-06-10T13:08:36Z</time>
      </trkpt>
      <trkpt lat="48.64773" lon="-2.3356">
        <ele>51</ele>
        <time>2014-06-10T13:08:38Z</time>
      </trkpt>
      <trkpt lat="48.64776" lon="-2.33561">
        <ele>51</ele>
        <time>2014-06-10T13:08:40Z</time>
      </trkpt>
      <trkpt lat="48.64778" lon="-2.33563">
        <ele>51</ele>
        <time>2014-06-10T13:08:42Z</time>
      </trkpt>
      <trkpt lat="48.64781" lon="-2.33565">
        <ele>51</ele>
        <time>2014-06-10T13:08:44Z</time>
      </trkpt>
      <trkpt lat="48.64783" lon="-2.33566">
        <ele>51</ele>
        <time>2014-06-10T13:08:46Z</time>
      </trkpt>
      <trkpt lat="48.64786" lon="-2.33568">
        <ele>51</ele>
        <time>2014-06-10T13:08:48Z</time>
      </trkpt>
      <trkpt lat="48.64788" lon="-2.3357">
        <ele>51</ele>
        <time>2014-06-10T13:08:50Z</time>
      </trkpt>
      <trkpt lat="48.64791" lon="-2.33572">
        <ele>51</ele>
        <time>2014-06-10T13:08:52Z</time>
      </trkpt>
      <trkpt lat="48.64793" lon="-2.33573">
        <ele>51</ele>
        <time>2014-06-10T13:08:54Z</time>
      </trkpt>
      <trkpt lat="48.64796" lon="-2.33575">
        <ele>51</ele>
        <time>2014-06-10T13:08:56Z</time>
      </trkpt>
      <trkpt lat="48.64798" lon="-2.33577">
        <ele>51</ele>
        <time>2014-06-10T13:08:58Z</time>
      </trkpt>
      <trkpt lat="48.64801" lon="-2.33578">
        <ele>51</ele>
        <time>2014-06-10T13:09:00Z</time>
      </trkpt>
      <trkpt lat="48.64803" lon="-2.3358">
        <ele>51</ele>
        <time>2014-06-10T13:09:02Z</time>
      </trkpt>
      <trkpt lat="48.64806" lon="-2.33582">
        <ele>51</ele>
        <time>2014-06-10T13:09:04Z</time>
      </trkpt>
      <trkpt lat="48.64808" lon="-2.33583">
        <ele>51</ele>
        <time>2014-06-10T13:09:06Z</time>
      </trkpt>
      <trkpt lat="48.64811" lon="-2.33586">
        <ele>51</ele>
        <time>2014-06-10T13:09:08Z</time>
      </trkpt>
      <trkpt lat="48.64813" lon="-2.33587">
        <ele>51</ele>
        <time>2014-06-10T13:09:10Z</time>
      </trkpt>
      <trkpt lat="48.64816" lon="-2.33589">
        <ele>51</ele>
        <time>2014-06-10T13:09:12Z</time>
      </trkpt>
      <trkpt lat="48.64818" lon="-2.33591">
        <ele>51</ele>
        <time>2014-06-10T13:09:14Z</time>
      </trkpt>
      <trkpt lat="48.64821" lon="-2.33592">
        <ele>51</ele>
        <time>2014-06-10T13:09:16Z</time>
      </trkpt>
      <trkpt lat="48.64823" lon="-2.33593">
        <ele>51</ele>
        <time>2014-06-10T13:09:18Z</time>
      </trkpt>
      <trkpt lat="48.64826" lon="-2.33595">
        <ele>51</ele>
        <time>2014-06-10T13:09:20Z</time>
      </trkpt>
      <trkpt lat="48.64828" lon="-2.33597">
        <ele>51</ele>
        <time>2014-06-10T13:09:22Z</time>
      </trkpt>
      <trkpt lat="48.64832" lon="-2.336">
        <ele>51</ele>
        <time>2014-06-10T13:09:25Z</time>
      </trkpt>
      <trkpt lat="48.64835" lon="-2.33603">
        <ele>51</ele>
        <time>2014-06-10T13:09:28Z</time>
      </trkpt>
      <trkpt lat="48.64837" lon="-2.33605">
        <ele>51</ele>
        <time>2014-06-10T13:09:30Z</time>
      </trkpt>
      <trkpt lat="48.6484" lon="-2.33609">
        <ele>51</ele>
        <time>2014-06-10T13:09:33Z</time>
      </trkpt>
      <trkpt lat="48.64842" lon="-2.33611">
        <ele>51</ele>
        <time>2014-06-10T13:09:35Z</time>
      </trkpt>
      <trkpt lat="48.64845" lon="-2.33613">
        <ele>51</ele>
        <time>2014-06-10T13:09:37Z</time>
      </trkpt>
      <trkpt lat="48.64847" lon="-2.33616">
        <ele>51</ele>
        <time>2014-06-10T13:09:39Z</time>
      </trkpt>
      <trkpt lat="48.64851" lon="-2.3362">
        <ele>51</ele>
        <time>2014-06-10T13:09:42Z</time>
      </trkpt>
      <trkpt lat="48.64854" lon="-2.33624">
        <ele>51</ele>
        <time>2014-06-10T13:09:45Z</time>
      </trkpt>
      <trkpt lat="48.64857" lon="-2.33628">
        <ele>51</ele>
        <time>2014-06-10T13:09:48Z</time>
      </trkpt>
      <trkpt lat="48.64859" lon="-2.3363">
        <ele>51</ele>
        <time>2014-06-10T13:09:50Z</time>
      </trkpt>
      <trkpt lat="48.64862" lon="-2.33632">
        <ele>51</ele>
        <time>2014-06-10T13:09:52Z</time>
      </trkpt>
      <trkpt lat="48.64864" lon="-2.33633">
        <ele>51</ele>
        <time>2014-06-10T13:09:54Z</time>
      </trkpt>
      <trkpt lat="48.64867" lon="-2.33635">
        <ele>51</ele>
        <time>2014-06-10T13:09:56Z</time>
      </trkpt>
      <trkpt lat="48.64871" lon="-2.33637">
        <ele>51</ele>
        <time>2014-06-10T13:09:59Z</time>
      </trkpt>
      <trkpt lat="48.64874" lon="-2.33637">
        <ele>51</ele>
        <time>2014-06-10T13:10:01Z</time>
      </trkpt>
      <trkpt lat="48.64876" lon="-2.33638">
        <ele>51</ele>
        <time>2014-06-10T13:10:03Z</time>
      </trkpt>
      <trkpt lat="48.64877" lon="-2.33639">
        <ele>51</ele>
        <time>2014-06-10T13:10:05Z</time>
      </trkpt>
      <trkpt lat="48.6488" lon="-2.33638">
        <ele>51</ele>
        <time>2014-06-10T13:10:07Z</time>
      </trkpt>
      <trkpt lat="48.64883" lon="-2.33635">
        <ele>51</ele>
        <time>2014-06-10T13:10:10Z</time>
      </trkpt>
      <trkpt lat="48.64885" lon="-2.33633">
        <ele>51</ele>
        <time>2014-06-10T13:10:12Z</time>
      </trkpt>
      <trkpt lat="48.64887" lon="-2.33631">
        <ele>51</ele>
        <time>2014-06-10T13:10:14Z</time>
      </trkpt>
      <trkpt lat="48.64889" lon="-2.33629">
        <ele>51</ele>
        <time>2014-06-10T13:10:16Z</time>
      </trkpt>
      <trkpt lat="48.64892" lon="-2.33627">
        <ele>51</ele>
        <time>2014-06-10T13:10:18Z</time>
      </trkpt>
      <trkpt lat="48.64895" lon="-2.33626">
        <ele>51</ele>
        <time>2014-06-10T13:10:20Z</time>
      </trkpt>
      <trkpt lat="48.64898" lon="-2.33625">
        <ele>51</ele>
        <time>2014-06-10T13:10:22Z</time>
      </trkpt>
      <trkpt lat="48.64901" lon="-2.33623">
        <ele>51</ele>
        <time>2014-06-10T13:10:24Z</time>
      </trkpt>
      <trkpt lat="48.64903" lon="-2.33622">
        <ele>51</ele>
        <time>2014-06-10T13:10:26Z</time>
      </trkpt>
      <trkpt lat="48.64906" lon="-2.3362">
        <ele>51</ele>
        <time>2014-06-10T13:10:28Z</time>
      </trkpt>
      <trkpt lat="48.64908" lon="-2.33618">
        <ele>51</ele>
        <time>2014-06-10T13:10:30Z</time>
      </trkpt>
      <trkpt lat="48.64911" lon="-2.33617">
        <ele>51</ele>
        <time>2014-06-10T13:10:32Z</time>
      </trkpt>
      <trkpt lat="48.64914" lon="-2.33616">
        <ele>51</ele>
        <time>2014-06-10T13:10:34Z</time>
      </trkpt>
      <trkpt lat="48.64917" lon="-2.33614">
        <ele>51</ele>
        <time>2014-06-10T13:10:36Z</time>
      </trkpt>
      <trkpt lat="48.6492" lon="-2.33613">
        <ele>51</ele>
        <time>2014-06-10T13:10:38Z</time>
      </trkpt>
      <trkpt lat="48.64922" lon="-2.33613">
        <ele>51</ele>
        <time>2014-06-10T13:10:40Z</time>
      </trkpt>
      <trkpt lat="48.64925" lon="-2.33613">
        <ele>51</ele>
        <time>2014-06-10T13:10:42Z</time>
      </trkpt>
      <trkpt lat="48.64928" lon="-2.33613">
        <ele>51</ele>
        <time>2014-06-10T13:10:44Z</time>
      </trkpt>
      <trkpt lat="48.64931" lon="-2.33614">
        <ele>51</ele>
        <time>2014-06-10T13:10:46Z</time>
      </trkpt>
      <trkpt lat="48.64933" lon="-2.33615">
        <ele>51</ele>
        <time>2014-06-10T13:10:48Z</time>
      </trkpt>
      <trkpt lat="48.64936" lon="-2.33616">
        <ele>51</ele>
        <time>2014-06-10T13:10:50Z</time>
      </trkpt>
      <trkpt lat="48.64939" lon="-2.33619">
        <ele>51</ele>
        <time>2014-06-10T13:10:52Z</time>
      </trkpt>
      <trkpt lat="48.64942" lon="-2.33622">
        <ele>51</ele>
        <time>2014-06-10T13:10:55Z</time>
      </trkpt>
      <trkpt lat="48.64945" lon="-2.33625">
        <ele>51</ele>
        <time>2014-06-10T13:10:57Z</time>
      </trkpt>
      <trkpt lat="48.64947" lon="-2.33628">
        <ele>51</ele>
        <time>2014-06-10T13:10:59Z</time>
      </trkpt>
      <trkpt lat="48.6495" lon="-2.3363">
        <ele>51</ele>
        <time>2014-06-10T13:11:01Z</time>
      </trkpt>
      <trkpt lat="48.64952" lon="-2.33633">
        <ele>51</ele>
        <time>2014-06-10T13:11:03Z</time>
      </trkpt>
      <trkpt lat="48.64954" lon="-2.33636">
        <ele>51</ele>
        <time>2014-06-10T13:11:05Z</time>
      </trkpt>
      <trkpt lat="48.64956" lon="-2.33639">
        <ele>51</ele>
        <time>2014-06-10T13:11:07Z</time>
      </trkpt>
      <trkpt lat="48.64959" lon="-2.33644">
        <ele>50</ele>
        <time>2014-06-10T13:11:10Z</time>
      </trkpt>
      <trkpt lat="48.64961" lon="-2.33647">
        <ele>50</ele>
        <time>2014-06-10T13:11:12Z</time>
      </trkpt>
      <trkpt lat="48.64962" lon="-2.3365">
        <ele>50</ele>
        <time>2014-06-10T13:11:14Z</time>
      </trkpt>
      <trkpt lat="48.64965" lon="-2.33653">
        <ele>49</ele>
        <time>2014-06-10T13:11:16Z</time>
      </trkpt>
      <trkpt lat="48.64967" lon="-2.33656">
        <ele>49</ele>
        <time>2014-06-10T13:11:18Z</time>
      </trkpt>
      <trkpt lat="48.6497" lon="-2.33661">
        <ele>49</ele>
        <time>2014-06-10T13:11:21Z</time>
      </trkpt>
      <trkpt lat="48.64972" lon="-2.33663">
        <ele>49</ele>
        <time>2014-06-10T13:11:23Z</time>
      </trkpt>
      <trkpt lat="48.64974" lon="-2.33666">
        <ele>49</ele>
        <time>2014-06-10T13:11:25Z</time>
      </trkpt>
      <trkpt lat="48.64975" lon="-2.33669">
        <ele>49</ele>
        <time>2014-06-10T13:11:27Z</time>
      </trkpt>
      <trkpt lat="48.64978" lon="-2.33671">
        <ele>49</ele>
        <time>2014-06-10T13:11:29Z</time>
      </trkpt>
      <trkpt lat="48.64979" lon="-2.33675">
        <ele>49</ele>
        <time>2014-06-10T13:11:31Z</time>
      </trkpt>
      <trkpt lat="48.64982" lon="-2.3368">
        <ele>49</ele>
        <time>2014-06-10T13:11:34Z</time>
      </trkpt>
      <trkpt lat="48.64984" lon="-2.33682">
        <ele>49</ele>
        <time>2014-06-10T13:11:36Z</time>
      </trkpt>
      <trkpt lat="48.64986" lon="-2.33685">
        <ele>49</ele>
        <time>2014-06-10T13:11:38Z</time>
      </trkpt>
      <trkpt lat="48.64988" lon="-2.33687">
        <ele>49</ele>
        <time>2014-06-10T13:11:40Z</time>
      </trkpt>
      <trkpt lat="48.6499" lon="-2.3369">
        <ele>49</ele>
        <time>2014-06-10T13:11:42Z</time>
      </trkpt>
      <trkpt lat="48.64992" lon="-2.33693">
        <ele>49</ele>
        <time>2014-06-10T13:11:44Z</time>
      </trkpt>
      <trkpt lat="48.64994" lon="-2.33695">
        <ele>49</ele>
        <time>2014-06-10T13:11:46Z</time>
      </trkpt>
      <trkpt lat="48.64996" lon="-2.33698">
        <ele>49</ele>
        <time>2014-06-10T13:11:48Z</time>
      </trkpt>
      <trkpt lat="48.64998" lon="-2.337">
        <ele>49</ele>
        <time>2014-06-10T13:11:50Z</time>
      </trkpt>
      <trkpt lat="48.65" lon="-2.33703">
        <ele>48</ele>
        <time>2014-06-10T13:11:52Z</time>
      </trkpt>
      <trkpt lat="48.65002" lon="-2.33707">
        <ele>48</ele>
        <time>2014-06-10T13:11:54Z</time>
      </trkpt>
      <trkpt lat="48.65004" lon="-2.3371">
        <ele>48</ele>
        <time>2014-06-10T13:11:56Z</time>
      </trkpt>
      <trkpt lat="48.65005" lon="-2.33714">
        <ele>48</ele>
        <time>2014-06-10T13:11:58Z</time>
      </trkpt>
      <trkpt lat="48.65006" lon="-2.33718">
        <ele>48</ele>
        <time>2014-06-10T13:12:00Z</time>
      </trkpt>
      <trkpt lat="48.65007" lon="-2.33722">
        <ele>48</ele>
        <time>2014-06-10T13:12:02Z</time>
      </trkpt>
      <trkpt lat="48.65008" lon="-2.33726">
        <ele>48</ele>
        <time>2014-06-10T13:12:04Z</time>
      </trkpt>
      <trkpt lat="48.65008" lon="-2.3373">
        <ele>47</ele>
        <time>2014-06-10T13:12:06Z</time>
      </trkpt>
      <trkpt lat="48.65008" lon="-2.33734">
        <ele>47</ele>
        <time>2014-06-10T13:12:08Z</time>
      </trkpt>
      <trkpt lat="48.65007" lon="-2.33738">
        <ele>47</ele>
        <time>2014-06-10T13:12:10Z</time>
      </trkpt>
      <trkpt lat="48.65007" lon="-2.33742">
        <ele>47</ele>
        <time>2014-06-10T13:12:12Z</time>
      </trkpt>
      <trkpt lat="48.65007" lon="-2.33746">
        <ele>47</ele>
        <time>2014-06-10T13:12:14Z</time>
      </trkpt>
      <trkpt lat="48.65007" lon="-2.3375">
        <ele>47</ele>
        <time>2014-06-10T13:12:16Z</time>
      </trkpt>
      <trkpt lat="48.65006" lon="-2.33754">
        <ele>47</ele>
        <time>2014-06-10T13:12:18Z</time>
      </trkpt>
      <trkpt lat="48.65007" lon="-2.33758">
        <ele>47</ele>
        <time>2014-06-10T13:12:20Z</time>
      </trkpt>
      <trkpt lat="48.65007" lon="-2.33762">
        <ele>47</ele>
        <time>2014-06-10T13:12:22Z</time>
      </trkpt>
      <trkpt lat="48.65007" lon="-2.33766">
        <ele>47</ele>
        <time>2014-06-10T13:12:24Z</time>
      </trkpt>
      <trkpt lat="48.65007" lon="-2.3377">
        <ele>47</ele>
        <time>2014-06-10T13:12:26Z</time>
      </trkpt>
      <trkpt lat="48.65007" lon="-2.33775">
        <ele>47</ele>
        <time>2014-06-10T13:12:28Z</time>
      </trkpt>
      <trkpt lat="48.65007" lon="-2.33779">
        <ele>47</ele>
        <time>2014-06-10T13:12:30Z</time>
      </trkpt>
      <trkpt lat="48.65007" lon="-2.33783">
        <ele>47</ele>
        <time>2014-06-10T13:12:32Z</time>
      </trkpt>
      <trkpt lat="48.65006" lon="-2.33787">
        <ele>47</ele>
        <time>2014-06-10T13:12:34Z</time>
      </trkpt>
      <trkpt lat="48.65005" lon="-2.3379">
        <ele>47</ele>
        <time>2014-06-10T13:12:36Z</time>
      </trkpt>
      <trkpt lat="48.65004" lon="-2.33795">
        <ele>47</ele>
        <time>2014-06-10T13:12:38Z</time>
      </trkpt>
      <trkpt lat="48.65003" lon="-2.33799">
        <ele>47</ele>
        <time>2014-06-10T13:12:40Z</time>
      </trkpt>
      <trkpt lat="48.65002" lon="-2.33802">
        <ele>47</ele>
        <time>2014-06-10T13:12:42Z</time>
      </trkpt>
      <trkpt lat="48.65001" lon="-2.33806">
        <ele>47</ele>
        <time>2014-06-10T13:12:44Z</time>
      </trkpt>
      <trkpt lat="48.65001" lon="-2.3381">
        <ele>47</ele>
        <time>2014-06-10T13:12:46Z</time>
      </trkpt>
      <trkpt lat="48.65" lon="-2.33814">
        <ele>47</ele>
        <time>2014-06-10T13:12:48Z</time>
      </trkpt>
      <trkpt lat="48.64999" lon="-2.33818">
        <ele>47</ele>
        <time>2014-06-10T13:12:50Z</time>
      </trkpt>
      <trkpt lat="48.64999" lon="-2.33822">
        <ele>47</ele>
        <time>2014-06-10T13:12:52Z</time>
      </trkpt>
      <trkpt lat="48.64998" lon="-2.33827">
        <ele>46</ele>
        <time>2014-06-10T13:12:54Z</time>
      </trkpt>
      <trkpt lat="48.64997" lon="-2.3383">
        <ele>46</ele>
        <time>2014-06-10T13:12:56Z</time>
      </trkpt>
      <trkpt lat="48.64996" lon="-2.33835">
        <ele>46</ele>
        <time>2014-06-10T13:12:58Z</time>
      </trkpt>
      <trkpt lat="48.64996" lon="-2.3384">
        <ele>46</ele>
        <time>2014-06-10T13:13:00Z</time>
      </trkpt>
      <trkpt lat="48.64995" lon="-2.33845">
        <ele>45</ele>
        <time>2014-06-10T13:13:02Z</time>
      </trkpt>
      <trkpt lat="48.64994" lon="-2.33849">
        <ele>45</ele>
        <time>2014-06-10T13:13:04Z</time>
      </trkpt>
      <trkpt lat="48.64993" lon="-2.33853">
        <ele>45</ele>
        <time>2014-06-10T13:13:06Z</time>
      </trkpt>
      <trkpt lat="48.64993" lon="-2.33857">
        <ele>45</ele>
        <time>2014-06-10T13:13:08Z</time>
      </trkpt>
      <trkpt lat="48.64992" lon="-2.33861">
        <ele>45</ele>
        <time>2014-06-10T13:13:10Z</time>
      </trkpt>
      <trkpt lat="48.64991" lon="-2.33865">
        <ele>45</ele>
        <time>2014-06-10T13:13:12Z</time>
      </trkpt>
      <trkpt lat="48.6499" lon="-2.3387">
        <ele>45</ele>
        <time>2014-06-10T13:13:14Z</time>
      </trkpt>
      <trkpt lat="48.64989" lon="-2.33874">
        <ele>45</ele>
        <time>2014-06-10T13:13:16Z</time>
      </trkpt>
      <trkpt lat="48.64988" lon="-2.33879">
        <ele>45</ele>
        <time>2014-06-10T13:13:18Z</time>
      </trkpt>
      <trkpt lat="48.64988" lon="-2.33883">
        <ele>45</ele>
        <time>2014-06-10T13:13:20Z</time>
      </trkpt>
      <trkpt lat="48.64987" lon="-2.33887">
        <ele>44</ele>
        <time>2014-06-10T13:13:22Z</time>
      </trkpt>
      <trkpt lat="48.64986" lon="-2.33892">
        <ele>44</ele>
        <time>2014-06-10T13:13:24Z</time>
      </trkpt>
      <trkpt lat="48.64985" lon="-2.33896">
        <ele>44</ele>
        <time>2014-06-10T13:13:26Z</time>
      </trkpt>
      <trkpt lat="48.64983" lon="-2.339">
        <ele>44</ele>
        <time>2014-06-10T13:13:28Z</time>
      </trkpt>
      <trkpt lat="48.64983" lon="-2.33904">
        <ele>44</ele>
        <time>2014-06-10T13:13:30Z</time>
      </trkpt>
      <trkpt lat="48.64982" lon="-2.33908">
        <ele>44</ele>
        <time>2014-06-10T13:13:32Z</time>
      </trkpt>
      <trkpt lat="48.64981" lon="-2.33912">
        <ele>44</ele>
        <time>2014-06-10T13:13:34Z</time>
      </trkpt>
      <trkpt lat="48.6498" lon="-2.33915">
        <ele>44</ele>
        <time>2014-06-10T13:13:36Z</time>
      </trkpt>
      <trkpt lat="48.64978" lon="-2.33919">
        <ele>44</ele>
        <time>2014-06-10T13:13:38Z</time>
      </trkpt>
      <trkpt lat="48.64977" lon="-2.33923">
        <ele>44</ele>
        <time>2014-06-10T13:13:40Z</time>
      </trkpt>
      <trkpt lat="48.64976" lon="-2.33926">
        <ele>44</ele>
        <time>2014-06-10T13:13:42Z</time>
      </trkpt>
      <trkpt lat="48.64974" lon="-2.33929">
        <ele>44</ele>
        <time>2014-06-10T13:13:44Z</time>
      </trkpt>
      <trkpt lat="48.64973" lon="-2.33933">
        <ele>44</ele>
        <time>2014-06-10T13:13:46Z</time>
      </trkpt>
      <trkpt lat="48.64971" lon="-2.33936">
        <ele>44</ele>
        <time>2014-06-10T13:13:48Z</time>
      </trkpt>
      <trkpt lat="48.64968" lon="-2.33941">
        <ele>44</ele>
        <time>2014-06-10T13:13:51Z</time>
      </trkpt>
      <trkpt lat="48.64966" lon="-2.33944">
        <ele>44</ele>
        <time>2014-06-10T13:13:53Z</time>
      </trkpt>
      <trkpt lat="48.64964" lon="-2.33946">
        <ele>43</ele>
        <time>2014-06-10T13:13:55Z</time>
      </trkpt>
      <trkpt lat="48.64962" lon="-2.33948">
        <ele>43</ele>
        <time>2014-06-10T13:13:57Z</time>
      </trkpt>
      <trkpt lat="48.64958" lon="-2.33951">
        <ele>43</ele>
        <time>2014-06-10T13:14:00Z</time>
      </trkpt>
      <trkpt lat="48.64955" lon="-2.33955">
        <ele>43</ele>
        <time>2014-06-10T13:14:03Z</time>
      </trkpt>
      <trkpt lat="48.64953" lon="-2.33957">
        <ele>42</ele>
        <time>2014-06-10T13:14:05Z</time>
      </trkpt>
      <trkpt lat="48.64951" lon="-2.33962">
        <ele>42</ele>
        <time>2014-06-10T13:14:08Z</time>
      </trkpt>
      <trkpt lat="48.64949" lon="-2.33967">
        <ele>42</ele>
        <time>2014-06-10T13:14:11Z</time>
      </trkpt>
      <trkpt lat="48.64949" lon="-2.3397">
        <ele>42</ele>
        <time>2014-06-10T13:14:13Z</time>
      </trkpt>
      <trkpt lat="48.6495" lon="-2.33974">
        <ele>42</ele>
        <time>2014-06-10T13:14:15Z</time>
      </trkpt>
      <trkpt lat="48.64951" lon="-2.33979">
        <ele>42</ele>
        <time>2014-06-10T13:14:18Z</time>
      </trkpt>
      <trkpt lat="48.64953" lon="-2.33981">
        <ele>42</ele>
        <time>2014-06-10T13:14:20Z</time>
      </trkpt>
      <trkpt lat="48.64955" lon="-2.33984">
        <ele>42</ele>
        <time>2014-06-10T13:14:22Z</time>
      </trkpt>
      <trkpt lat="48.64957" lon="-2.33986">
        <ele>42</ele>
        <time>2014-06-10T13:14:24Z</time>
      </trkpt>
      <trkpt lat="48.6496" lon="-2.3399">
        <ele>42</ele>
        <time>2014-06-10T13:14:27Z</time>
      </trkpt>
      <trkpt lat="48.64963" lon="-2.33992">
        <ele>42</ele>
        <time>2014-06-10T13:14:29Z</time>
      </trkpt>
      <trkpt lat="48.64965" lon="-2.33994">
        <ele>42</ele>
        <time>2014-06-10T13:14:31Z</time>
      </trkpt>
      <trkpt lat="48.64967" lon="-2.33997">
        <ele>42</ele>
        <time>2014-06-10T13:14:33Z</time>
      </trkpt>
      <trkpt lat="48.64969" lon="-2.33999">
        <ele>42</ele>
        <time>2014-06-10T13:14:35Z</time>
      </trkpt>
      <trkpt lat="48.64971" lon="-2.34001">
        <ele>42</ele>
        <time>2014-06-10T13:14:37Z</time>
      </trkpt>
      <trkpt lat="48.64974" lon="-2.34005">
        <ele>42</ele>
        <time>2014-06-10T13:14:40Z</time>
      </trkpt>
      <trkpt lat="48.64977" lon="-2.34007">
        <ele>42</ele>
        <time>2014-06-10T13:14:42Z</time>
      </trkpt>
      <trkpt lat="48.64979" lon="-2.34009">
        <ele>42</ele>
        <time>2014-06-10T13:14:44Z</time>
      </trkpt>
      <trkpt lat="48.64981" lon="-2.34011">
        <ele>42</ele>
        <time>2014-06-10T13:14:46Z</time>
      </trkpt>
      <trkpt lat="48.64983" lon="-2.34014">
        <ele>42</ele>
        <time>2014-06-10T13:14:48Z</time>
      </trkpt>
      <trkpt lat="48.64986" lon="-2.34016">
        <ele>42</ele>
        <time>2014-06-10T13:14:50Z</time>
      </trkpt>
      <trkpt lat="48.64988" lon="-2.34018">
        <ele>42</ele>
        <time>2014-06-10T13:14:52Z</time>
      </trkpt>
      <trkpt lat="48.64991" lon="-2.3402">
        <ele>42</ele>
        <time>2014-06-10T13:14:54Z</time>
      </trkpt>
      <trkpt lat="48.64993" lon="-2.34022">
        <ele>42</ele>
        <time>2014-06-10T13:14:56Z</time>
      </trkpt>
      <trkpt lat="48.64995" lon="-2.34025">
        <ele>42</ele>
        <time>2014-06-10T13:14:58Z</time>
      </trkpt>
      <trkpt lat="48.64997" lon="-2.34027">
        <ele>42</ele>
        <time>2014-06-10T13:15:00Z</time>
      </trkpt>
      <trkpt lat="48.64999" lon="-2.34029">
        <ele>42</ele>
        <time>2014-06-10T13:15:02Z</time>
      </trkpt>
      <trkpt lat="48.65003" lon="-2.34033">
        <ele>42</ele>
        <time>2014-06-10T13:15:05Z</time>
      </trkpt>
      <trkpt lat="48.65004" lon="-2.34035">
        <ele>42</ele>
        <time>2014-06-10T13:15:07Z</time>
      </trkpt>
      <trkpt lat="48.65006" lon="-2.34038">
        <ele>42</ele>
        <time>2014-06-10T13:15:09Z</time>
      </trkpt>
      <trkpt lat="48.65009" lon="-2.3404">
        <ele>42</ele>
        <time>2014-06-10T13:15:11Z</time>
      </trkpt>
      <trkpt lat="48.65011" lon="-2.34042">
        <ele>42</ele>
        <time>2014-06-10T13:15:13Z</time>
      </trkpt>
      <trkpt lat="48.65014" lon="-2.34046">
        <ele>42</ele>
        <time>2014-06-10T13:15:16Z</time>
      </trkpt>
      <trkpt lat="48.65017" lon="-2.34049">
        <ele>42</ele>
        <time>2014-06-10T13:15:19Z</time>
      </trkpt>
      <trkpt lat="48.6502" lon="-2.34052">
        <ele>42</ele>
        <time>2014-06-10T13:15:21Z</time>
      </trkpt>
      <trkpt lat="48.65023" lon="-2.34055">
        <ele>42</ele>
        <time>2014-06-10T13:15:24Z</time>
      </trkpt>
      <trkpt lat="48.65026" lon="-2.34058">
        <ele>42</ele>
        <time>2014-06-10T13:15:27Z</time>
      </trkpt>
      <trkpt lat="48.65029" lon="-2.3406">
        <ele>42</ele>
        <time>2014-06-10T13:15:29Z</time>
      </trkpt>
      <trkpt lat="48.65031" lon="-2.34062">
        <ele>42</ele>
        <time>2014-06-10T13:15:31Z</time>
      </trkpt>
      <trkpt lat="48.65034" lon="-2.34066">
        <ele>42</ele>
        <time>2014-06-10T13:15:34Z</time>
      </trkpt>
      <trkpt lat="48.65035" lon="-2.34069">
        <ele>42</ele>
        <time>2014-06-10T13:15:36Z</time>
      </trkpt>
      <trkpt lat="48.65036" lon="-2.34072">
        <ele>42</ele>
        <time>2014-06-10T13:15:39Z</time>
      </trkpt>
      <trkpt lat="48.65036" lon="-2.3407">
        <ele>42</ele>
        <time>2014-06-10T13:15:42Z</time>
      </trkpt>
      <trkpt lat="48.65037" lon="-2.34068">
        <ele>42</ele>
        <time>2014-06-10T13:15:44Z</time>
      </trkpt>
      <trkpt lat="48.65039" lon="-2.34068">
        <ele>42</ele>
        <time>2014-06-10T13:15:49Z</time>
      </trkpt>
      <trkpt lat="48.65039" lon="-2.34071">
        <ele>42</ele>
        <time>2014-06-10T13:15:51Z</time>
      </trkpt>
      <trkpt lat="48.65039" lon="-2.34075">
        <ele>42</ele>
        <time>2014-06-10T13:15:53Z</time>
      </trkpt>
      <trkpt lat="48.6504" lon="-2.34079">
        <ele>42</ele>
        <time>2014-06-10T13:15:55Z</time>
      </trkpt>
      <trkpt lat="48.6504" lon="-2.34083">
        <ele>42</ele>
        <time>2014-06-10T13:15:57Z</time>
      </trkpt>
      <trkpt lat="48.65039" lon="-2.34087">
        <ele>42</ele>
        <time>2014-06-10T13:15:59Z</time>
      </trkpt>
      <trkpt lat="48.65039" lon="-2.34092">
        <ele>42</ele>
        <time>2014-06-10T13:16:01Z</time>
      </trkpt>
      <trkpt lat="48.65038" lon="-2.34097">
        <ele>42</ele>
        <time>2014-06-10T13:16:03Z</time>
      </trkpt>
      <trkpt lat="48.65038" lon="-2.34101">
        <ele>42</ele>
        <time>2014-06-10T13:16:05Z</time>
      </trkpt>
      <trkpt lat="48.65036" lon="-2.34104">
        <ele>42</ele>
        <time>2014-06-10T13:16:07Z</time>
      </trkpt>
      <trkpt lat="48.65036" lon="-2.34108">
        <ele>42</ele>
        <time>2014-06-10T13:16:09Z</time>
      </trkpt>
      <trkpt lat="48.65035" lon="-2.34113">
        <ele>42</ele>
        <time>2014-06-10T13:16:11Z</time>
      </trkpt>
      <trkpt lat="48.65034" lon="-2.34117">
        <ele>42</ele>
        <time>2014-06-10T13:16:13Z</time>
      </trkpt>
      <trkpt lat="48.65033" lon="-2.34121">
        <ele>42</ele>
        <time>2014-06-10T13:16:15Z</time>
      </trkpt>
      <trkpt lat="48.65032" lon="-2.34125">
        <ele>42</ele>
        <time>2014-06-10T13:16:17Z</time>
      </trkpt>
      <trkpt lat="48.65031" lon="-2.34129">
        <ele>42</ele>
        <time>2014-06-10T13:16:19Z</time>
      </trkpt>
      <trkpt lat="48.6503" lon="-2.34133">
        <ele>42</ele>
        <time>2014-06-10T13:16:21Z</time>
      </trkpt>
      <trkpt lat="48.65029" lon="-2.34138">
        <ele>42</ele>
        <time>2014-06-10T13:16:23Z</time>
      </trkpt>
      <trkpt lat="48.65028" lon="-2.34142">
        <ele>42</ele>
        <time>2014-06-10T13:16:25Z</time>
      </trkpt>
      <trkpt lat="48.65027" lon="-2.34146">
        <ele>42</ele>
        <time>2014-06-10T13:16:27Z</time>
      </trkpt>
      <trkpt lat="48.65026" lon="-2.3415">
        <ele>42</ele>
        <time>2014-06-10T13:16:29Z</time>
      </trkpt>
      <trkpt lat="48.65025" lon="-2.34155">
        <ele>42</ele>
        <time>2014-06-10T13:16:31Z</time>
      </trkpt>
      <trkpt lat="48.65024" lon="-2.34159">
        <ele>42</ele>
        <time>2014-06-10T13:16:33Z</time>
      </trkpt>
      <trkpt lat="48.65023" lon="-2.34163">
        <ele>42</ele>
        <time>2014-06-10T13:16:35Z</time>
      </trkpt>
      <trkpt lat="48.65022" lon="-2.34167">
        <ele>42</ele>
        <time>2014-06-10T13:16:37Z</time>
      </trkpt>
      <trkpt lat="48.65021" lon="-2.34172">
        <ele>42</ele>
        <time>2014-06-10T13:16:39Z</time>
      </trkpt>
      <trkpt lat="48.6502" lon="-2.34176">
        <ele>42</ele>
        <time>2014-06-10T13:16:41Z</time>
      </trkpt>
      <trkpt lat="48.65018" lon="-2.3418">
        <ele>42</ele>
        <time>2014-06-10T13:16:43Z</time>
      </trkpt>
      <trkpt lat="48.65017" lon="-2.34185">
        <ele>42</ele>
        <time>2014-06-10T13:16:45Z</time>
      </trkpt>
      <trkpt lat="48.65016" lon="-2.34189">
        <ele>42</ele>
        <time>2014-06-10T13:16:47Z</time>
      </trkpt>
      <trkpt lat="48.65015" lon="-2.34193">
        <ele>42</ele>
        <time>2014-06-10T13:16:49Z</time>
      </trkpt>
      <trkpt lat="48.65014" lon="-2.34197">
        <ele>42</ele>
        <time>2014-06-10T13:16:51Z</time>
      </trkpt>
      <trkpt lat="48.65013" lon="-2.34202">
        <ele>42</ele>
        <time>2014-06-10T13:16:53Z</time>
      </trkpt>
      <trkpt lat="48.65012" lon="-2.34206">
        <ele>42</ele>
        <time>2014-06-10T13:16:55Z</time>
      </trkpt>
      <trkpt lat="48.65011" lon="-2.3421">
        <ele>42</ele>
        <time>2014-06-10T13:16:57Z</time>
      </trkpt>
      <trkpt lat="48.6501" lon="-2.34215">
        <ele>42</ele>
        <time>2014-06-10T13:16:59Z</time>
      </trkpt>
      <trkpt lat="48.65009" lon="-2.34219">
        <ele>42</ele>
        <time>2014-06-10T13:17:01Z</time>
      </trkpt>
      <trkpt lat="48.65008" lon="-2.34223">
        <ele>42</ele>
        <time>2014-06-10T13:17:03Z</time>
      </trkpt>
      <trkpt lat="48.65007" lon="-2.34227">
        <ele>42</ele>
        <time>2014-06-10T13:17:05Z</time>
      </trkpt>
      <trkpt lat="48.65006" lon="-2.34232">
        <ele>42</ele>
        <time>2014-06-10T13:17:07Z</time>
      </trkpt>
      <trkpt lat="48.65005" lon="-2.34236">
        <ele>42</ele>
        <time>2014-06-10T13:17:09Z</time>
      </trkpt>
      <trkpt lat="48.65004" lon="-2.3424">
        <ele>42</ele>
        <time>2014-06-10T13:17:11Z</time>
      </trkpt>
      <trkpt lat="48.65002" lon="-2.34244">
        <ele>42</ele>
        <time>2014-06-10T13:17:13Z</time>
      </trkpt>
      <trkpt lat="48.65001" lon="-2.34248">
        <ele>42</ele>
        <time>2014-06-10T13:17:15Z</time>
      </trkpt>
      <trkpt lat="48.65" lon="-2.34253">
        <ele>42</ele>
        <time>2014-06-10T13:17:17Z</time>
      </trkpt>
      <trkpt lat="48.64999" lon="-2.34257">
        <ele>42</ele>
        <time>2014-06-10T13:17:19Z</time>
      </trkpt>
      <trkpt lat="48.64998" lon="-2.34261">
        <ele>42</ele>
        <time>2014-06-10T13:17:21Z</time>
      </trkpt>
      <trkpt lat="48.64997" lon="-2.34264">
        <ele>42</ele>
        <time>2014-06-10T13:17:23Z</time>
      </trkpt>
      <trkpt lat="48.64996" lon="-2.34269">
        <ele>42</ele>
        <time>2014-06-10T13:17:25Z</time>
      </trkpt>
      <trkpt lat="48.64994" lon="-2.34273">
        <ele>42</ele>
        <time>2014-06-10T13:17:27Z</time>
      </trkpt>
      <trkpt lat="48.64993" lon="-2.34277">
        <ele>42</ele>
        <time>2014-06-10T13:17:29Z</time>
      </trkpt>
      <trkpt lat="48.64992" lon="-2.3428">
        <ele>42</ele>
        <time>2014-06-10T13:17:31Z</time>
      </trkpt>
      <trkpt lat="48.64991" lon="-2.34284">
        <ele>42</ele>
        <time>2014-06-10T13:17:33Z</time>
      </trkpt>
      <trkpt lat="48.6499" lon="-2.34289">
        <ele>42</ele>
        <time>2014-06-10T13:17:35Z</time>
      </trkpt>
      <trkpt lat="48.64989" lon="-2.34293">
        <ele>42</ele>
        <time>2014-06-10T13:17:37Z</time>
      </trkpt>
      <trkpt lat="48.64988" lon="-2.34296">
        <ele>42</ele>
        <time>2014-06-10T13:17:39Z</time>
      </trkpt>
      <trkpt lat="48.64987" lon="-2.343">
        <ele>42</ele>
        <time>2014-06-10T13:17:41Z</time>
      </trkpt>
      <trkpt lat="48.64986" lon="-2.34304">
        <ele>42</ele>
        <time>2014-06-10T13:17:43Z</time>
      </trkpt>
      <trkpt lat="48.64984" lon="-2.34308">
        <ele>42</ele>
        <time>2014-06-10T13:17:45Z</time>
      </trkpt>
      <trkpt lat="48.64983" lon="-2.34313">
        <ele>42</ele>
        <time>2014-06-10T13:17:47Z</time>
      </trkpt>
      <trkpt lat="48.64982" lon="-2.34316">
        <ele>42</ele>
        <time>2014-06-10T13:17:49Z</time>
      </trkpt>
      <trkpt lat="48.64981" lon="-2.3432">
        <ele>42</ele>
        <time>2014-06-10T13:17:51Z</time>
      </trkpt>
      <trkpt lat="48.6498" lon="-2.34324">
        <ele>42</ele>
        <time>2014-06-10T13:17:53Z</time>
      </trkpt>
      <trkpt lat="48.64978" lon="-2.34328">
        <ele>42</ele>
        <time>2014-06-10T13:17:55Z</time>
      </trkpt>
      <trkpt lat="48.64977" lon="-2.34332">
        <ele>42</ele>
        <time>2014-06-10T13:17:57Z</time>
      </trkpt>
      <trkpt lat="48.64976" lon="-2.34336">
        <ele>42</ele>
        <time>2014-06-10T13:17:59Z</time>
      </trkpt>
      <trkpt lat="48.64975" lon="-2.3434">
        <ele>42</ele>
        <time>2014-06-10T13:18:01Z</time>
      </trkpt>
      <trkpt lat="48.64974" lon="-2.34345">
        <ele>42</ele>
        <time>2014-06-10T13:18:03Z</time>
      </trkpt>
      <trkpt lat="48.64973" lon="-2.34349">
        <ele>42</ele>
        <time>2014-06-10T13:18:05Z</time>
      </trkpt>
      <trkpt lat="48.64972" lon="-2.34353">
        <ele>42</ele>
        <time>2014-06-10T13:18:07Z</time>
      </trkpt>
      <trkpt lat="48.64971" lon="-2.34357">
        <ele>42</ele>
        <time>2014-06-10T13:18:09Z</time>
      </trkpt>
      <trkpt lat="48.6497" lon="-2.34361">
        <ele>42</ele>
        <time>2014-06-10T13:18:11Z</time>
      </trkpt>
      <trkpt lat="48.64968" lon="-2.34365">
        <ele>42</ele>
        <time>2014-06-10T13:18:13Z</time>
      </trkpt>
      <trkpt lat="48.64967" lon="-2.34369">
        <ele>42</ele>
        <time>2014-06-10T13:18:15Z</time>
      </trkpt>
      <trkpt lat="48.64966" lon="-2.34373">
        <ele>42</ele>
        <time>2014-06-10T13:18:17Z</time>
      </trkpt>
      <trkpt lat="48.64965" lon="-2.34377">
        <ele>42</ele>
        <time>2014-06-10T13:18:19Z</time>
      </trkpt>
      <trkpt lat="48.64964" lon="-2.34381">
        <ele>42</ele>
        <time>2014-06-10T13:18:21Z</time>
      </trkpt>
      <trkpt lat="48.64962" lon="-2.34385">
        <ele>42</ele>
        <time>2014-06-10T13:18:23Z</time>
      </trkpt>
      <trkpt lat="48.64961" lon="-2.34389">
        <ele>42</ele>
        <time>2014-06-10T13:18:25Z</time>
      </trkpt>
      <trkpt lat="48.6496" lon="-2.34393">
        <ele>42</ele>
        <time>2014-06-10T13:18:27Z</time>
      </trkpt>
      <trkpt lat="48.64959" lon="-2.34397">
        <ele>42</ele>
        <time>2014-06-10T13:18:29Z</time>
      </trkpt>
      <trkpt lat="48.64958" lon="-2.34401">
        <ele>42</ele>
        <time>2014-06-10T13:18:31Z</time>
      </trkpt>
      <trkpt lat="48.64957" lon="-2.34405">
        <ele>42</ele>
        <time>2014-06-10T13:18:33Z</time>
      </trkpt>
      <trkpt lat="48.64956" lon="-2.34409">
        <ele>42</ele>
        <time>2014-06-10T13:18:35Z</time>
      </trkpt>
      <trkpt lat="48.64954" lon="-2.34413">
        <ele>42</ele>
        <time>2014-06-10T13:18:37Z</time>
      </trkpt>
      <trkpt lat="48.64954" lon="-2.34417">
        <ele>42</ele>
        <time>2014-06-10T13:18:39Z</time>
      </trkpt>
      <trkpt lat="48.64952" lon="-2.34421">
        <ele>42</ele>
        <time>2014-06-10T13:18:41Z</time>
      </trkpt>
      <trkpt lat="48.64951" lon="-2.34425">
        <ele>42</ele>
        <time>2014-06-10T13:18:43Z</time>
      </trkpt>
      <trkpt lat="48.6495" lon="-2.34429">
        <ele>42</ele>
        <time>2014-06-10T13:18:45Z</time>
      </trkpt>
      <trkpt lat="48.64949" lon="-2.34433">
        <ele>42</ele>
        <time>2014-06-10T13:18:47Z</time>
      </trkpt>
      <trkpt lat="48.64948" lon="-2.34436">
        <ele>42</ele>
        <time>2014-06-10T13:18:49Z</time>
      </trkpt>
      <trkpt lat="48.64947" lon="-2.34441">
        <ele>42</ele>
        <time>2014-06-10T13:18:51Z</time>
      </trkpt>
      <trkpt lat="48.64946" lon="-2.34445">
        <ele>42</ele>
        <time>2014-06-10T13:18:53Z</time>
      </trkpt>
      <trkpt lat="48.64945" lon="-2.34449">
        <ele>42</ele>
        <time>2014-06-10T13:18:55Z</time>
      </trkpt>
      <trkpt lat="48.64944" lon="-2.34453">
        <ele>42</ele>
        <time>2014-06-10T13:18:57Z</time>
      </trkpt>
      <trkpt lat="48.64943" lon="-2.34457">
        <ele>42</ele>
        <time>2014-06-10T13:18:59Z</time>
      </trkpt>
      <trkpt lat="48.64942" lon="-2.3446">
        <ele>42</ele>
        <time>2014-06-10T13:19:01Z</time>
      </trkpt>
      <trkpt lat="48.64941" lon="-2.34465">
        <ele>42</ele>
        <time>2014-06-10T13:19:03Z</time>
      </trkpt>
      <trkpt lat="48.64939" lon="-2.34469">
        <ele>42</ele>
        <time>2014-06-10T13:19:05Z</time>
      </trkpt>
      <trkpt lat="48.64938" lon="-2.34472">
        <ele>42</ele>
        <time>2014-06-10T13:19:07Z</time>
      </trkpt>
      <trkpt lat="48.64937" lon="-2.34476">
        <ele>42</ele>
        <time>2014-06-10T13:19:09Z</time>
      </trkpt>
      <trkpt lat="48.64936" lon="-2.3448">
        <ele>42</ele>
        <time>2014-06-10T13:19:11Z</time>
      </trkpt>
      <trkpt lat="48.64935" lon="-2.34484">
        <ele>42</ele>
        <time>2014-06-10T13:19:13Z</time>
      </trkpt>
      <trkpt lat="48.64934" lon="-2.34488">
        <ele>42</ele>
        <time>2014-06-10T13:19:15Z</time>
      </trkpt>
      <trkpt lat="48.64933" lon="-2.34491">
        <ele>42</ele>
        <time>2014-06-10T13:19:17Z</time>
      </trkpt>
      <trkpt lat="48.64932" lon="-2.34495">
        <ele>42</ele>
        <time>2014-06-10T13:19:19Z</time>
      </trkpt>
      <trkpt lat="48.64931" lon="-2.345">
        <ele>42</ele>
        <time>2014-06-10T13:19:21Z</time>
      </trkpt>
      <trkpt lat="48.6493" lon="-2.34504">
        <ele>42</ele>
        <time>2014-06-10T13:19:23Z</time>
      </trkpt>
      <trkpt lat="48.64929" lon="-2.34507">
        <ele>42</ele>
        <time>2014-06-10T13:19:25Z</time>
      </trkpt>
      <trkpt lat="48.64928" lon="-2.34511">
        <ele>42</ele>
        <time>2014-06-10T13:19:27Z</time>
      </trkpt>
      <trkpt lat="48.64927" lon="-2.34515">
        <ele>42</ele>
        <time>2014-06-10T13:19:29Z</time>
      </trkpt>
      <trkpt lat="48.64925" lon="-2.34519">
        <ele>42</ele>
        <time>2014-06-10T13:19:31Z</time>
      </trkpt>
      <trkpt lat="48.64924" lon="-2.34523">
        <ele>42</ele>
        <time>2014-06-10T13:19:33Z</time>
      </trkpt>
      <trkpt lat="48.64923" lon="-2.34527">
        <ele>42</ele>
        <time>2014-06-10T13:19:35Z</time>
      </trkpt>
      <trkpt lat="48.64922" lon="-2.34531">
        <ele>42</ele>
        <time>2014-06-10T13:19:37Z</time>
      </trkpt>
      <trkpt lat="48.64921" lon="-2.34535">
        <ele>42</ele>
        <time>2014-06-10T13:19:39Z</time>
      </trkpt>
      <trkpt lat="48.6492" lon="-2.34539">
        <ele>42</ele>
        <time>2014-06-10T13:19:41Z</time>
      </trkpt>
      <trkpt lat="48.64919" lon="-2.34543">
        <ele>42</ele>
        <time>2014-06-10T13:19:43Z</time>
      </trkpt>
      <trkpt lat="48.64917" lon="-2.34547">
        <ele>42</ele>
        <time>2014-06-10T13:19:45Z</time>
      </trkpt>
      <trkpt lat="48.64917" lon="-2.3455">
        <ele>42</ele>
        <time>2014-06-10T13:19:47Z</time>
      </trkpt>
      <trkpt lat="48.64915" lon="-2.34555">
        <ele>42</ele>
        <time>2014-06-10T13:19:49Z</time>
      </trkpt>
      <trkpt lat="48.64915" lon="-2.34559">
        <ele>42</ele>
        <time>2014-06-10T13:19:51Z</time>
      </trkpt>
      <trkpt lat="48.64914" lon="-2.34562">
        <ele>42</ele>
        <time>2014-06-10T13:19:53Z</time>
      </trkpt>
      <trkpt lat="48.64913" lon="-2.34566">
        <ele>42</ele>
        <time>2014-06-10T13:19:55Z</time>
      </trkpt>
      <trkpt lat="48.64912" lon="-2.3457">
        <ele>42</ele>
        <time>2014-06-10T13:19:57Z</time>
      </trkpt>
      <trkpt lat="48.64911" lon="-2.34574">
        <ele>42</ele>
        <time>2014-06-10T13:19:59Z</time>
      </trkpt>
      <trkpt lat="48.64909" lon="-2.34578">
        <ele>41</ele>
        <time>2014-06-10T13:20:01Z</time>
      </trkpt>
      <trkpt lat="48.64908" lon="-2.34582">
        <ele>41</ele>
        <time>2014-06-10T13:20:03Z</time>
      </trkpt>
      <trkpt lat="48.64907" lon="-2.34585">
        <ele>41</ele>
        <time>2014-06-10T13:20:05Z</time>
      </trkpt>
      <trkpt lat="48.64906" lon="-2.34589">
        <ele>41</ele>
        <time>2014-06-10T13:20:07Z</time>
      </trkpt>
      <trkpt lat="48.64904" lon="-2.34593">
        <ele>41</ele>
        <time>2014-06-10T13:20:09Z</time>
      </trkpt>
      <trkpt lat="48.64904" lon="-2.34597">
        <ele>41</ele>
        <time>2014-06-10T13:20:11Z</time>
      </trkpt>
      <trkpt lat="48.64903" lon="-2.346">
        <ele>40</ele>
        <time>2014-06-10T13:20:13Z</time>
      </trkpt>
      <trkpt lat="48.64902" lon="-2.34604">
        <ele>40</ele>
        <time>2014-06-10T13:20:15Z</time>
      </trkpt>
      <trkpt lat="48.64901" lon="-2.34607">
        <ele>40</ele>
        <time>2014-06-10T13:20:17Z</time>
      </trkpt>
      <trkpt lat="48.64901" lon="-2.34612">
        <ele>39</ele>
        <time>2014-06-10T13:20:19Z</time>
      </trkpt>
      <trkpt lat="48.64899" lon="-2.34616">
        <ele>39</ele>
        <time>2014-06-10T13:20:21Z</time>
      </trkpt>
      <trkpt lat="48.64899" lon="-2.3462">
        <ele>39</ele>
        <time>2014-06-10T13:20:23Z</time>
      </trkpt>
      <trkpt lat="48.64898" lon="-2.34624">
        <ele>39</ele>
        <time>2014-06-10T13:20:25Z</time>
      </trkpt>
      <trkpt lat="48.64897" lon="-2.34628">
        <ele>38</ele>
        <time>2014-06-10T13:20:27Z</time>
      </trkpt>
      <trkpt lat="48.64896" lon="-2.34631">
        <ele>38</ele>
        <time>2014-06-10T13:20:29Z</time>
      </trkpt>
      <trkpt lat="48.64895" lon="-2.34636">
        <ele>37</ele>
        <time>2014-06-10T13:20:31Z</time>
      </trkpt>
      <trkpt lat="48.64893" lon="-2.3464">
        <ele>37</ele>
        <time>2014-06-10T13:20:33Z</time>
      </trkpt>
      <trkpt lat="48.64892" lon="-2.34644">
        <ele>37</ele>
        <time>2014-06-10T13:20:35Z</time>
      </trkpt>
      <trkpt lat="48.64891" lon="-2.34647">
        <ele>37</ele>
        <time>2014-06-10T13:20:37Z</time>
      </trkpt>
      <trkpt lat="48.6489" lon="-2.34652">
        <ele>37</ele>
        <time>2014-06-10T13:20:39Z</time>
      </trkpt>
      <trkpt lat="48.64888" lon="-2.34656">
        <ele>37</ele>
        <time>2014-06-10T13:20:41Z</time>
      </trkpt>
      <trkpt lat="48.64887" lon="-2.3466">
        <ele>37</ele>
        <time>2014-06-10T13:20:43Z</time>
      </trkpt>
      <trkpt lat="48.64886" lon="-2.34664">
        <ele>37</ele>
        <time>2014-06-10T13:20:45Z</time>
      </trkpt>
      <trkpt lat="48.64885" lon="-2.34667">
        <ele>37</ele>
        <time>2014-06-10T13:20:47Z</time>
      </trkpt>
      <trkpt lat="48.64884" lon="-2.34671">
        <ele>37</ele>
        <time>2014-06-10T13:20:49Z</time>
      </trkpt>
      <trkpt lat="48.64883" lon="-2.34675">
        <ele>37</ele>
        <time>2014-06-10T13:20:51Z</time>
      </trkpt>
      <trkpt lat="48.64883" lon="-2.34679">
        <ele>36</ele>
        <time>2014-06-10T13:20:53Z</time>
      </trkpt>
      <trkpt lat="48.64881" lon="-2.34683">
        <ele>35</ele>
        <time>2014-06-10T13:20:56Z</time>
      </trkpt>
      <trkpt lat="48.6488" lon="-2.34687">
        <ele>35</ele>
        <time>2014-06-10T13:20:58Z</time>
      </trkpt>
      <trkpt lat="48.64879" lon="-2.34691">
        <ele>35</ele>
        <time>2014-06-10T13:21:00Z</time>
      </trkpt>
      <trkpt lat="48.64878" lon="-2.34697">
        <ele>35</ele>
        <time>2014-06-10T13:21:02Z</time>
      </trkpt>
      <trkpt lat="48.64877" lon="-2.347">
        <ele>35</ele>
        <time>2014-06-10T13:21:04Z</time>
      </trkpt>
      <trkpt lat="48.64875" lon="-2.34705">
        <ele>34</ele>
        <time>2014-06-10T13:21:07Z</time>
      </trkpt>
      <trkpt lat="48.64874" lon="-2.34708">
        <ele>34</ele>
        <time>2014-06-10T13:21:09Z</time>
      </trkpt>
      <trkpt lat="48.64872" lon="-2.34713">
        <ele>33</ele>
        <time>2014-06-10T13:21:12Z</time>
      </trkpt>
      <trkpt lat="48.64871" lon="-2.34717">
        <ele>33</ele>
        <time>2014-06-10T13:21:14Z</time>
      </trkpt>
      <trkpt lat="48.64869" lon="-2.34722">
        <ele>33</ele>
        <time>2014-06-10T13:21:17Z</time>
      </trkpt>
      <trkpt lat="48.64868" lon="-2.34727">
        <ele>33</ele>
        <time>2014-06-10T13:21:19Z</time>
      </trkpt>
      <trkpt lat="48.64867" lon="-2.34732">
        <ele>33</ele>
        <time>2014-06-10T13:21:21Z</time>
      </trkpt>
      <trkpt lat="48.64866" lon="-2.34736">
        <ele>33</ele>
        <time>2014-06-10T13:21:23Z</time>
      </trkpt>
      <trkpt lat="48.64865" lon="-2.34741">
        <ele>33</ele>
        <time>2014-06-10T13:21:25Z</time>
      </trkpt>
      <trkpt lat="48.64864" lon="-2.34745">
        <ele>33</ele>
        <time>2014-06-10T13:21:27Z</time>
      </trkpt>
      <trkpt lat="48.64863" lon="-2.34749">
        <ele>33</ele>
        <time>2014-06-10T13:21:29Z</time>
      </trkpt>
      <trkpt lat="48.64861" lon="-2.34753">
        <ele>33</ele>
        <time>2014-06-10T13:21:31Z</time>
      </trkpt>
      <trkpt lat="48.6486" lon="-2.34759">
        <ele>33</ele>
        <time>2014-06-10T13:21:33Z</time>
      </trkpt>
      <trkpt lat="48.64859" lon="-2.34763">
        <ele>33</ele>
        <time>2014-06-10T13:21:35Z</time>
      </trkpt>
      <trkpt lat="48.64857" lon="-2.34767">
        <ele>33</ele>
        <time>2014-06-10T13:21:37Z</time>
      </trkpt>
      <trkpt lat="48.64857" lon="-2.34771">
        <ele>33</ele>
        <time>2014-06-10T13:21:39Z</time>
      </trkpt>
      <trkpt lat="48.64856" lon="-2.34774">
        <ele>33</ele>
        <time>2014-06-10T13:21:41Z</time>
      </trkpt>
      <trkpt lat="48.64854" lon="-2.34778">
        <ele>33</ele>
        <time>2014-06-10T13:21:43Z</time>
      </trkpt>
      <trkpt lat="48.64853" lon="-2.34783">
        <ele>33</ele>
        <time>2014-06-10T13:21:45Z</time>
      </trkpt>
      <trkpt lat="48.64852" lon="-2.34787">
        <ele>33</ele>
        <time>2014-06-10T13:21:47Z</time>
      </trkpt>
      <trkpt lat="48.64851" lon="-2.34792">
        <ele>33</ele>
        <time>2014-06-10T13:21:50Z</time>
      </trkpt>
      <trkpt lat="48.6485" lon="-2.34796">
        <ele>33</ele>
        <time>2014-06-10T13:21:52Z</time>
      </trkpt>
      <trkpt lat="48.6485" lon="-2.34799">
        <ele>33</ele>
        <time>2014-06-10T13:21:54Z</time>
      </trkpt>
      <trkpt lat="48.64849" lon="-2.34803">
        <ele>33</ele>
        <time>2014-06-10T13:21:56Z</time>
      </trkpt>
      <trkpt lat="48.64848" lon="-2.34807">
        <ele>33</ele>
        <time>2014-06-10T13:21:58Z</time>
      </trkpt>
      <trkpt lat="48.64847" lon="-2.34809">
        <ele>33</ele>
        <time>2014-06-10T13:22:00Z</time>
      </trkpt>
      <trkpt lat="48.64846" lon="-2.34813">
        <ele>34</ele>
        <time>2014-06-10T13:22:02Z</time>
      </trkpt>
      <trkpt lat="48.64845" lon="-2.34816">
        <ele>34</ele>
        <time>2014-06-10T13:22:04Z</time>
      </trkpt>
      <trkpt lat="48.64844" lon="-2.34821">
        <ele>34</ele>
        <time>2014-06-10T13:22:06Z</time>
      </trkpt>
      <trkpt lat="48.64843" lon="-2.34825">
        <ele>34</ele>
        <time>2014-06-10T13:22:08Z</time>
      </trkpt>
      <trkpt lat="48.64843" lon="-2.3483">
        <ele>34</ele>
        <time>2014-06-10T13:22:10Z</time>
      </trkpt>
      <trkpt lat="48.64841" lon="-2.34836">
        <ele>34</ele>
        <time>2014-06-10T13:22:12Z</time>
      </trkpt>
      <trkpt lat="48.6484" lon="-2.34841">
        <ele>34</ele>
        <time>2014-06-10T13:22:14Z</time>
      </trkpt>
      <trkpt lat="48.64838" lon="-2.34847">
        <ele>34</ele>
        <time>2014-06-10T13:22:17Z</time>
      </trkpt>
      <trkpt lat="48.64837" lon="-2.34852">
        <ele>34</ele>
        <time>2014-06-10T13:22:19Z</time>
      </trkpt>
      <trkpt lat="48.64836" lon="-2.34857">
        <ele>34</ele>
        <time>2014-06-10T13:22:21Z</time>
      </trkpt>
      <trkpt lat="48.64835" lon="-2.3486">
        <ele>34</ele>
        <time>2014-06-10T13:22:23Z</time>
      </trkpt>
      <trkpt lat="48.64833" lon="-2.34863">
        <ele>34</ele>
        <time>2014-06-10T13:22:25Z</time>
      </trkpt>
      <trkpt lat="48.64832" lon="-2.34867">
        <ele>34</ele>
        <time>2014-06-10T13:22:27Z</time>
      </trkpt>
      <trkpt lat="48.64831" lon="-2.3487">
        <ele>34</ele>
        <time>2014-06-10T13:22:29Z</time>
      </trkpt>
      <trkpt lat="48.64829" lon="-2.34873">
        <ele>34</ele>
        <time>2014-06-10T13:22:31Z</time>
      </trkpt>
      <trkpt lat="48.64828" lon="-2.34875">
        <ele>34</ele>
        <time>2014-06-10T13:22:33Z</time>
      </trkpt>
      <trkpt lat="48.64827" lon="-2.34879">
        <ele>34</ele>
        <time>2014-06-10T13:22:35Z</time>
      </trkpt>
      <trkpt lat="48.64826" lon="-2.34881">
        <ele>34</ele>
        <time>2014-06-10T13:22:37Z</time>
      </trkpt>
      <trkpt lat="48.64825" lon="-2.34883">
        <ele>34</ele>
        <time>2014-06-10T13:22:39Z</time>
      </trkpt>
      <trkpt lat="48.64824" lon="-2.34889">
        <ele>34</ele>
        <time>2014-06-10T13:22:41Z</time>
      </trkpt>
      <trkpt lat="48.64822" lon="-2.34895">
        <ele>34</ele>
        <time>2014-06-10T13:22:43Z</time>
      </trkpt>
      <trkpt lat="48.64821" lon="-2.34899">
        <ele>34</ele>
        <time>2014-06-10T13:22:45Z</time>
      </trkpt>
      <trkpt lat="48.64821" lon="-2.34903">
        <ele>34</ele>
        <time>2014-06-10T13:22:47Z</time>
      </trkpt>
      <trkpt lat="48.64821" lon="-2.34907">
        <ele>34</ele>
        <time>2014-06-10T13:22:49Z</time>
      </trkpt>
      <trkpt lat="48.64821" lon="-2.34912">
        <ele>34</ele>
        <time>2014-06-10T13:22:51Z</time>
      </trkpt>
      <trkpt lat="48.64819" lon="-2.34915">
        <ele>34</ele>
        <time>2014-06-10T13:22:53Z</time>
      </trkpt>
      <trkpt lat="48.64817" lon="-2.34918">
        <ele>34</ele>
        <time>2014-06-10T13:22:55Z</time>
      </trkpt>
      <trkpt lat="48.64816" lon="-2.34921">
        <ele>34</ele>
        <time>2014-06-10T13:22:57Z</time>
      </trkpt>
      <trkpt lat="48.64814" lon="-2.34925">
        <ele>34</ele>
        <time>2014-06-10T13:22:59Z</time>
      </trkpt>
      <trkpt lat="48.64812" lon="-2.34928">
        <ele>34</ele>
        <time>2014-06-10T13:23:01Z</time>
      </trkpt>
      <trkpt lat="48.64809" lon="-2.34928">
        <ele>34</ele>
        <time>2014-06-10T13:23:03Z</time>
      </trkpt>
      <trkpt lat="48.64808" lon="-2.34927">
        <ele>34</ele>
        <time>2014-06-10T13:23:05Z</time>
      </trkpt>
      <trkpt lat="48.64806" lon="-2.34927">
        <ele>34</ele>
        <time>2014-06-10T13:23:12Z</time>
      </trkpt>
      <trkpt lat="48.64805" lon="-2.34927">
        <ele>34</ele>
        <time>2014-06-10T13:23:23Z</time>
      </trkpt>
      <trkpt lat="48.64804" lon="-2.34925">
        <ele>39</ele>
        <time>2014-06-10T13:23:38Z</time>
      </trkpt>
      <trkpt lat="48.64804" lon="-2.34923">
        <ele>43</ele>
        <time>2014-06-10T13:23:42Z</time>
      </trkpt>
      <trkpt lat="48.64805" lon="-2.34925">
        <ele>46</ele>
        <time>2014-06-10T13:23:45Z</time>
      </trkpt>
      <trkpt lat="48.64806" lon="-2.34929">
        <ele>48</ele>
        <time>2014-06-10T13:23:48Z</time>
      </trkpt>
      <trkpt lat="48.64808" lon="-2.34931">
        <ele>48</ele>
        <time>2014-06-10T13:23:50Z</time>
      </trkpt>
      <trkpt lat="48.6481" lon="-2.34934">
        <ele>48</ele>
        <time>2014-06-10T13:23:52Z</time>
      </trkpt>
      <trkpt lat="48.64812" lon="-2.34937">
        <ele>48</ele>
        <time>2014-06-10T13:23:54Z</time>
      </trkpt>
      <trkpt lat="48.64814" lon="-2.34938">
        <ele>48</ele>
        <time>2014-06-10T13:23:56Z</time>
      </trkpt>
      <trkpt lat="48.64816" lon="-2.34939">
        <ele>47</ele>
        <time>2014-06-10T13:23:58Z</time>
      </trkpt>
      <trkpt lat="48.64819" lon="-2.34941">
        <ele>46</ele>
        <time>2014-06-10T13:24:00Z</time>
      </trkpt>
      <trkpt lat="48.64821" lon="-2.34942">
        <ele>45</ele>
        <time>2014-06-10T13:24:02Z</time>
      </trkpt>
      <trkpt lat="48.64824" lon="-2.34943">
        <ele>44</ele>
        <time>2014-06-10T13:24:04Z</time>
      </trkpt>
      <trkpt lat="48.64826" lon="-2.34944">
        <ele>43</ele>
        <time>2014-06-10T13:24:06Z</time>
      </trkpt>
      <trkpt lat="48.64829" lon="-2.34945">
        <ele>43</ele>
        <time>2014-06-10T13:24:08Z</time>
      </trkpt>
      <trkpt lat="48.64832" lon="-2.34945">
        <ele>43</ele>
        <time>2014-06-10T13:24:10Z</time>
      </trkpt>
      <trkpt lat="48.64834" lon="-2.34946">
        <ele>43</ele>
        <time>2014-06-10T13:24:12Z</time>
      </trkpt>
      <trkpt lat="48.64837" lon="-2.34947">
        <ele>43</ele>
        <time>2014-06-10T13:24:14Z</time>
      </trkpt>
      <trkpt lat="48.6484" lon="-2.34947">
        <ele>43</ele>
        <time>2014-06-10T13:24:16Z</time>
      </trkpt>
      <trkpt lat="48.64843" lon="-2.34948">
        <ele>42</ele>
        <time>2014-06-10T13:24:18Z</time>
      </trkpt>
      <trkpt lat="48.64846" lon="-2.34949">
        <ele>42</ele>
        <time>2014-06-10T13:24:20Z</time>
      </trkpt>
      <trkpt lat="48.64849" lon="-2.34949">
        <ele>42</ele>
        <time>2014-06-10T13:24:22Z</time>
      </trkpt>
      <trkpt lat="48.64852" lon="-2.34951">
        <ele>42</ele>
        <time>2014-06-10T13:24:24Z</time>
      </trkpt>
      <trkpt lat="48.64855" lon="-2.34952">
        <ele>42</ele>
        <time>2014-06-10T13:24:26Z</time>
      </trkpt>
      <trkpt lat="48.64857" lon="-2.34952">
        <ele>41</ele>
        <time>2014-06-10T13:24:28Z</time>
      </trkpt>
      <trkpt lat="48.64859" lon="-2.34953">
        <ele>40</ele>
        <time>2014-06-10T13:24:30Z</time>
      </trkpt>
      <trkpt lat="48.6486" lon="-2.34955">
        <ele>40</ele>
        <time>2014-06-10T13:24:32Z</time>
      </trkpt>
      <trkpt lat="48.64863" lon="-2.34956">
        <ele>39</ele>
        <time>2014-06-10T13:24:34Z</time>
      </trkpt>
      <trkpt lat="48.64865" lon="-2.34957">
        <ele>38</ele>
        <time>2014-06-10T13:24:36Z</time>
      </trkpt>
      <trkpt lat="48.64867" lon="-2.34958">
        <ele>38</ele>
        <time>2014-06-10T13:24:38Z</time>
      </trkpt>
      <trkpt lat="48.6487" lon="-2.3496">
        <ele>37</ele>
        <time>2014-06-10T13:24:40Z</time>
      </trkpt>
      <trkpt lat="48.64873" lon="-2.34962">
        <ele>37</ele>
        <time>2014-06-10T13:24:42Z</time>
      </trkpt>
      <trkpt lat="48.64877" lon="-2.34966">
        <ele>37</ele>
        <time>2014-06-10T13:24:45Z</time>
      </trkpt>
      <trkpt lat="48.64878" lon="-2.34969">
        <ele>37</ele>
        <time>2014-06-10T13:24:47Z</time>
      </trkpt>
      <trkpt lat="48.6488" lon="-2.34973">
        <ele>37</ele>
        <time>2014-06-10T13:24:49Z</time>
      </trkpt>
      <trkpt lat="48.64881" lon="-2.34977">
        <ele>37</ele>
        <time>2014-06-10T13:24:51Z</time>
      </trkpt>
      <trkpt lat="48.64882" lon="-2.34982">
        <ele>37</ele>
        <time>2014-06-10T13:24:53Z</time>
      </trkpt>
      <trkpt lat="48.64882" lon="-2.34986">
        <ele>37</ele>
        <time>2014-06-10T13:24:55Z</time>
      </trkpt>
      <trkpt lat="48.64882" lon="-2.34991">
        <ele>37</ele>
        <time>2014-06-10T13:24:57Z</time>
      </trkpt>
      <trkpt lat="48.64882" lon="-2.34995">
        <ele>37</ele>
        <time>2014-06-10T13:24:59Z</time>
      </trkpt>
      <trkpt lat="48.64882" lon="-2.34999">
        <ele>37</ele>
        <time>2014-06-10T13:25:01Z</time>
      </trkpt>
      <trkpt lat="48.64882" lon="-2.35003">
        <ele>37</ele>
        <time>2014-06-10T13:25:03Z</time>
      </trkpt>
      <trkpt lat="48.64881" lon="-2.35008">
        <ele>37</ele>
        <time>2014-06-10T13:25:05Z</time>
      </trkpt>
      <trkpt lat="48.64882" lon="-2.35013">
        <ele>36</ele>
        <time>2014-06-10T13:25:07Z</time>
      </trkpt>
      <trkpt lat="48.64882" lon="-2.35016">
        <ele>36</ele>
        <time>2014-06-10T13:25:09Z</time>
      </trkpt>
      <trkpt lat="48.64882" lon="-2.3502">
        <ele>36</ele>
        <time>2014-06-10T13:25:11Z</time>
      </trkpt>
      <trkpt lat="48.64883" lon="-2.35024">
        <ele>36</ele>
        <time>2014-06-10T13:25:13Z</time>
      </trkpt>
      <trkpt lat="48.64885" lon="-2.35029">
        <ele>35</ele>
        <time>2014-06-10T13:25:16Z</time>
      </trkpt>
      <trkpt lat="48.64885" lon="-2.35032">
        <ele>34</ele>
        <time>2014-06-10T13:25:18Z</time>
      </trkpt>
      <trkpt lat="48.64886" lon="-2.35035">
        <ele>34</ele>
        <time>2014-06-10T13:25:20Z</time>
      </trkpt>
      <trkpt lat="48.64887" lon="-2.35037">
        <ele>34</ele>
        <time>2014-06-10T13:25:22Z</time>
      </trkpt>
      <trkpt lat="48.64888" lon="-2.35039">
        <ele>33</ele>
        <time>2014-06-10T13:25:24Z</time>
      </trkpt>
      <trkpt lat="48.64893" lon="-2.35044">
        <ele>33</ele>
        <time>2014-06-10T13:25:27Z</time>
      </trkpt>
      <trkpt lat="48.64895" lon="-2.35047">
        <ele>33</ele>
        <time>2014-06-10T13:25:29Z</time>
      </trkpt>
      <trkpt lat="48.64897" lon="-2.3505">
        <ele>33</ele>
        <time>2014-06-10T13:25:31Z</time>
      </trkpt>
      <trkpt lat="48.649" lon="-2.35053">
        <ele>33</ele>
        <time>2014-06-10T13:25:34Z</time>
      </trkpt>
      <trkpt lat="48.64903" lon="-2.35055">
        <ele>33</ele>
        <time>2014-06-10T13:25:36Z</time>
      </trkpt>
      <trkpt lat="48.64906" lon="-2.35058">
        <ele>33</ele>
        <time>2014-06-10T13:25:38Z</time>
      </trkpt>
      <trkpt lat="48.64909" lon="-2.35059">
        <ele>33</ele>
        <time>2014-06-10T13:25:40Z</time>
      </trkpt>
      <trkpt lat="48.64912" lon="-2.35063">
        <ele>33</ele>
        <time>2014-06-10T13:25:43Z</time>
      </trkpt>
      <trkpt lat="48.64916" lon="-2.35066">
        <ele>33</ele>
        <time>2014-06-10T13:25:46Z</time>
      </trkpt>
      <trkpt lat="48.64917" lon="-2.35067">
        <ele>33</ele>
        <time>2014-06-10T13:25:48Z</time>
      </trkpt>
      <trkpt lat="48.6492" lon="-2.35068">
        <ele>33</ele>
        <time>2014-06-10T13:25:50Z</time>
      </trkpt>
      <trkpt lat="48.64923" lon="-2.35069">
        <ele>33</ele>
        <time>2014-06-10T13:25:52Z</time>
      </trkpt>
      <trkpt lat="48.64926" lon="-2.3507">
        <ele>33</ele>
        <time>2014-06-10T13:25:54Z</time>
      </trkpt>
      <trkpt lat="48.64929" lon="-2.35071">
        <ele>33</ele>
        <time>2014-06-10T13:25:56Z</time>
      </trkpt>
      <trkpt lat="48.64932" lon="-2.35071">
        <ele>33</ele>
        <time>2014-06-10T13:25:58Z</time>
      </trkpt>
      <trkpt lat="48.64935" lon="-2.35071">
        <ele>33</ele>
        <time>2014-06-10T13:26:00Z</time>
      </trkpt>
      <trkpt lat="48.64938" lon="-2.35071">
        <ele>33</ele>
        <time>2014-06-10T13:26:02Z</time>
      </trkpt>
      <trkpt lat="48.64941" lon="-2.3507">
        <ele>33</ele>
        <time>2014-06-10T13:26:04Z</time>
      </trkpt>
      <trkpt lat="48.64943" lon="-2.35069">
        <ele>33</ele>
        <time>2014-06-10T13:26:06Z</time>
      </trkpt>
      <trkpt lat="48.64946" lon="-2.35069">
        <ele>33</ele>
        <time>2014-06-10T13:26:08Z</time>
      </trkpt>
      <trkpt lat="48.6495" lon="-2.35069">
        <ele>33</ele>
        <time>2014-06-10T13:26:11Z</time>
      </trkpt>
      <trkpt lat="48.64953" lon="-2.35068">
        <ele>33</ele>
        <time>2014-06-10T13:26:13Z</time>
      </trkpt>
      <trkpt lat="48.64955" lon="-2.35068">
        <ele>33</ele>
        <time>2014-06-10T13:26:15Z</time>
      </trkpt>
      <trkpt lat="48.64958" lon="-2.35067">
        <ele>33</ele>
        <time>2014-06-10T13:26:17Z</time>
      </trkpt>
      <trkpt lat="48.6496" lon="-2.35067">
        <ele>33</ele>
        <time>2014-06-10T13:26:19Z</time>
      </trkpt>
      <trkpt lat="48.64963" lon="-2.35066">
        <ele>33</ele>
        <time>2014-06-10T13:26:21Z</time>
      </trkpt>
      <trkpt lat="48.64965" lon="-2.35066">
        <ele>33</ele>
        <time>2014-06-10T13:26:23Z</time>
      </trkpt>
      <trkpt lat="48.64967" lon="-2.35065">
        <ele>33</ele>
        <time>2014-06-10T13:26:25Z</time>
      </trkpt>
      <trkpt lat="48.64968" lon="-2.35065">
        <ele>33</ele>
        <time>2014-06-10T13:26:29Z</time>
      </trkpt>
      <trkpt lat="48.64972" lon="-2.35065">
        <ele>33</ele>
        <time>2014-06-10T13:26:31Z</time>
      </trkpt>
      <trkpt lat="48.64973" lon="-2.35067">
        <ele>33</ele>
        <time>2014-06-10T13:26:34Z</time>
      </trkpt>
      <trkpt lat="48.64974" lon="-2.35069">
        <ele>33</ele>
        <time>2014-06-10T13:26:44Z</time>
      </trkpt>
      <trkpt lat="48.64975" lon="-2.35072">
        <ele>33</ele>
        <time>2014-06-10T13:26:46Z</time>
      </trkpt>
      <trkpt lat="48.64977" lon="-2.35076">
        <ele>33</ele>
        <time>2014-06-10T13:26:48Z</time>
      </trkpt>
      <trkpt lat="48.64978" lon="-2.3508">
        <ele>33</ele>
        <time>2014-06-10T13:26:50Z</time>
      </trkpt>
      <trkpt lat="48.64978" lon="-2.35083">
        <ele>33</ele>
        <time>2014-06-10T13:26:52Z</time>
      </trkpt>
      <trkpt lat="48.64978" lon="-2.35087">
        <ele>33</ele>
        <time>2014-06-10T13:26:54Z</time>
      </trkpt>
      <trkpt lat="48.64978" lon="-2.3509">
        <ele>33</ele>
        <time>2014-06-10T13:26:56Z</time>
      </trkpt>
      <trkpt lat="48.64979" lon="-2.35094">
        <ele>33</ele>
        <time>2014-06-10T13:26:58Z</time>
      </trkpt>
      <trkpt lat="48.64979" lon="-2.35098">
        <ele>33</ele>
        <time>2014-06-10T13:27:01Z</time>
      </trkpt>
      <trkpt lat="48.6498" lon="-2.351">
        <ele>33</ele>
        <time>2014-06-10T13:27:05Z</time>
      </trkpt>
      <trkpt lat="48.6498" lon="-2.35103">
        <ele>33</ele>
        <time>2014-06-10T13:27:07Z</time>
      </trkpt>
      <trkpt lat="48.6498" lon="-2.35107">
        <ele>33</ele>
        <time>2014-06-10T13:27:09Z</time>
      </trkpt>
      <trkpt lat="48.64981" lon="-2.35111">
        <ele>33</ele>
        <time>2014-06-10T13:27:11Z</time>
      </trkpt>
      <trkpt lat="48.64982" lon="-2.35115">
        <ele>33</ele>
        <time>2014-06-10T13:27:13Z</time>
      </trkpt>
      <trkpt lat="48.64983" lon="-2.35119">
        <ele>33</ele>
        <time>2014-06-10T13:27:15Z</time>
      </trkpt>
      <trkpt lat="48.64984" lon="-2.35123">
        <ele>32</ele>
        <time>2014-06-10T13:27:17Z</time>
      </trkpt>
      <trkpt lat="48.64986" lon="-2.35126">
        <ele>31</ele>
        <time>2014-06-10T13:27:19Z</time>
      </trkpt>
      <trkpt lat="48.64988" lon="-2.35132">
        <ele>30</ele>
        <time>2014-06-10T13:27:21Z</time>
      </trkpt>
      <trkpt lat="48.6499" lon="-2.35137">
        <ele>30</ele>
        <time>2014-06-10T13:27:25Z</time>
      </trkpt>
      <trkpt lat="48.64992" lon="-2.35141">
        <ele>29</ele>
        <time>2014-06-10T13:27:28Z</time>
      </trkpt>
      <trkpt lat="48.64993" lon="-2.35145">
        <ele>28</ele>
        <time>2014-06-10T13:27:30Z</time>
      </trkpt>
      <trkpt lat="48.64994" lon="-2.35149">
        <ele>28</ele>
        <time>2014-06-10T13:27:32Z</time>
      </trkpt>
      <trkpt lat="48.64996" lon="-2.35153">
        <ele>27</ele>
        <time>2014-06-10T13:27:34Z</time>
      </trkpt>
      <trkpt lat="48.64998" lon="-2.35157">
        <ele>27</ele>
        <time>2014-06-10T13:27:36Z</time>
      </trkpt>
      <trkpt lat="48.65" lon="-2.3516">
        <ele>27</ele>
        <time>2014-06-10T13:27:38Z</time>
      </trkpt>
      <trkpt lat="48.65001" lon="-2.35163">
        <ele>27</ele>
        <time>2014-06-10T13:27:40Z</time>
      </trkpt>
      <trkpt lat="48.65004" lon="-2.35168">
        <ele>27</ele>
        <time>2014-06-10T13:27:43Z</time>
      </trkpt>
      <trkpt lat="48.65006" lon="-2.35172">
        <ele>27</ele>
        <time>2014-06-10T13:27:45Z</time>
      </trkpt>
      <trkpt lat="48.65007" lon="-2.35176">
        <ele>27</ele>
        <time>2014-06-10T13:27:47Z</time>
      </trkpt>
      <trkpt lat="48.65009" lon="-2.3518">
        <ele>27</ele>
        <time>2014-06-10T13:27:49Z</time>
      </trkpt>
      <trkpt lat="48.6501" lon="-2.35184">
        <ele>27</ele>
        <time>2014-06-10T13:27:51Z</time>
      </trkpt>
      <trkpt lat="48.65011" lon="-2.35188">
        <ele>27</ele>
        <time>2014-06-10T13:27:53Z</time>
      </trkpt>
      <trkpt lat="48.65012" lon="-2.35192">
        <ele>27</ele>
        <time>2014-06-10T13:27:55Z</time>
      </trkpt>
      <trkpt lat="48.65013" lon="-2.35196">
        <ele>27</ele>
        <time>2014-06-10T13:27:57Z</time>
      </trkpt>
      <trkpt lat="48.65014" lon="-2.352">
        <ele>27</ele>
        <time>2014-06-10T13:27:59Z</time>
      </trkpt>
      <trkpt lat="48.65015" lon="-2.35204">
        <ele>27</ele>
        <time>2014-06-10T13:28:01Z</time>
      </trkpt>
      <trkpt lat="48.65017" lon="-2.35207">
        <ele>27</ele>
        <time>2014-06-10T13:28:03Z</time>
      </trkpt>
      <trkpt lat="48.65018" lon="-2.3521">
        <ele>27</ele>
        <time>2014-06-10T13:28:05Z</time>
      </trkpt>
      <trkpt lat="48.6502" lon="-2.35214">
        <ele>27</ele>
        <time>2014-06-10T13:28:07Z</time>
      </trkpt>
      <trkpt lat="48.65022" lon="-2.35217">
        <ele>27</ele>
        <time>2014-06-10T13:28:09Z</time>
      </trkpt>
      <trkpt lat="48.65023" lon="-2.35221">
        <ele>27</ele>
        <time>2014-06-10T13:28:11Z</time>
      </trkpt>
      <trkpt lat="48.65024" lon="-2.35224">
        <ele>27</ele>
        <time>2014-06-10T13:28:13Z</time>
      </trkpt>
      <trkpt lat="48.65026" lon="-2.35227">
        <ele>27</ele>
        <time>2014-06-10T13:28:15Z</time>
      </trkpt>
      <trkpt lat="48.65027" lon="-2.35231">
        <ele>27</ele>
        <time>2014-06-10T13:28:17Z</time>
      </trkpt>
      <trkpt lat="48.65029" lon="-2.35233">
        <ele>27</ele>
        <time>2014-06-10T13:28:19Z</time>
      </trkpt>
      <trkpt lat="48.65031" lon="-2.35236">
        <ele>27</ele>
        <time>2014-06-10T13:28:21Z</time>
      </trkpt>
      <trkpt lat="48.65034" lon="-2.35238">
        <ele>27</ele>
        <time>2014-06-10T13:28:24Z</time>
      </trkpt>
      <trkpt lat="48.65036" lon="-2.3524">
        <ele>27</ele>
        <time>2014-06-10T13:28:26Z</time>
      </trkpt>
      <trkpt lat="48.65038" lon="-2.35241">
        <ele>27</ele>
        <time>2014-06-10T13:28:28Z</time>
      </trkpt>
      <trkpt lat="48.65036" lon="-2.35243">
        <ele>27</ele>
        <time>2014-06-10T13:28:38Z</time>
      </trkpt>
      <trkpt lat="48.65034" lon="-2.35244">
        <ele>27</ele>
        <time>2014-06-10T13:28:40Z</time>
      </trkpt>
      <trkpt lat="48.65033" lon="-2.35245">
        <ele>27</ele>
        <time>2014-06-10T13:28:42Z</time>
      </trkpt>
      <trkpt lat="48.65031" lon="-2.35247">
        <ele>27</ele>
        <time>2014-06-10T13:28:44Z</time>
      </trkpt>
      <trkpt lat="48.6503" lon="-2.35251">
        <ele>27</ele>
        <time>2014-06-10T13:28:46Z</time>
      </trkpt>
      <trkpt lat="48.6503" lon="-2.35255">
        <ele>27</ele>
        <time>2014-06-10T13:28:48Z</time>
      </trkpt>
      <trkpt lat="48.65031" lon="-2.35259">
        <ele>27</ele>
        <time>2014-06-10T13:28:50Z</time>
      </trkpt>
      <trkpt lat="48.65031" lon="-2.35263">
        <ele>27</ele>
        <time>2014-06-10T13:28:52Z</time>
      </trkpt>
      <trkpt lat="48.65031" lon="-2.35266">
        <ele>27</ele>
        <time>2014-06-10T13:28:54Z</time>
      </trkpt>
      <trkpt lat="48.65031" lon="-2.35271">
        <ele>27</ele>
        <time>2014-06-10T13:28:56Z</time>
      </trkpt>
      <trkpt lat="48.65032" lon="-2.35275">
        <ele>27</ele>
        <time>2014-06-10T13:28:58Z</time>
      </trkpt>
      <trkpt lat="48.65032" lon="-2.35279">
        <ele>27</ele>
        <time>2014-06-10T13:29:00Z</time>
      </trkpt>
      <trkpt lat="48.65031" lon="-2.35283">
        <ele>27</ele>
        <time>2014-06-10T13:29:02Z</time>
      </trkpt>
      <trkpt lat="48.65032" lon="-2.35288">
        <ele>27</ele>
        <time>2014-06-10T13:29:04Z</time>
      </trkpt>
      <trkpt lat="48.65032" lon="-2.35292">
        <ele>27</ele>
        <time>2014-06-10T13:29:06Z</time>
      </trkpt>
      <trkpt lat="48.65031" lon="-2.35295">
        <ele>27</ele>
        <time>2014-06-10T13:29:08Z</time>
      </trkpt>
      <trkpt lat="48.65031" lon="-2.35299">
        <ele>27</ele>
        <time>2014-06-10T13:29:10Z</time>
      </trkpt>
      <trkpt lat="48.65032" lon="-2.35303">
        <ele>27</ele>
        <time>2014-06-10T13:29:12Z</time>
      </trkpt>
      <trkpt lat="48.65032" lon="-2.35308">
        <ele>27</ele>
        <time>2014-06-10T13:29:14Z</time>
      </trkpt>
      <trkpt lat="48.65033" lon="-2.35311">
        <ele>27</ele>
        <time>2014-06-10T13:29:16Z</time>
      </trkpt>
      <trkpt lat="48.65033" lon="-2.35315">
        <ele>27</ele>
        <time>2014-06-10T13:29:18Z</time>
      </trkpt>
      <trkpt lat="48.65034" lon="-2.3532">
        <ele>27</ele>
        <time>2014-06-10T13:29:20Z</time>
      </trkpt>
      <trkpt lat="48.65035" lon="-2.35325">
        <ele>27</ele>
        <time>2014-06-10T13:29:22Z</time>
      </trkpt>
      <trkpt lat="48.65036" lon="-2.35329">
        <ele>27</ele>
        <time>2014-06-10T13:29:24Z</time>
      </trkpt>
      <trkpt lat="48.65037" lon="-2.35332">
        <ele>27</ele>
        <time>2014-06-10T13:29:26Z</time>
      </trkpt>
      <trkpt lat="48.65037" lon="-2.35336">
        <ele>27</ele>
        <time>2014-06-10T13:29:28Z</time>
      </trkpt>
      <trkpt lat="48.65038" lon="-2.35341">
        <ele>27</ele>
        <time>2014-06-10T13:29:30Z</time>
      </trkpt>
      <trkpt lat="48.65039" lon="-2.35345">
        <ele>27</ele>
        <time>2014-06-10T13:29:32Z</time>
      </trkpt>
      <trkpt lat="48.65039" lon="-2.35349">
        <ele>27</ele>
        <time>2014-06-10T13:29:34Z</time>
      </trkpt>
      <trkpt lat="48.65039" lon="-2.35353">
        <ele>27</ele>
        <time>2014-06-10T13:29:36Z</time>
      </trkpt>
      <trkpt lat="48.65039" lon="-2.35357">
        <ele>27</ele>
        <time>2014-06-10T13:29:38Z</time>
      </trkpt>
      <trkpt lat="48.6504" lon="-2.3536">
        <ele>27</ele>
        <time>2014-06-10T13:29:40Z</time>
      </trkpt>
      <trkpt lat="48.6504" lon="-2.35364">
        <ele>27</ele>
        <time>2014-06-10T13:29:42Z</time>
      </trkpt>
      <trkpt lat="48.65041" lon="-2.35368">
        <ele>27</ele>
        <time>2014-06-10T13:29:44Z</time>
      </trkpt>
      <trkpt lat="48.65041" lon="-2.35372">
        <ele>27</ele>
        <time>2014-06-10T13:29:46Z</time>
      </trkpt>
      <trkpt lat="48.65042" lon="-2.35376">
        <ele>27</ele>
        <time>2014-06-10T13:29:48Z</time>
      </trkpt>
      <trkpt lat="48.65043" lon="-2.35378">
        <ele>27</ele>
        <time>2014-06-10T13:29:52Z</time>
      </trkpt>
      <trkpt lat="48.65042" lon="-2.35378">
        <ele>27</ele>
        <time>2014-06-10T13:30:07Z</time>
      </trkpt>
      <trkpt lat="48.65043" lon="-2.3538">
        <ele>27</ele>
        <time>2014-06-10T13:30:10Z</time>
      </trkpt>
      <trkpt lat="48.65045" lon="-2.35384">
        <ele>27</ele>
        <time>2014-06-10T13:30:13Z</time>
      </trkpt>
      <trkpt lat="48.65046" lon="-2.35387">
        <ele>27</ele>
        <time>2014-06-10T13:30:15Z</time>
      </trkpt>
      <trkpt lat="48.65048" lon="-2.35393">
        <ele>27</ele>
        <time>2014-06-10T13:30:18Z</time>
      </trkpt>
      <trkpt lat="48.65049" lon="-2.35399">
        <ele>27</ele>
        <time>2014-06-10T13:30:20Z</time>
      </trkpt>
      <trkpt lat="48.6505" lon="-2.35403">
        <ele>27</ele>
        <time>2014-06-10T13:30:23Z</time>
      </trkpt>
      <trkpt lat="48.65051" lon="-2.35407">
        <ele>27</ele>
        <time>2014-06-10T13:30:25Z</time>
      </trkpt>
      <trkpt lat="48.65052" lon="-2.35411">
        <ele>27</ele>
        <time>2014-06-10T13:30:27Z</time>
      </trkpt>
      <trkpt lat="48.65053" lon="-2.35415">
        <ele>27</ele>
        <time>2014-06-10T13:30:29Z</time>
      </trkpt>
      <trkpt lat="48.65054" lon="-2.35419">
        <ele>27</ele>
        <time>2014-06-10T13:30:31Z</time>
      </trkpt>
      <trkpt lat="48.65054" lon="-2.35426">
        <ele>27</ele>
        <time>2014-06-10T13:30:34Z</time>
      </trkpt>
      <trkpt lat="48.65054" lon="-2.35431">
        <ele>27</ele>
        <time>2014-06-10T13:30:36Z</time>
      </trkpt>
      <trkpt lat="48.65054" lon="-2.35436">
        <ele>27</ele>
        <time>2014-06-10T13:30:38Z</time>
      </trkpt>
      <trkpt lat="48.65053" lon="-2.3544">
        <ele>27</ele>
        <time>2014-06-10T13:30:40Z</time>
      </trkpt>
      <trkpt lat="48.65052" lon="-2.35443">
        <ele>27</ele>
        <time>2014-06-10T13:30:42Z</time>
      </trkpt>
      <trkpt lat="48.65051" lon="-2.35447">
        <ele>27</ele>
        <time>2014-06-10T13:30:44Z</time>
      </trkpt>
      <trkpt lat="48.65051" lon="-2.35451">
        <ele>27</ele>
        <time>2014-06-10T13:30:46Z</time>
      </trkpt>
      <trkpt lat="48.65051" lon="-2.35455">
        <ele>27</ele>
        <time>2014-06-10T13:30:48Z</time>
      </trkpt>
      <trkpt lat="48.65051" lon="-2.35458">
        <ele>27</ele>
        <time>2014-06-10T13:30:50Z</time>
      </trkpt>
      <trkpt lat="48.65054" lon="-2.35463">
        <ele>27</ele>
        <time>2014-06-10T13:30:52Z</time>
      </trkpt>
      <trkpt lat="48.65055" lon="-2.35467">
        <ele>27</ele>
        <time>2014-06-10T13:30:54Z</time>
      </trkpt>
      <trkpt lat="48.65057" lon="-2.3547">
        <ele>27</ele>
        <time>2014-06-10T13:30:56Z</time>
      </trkpt>
      <trkpt lat="48.6506" lon="-2.35472">
        <ele>27</ele>
        <time>2014-06-10T13:30:58Z</time>
      </trkpt>
      <trkpt lat="48.65063" lon="-2.35476">
        <ele>27</ele>
        <time>2014-06-10T13:31:02Z</time>
      </trkpt>
      <trkpt lat="48.65065" lon="-2.3548">
        <ele>27</ele>
        <time>2014-06-10T13:31:04Z</time>
      </trkpt>
      <trkpt lat="48.65068" lon="-2.35483">
        <ele>27</ele>
        <time>2014-06-10T13:31:08Z</time>
      </trkpt>
      <trkpt lat="48.65071" lon="-2.35487">
        <ele>27</ele>
        <time>2014-06-10T13:31:10Z</time>
      </trkpt>
      <trkpt lat="48.65073" lon="-2.35489">
        <ele>27</ele>
        <time>2014-06-10T13:31:13Z</time>
      </trkpt>
      <trkpt lat="48.65077" lon="-2.35493">
        <ele>27</ele>
        <time>2014-06-10T13:31:15Z</time>
      </trkpt>
      <trkpt lat="48.65079" lon="-2.35496">
        <ele>27</ele>
        <time>2014-06-10T13:31:18Z</time>
      </trkpt>
      <trkpt lat="48.65083" lon="-2.35501">
        <ele>28</ele>
        <time>2014-06-10T13:31:21Z</time>
      </trkpt>
      <trkpt lat="48.65084" lon="-2.35504">
        <ele>28</ele>
        <time>2014-06-10T13:31:24Z</time>
      </trkpt>
      <trkpt lat="48.65088" lon="-2.35509">
        <ele>29</ele>
        <time>2014-06-10T13:31:27Z</time>
      </trkpt>
      <trkpt lat="48.65091" lon="-2.35512">
        <ele>29</ele>
        <time>2014-06-10T13:31:29Z</time>
      </trkpt>
      <trkpt lat="48.65092" lon="-2.35514">
        <ele>29</ele>
        <time>2014-06-10T13:31:31Z</time>
      </trkpt>
      <trkpt lat="48.65094" lon="-2.35517">
        <ele>29</ele>
        <time>2014-06-10T13:31:34Z</time>
      </trkpt>
      <trkpt lat="48.65099" lon="-2.35521">
        <ele>30</ele>
        <time>2014-06-10T13:31:36Z</time>
      </trkpt>
      <trkpt lat="48.65101" lon="-2.35523">
        <ele>30</ele>
        <time>2014-06-10T13:31:39Z</time>
      </trkpt>
      <trkpt lat="48.65105" lon="-2.35528">
        <ele>30</ele>
        <time>2014-06-10T13:31:42Z</time>
      </trkpt>
      <trkpt lat="48.65107" lon="-2.35531">
        <ele>30</ele>
        <time>2014-06-10T13:31:45Z</time>
      </trkpt>
      <trkpt lat="48.65111" lon="-2.35536">
        <ele>30</ele>
        <time>2014-06-10T13:31:47Z</time>
      </trkpt>
      <trkpt lat="48.65114" lon="-2.35541">
        <ele>30</ele>
        <time>2014-06-10T13:31:51Z</time>
      </trkpt>
      <trkpt lat="48.65117" lon="-2.35544">
        <ele>30</ele>
        <time>2014-06-10T13:31:53Z</time>
      </trkpt>
      <trkpt lat="48.65119" lon="-2.35547">
        <ele>30</ele>
        <time>2014-06-10T13:31:56Z</time>
      </trkpt>
      <trkpt lat="48.65122" lon="-2.3555">
        <ele>30</ele>
        <time>2014-06-10T13:31:58Z</time>
      </trkpt>
      <trkpt lat="48.65125" lon="-2.35554">
        <ele>30</ele>
        <time>2014-06-10T13:32:01Z</time>
      </trkpt>
      <trkpt lat="48.65128" lon="-2.35559">
        <ele>30</ele>
        <time>2014-06-10T13:32:03Z</time>
      </trkpt>
      <trkpt lat="48.65129" lon="-2.35562">
        <ele>30</ele>
        <time>2014-06-10T13:32:06Z</time>
      </trkpt>
      <trkpt lat="48.65132" lon="-2.35568">
        <ele>30</ele>
        <time>2014-06-10T13:32:08Z</time>
      </trkpt>
      <trkpt lat="48.65134" lon="-2.35571">
        <ele>30</ele>
        <time>2014-06-10T13:32:11Z</time>
      </trkpt>
      <trkpt lat="48.65137" lon="-2.35578">
        <ele>30</ele>
        <time>2014-06-10T13:32:14Z</time>
      </trkpt>
      <trkpt lat="48.65139" lon="-2.35581">
        <ele>30</ele>
        <time>2014-06-10T13:32:16Z</time>
      </trkpt>
      <trkpt lat="48.65143" lon="-2.35585">
        <ele>30</ele>
        <time>2014-06-10T13:32:19Z</time>
      </trkpt>
      <trkpt lat="48.65144" lon="-2.35588">
        <ele>30</ele>
        <time>2014-06-10T13:32:22Z</time>
      </trkpt>
      <trkpt lat="48.65147" lon="-2.35594">
        <ele>30</ele>
        <time>2014-06-10T13:32:24Z</time>
      </trkpt>
      <trkpt lat="48.65149" lon="-2.35598">
        <ele>30</ele>
        <time>2014-06-10T13:32:27Z</time>
      </trkpt>
      <trkpt lat="48.6515" lon="-2.35603">
        <ele>30</ele>
        <time>2014-06-10T13:32:30Z</time>
      </trkpt>
      <trkpt lat="48.65151" lon="-2.35607">
        <ele>30</ele>
        <time>2014-06-10T13:32:32Z</time>
      </trkpt>
      <trkpt lat="48.65152" lon="-2.35613">
        <ele>30</ele>
        <time>2014-06-10T13:32:34Z</time>
      </trkpt>
      <trkpt lat="48.65152" lon="-2.35617">
        <ele>30</ele>
        <time>2014-06-10T13:32:37Z</time>
      </trkpt>
      <trkpt lat="48.65152" lon="-2.35622">
        <ele>30</ele>
        <time>2014-06-10T13:32:39Z</time>
      </trkpt>
      <trkpt lat="48.65151" lon="-2.35625">
        <ele>30</ele>
        <time>2014-06-10T13:32:42Z</time>
      </trkpt>
      <trkpt lat="48.65151" lon="-2.35629">
        <ele>30</ele>
        <time>2014-06-10T13:32:48Z</time>
      </trkpt>
      <trkpt lat="48.65153" lon="-2.35633">
        <ele>30</ele>
        <time>2014-06-10T13:32:51Z</time>
      </trkpt>
      <trkpt lat="48.65155" lon="-2.35635">
        <ele>30</ele>
        <time>2014-06-10T13:32:54Z</time>
      </trkpt>
      <trkpt lat="48.65158" lon="-2.35639">
        <ele>30</ele>
        <time>2014-06-10T13:32:56Z</time>
      </trkpt>
      <trkpt lat="48.65161" lon="-2.35643">
        <ele>30</ele>
        <time>2014-06-10T13:33:00Z</time>
      </trkpt>
      <trkpt lat="48.65163" lon="-2.35648">
        <ele>30</ele>
        <time>2014-06-10T13:33:02Z</time>
      </trkpt>
      <trkpt lat="48.65163" lon="-2.35652">
        <ele>30</ele>
        <time>2014-06-10T13:33:05Z</time>
      </trkpt>
      <trkpt lat="48.65162" lon="-2.35658">
        <ele>30</ele>
        <time>2014-06-10T13:33:07Z</time>
      </trkpt>
      <trkpt lat="48.65162" lon="-2.35661">
        <ele>30</ele>
        <time>2014-06-10T13:33:10Z</time>
      </trkpt>
      <trkpt lat="48.65161" lon="-2.35666">
        <ele>30</ele>
        <time>2014-06-10T13:33:13Z</time>
      </trkpt>
      <trkpt lat="48.65162" lon="-2.35668">
        <ele>31</ele>
        <time>2014-06-10T13:33:29Z</time>
      </trkpt>
      <trkpt lat="48.65163" lon="-2.35668">
        <ele>31</ele>
        <time>2014-06-10T13:33:35Z</time>
      </trkpt>
      <trkpt lat="48.65167" lon="-2.35669">
        <ele>31</ele>
        <time>2014-06-10T13:33:37Z</time>
      </trkpt>
      <trkpt lat="48.65169" lon="-2.3567">
        <ele>31</ele>
        <time>2014-06-10T13:33:40Z</time>
      </trkpt>
      <trkpt lat="48.65172" lon="-2.35673">
        <ele>31</ele>
        <time>2014-06-10T13:33:42Z</time>
      </trkpt>
      <trkpt lat="48.65174" lon="-2.35677">
        <ele>31</ele>
        <time>2014-06-10T13:33:45Z</time>
      </trkpt>
      <trkpt lat="48.65178" lon="-2.35683">
        <ele>31</ele>
        <time>2014-06-10T13:33:48Z</time>
      </trkpt>
      <trkpt lat="48.65181" lon="-2.35686">
        <ele>31</ele>
        <time>2014-06-10T13:33:50Z</time>
      </trkpt>
      <trkpt lat="48.65183" lon="-2.35688">
        <ele>31</ele>
        <time>2014-06-10T13:33:52Z</time>
      </trkpt>
      <trkpt lat="48.65186" lon="-2.3569">
        <ele>31</ele>
        <time>2014-06-10T13:33:55Z</time>
      </trkpt>
      <trkpt lat="48.65189" lon="-2.35693">
        <ele>31</ele>
        <time>2014-06-10T13:33:57Z</time>
      </trkpt>
      <trkpt lat="48.65192" lon="-2.35695">
        <ele>31</ele>
        <time>2014-06-10T13:34:00Z</time>
      </trkpt>
      <trkpt lat="48.65197" lon="-2.35696">
        <ele>31</ele>
        <time>2014-06-10T13:34:02Z</time>
      </trkpt>
      <trkpt lat="48.65199" lon="-2.35697">
        <ele>31</ele>
        <time>2014-06-10T13:34:05Z</time>
      </trkpt>
      <trkpt lat="48.65204" lon="-2.35696">
        <ele>31</ele>
        <time>2014-06-10T13:34:07Z</time>
      </trkpt>
      <trkpt lat="48.65207" lon="-2.35696">
        <ele>31</ele>
        <time>2014-06-10T13:34:10Z</time>
      </trkpt>
      <trkpt lat="48.65211" lon="-2.35697">
        <ele>31</ele>
        <time>2014-06-10T13:34:12Z</time>
      </trkpt>
      <trkpt lat="48.65214" lon="-2.35696">
        <ele>31</ele>
        <time>2014-06-10T13:34:14Z</time>
      </trkpt>
      <trkpt lat="48.65217" lon="-2.35696">
        <ele>31</ele>
        <time>2014-06-10T13:34:16Z</time>
      </trkpt>
      <trkpt lat="48.65219" lon="-2.35696">
        <ele>31</ele>
        <time>2014-06-10T13:34:18Z</time>
      </trkpt>
      <trkpt lat="48.65222" lon="-2.35695">
        <ele>31</ele>
        <time>2014-06-10T13:34:20Z</time>
      </trkpt>
      <trkpt lat="48.65225" lon="-2.35695">
        <ele>31</ele>
        <time>2014-06-10T13:34:22Z</time>
      </trkpt>
      <trkpt lat="48.65228" lon="-2.35695">
        <ele>31</ele>
        <time>2014-06-10T13:34:25Z</time>
      </trkpt>
      <trkpt lat="48.65232" lon="-2.35695">
        <ele>31</ele>
        <time>2014-06-10T13:34:27Z</time>
      </trkpt>
      <trkpt lat="48.65235" lon="-2.35695">
        <ele>31</ele>
        <time>2014-06-10T13:34:30Z</time>
      </trkpt>
      <trkpt lat="48.65239" lon="-2.35695">
        <ele>31</ele>
        <time>2014-06-10T13:34:32Z</time>
      </trkpt>
      <trkpt lat="48.65242" lon="-2.35695">
        <ele>31</ele>
        <time>2014-06-10T13:34:34Z</time>
      </trkpt>
      <trkpt lat="48.65244" lon="-2.35695">
        <ele>31</ele>
        <time>2014-06-10T13:34:36Z</time>
      </trkpt>
      <trkpt lat="48.65247" lon="-2.35695">
        <ele>31</ele>
        <time>2014-06-10T13:34:38Z</time>
      </trkpt>
      <trkpt lat="48.6525" lon="-2.35695">
        <ele>31</ele>
        <time>2014-06-10T13:34:40Z</time>
      </trkpt>
      <trkpt lat="48.65252" lon="-2.35695">
        <ele>31</ele>
        <time>2014-06-10T13:34:42Z</time>
      </trkpt>
      <trkpt lat="48.65254" lon="-2.35696">
        <ele>31</ele>
        <time>2014-06-10T13:34:45Z</time>
      </trkpt>
      <trkpt lat="48.65258" lon="-2.35696">
        <ele>31</ele>
        <time>2014-06-10T13:34:47Z</time>
      </trkpt>
      <trkpt lat="48.6526" lon="-2.35697">
        <ele>31</ele>
        <time>2014-06-10T13:34:50Z</time>
      </trkpt>
      <trkpt lat="48.65265" lon="-2.35697">
        <ele>31</ele>
        <time>2014-06-10T13:34:53Z</time>
      </trkpt>
      <trkpt lat="48.65267" lon="-2.35698">
        <ele>31</ele>
        <time>2014-06-10T13:34:55Z</time>
      </trkpt>
      <trkpt lat="48.6527" lon="-2.35699">
        <ele>31</ele>
        <time>2014-06-10T13:34:57Z</time>
      </trkpt>
      <trkpt lat="48.65272" lon="-2.357">
        <ele>31</ele>
        <time>2014-06-10T13:34:59Z</time>
      </trkpt>
      <trkpt lat="48.65275" lon="-2.35701">
        <ele>31</ele>
        <time>2014-06-10T13:35:02Z</time>
      </trkpt>
      <trkpt lat="48.65279" lon="-2.35702">
        <ele>31</ele>
        <time>2014-06-10T13:35:04Z</time>
      </trkpt>
      <trkpt lat="48.65281" lon="-2.35704">
        <ele>31</ele>
        <time>2014-06-10T13:35:07Z</time>
      </trkpt>
      <trkpt lat="48.65285" lon="-2.35706">
        <ele>31</ele>
        <time>2014-06-10T13:35:09Z</time>
      </trkpt>
      <trkpt lat="48.65287" lon="-2.35708">
        <ele>31</ele>
        <time>2014-06-10T13:35:12Z</time>
      </trkpt>
      <trkpt lat="48.6529" lon="-2.35711">
        <ele>31</ele>
        <time>2014-06-10T13:35:14Z</time>
      </trkpt>
      <trkpt lat="48.65292" lon="-2.35713">
        <ele>31</ele>
        <time>2014-06-10T13:35:17Z</time>
      </trkpt>
      <trkpt lat="48.65296" lon="-2.35715">
        <ele>31</ele>
        <time>2014-06-10T13:35:19Z</time>
      </trkpt>
      <trkpt lat="48.65298" lon="-2.35717">
        <ele>31</ele>
        <time>2014-06-10T13:35:22Z</time>
      </trkpt>
      <trkpt lat="48.65302" lon="-2.3572">
        <ele>31</ele>
        <time>2014-06-10T13:35:25Z</time>
      </trkpt>
      <trkpt lat="48.65305" lon="-2.35722">
        <ele>31</ele>
        <time>2014-06-10T13:35:27Z</time>
      </trkpt>
      <trkpt lat="48.65307" lon="-2.35724">
        <ele>31</ele>
        <time>2014-06-10T13:35:29Z</time>
      </trkpt>
      <trkpt lat="48.65311" lon="-2.35727">
        <ele>30</ele>
        <time>2014-06-10T13:35:33Z</time>
      </trkpt>
      <trkpt lat="48.65313" lon="-2.35732">
        <ele>29</ele>
        <time>2014-06-10T13:35:35Z</time>
      </trkpt>
      <trkpt lat="48.65313" lon="-2.35736">
        <ele>29</ele>
        <time>2014-06-10T13:35:38Z</time>
      </trkpt>
      <trkpt lat="48.65313" lon="-2.35742">
        <ele>29</ele>
        <time>2014-06-10T13:35:40Z</time>
      </trkpt>
      <trkpt lat="48.65313" lon="-2.35746">
        <ele>29</ele>
        <time>2014-06-10T13:35:42Z</time>
      </trkpt>
      <trkpt lat="48.65313" lon="-2.3575">
        <ele>28</ele>
        <time>2014-06-10T13:35:44Z</time>
      </trkpt>
      <trkpt lat="48.65313" lon="-2.35753">
        <ele>28</ele>
        <time>2014-06-10T13:35:46Z</time>
      </trkpt>
      <trkpt lat="48.65313" lon="-2.35757">
        <ele>28</ele>
        <time>2014-06-10T13:35:48Z</time>
      </trkpt>
      <trkpt lat="48.65313" lon="-2.35762">
        <ele>28</ele>
        <time>2014-06-10T13:35:50Z</time>
      </trkpt>
      <trkpt lat="48.65313" lon="-2.35766">
        <ele>28</ele>
        <time>2014-06-10T13:35:53Z</time>
      </trkpt>
      <trkpt lat="48.65316" lon="-2.35771">
        <ele>28</ele>
        <time>2014-06-10T13:35:56Z</time>
      </trkpt>
      <trkpt lat="48.65318" lon="-2.35773">
        <ele>28</ele>
        <time>2014-06-10T13:35:59Z</time>
      </trkpt>
      <trkpt lat="48.65323" lon="-2.35777">
        <ele>28</ele>
        <time>2014-06-10T13:36:02Z</time>
      </trkpt>
      <trkpt lat="48.65325" lon="-2.35779">
        <ele>28</ele>
        <time>2014-06-10T13:36:04Z</time>
      </trkpt>
      <trkpt lat="48.65327" lon="-2.35781">
        <ele>28</ele>
        <time>2014-06-10T13:36:06Z</time>
      </trkpt>
      <trkpt lat="48.65329" lon="-2.35784">
        <ele>28</ele>
        <time>2014-06-10T13:36:09Z</time>
      </trkpt>
      <trkpt lat="48.65332" lon="-2.35789">
        <ele>28</ele>
        <time>2014-06-10T13:36:11Z</time>
      </trkpt>
      <trkpt lat="48.65333" lon="-2.35793">
        <ele>28</ele>
        <time>2014-06-10T13:36:14Z</time>
      </trkpt>
      <trkpt lat="48.65334" lon="-2.35799">
        <ele>28</ele>
        <time>2014-06-10T13:36:16Z</time>
      </trkpt>
      <trkpt lat="48.65334" lon="-2.35803">
        <ele>28</ele>
        <time>2014-06-10T13:36:19Z</time>
      </trkpt>
      <trkpt lat="48.65334" lon="-2.35809">
        <ele>28</ele>
        <time>2014-06-10T13:36:21Z</time>
      </trkpt>
      <trkpt lat="48.65334" lon="-2.35813">
        <ele>28</ele>
        <time>2014-06-10T13:36:24Z</time>
      </trkpt>
      <trkpt lat="48.65333" lon="-2.35819">
        <ele>27</ele>
        <time>2014-06-10T13:36:26Z</time>
      </trkpt>
      <trkpt lat="48.65332" lon="-2.35823">
        <ele>27</ele>
        <time>2014-06-10T13:36:29Z</time>
      </trkpt>
      <trkpt lat="48.65331" lon="-2.35828">
        <ele>26</ele>
        <time>2014-06-10T13:36:31Z</time>
      </trkpt>
      <trkpt lat="48.65331" lon="-2.35832">
        <ele>26</ele>
        <time>2014-06-10T13:36:34Z</time>
      </trkpt>
      <trkpt lat="48.6533" lon="-2.35838">
        <ele>26</ele>
        <time>2014-06-10T13:36:36Z</time>
      </trkpt>
      <trkpt lat="48.65329" lon="-2.35842">
        <ele>26</ele>
        <time>2014-06-10T13:36:38Z</time>
      </trkpt>
      <trkpt lat="48.65328" lon="-2.35846">
        <ele>26</ele>
        <time>2014-06-10T13:36:40Z</time>
      </trkpt>
      <trkpt lat="48.65328" lon="-2.3585">
        <ele>26</ele>
        <time>2014-06-10T13:36:42Z</time>
      </trkpt>
      <trkpt lat="48.65328" lon="-2.35854">
        <ele>26</ele>
        <time>2014-06-10T13:36:44Z</time>
      </trkpt>
      <trkpt lat="48.65327" lon="-2.35858">
        <ele>26</ele>
        <time>2014-06-10T13:36:46Z</time>
      </trkpt>
      <trkpt lat="48.65327" lon="-2.35862">
        <ele>25</ele>
        <time>2014-06-10T13:36:49Z</time>
      </trkpt>
      <trkpt lat="48.65327" lon="-2.35868">
        <ele>25</ele>
        <time>2014-06-10T13:36:51Z</time>
      </trkpt>
      <trkpt lat="48.65326" lon="-2.35872">
        <ele>25</ele>
        <time>2014-06-10T13:36:54Z</time>
      </trkpt>
      <trkpt lat="48.65325" lon="-2.35878">
        <ele>25</ele>
        <time>2014-06-10T13:36:56Z</time>
      </trkpt>
      <trkpt lat="48.65325" lon="-2.35882">
        <ele>25</ele>
        <time>2014-06-10T13:36:59Z</time>
      </trkpt>
      <trkpt lat="48.65324" lon="-2.35888">
        <ele>25</ele>
        <time>2014-06-10T13:37:01Z</time>
      </trkpt>
      <trkpt lat="48.65322" lon="-2.35892">
        <ele>25</ele>
        <time>2014-06-10T13:37:04Z</time>
      </trkpt>
      <trkpt lat="48.65321" lon="-2.35898">
        <ele>25</ele>
        <time>2014-06-10T13:37:06Z</time>
      </trkpt>
      <trkpt lat="48.6532" lon="-2.35901">
        <ele>25</ele>
        <time>2014-06-10T13:37:09Z</time>
      </trkpt>
      <trkpt lat="48.65319" lon="-2.35908">
        <ele>25</ele>
        <time>2014-06-10T13:37:11Z</time>
      </trkpt>
      <trkpt lat="48.65318" lon="-2.35911">
        <ele>25</ele>
        <time>2014-06-10T13:37:14Z</time>
      </trkpt>
      <trkpt lat="48.65317" lon="-2.35917">
        <ele>25</ele>
        <time>2014-06-10T13:37:16Z</time>
      </trkpt>
      <trkpt lat="48.65316" lon="-2.35921">
        <ele>25</ele>
        <time>2014-06-10T13:37:18Z</time>
      </trkpt>
      <trkpt lat="48.65315" lon="-2.35925">
        <ele>25</ele>
        <time>2014-06-10T13:37:20Z</time>
      </trkpt>
      <trkpt lat="48.65314" lon="-2.35928">
        <ele>25</ele>
        <time>2014-06-10T13:37:22Z</time>
      </trkpt>
      <trkpt lat="48.65313" lon="-2.35931">
        <ele>25</ele>
        <time>2014-06-10T13:37:24Z</time>
      </trkpt>
      <trkpt lat="48.65312" lon="-2.35935">
        <ele>25</ele>
        <time>2014-06-10T13:37:26Z</time>
      </trkpt>
      <trkpt lat="48.6531" lon="-2.3594">
        <ele>25</ele>
        <time>2014-06-10T13:37:29Z</time>
      </trkpt>
      <trkpt lat="48.65309" lon="-2.35943">
        <ele>25</ele>
        <time>2014-06-10T13:37:31Z</time>
      </trkpt>
      <trkpt lat="48.65308" lon="-2.35944">
        <ele>25</ele>
        <time>2014-06-10T13:37:33Z</time>
      </trkpt>
      <trkpt lat="48.65307" lon="-2.35947">
        <ele>25</ele>
        <time>2014-06-10T13:37:35Z</time>
      </trkpt>
      <trkpt lat="48.65305" lon="-2.35949">
        <ele>25</ele>
        <time>2014-06-10T13:37:37Z</time>
      </trkpt>
      <trkpt lat="48.65304" lon="-2.35952">
        <ele>25</ele>
        <time>2014-06-10T13:37:39Z</time>
      </trkpt>
      <trkpt lat="48.65302" lon="-2.35957">
        <ele>25</ele>
        <time>2014-06-10T13:37:42Z</time>
      </trkpt>
      <trkpt lat="48.653" lon="-2.35962">
        <ele>25</ele>
        <time>2014-06-10T13:37:46Z</time>
      </trkpt>
      <trkpt lat="48.65298" lon="-2.35966">
        <ele>25</ele>
        <time>2014-06-10T13:37:48Z</time>
      </trkpt>
      <trkpt lat="48.65298" lon="-2.3597">
        <ele>25</ele>
        <time>2014-06-10T13:37:50Z</time>
      </trkpt>
      <trkpt lat="48.65297" lon="-2.35974">
        <ele>25</ele>
        <time>2014-06-10T13:37:52Z</time>
      </trkpt>
      <trkpt lat="48.65297" lon="-2.35978">
        <ele>25</ele>
        <time>2014-06-10T13:37:54Z</time>
      </trkpt>
      <trkpt lat="48.65296" lon="-2.35981">
        <ele>26</ele>
        <time>2014-06-10T13:37:56Z</time>
      </trkpt>
      <trkpt lat="48.65296" lon="-2.35985">
        <ele>26</ele>
        <time>2014-06-10T13:37:58Z</time>
      </trkpt>
      <trkpt lat="48.65295" lon="-2.35989">
        <ele>27</ele>
        <time>2014-06-10T13:38:01Z</time>
      </trkpt>
      <trkpt lat="48.65295" lon="-2.35995">
        <ele>27</ele>
        <time>2014-06-10T13:38:03Z</time>
      </trkpt>
      <trkpt lat="48.65295" lon="-2.35999">
        <ele>27</ele>
        <time>2014-06-10T13:38:06Z</time>
      </trkpt>
      <trkpt lat="48.65294" lon="-2.36004">
        <ele>28</ele>
        <time>2014-06-10T13:38:08Z</time>
      </trkpt>
      <trkpt lat="48.65292" lon="-2.36007">
        <ele>28</ele>
        <time>2014-06-10T13:38:10Z</time>
      </trkpt>
      <trkpt lat="48.65291" lon="-2.36011">
        <ele>28</ele>
        <time>2014-06-10T13:38:12Z</time>
      </trkpt>
      <trkpt lat="48.6529" lon="-2.36014">
        <ele>28</ele>
        <time>2014-06-10T13:38:14Z</time>
      </trkpt>
      <trkpt lat="48.65288" lon="-2.36017">
        <ele>29</ele>
        <time>2014-06-10T13:38:16Z</time>
      </trkpt>
      <trkpt lat="48.65284" lon="-2.36021">
        <ele>29</ele>
        <time>2014-06-10T13:38:19Z</time>
      </trkpt>
      <trkpt lat="48.65282" lon="-2.36024">
        <ele>30</ele>
        <time>2014-06-10T13:38:21Z</time>
      </trkpt>
      <trkpt lat="48.6528" lon="-2.36026">
        <ele>30</ele>
        <time>2014-06-10T13:38:23Z</time>
      </trkpt>
      <trkpt lat="48.65277" lon="-2.36028">
        <ele>31</ele>
        <time>2014-06-10T13:38:26Z</time>
      </trkpt>
      <trkpt lat="48.65275" lon="-2.3603">
        <ele>31</ele>
        <time>2014-06-10T13:38:28Z</time>
      </trkpt>
      <trkpt lat="48.65272" lon="-2.36032">
        <ele>31</ele>
        <time>2014-06-10T13:38:30Z</time>
      </trkpt>
      <trkpt lat="48.65269" lon="-2.36034">
        <ele>31</ele>
        <time>2014-06-10T13:38:33Z</time>
      </trkpt>
      <trkpt lat="48.65267" lon="-2.36034">
        <ele>31</ele>
        <time>2014-06-10T13:38:35Z</time>
      </trkpt>
      <trkpt lat="48.65264" lon="-2.36035">
        <ele>32</ele>
        <time>2014-06-10T13:38:38Z</time>
      </trkpt>
      <trkpt lat="48.65262" lon="-2.36037">
        <ele>33</ele>
        <time>2014-06-10T13:38:40Z</time>
      </trkpt>
      <trkpt lat="48.65258" lon="-2.36039">
        <ele>34</ele>
        <time>2014-06-10T13:38:43Z</time>
      </trkpt>
      <trkpt lat="48.65256" lon="-2.36041">
        <ele>34</ele>
        <time>2014-06-10T13:38:45Z</time>
      </trkpt>
      <trkpt lat="48.65253" lon="-2.36042">
        <ele>34</ele>
        <time>2014-06-10T13:38:47Z</time>
      </trkpt>
      <trkpt lat="48.65251" lon="-2.36044">
        <ele>34</ele>
        <time>2014-06-10T13:38:49Z</time>
      </trkpt>
      <trkpt lat="48.65249" lon="-2.36045">
        <ele>34</ele>
        <time>2014-06-10T13:38:51Z</time>
      </trkpt>
      <trkpt lat="48.65247" lon="-2.36048">
        <ele>35</ele>
        <time>2014-06-10T13:38:53Z</time>
      </trkpt>
      <trkpt lat="48.65244" lon="-2.36051">
        <ele>35</ele>
        <time>2014-06-10T13:38:56Z</time>
      </trkpt>
      <trkpt lat="48.65242" lon="-2.36053">
        <ele>36</ele>
        <time>2014-06-10T13:38:58Z</time>
      </trkpt>
      <trkpt lat="48.6524" lon="-2.36056">
        <ele>36</ele>
        <time>2014-06-10T13:39:00Z</time>
      </trkpt>
      <trkpt lat="48.65239" lon="-2.36059">
        <ele>37</ele>
        <time>2014-06-10T13:39:02Z</time>
      </trkpt>
      <trkpt lat="48.65237" lon="-2.36062">
        <ele>37</ele>
        <time>2014-06-10T13:39:04Z</time>
      </trkpt>
      <trkpt lat="48.65234" lon="-2.36066">
        <ele>37</ele>
        <time>2014-06-10T13:39:07Z</time>
      </trkpt>
      <trkpt lat="48.65233" lon="-2.36069">
        <ele>38</ele>
        <time>2014-06-10T13:39:09Z</time>
      </trkpt>
      <trkpt lat="48.65231" lon="-2.36072">
        <ele>38</ele>
        <time>2014-06-10T13:39:11Z</time>
      </trkpt>
      <trkpt lat="48.6523" lon="-2.36075">
        <ele>38</ele>
        <time>2014-06-10T13:39:13Z</time>
      </trkpt>
      <trkpt lat="48.65229" lon="-2.36079">
        <ele>38</ele>
        <time>2014-06-10T13:39:15Z</time>
      </trkpt>
      <trkpt lat="48.65228" lon="-2.36082">
        <ele>38</ele>
        <time>2014-06-10T13:39:17Z</time>
      </trkpt>
      <trkpt lat="48.65227" lon="-2.36086">
        <ele>38</ele>
        <time>2014-06-10T13:39:19Z</time>
      </trkpt>
      <trkpt lat="48.65226" lon="-2.3609">
        <ele>38</ele>
        <time>2014-06-10T13:39:21Z</time>
      </trkpt>
      <trkpt lat="48.65225" lon="-2.36094">
        <ele>38</ele>
        <time>2014-06-10T13:39:23Z</time>
      </trkpt>
      <trkpt lat="48.65224" lon="-2.36098">
        <ele>38</ele>
        <time>2014-06-10T13:39:25Z</time>
      </trkpt>
      <trkpt lat="48.65223" lon="-2.36102">
        <ele>38</ele>
        <time>2014-06-10T13:39:27Z</time>
      </trkpt>
      <trkpt lat="48.65221" lon="-2.36105">
        <ele>38</ele>
        <time>2014-06-10T13:39:29Z</time>
      </trkpt>
      <trkpt lat="48.65221" lon="-2.36109">
        <ele>38</ele>
        <time>2014-06-10T13:39:31Z</time>
      </trkpt>
      <trkpt lat="48.65219" lon="-2.36112">
        <ele>38</ele>
        <time>2014-06-10T13:39:33Z</time>
      </trkpt>
      <trkpt lat="48.65219" lon="-2.36116">
        <ele>38</ele>
        <time>2014-06-10T13:39:35Z</time>
      </trkpt>
      <trkpt lat="48.65218" lon="-2.36119">
        <ele>39</ele>
        <time>2014-06-10T13:39:37Z</time>
      </trkpt>
      <trkpt lat="48.65218" lon="-2.36123">
        <ele>39</ele>
        <time>2014-06-10T13:39:39Z</time>
      </trkpt>
      <trkpt lat="48.65216" lon="-2.36127">
        <ele>39</ele>
        <time>2014-06-10T13:39:41Z</time>
      </trkpt>
      <trkpt lat="48.65216" lon="-2.36131">
        <ele>39</ele>
        <time>2014-06-10T13:39:43Z</time>
      </trkpt>
      <trkpt lat="48.65215" lon="-2.36135">
        <ele>39</ele>
        <time>2014-06-10T13:39:45Z</time>
      </trkpt>
      <trkpt lat="48.65213" lon="-2.36138">
        <ele>39</ele>
        <time>2014-06-10T13:39:47Z</time>
      </trkpt>
      <trkpt lat="48.65213" lon="-2.36143">
        <ele>40</ele>
        <time>2014-06-10T13:39:50Z</time>
      </trkpt>
      <trkpt lat="48.65212" lon="-2.36147">
        <ele>40</ele>
        <time>2014-06-10T13:39:52Z</time>
      </trkpt>
      <trkpt lat="48.65212" lon="-2.36151">
        <ele>40</ele>
        <time>2014-06-10T13:39:54Z</time>
      </trkpt>
      <trkpt lat="48.65212" lon="-2.36155">
        <ele>40</ele>
        <time>2014-06-10T13:39:56Z</time>
      </trkpt>
      <trkpt lat="48.65212" lon="-2.36158">
        <ele>40</ele>
        <time>2014-06-10T13:39:58Z</time>
      </trkpt>
      <trkpt lat="48.65212" lon="-2.36163">
        <ele>40</ele>
        <time>2014-06-10T13:40:00Z</time>
      </trkpt>
      <trkpt lat="48.65212" lon="-2.36167">
        <ele>40</ele>
        <time>2014-06-10T13:40:02Z</time>
      </trkpt>
      <trkpt lat="48.65211" lon="-2.3617">
        <ele>40</ele>
        <time>2014-06-10T13:40:04Z</time>
      </trkpt>
      <trkpt lat="48.65211" lon="-2.36174">
        <ele>40</ele>
        <time>2014-06-10T13:40:06Z</time>
      </trkpt>
      <trkpt lat="48.65211" lon="-2.36177">
        <ele>40</ele>
        <time>2014-06-10T13:40:08Z</time>
      </trkpt>
      <trkpt lat="48.65212" lon="-2.3618">
        <ele>40</ele>
        <time>2014-06-10T13:40:10Z</time>
      </trkpt>
      <trkpt lat="48.65213" lon="-2.36183">
        <ele>40</ele>
        <time>2014-06-10T13:40:12Z</time>
      </trkpt>
      <trkpt lat="48.65215" lon="-2.36185">
        <ele>40</ele>
        <time>2014-06-10T13:40:14Z</time>
      </trkpt>
      <trkpt lat="48.65217" lon="-2.36185">
        <ele>40</ele>
        <time>2014-06-10T13:40:16Z</time>
      </trkpt>
      <trkpt lat="48.65219" lon="-2.36183">
        <ele>40</ele>
        <time>2014-06-10T13:40:18Z</time>
      </trkpt>
      <trkpt lat="48.65223" lon="-2.3618">
        <ele>40</ele>
        <time>2014-06-10T13:40:21Z</time>
      </trkpt>
      <trkpt lat="48.65225" lon="-2.36178">
        <ele>40</ele>
        <time>2014-06-10T13:40:23Z</time>
      </trkpt>
      <trkpt lat="48.65227" lon="-2.36177">
        <ele>40</ele>
        <time>2014-06-10T13:40:25Z</time>
      </trkpt>
      <trkpt lat="48.6523" lon="-2.36175">
        <ele>40</ele>
        <time>2014-06-10T13:40:27Z</time>
      </trkpt>
      <trkpt lat="48.65234" lon="-2.36173">
        <ele>40</ele>
        <time>2014-06-10T13:40:30Z</time>
      </trkpt>
      <trkpt lat="48.65236" lon="-2.36172">
        <ele>40</ele>
        <time>2014-06-10T13:40:32Z</time>
      </trkpt>
      <trkpt lat="48.65239" lon="-2.36172">
        <ele>40</ele>
        <time>2014-06-10T13:40:34Z</time>
      </trkpt>
      <trkpt lat="48.65242" lon="-2.36172">
        <ele>40</ele>
        <time>2014-06-10T13:40:36Z</time>
      </trkpt>
      <trkpt lat="48.65245" lon="-2.36172">
        <ele>40</ele>
        <time>2014-06-10T13:40:38Z</time>
      </trkpt>
      <trkpt lat="48.65248" lon="-2.36172">
        <ele>40</ele>
        <time>2014-06-10T13:40:40Z</time>
      </trkpt>
      <trkpt lat="48.6525" lon="-2.36173">
        <ele>40</ele>
        <time>2014-06-10T13:40:42Z</time>
      </trkpt>
      <trkpt lat="48.65253" lon="-2.36174">
        <ele>40</ele>
        <time>2014-06-10T13:40:44Z</time>
      </trkpt>
      <trkpt lat="48.65255" lon="-2.36176">
        <ele>40</ele>
        <time>2014-06-10T13:40:46Z</time>
      </trkpt>
      <trkpt lat="48.65258" lon="-2.36178">
        <ele>40</ele>
        <time>2014-06-10T13:40:48Z</time>
      </trkpt>
      <trkpt lat="48.6526" lon="-2.3618">
        <ele>40</ele>
        <time>2014-06-10T13:40:50Z</time>
      </trkpt>
      <trkpt lat="48.65263" lon="-2.36182">
        <ele>40</ele>
        <time>2014-06-10T13:40:52Z</time>
      </trkpt>
      <trkpt lat="48.65264" lon="-2.36186">
        <ele>40</ele>
        <time>2014-06-10T13:40:54Z</time>
      </trkpt>
      <trkpt lat="48.65266" lon="-2.36189">
        <ele>40</ele>
        <time>2014-06-10T13:40:56Z</time>
      </trkpt>
      <trkpt lat="48.65267" lon="-2.36192">
        <ele>40</ele>
        <time>2014-06-10T13:40:58Z</time>
      </trkpt>
      <trkpt lat="48.65269" lon="-2.36196">
        <ele>39</ele>
        <time>2014-06-10T13:41:00Z</time>
      </trkpt>
      <trkpt lat="48.65271" lon="-2.36201">
        <ele>38</ele>
        <time>2014-06-10T13:41:03Z</time>
      </trkpt>
      <trkpt lat="48.65273" lon="-2.36205">
        <ele>38</ele>
        <time>2014-06-10T13:41:05Z</time>
      </trkpt>
      <trkpt lat="48.65274" lon="-2.36208">
        <ele>37</ele>
        <time>2014-06-10T13:41:07Z</time>
      </trkpt>
      <trkpt lat="48.65274" lon="-2.36212">
        <ele>37</ele>
        <time>2014-06-10T13:41:09Z</time>
      </trkpt>
      <trkpt lat="48.65276" lon="-2.36216">
        <ele>36</ele>
        <time>2014-06-10T13:41:11Z</time>
      </trkpt>
      <trkpt lat="48.65276" lon="-2.36219">
        <ele>36</ele>
        <time>2014-06-10T13:41:13Z</time>
      </trkpt>
      <trkpt lat="48.65277" lon="-2.36223">
        <ele>36</ele>
        <time>2014-06-10T13:41:15Z</time>
      </trkpt>
      <trkpt lat="48.65278" lon="-2.36227">
        <ele>36</ele>
        <time>2014-06-10T13:41:17Z</time>
      </trkpt>
      <trkpt lat="48.65279" lon="-2.3623">
        <ele>36</ele>
        <time>2014-06-10T13:41:19Z</time>
      </trkpt>
      <trkpt lat="48.6528" lon="-2.36234">
        <ele>36</ele>
        <time>2014-06-10T13:41:21Z</time>
      </trkpt>
      <trkpt lat="48.65281" lon="-2.36238">
        <ele>36</ele>
        <time>2014-06-10T13:41:23Z</time>
      </trkpt>
      <trkpt lat="48.65281" lon="-2.36242">
        <ele>36</ele>
        <time>2014-06-10T13:41:25Z</time>
      </trkpt>
      <trkpt lat="48.65282" lon="-2.36245">
        <ele>36</ele>
        <time>2014-06-10T13:41:27Z</time>
      </trkpt>
      <trkpt lat="48.65283" lon="-2.36249">
        <ele>36</ele>
        <time>2014-06-10T13:41:29Z</time>
      </trkpt>
      <trkpt lat="48.65283" lon="-2.36253">
        <ele>36</ele>
        <time>2014-06-10T13:41:31Z</time>
      </trkpt>
      <trkpt lat="48.65284" lon="-2.36257">
        <ele>36</ele>
        <time>2014-06-10T13:41:33Z</time>
      </trkpt>
      <trkpt lat="48.65285" lon="-2.36262">
        <ele>36</ele>
        <time>2014-06-10T13:41:35Z</time>
      </trkpt>
      <trkpt lat="48.65286" lon="-2.36266">
        <ele>36</ele>
        <time>2014-06-10T13:41:37Z</time>
      </trkpt>
      <trkpt lat="48.65287" lon="-2.3627">
        <ele>35</ele>
        <time>2014-06-10T13:41:39Z</time>
      </trkpt>
      <trkpt lat="48.65288" lon="-2.36274">
        <ele>35</ele>
        <time>2014-06-10T13:41:41Z</time>
      </trkpt>
      <trkpt lat="48.65288" lon="-2.36278">
        <ele>34</ele>
        <time>2014-06-10T13:41:43Z</time>
      </trkpt>
      <trkpt lat="48.65289" lon="-2.36282">
        <ele>34</ele>
        <time>2014-06-10T13:41:45Z</time>
      </trkpt>
      <trkpt lat="48.6529" lon="-2.36285">
        <ele>33</ele>
        <time>2014-06-10T13:41:47Z</time>
      </trkpt>
      <trkpt lat="48.6529" lon="-2.36289">
        <ele>33</ele>
        <time>2014-06-10T13:41:49Z</time>
      </trkpt>
      <trkpt lat="48.65291" lon="-2.36293">
        <ele>32</ele>
        <time>2014-06-10T13:41:51Z</time>
      </trkpt>
      <trkpt lat="48.65291" lon="-2.36297">
        <ele>32</ele>
        <time>2014-06-10T13:41:54Z</time>
      </trkpt>
      <trkpt lat="48.65291" lon="-2.36302">
        <ele>31</ele>
        <time>2014-06-10T13:41:57Z</time>
      </trkpt>
      <trkpt lat="48.65292" lon="-2.36306">
        <ele>31</ele>
        <time>2014-06-10T13:41:59Z</time>
      </trkpt>
      <trkpt lat="48.65292" lon="-2.36309">
        <ele>30</ele>
        <time>2014-06-10T13:42:01Z</time>
      </trkpt>
      <trkpt lat="48.65294" lon="-2.36314">
        <ele>29</ele>
        <time>2014-06-10T13:42:03Z</time>
      </trkpt>
      <trkpt lat="48.65296" lon="-2.36319">
        <ele>29</ele>
        <time>2014-06-10T13:42:05Z</time>
      </trkpt>
      <trkpt lat="48.65297" lon="-2.36324">
        <ele>29</ele>
        <time>2014-06-10T13:42:07Z</time>
      </trkpt>
      <trkpt lat="48.65297" lon="-2.36327">
        <ele>29</ele>
        <time>2014-06-10T13:42:09Z</time>
      </trkpt>
      <trkpt lat="48.65298" lon="-2.36331">
        <ele>29</ele>
        <time>2014-06-10T13:42:11Z</time>
      </trkpt>
      <trkpt lat="48.653" lon="-2.36336">
        <ele>29</ele>
        <time>2014-06-10T13:42:14Z</time>
      </trkpt>
      <trkpt lat="48.65302" lon="-2.36341">
        <ele>29</ele>
        <time>2014-06-10T13:42:16Z</time>
      </trkpt>
      <trkpt lat="48.65303" lon="-2.36345">
        <ele>29</ele>
        <time>2014-06-10T13:42:18Z</time>
      </trkpt>
      <trkpt lat="48.65304" lon="-2.36349">
        <ele>29</ele>
        <time>2014-06-10T13:42:20Z</time>
      </trkpt>
      <trkpt lat="48.65305" lon="-2.36353">
        <ele>29</ele>
        <time>2014-06-10T13:42:22Z</time>
      </trkpt>
      <trkpt lat="48.65307" lon="-2.36356">
        <ele>29</ele>
        <time>2014-06-10T13:42:24Z</time>
      </trkpt>
      <trkpt lat="48.65308" lon="-2.3636">
        <ele>29</ele>
        <time>2014-06-10T13:42:26Z</time>
      </trkpt>
      <trkpt lat="48.6531" lon="-2.36363">
        <ele>29</ele>
        <time>2014-06-10T13:42:28Z</time>
      </trkpt>
      <trkpt lat="48.65312" lon="-2.36367">
        <ele>28</ele>
        <time>2014-06-10T13:42:30Z</time>
      </trkpt>
      <trkpt lat="48.65314" lon="-2.36371">
        <ele>27</ele>
        <time>2014-06-10T13:42:33Z</time>
      </trkpt>
      <trkpt lat="48.65316" lon="-2.36375">
        <ele>26</ele>
        <time>2014-06-10T13:42:35Z</time>
      </trkpt>
      <trkpt lat="48.65318" lon="-2.3638">
        <ele>26</ele>
        <time>2014-06-10T13:42:38Z</time>
      </trkpt>
      <trkpt lat="48.65319" lon="-2.36384">
        <ele>26</ele>
        <time>2014-06-10T13:42:40Z</time>
      </trkpt>
      <trkpt lat="48.65321" lon="-2.36387">
        <ele>26</ele>
        <time>2014-06-10T13:42:42Z</time>
      </trkpt>
      <trkpt lat="48.65322" lon="-2.3639">
        <ele>26</ele>
        <time>2014-06-10T13:42:44Z</time>
      </trkpt>
      <trkpt lat="48.65324" lon="-2.36393">
        <ele>26</ele>
        <time>2014-06-10T13:42:46Z</time>
      </trkpt>
      <trkpt lat="48.65326" lon="-2.36396">
        <ele>25</ele>
        <time>2014-06-10T13:42:48Z</time>
      </trkpt>
      <trkpt lat="48.65327" lon="-2.36399">
        <ele>25</ele>
        <time>2014-06-10T13:42:50Z</time>
      </trkpt>
      <trkpt lat="48.65329" lon="-2.36402">
        <ele>25</ele>
        <time>2014-06-10T13:42:52Z</time>
      </trkpt>
      <trkpt lat="48.65331" lon="-2.36405">
        <ele>25</ele>
        <time>2014-06-10T13:42:54Z</time>
      </trkpt>
      <trkpt lat="48.65333" lon="-2.3641">
        <ele>25</ele>
        <time>2014-06-10T13:42:57Z</time>
      </trkpt>
      <trkpt lat="48.65335" lon="-2.36413">
        <ele>25</ele>
        <time>2014-06-10T13:42:59Z</time>
      </trkpt>
      <trkpt lat="48.65338" lon="-2.36418">
        <ele>25</ele>
        <time>2014-06-10T13:43:02Z</time>
      </trkpt>
      <trkpt lat="48.6534" lon="-2.36423">
        <ele>25</ele>
        <time>2014-06-10T13:43:05Z</time>
      </trkpt>
      <trkpt lat="48.65342" lon="-2.36426">
        <ele>24</ele>
        <time>2014-06-10T13:43:07Z</time>
      </trkpt>
      <trkpt lat="48.65343" lon="-2.3643">
        <ele>24</ele>
        <time>2014-06-10T13:43:09Z</time>
      </trkpt>
      <trkpt lat="48.65344" lon="-2.36433">
        <ele>24</ele>
        <time>2014-06-10T13:43:11Z</time>
      </trkpt>
      <trkpt lat="48.65348" lon="-2.36438">
        <ele>24</ele>
        <time>2014-06-10T13:43:14Z</time>
      </trkpt>
      <trkpt lat="48.65349" lon="-2.36441">
        <ele>23</ele>
        <time>2014-06-10T13:43:16Z</time>
      </trkpt>
      <trkpt lat="48.65351" lon="-2.36446">
        <ele>22</ele>
        <time>2014-06-10T13:43:19Z</time>
      </trkpt>
      <trkpt lat="48.65353" lon="-2.36449">
        <ele>22</ele>
        <time>2014-06-10T13:43:21Z</time>
      </trkpt>
      <trkpt lat="48.65355" lon="-2.36452">
        <ele>21</ele>
        <time>2014-06-10T13:43:23Z</time>
      </trkpt>
      <trkpt lat="48.65357" lon="-2.36455">
        <ele>21</ele>
        <time>2014-06-10T13:43:25Z</time>
      </trkpt>
      <trkpt lat="48.65359" lon="-2.36458">
        <ele>21</ele>
        <time>2014-06-10T13:43:27Z</time>
      </trkpt>
      <trkpt lat="48.65361" lon="-2.36461">
        <ele>21</ele>
        <time>2014-06-10T13:43:29Z</time>
      </trkpt>
      <trkpt lat="48.65363" lon="-2.36464">
        <ele>20</ele>
        <time>2014-06-10T13:43:31Z</time>
      </trkpt>
      <trkpt lat="48.65365" lon="-2.36469">
        <ele>20</ele>
        <time>2014-06-10T13:43:34Z</time>
      </trkpt>
      <trkpt lat="48.65366" lon="-2.36473">
        <ele>20</ele>
        <time>2014-06-10T13:43:36Z</time>
      </trkpt>
      <trkpt lat="48.65368" lon="-2.36475">
        <ele>20</ele>
        <time>2014-06-10T13:43:38Z</time>
      </trkpt>
      <trkpt lat="48.65369" lon="-2.36478">
        <ele>19</ele>
        <time>2014-06-10T13:43:40Z</time>
      </trkpt>
      <trkpt lat="48.65371" lon="-2.3648">
        <ele>18</ele>
        <time>2014-06-10T13:43:42Z</time>
      </trkpt>
      <trkpt lat="48.65374" lon="-2.36483">
        <ele>18</ele>
        <time>2014-06-10T13:43:44Z</time>
      </trkpt>
      <trkpt lat="48.65377" lon="-2.36485">
        <ele>18</ele>
        <time>2014-06-10T13:43:46Z</time>
      </trkpt>
      <trkpt lat="48.65379" lon="-2.36486">
        <ele>18</ele>
        <time>2014-06-10T13:43:48Z</time>
      </trkpt>
      <trkpt lat="48.65382" lon="-2.36488">
        <ele>18</ele>
        <time>2014-06-10T13:43:50Z</time>
      </trkpt>
      <trkpt lat="48.65384" lon="-2.3649">
        <ele>18</ele>
        <time>2014-06-10T13:43:52Z</time>
      </trkpt>
      <trkpt lat="48.65387" lon="-2.36493">
        <ele>18</ele>
        <time>2014-06-10T13:43:54Z</time>
      </trkpt>
      <trkpt lat="48.6539" lon="-2.36495">
        <ele>18</ele>
        <time>2014-06-10T13:43:56Z</time>
      </trkpt>
      <trkpt lat="48.65393" lon="-2.36497">
        <ele>18</ele>
        <time>2014-06-10T13:43:58Z</time>
      </trkpt>
      <trkpt lat="48.65395" lon="-2.36498">
        <ele>18</ele>
        <time>2014-06-10T13:44:00Z</time>
      </trkpt>
      <trkpt lat="48.65399" lon="-2.36501">
        <ele>18</ele>
        <time>2014-06-10T13:44:03Z</time>
      </trkpt>
      <trkpt lat="48.65401" lon="-2.36503">
        <ele>18</ele>
        <time>2014-06-10T13:44:05Z</time>
      </trkpt>
      <trkpt lat="48.65404" lon="-2.36505">
        <ele>17</ele>
        <time>2014-06-10T13:44:07Z</time>
      </trkpt>
      <trkpt lat="48.65407" lon="-2.36507">
        <ele>17</ele>
        <time>2014-06-10T13:44:09Z</time>
      </trkpt>
      <trkpt lat="48.65409" lon="-2.36508">
        <ele>17</ele>
        <time>2014-06-10T13:44:11Z</time>
      </trkpt>
      <trkpt lat="48.65411" lon="-2.3651">
        <ele>17</ele>
        <time>2014-06-10T13:44:13Z</time>
      </trkpt>
      <trkpt lat="48.65414" lon="-2.36512">
        <ele>17</ele>
        <time>2014-06-10T13:44:15Z</time>
      </trkpt>
      <trkpt lat="48.65416" lon="-2.36514">
        <ele>17</ele>
        <time>2014-06-10T13:44:17Z</time>
      </trkpt>
      <trkpt lat="48.65418" lon="-2.36515">
        <ele>17</ele>
        <time>2014-06-10T13:44:19Z</time>
      </trkpt>
      <trkpt lat="48.65421" lon="-2.36518">
        <ele>17</ele>
        <time>2014-06-10T13:44:21Z</time>
      </trkpt>
      <trkpt lat="48.65424" lon="-2.36521">
        <ele>17</ele>
        <time>2014-06-10T13:44:24Z</time>
      </trkpt>
      <trkpt lat="48.65424" lon="-2.36521">
        <ele>17</ele>
        <time>2014-06-10T13:44:25Z</time>
      </trkpt>
    </trkseg>
  </trk>
</gpx>